<?xml version="1.0" encoding="UTF-8" standalone="no" ?>
<gpx xmlns="http://www.topografix.com/GPX/1/1" xmlns:xsi="http://www.w3.org/2001/XMLSchema-instance" xsi:schemaLocation="http://www.topografix.com/GPX/1/1 http://www.topografix.com/GPX/1/1/gpx.xsd" version="1.1" creator="VisuGPX - https://www.visugpx.com">
  <metadata>
    <name>Lons en carroyant</name>
  </metadata>
  <trk>
    <name><![CDATA[Lons en carroyant]]></name>
    <trkseg>
      <trkpt lat="46.58404" lon="5.73961">
        <ele>521.8</ele>
        <time>2022-03-04T16:38:50Z</time>
      </trkpt>
      <trkpt lat="46.58405" lon="5.73953">
        <ele>521.4</ele>
        <time>2022-03-04T16:38:51Z</time>
      </trkpt>
      <trkpt lat="46.58407" lon="5.73945">
        <ele>521.4</ele>
        <time>2022-03-04T16:38:52Z</time>
      </trkpt>
      <trkpt lat="46.58408" lon="5.73937">
        <ele>521.2</ele>
        <time>2022-03-04T16:38:53Z</time>
      </trkpt>
      <trkpt lat="46.5841" lon="5.73929">
        <ele>521.2</ele>
        <time>2022-03-04T16:38:54Z</time>
      </trkpt>
      <trkpt lat="46.58411" lon="5.7392">
        <ele>521</ele>
        <time>2022-03-04T16:38:55Z</time>
      </trkpt>
      <trkpt lat="46.58413" lon="5.73912">
        <ele>521</ele>
        <time>2022-03-04T16:38:56Z</time>
      </trkpt>
      <trkpt lat="46.58415" lon="5.73904">
        <ele>520.8</ele>
        <time>2022-03-04T16:38:57Z</time>
      </trkpt>
      <trkpt lat="46.58416" lon="5.73896">
        <ele>520.8</ele>
        <time>2022-03-04T16:38:58Z</time>
      </trkpt>
      <trkpt lat="46.58418" lon="5.73888">
        <ele>520.6</ele>
        <time>2022-03-04T16:38:59Z</time>
      </trkpt>
      <trkpt lat="46.58419" lon="5.7388">
        <ele>520.6</ele>
        <time>2022-03-04T16:39:00Z</time>
      </trkpt>
      <trkpt lat="46.58421" lon="5.73872">
        <ele>520.6</ele>
        <time>2022-03-04T16:39:01Z</time>
      </trkpt>
      <trkpt lat="46.58423" lon="5.73864">
        <ele>520.2</ele>
        <time>2022-03-04T16:39:02Z</time>
      </trkpt>
      <trkpt lat="46.58424" lon="5.73856">
        <ele>520.2</ele>
        <time>2022-03-04T16:39:03Z</time>
      </trkpt>
      <trkpt lat="46.58426" lon="5.73848">
        <ele>520</ele>
        <time>2022-03-04T16:39:04Z</time>
      </trkpt>
      <trkpt lat="46.58428" lon="5.7384">
        <ele>520</ele>
        <time>2022-03-04T16:39:05Z</time>
      </trkpt>
      <trkpt lat="46.58429" lon="5.73832">
        <ele>519.8</ele>
        <time>2022-03-04T16:39:06Z</time>
      </trkpt>
      <trkpt lat="46.5843" lon="5.73825">
        <ele>519.8</ele>
        <time>2022-03-04T16:39:07Z</time>
      </trkpt>
      <trkpt lat="46.58432" lon="5.73818">
        <ele>519.8</ele>
        <time>2022-03-04T16:39:08Z</time>
      </trkpt>
      <trkpt lat="46.58433" lon="5.73812">
        <ele>519.8</ele>
        <time>2022-03-04T16:39:09Z</time>
      </trkpt>
      <trkpt lat="46.58435" lon="5.73807">
        <ele>519.4</ele>
        <time>2022-03-04T16:39:10Z</time>
      </trkpt>
      <trkpt lat="46.58436" lon="5.73801">
        <ele>519.4</ele>
        <time>2022-03-04T16:39:11Z</time>
      </trkpt>
      <trkpt lat="46.58438" lon="5.73795">
        <ele>519.4</ele>
        <time>2022-03-04T16:39:12Z</time>
      </trkpt>
      <trkpt lat="46.58439" lon="5.73789">
        <ele>519.4</ele>
        <time>2022-03-04T16:39:13Z</time>
      </trkpt>
      <trkpt lat="46.58441" lon="5.73782">
        <ele>519.4</ele>
        <time>2022-03-04T16:39:14Z</time>
      </trkpt>
      <trkpt lat="46.58442" lon="5.73776">
        <ele>519.4</ele>
        <time>2022-03-04T16:39:15Z</time>
      </trkpt>
      <trkpt lat="46.58443" lon="5.73769">
        <ele>519.4</ele>
        <time>2022-03-04T16:39:16Z</time>
      </trkpt>
      <trkpt lat="46.58444" lon="5.73762">
        <ele>519.4</ele>
        <time>2022-03-04T16:39:17Z</time>
      </trkpt>
      <trkpt lat="46.58444" lon="5.73756">
        <ele>519.2</ele>
        <time>2022-03-04T16:39:18Z</time>
      </trkpt>
      <trkpt lat="46.58445" lon="5.73749">
        <ele>519.2</ele>
        <time>2022-03-04T16:39:19Z</time>
      </trkpt>
      <trkpt lat="46.58446" lon="5.73742">
        <ele>518.8</ele>
        <time>2022-03-04T16:39:20Z</time>
      </trkpt>
      <trkpt lat="46.58447" lon="5.73736">
        <ele>518.6</ele>
        <time>2022-03-04T16:39:21Z</time>
      </trkpt>
      <trkpt lat="46.58448" lon="5.7373">
        <ele>518.2</ele>
        <time>2022-03-04T16:39:22Z</time>
      </trkpt>
      <trkpt lat="46.58448" lon="5.73724">
        <ele>518.2</ele>
        <time>2022-03-04T16:39:23Z</time>
      </trkpt>
      <trkpt lat="46.58449" lon="5.73719">
        <ele>518</ele>
        <time>2022-03-04T16:39:24Z</time>
      </trkpt>
      <trkpt lat="46.58449" lon="5.73713">
        <ele>518</ele>
        <time>2022-03-04T16:39:25Z</time>
      </trkpt>
      <trkpt lat="46.5845" lon="5.73707">
        <ele>517.8</ele>
        <time>2022-03-04T16:39:26Z</time>
      </trkpt>
      <trkpt lat="46.5845" lon="5.73701">
        <ele>517.8</ele>
        <time>2022-03-04T16:39:27Z</time>
      </trkpt>
      <trkpt lat="46.58451" lon="5.73695">
        <ele>517.6</ele>
        <time>2022-03-04T16:39:28Z</time>
      </trkpt>
      <trkpt lat="46.58451" lon="5.73689">
        <ele>517.6</ele>
        <time>2022-03-04T16:39:29Z</time>
      </trkpt>
      <trkpt lat="46.58452" lon="5.73683">
        <ele>517.2</ele>
        <time>2022-03-04T16:39:30Z</time>
      </trkpt>
      <trkpt lat="46.58453" lon="5.73677">
        <ele>517.2</ele>
        <time>2022-03-04T16:39:31Z</time>
      </trkpt>
      <trkpt lat="46.58453" lon="5.73671">
        <ele>517.2</ele>
        <time>2022-03-04T16:39:32Z</time>
      </trkpt>
      <trkpt lat="46.58454" lon="5.73665">
        <ele>517.2</ele>
        <time>2022-03-04T16:39:33Z</time>
      </trkpt>
      <trkpt lat="46.58455" lon="5.73659">
        <ele>517</ele>
        <time>2022-03-04T16:39:34Z</time>
      </trkpt>
      <trkpt lat="46.58457" lon="5.73653">
        <ele>516.6</ele>
        <time>2022-03-04T16:39:35Z</time>
      </trkpt>
      <trkpt lat="46.58459" lon="5.73648">
        <ele>516.4</ele>
        <time>2022-03-04T16:39:36Z</time>
      </trkpt>
      <trkpt lat="46.58462" lon="5.73644">
        <ele>516</ele>
        <time>2022-03-04T16:39:37Z</time>
      </trkpt>
      <trkpt lat="46.58464" lon="5.73639">
        <ele>515.6</ele>
        <time>2022-03-04T16:39:38Z</time>
      </trkpt>
      <trkpt lat="46.58466" lon="5.73632">
        <ele>515.2</ele>
        <time>2022-03-04T16:39:39Z</time>
      </trkpt>
      <trkpt lat="46.58468" lon="5.73625">
        <ele>514.8</ele>
        <time>2022-03-04T16:39:40Z</time>
      </trkpt>
      <trkpt lat="46.58469" lon="5.73618">
        <ele>514.2</ele>
        <time>2022-03-04T16:39:41Z</time>
      </trkpt>
      <trkpt lat="46.58471" lon="5.7361">
        <ele>513.6</ele>
        <time>2022-03-04T16:39:42Z</time>
      </trkpt>
      <trkpt lat="46.58472" lon="5.73601">
        <ele>513.2</ele>
        <time>2022-03-04T16:39:43Z</time>
      </trkpt>
      <trkpt lat="46.58474" lon="5.73593">
        <ele>512.8</ele>
        <time>2022-03-04T16:39:44Z</time>
      </trkpt>
      <trkpt lat="46.58475" lon="5.73586">
        <ele>512.2</ele>
        <time>2022-03-04T16:39:45Z</time>
      </trkpt>
      <trkpt lat="46.58478" lon="5.7358">
        <ele>511.8</ele>
        <time>2022-03-04T16:39:46Z</time>
      </trkpt>
      <trkpt lat="46.5848" lon="5.73574">
        <ele>511.6</ele>
        <time>2022-03-04T16:39:47Z</time>
      </trkpt>
      <trkpt lat="46.58483" lon="5.73569">
        <ele>511.2</ele>
        <time>2022-03-04T16:39:48Z</time>
      </trkpt>
      <trkpt lat="46.58487" lon="5.73563">
        <ele>510.8</ele>
        <time>2022-03-04T16:39:49Z</time>
      </trkpt>
      <trkpt lat="46.58491" lon="5.73556">
        <ele>510.6</ele>
        <time>2022-03-04T16:39:50Z</time>
      </trkpt>
      <trkpt lat="46.58495" lon="5.73551">
        <ele>510.4</ele>
        <time>2022-03-04T16:39:51Z</time>
      </trkpt>
      <trkpt lat="46.58499" lon="5.73544">
        <ele>510</ele>
        <time>2022-03-04T16:39:52Z</time>
      </trkpt>
      <trkpt lat="46.58504" lon="5.73539">
        <ele>509.8</ele>
        <time>2022-03-04T16:39:53Z</time>
      </trkpt>
      <trkpt lat="46.58508" lon="5.73534">
        <ele>509.8</ele>
        <time>2022-03-04T16:39:54Z</time>
      </trkpt>
      <trkpt lat="46.58513" lon="5.7353">
        <ele>509.4</ele>
        <time>2022-03-04T16:39:55Z</time>
      </trkpt>
      <trkpt lat="46.58517" lon="5.73526">
        <ele>509</ele>
        <time>2022-03-04T16:39:56Z</time>
      </trkpt>
      <trkpt lat="46.58521" lon="5.73523">
        <ele>508.8</ele>
        <time>2022-03-04T16:39:57Z</time>
      </trkpt>
      <trkpt lat="46.58526" lon="5.7352">
        <ele>508.6</ele>
        <time>2022-03-04T16:39:58Z</time>
      </trkpt>
      <trkpt lat="46.58531" lon="5.73517">
        <ele>508.2</ele>
        <time>2022-03-04T16:39:59Z</time>
      </trkpt>
      <trkpt lat="46.58537" lon="5.73514">
        <ele>507.8</ele>
        <time>2022-03-04T16:40:00Z</time>
      </trkpt>
      <trkpt lat="46.58542" lon="5.73511">
        <ele>507.4</ele>
        <time>2022-03-04T16:40:01Z</time>
      </trkpt>
      <trkpt lat="46.58547" lon="5.73509">
        <ele>507.2</ele>
        <time>2022-03-04T16:40:02Z</time>
      </trkpt>
      <trkpt lat="46.58552" lon="5.73506">
        <ele>507</ele>
        <time>2022-03-04T16:40:03Z</time>
      </trkpt>
      <trkpt lat="46.58557" lon="5.73504">
        <ele>506.6</ele>
        <time>2022-03-04T16:40:04Z</time>
      </trkpt>
      <trkpt lat="46.58562" lon="5.73501">
        <ele>506.4</ele>
        <time>2022-03-04T16:40:05Z</time>
      </trkpt>
      <trkpt lat="46.58566" lon="5.735">
        <ele>506</ele>
        <time>2022-03-04T16:40:06Z</time>
      </trkpt>
      <trkpt lat="46.58571" lon="5.73499">
        <ele>505.8</ele>
        <time>2022-03-04T16:40:07Z</time>
      </trkpt>
      <trkpt lat="46.58577" lon="5.73498">
        <ele>505.6</ele>
        <time>2022-03-04T16:40:08Z</time>
      </trkpt>
      <trkpt lat="46.58582" lon="5.73496">
        <ele>505.2</ele>
        <time>2022-03-04T16:40:09Z</time>
      </trkpt>
      <trkpt lat="46.58588" lon="5.73494">
        <ele>505</ele>
        <time>2022-03-04T16:40:10Z</time>
      </trkpt>
      <trkpt lat="46.58594" lon="5.73491">
        <ele>504.8</ele>
        <time>2022-03-04T16:40:11Z</time>
      </trkpt>
      <trkpt lat="46.58599" lon="5.73489">
        <ele>504.6</ele>
        <time>2022-03-04T16:40:12Z</time>
      </trkpt>
      <trkpt lat="46.58605" lon="5.73486">
        <ele>504.6</ele>
        <time>2022-03-04T16:40:13Z</time>
      </trkpt>
      <trkpt lat="46.5861" lon="5.73484">
        <ele>504.2</ele>
        <time>2022-03-04T16:40:14Z</time>
      </trkpt>
      <trkpt lat="46.58616" lon="5.7348">
        <ele>504</ele>
        <time>2022-03-04T16:40:15Z</time>
      </trkpt>
      <trkpt lat="46.58621" lon="5.73476">
        <ele>503.6</ele>
        <time>2022-03-04T16:40:16Z</time>
      </trkpt>
      <trkpt lat="46.58627" lon="5.73472">
        <ele>503.4</ele>
        <time>2022-03-04T16:40:17Z</time>
      </trkpt>
      <trkpt lat="46.58632" lon="5.73469">
        <ele>503</ele>
        <time>2022-03-04T16:40:18Z</time>
      </trkpt>
      <trkpt lat="46.58638" lon="5.73464">
        <ele>503</ele>
        <time>2022-03-04T16:40:19Z</time>
      </trkpt>
      <trkpt lat="46.58643" lon="5.73459">
        <ele>502.6</ele>
        <time>2022-03-04T16:40:20Z</time>
      </trkpt>
      <trkpt lat="46.58648" lon="5.73454">
        <ele>502.4</ele>
        <time>2022-03-04T16:40:21Z</time>
      </trkpt>
      <trkpt lat="46.58654" lon="5.73448">
        <ele>502.2</ele>
        <time>2022-03-04T16:40:22Z</time>
      </trkpt>
      <trkpt lat="46.58659" lon="5.73441">
        <ele>501.8</ele>
        <time>2022-03-04T16:40:23Z</time>
      </trkpt>
      <trkpt lat="46.58663" lon="5.73434">
        <ele>501.6</ele>
        <time>2022-03-04T16:40:24Z</time>
      </trkpt>
      <trkpt lat="46.58668" lon="5.73427">
        <ele>501.2</ele>
        <time>2022-03-04T16:40:25Z</time>
      </trkpt>
      <trkpt lat="46.58672" lon="5.73419">
        <ele>501</ele>
        <time>2022-03-04T16:40:26Z</time>
      </trkpt>
      <trkpt lat="46.58677" lon="5.73412">
        <ele>500.8</ele>
        <time>2022-03-04T16:40:27Z</time>
      </trkpt>
      <trkpt lat="46.58681" lon="5.73404">
        <ele>500.6</ele>
        <time>2022-03-04T16:40:28Z</time>
      </trkpt>
      <trkpt lat="46.58684" lon="5.73396">
        <ele>500.2</ele>
        <time>2022-03-04T16:40:29Z</time>
      </trkpt>
      <trkpt lat="46.58687" lon="5.73387">
        <ele>499.8</ele>
        <time>2022-03-04T16:40:30Z</time>
      </trkpt>
      <trkpt lat="46.5869" lon="5.73378">
        <ele>499.6</ele>
        <time>2022-03-04T16:40:31Z</time>
      </trkpt>
      <trkpt lat="46.58693" lon="5.73369">
        <ele>499.2</ele>
        <time>2022-03-04T16:40:32Z</time>
      </trkpt>
      <trkpt lat="46.58695" lon="5.7336">
        <ele>498.8</ele>
        <time>2022-03-04T16:40:33Z</time>
      </trkpt>
      <trkpt lat="46.58698" lon="5.73351">
        <ele>498.6</ele>
        <time>2022-03-04T16:40:34Z</time>
      </trkpt>
      <trkpt lat="46.587" lon="5.73341">
        <ele>498.2</ele>
        <time>2022-03-04T16:40:35Z</time>
      </trkpt>
      <trkpt lat="46.58703" lon="5.73332">
        <ele>498</ele>
        <time>2022-03-04T16:40:36Z</time>
      </trkpt>
      <trkpt lat="46.58705" lon="5.73323">
        <ele>497.6</ele>
        <time>2022-03-04T16:40:37Z</time>
      </trkpt>
      <trkpt lat="46.58707" lon="5.73313">
        <ele>497.4</ele>
        <time>2022-03-04T16:40:38Z</time>
      </trkpt>
      <trkpt lat="46.58709" lon="5.73304">
        <ele>497.2</ele>
        <time>2022-03-04T16:40:39Z</time>
      </trkpt>
      <trkpt lat="46.58712" lon="5.73295">
        <ele>497</ele>
        <time>2022-03-04T16:40:40Z</time>
      </trkpt>
      <trkpt lat="46.58714" lon="5.73287">
        <ele>496.6</ele>
        <time>2022-03-04T16:40:41Z</time>
      </trkpt>
      <trkpt lat="46.58717" lon="5.73278">
        <ele>496.4</ele>
        <time>2022-03-04T16:40:42Z</time>
      </trkpt>
      <trkpt lat="46.58721" lon="5.73271">
        <ele>496</ele>
        <time>2022-03-04T16:40:43Z</time>
      </trkpt>
      <trkpt lat="46.58725" lon="5.73263">
        <ele>495.6</ele>
        <time>2022-03-04T16:40:44Z</time>
      </trkpt>
      <trkpt lat="46.58729" lon="5.73255">
        <ele>495.4</ele>
        <time>2022-03-04T16:40:45Z</time>
      </trkpt>
      <trkpt lat="46.58733" lon="5.73248">
        <ele>495</ele>
        <time>2022-03-04T16:40:46Z</time>
      </trkpt>
      <trkpt lat="46.58737" lon="5.73241">
        <ele>494.8</ele>
        <time>2022-03-04T16:40:47Z</time>
      </trkpt>
      <trkpt lat="46.58742" lon="5.73234">
        <ele>494.8</ele>
        <time>2022-03-04T16:40:48Z</time>
      </trkpt>
      <trkpt lat="46.58746" lon="5.73228">
        <ele>494.4</ele>
        <time>2022-03-04T16:40:49Z</time>
      </trkpt>
      <trkpt lat="46.58751" lon="5.73222">
        <ele>494</ele>
        <time>2022-03-04T16:40:50Z</time>
      </trkpt>
      <trkpt lat="46.58756" lon="5.73216">
        <ele>493.8</ele>
        <time>2022-03-04T16:40:51Z</time>
      </trkpt>
      <trkpt lat="46.58761" lon="5.7321">
        <ele>493.4</ele>
        <time>2022-03-04T16:40:52Z</time>
      </trkpt>
      <trkpt lat="46.58767" lon="5.73204">
        <ele>493.2</ele>
        <time>2022-03-04T16:40:53Z</time>
      </trkpt>
      <trkpt lat="46.58773" lon="5.73199">
        <ele>492.8</ele>
        <time>2022-03-04T16:40:54Z</time>
      </trkpt>
      <trkpt lat="46.58778" lon="5.73194">
        <ele>492.4</ele>
        <time>2022-03-04T16:40:55Z</time>
      </trkpt>
      <trkpt lat="46.58784" lon="5.7319">
        <ele>492.2</ele>
        <time>2022-03-04T16:40:56Z</time>
      </trkpt>
      <trkpt lat="46.5879" lon="5.73187">
        <ele>491.8</ele>
        <time>2022-03-04T16:40:57Z</time>
      </trkpt>
      <trkpt lat="46.58796" lon="5.73184">
        <ele>491.4</ele>
        <time>2022-03-04T16:40:58Z</time>
      </trkpt>
      <trkpt lat="46.58803" lon="5.73181">
        <ele>491.2</ele>
        <time>2022-03-04T16:40:59Z</time>
      </trkpt>
      <trkpt lat="46.58809" lon="5.73179">
        <ele>490.8</ele>
        <time>2022-03-04T16:41:00Z</time>
      </trkpt>
      <trkpt lat="46.58816" lon="5.73177">
        <ele>490.6</ele>
        <time>2022-03-04T16:41:01Z</time>
      </trkpt>
      <trkpt lat="46.58822" lon="5.73175">
        <ele>490.2</ele>
        <time>2022-03-04T16:41:02Z</time>
      </trkpt>
      <trkpt lat="46.58828" lon="5.73174">
        <ele>490</ele>
        <time>2022-03-04T16:41:03Z</time>
      </trkpt>
      <trkpt lat="46.58835" lon="5.73173">
        <ele>489.8</ele>
        <time>2022-03-04T16:41:04Z</time>
      </trkpt>
      <trkpt lat="46.58841" lon="5.73172">
        <ele>489.6</ele>
        <time>2022-03-04T16:41:05Z</time>
      </trkpt>
      <trkpt lat="46.58848" lon="5.73171">
        <ele>489.2</ele>
        <time>2022-03-04T16:41:06Z</time>
      </trkpt>
      <trkpt lat="46.58854" lon="5.73169">
        <ele>489</ele>
        <time>2022-03-04T16:41:07Z</time>
      </trkpt>
      <trkpt lat="46.58861" lon="5.73168">
        <ele>488.6</ele>
        <time>2022-03-04T16:41:08Z</time>
      </trkpt>
      <trkpt lat="46.58867" lon="5.73165">
        <ele>488.6</ele>
        <time>2022-03-04T16:41:09Z</time>
      </trkpt>
      <trkpt lat="46.58873" lon="5.73163">
        <ele>488.2</ele>
        <time>2022-03-04T16:41:10Z</time>
      </trkpt>
      <trkpt lat="46.58879" lon="5.7316">
        <ele>488</ele>
        <time>2022-03-04T16:41:11Z</time>
      </trkpt>
      <trkpt lat="46.58885" lon="5.73156">
        <ele>487.6</ele>
        <time>2022-03-04T16:41:12Z</time>
      </trkpt>
      <trkpt lat="46.58896" lon="5.73147">
        <ele>487.4</ele>
        <time>2022-03-04T16:41:13Z</time>
      </trkpt>
      <trkpt lat="46.58901" lon="5.73142">
        <ele>487</ele>
        <time>2022-03-04T16:41:14Z</time>
      </trkpt>
      <trkpt lat="46.58906" lon="5.73137">
        <ele>486.8</ele>
        <time>2022-03-04T16:41:15Z</time>
      </trkpt>
      <trkpt lat="46.5891" lon="5.73131">
        <ele>486.8</ele>
        <time>2022-03-04T16:41:16Z</time>
      </trkpt>
      <trkpt lat="46.58914" lon="5.73125">
        <ele>486.2</ele>
        <time>2022-03-04T16:41:17Z</time>
      </trkpt>
      <trkpt lat="46.58918" lon="5.73118">
        <ele>486</ele>
        <time>2022-03-04T16:41:18Z</time>
      </trkpt>
      <trkpt lat="46.58922" lon="5.7311">
        <ele>485.8</ele>
        <time>2022-03-04T16:41:19Z</time>
      </trkpt>
      <trkpt lat="46.58925" lon="5.73103">
        <ele>485.4</ele>
        <time>2022-03-04T16:41:20Z</time>
      </trkpt>
      <trkpt lat="46.58927" lon="5.73096">
        <ele>485.2</ele>
        <time>2022-03-04T16:41:21Z</time>
      </trkpt>
      <trkpt lat="46.5893" lon="5.7309">
        <ele>484.8</ele>
        <time>2022-03-04T16:41:22Z</time>
      </trkpt>
      <trkpt lat="46.58931" lon="5.73085">
        <ele>484.6</ele>
        <time>2022-03-04T16:41:23Z</time>
      </trkpt>
      <trkpt lat="46.58932" lon="5.7308">
        <ele>484.4</ele>
        <time>2022-03-04T16:41:24Z</time>
      </trkpt>
      <trkpt lat="46.58932" lon="5.73077">
        <ele>484.2</ele>
        <time>2022-03-04T16:41:25Z</time>
      </trkpt>
      <trkpt lat="46.58932" lon="5.73075">
        <ele>484</ele>
        <time>2022-03-04T16:41:26Z</time>
      </trkpt>
      <trkpt lat="46.58933" lon="5.73075">
        <ele>484</ele>
        <time>2022-03-04T16:41:27Z</time>
      </trkpt>
      <trkpt lat="46.58933" lon="5.73074">
        <ele>483.6</ele>
        <time>2022-03-04T16:41:28Z</time>
      </trkpt>
      <trkpt lat="46.58933" lon="5.73074">
        <ele>483.6</ele>
        <time>2022-03-04T16:41:29Z</time>
      </trkpt>
      <trkpt lat="46.58933" lon="5.73073">
        <ele>483.4</ele>
        <time>2022-03-04T16:41:31Z</time>
      </trkpt>
      <trkpt lat="46.58933" lon="5.73073">
        <ele>483.4</ele>
        <time>2022-03-04T16:41:32Z</time>
      </trkpt>
      <trkpt lat="46.58934" lon="5.73072">
        <ele>483.4</ele>
        <time>2022-03-04T16:41:33Z</time>
      </trkpt>
      <trkpt lat="46.58934" lon="5.73072">
        <ele>483.4</ele>
        <time>2022-03-04T16:41:35Z</time>
      </trkpt>
      <trkpt lat="46.58934" lon="5.73071">
        <ele>483.2</ele>
        <time>2022-03-04T16:41:36Z</time>
      </trkpt>
      <trkpt lat="46.58934" lon="5.73071">
        <ele>483.2</ele>
        <time>2022-03-04T16:41:40Z</time>
      </trkpt>
      <trkpt lat="46.58934" lon="5.7307">
        <ele>483.2</ele>
        <time>2022-03-04T16:41:41Z</time>
      </trkpt>
      <trkpt lat="46.58935" lon="5.7307">
        <ele>483.2</ele>
        <time>2022-03-04T16:41:42Z</time>
      </trkpt>
      <trkpt lat="46.58935" lon="5.73066">
        <ele>483.2</ele>
        <time>2022-03-04T16:41:43Z</time>
      </trkpt>
      <trkpt lat="46.58935" lon="5.73061">
        <ele>483.2</ele>
        <time>2022-03-04T16:41:44Z</time>
      </trkpt>
      <trkpt lat="46.58935" lon="5.73056">
        <ele>483.2</ele>
        <time>2022-03-04T16:41:45Z</time>
      </trkpt>
      <trkpt lat="46.58935" lon="5.73051">
        <ele>483.2</ele>
        <time>2022-03-04T16:41:46Z</time>
      </trkpt>
      <trkpt lat="46.58935" lon="5.73046">
        <ele>483</ele>
        <time>2022-03-04T16:41:47Z</time>
      </trkpt>
      <trkpt lat="46.58935" lon="5.7304">
        <ele>483</ele>
        <time>2022-03-04T16:41:48Z</time>
      </trkpt>
      <trkpt lat="46.58935" lon="5.73035">
        <ele>483</ele>
        <time>2022-03-04T16:41:49Z</time>
      </trkpt>
      <trkpt lat="46.58935" lon="5.7303">
        <ele>483</ele>
        <time>2022-03-04T16:41:50Z</time>
      </trkpt>
      <trkpt lat="46.58934" lon="5.73025">
        <ele>483</ele>
        <time>2022-03-04T16:41:51Z</time>
      </trkpt>
      <trkpt lat="46.58932" lon="5.7302">
        <ele>482.8</ele>
        <time>2022-03-04T16:41:52Z</time>
      </trkpt>
      <trkpt lat="46.5893" lon="5.73016">
        <ele>482.8</ele>
        <time>2022-03-04T16:41:53Z</time>
      </trkpt>
      <trkpt lat="46.58926" lon="5.73014">
        <ele>482.4</ele>
        <time>2022-03-04T16:41:54Z</time>
      </trkpt>
      <trkpt lat="46.58922" lon="5.73012">
        <ele>482.4</ele>
        <time>2022-03-04T16:41:55Z</time>
      </trkpt>
      <trkpt lat="46.58917" lon="5.7301">
        <ele>482.2</ele>
        <time>2022-03-04T16:41:56Z</time>
      </trkpt>
      <trkpt lat="46.58913" lon="5.73008">
        <ele>482.2</ele>
        <time>2022-03-04T16:41:57Z</time>
      </trkpt>
      <trkpt lat="46.58908" lon="5.73006">
        <ele>482</ele>
        <time>2022-03-04T16:41:58Z</time>
      </trkpt>
      <trkpt lat="46.58903" lon="5.73004">
        <ele>482</ele>
        <time>2022-03-04T16:41:59Z</time>
      </trkpt>
      <trkpt lat="46.58898" lon="5.73002">
        <ele>481.6</ele>
        <time>2022-03-04T16:42:00Z</time>
      </trkpt>
      <trkpt lat="46.58893" lon="5.73">
        <ele>481.6</ele>
        <time>2022-03-04T16:42:01Z</time>
      </trkpt>
      <trkpt lat="46.58888" lon="5.72998">
        <ele>481.6</ele>
        <time>2022-03-04T16:42:02Z</time>
      </trkpt>
      <trkpt lat="46.58883" lon="5.72996">
        <ele>481.6</ele>
        <time>2022-03-04T16:42:03Z</time>
      </trkpt>
      <trkpt lat="46.58878" lon="5.72994">
        <ele>481.4</ele>
        <time>2022-03-04T16:42:04Z</time>
      </trkpt>
      <trkpt lat="46.58873" lon="5.72992">
        <ele>481.4</ele>
        <time>2022-03-04T16:42:05Z</time>
      </trkpt>
      <trkpt lat="46.58868" lon="5.72989">
        <ele>481.4</ele>
        <time>2022-03-04T16:42:06Z</time>
      </trkpt>
      <trkpt lat="46.58863" lon="5.72987">
        <ele>481</ele>
        <time>2022-03-04T16:42:07Z</time>
      </trkpt>
      <trkpt lat="46.58858" lon="5.72985">
        <ele>481</ele>
        <time>2022-03-04T16:42:08Z</time>
      </trkpt>
      <trkpt lat="46.58853" lon="5.72982">
        <ele>480.8</ele>
        <time>2022-03-04T16:42:09Z</time>
      </trkpt>
      <trkpt lat="46.58848" lon="5.7298">
        <ele>480.8</ele>
        <time>2022-03-04T16:42:10Z</time>
      </trkpt>
      <trkpt lat="46.58843" lon="5.72978">
        <ele>480.8</ele>
        <time>2022-03-04T16:42:11Z</time>
      </trkpt>
      <trkpt lat="46.58838" lon="5.72975">
        <ele>480.8</ele>
        <time>2022-03-04T16:42:12Z</time>
      </trkpt>
      <trkpt lat="46.58833" lon="5.72973">
        <ele>480.6</ele>
        <time>2022-03-04T16:42:13Z</time>
      </trkpt>
      <trkpt lat="46.58828" lon="5.7297">
        <ele>480.6</ele>
        <time>2022-03-04T16:42:14Z</time>
      </trkpt>
      <trkpt lat="46.58824" lon="5.72968">
        <ele>480.6</ele>
        <time>2022-03-04T16:42:15Z</time>
      </trkpt>
      <trkpt lat="46.58819" lon="5.72965">
        <ele>480.6</ele>
        <time>2022-03-04T16:42:16Z</time>
      </trkpt>
      <trkpt lat="46.58814" lon="5.72962">
        <ele>480.6</ele>
        <time>2022-03-04T16:42:17Z</time>
      </trkpt>
      <trkpt lat="46.58809" lon="5.7296">
        <ele>480.6</ele>
        <time>2022-03-04T16:42:18Z</time>
      </trkpt>
      <trkpt lat="46.58805" lon="5.72957">
        <ele>480.4</ele>
        <time>2022-03-04T16:42:19Z</time>
      </trkpt>
      <trkpt lat="46.588" lon="5.72954">
        <ele>480.4</ele>
        <time>2022-03-04T16:42:20Z</time>
      </trkpt>
      <trkpt lat="46.58795" lon="5.72951">
        <ele>480.4</ele>
        <time>2022-03-04T16:42:21Z</time>
      </trkpt>
      <trkpt lat="46.5879" lon="5.72948">
        <ele>480.4</ele>
        <time>2022-03-04T16:42:22Z</time>
      </trkpt>
      <trkpt lat="46.58786" lon="5.72944">
        <ele>480.4</ele>
        <time>2022-03-04T16:42:23Z</time>
      </trkpt>
      <trkpt lat="46.58781" lon="5.72941">
        <ele>480.4</ele>
        <time>2022-03-04T16:42:24Z</time>
      </trkpt>
      <trkpt lat="46.58776" lon="5.72938">
        <ele>480.4</ele>
        <time>2022-03-04T16:42:25Z</time>
      </trkpt>
      <trkpt lat="46.58772" lon="5.72934">
        <ele>480</ele>
        <time>2022-03-04T16:42:26Z</time>
      </trkpt>
      <trkpt lat="46.58767" lon="5.72931">
        <ele>480</ele>
        <time>2022-03-04T16:42:27Z</time>
      </trkpt>
      <trkpt lat="46.58762" lon="5.72928">
        <ele>480</ele>
        <time>2022-03-04T16:42:28Z</time>
      </trkpt>
      <trkpt lat="46.58758" lon="5.72924">
        <ele>480</ele>
        <time>2022-03-04T16:42:29Z</time>
      </trkpt>
      <trkpt lat="46.58753" lon="5.72921">
        <ele>480</ele>
        <time>2022-03-04T16:42:30Z</time>
      </trkpt>
      <trkpt lat="46.58748" lon="5.72917">
        <ele>480</ele>
        <time>2022-03-04T16:42:31Z</time>
      </trkpt>
      <trkpt lat="46.58744" lon="5.72914">
        <ele>480</ele>
        <time>2022-03-04T16:42:32Z</time>
      </trkpt>
      <trkpt lat="46.58739" lon="5.72911">
        <ele>479.8</ele>
        <time>2022-03-04T16:42:33Z</time>
      </trkpt>
      <trkpt lat="46.58735" lon="5.72907">
        <ele>479.8</ele>
        <time>2022-03-04T16:42:34Z</time>
      </trkpt>
      <trkpt lat="46.5873" lon="5.72904">
        <ele>479.8</ele>
        <time>2022-03-04T16:42:35Z</time>
      </trkpt>
      <trkpt lat="46.58725" lon="5.72901">
        <ele>479.8</ele>
        <time>2022-03-04T16:42:36Z</time>
      </trkpt>
      <trkpt lat="46.58721" lon="5.72898">
        <ele>479.6</ele>
        <time>2022-03-04T16:42:37Z</time>
      </trkpt>
      <trkpt lat="46.58716" lon="5.72895">
        <ele>479.6</ele>
        <time>2022-03-04T16:42:38Z</time>
      </trkpt>
      <trkpt lat="46.58711" lon="5.72892">
        <ele>479.6</ele>
        <time>2022-03-04T16:42:39Z</time>
      </trkpt>
      <trkpt lat="46.58707" lon="5.72889">
        <ele>479.6</ele>
        <time>2022-03-04T16:42:40Z</time>
      </trkpt>
      <trkpt lat="46.58702" lon="5.72886">
        <ele>479.6</ele>
        <time>2022-03-04T16:42:41Z</time>
      </trkpt>
      <trkpt lat="46.58697" lon="5.72883">
        <ele>479.6</ele>
        <time>2022-03-04T16:42:42Z</time>
      </trkpt>
      <trkpt lat="46.58692" lon="5.7288">
        <ele>479.6</ele>
        <time>2022-03-04T16:42:43Z</time>
      </trkpt>
      <trkpt lat="46.58687" lon="5.72877">
        <ele>479.6</ele>
        <time>2022-03-04T16:42:44Z</time>
      </trkpt>
      <trkpt lat="46.58682" lon="5.72875">
        <ele>479.6</ele>
        <time>2022-03-04T16:42:45Z</time>
      </trkpt>
      <trkpt lat="46.58678" lon="5.72872">
        <ele>479.6</ele>
        <time>2022-03-04T16:42:46Z</time>
      </trkpt>
      <trkpt lat="46.58673" lon="5.72869">
        <ele>479.4</ele>
        <time>2022-03-04T16:42:47Z</time>
      </trkpt>
      <trkpt lat="46.58668" lon="5.72866">
        <ele>479.4</ele>
        <time>2022-03-04T16:42:48Z</time>
      </trkpt>
      <trkpt lat="46.58663" lon="5.72864">
        <ele>479.4</ele>
        <time>2022-03-04T16:42:49Z</time>
      </trkpt>
      <trkpt lat="46.58659" lon="5.72861">
        <ele>479.4</ele>
        <time>2022-03-04T16:42:50Z</time>
      </trkpt>
      <trkpt lat="46.58654" lon="5.72859">
        <ele>479.4</ele>
        <time>2022-03-04T16:42:51Z</time>
      </trkpt>
      <trkpt lat="46.58649" lon="5.72857">
        <ele>479</ele>
        <time>2022-03-04T16:42:52Z</time>
      </trkpt>
      <trkpt lat="46.58644" lon="5.72854">
        <ele>479</ele>
        <time>2022-03-04T16:42:53Z</time>
      </trkpt>
      <trkpt lat="46.58639" lon="5.72851">
        <ele>479</ele>
        <time>2022-03-04T16:42:54Z</time>
      </trkpt>
      <trkpt lat="46.58634" lon="5.72849">
        <ele>479</ele>
        <time>2022-03-04T16:42:55Z</time>
      </trkpt>
      <trkpt lat="46.58634" lon="5.72849">
        <ele>479</ele>
        <time>2022-03-04T16:42:56Z</time>
      </trkpt>
      <trkpt lat="46.58629" lon="5.72846">
        <ele>479</ele>
        <time>2022-03-04T16:42:57Z</time>
      </trkpt>
      <trkpt lat="46.58625" lon="5.72843">
        <ele>479</ele>
        <time>2022-03-04T16:42:58Z</time>
      </trkpt>
      <trkpt lat="46.5862" lon="5.7284">
        <ele>479</ele>
        <time>2022-03-04T16:42:59Z</time>
      </trkpt>
      <trkpt lat="46.58615" lon="5.72837">
        <ele>479</ele>
        <time>2022-03-04T16:43:00Z</time>
      </trkpt>
      <trkpt lat="46.5861" lon="5.72834">
        <ele>479</ele>
        <time>2022-03-04T16:43:01Z</time>
      </trkpt>
      <trkpt lat="46.58605" lon="5.7283">
        <ele>479</ele>
        <time>2022-03-04T16:43:02Z</time>
      </trkpt>
      <trkpt lat="46.58601" lon="5.72827">
        <ele>479</ele>
        <time>2022-03-04T16:43:03Z</time>
      </trkpt>
      <trkpt lat="46.58596" lon="5.72824">
        <ele>479</ele>
        <time>2022-03-04T16:43:04Z</time>
      </trkpt>
      <trkpt lat="46.58591" lon="5.7282">
        <ele>479</ele>
        <time>2022-03-04T16:43:05Z</time>
      </trkpt>
      <trkpt lat="46.58587" lon="5.72816">
        <ele>479</ele>
        <time>2022-03-04T16:43:06Z</time>
      </trkpt>
      <trkpt lat="46.58583" lon="5.72811">
        <ele>479</ele>
        <time>2022-03-04T16:43:07Z</time>
      </trkpt>
      <trkpt lat="46.58579" lon="5.72807">
        <ele>479</ele>
        <time>2022-03-04T16:43:08Z</time>
      </trkpt>
      <trkpt lat="46.58574" lon="5.72803">
        <ele>479</ele>
        <time>2022-03-04T16:43:09Z</time>
      </trkpt>
      <trkpt lat="46.5857" lon="5.72799">
        <ele>479</ele>
        <time>2022-03-04T16:43:10Z</time>
      </trkpt>
      <trkpt lat="46.58566" lon="5.72795">
        <ele>479</ele>
        <time>2022-03-04T16:43:11Z</time>
      </trkpt>
      <trkpt lat="46.58562" lon="5.72791">
        <ele>479</ele>
        <time>2022-03-04T16:43:12Z</time>
      </trkpt>
      <trkpt lat="46.58558" lon="5.72787">
        <ele>479</ele>
        <time>2022-03-04T16:43:13Z</time>
      </trkpt>
      <trkpt lat="46.58553" lon="5.72783">
        <ele>479.4</ele>
        <time>2022-03-04T16:43:14Z</time>
      </trkpt>
      <trkpt lat="46.5855" lon="5.72779">
        <ele>479.4</ele>
        <time>2022-03-04T16:43:15Z</time>
      </trkpt>
      <trkpt lat="46.58546" lon="5.72775">
        <ele>479.4</ele>
        <time>2022-03-04T16:43:16Z</time>
      </trkpt>
      <trkpt lat="46.58541" lon="5.72771">
        <ele>479.4</ele>
        <time>2022-03-04T16:43:17Z</time>
      </trkpt>
      <trkpt lat="46.58537" lon="5.72767">
        <ele>479.4</ele>
        <time>2022-03-04T16:43:18Z</time>
      </trkpt>
      <trkpt lat="46.58533" lon="5.72762">
        <ele>479.4</ele>
        <time>2022-03-04T16:43:19Z</time>
      </trkpt>
      <trkpt lat="46.58529" lon="5.72758">
        <ele>479.4</ele>
        <time>2022-03-04T16:43:20Z</time>
      </trkpt>
      <trkpt lat="46.58524" lon="5.72754">
        <ele>479.4</ele>
        <time>2022-03-04T16:43:21Z</time>
      </trkpt>
      <trkpt lat="46.5852" lon="5.7275">
        <ele>479.4</ele>
        <time>2022-03-04T16:43:22Z</time>
      </trkpt>
      <trkpt lat="46.58516" lon="5.72746">
        <ele>479.4</ele>
        <time>2022-03-04T16:43:23Z</time>
      </trkpt>
      <trkpt lat="46.58512" lon="5.72743">
        <ele>479.4</ele>
        <time>2022-03-04T16:43:24Z</time>
      </trkpt>
      <trkpt lat="46.58507" lon="5.72739">
        <ele>479.4</ele>
        <time>2022-03-04T16:43:25Z</time>
      </trkpt>
      <trkpt lat="46.58503" lon="5.72735">
        <ele>479.4</ele>
        <time>2022-03-04T16:43:26Z</time>
      </trkpt>
      <trkpt lat="46.58498" lon="5.72732">
        <ele>479.4</ele>
        <time>2022-03-04T16:43:27Z</time>
      </trkpt>
      <trkpt lat="46.58494" lon="5.72729">
        <ele>479.4</ele>
        <time>2022-03-04T16:43:28Z</time>
      </trkpt>
      <trkpt lat="46.58489" lon="5.72726">
        <ele>479.4</ele>
        <time>2022-03-04T16:43:29Z</time>
      </trkpt>
      <trkpt lat="46.58484" lon="5.72724">
        <ele>479.4</ele>
        <time>2022-03-04T16:43:30Z</time>
      </trkpt>
      <trkpt lat="46.5848" lon="5.72721">
        <ele>479.4</ele>
        <time>2022-03-04T16:43:31Z</time>
      </trkpt>
      <trkpt lat="46.58475" lon="5.72719">
        <ele>479.6</ele>
        <time>2022-03-04T16:43:32Z</time>
      </trkpt>
      <trkpt lat="46.5847" lon="5.72718">
        <ele>479.6</ele>
        <time>2022-03-04T16:43:33Z</time>
      </trkpt>
      <trkpt lat="46.58465" lon="5.72716">
        <ele>479.6</ele>
        <time>2022-03-04T16:43:34Z</time>
      </trkpt>
      <trkpt lat="46.5846" lon="5.72715">
        <ele>479.6</ele>
        <time>2022-03-04T16:43:35Z</time>
      </trkpt>
      <trkpt lat="46.58455" lon="5.72713">
        <ele>479.6</ele>
        <time>2022-03-04T16:43:36Z</time>
      </trkpt>
      <trkpt lat="46.5845" lon="5.72712">
        <ele>479.6</ele>
        <time>2022-03-04T16:43:37Z</time>
      </trkpt>
      <trkpt lat="46.58445" lon="5.72711">
        <ele>479.6</ele>
        <time>2022-03-04T16:43:38Z</time>
      </trkpt>
      <trkpt lat="46.5844" lon="5.7271">
        <ele>479.8</ele>
        <time>2022-03-04T16:43:39Z</time>
      </trkpt>
      <trkpt lat="46.58436" lon="5.72709">
        <ele>479.8</ele>
        <time>2022-03-04T16:43:40Z</time>
      </trkpt>
      <trkpt lat="46.58431" lon="5.72708">
        <ele>479.8</ele>
        <time>2022-03-04T16:43:41Z</time>
      </trkpt>
      <trkpt lat="46.58426" lon="5.72707">
        <ele>480.2</ele>
        <time>2022-03-04T16:43:42Z</time>
      </trkpt>
      <trkpt lat="46.58421" lon="5.72706">
        <ele>480.2</ele>
        <time>2022-03-04T16:43:43Z</time>
      </trkpt>
      <trkpt lat="46.58417" lon="5.72705">
        <ele>480.2</ele>
        <time>2022-03-04T16:43:44Z</time>
      </trkpt>
      <trkpt lat="46.58412" lon="5.72705">
        <ele>480.4</ele>
        <time>2022-03-04T16:43:45Z</time>
      </trkpt>
      <trkpt lat="46.58408" lon="5.72704">
        <ele>480.4</ele>
        <time>2022-03-04T16:43:46Z</time>
      </trkpt>
      <trkpt lat="46.58403" lon="5.72703">
        <ele>480.4</ele>
        <time>2022-03-04T16:43:47Z</time>
      </trkpt>
      <trkpt lat="46.58399" lon="5.72702">
        <ele>480.4</ele>
        <time>2022-03-04T16:43:48Z</time>
      </trkpt>
      <trkpt lat="46.58394" lon="5.72702">
        <ele>480.6</ele>
        <time>2022-03-04T16:43:49Z</time>
      </trkpt>
      <trkpt lat="46.58389" lon="5.72701">
        <ele>480.6</ele>
        <time>2022-03-04T16:43:50Z</time>
      </trkpt>
      <trkpt lat="46.58385" lon="5.727">
        <ele>480.6</ele>
        <time>2022-03-04T16:43:51Z</time>
      </trkpt>
      <trkpt lat="46.5838" lon="5.72699">
        <ele>480.6</ele>
        <time>2022-03-04T16:43:52Z</time>
      </trkpt>
      <trkpt lat="46.58376" lon="5.72699">
        <ele>480.8</ele>
        <time>2022-03-04T16:43:53Z</time>
      </trkpt>
      <trkpt lat="46.58371" lon="5.72698">
        <ele>480.8</ele>
        <time>2022-03-04T16:43:54Z</time>
      </trkpt>
      <trkpt lat="46.58366" lon="5.72698">
        <ele>480.8</ele>
        <time>2022-03-04T16:43:55Z</time>
      </trkpt>
      <trkpt lat="46.58362" lon="5.72697">
        <ele>481.2</ele>
        <time>2022-03-04T16:43:56Z</time>
      </trkpt>
      <trkpt lat="46.58357" lon="5.72697">
        <ele>481.2</ele>
        <time>2022-03-04T16:43:57Z</time>
      </trkpt>
      <trkpt lat="46.58352" lon="5.72696">
        <ele>481.2</ele>
        <time>2022-03-04T16:43:58Z</time>
      </trkpt>
      <trkpt lat="46.58348" lon="5.72696">
        <ele>481.2</ele>
        <time>2022-03-04T16:43:59Z</time>
      </trkpt>
      <trkpt lat="46.58343" lon="5.72695">
        <ele>481.4</ele>
        <time>2022-03-04T16:44:00Z</time>
      </trkpt>
      <trkpt lat="46.58338" lon="5.72695">
        <ele>481.4</ele>
        <time>2022-03-04T16:44:01Z</time>
      </trkpt>
      <trkpt lat="46.58334" lon="5.72695">
        <ele>481.8</ele>
        <time>2022-03-04T16:44:02Z</time>
      </trkpt>
      <trkpt lat="46.58329" lon="5.72695">
        <ele>481.8</ele>
        <time>2022-03-04T16:44:03Z</time>
      </trkpt>
      <trkpt lat="46.58325" lon="5.72695">
        <ele>482</ele>
        <time>2022-03-04T16:44:04Z</time>
      </trkpt>
      <trkpt lat="46.5832" lon="5.72695">
        <ele>482</ele>
        <time>2022-03-04T16:44:05Z</time>
      </trkpt>
      <trkpt lat="46.58315" lon="5.72695">
        <ele>482</ele>
        <time>2022-03-04T16:44:06Z</time>
      </trkpt>
      <trkpt lat="46.58311" lon="5.72696">
        <ele>482.2</ele>
        <time>2022-03-04T16:44:07Z</time>
      </trkpt>
      <trkpt lat="46.58306" lon="5.72696">
        <ele>482.2</ele>
        <time>2022-03-04T16:44:08Z</time>
      </trkpt>
      <trkpt lat="46.58302" lon="5.72696">
        <ele>482.6</ele>
        <time>2022-03-04T16:44:09Z</time>
      </trkpt>
      <trkpt lat="46.58298" lon="5.72697">
        <ele>482.6</ele>
        <time>2022-03-04T16:44:10Z</time>
      </trkpt>
      <trkpt lat="46.58293" lon="5.72697">
        <ele>482.8</ele>
        <time>2022-03-04T16:44:11Z</time>
      </trkpt>
      <trkpt lat="46.58289" lon="5.72698">
        <ele>482.8</ele>
        <time>2022-03-04T16:44:12Z</time>
      </trkpt>
      <trkpt lat="46.58284" lon="5.72698">
        <ele>482.8</ele>
        <time>2022-03-04T16:44:13Z</time>
      </trkpt>
      <trkpt lat="46.5828" lon="5.72698">
        <ele>483</ele>
        <time>2022-03-04T16:44:14Z</time>
      </trkpt>
      <trkpt lat="46.58276" lon="5.72698">
        <ele>483</ele>
        <time>2022-03-04T16:44:15Z</time>
      </trkpt>
      <trkpt lat="46.58271" lon="5.72698">
        <ele>483.2</ele>
        <time>2022-03-04T16:44:16Z</time>
      </trkpt>
      <trkpt lat="46.58267" lon="5.72697">
        <ele>483.2</ele>
        <time>2022-03-04T16:44:17Z</time>
      </trkpt>
      <trkpt lat="46.58263" lon="5.72696">
        <ele>483.4</ele>
        <time>2022-03-04T16:44:18Z</time>
      </trkpt>
      <trkpt lat="46.58259" lon="5.72695">
        <ele>483.4</ele>
        <time>2022-03-04T16:44:19Z</time>
      </trkpt>
      <trkpt lat="46.58255" lon="5.72693">
        <ele>483.4</ele>
        <time>2022-03-04T16:44:20Z</time>
      </trkpt>
      <trkpt lat="46.58251" lon="5.72692">
        <ele>483.8</ele>
        <time>2022-03-04T16:44:21Z</time>
      </trkpt>
      <trkpt lat="46.58247" lon="5.7269">
        <ele>483.8</ele>
        <time>2022-03-04T16:44:22Z</time>
      </trkpt>
      <trkpt lat="46.58243" lon="5.72688">
        <ele>484</ele>
        <time>2022-03-04T16:44:23Z</time>
      </trkpt>
      <trkpt lat="46.58239" lon="5.72686">
        <ele>484</ele>
        <time>2022-03-04T16:44:24Z</time>
      </trkpt>
      <trkpt lat="46.58235" lon="5.72683">
        <ele>484</ele>
        <time>2022-03-04T16:44:25Z</time>
      </trkpt>
      <trkpt lat="46.58232" lon="5.72681">
        <ele>484.2</ele>
        <time>2022-03-04T16:44:26Z</time>
      </trkpt>
      <trkpt lat="46.58228" lon="5.72678">
        <ele>484.2</ele>
        <time>2022-03-04T16:44:27Z</time>
      </trkpt>
      <trkpt lat="46.58225" lon="5.72676">
        <ele>484.2</ele>
        <time>2022-03-04T16:44:28Z</time>
      </trkpt>
      <trkpt lat="46.58221" lon="5.72674">
        <ele>484.6</ele>
        <time>2022-03-04T16:44:29Z</time>
      </trkpt>
      <trkpt lat="46.58218" lon="5.72672">
        <ele>484.6</ele>
        <time>2022-03-04T16:44:30Z</time>
      </trkpt>
      <trkpt lat="46.58215" lon="5.72669">
        <ele>484.8</ele>
        <time>2022-03-04T16:44:31Z</time>
      </trkpt>
      <trkpt lat="46.58211" lon="5.72667">
        <ele>484.8</ele>
        <time>2022-03-04T16:44:32Z</time>
      </trkpt>
      <trkpt lat="46.58208" lon="5.72664">
        <ele>485</ele>
        <time>2022-03-04T16:44:33Z</time>
      </trkpt>
      <trkpt lat="46.58205" lon="5.72662">
        <ele>485</ele>
        <time>2022-03-04T16:44:34Z</time>
      </trkpt>
      <trkpt lat="46.58201" lon="5.7266">
        <ele>485</ele>
        <time>2022-03-04T16:44:35Z</time>
      </trkpt>
      <trkpt lat="46.58198" lon="5.72658">
        <ele>485.2</ele>
        <time>2022-03-04T16:44:36Z</time>
      </trkpt>
      <trkpt lat="46.58194" lon="5.72656">
        <ele>485.2</ele>
        <time>2022-03-04T16:44:37Z</time>
      </trkpt>
      <trkpt lat="46.58191" lon="5.72654">
        <ele>485.6</ele>
        <time>2022-03-04T16:44:38Z</time>
      </trkpt>
      <trkpt lat="46.58188" lon="5.72651">
        <ele>485.6</ele>
        <time>2022-03-04T16:44:39Z</time>
      </trkpt>
      <trkpt lat="46.58185" lon="5.72649">
        <ele>486</ele>
        <time>2022-03-04T16:44:40Z</time>
      </trkpt>
      <trkpt lat="46.58181" lon="5.72647">
        <ele>486</ele>
        <time>2022-03-04T16:44:41Z</time>
      </trkpt>
      <trkpt lat="46.58178" lon="5.72645">
        <ele>486.2</ele>
        <time>2022-03-04T16:44:42Z</time>
      </trkpt>
      <trkpt lat="46.58175" lon="5.72643">
        <ele>486.2</ele>
        <time>2022-03-04T16:44:43Z</time>
      </trkpt>
      <trkpt lat="46.58172" lon="5.72641">
        <ele>486.2</ele>
        <time>2022-03-04T16:44:44Z</time>
      </trkpt>
      <trkpt lat="46.58168" lon="5.72639">
        <ele>486.4</ele>
        <time>2022-03-04T16:44:45Z</time>
      </trkpt>
      <trkpt lat="46.58165" lon="5.72637">
        <ele>486.4</ele>
        <time>2022-03-04T16:44:46Z</time>
      </trkpt>
      <trkpt lat="46.58162" lon="5.72635">
        <ele>486.8</ele>
        <time>2022-03-04T16:44:47Z</time>
      </trkpt>
      <trkpt lat="46.58159" lon="5.72632">
        <ele>487</ele>
        <time>2022-03-04T16:44:48Z</time>
      </trkpt>
      <trkpt lat="46.58157" lon="5.72628">
        <ele>487</ele>
        <time>2022-03-04T16:44:49Z</time>
      </trkpt>
      <trkpt lat="46.58156" lon="5.72623">
        <ele>487.2</ele>
        <time>2022-03-04T16:44:50Z</time>
      </trkpt>
      <trkpt lat="46.58156" lon="5.72618">
        <ele>487.2</ele>
        <time>2022-03-04T16:44:51Z</time>
      </trkpt>
      <trkpt lat="46.58157" lon="5.72613">
        <ele>487.4</ele>
        <time>2022-03-04T16:44:52Z</time>
      </trkpt>
      <trkpt lat="46.58158" lon="5.72607">
        <ele>487.4</ele>
        <time>2022-03-04T16:44:53Z</time>
      </trkpt>
      <trkpt lat="46.5816" lon="5.72602">
        <ele>487.4</ele>
        <time>2022-03-04T16:44:54Z</time>
      </trkpt>
      <trkpt lat="46.58161" lon="5.72596">
        <ele>487.4</ele>
        <time>2022-03-04T16:44:55Z</time>
      </trkpt>
      <trkpt lat="46.58163" lon="5.7259">
        <ele>487.4</ele>
        <time>2022-03-04T16:44:56Z</time>
      </trkpt>
      <trkpt lat="46.58164" lon="5.72585">
        <ele>487.4</ele>
        <time>2022-03-04T16:44:57Z</time>
      </trkpt>
      <trkpt lat="46.58166" lon="5.72579">
        <ele>487.4</ele>
        <time>2022-03-04T16:44:58Z</time>
      </trkpt>
      <trkpt lat="46.58167" lon="5.72573">
        <ele>487.4</ele>
        <time>2022-03-04T16:44:59Z</time>
      </trkpt>
      <trkpt lat="46.58168" lon="5.72567">
        <ele>487.4</ele>
        <time>2022-03-04T16:45:00Z</time>
      </trkpt>
      <trkpt lat="46.5817" lon="5.72561">
        <ele>487.4</ele>
        <time>2022-03-04T16:45:01Z</time>
      </trkpt>
      <trkpt lat="46.58171" lon="5.72555">
        <ele>487.4</ele>
        <time>2022-03-04T16:45:02Z</time>
      </trkpt>
      <trkpt lat="46.58173" lon="5.72549">
        <ele>487.4</ele>
        <time>2022-03-04T16:45:03Z</time>
      </trkpt>
      <trkpt lat="46.58174" lon="5.72543">
        <ele>487.4</ele>
        <time>2022-03-04T16:45:04Z</time>
      </trkpt>
      <trkpt lat="46.58176" lon="5.72537">
        <ele>487.4</ele>
        <time>2022-03-04T16:45:05Z</time>
      </trkpt>
      <trkpt lat="46.58177" lon="5.72532">
        <ele>487.4</ele>
        <time>2022-03-04T16:45:06Z</time>
      </trkpt>
      <trkpt lat="46.58179" lon="5.72526">
        <ele>487.4</ele>
        <time>2022-03-04T16:45:07Z</time>
      </trkpt>
      <trkpt lat="46.5818" lon="5.7252">
        <ele>487.4</ele>
        <time>2022-03-04T16:45:08Z</time>
      </trkpt>
      <trkpt lat="46.58181" lon="5.72515">
        <ele>487.4</ele>
        <time>2022-03-04T16:45:09Z</time>
      </trkpt>
      <trkpt lat="46.58183" lon="5.72509">
        <ele>487.4</ele>
        <time>2022-03-04T16:45:10Z</time>
      </trkpt>
      <trkpt lat="46.58184" lon="5.72503">
        <ele>487.4</ele>
        <time>2022-03-04T16:45:11Z</time>
      </trkpt>
      <trkpt lat="46.58186" lon="5.72498">
        <ele>487.4</ele>
        <time>2022-03-04T16:45:12Z</time>
      </trkpt>
      <trkpt lat="46.58187" lon="5.72492">
        <ele>487.4</ele>
        <time>2022-03-04T16:45:13Z</time>
      </trkpt>
      <trkpt lat="46.58189" lon="5.72486">
        <ele>487.4</ele>
        <time>2022-03-04T16:45:14Z</time>
      </trkpt>
      <trkpt lat="46.5819" lon="5.7248">
        <ele>487.4</ele>
        <time>2022-03-04T16:45:15Z</time>
      </trkpt>
      <trkpt lat="46.58191" lon="5.72475">
        <ele>487.4</ele>
        <time>2022-03-04T16:45:16Z</time>
      </trkpt>
      <trkpt lat="46.58193" lon="5.72469">
        <ele>487.4</ele>
        <time>2022-03-04T16:45:17Z</time>
      </trkpt>
      <trkpt lat="46.58194" lon="5.72463">
        <ele>487.6</ele>
        <time>2022-03-04T16:45:18Z</time>
      </trkpt>
      <trkpt lat="46.58195" lon="5.72458">
        <ele>487.6</ele>
        <time>2022-03-04T16:45:19Z</time>
      </trkpt>
      <trkpt lat="46.58197" lon="5.72453">
        <ele>487.6</ele>
        <time>2022-03-04T16:45:20Z</time>
      </trkpt>
      <trkpt lat="46.58198" lon="5.72447">
        <ele>487.8</ele>
        <time>2022-03-04T16:45:21Z</time>
      </trkpt>
      <trkpt lat="46.58199" lon="5.72442">
        <ele>487.8</ele>
        <time>2022-03-04T16:45:22Z</time>
      </trkpt>
      <trkpt lat="46.58201" lon="5.72437">
        <ele>487.8</ele>
        <time>2022-03-04T16:45:23Z</time>
      </trkpt>
      <trkpt lat="46.58202" lon="5.72432">
        <ele>488.2</ele>
        <time>2022-03-04T16:45:24Z</time>
      </trkpt>
      <trkpt lat="46.58203" lon="5.72427">
        <ele>488.2</ele>
        <time>2022-03-04T16:45:25Z</time>
      </trkpt>
      <trkpt lat="46.58204" lon="5.72422">
        <ele>488.4</ele>
        <time>2022-03-04T16:45:26Z</time>
      </trkpt>
      <trkpt lat="46.58205" lon="5.72417">
        <ele>488.4</ele>
        <time>2022-03-04T16:45:27Z</time>
      </trkpt>
      <trkpt lat="46.58207" lon="5.72412">
        <ele>488.4</ele>
        <time>2022-03-04T16:45:28Z</time>
      </trkpt>
      <trkpt lat="46.58208" lon="5.72407">
        <ele>488.4</ele>
        <time>2022-03-04T16:45:29Z</time>
      </trkpt>
      <trkpt lat="46.58209" lon="5.72402">
        <ele>488.6</ele>
        <time>2022-03-04T16:45:30Z</time>
      </trkpt>
      <trkpt lat="46.58212" lon="5.72392">
        <ele>488.6</ele>
        <time>2022-03-04T16:45:31Z</time>
      </trkpt>
      <trkpt lat="46.58213" lon="5.72387">
        <ele>488.6</ele>
        <time>2022-03-04T16:45:32Z</time>
      </trkpt>
      <trkpt lat="46.58215" lon="5.72382">
        <ele>488.6</ele>
        <time>2022-03-04T16:45:33Z</time>
      </trkpt>
      <trkpt lat="46.58216" lon="5.72377">
        <ele>488.6</ele>
        <time>2022-03-04T16:45:34Z</time>
      </trkpt>
      <trkpt lat="46.58217" lon="5.72371">
        <ele>488.6</ele>
        <time>2022-03-04T16:45:35Z</time>
      </trkpt>
      <trkpt lat="46.58219" lon="5.72365">
        <ele>488.6</ele>
        <time>2022-03-04T16:45:36Z</time>
      </trkpt>
      <trkpt lat="46.5822" lon="5.72359">
        <ele>488.6</ele>
        <time>2022-03-04T16:45:37Z</time>
      </trkpt>
      <trkpt lat="46.58222" lon="5.72353">
        <ele>488.8</ele>
        <time>2022-03-04T16:45:38Z</time>
      </trkpt>
      <trkpt lat="46.58223" lon="5.72347">
        <ele>488.8</ele>
        <time>2022-03-04T16:45:39Z</time>
      </trkpt>
      <trkpt lat="46.58225" lon="5.7234">
        <ele>488.4</ele>
        <time>2022-03-04T16:45:40Z</time>
      </trkpt>
      <trkpt lat="46.58227" lon="5.72334">
        <ele>488.4</ele>
        <time>2022-03-04T16:45:41Z</time>
      </trkpt>
      <trkpt lat="46.58229" lon="5.72326">
        <ele>488.2</ele>
        <time>2022-03-04T16:45:42Z</time>
      </trkpt>
      <trkpt lat="46.5823" lon="5.72319">
        <ele>488.2</ele>
        <time>2022-03-04T16:45:43Z</time>
      </trkpt>
      <trkpt lat="46.58232" lon="5.72311">
        <ele>487.8</ele>
        <time>2022-03-04T16:45:44Z</time>
      </trkpt>
      <trkpt lat="46.58234" lon="5.72303">
        <ele>487.6</ele>
        <time>2022-03-04T16:45:45Z</time>
      </trkpt>
      <trkpt lat="46.58236" lon="5.72294">
        <ele>487.4</ele>
        <time>2022-03-04T16:45:46Z</time>
      </trkpt>
      <trkpt lat="46.58238" lon="5.72286">
        <ele>487</ele>
        <time>2022-03-04T16:45:47Z</time>
      </trkpt>
      <trkpt lat="46.5824" lon="5.72277">
        <ele>486.6</ele>
        <time>2022-03-04T16:45:48Z</time>
      </trkpt>
      <trkpt lat="46.58242" lon="5.72267">
        <ele>486.2</ele>
        <time>2022-03-04T16:45:49Z</time>
      </trkpt>
      <trkpt lat="46.58244" lon="5.72257">
        <ele>485.8</ele>
        <time>2022-03-04T16:45:50Z</time>
      </trkpt>
      <trkpt lat="46.58247" lon="5.72247">
        <ele>485.4</ele>
        <time>2022-03-04T16:45:51Z</time>
      </trkpt>
      <trkpt lat="46.58249" lon="5.72237">
        <ele>485</ele>
        <time>2022-03-04T16:45:52Z</time>
      </trkpt>
      <trkpt lat="46.58251" lon="5.72226">
        <ele>484.6</ele>
        <time>2022-03-04T16:45:53Z</time>
      </trkpt>
      <trkpt lat="46.58254" lon="5.72215">
        <ele>484.2</ele>
        <time>2022-03-04T16:45:54Z</time>
      </trkpt>
      <trkpt lat="46.58257" lon="5.72203">
        <ele>483.6</ele>
        <time>2022-03-04T16:45:55Z</time>
      </trkpt>
      <trkpt lat="46.5826" lon="5.72191">
        <ele>483.6</ele>
        <time>2022-03-04T16:45:56Z</time>
      </trkpt>
      <trkpt lat="46.58262" lon="5.7218">
        <ele>483</ele>
        <time>2022-03-04T16:45:57Z</time>
      </trkpt>
      <trkpt lat="46.58265" lon="5.72167">
        <ele>482.2</ele>
        <time>2022-03-04T16:45:58Z</time>
      </trkpt>
      <trkpt lat="46.58268" lon="5.72155">
        <ele>481.6</ele>
        <time>2022-03-04T16:45:59Z</time>
      </trkpt>
      <trkpt lat="46.58271" lon="5.72143">
        <ele>481</ele>
        <time>2022-03-04T16:46:00Z</time>
      </trkpt>
      <trkpt lat="46.58273" lon="5.72131">
        <ele>480.2</ele>
        <time>2022-03-04T16:46:01Z</time>
      </trkpt>
      <trkpt lat="46.58276" lon="5.72119">
        <ele>479.8</ele>
        <time>2022-03-04T16:46:02Z</time>
      </trkpt>
      <trkpt lat="46.58279" lon="5.72107">
        <ele>479.2</ele>
        <time>2022-03-04T16:46:03Z</time>
      </trkpt>
      <trkpt lat="46.58282" lon="5.72095">
        <ele>478.6</ele>
        <time>2022-03-04T16:46:04Z</time>
      </trkpt>
      <trkpt lat="46.58284" lon="5.72084">
        <ele>478.2</ele>
        <time>2022-03-04T16:46:05Z</time>
      </trkpt>
      <trkpt lat="46.58287" lon="5.72073">
        <ele>477.8</ele>
        <time>2022-03-04T16:46:06Z</time>
      </trkpt>
      <trkpt lat="46.58289" lon="5.72061">
        <ele>477.4</ele>
        <time>2022-03-04T16:46:07Z</time>
      </trkpt>
      <trkpt lat="46.58292" lon="5.7205">
        <ele>477</ele>
        <time>2022-03-04T16:46:08Z</time>
      </trkpt>
      <trkpt lat="46.58295" lon="5.72039">
        <ele>476.8</ele>
        <time>2022-03-04T16:46:09Z</time>
      </trkpt>
      <trkpt lat="46.58297" lon="5.72029">
        <ele>476.4</ele>
        <time>2022-03-04T16:46:10Z</time>
      </trkpt>
      <trkpt lat="46.583" lon="5.72018">
        <ele>476.2</ele>
        <time>2022-03-04T16:46:11Z</time>
      </trkpt>
      <trkpt lat="46.58302" lon="5.72008">
        <ele>475.8</ele>
        <time>2022-03-04T16:46:12Z</time>
      </trkpt>
      <trkpt lat="46.58305" lon="5.71998">
        <ele>475.4</ele>
        <time>2022-03-04T16:46:13Z</time>
      </trkpt>
      <trkpt lat="46.58307" lon="5.71988">
        <ele>475</ele>
        <time>2022-03-04T16:46:14Z</time>
      </trkpt>
      <trkpt lat="46.5831" lon="5.71978">
        <ele>475</ele>
        <time>2022-03-04T16:46:15Z</time>
      </trkpt>
      <trkpt lat="46.58312" lon="5.71968">
        <ele>474.6</ele>
        <time>2022-03-04T16:46:16Z</time>
      </trkpt>
      <trkpt lat="46.58314" lon="5.71958">
        <ele>474.6</ele>
        <time>2022-03-04T16:46:17Z</time>
      </trkpt>
      <trkpt lat="46.58317" lon="5.71948">
        <ele>474.6</ele>
        <time>2022-03-04T16:46:18Z</time>
      </trkpt>
      <trkpt lat="46.58319" lon="5.71939">
        <ele>474.4</ele>
        <time>2022-03-04T16:46:19Z</time>
      </trkpt>
      <trkpt lat="46.58321" lon="5.71929">
        <ele>474.4</ele>
        <time>2022-03-04T16:46:20Z</time>
      </trkpt>
      <trkpt lat="46.58323" lon="5.7192">
        <ele>474.4</ele>
        <time>2022-03-04T16:46:21Z</time>
      </trkpt>
      <trkpt lat="46.58326" lon="5.7191">
        <ele>474.4</ele>
        <time>2022-03-04T16:46:22Z</time>
      </trkpt>
      <trkpt lat="46.58328" lon="5.71901">
        <ele>474.2</ele>
        <time>2022-03-04T16:46:23Z</time>
      </trkpt>
      <trkpt lat="46.5833" lon="5.71892">
        <ele>474.2</ele>
        <time>2022-03-04T16:46:24Z</time>
      </trkpt>
      <trkpt lat="46.58332" lon="5.71882">
        <ele>474</ele>
        <time>2022-03-04T16:46:25Z</time>
      </trkpt>
      <trkpt lat="46.58334" lon="5.71873">
        <ele>474</ele>
        <time>2022-03-04T16:46:26Z</time>
      </trkpt>
      <trkpt lat="46.58337" lon="5.71864">
        <ele>474</ele>
        <time>2022-03-04T16:46:27Z</time>
      </trkpt>
      <trkpt lat="46.58339" lon="5.71855">
        <ele>474</ele>
        <time>2022-03-04T16:46:28Z</time>
      </trkpt>
      <trkpt lat="46.58341" lon="5.71846">
        <ele>474</ele>
        <time>2022-03-04T16:46:29Z</time>
      </trkpt>
      <trkpt lat="46.58343" lon="5.71837">
        <ele>474</ele>
        <time>2022-03-04T16:46:30Z</time>
      </trkpt>
      <trkpt lat="46.58345" lon="5.71828">
        <ele>473.8</ele>
        <time>2022-03-04T16:46:31Z</time>
      </trkpt>
      <trkpt lat="46.58347" lon="5.71819">
        <ele>473.8</ele>
        <time>2022-03-04T16:46:32Z</time>
      </trkpt>
      <trkpt lat="46.58349" lon="5.7181">
        <ele>473.8</ele>
        <time>2022-03-04T16:46:33Z</time>
      </trkpt>
      <trkpt lat="46.58351" lon="5.71802">
        <ele>473.8</ele>
        <time>2022-03-04T16:46:34Z</time>
      </trkpt>
      <trkpt lat="46.58353" lon="5.71793">
        <ele>473.8</ele>
        <time>2022-03-04T16:46:35Z</time>
      </trkpt>
      <trkpt lat="46.58356" lon="5.71784">
        <ele>473.8</ele>
        <time>2022-03-04T16:46:36Z</time>
      </trkpt>
      <trkpt lat="46.58358" lon="5.71775">
        <ele>473.8</ele>
        <time>2022-03-04T16:46:37Z</time>
      </trkpt>
      <trkpt lat="46.5836" lon="5.71766">
        <ele>473.4</ele>
        <time>2022-03-04T16:46:38Z</time>
      </trkpt>
      <trkpt lat="46.58362" lon="5.71757">
        <ele>473.4</ele>
        <time>2022-03-04T16:46:39Z</time>
      </trkpt>
      <trkpt lat="46.58364" lon="5.71748">
        <ele>473.2</ele>
        <time>2022-03-04T16:46:40Z</time>
      </trkpt>
      <trkpt lat="46.58366" lon="5.71739">
        <ele>473.2</ele>
        <time>2022-03-04T16:46:41Z</time>
      </trkpt>
      <trkpt lat="46.58368" lon="5.7173">
        <ele>473.2</ele>
        <time>2022-03-04T16:46:42Z</time>
      </trkpt>
      <trkpt lat="46.5837" lon="5.71722">
        <ele>473</ele>
        <time>2022-03-04T16:46:43Z</time>
      </trkpt>
      <trkpt lat="46.58372" lon="5.71713">
        <ele>473</ele>
        <time>2022-03-04T16:46:44Z</time>
      </trkpt>
      <trkpt lat="46.58374" lon="5.71704">
        <ele>473</ele>
        <time>2022-03-04T16:46:45Z</time>
      </trkpt>
      <trkpt lat="46.58376" lon="5.71695">
        <ele>473</ele>
        <time>2022-03-04T16:46:46Z</time>
      </trkpt>
      <trkpt lat="46.58379" lon="5.71686">
        <ele>472.8</ele>
        <time>2022-03-04T16:46:47Z</time>
      </trkpt>
      <trkpt lat="46.58381" lon="5.71677">
        <ele>472.8</ele>
        <time>2022-03-04T16:46:48Z</time>
      </trkpt>
      <trkpt lat="46.58383" lon="5.71668">
        <ele>472.8</ele>
        <time>2022-03-04T16:46:49Z</time>
      </trkpt>
      <trkpt lat="46.58385" lon="5.71658">
        <ele>472.4</ele>
        <time>2022-03-04T16:46:50Z</time>
      </trkpt>
      <trkpt lat="46.58387" lon="5.71648">
        <ele>472.4</ele>
        <time>2022-03-04T16:46:51Z</time>
      </trkpt>
      <trkpt lat="46.58389" lon="5.71639">
        <ele>472.2</ele>
        <time>2022-03-04T16:46:52Z</time>
      </trkpt>
      <trkpt lat="46.58392" lon="5.7163">
        <ele>472</ele>
        <time>2022-03-04T16:46:53Z</time>
      </trkpt>
      <trkpt lat="46.58394" lon="5.7162">
        <ele>472</ele>
        <time>2022-03-04T16:46:54Z</time>
      </trkpt>
      <trkpt lat="46.58396" lon="5.71612">
        <ele>471.8</ele>
        <time>2022-03-04T16:46:55Z</time>
      </trkpt>
      <trkpt lat="46.58399" lon="5.71604">
        <ele>471.8</ele>
        <time>2022-03-04T16:46:56Z</time>
      </trkpt>
      <trkpt lat="46.58399" lon="5.71604">
        <ele>471.4</ele>
        <time>2022-03-04T16:46:57Z</time>
      </trkpt>
      <trkpt lat="46.58401" lon="5.71595">
        <ele>471.2</ele>
        <time>2022-03-04T16:46:58Z</time>
      </trkpt>
      <trkpt lat="46.58403" lon="5.71588">
        <ele>471.2</ele>
        <time>2022-03-04T16:46:59Z</time>
      </trkpt>
      <trkpt lat="46.58404" lon="5.7158">
        <ele>471.2</ele>
        <time>2022-03-04T16:47:00Z</time>
      </trkpt>
      <trkpt lat="46.58406" lon="5.71572">
        <ele>471.2</ele>
        <time>2022-03-04T16:47:01Z</time>
      </trkpt>
      <trkpt lat="46.58408" lon="5.71563">
        <ele>471.2</ele>
        <time>2022-03-04T16:47:02Z</time>
      </trkpt>
      <trkpt lat="46.5841" lon="5.71555">
        <ele>471.2</ele>
        <time>2022-03-04T16:47:03Z</time>
      </trkpt>
      <trkpt lat="46.58412" lon="5.71547">
        <ele>471.2</ele>
        <time>2022-03-04T16:47:04Z</time>
      </trkpt>
      <trkpt lat="46.58413" lon="5.71539">
        <ele>471.2</ele>
        <time>2022-03-04T16:47:05Z</time>
      </trkpt>
      <trkpt lat="46.58415" lon="5.71531">
        <ele>471.2</ele>
        <time>2022-03-04T16:47:06Z</time>
      </trkpt>
      <trkpt lat="46.58417" lon="5.71522">
        <ele>471.2</ele>
        <time>2022-03-04T16:47:07Z</time>
      </trkpt>
      <trkpt lat="46.58419" lon="5.71515">
        <ele>471.2</ele>
        <time>2022-03-04T16:47:08Z</time>
      </trkpt>
      <trkpt lat="46.5842" lon="5.71507">
        <ele>471.2</ele>
        <time>2022-03-04T16:47:09Z</time>
      </trkpt>
      <trkpt lat="46.58422" lon="5.71499">
        <ele>471.2</ele>
        <time>2022-03-04T16:47:10Z</time>
      </trkpt>
      <trkpt lat="46.58424" lon="5.71491">
        <ele>471.6</ele>
        <time>2022-03-04T16:47:11Z</time>
      </trkpt>
      <trkpt lat="46.58426" lon="5.71483">
        <ele>471.6</ele>
        <time>2022-03-04T16:47:12Z</time>
      </trkpt>
      <trkpt lat="46.58428" lon="5.71475">
        <ele>471.6</ele>
        <time>2022-03-04T16:47:13Z</time>
      </trkpt>
      <trkpt lat="46.5843" lon="5.71467">
        <ele>471.6</ele>
        <time>2022-03-04T16:47:14Z</time>
      </trkpt>
      <trkpt lat="46.58431" lon="5.71459">
        <ele>471.6</ele>
        <time>2022-03-04T16:47:15Z</time>
      </trkpt>
      <trkpt lat="46.58433" lon="5.71451">
        <ele>471.6</ele>
        <time>2022-03-04T16:47:16Z</time>
      </trkpt>
      <trkpt lat="46.58435" lon="5.71444">
        <ele>471.6</ele>
        <time>2022-03-04T16:47:17Z</time>
      </trkpt>
      <trkpt lat="46.58437" lon="5.71435">
        <ele>471.6</ele>
        <time>2022-03-04T16:47:18Z</time>
      </trkpt>
      <trkpt lat="46.58439" lon="5.71427">
        <ele>471.6</ele>
        <time>2022-03-04T16:47:19Z</time>
      </trkpt>
      <trkpt lat="46.5844" lon="5.71419">
        <ele>471.6</ele>
        <time>2022-03-04T16:47:20Z</time>
      </trkpt>
      <trkpt lat="46.58442" lon="5.71411">
        <ele>471.2</ele>
        <time>2022-03-04T16:47:21Z</time>
      </trkpt>
      <trkpt lat="46.58444" lon="5.71403">
        <ele>471.2</ele>
        <time>2022-03-04T16:47:22Z</time>
      </trkpt>
      <trkpt lat="46.58446" lon="5.71395">
        <ele>471.2</ele>
        <time>2022-03-04T16:47:23Z</time>
      </trkpt>
      <trkpt lat="46.58448" lon="5.71387">
        <ele>471.2</ele>
        <time>2022-03-04T16:47:24Z</time>
      </trkpt>
      <trkpt lat="46.5845" lon="5.71379">
        <ele>471.2</ele>
        <time>2022-03-04T16:47:25Z</time>
      </trkpt>
      <trkpt lat="46.58452" lon="5.71371">
        <ele>471.2</ele>
        <time>2022-03-04T16:47:26Z</time>
      </trkpt>
      <trkpt lat="46.58454" lon="5.71362">
        <ele>471.2</ele>
        <time>2022-03-04T16:47:27Z</time>
      </trkpt>
      <trkpt lat="46.58456" lon="5.71354">
        <ele>471.2</ele>
        <time>2022-03-04T16:47:28Z</time>
      </trkpt>
      <trkpt lat="46.58458" lon="5.71346">
        <ele>471</ele>
        <time>2022-03-04T16:47:29Z</time>
      </trkpt>
      <trkpt lat="46.5846" lon="5.71337">
        <ele>471</ele>
        <time>2022-03-04T16:47:30Z</time>
      </trkpt>
      <trkpt lat="46.58462" lon="5.71329">
        <ele>471</ele>
        <time>2022-03-04T16:47:31Z</time>
      </trkpt>
      <trkpt lat="46.58464" lon="5.7132">
        <ele>470.8</ele>
        <time>2022-03-04T16:47:32Z</time>
      </trkpt>
      <trkpt lat="46.58466" lon="5.71312">
        <ele>470.8</ele>
        <time>2022-03-04T16:47:33Z</time>
      </trkpt>
      <trkpt lat="46.58468" lon="5.71303">
        <ele>470.6</ele>
        <time>2022-03-04T16:47:34Z</time>
      </trkpt>
      <trkpt lat="46.5847" lon="5.71295">
        <ele>470.6</ele>
        <time>2022-03-04T16:47:35Z</time>
      </trkpt>
      <trkpt lat="46.58472" lon="5.71286">
        <ele>470.6</ele>
        <time>2022-03-04T16:47:36Z</time>
      </trkpt>
      <trkpt lat="46.58474" lon="5.71277">
        <ele>470.4</ele>
        <time>2022-03-04T16:47:37Z</time>
      </trkpt>
      <trkpt lat="46.58477" lon="5.71268">
        <ele>470.4</ele>
        <time>2022-03-04T16:47:38Z</time>
      </trkpt>
      <trkpt lat="46.58479" lon="5.71259">
        <ele>470.2</ele>
        <time>2022-03-04T16:47:39Z</time>
      </trkpt>
      <trkpt lat="46.58481" lon="5.7125">
        <ele>470</ele>
        <time>2022-03-04T16:47:40Z</time>
      </trkpt>
      <trkpt lat="46.58483" lon="5.7124">
        <ele>470</ele>
        <time>2022-03-04T16:47:41Z</time>
      </trkpt>
      <trkpt lat="46.58485" lon="5.71231">
        <ele>469.6</ele>
        <time>2022-03-04T16:47:42Z</time>
      </trkpt>
      <trkpt lat="46.58487" lon="5.71221">
        <ele>469.4</ele>
        <time>2022-03-04T16:47:43Z</time>
      </trkpt>
      <trkpt lat="46.5849" lon="5.7121">
        <ele>469</ele>
        <time>2022-03-04T16:47:44Z</time>
      </trkpt>
      <trkpt lat="46.58492" lon="5.712">
        <ele>468.8</ele>
        <time>2022-03-04T16:47:45Z</time>
      </trkpt>
      <trkpt lat="46.58495" lon="5.71189">
        <ele>468.4</ele>
        <time>2022-03-04T16:47:46Z</time>
      </trkpt>
      <trkpt lat="46.58497" lon="5.71178">
        <ele>468</ele>
        <time>2022-03-04T16:47:47Z</time>
      </trkpt>
      <trkpt lat="46.585" lon="5.71167">
        <ele>467.8</ele>
        <time>2022-03-04T16:47:48Z</time>
      </trkpt>
      <trkpt lat="46.58503" lon="5.71156">
        <ele>467.4</ele>
        <time>2022-03-04T16:47:49Z</time>
      </trkpt>
      <trkpt lat="46.58505" lon="5.71144">
        <ele>467</ele>
        <time>2022-03-04T16:47:50Z</time>
      </trkpt>
      <trkpt lat="46.58508" lon="5.71134">
        <ele>466.8</ele>
        <time>2022-03-04T16:47:51Z</time>
      </trkpt>
      <trkpt lat="46.5851" lon="5.71123">
        <ele>466.4</ele>
        <time>2022-03-04T16:47:52Z</time>
      </trkpt>
      <trkpt lat="46.58513" lon="5.71113">
        <ele>466.2</ele>
        <time>2022-03-04T16:47:53Z</time>
      </trkpt>
      <trkpt lat="46.58516" lon="5.71103">
        <ele>466</ele>
        <time>2022-03-04T16:47:54Z</time>
      </trkpt>
      <trkpt lat="46.58518" lon="5.71093">
        <ele>466</ele>
        <time>2022-03-04T16:47:55Z</time>
      </trkpt>
      <trkpt lat="46.5852" lon="5.71084">
        <ele>465.6</ele>
        <time>2022-03-04T16:47:56Z</time>
      </trkpt>
      <trkpt lat="46.58522" lon="5.71074">
        <ele>465.6</ele>
        <time>2022-03-04T16:47:57Z</time>
      </trkpt>
      <trkpt lat="46.58524" lon="5.71065">
        <ele>465.6</ele>
        <time>2022-03-04T16:47:58Z</time>
      </trkpt>
      <trkpt lat="46.58527" lon="5.71057">
        <ele>465.6</ele>
        <time>2022-03-04T16:47:59Z</time>
      </trkpt>
      <trkpt lat="46.58528" lon="5.71048">
        <ele>465.6</ele>
        <time>2022-03-04T16:48:00Z</time>
      </trkpt>
      <trkpt lat="46.5853" lon="5.7104">
        <ele>465.6</ele>
        <time>2022-03-04T16:48:01Z</time>
      </trkpt>
      <trkpt lat="46.58532" lon="5.71032">
        <ele>465.6</ele>
        <time>2022-03-04T16:48:02Z</time>
      </trkpt>
      <trkpt lat="46.58534" lon="5.71024">
        <ele>465.6</ele>
        <time>2022-03-04T16:48:03Z</time>
      </trkpt>
      <trkpt lat="46.58535" lon="5.71017">
        <ele>466</ele>
        <time>2022-03-04T16:48:04Z</time>
      </trkpt>
      <trkpt lat="46.58537" lon="5.71009">
        <ele>466</ele>
        <time>2022-03-04T16:48:05Z</time>
      </trkpt>
      <trkpt lat="46.58539" lon="5.71002">
        <ele>466.4</ele>
        <time>2022-03-04T16:48:06Z</time>
      </trkpt>
      <trkpt lat="46.5854" lon="5.70995">
        <ele>466.4</ele>
        <time>2022-03-04T16:48:07Z</time>
      </trkpt>
      <trkpt lat="46.58542" lon="5.70988">
        <ele>466.6</ele>
        <time>2022-03-04T16:48:08Z</time>
      </trkpt>
      <trkpt lat="46.58544" lon="5.70981">
        <ele>466.6</ele>
        <time>2022-03-04T16:48:09Z</time>
      </trkpt>
      <trkpt lat="46.58545" lon="5.70974">
        <ele>467</ele>
        <time>2022-03-04T16:48:10Z</time>
      </trkpt>
      <trkpt lat="46.58547" lon="5.70967">
        <ele>467</ele>
        <time>2022-03-04T16:48:11Z</time>
      </trkpt>
      <trkpt lat="46.58548" lon="5.7096">
        <ele>467</ele>
        <time>2022-03-04T16:48:12Z</time>
      </trkpt>
      <trkpt lat="46.58549" lon="5.70952">
        <ele>467</ele>
        <time>2022-03-04T16:48:13Z</time>
      </trkpt>
      <trkpt lat="46.58551" lon="5.70944">
        <ele>467</ele>
        <time>2022-03-04T16:48:14Z</time>
      </trkpt>
      <trkpt lat="46.58552" lon="5.70936">
        <ele>467</ele>
        <time>2022-03-04T16:48:15Z</time>
      </trkpt>
      <trkpt lat="46.58554" lon="5.70928">
        <ele>467</ele>
        <time>2022-03-04T16:48:16Z</time>
      </trkpt>
      <trkpt lat="46.58556" lon="5.70919">
        <ele>467</ele>
        <time>2022-03-04T16:48:17Z</time>
      </trkpt>
      <trkpt lat="46.58557" lon="5.7091">
        <ele>466.8</ele>
        <time>2022-03-04T16:48:18Z</time>
      </trkpt>
      <trkpt lat="46.58559" lon="5.70901">
        <ele>466.8</ele>
        <time>2022-03-04T16:48:19Z</time>
      </trkpt>
      <trkpt lat="46.58561" lon="5.70891">
        <ele>466.4</ele>
        <time>2022-03-04T16:48:20Z</time>
      </trkpt>
      <trkpt lat="46.58563" lon="5.70882">
        <ele>466.4</ele>
        <time>2022-03-04T16:48:21Z</time>
      </trkpt>
      <trkpt lat="46.58565" lon="5.70872">
        <ele>466</ele>
        <time>2022-03-04T16:48:22Z</time>
      </trkpt>
      <trkpt lat="46.58567" lon="5.70863">
        <ele>466</ele>
        <time>2022-03-04T16:48:23Z</time>
      </trkpt>
      <trkpt lat="46.58569" lon="5.70853">
        <ele>465.6</ele>
        <time>2022-03-04T16:48:24Z</time>
      </trkpt>
      <trkpt lat="46.58571" lon="5.70843">
        <ele>465.4</ele>
        <time>2022-03-04T16:48:25Z</time>
      </trkpt>
      <trkpt lat="46.58573" lon="5.70833">
        <ele>465.4</ele>
        <time>2022-03-04T16:48:26Z</time>
      </trkpt>
      <trkpt lat="46.58575" lon="5.70823">
        <ele>465.2</ele>
        <time>2022-03-04T16:48:27Z</time>
      </trkpt>
      <trkpt lat="46.58577" lon="5.70813">
        <ele>465.2</ele>
        <time>2022-03-04T16:48:28Z</time>
      </trkpt>
      <trkpt lat="46.58579" lon="5.70803">
        <ele>464.8</ele>
        <time>2022-03-04T16:48:29Z</time>
      </trkpt>
      <trkpt lat="46.58581" lon="5.70793">
        <ele>464.6</ele>
        <time>2022-03-04T16:48:30Z</time>
      </trkpt>
      <trkpt lat="46.58583" lon="5.70783">
        <ele>464.2</ele>
        <time>2022-03-04T16:48:31Z</time>
      </trkpt>
      <trkpt lat="46.58585" lon="5.70772">
        <ele>464</ele>
        <time>2022-03-04T16:48:32Z</time>
      </trkpt>
      <trkpt lat="46.58587" lon="5.70762">
        <ele>464</ele>
        <time>2022-03-04T16:48:33Z</time>
      </trkpt>
      <trkpt lat="46.58589" lon="5.70752">
        <ele>463.6</ele>
        <time>2022-03-04T16:48:34Z</time>
      </trkpt>
      <trkpt lat="46.58591" lon="5.70742">
        <ele>463.6</ele>
        <time>2022-03-04T16:48:35Z</time>
      </trkpt>
      <trkpt lat="46.58593" lon="5.70732">
        <ele>463.2</ele>
        <time>2022-03-04T16:48:36Z</time>
      </trkpt>
      <trkpt lat="46.58596" lon="5.70722">
        <ele>463</ele>
        <time>2022-03-04T16:48:37Z</time>
      </trkpt>
      <trkpt lat="46.58598" lon="5.70713">
        <ele>462.8</ele>
        <time>2022-03-04T16:48:38Z</time>
      </trkpt>
      <trkpt lat="46.586" lon="5.70703">
        <ele>462.8</ele>
        <time>2022-03-04T16:48:39Z</time>
      </trkpt>
      <trkpt lat="46.58601" lon="5.70694">
        <ele>462.6</ele>
        <time>2022-03-04T16:48:40Z</time>
      </trkpt>
      <trkpt lat="46.58603" lon="5.70685">
        <ele>462.6</ele>
        <time>2022-03-04T16:48:41Z</time>
      </trkpt>
      <trkpt lat="46.58605" lon="5.70676">
        <ele>462.2</ele>
        <time>2022-03-04T16:48:42Z</time>
      </trkpt>
      <trkpt lat="46.58607" lon="5.70667">
        <ele>462.2</ele>
        <time>2022-03-04T16:48:43Z</time>
      </trkpt>
      <trkpt lat="46.58609" lon="5.70657">
        <ele>462</ele>
        <time>2022-03-04T16:48:44Z</time>
      </trkpt>
      <trkpt lat="46.5861" lon="5.70649">
        <ele>462</ele>
        <time>2022-03-04T16:48:45Z</time>
      </trkpt>
      <trkpt lat="46.58612" lon="5.7064">
        <ele>461.6</ele>
        <time>2022-03-04T16:48:46Z</time>
      </trkpt>
      <trkpt lat="46.58613" lon="5.70631">
        <ele>461.6</ele>
        <time>2022-03-04T16:48:47Z</time>
      </trkpt>
      <trkpt lat="46.58615" lon="5.70623">
        <ele>461.4</ele>
        <time>2022-03-04T16:48:48Z</time>
      </trkpt>
      <trkpt lat="46.58616" lon="5.70614">
        <ele>461.4</ele>
        <time>2022-03-04T16:48:49Z</time>
      </trkpt>
      <trkpt lat="46.58617" lon="5.70604">
        <ele>460.8</ele>
        <time>2022-03-04T16:48:50Z</time>
      </trkpt>
      <trkpt lat="46.58618" lon="5.70595">
        <ele>460.6</ele>
        <time>2022-03-04T16:48:51Z</time>
      </trkpt>
      <trkpt lat="46.58619" lon="5.70585">
        <ele>460.4</ele>
        <time>2022-03-04T16:48:52Z</time>
      </trkpt>
      <trkpt lat="46.58619" lon="5.70576">
        <ele>460.2</ele>
        <time>2022-03-04T16:48:53Z</time>
      </trkpt>
      <trkpt lat="46.5862" lon="5.70566">
        <ele>459.8</ele>
        <time>2022-03-04T16:48:54Z</time>
      </trkpt>
      <trkpt lat="46.5862" lon="5.70556">
        <ele>459.6</ele>
        <time>2022-03-04T16:48:55Z</time>
      </trkpt>
      <trkpt lat="46.58621" lon="5.70545">
        <ele>459.2</ele>
        <time>2022-03-04T16:48:56Z</time>
      </trkpt>
      <trkpt lat="46.58621" lon="5.70534">
        <ele>459</ele>
        <time>2022-03-04T16:48:57Z</time>
      </trkpt>
      <trkpt lat="46.58621" lon="5.70524">
        <ele>458.6</ele>
        <time>2022-03-04T16:48:58Z</time>
      </trkpt>
      <trkpt lat="46.58621" lon="5.70513">
        <ele>458.4</ele>
        <time>2022-03-04T16:48:59Z</time>
      </trkpt>
      <trkpt lat="46.5862" lon="5.70503">
        <ele>458</ele>
        <time>2022-03-04T16:49:00Z</time>
      </trkpt>
      <trkpt lat="46.58619" lon="5.70492">
        <ele>457.8</ele>
        <time>2022-03-04T16:49:01Z</time>
      </trkpt>
      <trkpt lat="46.58618" lon="5.70481">
        <ele>457.4</ele>
        <time>2022-03-04T16:49:02Z</time>
      </trkpt>
      <trkpt lat="46.58617" lon="5.70471">
        <ele>456.8</ele>
        <time>2022-03-04T16:49:03Z</time>
      </trkpt>
      <trkpt lat="46.58615" lon="5.70461">
        <ele>456.4</ele>
        <time>2022-03-04T16:49:04Z</time>
      </trkpt>
      <trkpt lat="46.58612" lon="5.70451">
        <ele>456</ele>
        <time>2022-03-04T16:49:05Z</time>
      </trkpt>
      <trkpt lat="46.5861" lon="5.70442">
        <ele>455.4</ele>
        <time>2022-03-04T16:49:06Z</time>
      </trkpt>
      <trkpt lat="46.58606" lon="5.70432">
        <ele>455</ele>
        <time>2022-03-04T16:49:07Z</time>
      </trkpt>
      <trkpt lat="46.58602" lon="5.70422">
        <ele>454.4</ele>
        <time>2022-03-04T16:49:08Z</time>
      </trkpt>
      <trkpt lat="46.58597" lon="5.70412">
        <ele>454</ele>
        <time>2022-03-04T16:49:09Z</time>
      </trkpt>
      <trkpt lat="46.58592" lon="5.70402">
        <ele>453.4</ele>
        <time>2022-03-04T16:49:10Z</time>
      </trkpt>
      <trkpt lat="46.58588" lon="5.70391">
        <ele>452.8</ele>
        <time>2022-03-04T16:49:11Z</time>
      </trkpt>
      <trkpt lat="46.58583" lon="5.7038">
        <ele>452.2</ele>
        <time>2022-03-04T16:49:12Z</time>
      </trkpt>
      <trkpt lat="46.58577" lon="5.7037">
        <ele>451.4</ele>
        <time>2022-03-04T16:49:13Z</time>
      </trkpt>
      <trkpt lat="46.58573" lon="5.7036">
        <ele>450.8</ele>
        <time>2022-03-04T16:49:14Z</time>
      </trkpt>
      <trkpt lat="46.58568" lon="5.70349">
        <ele>450.2</ele>
        <time>2022-03-04T16:49:15Z</time>
      </trkpt>
      <trkpt lat="46.58564" lon="5.70338">
        <ele>449.6</ele>
        <time>2022-03-04T16:49:16Z</time>
      </trkpt>
      <trkpt lat="46.58556" lon="5.70316">
        <ele>449</ele>
        <time>2022-03-04T16:49:17Z</time>
      </trkpt>
      <trkpt lat="46.58553" lon="5.70305">
        <ele>448.4</ele>
        <time>2022-03-04T16:49:18Z</time>
      </trkpt>
      <trkpt lat="46.58549" lon="5.70294">
        <ele>447.8</ele>
        <time>2022-03-04T16:49:19Z</time>
      </trkpt>
      <trkpt lat="46.58547" lon="5.70284">
        <ele>447.2</ele>
        <time>2022-03-04T16:49:20Z</time>
      </trkpt>
      <trkpt lat="46.58545" lon="5.70275">
        <ele>446.6</ele>
        <time>2022-03-04T16:49:21Z</time>
      </trkpt>
      <trkpt lat="46.58543" lon="5.70267">
        <ele>445.8</ele>
        <time>2022-03-04T16:49:22Z</time>
      </trkpt>
      <trkpt lat="46.58542" lon="5.7026">
        <ele>445.2</ele>
        <time>2022-03-04T16:49:23Z</time>
      </trkpt>
      <trkpt lat="46.5854" lon="5.70253">
        <ele>444.6</ele>
        <time>2022-03-04T16:49:24Z</time>
      </trkpt>
      <trkpt lat="46.58539" lon="5.70246">
        <ele>444</ele>
        <time>2022-03-04T16:49:25Z</time>
      </trkpt>
      <trkpt lat="46.58537" lon="5.70238">
        <ele>443.4</ele>
        <time>2022-03-04T16:49:26Z</time>
      </trkpt>
      <trkpt lat="46.58536" lon="5.7023">
        <ele>442.8</ele>
        <time>2022-03-04T16:49:27Z</time>
      </trkpt>
      <trkpt lat="46.58534" lon="5.70222">
        <ele>442.2</ele>
        <time>2022-03-04T16:49:28Z</time>
      </trkpt>
      <trkpt lat="46.58531" lon="5.70215">
        <ele>441.8</ele>
        <time>2022-03-04T16:49:29Z</time>
      </trkpt>
      <trkpt lat="46.58529" lon="5.70207">
        <ele>441.4</ele>
        <time>2022-03-04T16:49:30Z</time>
      </trkpt>
      <trkpt lat="46.58528" lon="5.702">
        <ele>441</ele>
        <time>2022-03-04T16:49:31Z</time>
      </trkpt>
      <trkpt lat="46.58527" lon="5.70193">
        <ele>440.8</ele>
        <time>2022-03-04T16:49:32Z</time>
      </trkpt>
      <trkpt lat="46.58527" lon="5.70188">
        <ele>440.4</ele>
        <time>2022-03-04T16:49:33Z</time>
      </trkpt>
      <trkpt lat="46.58527" lon="5.70184">
        <ele>440.2</ele>
        <time>2022-03-04T16:49:34Z</time>
      </trkpt>
      <trkpt lat="46.58526" lon="5.70179">
        <ele>439.8</ele>
        <time>2022-03-04T16:49:35Z</time>
      </trkpt>
      <trkpt lat="46.58525" lon="5.70173">
        <ele>439.6</ele>
        <time>2022-03-04T16:49:36Z</time>
      </trkpt>
      <trkpt lat="46.58524" lon="5.70167">
        <ele>439.4</ele>
        <time>2022-03-04T16:49:37Z</time>
      </trkpt>
      <trkpt lat="46.58522" lon="5.70161">
        <ele>439</ele>
        <time>2022-03-04T16:49:38Z</time>
      </trkpt>
      <trkpt lat="46.5852" lon="5.70154">
        <ele>438.8</ele>
        <time>2022-03-04T16:49:39Z</time>
      </trkpt>
      <trkpt lat="46.58519" lon="5.70146">
        <ele>438.4</ele>
        <time>2022-03-04T16:49:40Z</time>
      </trkpt>
      <trkpt lat="46.58518" lon="5.70138">
        <ele>438.4</ele>
        <time>2022-03-04T16:49:41Z</time>
      </trkpt>
      <trkpt lat="46.58517" lon="5.70129">
        <ele>438.2</ele>
        <time>2022-03-04T16:49:42Z</time>
      </trkpt>
      <trkpt lat="46.58516" lon="5.7012">
        <ele>438.2</ele>
        <time>2022-03-04T16:49:43Z</time>
      </trkpt>
      <trkpt lat="46.58514" lon="5.70112">
        <ele>438.2</ele>
        <time>2022-03-04T16:49:44Z</time>
      </trkpt>
      <trkpt lat="46.58513" lon="5.70103">
        <ele>437.8</ele>
        <time>2022-03-04T16:49:45Z</time>
      </trkpt>
      <trkpt lat="46.58512" lon="5.70095">
        <ele>437.8</ele>
        <time>2022-03-04T16:49:46Z</time>
      </trkpt>
      <trkpt lat="46.58511" lon="5.70087">
        <ele>437.8</ele>
        <time>2022-03-04T16:49:47Z</time>
      </trkpt>
      <trkpt lat="46.5851" lon="5.70078">
        <ele>437.8</ele>
        <time>2022-03-04T16:49:48Z</time>
      </trkpt>
      <trkpt lat="46.58509" lon="5.70071">
        <ele>437.8</ele>
        <time>2022-03-04T16:49:49Z</time>
      </trkpt>
      <trkpt lat="46.58509" lon="5.70063">
        <ele>437.8</ele>
        <time>2022-03-04T16:49:50Z</time>
      </trkpt>
      <trkpt lat="46.58508" lon="5.70055">
        <ele>437.8</ele>
        <time>2022-03-04T16:49:51Z</time>
      </trkpt>
      <trkpt lat="46.58507" lon="5.70047">
        <ele>437.8</ele>
        <time>2022-03-04T16:49:52Z</time>
      </trkpt>
      <trkpt lat="46.58507" lon="5.70039">
        <ele>437.8</ele>
        <time>2022-03-04T16:49:53Z</time>
      </trkpt>
      <trkpt lat="46.58506" lon="5.70031">
        <ele>437.8</ele>
        <time>2022-03-04T16:49:54Z</time>
      </trkpt>
      <trkpt lat="46.58505" lon="5.70022">
        <ele>437.8</ele>
        <time>2022-03-04T16:49:55Z</time>
      </trkpt>
      <trkpt lat="46.58505" lon="5.70013">
        <ele>437.8</ele>
        <time>2022-03-04T16:49:56Z</time>
      </trkpt>
      <trkpt lat="46.58504" lon="5.70003">
        <ele>437.6</ele>
        <time>2022-03-04T16:49:57Z</time>
      </trkpt>
      <trkpt lat="46.58504" lon="5.69993">
        <ele>437.6</ele>
        <time>2022-03-04T16:49:58Z</time>
      </trkpt>
      <trkpt lat="46.58503" lon="5.69983">
        <ele>437.2</ele>
        <time>2022-03-04T16:49:59Z</time>
      </trkpt>
      <trkpt lat="46.58502" lon="5.69973">
        <ele>436.8</ele>
        <time>2022-03-04T16:50:00Z</time>
      </trkpt>
      <trkpt lat="46.58502" lon="5.69962">
        <ele>436.4</ele>
        <time>2022-03-04T16:50:01Z</time>
      </trkpt>
      <trkpt lat="46.58502" lon="5.69952">
        <ele>436.4</ele>
        <time>2022-03-04T16:50:02Z</time>
      </trkpt>
      <trkpt lat="46.58503" lon="5.69942">
        <ele>436</ele>
        <time>2022-03-04T16:50:03Z</time>
      </trkpt>
      <trkpt lat="46.58505" lon="5.69932">
        <ele>436</ele>
        <time>2022-03-04T16:50:04Z</time>
      </trkpt>
      <trkpt lat="46.58507" lon="5.69924">
        <ele>436</ele>
        <time>2022-03-04T16:50:05Z</time>
      </trkpt>
      <trkpt lat="46.58509" lon="5.69916">
        <ele>435.8</ele>
        <time>2022-03-04T16:50:06Z</time>
      </trkpt>
      <trkpt lat="46.58512" lon="5.69908">
        <ele>435.8</ele>
        <time>2022-03-04T16:50:07Z</time>
      </trkpt>
      <trkpt lat="46.58514" lon="5.699">
        <ele>435.8</ele>
        <time>2022-03-04T16:50:08Z</time>
      </trkpt>
      <trkpt lat="46.58517" lon="5.69893">
        <ele>435.8</ele>
        <time>2022-03-04T16:50:09Z</time>
      </trkpt>
      <trkpt lat="46.5852" lon="5.69886">
        <ele>435.6</ele>
        <time>2022-03-04T16:50:10Z</time>
      </trkpt>
      <trkpt lat="46.58522" lon="5.69879">
        <ele>435.6</ele>
        <time>2022-03-04T16:50:11Z</time>
      </trkpt>
      <trkpt lat="46.58524" lon="5.69871">
        <ele>435.2</ele>
        <time>2022-03-04T16:50:12Z</time>
      </trkpt>
      <trkpt lat="46.58526" lon="5.69864">
        <ele>435.2</ele>
        <time>2022-03-04T16:50:13Z</time>
      </trkpt>
      <trkpt lat="46.58528" lon="5.69856">
        <ele>435.2</ele>
        <time>2022-03-04T16:50:14Z</time>
      </trkpt>
      <trkpt lat="46.5853" lon="5.69849">
        <ele>435.2</ele>
        <time>2022-03-04T16:50:15Z</time>
      </trkpt>
      <trkpt lat="46.58533" lon="5.69842">
        <ele>435.2</ele>
        <time>2022-03-04T16:50:16Z</time>
      </trkpt>
      <trkpt lat="46.58535" lon="5.69835">
        <ele>435.2</ele>
        <time>2022-03-04T16:50:17Z</time>
      </trkpt>
      <trkpt lat="46.58537" lon="5.69828">
        <ele>435.2</ele>
        <time>2022-03-04T16:50:18Z</time>
      </trkpt>
      <trkpt lat="46.5854" lon="5.69821">
        <ele>435.2</ele>
        <time>2022-03-04T16:50:19Z</time>
      </trkpt>
      <trkpt lat="46.58542" lon="5.69814">
        <ele>435.2</ele>
        <time>2022-03-04T16:50:20Z</time>
      </trkpt>
      <trkpt lat="46.58544" lon="5.69807">
        <ele>435.2</ele>
        <time>2022-03-04T16:50:21Z</time>
      </trkpt>
      <trkpt lat="46.58547" lon="5.69801">
        <ele>435.2</ele>
        <time>2022-03-04T16:50:22Z</time>
      </trkpt>
      <trkpt lat="46.58549" lon="5.69794">
        <ele>435.2</ele>
        <time>2022-03-04T16:50:23Z</time>
      </trkpt>
      <trkpt lat="46.58551" lon="5.69787">
        <ele>435.2</ele>
        <time>2022-03-04T16:50:24Z</time>
      </trkpt>
      <trkpt lat="46.58553" lon="5.69781">
        <ele>435.2</ele>
        <time>2022-03-04T16:50:25Z</time>
      </trkpt>
      <trkpt lat="46.58555" lon="5.69774">
        <ele>435.2</ele>
        <time>2022-03-04T16:50:26Z</time>
      </trkpt>
      <trkpt lat="46.58557" lon="5.69767">
        <ele>435.2</ele>
        <time>2022-03-04T16:50:27Z</time>
      </trkpt>
      <trkpt lat="46.58559" lon="5.6976">
        <ele>435.2</ele>
        <time>2022-03-04T16:50:28Z</time>
      </trkpt>
      <trkpt lat="46.58561" lon="5.69754">
        <ele>435.2</ele>
        <time>2022-03-04T16:50:29Z</time>
      </trkpt>
      <trkpt lat="46.58563" lon="5.69747">
        <ele>435.2</ele>
        <time>2022-03-04T16:50:30Z</time>
      </trkpt>
      <trkpt lat="46.58565" lon="5.6974">
        <ele>435.2</ele>
        <time>2022-03-04T16:50:31Z</time>
      </trkpt>
      <trkpt lat="46.58567" lon="5.69733">
        <ele>435.2</ele>
        <time>2022-03-04T16:50:32Z</time>
      </trkpt>
      <trkpt lat="46.58569" lon="5.69726">
        <ele>435.2</ele>
        <time>2022-03-04T16:50:33Z</time>
      </trkpt>
      <trkpt lat="46.58571" lon="5.6972">
        <ele>435.2</ele>
        <time>2022-03-04T16:50:34Z</time>
      </trkpt>
      <trkpt lat="46.58573" lon="5.69713">
        <ele>435.2</ele>
        <time>2022-03-04T16:50:35Z</time>
      </trkpt>
      <trkpt lat="46.58575" lon="5.69707">
        <ele>435.2</ele>
        <time>2022-03-04T16:50:36Z</time>
      </trkpt>
      <trkpt lat="46.58575" lon="5.69707">
        <ele>435.2</ele>
        <time>2022-03-04T16:50:37Z</time>
      </trkpt>
      <trkpt lat="46.58577" lon="5.697">
        <ele>435.2</ele>
        <time>2022-03-04T16:50:38Z</time>
      </trkpt>
      <trkpt lat="46.58579" lon="5.69693">
        <ele>435.4</ele>
        <time>2022-03-04T16:50:39Z</time>
      </trkpt>
      <trkpt lat="46.58581" lon="5.69686">
        <ele>435.4</ele>
        <time>2022-03-04T16:50:40Z</time>
      </trkpt>
      <trkpt lat="46.58583" lon="5.6968">
        <ele>435.4</ele>
        <time>2022-03-04T16:50:41Z</time>
      </trkpt>
      <trkpt lat="46.58585" lon="5.69673">
        <ele>435.4</ele>
        <time>2022-03-04T16:50:42Z</time>
      </trkpt>
      <trkpt lat="46.58586" lon="5.69666">
        <ele>435.4</ele>
        <time>2022-03-04T16:50:43Z</time>
      </trkpt>
      <trkpt lat="46.58588" lon="5.6966">
        <ele>435.4</ele>
        <time>2022-03-04T16:50:44Z</time>
      </trkpt>
      <trkpt lat="46.5859" lon="5.69654">
        <ele>435.4</ele>
        <time>2022-03-04T16:50:45Z</time>
      </trkpt>
      <trkpt lat="46.58591" lon="5.69647">
        <ele>435.4</ele>
        <time>2022-03-04T16:50:46Z</time>
      </trkpt>
      <trkpt lat="46.58593" lon="5.6964">
        <ele>435.8</ele>
        <time>2022-03-04T16:50:47Z</time>
      </trkpt>
      <trkpt lat="46.58595" lon="5.69633">
        <ele>435.8</ele>
        <time>2022-03-04T16:50:48Z</time>
      </trkpt>
      <trkpt lat="46.58597" lon="5.69627">
        <ele>435.8</ele>
        <time>2022-03-04T16:50:49Z</time>
      </trkpt>
      <trkpt lat="46.586" lon="5.69621">
        <ele>436</ele>
        <time>2022-03-04T16:50:50Z</time>
      </trkpt>
      <trkpt lat="46.58601" lon="5.69615">
        <ele>436</ele>
        <time>2022-03-04T16:50:51Z</time>
      </trkpt>
      <trkpt lat="46.58603" lon="5.69609">
        <ele>436</ele>
        <time>2022-03-04T16:50:52Z</time>
      </trkpt>
      <trkpt lat="46.58605" lon="5.69603">
        <ele>436</ele>
        <time>2022-03-04T16:50:53Z</time>
      </trkpt>
      <trkpt lat="46.58607" lon="5.69597">
        <ele>436</ele>
        <time>2022-03-04T16:50:54Z</time>
      </trkpt>
      <trkpt lat="46.58609" lon="5.69592">
        <ele>436</ele>
        <time>2022-03-04T16:50:55Z</time>
      </trkpt>
      <trkpt lat="46.58611" lon="5.69587">
        <ele>436</ele>
        <time>2022-03-04T16:50:56Z</time>
      </trkpt>
      <trkpt lat="46.58613" lon="5.69581">
        <ele>436.2</ele>
        <time>2022-03-04T16:50:57Z</time>
      </trkpt>
      <trkpt lat="46.58615" lon="5.69576">
        <ele>436.2</ele>
        <time>2022-03-04T16:50:58Z</time>
      </trkpt>
      <trkpt lat="46.58616" lon="5.6957">
        <ele>436.2</ele>
        <time>2022-03-04T16:50:59Z</time>
      </trkpt>
      <trkpt lat="46.58617" lon="5.69565">
        <ele>436.2</ele>
        <time>2022-03-04T16:51:00Z</time>
      </trkpt>
      <trkpt lat="46.58618" lon="5.69559">
        <ele>436.2</ele>
        <time>2022-03-04T16:51:01Z</time>
      </trkpt>
      <trkpt lat="46.5862" lon="5.69554">
        <ele>436.2</ele>
        <time>2022-03-04T16:51:02Z</time>
      </trkpt>
      <trkpt lat="46.58621" lon="5.69549">
        <ele>436.2</ele>
        <time>2022-03-04T16:51:03Z</time>
      </trkpt>
      <trkpt lat="46.58622" lon="5.69544">
        <ele>436.2</ele>
        <time>2022-03-04T16:51:04Z</time>
      </trkpt>
      <trkpt lat="46.58623" lon="5.69539">
        <ele>436.2</ele>
        <time>2022-03-04T16:51:05Z</time>
      </trkpt>
      <trkpt lat="46.58624" lon="5.69534">
        <ele>436.2</ele>
        <time>2022-03-04T16:51:06Z</time>
      </trkpt>
      <trkpt lat="46.58626" lon="5.69529">
        <ele>436.2</ele>
        <time>2022-03-04T16:51:07Z</time>
      </trkpt>
      <trkpt lat="46.58627" lon="5.69523">
        <ele>436.4</ele>
        <time>2022-03-04T16:51:08Z</time>
      </trkpt>
      <trkpt lat="46.58628" lon="5.69517">
        <ele>436.4</ele>
        <time>2022-03-04T16:51:09Z</time>
      </trkpt>
      <trkpt lat="46.5863" lon="5.69511">
        <ele>436.4</ele>
        <time>2022-03-04T16:51:10Z</time>
      </trkpt>
      <trkpt lat="46.58631" lon="5.69505">
        <ele>436.4</ele>
        <time>2022-03-04T16:51:11Z</time>
      </trkpt>
      <trkpt lat="46.58633" lon="5.695">
        <ele>436.4</ele>
        <time>2022-03-04T16:51:12Z</time>
      </trkpt>
      <trkpt lat="46.58634" lon="5.69494">
        <ele>436.6</ele>
        <time>2022-03-04T16:51:13Z</time>
      </trkpt>
      <trkpt lat="46.58636" lon="5.69489">
        <ele>436.6</ele>
        <time>2022-03-04T16:51:14Z</time>
      </trkpt>
      <trkpt lat="46.58637" lon="5.69483">
        <ele>436.6</ele>
        <time>2022-03-04T16:51:15Z</time>
      </trkpt>
      <trkpt lat="46.58639" lon="5.69478">
        <ele>436.6</ele>
        <time>2022-03-04T16:51:16Z</time>
      </trkpt>
      <trkpt lat="46.5864" lon="5.69472">
        <ele>437</ele>
        <time>2022-03-04T16:51:17Z</time>
      </trkpt>
      <trkpt lat="46.58642" lon="5.69467">
        <ele>437</ele>
        <time>2022-03-04T16:51:18Z</time>
      </trkpt>
      <trkpt lat="46.58644" lon="5.69461">
        <ele>437</ele>
        <time>2022-03-04T16:51:19Z</time>
      </trkpt>
      <trkpt lat="46.58645" lon="5.69456">
        <ele>437.2</ele>
        <time>2022-03-04T16:51:20Z</time>
      </trkpt>
      <trkpt lat="46.58647" lon="5.6945">
        <ele>437.2</ele>
        <time>2022-03-04T16:51:21Z</time>
      </trkpt>
      <trkpt lat="46.58648" lon="5.69445">
        <ele>437.6</ele>
        <time>2022-03-04T16:51:22Z</time>
      </trkpt>
      <trkpt lat="46.5865" lon="5.6944">
        <ele>437.6</ele>
        <time>2022-03-04T16:51:23Z</time>
      </trkpt>
      <trkpt lat="46.58651" lon="5.69435">
        <ele>437.6</ele>
        <time>2022-03-04T16:51:24Z</time>
      </trkpt>
      <trkpt lat="46.58653" lon="5.6943">
        <ele>438</ele>
        <time>2022-03-04T16:51:25Z</time>
      </trkpt>
      <trkpt lat="46.58655" lon="5.69425">
        <ele>438</ele>
        <time>2022-03-04T16:51:26Z</time>
      </trkpt>
      <trkpt lat="46.58656" lon="5.6942">
        <ele>438.2</ele>
        <time>2022-03-04T16:51:27Z</time>
      </trkpt>
      <trkpt lat="46.58658" lon="5.69415">
        <ele>438.2</ele>
        <time>2022-03-04T16:51:28Z</time>
      </trkpt>
      <trkpt lat="46.58659" lon="5.6941">
        <ele>438.2</ele>
        <time>2022-03-04T16:51:29Z</time>
      </trkpt>
      <trkpt lat="46.5866" lon="5.69406">
        <ele>438.2</ele>
        <time>2022-03-04T16:51:30Z</time>
      </trkpt>
      <trkpt lat="46.58662" lon="5.69401">
        <ele>438.2</ele>
        <time>2022-03-04T16:51:31Z</time>
      </trkpt>
      <trkpt lat="46.58663" lon="5.69395">
        <ele>438.2</ele>
        <time>2022-03-04T16:51:32Z</time>
      </trkpt>
      <trkpt lat="46.58665" lon="5.6939">
        <ele>438.2</ele>
        <time>2022-03-04T16:51:33Z</time>
      </trkpt>
      <trkpt lat="46.58666" lon="5.69386">
        <ele>438.2</ele>
        <time>2022-03-04T16:51:34Z</time>
      </trkpt>
      <trkpt lat="46.58668" lon="5.69381">
        <ele>438.6</ele>
        <time>2022-03-04T16:51:35Z</time>
      </trkpt>
      <trkpt lat="46.5867" lon="5.69375">
        <ele>438.6</ele>
        <time>2022-03-04T16:51:36Z</time>
      </trkpt>
      <trkpt lat="46.58672" lon="5.6937">
        <ele>438.6</ele>
        <time>2022-03-04T16:51:37Z</time>
      </trkpt>
      <trkpt lat="46.58673" lon="5.69365">
        <ele>438.6</ele>
        <time>2022-03-04T16:51:38Z</time>
      </trkpt>
      <trkpt lat="46.58675" lon="5.69359">
        <ele>438.6</ele>
        <time>2022-03-04T16:51:39Z</time>
      </trkpt>
      <trkpt lat="46.58676" lon="5.69354">
        <ele>438.6</ele>
        <time>2022-03-04T16:51:40Z</time>
      </trkpt>
      <trkpt lat="46.58677" lon="5.69348">
        <ele>438.6</ele>
        <time>2022-03-04T16:51:41Z</time>
      </trkpt>
      <trkpt lat="46.58679" lon="5.69342">
        <ele>438.6</ele>
        <time>2022-03-04T16:51:42Z</time>
      </trkpt>
      <trkpt lat="46.58681" lon="5.69336">
        <ele>438.6</ele>
        <time>2022-03-04T16:51:43Z</time>
      </trkpt>
      <trkpt lat="46.58683" lon="5.6933">
        <ele>439</ele>
        <time>2022-03-04T16:51:44Z</time>
      </trkpt>
      <trkpt lat="46.58685" lon="5.69325">
        <ele>439</ele>
        <time>2022-03-04T16:51:45Z</time>
      </trkpt>
      <trkpt lat="46.58687" lon="5.69319">
        <ele>439</ele>
        <time>2022-03-04T16:51:46Z</time>
      </trkpt>
      <trkpt lat="46.58689" lon="5.69313">
        <ele>439</ele>
        <time>2022-03-04T16:51:47Z</time>
      </trkpt>
      <trkpt lat="46.58691" lon="5.69306">
        <ele>439</ele>
        <time>2022-03-04T16:51:48Z</time>
      </trkpt>
      <trkpt lat="46.58693" lon="5.693">
        <ele>439</ele>
        <time>2022-03-04T16:51:49Z</time>
      </trkpt>
      <trkpt lat="46.58695" lon="5.69294">
        <ele>439</ele>
        <time>2022-03-04T16:51:50Z</time>
      </trkpt>
      <trkpt lat="46.58697" lon="5.69288">
        <ele>439.2</ele>
        <time>2022-03-04T16:51:51Z</time>
      </trkpt>
      <trkpt lat="46.58699" lon="5.69282">
        <ele>439.2</ele>
        <time>2022-03-04T16:51:52Z</time>
      </trkpt>
      <trkpt lat="46.58701" lon="5.69275">
        <ele>439.2</ele>
        <time>2022-03-04T16:51:53Z</time>
      </trkpt>
      <trkpt lat="46.58702" lon="5.69269">
        <ele>439.2</ele>
        <time>2022-03-04T16:51:54Z</time>
      </trkpt>
      <trkpt lat="46.58704" lon="5.69262">
        <ele>439.2</ele>
        <time>2022-03-04T16:51:55Z</time>
      </trkpt>
      <trkpt lat="46.58706" lon="5.69256">
        <ele>439.2</ele>
        <time>2022-03-04T16:51:56Z</time>
      </trkpt>
      <trkpt lat="46.58708" lon="5.6925">
        <ele>439.2</ele>
        <time>2022-03-04T16:51:57Z</time>
      </trkpt>
      <trkpt lat="46.5871" lon="5.69244">
        <ele>439.2</ele>
        <time>2022-03-04T16:51:58Z</time>
      </trkpt>
      <trkpt lat="46.58711" lon="5.69238">
        <ele>439.2</ele>
        <time>2022-03-04T16:51:59Z</time>
      </trkpt>
      <trkpt lat="46.58713" lon="5.69232">
        <ele>439.2</ele>
        <time>2022-03-04T16:52:00Z</time>
      </trkpt>
      <trkpt lat="46.58715" lon="5.69226">
        <ele>439.2</ele>
        <time>2022-03-04T16:52:01Z</time>
      </trkpt>
      <trkpt lat="46.58717" lon="5.6922">
        <ele>439.2</ele>
        <time>2022-03-04T16:52:02Z</time>
      </trkpt>
      <trkpt lat="46.58719" lon="5.69214">
        <ele>438.8</ele>
        <time>2022-03-04T16:52:03Z</time>
      </trkpt>
      <trkpt lat="46.58721" lon="5.69207">
        <ele>438.8</ele>
        <time>2022-03-04T16:52:04Z</time>
      </trkpt>
      <trkpt lat="46.58723" lon="5.69201">
        <ele>438.8</ele>
        <time>2022-03-04T16:52:05Z</time>
      </trkpt>
      <trkpt lat="46.58724" lon="5.69195">
        <ele>438.8</ele>
        <time>2022-03-04T16:52:06Z</time>
      </trkpt>
      <trkpt lat="46.58726" lon="5.69188">
        <ele>438.6</ele>
        <time>2022-03-04T16:52:07Z</time>
      </trkpt>
      <trkpt lat="46.58728" lon="5.69182">
        <ele>438.6</ele>
        <time>2022-03-04T16:52:08Z</time>
      </trkpt>
      <trkpt lat="46.5873" lon="5.69175">
        <ele>438.6</ele>
        <time>2022-03-04T16:52:09Z</time>
      </trkpt>
      <trkpt lat="46.58732" lon="5.69169">
        <ele>438.6</ele>
        <time>2022-03-04T16:52:10Z</time>
      </trkpt>
      <trkpt lat="46.58733" lon="5.69162">
        <ele>438.6</ele>
        <time>2022-03-04T16:52:11Z</time>
      </trkpt>
      <trkpt lat="46.58735" lon="5.69155">
        <ele>438.6</ele>
        <time>2022-03-04T16:52:12Z</time>
      </trkpt>
      <trkpt lat="46.58737" lon="5.69148">
        <ele>438.6</ele>
        <time>2022-03-04T16:52:13Z</time>
      </trkpt>
      <trkpt lat="46.58739" lon="5.69141">
        <ele>438.6</ele>
        <time>2022-03-04T16:52:14Z</time>
      </trkpt>
      <trkpt lat="46.58741" lon="5.69135">
        <ele>438.6</ele>
        <time>2022-03-04T16:52:15Z</time>
      </trkpt>
      <trkpt lat="46.58743" lon="5.69128">
        <ele>438.6</ele>
        <time>2022-03-04T16:52:16Z</time>
      </trkpt>
      <trkpt lat="46.58745" lon="5.69121">
        <ele>438.6</ele>
        <time>2022-03-04T16:52:17Z</time>
      </trkpt>
      <trkpt lat="46.58747" lon="5.69115">
        <ele>438.6</ele>
        <time>2022-03-04T16:52:18Z</time>
      </trkpt>
      <trkpt lat="46.58749" lon="5.69108">
        <ele>438.6</ele>
        <time>2022-03-04T16:52:19Z</time>
      </trkpt>
      <trkpt lat="46.58751" lon="5.69102">
        <ele>438.6</ele>
        <time>2022-03-04T16:52:20Z</time>
      </trkpt>
      <trkpt lat="46.58753" lon="5.69095">
        <ele>438.6</ele>
        <time>2022-03-04T16:52:21Z</time>
      </trkpt>
      <trkpt lat="46.58755" lon="5.69089">
        <ele>438.6</ele>
        <time>2022-03-04T16:52:22Z</time>
      </trkpt>
      <trkpt lat="46.58757" lon="5.69083">
        <ele>439</ele>
        <time>2022-03-04T16:52:23Z</time>
      </trkpt>
      <trkpt lat="46.58759" lon="5.69077">
        <ele>439</ele>
        <time>2022-03-04T16:52:24Z</time>
      </trkpt>
      <trkpt lat="46.58761" lon="5.69071">
        <ele>439</ele>
        <time>2022-03-04T16:52:25Z</time>
      </trkpt>
      <trkpt lat="46.58763" lon="5.69065">
        <ele>439</ele>
        <time>2022-03-04T16:52:26Z</time>
      </trkpt>
      <trkpt lat="46.58764" lon="5.69059">
        <ele>439</ele>
        <time>2022-03-04T16:52:27Z</time>
      </trkpt>
      <trkpt lat="46.58766" lon="5.69053">
        <ele>439</ele>
        <time>2022-03-04T16:52:28Z</time>
      </trkpt>
      <trkpt lat="46.58768" lon="5.69046">
        <ele>439</ele>
        <time>2022-03-04T16:52:29Z</time>
      </trkpt>
      <trkpt lat="46.5877" lon="5.6904">
        <ele>439</ele>
        <time>2022-03-04T16:52:30Z</time>
      </trkpt>
      <trkpt lat="46.58772" lon="5.69034">
        <ele>439.2</ele>
        <time>2022-03-04T16:52:31Z</time>
      </trkpt>
      <trkpt lat="46.58774" lon="5.69028">
        <ele>439.2</ele>
        <time>2022-03-04T16:52:32Z</time>
      </trkpt>
      <trkpt lat="46.58776" lon="5.69022">
        <ele>439.6</ele>
        <time>2022-03-04T16:52:33Z</time>
      </trkpt>
      <trkpt lat="46.58778" lon="5.69016">
        <ele>439.6</ele>
        <time>2022-03-04T16:52:34Z</time>
      </trkpt>
      <trkpt lat="46.5878" lon="5.6901">
        <ele>439.6</ele>
        <time>2022-03-04T16:52:35Z</time>
      </trkpt>
      <trkpt lat="46.58782" lon="5.69004">
        <ele>439.6</ele>
        <time>2022-03-04T16:52:36Z</time>
      </trkpt>
      <trkpt lat="46.58784" lon="5.68998">
        <ele>439.6</ele>
        <time>2022-03-04T16:52:37Z</time>
      </trkpt>
      <trkpt lat="46.58786" lon="5.68992">
        <ele>439.6</ele>
        <time>2022-03-04T16:52:38Z</time>
      </trkpt>
      <trkpt lat="46.58788" lon="5.68986">
        <ele>439.6</ele>
        <time>2022-03-04T16:52:39Z</time>
      </trkpt>
      <trkpt lat="46.5879" lon="5.6898">
        <ele>439.6</ele>
        <time>2022-03-04T16:52:40Z</time>
      </trkpt>
      <trkpt lat="46.58791" lon="5.68975">
        <ele>439.6</ele>
        <time>2022-03-04T16:52:41Z</time>
      </trkpt>
      <trkpt lat="46.58793" lon="5.68969">
        <ele>439.8</ele>
        <time>2022-03-04T16:52:42Z</time>
      </trkpt>
      <trkpt lat="46.58795" lon="5.68963">
        <ele>439.8</ele>
        <time>2022-03-04T16:52:43Z</time>
      </trkpt>
      <trkpt lat="46.58796" lon="5.68957">
        <ele>439.8</ele>
        <time>2022-03-04T16:52:44Z</time>
      </trkpt>
      <trkpt lat="46.58798" lon="5.68952">
        <ele>439.8</ele>
        <time>2022-03-04T16:52:45Z</time>
      </trkpt>
      <trkpt lat="46.588" lon="5.68946">
        <ele>439.8</ele>
        <time>2022-03-04T16:52:46Z</time>
      </trkpt>
      <trkpt lat="46.58802" lon="5.68941">
        <ele>439.8</ele>
        <time>2022-03-04T16:52:47Z</time>
      </trkpt>
      <trkpt lat="46.58803" lon="5.68935">
        <ele>440</ele>
        <time>2022-03-04T16:52:48Z</time>
      </trkpt>
      <trkpt lat="46.58805" lon="5.68929">
        <ele>440</ele>
        <time>2022-03-04T16:52:49Z</time>
      </trkpt>
      <trkpt lat="46.58807" lon="5.68924">
        <ele>440</ele>
        <time>2022-03-04T16:52:50Z</time>
      </trkpt>
      <trkpt lat="46.58809" lon="5.68918">
        <ele>440</ele>
        <time>2022-03-04T16:52:51Z</time>
      </trkpt>
      <trkpt lat="46.58811" lon="5.68913">
        <ele>440</ele>
        <time>2022-03-04T16:52:52Z</time>
      </trkpt>
      <trkpt lat="46.58812" lon="5.68907">
        <ele>440</ele>
        <time>2022-03-04T16:52:53Z</time>
      </trkpt>
      <trkpt lat="46.58814" lon="5.68901">
        <ele>439.8</ele>
        <time>2022-03-04T16:52:54Z</time>
      </trkpt>
      <trkpt lat="46.58816" lon="5.68895">
        <ele>439.8</ele>
        <time>2022-03-04T16:52:55Z</time>
      </trkpt>
      <trkpt lat="46.58818" lon="5.6889">
        <ele>439.8</ele>
        <time>2022-03-04T16:52:56Z</time>
      </trkpt>
      <trkpt lat="46.58819" lon="5.68884">
        <ele>439.8</ele>
        <time>2022-03-04T16:52:57Z</time>
      </trkpt>
      <trkpt lat="46.58821" lon="5.68878">
        <ele>440</ele>
        <time>2022-03-04T16:52:58Z</time>
      </trkpt>
      <trkpt lat="46.58823" lon="5.68873">
        <ele>440</ele>
        <time>2022-03-04T16:52:59Z</time>
      </trkpt>
      <trkpt lat="46.58825" lon="5.68867">
        <ele>440</ele>
        <time>2022-03-04T16:53:00Z</time>
      </trkpt>
      <trkpt lat="46.58826" lon="5.68862">
        <ele>440</ele>
        <time>2022-03-04T16:53:01Z</time>
      </trkpt>
      <trkpt lat="46.58828" lon="5.68856">
        <ele>440</ele>
        <time>2022-03-04T16:53:02Z</time>
      </trkpt>
      <trkpt lat="46.5883" lon="5.6885">
        <ele>440</ele>
        <time>2022-03-04T16:53:03Z</time>
      </trkpt>
      <trkpt lat="46.58832" lon="5.68844">
        <ele>440</ele>
        <time>2022-03-04T16:53:04Z</time>
      </trkpt>
      <trkpt lat="46.58833" lon="5.68838">
        <ele>440.2</ele>
        <time>2022-03-04T16:53:05Z</time>
      </trkpt>
      <trkpt lat="46.58835" lon="5.68833">
        <ele>440.2</ele>
        <time>2022-03-04T16:53:06Z</time>
      </trkpt>
      <trkpt lat="46.58837" lon="5.68827">
        <ele>440.2</ele>
        <time>2022-03-04T16:53:07Z</time>
      </trkpt>
      <trkpt lat="46.58838" lon="5.68821">
        <ele>440.2</ele>
        <time>2022-03-04T16:53:08Z</time>
      </trkpt>
      <trkpt lat="46.5884" lon="5.68815">
        <ele>440.6</ele>
        <time>2022-03-04T16:53:09Z</time>
      </trkpt>
      <trkpt lat="46.58842" lon="5.68809">
        <ele>440.6</ele>
        <time>2022-03-04T16:53:10Z</time>
      </trkpt>
      <trkpt lat="46.58844" lon="5.68803">
        <ele>440.6</ele>
        <time>2022-03-04T16:53:11Z</time>
      </trkpt>
      <trkpt lat="46.58848" lon="5.6879">
        <ele>440.6</ele>
        <time>2022-03-04T16:53:12Z</time>
      </trkpt>
      <trkpt lat="46.5885" lon="5.68784">
        <ele>440.8</ele>
        <time>2022-03-04T16:53:13Z</time>
      </trkpt>
      <trkpt lat="46.58852" lon="5.68778">
        <ele>440.8</ele>
        <time>2022-03-04T16:53:14Z</time>
      </trkpt>
      <trkpt lat="46.58853" lon="5.68772">
        <ele>440.8</ele>
        <time>2022-03-04T16:53:15Z</time>
      </trkpt>
      <trkpt lat="46.58855" lon="5.68766">
        <ele>440.8</ele>
        <time>2022-03-04T16:53:16Z</time>
      </trkpt>
      <trkpt lat="46.58857" lon="5.6876">
        <ele>440.8</ele>
        <time>2022-03-04T16:53:17Z</time>
      </trkpt>
      <trkpt lat="46.58859" lon="5.68754">
        <ele>440.8</ele>
        <time>2022-03-04T16:53:18Z</time>
      </trkpt>
      <trkpt lat="46.58861" lon="5.68748">
        <ele>440.8</ele>
        <time>2022-03-04T16:53:19Z</time>
      </trkpt>
      <trkpt lat="46.58863" lon="5.68742">
        <ele>440.8</ele>
        <time>2022-03-04T16:53:20Z</time>
      </trkpt>
      <trkpt lat="46.58865" lon="5.68736">
        <ele>440.8</ele>
        <time>2022-03-04T16:53:21Z</time>
      </trkpt>
      <trkpt lat="46.58866" lon="5.6873">
        <ele>440.8</ele>
        <time>2022-03-04T16:53:22Z</time>
      </trkpt>
      <trkpt lat="46.58868" lon="5.68724">
        <ele>440.8</ele>
        <time>2022-03-04T16:53:23Z</time>
      </trkpt>
      <trkpt lat="46.5887" lon="5.68718">
        <ele>440.8</ele>
        <time>2022-03-04T16:53:24Z</time>
      </trkpt>
      <trkpt lat="46.58872" lon="5.68713">
        <ele>440.8</ele>
        <time>2022-03-04T16:53:25Z</time>
      </trkpt>
      <trkpt lat="46.58873" lon="5.68707">
        <ele>440.8</ele>
        <time>2022-03-04T16:53:26Z</time>
      </trkpt>
      <trkpt lat="46.58875" lon="5.68701">
        <ele>441</ele>
        <time>2022-03-04T16:53:27Z</time>
      </trkpt>
      <trkpt lat="46.58877" lon="5.68696">
        <ele>441</ele>
        <time>2022-03-04T16:53:28Z</time>
      </trkpt>
      <trkpt lat="46.58878" lon="5.68691">
        <ele>441</ele>
        <time>2022-03-04T16:53:29Z</time>
      </trkpt>
      <trkpt lat="46.5888" lon="5.68685">
        <ele>441</ele>
        <time>2022-03-04T16:53:30Z</time>
      </trkpt>
      <trkpt lat="46.58882" lon="5.6868">
        <ele>441</ele>
        <time>2022-03-04T16:53:31Z</time>
      </trkpt>
      <trkpt lat="46.58884" lon="5.68675">
        <ele>441</ele>
        <time>2022-03-04T16:53:32Z</time>
      </trkpt>
      <trkpt lat="46.58885" lon="5.6867">
        <ele>441.4</ele>
        <time>2022-03-04T16:53:33Z</time>
      </trkpt>
      <trkpt lat="46.58887" lon="5.68665">
        <ele>441.4</ele>
        <time>2022-03-04T16:53:34Z</time>
      </trkpt>
      <trkpt lat="46.58889" lon="5.6866">
        <ele>441.4</ele>
        <time>2022-03-04T16:53:35Z</time>
      </trkpt>
      <trkpt lat="46.5889" lon="5.68654">
        <ele>441.4</ele>
        <time>2022-03-04T16:53:36Z</time>
      </trkpt>
      <trkpt lat="46.58892" lon="5.68649">
        <ele>441.8</ele>
        <time>2022-03-04T16:53:37Z</time>
      </trkpt>
      <trkpt lat="46.58894" lon="5.68644">
        <ele>441.8</ele>
        <time>2022-03-04T16:53:38Z</time>
      </trkpt>
      <trkpt lat="46.58895" lon="5.68638">
        <ele>441.8</ele>
        <time>2022-03-04T16:53:39Z</time>
      </trkpt>
      <trkpt lat="46.58897" lon="5.68633">
        <ele>441.8</ele>
        <time>2022-03-04T16:53:40Z</time>
      </trkpt>
      <trkpt lat="46.58899" lon="5.68628">
        <ele>441.8</ele>
        <time>2022-03-04T16:53:41Z</time>
      </trkpt>
      <trkpt lat="46.589" lon="5.68622">
        <ele>441.8</ele>
        <time>2022-03-04T16:53:42Z</time>
      </trkpt>
      <trkpt lat="46.58902" lon="5.68617">
        <ele>442</ele>
        <time>2022-03-04T16:53:43Z</time>
      </trkpt>
      <trkpt lat="46.58904" lon="5.68612">
        <ele>442</ele>
        <time>2022-03-04T16:53:44Z</time>
      </trkpt>
      <trkpt lat="46.58905" lon="5.68607">
        <ele>442</ele>
        <time>2022-03-04T16:53:45Z</time>
      </trkpt>
      <trkpt lat="46.58907" lon="5.68602">
        <ele>442</ele>
        <time>2022-03-04T16:53:46Z</time>
      </trkpt>
      <trkpt lat="46.58908" lon="5.68597">
        <ele>442.2</ele>
        <time>2022-03-04T16:53:47Z</time>
      </trkpt>
      <trkpt lat="46.5891" lon="5.68592">
        <ele>442.2</ele>
        <time>2022-03-04T16:53:48Z</time>
      </trkpt>
      <trkpt lat="46.58912" lon="5.68587">
        <ele>442.2</ele>
        <time>2022-03-04T16:53:49Z</time>
      </trkpt>
      <trkpt lat="46.58913" lon="5.68583">
        <ele>442.6</ele>
        <time>2022-03-04T16:53:50Z</time>
      </trkpt>
      <trkpt lat="46.58915" lon="5.68578">
        <ele>442.6</ele>
        <time>2022-03-04T16:53:51Z</time>
      </trkpt>
      <trkpt lat="46.58916" lon="5.68573">
        <ele>442.6</ele>
        <time>2022-03-04T16:53:52Z</time>
      </trkpt>
      <trkpt lat="46.58918" lon="5.68569">
        <ele>443</ele>
        <time>2022-03-04T16:53:53Z</time>
      </trkpt>
      <trkpt lat="46.58919" lon="5.68564">
        <ele>443</ele>
        <time>2022-03-04T16:53:54Z</time>
      </trkpt>
      <trkpt lat="46.58921" lon="5.68559">
        <ele>443</ele>
        <time>2022-03-04T16:53:55Z</time>
      </trkpt>
      <trkpt lat="46.58923" lon="5.68554">
        <ele>443</ele>
        <time>2022-03-04T16:53:56Z</time>
      </trkpt>
      <trkpt lat="46.58924" lon="5.68548">
        <ele>443</ele>
        <time>2022-03-04T16:53:57Z</time>
      </trkpt>
      <trkpt lat="46.58926" lon="5.68543">
        <ele>443</ele>
        <time>2022-03-04T16:53:58Z</time>
      </trkpt>
      <trkpt lat="46.58928" lon="5.68538">
        <ele>443.2</ele>
        <time>2022-03-04T16:53:59Z</time>
      </trkpt>
      <trkpt lat="46.58929" lon="5.68533">
        <ele>443.2</ele>
        <time>2022-03-04T16:54:00Z</time>
      </trkpt>
      <trkpt lat="46.58931" lon="5.68528">
        <ele>443.2</ele>
        <time>2022-03-04T16:54:01Z</time>
      </trkpt>
      <trkpt lat="46.58933" lon="5.68523">
        <ele>443.6</ele>
        <time>2022-03-04T16:54:02Z</time>
      </trkpt>
      <trkpt lat="46.58934" lon="5.68518">
        <ele>443.6</ele>
        <time>2022-03-04T16:54:03Z</time>
      </trkpt>
      <trkpt lat="46.58936" lon="5.68513">
        <ele>443.6</ele>
        <time>2022-03-04T16:54:04Z</time>
      </trkpt>
      <trkpt lat="46.58938" lon="5.68509">
        <ele>444</ele>
        <time>2022-03-04T16:54:05Z</time>
      </trkpt>
      <trkpt lat="46.58939" lon="5.68504">
        <ele>444</ele>
        <time>2022-03-04T16:54:06Z</time>
      </trkpt>
      <trkpt lat="46.58941" lon="5.685">
        <ele>444.4</ele>
        <time>2022-03-04T16:54:07Z</time>
      </trkpt>
      <trkpt lat="46.58943" lon="5.68495">
        <ele>444.4</ele>
        <time>2022-03-04T16:54:08Z</time>
      </trkpt>
      <trkpt lat="46.58944" lon="5.68491">
        <ele>444.4</ele>
        <time>2022-03-04T16:54:09Z</time>
      </trkpt>
      <trkpt lat="46.58946" lon="5.68486">
        <ele>444.6</ele>
        <time>2022-03-04T16:54:10Z</time>
      </trkpt>
      <trkpt lat="46.58947" lon="5.68482">
        <ele>444.6</ele>
        <time>2022-03-04T16:54:11Z</time>
      </trkpt>
      <trkpt lat="46.58949" lon="5.68478">
        <ele>444.8</ele>
        <time>2022-03-04T16:54:12Z</time>
      </trkpt>
      <trkpt lat="46.5895" lon="5.68473">
        <ele>444.8</ele>
        <time>2022-03-04T16:54:13Z</time>
      </trkpt>
      <trkpt lat="46.58952" lon="5.68469">
        <ele>444.8</ele>
        <time>2022-03-04T16:54:14Z</time>
      </trkpt>
      <trkpt lat="46.58953" lon="5.68465">
        <ele>445</ele>
        <time>2022-03-04T16:54:15Z</time>
      </trkpt>
      <trkpt lat="46.58955" lon="5.68461">
        <ele>445</ele>
        <time>2022-03-04T16:54:16Z</time>
      </trkpt>
      <trkpt lat="46.58956" lon="5.68457">
        <ele>445.2</ele>
        <time>2022-03-04T16:54:17Z</time>
      </trkpt>
      <trkpt lat="46.58957" lon="5.68453">
        <ele>445.2</ele>
        <time>2022-03-04T16:54:18Z</time>
      </trkpt>
      <trkpt lat="46.58959" lon="5.68449">
        <ele>445.6</ele>
        <time>2022-03-04T16:54:19Z</time>
      </trkpt>
      <trkpt lat="46.5896" lon="5.68445">
        <ele>445.6</ele>
        <time>2022-03-04T16:54:20Z</time>
      </trkpt>
      <trkpt lat="46.58961" lon="5.68442">
        <ele>445.8</ele>
        <time>2022-03-04T16:54:21Z</time>
      </trkpt>
      <trkpt lat="46.58963" lon="5.68438">
        <ele>445.8</ele>
        <time>2022-03-04T16:54:22Z</time>
      </trkpt>
      <trkpt lat="46.58964" lon="5.68434">
        <ele>446</ele>
        <time>2022-03-04T16:54:23Z</time>
      </trkpt>
      <trkpt lat="46.58965" lon="5.68431">
        <ele>446</ele>
        <time>2022-03-04T16:54:24Z</time>
      </trkpt>
      <trkpt lat="46.58967" lon="5.68427">
        <ele>446.4</ele>
        <time>2022-03-04T16:54:25Z</time>
      </trkpt>
      <trkpt lat="46.58968" lon="5.68423">
        <ele>446.4</ele>
        <time>2022-03-04T16:54:26Z</time>
      </trkpt>
      <trkpt lat="46.58969" lon="5.6842">
        <ele>446.8</ele>
        <time>2022-03-04T16:54:27Z</time>
      </trkpt>
      <trkpt lat="46.58971" lon="5.68416">
        <ele>446.8</ele>
        <time>2022-03-04T16:54:28Z</time>
      </trkpt>
      <trkpt lat="46.58972" lon="5.68412">
        <ele>447</ele>
        <time>2022-03-04T16:54:29Z</time>
      </trkpt>
      <trkpt lat="46.58974" lon="5.68409">
        <ele>447</ele>
        <time>2022-03-04T16:54:30Z</time>
      </trkpt>
      <trkpt lat="46.58975" lon="5.68405">
        <ele>447.2</ele>
        <time>2022-03-04T16:54:31Z</time>
      </trkpt>
      <trkpt lat="46.58976" lon="5.68401">
        <ele>447.2</ele>
        <time>2022-03-04T16:54:32Z</time>
      </trkpt>
      <trkpt lat="46.58978" lon="5.68397">
        <ele>447.6</ele>
        <time>2022-03-04T16:54:33Z</time>
      </trkpt>
      <trkpt lat="46.58979" lon="5.68393">
        <ele>447.6</ele>
        <time>2022-03-04T16:54:34Z</time>
      </trkpt>
      <trkpt lat="46.58981" lon="5.68389">
        <ele>448</ele>
        <time>2022-03-04T16:54:35Z</time>
      </trkpt>
      <trkpt lat="46.58981" lon="5.68389">
        <ele>448</ele>
        <time>2022-03-04T16:54:36Z</time>
      </trkpt>
      <trkpt lat="46.58982" lon="5.68386">
        <ele>448.4</ele>
        <time>2022-03-04T16:54:37Z</time>
      </trkpt>
      <trkpt lat="46.58983" lon="5.68382">
        <ele>448.6</ele>
        <time>2022-03-04T16:54:38Z</time>
      </trkpt>
      <trkpt lat="46.58985" lon="5.68378">
        <ele>448.8</ele>
        <time>2022-03-04T16:54:39Z</time>
      </trkpt>
      <trkpt lat="46.58986" lon="5.68374">
        <ele>448.8</ele>
        <time>2022-03-04T16:54:40Z</time>
      </trkpt>
      <trkpt lat="46.58988" lon="5.6837">
        <ele>449.2</ele>
        <time>2022-03-04T16:54:41Z</time>
      </trkpt>
      <trkpt lat="46.58989" lon="5.68366">
        <ele>449.2</ele>
        <time>2022-03-04T16:54:42Z</time>
      </trkpt>
      <trkpt lat="46.58991" lon="5.68362">
        <ele>449.4</ele>
        <time>2022-03-04T16:54:43Z</time>
      </trkpt>
      <trkpt lat="46.58992" lon="5.68358">
        <ele>449.4</ele>
        <time>2022-03-04T16:54:44Z</time>
      </trkpt>
      <trkpt lat="46.58994" lon="5.68354">
        <ele>449.8</ele>
        <time>2022-03-04T16:54:45Z</time>
      </trkpt>
      <trkpt lat="46.58995" lon="5.6835">
        <ele>449.8</ele>
        <time>2022-03-04T16:54:46Z</time>
      </trkpt>
      <trkpt lat="46.58997" lon="5.68346">
        <ele>450.2</ele>
        <time>2022-03-04T16:54:47Z</time>
      </trkpt>
      <trkpt lat="46.58998" lon="5.68342">
        <ele>450.4</ele>
        <time>2022-03-04T16:54:48Z</time>
      </trkpt>
      <trkpt lat="46.59" lon="5.68338">
        <ele>450.4</ele>
        <time>2022-03-04T16:54:49Z</time>
      </trkpt>
      <trkpt lat="46.59001" lon="5.68334">
        <ele>450.6</ele>
        <time>2022-03-04T16:54:50Z</time>
      </trkpt>
      <trkpt lat="46.59003" lon="5.6833">
        <ele>450.6</ele>
        <time>2022-03-04T16:54:51Z</time>
      </trkpt>
      <trkpt lat="46.59004" lon="5.68326">
        <ele>451</ele>
        <time>2022-03-04T16:54:52Z</time>
      </trkpt>
      <trkpt lat="46.59006" lon="5.68322">
        <ele>451.2</ele>
        <time>2022-03-04T16:54:53Z</time>
      </trkpt>
      <trkpt lat="46.59007" lon="5.68318">
        <ele>451.2</ele>
        <time>2022-03-04T16:54:54Z</time>
      </trkpt>
      <trkpt lat="46.59009" lon="5.68314">
        <ele>451.6</ele>
        <time>2022-03-04T16:54:55Z</time>
      </trkpt>
      <trkpt lat="46.59011" lon="5.68309">
        <ele>451.8</ele>
        <time>2022-03-04T16:54:56Z</time>
      </trkpt>
      <trkpt lat="46.59012" lon="5.68305">
        <ele>452</ele>
        <time>2022-03-04T16:54:57Z</time>
      </trkpt>
      <trkpt lat="46.59014" lon="5.68301">
        <ele>452</ele>
        <time>2022-03-04T16:54:58Z</time>
      </trkpt>
      <trkpt lat="46.59015" lon="5.68297">
        <ele>452</ele>
        <time>2022-03-04T16:54:59Z</time>
      </trkpt>
      <trkpt lat="46.59017" lon="5.68293">
        <ele>452.2</ele>
        <time>2022-03-04T16:55:00Z</time>
      </trkpt>
      <trkpt lat="46.59018" lon="5.68288">
        <ele>452.2</ele>
        <time>2022-03-04T16:55:01Z</time>
      </trkpt>
      <trkpt lat="46.5902" lon="5.68284">
        <ele>452.6</ele>
        <time>2022-03-04T16:55:02Z</time>
      </trkpt>
      <trkpt lat="46.59021" lon="5.6828">
        <ele>452.6</ele>
        <time>2022-03-04T16:55:03Z</time>
      </trkpt>
      <trkpt lat="46.59023" lon="5.68276">
        <ele>453</ele>
        <time>2022-03-04T16:55:04Z</time>
      </trkpt>
      <trkpt lat="46.59025" lon="5.68272">
        <ele>453</ele>
        <time>2022-03-04T16:55:05Z</time>
      </trkpt>
      <trkpt lat="46.59026" lon="5.68268">
        <ele>453.2</ele>
        <time>2022-03-04T16:55:06Z</time>
      </trkpt>
      <trkpt lat="46.59028" lon="5.68264">
        <ele>453.2</ele>
        <time>2022-03-04T16:55:07Z</time>
      </trkpt>
      <trkpt lat="46.59029" lon="5.6826">
        <ele>453.4</ele>
        <time>2022-03-04T16:55:08Z</time>
      </trkpt>
      <trkpt lat="46.59031" lon="5.68256">
        <ele>453.4</ele>
        <time>2022-03-04T16:55:09Z</time>
      </trkpt>
      <trkpt lat="46.59032" lon="5.68252">
        <ele>453.8</ele>
        <time>2022-03-04T16:55:10Z</time>
      </trkpt>
      <trkpt lat="46.59034" lon="5.68248">
        <ele>453.8</ele>
        <time>2022-03-04T16:55:11Z</time>
      </trkpt>
      <trkpt lat="46.59035" lon="5.68244">
        <ele>454</ele>
        <time>2022-03-04T16:55:12Z</time>
      </trkpt>
      <trkpt lat="46.59036" lon="5.6824">
        <ele>454.2</ele>
        <time>2022-03-04T16:55:13Z</time>
      </trkpt>
      <trkpt lat="46.59038" lon="5.68236">
        <ele>454.2</ele>
        <time>2022-03-04T16:55:14Z</time>
      </trkpt>
      <trkpt lat="46.59039" lon="5.68233">
        <ele>454.4</ele>
        <time>2022-03-04T16:55:15Z</time>
      </trkpt>
      <trkpt lat="46.59041" lon="5.68229">
        <ele>454.4</ele>
        <time>2022-03-04T16:55:16Z</time>
      </trkpt>
      <trkpt lat="46.59043" lon="5.68225">
        <ele>454.6</ele>
        <time>2022-03-04T16:55:17Z</time>
      </trkpt>
      <trkpt lat="46.59044" lon="5.68221">
        <ele>454.6</ele>
        <time>2022-03-04T16:55:18Z</time>
      </trkpt>
      <trkpt lat="46.59046" lon="5.68217">
        <ele>454.6</ele>
        <time>2022-03-04T16:55:19Z</time>
      </trkpt>
      <trkpt lat="46.59047" lon="5.68214">
        <ele>454.8</ele>
        <time>2022-03-04T16:55:20Z</time>
      </trkpt>
      <trkpt lat="46.59049" lon="5.6821">
        <ele>454.8</ele>
        <time>2022-03-04T16:55:21Z</time>
      </trkpt>
      <trkpt lat="46.5905" lon="5.68206">
        <ele>455.2</ele>
        <time>2022-03-04T16:55:22Z</time>
      </trkpt>
      <trkpt lat="46.59052" lon="5.68202">
        <ele>455.2</ele>
        <time>2022-03-04T16:55:23Z</time>
      </trkpt>
      <trkpt lat="46.59053" lon="5.68198">
        <ele>455.2</ele>
        <time>2022-03-04T16:55:24Z</time>
      </trkpt>
      <trkpt lat="46.59055" lon="5.68194">
        <ele>455.4</ele>
        <time>2022-03-04T16:55:25Z</time>
      </trkpt>
      <trkpt lat="46.59057" lon="5.6819">
        <ele>455.4</ele>
        <time>2022-03-04T16:55:26Z</time>
      </trkpt>
      <trkpt lat="46.59058" lon="5.68186">
        <ele>455.6</ele>
        <time>2022-03-04T16:55:27Z</time>
      </trkpt>
      <trkpt lat="46.5906" lon="5.68182">
        <ele>455.6</ele>
        <time>2022-03-04T16:55:28Z</time>
      </trkpt>
      <trkpt lat="46.59061" lon="5.68178">
        <ele>456</ele>
        <time>2022-03-04T16:55:29Z</time>
      </trkpt>
      <trkpt lat="46.59063" lon="5.68174">
        <ele>456</ele>
        <time>2022-03-04T16:55:30Z</time>
      </trkpt>
      <trkpt lat="46.59064" lon="5.6817">
        <ele>456</ele>
        <time>2022-03-04T16:55:31Z</time>
      </trkpt>
      <trkpt lat="46.59066" lon="5.68166">
        <ele>456.2</ele>
        <time>2022-03-04T16:55:32Z</time>
      </trkpt>
      <trkpt lat="46.59067" lon="5.68162">
        <ele>456.2</ele>
        <time>2022-03-04T16:55:33Z</time>
      </trkpt>
      <trkpt lat="46.59069" lon="5.68158">
        <ele>456.4</ele>
        <time>2022-03-04T16:55:34Z</time>
      </trkpt>
      <trkpt lat="46.59071" lon="5.68154">
        <ele>456.4</ele>
        <time>2022-03-04T16:55:35Z</time>
      </trkpt>
      <trkpt lat="46.59072" lon="5.68149">
        <ele>456.6</ele>
        <time>2022-03-04T16:55:36Z</time>
      </trkpt>
      <trkpt lat="46.59074" lon="5.68145">
        <ele>456.6</ele>
        <time>2022-03-04T16:55:37Z</time>
      </trkpt>
      <trkpt lat="46.59075" lon="5.68141">
        <ele>457</ele>
        <time>2022-03-04T16:55:38Z</time>
      </trkpt>
      <trkpt lat="46.59077" lon="5.68137">
        <ele>457</ele>
        <time>2022-03-04T16:55:39Z</time>
      </trkpt>
      <trkpt lat="46.59079" lon="5.68133">
        <ele>457.2</ele>
        <time>2022-03-04T16:55:40Z</time>
      </trkpt>
      <trkpt lat="46.5908" lon="5.68129">
        <ele>457.2</ele>
        <time>2022-03-04T16:55:41Z</time>
      </trkpt>
      <trkpt lat="46.59082" lon="5.68125">
        <ele>457.2</ele>
        <time>2022-03-04T16:55:42Z</time>
      </trkpt>
      <trkpt lat="46.59084" lon="5.68121">
        <ele>457.4</ele>
        <time>2022-03-04T16:55:43Z</time>
      </trkpt>
      <trkpt lat="46.59085" lon="5.68117">
        <ele>457.4</ele>
        <time>2022-03-04T16:55:44Z</time>
      </trkpt>
      <trkpt lat="46.59087" lon="5.68113">
        <ele>457.6</ele>
        <time>2022-03-04T16:55:45Z</time>
      </trkpt>
      <trkpt lat="46.59088" lon="5.68109">
        <ele>457.6</ele>
        <time>2022-03-04T16:55:46Z</time>
      </trkpt>
      <trkpt lat="46.5909" lon="5.68105">
        <ele>458</ele>
        <time>2022-03-04T16:55:47Z</time>
      </trkpt>
      <trkpt lat="46.59092" lon="5.68101">
        <ele>458</ele>
        <time>2022-03-04T16:55:48Z</time>
      </trkpt>
      <trkpt lat="46.59093" lon="5.68096">
        <ele>458</ele>
        <time>2022-03-04T16:55:49Z</time>
      </trkpt>
      <trkpt lat="46.59095" lon="5.68092">
        <ele>458</ele>
        <time>2022-03-04T16:55:50Z</time>
      </trkpt>
      <trkpt lat="46.59096" lon="5.68088">
        <ele>458</ele>
        <time>2022-03-04T16:55:51Z</time>
      </trkpt>
      <trkpt lat="46.59098" lon="5.68083">
        <ele>458</ele>
        <time>2022-03-04T16:55:52Z</time>
      </trkpt>
      <trkpt lat="46.591" lon="5.68079">
        <ele>458.2</ele>
        <time>2022-03-04T16:55:53Z</time>
      </trkpt>
      <trkpt lat="46.59101" lon="5.68075">
        <ele>458.2</ele>
        <time>2022-03-04T16:55:54Z</time>
      </trkpt>
      <trkpt lat="46.59103" lon="5.68071">
        <ele>458.2</ele>
        <time>2022-03-04T16:55:55Z</time>
      </trkpt>
      <trkpt lat="46.59104" lon="5.68066">
        <ele>458.4</ele>
        <time>2022-03-04T16:55:56Z</time>
      </trkpt>
      <trkpt lat="46.59106" lon="5.68061">
        <ele>458.4</ele>
        <time>2022-03-04T16:55:57Z</time>
      </trkpt>
      <trkpt lat="46.59108" lon="5.68056">
        <ele>458.4</ele>
        <time>2022-03-04T16:55:58Z</time>
      </trkpt>
      <trkpt lat="46.5911" lon="5.68052">
        <ele>458.4</ele>
        <time>2022-03-04T16:55:59Z</time>
      </trkpt>
      <trkpt lat="46.59112" lon="5.68047">
        <ele>458.6</ele>
        <time>2022-03-04T16:56:00Z</time>
      </trkpt>
      <trkpt lat="46.59114" lon="5.68043">
        <ele>458.6</ele>
        <time>2022-03-04T16:56:01Z</time>
      </trkpt>
      <trkpt lat="46.59116" lon="5.68038">
        <ele>458.6</ele>
        <time>2022-03-04T16:56:02Z</time>
      </trkpt>
      <trkpt lat="46.59118" lon="5.68034">
        <ele>458.6</ele>
        <time>2022-03-04T16:56:03Z</time>
      </trkpt>
      <trkpt lat="46.5912" lon="5.6803">
        <ele>458.6</ele>
        <time>2022-03-04T16:56:04Z</time>
      </trkpt>
      <trkpt lat="46.59123" lon="5.68026">
        <ele>458.6</ele>
        <time>2022-03-04T16:56:05Z</time>
      </trkpt>
      <trkpt lat="46.59125" lon="5.68021">
        <ele>458.6</ele>
        <time>2022-03-04T16:56:06Z</time>
      </trkpt>
      <trkpt lat="46.59128" lon="5.68017">
        <ele>458.6</ele>
        <time>2022-03-04T16:56:07Z</time>
      </trkpt>
      <trkpt lat="46.5913" lon="5.68013">
        <ele>458.6</ele>
        <time>2022-03-04T16:56:08Z</time>
      </trkpt>
      <trkpt lat="46.59133" lon="5.68008">
        <ele>458.6</ele>
        <time>2022-03-04T16:56:09Z</time>
      </trkpt>
      <trkpt lat="46.59136" lon="5.68003">
        <ele>458.6</ele>
        <time>2022-03-04T16:56:10Z</time>
      </trkpt>
      <trkpt lat="46.59139" lon="5.67998">
        <ele>458.6</ele>
        <time>2022-03-04T16:56:11Z</time>
      </trkpt>
      <trkpt lat="46.59142" lon="5.67993">
        <ele>458.4</ele>
        <time>2022-03-04T16:56:12Z</time>
      </trkpt>
      <trkpt lat="46.59145" lon="5.67988">
        <ele>458.4</ele>
        <time>2022-03-04T16:56:13Z</time>
      </trkpt>
      <trkpt lat="46.59149" lon="5.67982">
        <ele>458.4</ele>
        <time>2022-03-04T16:56:14Z</time>
      </trkpt>
      <trkpt lat="46.59152" lon="5.67976">
        <ele>458</ele>
        <time>2022-03-04T16:56:15Z</time>
      </trkpt>
      <trkpt lat="46.59156" lon="5.6797">
        <ele>458</ele>
        <time>2022-03-04T16:56:16Z</time>
      </trkpt>
      <trkpt lat="46.5916" lon="5.67964">
        <ele>457.8</ele>
        <time>2022-03-04T16:56:17Z</time>
      </trkpt>
      <trkpt lat="46.59164" lon="5.67957">
        <ele>457.8</ele>
        <time>2022-03-04T16:56:18Z</time>
      </trkpt>
      <trkpt lat="46.59168" lon="5.67951">
        <ele>457.6</ele>
        <time>2022-03-04T16:56:19Z</time>
      </trkpt>
      <trkpt lat="46.59172" lon="5.67945">
        <ele>457.6</ele>
        <time>2022-03-04T16:56:20Z</time>
      </trkpt>
      <trkpt lat="46.59176" lon="5.67938">
        <ele>457.4</ele>
        <time>2022-03-04T16:56:21Z</time>
      </trkpt>
      <trkpt lat="46.5918" lon="5.67932">
        <ele>457.4</ele>
        <time>2022-03-04T16:56:22Z</time>
      </trkpt>
      <trkpt lat="46.59184" lon="5.67926">
        <ele>457.4</ele>
        <time>2022-03-04T16:56:23Z</time>
      </trkpt>
      <trkpt lat="46.59188" lon="5.67919">
        <ele>457.4</ele>
        <time>2022-03-04T16:56:24Z</time>
      </trkpt>
      <trkpt lat="46.59192" lon="5.67913">
        <ele>457.2</ele>
        <time>2022-03-04T16:56:25Z</time>
      </trkpt>
      <trkpt lat="46.59196" lon="5.67907">
        <ele>457.2</ele>
        <time>2022-03-04T16:56:26Z</time>
      </trkpt>
      <trkpt lat="46.592" lon="5.67901">
        <ele>457</ele>
        <time>2022-03-04T16:56:27Z</time>
      </trkpt>
      <trkpt lat="46.59203" lon="5.67894">
        <ele>457</ele>
        <time>2022-03-04T16:56:28Z</time>
      </trkpt>
      <trkpt lat="46.59207" lon="5.67888">
        <ele>457</ele>
        <time>2022-03-04T16:56:29Z</time>
      </trkpt>
      <trkpt lat="46.59211" lon="5.67883">
        <ele>457</ele>
        <time>2022-03-04T16:56:30Z</time>
      </trkpt>
      <trkpt lat="46.59214" lon="5.67877">
        <ele>457</ele>
        <time>2022-03-04T16:56:31Z</time>
      </trkpt>
      <trkpt lat="46.59217" lon="5.67871">
        <ele>457</ele>
        <time>2022-03-04T16:56:32Z</time>
      </trkpt>
      <trkpt lat="46.59221" lon="5.67865">
        <ele>457</ele>
        <time>2022-03-04T16:56:33Z</time>
      </trkpt>
      <trkpt lat="46.59224" lon="5.67859">
        <ele>456.8</ele>
        <time>2022-03-04T16:56:34Z</time>
      </trkpt>
      <trkpt lat="46.59227" lon="5.67852">
        <ele>456.8</ele>
        <time>2022-03-04T16:56:35Z</time>
      </trkpt>
      <trkpt lat="46.5923" lon="5.67846">
        <ele>456.8</ele>
        <time>2022-03-04T16:56:36Z</time>
      </trkpt>
      <trkpt lat="46.59233" lon="5.67841">
        <ele>456.8</ele>
        <time>2022-03-04T16:56:37Z</time>
      </trkpt>
      <trkpt lat="46.59236" lon="5.67835">
        <ele>456.4</ele>
        <time>2022-03-04T16:56:38Z</time>
      </trkpt>
      <trkpt lat="46.59238" lon="5.67828">
        <ele>456.4</ele>
        <time>2022-03-04T16:56:39Z</time>
      </trkpt>
      <trkpt lat="46.5924" lon="5.67822">
        <ele>456.4</ele>
        <time>2022-03-04T16:56:40Z</time>
      </trkpt>
      <trkpt lat="46.59242" lon="5.67816">
        <ele>456.4</ele>
        <time>2022-03-04T16:56:41Z</time>
      </trkpt>
      <trkpt lat="46.59244" lon="5.67809">
        <ele>456.4</ele>
        <time>2022-03-04T16:56:42Z</time>
      </trkpt>
      <trkpt lat="46.59246" lon="5.67803">
        <ele>456.4</ele>
        <time>2022-03-04T16:56:43Z</time>
      </trkpt>
      <trkpt lat="46.59248" lon="5.67796">
        <ele>456.4</ele>
        <time>2022-03-04T16:56:44Z</time>
      </trkpt>
      <trkpt lat="46.59249" lon="5.67789">
        <ele>456.2</ele>
        <time>2022-03-04T16:56:45Z</time>
      </trkpt>
      <trkpt lat="46.59251" lon="5.67782">
        <ele>456.2</ele>
        <time>2022-03-04T16:56:46Z</time>
      </trkpt>
      <trkpt lat="46.59253" lon="5.67775">
        <ele>456.2</ele>
        <time>2022-03-04T16:56:47Z</time>
      </trkpt>
      <trkpt lat="46.59254" lon="5.67769">
        <ele>456.2</ele>
        <time>2022-03-04T16:56:48Z</time>
      </trkpt>
      <trkpt lat="46.59256" lon="5.67762">
        <ele>456.2</ele>
        <time>2022-03-04T16:56:49Z</time>
      </trkpt>
      <trkpt lat="46.59258" lon="5.67756">
        <ele>456.2</ele>
        <time>2022-03-04T16:56:50Z</time>
      </trkpt>
      <trkpt lat="46.5926" lon="5.67749">
        <ele>456.2</ele>
        <time>2022-03-04T16:56:51Z</time>
      </trkpt>
      <trkpt lat="46.59262" lon="5.67743">
        <ele>456.2</ele>
        <time>2022-03-04T16:56:52Z</time>
      </trkpt>
      <trkpt lat="46.59263" lon="5.67736">
        <ele>456.2</ele>
        <time>2022-03-04T16:56:53Z</time>
      </trkpt>
      <trkpt lat="46.59265" lon="5.6773">
        <ele>456.2</ele>
        <time>2022-03-04T16:56:54Z</time>
      </trkpt>
      <trkpt lat="46.59267" lon="5.67723">
        <ele>456.2</ele>
        <time>2022-03-04T16:56:55Z</time>
      </trkpt>
      <trkpt lat="46.59268" lon="5.67717">
        <ele>456.2</ele>
        <time>2022-03-04T16:56:56Z</time>
      </trkpt>
      <trkpt lat="46.5927" lon="5.67711">
        <ele>456.2</ele>
        <time>2022-03-04T16:56:57Z</time>
      </trkpt>
      <trkpt lat="46.59271" lon="5.67705">
        <ele>456.4</ele>
        <time>2022-03-04T16:56:58Z</time>
      </trkpt>
      <trkpt lat="46.59273" lon="5.677">
        <ele>456.4</ele>
        <time>2022-03-04T16:56:59Z</time>
      </trkpt>
      <trkpt lat="46.59274" lon="5.67694">
        <ele>456.4</ele>
        <time>2022-03-04T16:57:00Z</time>
      </trkpt>
      <trkpt lat="46.59276" lon="5.67689">
        <ele>456.4</ele>
        <time>2022-03-04T16:57:01Z</time>
      </trkpt>
      <trkpt lat="46.59277" lon="5.67684">
        <ele>456.8</ele>
        <time>2022-03-04T16:57:02Z</time>
      </trkpt>
      <trkpt lat="46.59278" lon="5.67679">
        <ele>456.8</ele>
        <time>2022-03-04T16:57:03Z</time>
      </trkpt>
      <trkpt lat="46.5928" lon="5.67674">
        <ele>457</ele>
        <time>2022-03-04T16:57:04Z</time>
      </trkpt>
      <trkpt lat="46.59281" lon="5.67669">
        <ele>457</ele>
        <time>2022-03-04T16:57:05Z</time>
      </trkpt>
      <trkpt lat="46.59284" lon="5.67659">
        <ele>457.2</ele>
        <time>2022-03-04T16:57:06Z</time>
      </trkpt>
      <trkpt lat="46.59285" lon="5.67654">
        <ele>457.4</ele>
        <time>2022-03-04T16:57:07Z</time>
      </trkpt>
      <trkpt lat="46.59286" lon="5.67649">
        <ele>457.4</ele>
        <time>2022-03-04T16:57:08Z</time>
      </trkpt>
      <trkpt lat="46.59287" lon="5.67644">
        <ele>457.8</ele>
        <time>2022-03-04T16:57:09Z</time>
      </trkpt>
      <trkpt lat="46.59288" lon="5.67639">
        <ele>457.8</ele>
        <time>2022-03-04T16:57:10Z</time>
      </trkpt>
      <trkpt lat="46.59289" lon="5.67634">
        <ele>457.8</ele>
        <time>2022-03-04T16:57:11Z</time>
      </trkpt>
      <trkpt lat="46.5929" lon="5.6763">
        <ele>458</ele>
        <time>2022-03-04T16:57:12Z</time>
      </trkpt>
      <trkpt lat="46.59291" lon="5.67625">
        <ele>458</ele>
        <time>2022-03-04T16:57:13Z</time>
      </trkpt>
      <trkpt lat="46.59292" lon="5.6762">
        <ele>458.4</ele>
        <time>2022-03-04T16:57:14Z</time>
      </trkpt>
      <trkpt lat="46.59293" lon="5.67615">
        <ele>458.4</ele>
        <time>2022-03-04T16:57:15Z</time>
      </trkpt>
      <trkpt lat="46.59294" lon="5.67611">
        <ele>458.6</ele>
        <time>2022-03-04T16:57:16Z</time>
      </trkpt>
      <trkpt lat="46.59295" lon="5.67606">
        <ele>458.6</ele>
        <time>2022-03-04T16:57:17Z</time>
      </trkpt>
      <trkpt lat="46.59296" lon="5.67601">
        <ele>458.8</ele>
        <time>2022-03-04T16:57:18Z</time>
      </trkpt>
      <trkpt lat="46.59297" lon="5.67597">
        <ele>458.8</ele>
        <time>2022-03-04T16:57:19Z</time>
      </trkpt>
      <trkpt lat="46.59298" lon="5.67592">
        <ele>459.2</ele>
        <time>2022-03-04T16:57:20Z</time>
      </trkpt>
      <trkpt lat="46.59299" lon="5.67588">
        <ele>459.4</ele>
        <time>2022-03-04T16:57:21Z</time>
      </trkpt>
      <trkpt lat="46.593" lon="5.67583">
        <ele>459.4</ele>
        <time>2022-03-04T16:57:22Z</time>
      </trkpt>
      <trkpt lat="46.59301" lon="5.67578">
        <ele>459.6</ele>
        <time>2022-03-04T16:57:23Z</time>
      </trkpt>
      <trkpt lat="46.59302" lon="5.67573">
        <ele>459.6</ele>
        <time>2022-03-04T16:57:24Z</time>
      </trkpt>
      <trkpt lat="46.59303" lon="5.67568">
        <ele>460</ele>
        <time>2022-03-04T16:57:25Z</time>
      </trkpt>
      <trkpt lat="46.59304" lon="5.67562">
        <ele>460</ele>
        <time>2022-03-04T16:57:26Z</time>
      </trkpt>
      <trkpt lat="46.59304" lon="5.67557">
        <ele>460.2</ele>
        <time>2022-03-04T16:57:27Z</time>
      </trkpt>
      <trkpt lat="46.59304" lon="5.67551">
        <ele>460.2</ele>
        <time>2022-03-04T16:57:28Z</time>
      </trkpt>
      <trkpt lat="46.59305" lon="5.67546">
        <ele>460.2</ele>
        <time>2022-03-04T16:57:29Z</time>
      </trkpt>
      <trkpt lat="46.59306" lon="5.6754">
        <ele>460.2</ele>
        <time>2022-03-04T16:57:30Z</time>
      </trkpt>
      <trkpt lat="46.59306" lon="5.67534">
        <ele>460.6</ele>
        <time>2022-03-04T16:57:31Z</time>
      </trkpt>
      <trkpt lat="46.59307" lon="5.67529">
        <ele>460.6</ele>
        <time>2022-03-04T16:57:32Z</time>
      </trkpt>
      <trkpt lat="46.59308" lon="5.67523">
        <ele>460.6</ele>
        <time>2022-03-04T16:57:33Z</time>
      </trkpt>
      <trkpt lat="46.59308" lon="5.67517">
        <ele>460.6</ele>
        <time>2022-03-04T16:57:34Z</time>
      </trkpt>
      <trkpt lat="46.59309" lon="5.67512">
        <ele>460.8</ele>
        <time>2022-03-04T16:57:35Z</time>
      </trkpt>
      <trkpt lat="46.5931" lon="5.67506">
        <ele>460.8</ele>
        <time>2022-03-04T16:57:36Z</time>
      </trkpt>
      <trkpt lat="46.5931" lon="5.675">
        <ele>460.8</ele>
        <time>2022-03-04T16:57:37Z</time>
      </trkpt>
      <trkpt lat="46.59311" lon="5.67494">
        <ele>461</ele>
        <time>2022-03-04T16:57:38Z</time>
      </trkpt>
      <trkpt lat="46.59311" lon="5.67489">
        <ele>461</ele>
        <time>2022-03-04T16:57:39Z</time>
      </trkpt>
      <trkpt lat="46.59312" lon="5.67483">
        <ele>461</ele>
        <time>2022-03-04T16:57:40Z</time>
      </trkpt>
      <trkpt lat="46.59312" lon="5.67478">
        <ele>461</ele>
        <time>2022-03-04T16:57:41Z</time>
      </trkpt>
      <trkpt lat="46.59313" lon="5.67472">
        <ele>461.2</ele>
        <time>2022-03-04T16:57:42Z</time>
      </trkpt>
      <trkpt lat="46.59314" lon="5.67466">
        <ele>461.2</ele>
        <time>2022-03-04T16:57:43Z</time>
      </trkpt>
      <trkpt lat="46.59315" lon="5.6746">
        <ele>461.2</ele>
        <time>2022-03-04T16:57:44Z</time>
      </trkpt>
      <trkpt lat="46.59316" lon="5.67455">
        <ele>461.2</ele>
        <time>2022-03-04T16:57:45Z</time>
      </trkpt>
      <trkpt lat="46.59316" lon="5.67449">
        <ele>461.2</ele>
        <time>2022-03-04T16:57:46Z</time>
      </trkpt>
      <trkpt lat="46.59317" lon="5.67443">
        <ele>461.2</ele>
        <time>2022-03-04T16:57:47Z</time>
      </trkpt>
      <trkpt lat="46.59318" lon="5.67437">
        <ele>461.2</ele>
        <time>2022-03-04T16:57:48Z</time>
      </trkpt>
      <trkpt lat="46.59319" lon="5.67431">
        <ele>461.2</ele>
        <time>2022-03-04T16:57:49Z</time>
      </trkpt>
      <trkpt lat="46.59321" lon="5.67425">
        <ele>461.6</ele>
        <time>2022-03-04T16:57:50Z</time>
      </trkpt>
      <trkpt lat="46.59322" lon="5.67419">
        <ele>461.6</ele>
        <time>2022-03-04T16:57:51Z</time>
      </trkpt>
      <trkpt lat="46.59324" lon="5.67413">
        <ele>461.6</ele>
        <time>2022-03-04T16:57:52Z</time>
      </trkpt>
      <trkpt lat="46.59325" lon="5.67406">
        <ele>461.6</ele>
        <time>2022-03-04T16:57:53Z</time>
      </trkpt>
      <trkpt lat="46.59327" lon="5.674">
        <ele>461.6</ele>
        <time>2022-03-04T16:57:54Z</time>
      </trkpt>
      <trkpt lat="46.59329" lon="5.67394">
        <ele>461.6</ele>
        <time>2022-03-04T16:57:55Z</time>
      </trkpt>
      <trkpt lat="46.5933" lon="5.67387">
        <ele>461.6</ele>
        <time>2022-03-04T16:57:56Z</time>
      </trkpt>
      <trkpt lat="46.59332" lon="5.6738">
        <ele>461.4</ele>
        <time>2022-03-04T16:57:57Z</time>
      </trkpt>
      <trkpt lat="46.59334" lon="5.67373">
        <ele>461.4</ele>
        <time>2022-03-04T16:57:58Z</time>
      </trkpt>
      <trkpt lat="46.59336" lon="5.67367">
        <ele>461.4</ele>
        <time>2022-03-04T16:57:59Z</time>
      </trkpt>
      <trkpt lat="46.59338" lon="5.6736">
        <ele>461.2</ele>
        <time>2022-03-04T16:58:00Z</time>
      </trkpt>
      <trkpt lat="46.59341" lon="5.67354">
        <ele>461.2</ele>
        <time>2022-03-04T16:58:01Z</time>
      </trkpt>
      <trkpt lat="46.59343" lon="5.67348">
        <ele>461.2</ele>
        <time>2022-03-04T16:58:02Z</time>
      </trkpt>
      <trkpt lat="46.59345" lon="5.67341">
        <ele>461.2</ele>
        <time>2022-03-04T16:58:03Z</time>
      </trkpt>
      <trkpt lat="46.59348" lon="5.67334">
        <ele>461.2</ele>
        <time>2022-03-04T16:58:04Z</time>
      </trkpt>
      <trkpt lat="46.5935" lon="5.67326">
        <ele>461</ele>
        <time>2022-03-04T16:58:05Z</time>
      </trkpt>
      <trkpt lat="46.59353" lon="5.67319">
        <ele>461</ele>
        <time>2022-03-04T16:58:06Z</time>
      </trkpt>
      <trkpt lat="46.59356" lon="5.67312">
        <ele>460.6</ele>
        <time>2022-03-04T16:58:07Z</time>
      </trkpt>
      <trkpt lat="46.59358" lon="5.67304">
        <ele>460.6</ele>
        <time>2022-03-04T16:58:08Z</time>
      </trkpt>
      <trkpt lat="46.5936" lon="5.67297">
        <ele>460.6</ele>
        <time>2022-03-04T16:58:09Z</time>
      </trkpt>
      <trkpt lat="46.59362" lon="5.67289">
        <ele>460.6</ele>
        <time>2022-03-04T16:58:10Z</time>
      </trkpt>
      <trkpt lat="46.59364" lon="5.67281">
        <ele>460.4</ele>
        <time>2022-03-04T16:58:11Z</time>
      </trkpt>
      <trkpt lat="46.59367" lon="5.67273">
        <ele>460.4</ele>
        <time>2022-03-04T16:58:12Z</time>
      </trkpt>
      <trkpt lat="46.59369" lon="5.67265">
        <ele>460</ele>
        <time>2022-03-04T16:58:13Z</time>
      </trkpt>
      <trkpt lat="46.59371" lon="5.67257">
        <ele>459.8</ele>
        <time>2022-03-04T16:58:14Z</time>
      </trkpt>
      <trkpt lat="46.59373" lon="5.67249">
        <ele>459.8</ele>
        <time>2022-03-04T16:58:15Z</time>
      </trkpt>
      <trkpt lat="46.59374" lon="5.6724">
        <ele>459.8</ele>
        <time>2022-03-04T16:58:16Z</time>
      </trkpt>
      <trkpt lat="46.59376" lon="5.67232">
        <ele>459.8</ele>
        <time>2022-03-04T16:58:17Z</time>
      </trkpt>
      <trkpt lat="46.59377" lon="5.67223">
        <ele>459.8</ele>
        <time>2022-03-04T16:58:18Z</time>
      </trkpt>
      <trkpt lat="46.59378" lon="5.67215">
        <ele>459.6</ele>
        <time>2022-03-04T16:58:19Z</time>
      </trkpt>
      <trkpt lat="46.59379" lon="5.67207">
        <ele>459.6</ele>
        <time>2022-03-04T16:58:20Z</time>
      </trkpt>
      <trkpt lat="46.5938" lon="5.67198">
        <ele>459.6</ele>
        <time>2022-03-04T16:58:21Z</time>
      </trkpt>
      <trkpt lat="46.59381" lon="5.6719">
        <ele>459.6</ele>
        <time>2022-03-04T16:58:22Z</time>
      </trkpt>
      <trkpt lat="46.59381" lon="5.67182">
        <ele>459.6</ele>
        <time>2022-03-04T16:58:23Z</time>
      </trkpt>
      <trkpt lat="46.59381" lon="5.67175">
        <ele>459.6</ele>
        <time>2022-03-04T16:58:24Z</time>
      </trkpt>
      <trkpt lat="46.59381" lon="5.67167">
        <ele>459.6</ele>
        <time>2022-03-04T16:58:25Z</time>
      </trkpt>
      <trkpt lat="46.5938" lon="5.67159">
        <ele>459.6</ele>
        <time>2022-03-04T16:58:26Z</time>
      </trkpt>
      <trkpt lat="46.5938" lon="5.67151">
        <ele>459.6</ele>
        <time>2022-03-04T16:58:27Z</time>
      </trkpt>
      <trkpt lat="46.5938" lon="5.67144">
        <ele>459.6</ele>
        <time>2022-03-04T16:58:28Z</time>
      </trkpt>
      <trkpt lat="46.5938" lon="5.67136">
        <ele>459.6</ele>
        <time>2022-03-04T16:58:29Z</time>
      </trkpt>
      <trkpt lat="46.5938" lon="5.67136">
        <ele>459.6</ele>
        <time>2022-03-04T16:58:30Z</time>
      </trkpt>
      <trkpt lat="46.5938" lon="5.67128">
        <ele>459.6</ele>
        <time>2022-03-04T16:58:31Z</time>
      </trkpt>
      <trkpt lat="46.59379" lon="5.67121">
        <ele>459.6</ele>
        <time>2022-03-04T16:58:32Z</time>
      </trkpt>
      <trkpt lat="46.59379" lon="5.67114">
        <ele>459.6</ele>
        <time>2022-03-04T16:58:33Z</time>
      </trkpt>
      <trkpt lat="46.59379" lon="5.67107">
        <ele>459.6</ele>
        <time>2022-03-04T16:58:34Z</time>
      </trkpt>
      <trkpt lat="46.59379" lon="5.671">
        <ele>459.8</ele>
        <time>2022-03-04T16:58:35Z</time>
      </trkpt>
      <trkpt lat="46.59378" lon="5.67093">
        <ele>459.8</ele>
        <time>2022-03-04T16:58:36Z</time>
      </trkpt>
      <trkpt lat="46.59378" lon="5.67086">
        <ele>459.8</ele>
        <time>2022-03-04T16:58:37Z</time>
      </trkpt>
      <trkpt lat="46.59378" lon="5.6708">
        <ele>460</ele>
        <time>2022-03-04T16:58:38Z</time>
      </trkpt>
      <trkpt lat="46.59378" lon="5.67073">
        <ele>460</ele>
        <time>2022-03-04T16:58:39Z</time>
      </trkpt>
      <trkpt lat="46.59378" lon="5.67067">
        <ele>460</ele>
        <time>2022-03-04T16:58:40Z</time>
      </trkpt>
      <trkpt lat="46.59378" lon="5.67061">
        <ele>460</ele>
        <time>2022-03-04T16:58:41Z</time>
      </trkpt>
      <trkpt lat="46.59378" lon="5.67055">
        <ele>460.4</ele>
        <time>2022-03-04T16:58:42Z</time>
      </trkpt>
      <trkpt lat="46.59378" lon="5.67048">
        <ele>460.4</ele>
        <time>2022-03-04T16:58:43Z</time>
      </trkpt>
      <trkpt lat="46.59377" lon="5.67042">
        <ele>460.6</ele>
        <time>2022-03-04T16:58:44Z</time>
      </trkpt>
      <trkpt lat="46.59377" lon="5.67036">
        <ele>460.6</ele>
        <time>2022-03-04T16:58:45Z</time>
      </trkpt>
      <trkpt lat="46.59377" lon="5.67031">
        <ele>461</ele>
        <time>2022-03-04T16:58:46Z</time>
      </trkpt>
      <trkpt lat="46.59377" lon="5.67025">
        <ele>461</ele>
        <time>2022-03-04T16:58:47Z</time>
      </trkpt>
      <trkpt lat="46.59377" lon="5.6702">
        <ele>461.2</ele>
        <time>2022-03-04T16:58:48Z</time>
      </trkpt>
      <trkpt lat="46.59377" lon="5.67014">
        <ele>461.2</ele>
        <time>2022-03-04T16:58:49Z</time>
      </trkpt>
      <trkpt lat="46.59376" lon="5.67009">
        <ele>461.6</ele>
        <time>2022-03-04T16:58:50Z</time>
      </trkpt>
      <trkpt lat="46.59376" lon="5.67003">
        <ele>461.6</ele>
        <time>2022-03-04T16:58:51Z</time>
      </trkpt>
      <trkpt lat="46.59377" lon="5.66998">
        <ele>462</ele>
        <time>2022-03-04T16:58:52Z</time>
      </trkpt>
      <trkpt lat="46.59376" lon="5.66993">
        <ele>462</ele>
        <time>2022-03-04T16:58:53Z</time>
      </trkpt>
      <trkpt lat="46.59376" lon="5.66988">
        <ele>462.2</ele>
        <time>2022-03-04T16:58:54Z</time>
      </trkpt>
      <trkpt lat="46.59376" lon="5.66982">
        <ele>462.2</ele>
        <time>2022-03-04T16:58:55Z</time>
      </trkpt>
      <trkpt lat="46.59376" lon="5.66977">
        <ele>462.4</ele>
        <time>2022-03-04T16:58:56Z</time>
      </trkpt>
      <trkpt lat="46.59376" lon="5.66971">
        <ele>462.4</ele>
        <time>2022-03-04T16:58:57Z</time>
      </trkpt>
      <trkpt lat="46.59377" lon="5.66966">
        <ele>462.4</ele>
        <time>2022-03-04T16:58:58Z</time>
      </trkpt>
      <trkpt lat="46.59377" lon="5.66961">
        <ele>462.6</ele>
        <time>2022-03-04T16:58:59Z</time>
      </trkpt>
      <trkpt lat="46.59377" lon="5.66956">
        <ele>462.6</ele>
        <time>2022-03-04T16:59:00Z</time>
      </trkpt>
      <trkpt lat="46.59377" lon="5.66951">
        <ele>462.8</ele>
        <time>2022-03-04T16:59:01Z</time>
      </trkpt>
      <trkpt lat="46.59378" lon="5.66946">
        <ele>462.8</ele>
        <time>2022-03-04T16:59:02Z</time>
      </trkpt>
      <trkpt lat="46.59379" lon="5.66941">
        <ele>462.8</ele>
        <time>2022-03-04T16:59:03Z</time>
      </trkpt>
      <trkpt lat="46.59379" lon="5.66935">
        <ele>463.2</ele>
        <time>2022-03-04T16:59:04Z</time>
      </trkpt>
      <trkpt lat="46.5938" lon="5.66929">
        <ele>463.2</ele>
        <time>2022-03-04T16:59:05Z</time>
      </trkpt>
      <trkpt lat="46.59381" lon="5.66924">
        <ele>463.4</ele>
        <time>2022-03-04T16:59:06Z</time>
      </trkpt>
      <trkpt lat="46.59382" lon="5.66918">
        <ele>463.4</ele>
        <time>2022-03-04T16:59:07Z</time>
      </trkpt>
      <trkpt lat="46.59384" lon="5.66913">
        <ele>463.4</ele>
        <time>2022-03-04T16:59:08Z</time>
      </trkpt>
      <trkpt lat="46.59385" lon="5.66907">
        <ele>463.6</ele>
        <time>2022-03-04T16:59:09Z</time>
      </trkpt>
      <trkpt lat="46.59386" lon="5.66903">
        <ele>463.6</ele>
        <time>2022-03-04T16:59:10Z</time>
      </trkpt>
      <trkpt lat="46.59388" lon="5.66898">
        <ele>464</ele>
        <time>2022-03-04T16:59:11Z</time>
      </trkpt>
      <trkpt lat="46.59389" lon="5.66893">
        <ele>464</ele>
        <time>2022-03-04T16:59:12Z</time>
      </trkpt>
      <trkpt lat="46.59391" lon="5.66889">
        <ele>464.2</ele>
        <time>2022-03-04T16:59:13Z</time>
      </trkpt>
      <trkpt lat="46.59393" lon="5.66884">
        <ele>464.2</ele>
        <time>2022-03-04T16:59:14Z</time>
      </trkpt>
      <trkpt lat="46.59394" lon="5.6688">
        <ele>464.6</ele>
        <time>2022-03-04T16:59:15Z</time>
      </trkpt>
      <trkpt lat="46.59396" lon="5.66876">
        <ele>464.6</ele>
        <time>2022-03-04T16:59:16Z</time>
      </trkpt>
      <trkpt lat="46.59398" lon="5.66872">
        <ele>464.8</ele>
        <time>2022-03-04T16:59:17Z</time>
      </trkpt>
      <trkpt lat="46.594" lon="5.66868">
        <ele>464.8</ele>
        <time>2022-03-04T16:59:18Z</time>
      </trkpt>
      <trkpt lat="46.59402" lon="5.66864">
        <ele>465</ele>
        <time>2022-03-04T16:59:19Z</time>
      </trkpt>
      <trkpt lat="46.59405" lon="5.6686">
        <ele>465</ele>
        <time>2022-03-04T16:59:20Z</time>
      </trkpt>
      <trkpt lat="46.59407" lon="5.66856">
        <ele>465</ele>
        <time>2022-03-04T16:59:21Z</time>
      </trkpt>
      <trkpt lat="46.59409" lon="5.66852">
        <ele>465.2</ele>
        <time>2022-03-04T16:59:22Z</time>
      </trkpt>
      <trkpt lat="46.59411" lon="5.66849">
        <ele>465.2</ele>
        <time>2022-03-04T16:59:23Z</time>
      </trkpt>
      <trkpt lat="46.59413" lon="5.66845">
        <ele>465.6</ele>
        <time>2022-03-04T16:59:24Z</time>
      </trkpt>
      <trkpt lat="46.59415" lon="5.66842">
        <ele>465.6</ele>
        <time>2022-03-04T16:59:25Z</time>
      </trkpt>
      <trkpt lat="46.59418" lon="5.66838">
        <ele>465.8</ele>
        <time>2022-03-04T16:59:26Z</time>
      </trkpt>
      <trkpt lat="46.5942" lon="5.66835">
        <ele>465.8</ele>
        <time>2022-03-04T16:59:27Z</time>
      </trkpt>
      <trkpt lat="46.59422" lon="5.66831">
        <ele>466</ele>
        <time>2022-03-04T16:59:28Z</time>
      </trkpt>
      <trkpt lat="46.59424" lon="5.66828">
        <ele>466</ele>
        <time>2022-03-04T16:59:29Z</time>
      </trkpt>
      <trkpt lat="46.59426" lon="5.66824">
        <ele>466.4</ele>
        <time>2022-03-04T16:59:30Z</time>
      </trkpt>
      <trkpt lat="46.59428" lon="5.66821">
        <ele>466.4</ele>
        <time>2022-03-04T16:59:31Z</time>
      </trkpt>
      <trkpt lat="46.5943" lon="5.66817">
        <ele>466.8</ele>
        <time>2022-03-04T16:59:32Z</time>
      </trkpt>
      <trkpt lat="46.59432" lon="5.66814">
        <ele>467</ele>
        <time>2022-03-04T16:59:33Z</time>
      </trkpt>
      <trkpt lat="46.59435" lon="5.66811">
        <ele>467</ele>
        <time>2022-03-04T16:59:34Z</time>
      </trkpt>
      <trkpt lat="46.59437" lon="5.66808">
        <ele>467.2</ele>
        <time>2022-03-04T16:59:35Z</time>
      </trkpt>
      <trkpt lat="46.59439" lon="5.66804">
        <ele>467.2</ele>
        <time>2022-03-04T16:59:36Z</time>
      </trkpt>
      <trkpt lat="46.59441" lon="5.66801">
        <ele>467.4</ele>
        <time>2022-03-04T16:59:37Z</time>
      </trkpt>
      <trkpt lat="46.59443" lon="5.66798">
        <ele>467.4</ele>
        <time>2022-03-04T16:59:38Z</time>
      </trkpt>
      <trkpt lat="46.59445" lon="5.66795">
        <ele>467.6</ele>
        <time>2022-03-04T16:59:39Z</time>
      </trkpt>
      <trkpt lat="46.59447" lon="5.66792">
        <ele>467.6</ele>
        <time>2022-03-04T16:59:40Z</time>
      </trkpt>
      <trkpt lat="46.59449" lon="5.66789">
        <ele>467.8</ele>
        <time>2022-03-04T16:59:41Z</time>
      </trkpt>
      <trkpt lat="46.59451" lon="5.66787">
        <ele>468</ele>
        <time>2022-03-04T16:59:42Z</time>
      </trkpt>
      <trkpt lat="46.59453" lon="5.66784">
        <ele>468</ele>
        <time>2022-03-04T16:59:43Z</time>
      </trkpt>
      <trkpt lat="46.59455" lon="5.66782">
        <ele>468.4</ele>
        <time>2022-03-04T16:59:44Z</time>
      </trkpt>
      <trkpt lat="46.59457" lon="5.6678">
        <ele>468.4</ele>
        <time>2022-03-04T16:59:45Z</time>
      </trkpt>
      <trkpt lat="46.59459" lon="5.66777">
        <ele>468.6</ele>
        <time>2022-03-04T16:59:46Z</time>
      </trkpt>
      <trkpt lat="46.59461" lon="5.66775">
        <ele>468.6</ele>
        <time>2022-03-04T16:59:47Z</time>
      </trkpt>
      <trkpt lat="46.59463" lon="5.66773">
        <ele>469</ele>
        <time>2022-03-04T16:59:48Z</time>
      </trkpt>
      <trkpt lat="46.59466" lon="5.6677">
        <ele>469</ele>
        <time>2022-03-04T16:59:49Z</time>
      </trkpt>
      <trkpt lat="46.59468" lon="5.66768">
        <ele>469</ele>
        <time>2022-03-04T16:59:50Z</time>
      </trkpt>
      <trkpt lat="46.5947" lon="5.66766">
        <ele>469.2</ele>
        <time>2022-03-04T16:59:51Z</time>
      </trkpt>
      <trkpt lat="46.59473" lon="5.66764">
        <ele>469.2</ele>
        <time>2022-03-04T16:59:52Z</time>
      </trkpt>
      <trkpt lat="46.59475" lon="5.66761">
        <ele>469.6</ele>
        <time>2022-03-04T16:59:53Z</time>
      </trkpt>
      <trkpt lat="46.59477" lon="5.66759">
        <ele>469.6</ele>
        <time>2022-03-04T16:59:54Z</time>
      </trkpt>
      <trkpt lat="46.59479" lon="5.66756">
        <ele>469.8</ele>
        <time>2022-03-04T16:59:55Z</time>
      </trkpt>
      <trkpt lat="46.59481" lon="5.66754">
        <ele>469.8</ele>
        <time>2022-03-04T16:59:56Z</time>
      </trkpt>
      <trkpt lat="46.59484" lon="5.66752">
        <ele>470.2</ele>
        <time>2022-03-04T16:59:57Z</time>
      </trkpt>
      <trkpt lat="46.59487" lon="5.6675">
        <ele>470.2</ele>
        <time>2022-03-04T16:59:58Z</time>
      </trkpt>
      <trkpt lat="46.59489" lon="5.66748">
        <ele>470.4</ele>
        <time>2022-03-04T16:59:59Z</time>
      </trkpt>
      <trkpt lat="46.59492" lon="5.66746">
        <ele>470.4</ele>
        <time>2022-03-04T17:00:00Z</time>
      </trkpt>
      <trkpt lat="46.59495" lon="5.66745">
        <ele>470.4</ele>
        <time>2022-03-04T17:00:01Z</time>
      </trkpt>
      <trkpt lat="46.59497" lon="5.66743">
        <ele>470.6</ele>
        <time>2022-03-04T17:00:02Z</time>
      </trkpt>
      <trkpt lat="46.59499" lon="5.66742">
        <ele>470.6</ele>
        <time>2022-03-04T17:00:03Z</time>
      </trkpt>
      <trkpt lat="46.59501" lon="5.6674">
        <ele>470.8</ele>
        <time>2022-03-04T17:00:04Z</time>
      </trkpt>
      <trkpt lat="46.59503" lon="5.66739">
        <ele>470.8</ele>
        <time>2022-03-04T17:00:05Z</time>
      </trkpt>
      <trkpt lat="46.59505" lon="5.66738">
        <ele>471.2</ele>
        <time>2022-03-04T17:00:06Z</time>
      </trkpt>
      <trkpt lat="46.59507" lon="5.66736">
        <ele>471.2</ele>
        <time>2022-03-04T17:00:07Z</time>
      </trkpt>
      <trkpt lat="46.5951" lon="5.66735">
        <ele>471.4</ele>
        <time>2022-03-04T17:00:08Z</time>
      </trkpt>
      <trkpt lat="46.59512" lon="5.66734">
        <ele>471.4</ele>
        <time>2022-03-04T17:00:09Z</time>
      </trkpt>
      <trkpt lat="46.59514" lon="5.66732">
        <ele>471.4</ele>
        <time>2022-03-04T17:00:10Z</time>
      </trkpt>
      <trkpt lat="46.59517" lon="5.66731">
        <ele>471.8</ele>
        <time>2022-03-04T17:00:11Z</time>
      </trkpt>
      <trkpt lat="46.59519" lon="5.66729">
        <ele>471.8</ele>
        <time>2022-03-04T17:00:12Z</time>
      </trkpt>
      <trkpt lat="46.59521" lon="5.66728">
        <ele>472</ele>
        <time>2022-03-04T17:00:13Z</time>
      </trkpt>
      <trkpt lat="46.59523" lon="5.66726">
        <ele>472</ele>
        <time>2022-03-04T17:00:14Z</time>
      </trkpt>
      <trkpt lat="46.59525" lon="5.66725">
        <ele>472.2</ele>
        <time>2022-03-04T17:00:15Z</time>
      </trkpt>
      <trkpt lat="46.59527" lon="5.66723">
        <ele>472.2</ele>
        <time>2022-03-04T17:00:16Z</time>
      </trkpt>
      <trkpt lat="46.59529" lon="5.66722">
        <ele>472.6</ele>
        <time>2022-03-04T17:00:17Z</time>
      </trkpt>
      <trkpt lat="46.59531" lon="5.66721">
        <ele>472.6</ele>
        <time>2022-03-04T17:00:18Z</time>
      </trkpt>
      <trkpt lat="46.59533" lon="5.66719">
        <ele>472.8</ele>
        <time>2022-03-04T17:00:19Z</time>
      </trkpt>
      <trkpt lat="46.59535" lon="5.66718">
        <ele>472.8</ele>
        <time>2022-03-04T17:00:20Z</time>
      </trkpt>
      <trkpt lat="46.59537" lon="5.66716">
        <ele>473.2</ele>
        <time>2022-03-04T17:00:21Z</time>
      </trkpt>
      <trkpt lat="46.59539" lon="5.66715">
        <ele>473.4</ele>
        <time>2022-03-04T17:00:22Z</time>
      </trkpt>
      <trkpt lat="46.59541" lon="5.66714">
        <ele>473.4</ele>
        <time>2022-03-04T17:00:23Z</time>
      </trkpt>
      <trkpt lat="46.59543" lon="5.66713">
        <ele>473.8</ele>
        <time>2022-03-04T17:00:24Z</time>
      </trkpt>
      <trkpt lat="46.59545" lon="5.66712">
        <ele>473.8</ele>
        <time>2022-03-04T17:00:25Z</time>
      </trkpt>
      <trkpt lat="46.59546" lon="5.66711">
        <ele>474</ele>
        <time>2022-03-04T17:00:26Z</time>
      </trkpt>
      <trkpt lat="46.59548" lon="5.66709">
        <ele>474</ele>
        <time>2022-03-04T17:00:27Z</time>
      </trkpt>
      <trkpt lat="46.59551" lon="5.66708">
        <ele>474.2</ele>
        <time>2022-03-04T17:00:28Z</time>
      </trkpt>
      <trkpt lat="46.59553" lon="5.66707">
        <ele>474.2</ele>
        <time>2022-03-04T17:00:29Z</time>
      </trkpt>
      <trkpt lat="46.59555" lon="5.66706">
        <ele>474.4</ele>
        <time>2022-03-04T17:00:30Z</time>
      </trkpt>
      <trkpt lat="46.59557" lon="5.66704">
        <ele>474.4</ele>
        <time>2022-03-04T17:00:31Z</time>
      </trkpt>
      <trkpt lat="46.59559" lon="5.66703">
        <ele>474.8</ele>
        <time>2022-03-04T17:00:32Z</time>
      </trkpt>
      <trkpt lat="46.59561" lon="5.66702">
        <ele>474.8</ele>
        <time>2022-03-04T17:00:33Z</time>
      </trkpt>
      <trkpt lat="46.59564" lon="5.66701">
        <ele>474.8</ele>
        <time>2022-03-04T17:00:34Z</time>
      </trkpt>
      <trkpt lat="46.59566" lon="5.667">
        <ele>474.8</ele>
        <time>2022-03-04T17:00:35Z</time>
      </trkpt>
      <trkpt lat="46.59568" lon="5.66699">
        <ele>475</ele>
        <time>2022-03-04T17:00:36Z</time>
      </trkpt>
      <trkpt lat="46.5957" lon="5.66697">
        <ele>475</ele>
        <time>2022-03-04T17:00:37Z</time>
      </trkpt>
      <trkpt lat="46.59572" lon="5.66696">
        <ele>475.4</ele>
        <time>2022-03-04T17:00:38Z</time>
      </trkpt>
      <trkpt lat="46.59574" lon="5.66694">
        <ele>475.4</ele>
        <time>2022-03-04T17:00:39Z</time>
      </trkpt>
      <trkpt lat="46.59576" lon="5.66692">
        <ele>475.6</ele>
        <time>2022-03-04T17:00:40Z</time>
      </trkpt>
      <trkpt lat="46.59579" lon="5.66691">
        <ele>475.6</ele>
        <time>2022-03-04T17:00:41Z</time>
      </trkpt>
      <trkpt lat="46.59581" lon="5.66689">
        <ele>475.8</ele>
        <time>2022-03-04T17:00:42Z</time>
      </trkpt>
      <trkpt lat="46.59583" lon="5.66688">
        <ele>475.8</ele>
        <time>2022-03-04T17:00:43Z</time>
      </trkpt>
      <trkpt lat="46.59585" lon="5.66686">
        <ele>475.8</ele>
        <time>2022-03-04T17:00:44Z</time>
      </trkpt>
      <trkpt lat="46.59587" lon="5.66685">
        <ele>475.8</ele>
        <time>2022-03-04T17:00:45Z</time>
      </trkpt>
      <trkpt lat="46.5959" lon="5.66684">
        <ele>476.2</ele>
        <time>2022-03-04T17:00:46Z</time>
      </trkpt>
      <trkpt lat="46.59592" lon="5.66683">
        <ele>476.2</ele>
        <time>2022-03-04T17:00:47Z</time>
      </trkpt>
      <trkpt lat="46.59594" lon="5.66682">
        <ele>476.6</ele>
        <time>2022-03-04T17:00:48Z</time>
      </trkpt>
      <trkpt lat="46.59597" lon="5.66681">
        <ele>476.6</ele>
        <time>2022-03-04T17:00:49Z</time>
      </trkpt>
      <trkpt lat="46.59599" lon="5.6668">
        <ele>476.8</ele>
        <time>2022-03-04T17:00:50Z</time>
      </trkpt>
      <trkpt lat="46.59601" lon="5.66679">
        <ele>476.8</ele>
        <time>2022-03-04T17:00:51Z</time>
      </trkpt>
      <trkpt lat="46.59603" lon="5.66677">
        <ele>476.8</ele>
        <time>2022-03-04T17:00:52Z</time>
      </trkpt>
      <trkpt lat="46.59605" lon="5.66676">
        <ele>477</ele>
        <time>2022-03-04T17:00:53Z</time>
      </trkpt>
      <trkpt lat="46.59608" lon="5.66675">
        <ele>477</ele>
        <time>2022-03-04T17:00:54Z</time>
      </trkpt>
      <trkpt lat="46.5961" lon="5.66674">
        <ele>477.4</ele>
        <time>2022-03-04T17:00:55Z</time>
      </trkpt>
      <trkpt lat="46.59612" lon="5.66673">
        <ele>477.4</ele>
        <time>2022-03-04T17:00:56Z</time>
      </trkpt>
      <trkpt lat="46.59614" lon="5.66671">
        <ele>477.8</ele>
        <time>2022-03-04T17:00:57Z</time>
      </trkpt>
      <trkpt lat="46.59616" lon="5.6667">
        <ele>477.8</ele>
        <time>2022-03-04T17:00:58Z</time>
      </trkpt>
      <trkpt lat="46.59618" lon="5.66669">
        <ele>478</ele>
        <time>2022-03-04T17:00:59Z</time>
      </trkpt>
      <trkpt lat="46.59621" lon="5.66667">
        <ele>478</ele>
        <time>2022-03-04T17:01:00Z</time>
      </trkpt>
      <trkpt lat="46.59625" lon="5.66665">
        <ele>478.2</ele>
        <time>2022-03-04T17:01:01Z</time>
      </trkpt>
      <trkpt lat="46.59628" lon="5.66663">
        <ele>478.2</ele>
        <time>2022-03-04T17:01:02Z</time>
      </trkpt>
      <trkpt lat="46.5963" lon="5.66662">
        <ele>478.4</ele>
        <time>2022-03-04T17:01:03Z</time>
      </trkpt>
      <trkpt lat="46.59632" lon="5.66661">
        <ele>478.4</ele>
        <time>2022-03-04T17:01:04Z</time>
      </trkpt>
      <trkpt lat="46.59634" lon="5.66659">
        <ele>478.4</ele>
        <time>2022-03-04T17:01:05Z</time>
      </trkpt>
      <trkpt lat="46.59636" lon="5.66658">
        <ele>478.8</ele>
        <time>2022-03-04T17:01:06Z</time>
      </trkpt>
      <trkpt lat="46.59638" lon="5.66656">
        <ele>478.8</ele>
        <time>2022-03-04T17:01:07Z</time>
      </trkpt>
      <trkpt lat="46.5964" lon="5.66654">
        <ele>478.8</ele>
        <time>2022-03-04T17:01:08Z</time>
      </trkpt>
      <trkpt lat="46.59643" lon="5.66653">
        <ele>479</ele>
        <time>2022-03-04T17:01:09Z</time>
      </trkpt>
      <trkpt lat="46.59645" lon="5.66651">
        <ele>479</ele>
        <time>2022-03-04T17:01:10Z</time>
      </trkpt>
      <trkpt lat="46.59647" lon="5.6665">
        <ele>479</ele>
        <time>2022-03-04T17:01:11Z</time>
      </trkpt>
      <trkpt lat="46.59649" lon="5.66649">
        <ele>479.2</ele>
        <time>2022-03-04T17:01:12Z</time>
      </trkpt>
      <trkpt lat="46.59652" lon="5.66647">
        <ele>479.2</ele>
        <time>2022-03-04T17:01:13Z</time>
      </trkpt>
      <trkpt lat="46.59654" lon="5.66646">
        <ele>479.2</ele>
        <time>2022-03-04T17:01:14Z</time>
      </trkpt>
      <trkpt lat="46.59656" lon="5.66644">
        <ele>479.4</ele>
        <time>2022-03-04T17:01:15Z</time>
      </trkpt>
      <trkpt lat="46.59658" lon="5.66642">
        <ele>479.4</ele>
        <time>2022-03-04T17:01:16Z</time>
      </trkpt>
      <trkpt lat="46.59661" lon="5.66641">
        <ele>479.6</ele>
        <time>2022-03-04T17:01:17Z</time>
      </trkpt>
      <trkpt lat="46.59663" lon="5.66639">
        <ele>479.6</ele>
        <time>2022-03-04T17:01:18Z</time>
      </trkpt>
      <trkpt lat="46.59665" lon="5.66638">
        <ele>479.6</ele>
        <time>2022-03-04T17:01:19Z</time>
      </trkpt>
      <trkpt lat="46.59667" lon="5.66637">
        <ele>479.6</ele>
        <time>2022-03-04T17:01:20Z</time>
      </trkpt>
      <trkpt lat="46.59669" lon="5.66636">
        <ele>479.6</ele>
        <time>2022-03-04T17:01:21Z</time>
      </trkpt>
      <trkpt lat="46.59672" lon="5.66635">
        <ele>480</ele>
        <time>2022-03-04T17:01:22Z</time>
      </trkpt>
      <trkpt lat="46.59674" lon="5.66634">
        <ele>480</ele>
        <time>2022-03-04T17:01:23Z</time>
      </trkpt>
      <trkpt lat="46.59676" lon="5.66633">
        <ele>480</ele>
        <time>2022-03-04T17:01:24Z</time>
      </trkpt>
      <trkpt lat="46.59678" lon="5.66631">
        <ele>480.2</ele>
        <time>2022-03-04T17:01:25Z</time>
      </trkpt>
      <trkpt lat="46.5968" lon="5.6663">
        <ele>480.2</ele>
        <time>2022-03-04T17:01:26Z</time>
      </trkpt>
      <trkpt lat="46.59682" lon="5.66628">
        <ele>480.4</ele>
        <time>2022-03-04T17:01:27Z</time>
      </trkpt>
      <trkpt lat="46.59685" lon="5.66627">
        <ele>480.4</ele>
        <time>2022-03-04T17:01:28Z</time>
      </trkpt>
      <trkpt lat="46.59687" lon="5.66626">
        <ele>480.4</ele>
        <time>2022-03-04T17:01:29Z</time>
      </trkpt>
      <trkpt lat="46.5969" lon="5.66625">
        <ele>480.6</ele>
        <time>2022-03-04T17:01:30Z</time>
      </trkpt>
      <trkpt lat="46.59692" lon="5.66623">
        <ele>480.6</ele>
        <time>2022-03-04T17:01:31Z</time>
      </trkpt>
      <trkpt lat="46.59694" lon="5.66621">
        <ele>480.6</ele>
        <time>2022-03-04T17:01:32Z</time>
      </trkpt>
      <trkpt lat="46.59697" lon="5.6662">
        <ele>480.8</ele>
        <time>2022-03-04T17:01:33Z</time>
      </trkpt>
      <trkpt lat="46.59699" lon="5.66618">
        <ele>480.8</ele>
        <time>2022-03-04T17:01:34Z</time>
      </trkpt>
      <trkpt lat="46.59701" lon="5.66616">
        <ele>480.8</ele>
        <time>2022-03-04T17:01:35Z</time>
      </trkpt>
      <trkpt lat="46.59704" lon="5.66615">
        <ele>481</ele>
        <time>2022-03-04T17:01:36Z</time>
      </trkpt>
      <trkpt lat="46.59706" lon="5.66613">
        <ele>481.2</ele>
        <time>2022-03-04T17:01:37Z</time>
      </trkpt>
      <trkpt lat="46.59709" lon="5.66612">
        <ele>481.2</ele>
        <time>2022-03-04T17:01:38Z</time>
      </trkpt>
      <trkpt lat="46.59711" lon="5.66611">
        <ele>481.2</ele>
        <time>2022-03-04T17:01:39Z</time>
      </trkpt>
      <trkpt lat="46.59714" lon="5.66609">
        <ele>481.4</ele>
        <time>2022-03-04T17:01:40Z</time>
      </trkpt>
      <trkpt lat="46.59716" lon="5.66608">
        <ele>481.4</ele>
        <time>2022-03-04T17:01:41Z</time>
      </trkpt>
      <trkpt lat="46.59719" lon="5.66606">
        <ele>481.4</ele>
        <time>2022-03-04T17:01:42Z</time>
      </trkpt>
      <trkpt lat="46.59721" lon="5.66604">
        <ele>481.8</ele>
        <time>2022-03-04T17:01:43Z</time>
      </trkpt>
      <trkpt lat="46.59723" lon="5.66602">
        <ele>481.8</ele>
        <time>2022-03-04T17:01:44Z</time>
      </trkpt>
      <trkpt lat="46.59725" lon="5.666">
        <ele>482</ele>
        <time>2022-03-04T17:01:45Z</time>
      </trkpt>
      <trkpt lat="46.59728" lon="5.66599">
        <ele>482</ele>
        <time>2022-03-04T17:01:46Z</time>
      </trkpt>
      <trkpt lat="46.5973" lon="5.66597">
        <ele>482</ele>
        <time>2022-03-04T17:01:47Z</time>
      </trkpt>
      <trkpt lat="46.59733" lon="5.66595">
        <ele>482</ele>
        <time>2022-03-04T17:01:48Z</time>
      </trkpt>
      <trkpt lat="46.59735" lon="5.66593">
        <ele>482.2</ele>
        <time>2022-03-04T17:01:49Z</time>
      </trkpt>
      <trkpt lat="46.59737" lon="5.66591">
        <ele>482.6</ele>
        <time>2022-03-04T17:01:50Z</time>
      </trkpt>
      <trkpt lat="46.59739" lon="5.66589">
        <ele>482.6</ele>
        <time>2022-03-04T17:01:51Z</time>
      </trkpt>
      <trkpt lat="46.59742" lon="5.66587">
        <ele>482.8</ele>
        <time>2022-03-04T17:01:52Z</time>
      </trkpt>
      <trkpt lat="46.59744" lon="5.66585">
        <ele>482.8</ele>
        <time>2022-03-04T17:01:53Z</time>
      </trkpt>
      <trkpt lat="46.59747" lon="5.66584">
        <ele>482.8</ele>
        <time>2022-03-04T17:01:54Z</time>
      </trkpt>
      <trkpt lat="46.59749" lon="5.66582">
        <ele>483</ele>
        <time>2022-03-04T17:01:55Z</time>
      </trkpt>
      <trkpt lat="46.59751" lon="5.66581">
        <ele>483</ele>
        <time>2022-03-04T17:01:56Z</time>
      </trkpt>
      <trkpt lat="46.59753" lon="5.66579">
        <ele>483</ele>
        <time>2022-03-04T17:01:57Z</time>
      </trkpt>
      <trkpt lat="46.59755" lon="5.66577">
        <ele>483.4</ele>
        <time>2022-03-04T17:01:58Z</time>
      </trkpt>
      <trkpt lat="46.59757" lon="5.66576">
        <ele>483.4</ele>
        <time>2022-03-04T17:01:59Z</time>
      </trkpt>
      <trkpt lat="46.5976" lon="5.66574">
        <ele>483.6</ele>
        <time>2022-03-04T17:02:00Z</time>
      </trkpt>
      <trkpt lat="46.59762" lon="5.66572">
        <ele>483.6</ele>
        <time>2022-03-04T17:02:01Z</time>
      </trkpt>
      <trkpt lat="46.59763" lon="5.6657">
        <ele>483.8</ele>
        <time>2022-03-04T17:02:02Z</time>
      </trkpt>
      <trkpt lat="46.59765" lon="5.66568">
        <ele>483.8</ele>
        <time>2022-03-04T17:02:03Z</time>
      </trkpt>
      <trkpt lat="46.59768" lon="5.66567">
        <ele>483.8</ele>
        <time>2022-03-04T17:02:04Z</time>
      </trkpt>
      <trkpt lat="46.5977" lon="5.66565">
        <ele>484.2</ele>
        <time>2022-03-04T17:02:05Z</time>
      </trkpt>
      <trkpt lat="46.59771" lon="5.66563">
        <ele>484.2</ele>
        <time>2022-03-04T17:02:06Z</time>
      </trkpt>
      <trkpt lat="46.59773" lon="5.66561">
        <ele>484.4</ele>
        <time>2022-03-04T17:02:07Z</time>
      </trkpt>
      <trkpt lat="46.59775" lon="5.66559">
        <ele>484.4</ele>
        <time>2022-03-04T17:02:08Z</time>
      </trkpt>
      <trkpt lat="46.59777" lon="5.66557">
        <ele>484.4</ele>
        <time>2022-03-04T17:02:09Z</time>
      </trkpt>
      <trkpt lat="46.59779" lon="5.66555">
        <ele>484.6</ele>
        <time>2022-03-04T17:02:10Z</time>
      </trkpt>
      <trkpt lat="46.5978" lon="5.66552">
        <ele>484.6</ele>
        <time>2022-03-04T17:02:11Z</time>
      </trkpt>
      <trkpt lat="46.59782" lon="5.6655">
        <ele>484.8</ele>
        <time>2022-03-04T17:02:12Z</time>
      </trkpt>
      <trkpt lat="46.59784" lon="5.66548">
        <ele>484.8</ele>
        <time>2022-03-04T17:02:13Z</time>
      </trkpt>
      <trkpt lat="46.59785" lon="5.66547">
        <ele>485</ele>
        <time>2022-03-04T17:02:14Z</time>
      </trkpt>
      <trkpt lat="46.59787" lon="5.66545">
        <ele>485</ele>
        <time>2022-03-04T17:02:15Z</time>
      </trkpt>
      <trkpt lat="46.59789" lon="5.66543">
        <ele>485.4</ele>
        <time>2022-03-04T17:02:16Z</time>
      </trkpt>
      <trkpt lat="46.5979" lon="5.66541">
        <ele>485.4</ele>
        <time>2022-03-04T17:02:17Z</time>
      </trkpt>
      <trkpt lat="46.59792" lon="5.66539">
        <ele>485.6</ele>
        <time>2022-03-04T17:02:18Z</time>
      </trkpt>
      <trkpt lat="46.59793" lon="5.66537">
        <ele>485.6</ele>
        <time>2022-03-04T17:02:19Z</time>
      </trkpt>
      <trkpt lat="46.59795" lon="5.66535">
        <ele>485.6</ele>
        <time>2022-03-04T17:02:20Z</time>
      </trkpt>
      <trkpt lat="46.59797" lon="5.66532">
        <ele>485.8</ele>
        <time>2022-03-04T17:02:21Z</time>
      </trkpt>
      <trkpt lat="46.59799" lon="5.6653">
        <ele>485.8</ele>
        <time>2022-03-04T17:02:22Z</time>
      </trkpt>
      <trkpt lat="46.598" lon="5.66528">
        <ele>486.2</ele>
        <time>2022-03-04T17:02:23Z</time>
      </trkpt>
      <trkpt lat="46.598" lon="5.66528">
        <ele>486.2</ele>
        <time>2022-03-04T17:02:24Z</time>
      </trkpt>
      <trkpt lat="46.59802" lon="5.66526">
        <ele>486.2</ele>
        <time>2022-03-04T17:02:25Z</time>
      </trkpt>
      <trkpt lat="46.59804" lon="5.66523">
        <ele>486.4</ele>
        <time>2022-03-04T17:02:26Z</time>
      </trkpt>
      <trkpt lat="46.59805" lon="5.66521">
        <ele>486.4</ele>
        <time>2022-03-04T17:02:27Z</time>
      </trkpt>
      <trkpt lat="46.59807" lon="5.66518">
        <ele>486.4</ele>
        <time>2022-03-04T17:02:28Z</time>
      </trkpt>
      <trkpt lat="46.59808" lon="5.66515">
        <ele>486.6</ele>
        <time>2022-03-04T17:02:29Z</time>
      </trkpt>
      <trkpt lat="46.5981" lon="5.66512">
        <ele>486.6</ele>
        <time>2022-03-04T17:02:30Z</time>
      </trkpt>
      <trkpt lat="46.59811" lon="5.6651">
        <ele>486.8</ele>
        <time>2022-03-04T17:02:31Z</time>
      </trkpt>
      <trkpt lat="46.59813" lon="5.66508">
        <ele>486.8</ele>
        <time>2022-03-04T17:02:32Z</time>
      </trkpt>
      <trkpt lat="46.59814" lon="5.66506">
        <ele>487.2</ele>
        <time>2022-03-04T17:02:33Z</time>
      </trkpt>
      <trkpt lat="46.59816" lon="5.66504">
        <ele>487.2</ele>
        <time>2022-03-04T17:02:34Z</time>
      </trkpt>
      <trkpt lat="46.59817" lon="5.66502">
        <ele>487.4</ele>
        <time>2022-03-04T17:02:35Z</time>
      </trkpt>
      <trkpt lat="46.59818" lon="5.665">
        <ele>487.4</ele>
        <time>2022-03-04T17:02:36Z</time>
      </trkpt>
      <trkpt lat="46.5982" lon="5.66497">
        <ele>487.6</ele>
        <time>2022-03-04T17:02:37Z</time>
      </trkpt>
      <trkpt lat="46.59821" lon="5.66495">
        <ele>487.6</ele>
        <time>2022-03-04T17:02:38Z</time>
      </trkpt>
      <trkpt lat="46.59822" lon="5.66492">
        <ele>487.6</ele>
        <time>2022-03-04T17:02:39Z</time>
      </trkpt>
      <trkpt lat="46.59824" lon="5.66489">
        <ele>487.8</ele>
        <time>2022-03-04T17:02:40Z</time>
      </trkpt>
      <trkpt lat="46.59825" lon="5.66487">
        <ele>487.8</ele>
        <time>2022-03-04T17:02:41Z</time>
      </trkpt>
      <trkpt lat="46.59827" lon="5.66484">
        <ele>487.8</ele>
        <time>2022-03-04T17:02:42Z</time>
      </trkpt>
      <trkpt lat="46.59828" lon="5.66481">
        <ele>487.8</ele>
        <time>2022-03-04T17:02:43Z</time>
      </trkpt>
      <trkpt lat="46.5983" lon="5.66478">
        <ele>488</ele>
        <time>2022-03-04T17:02:44Z</time>
      </trkpt>
      <trkpt lat="46.59831" lon="5.66476">
        <ele>488</ele>
        <time>2022-03-04T17:02:45Z</time>
      </trkpt>
      <trkpt lat="46.59833" lon="5.66474">
        <ele>488.4</ele>
        <time>2022-03-04T17:02:46Z</time>
      </trkpt>
      <trkpt lat="46.59834" lon="5.66471">
        <ele>488.4</ele>
        <time>2022-03-04T17:02:47Z</time>
      </trkpt>
      <trkpt lat="46.59836" lon="5.66468">
        <ele>488.6</ele>
        <time>2022-03-04T17:02:48Z</time>
      </trkpt>
      <trkpt lat="46.59838" lon="5.66465">
        <ele>489</ele>
        <time>2022-03-04T17:02:49Z</time>
      </trkpt>
      <trkpt lat="46.59839" lon="5.66463">
        <ele>489</ele>
        <time>2022-03-04T17:02:50Z</time>
      </trkpt>
      <trkpt lat="46.5984" lon="5.6646">
        <ele>489.2</ele>
        <time>2022-03-04T17:02:51Z</time>
      </trkpt>
      <trkpt lat="46.59841" lon="5.66457">
        <ele>489.2</ele>
        <time>2022-03-04T17:02:52Z</time>
      </trkpt>
      <trkpt lat="46.59843" lon="5.66454">
        <ele>489.4</ele>
        <time>2022-03-04T17:02:53Z</time>
      </trkpt>
      <trkpt lat="46.59844" lon="5.6645">
        <ele>489.4</ele>
        <time>2022-03-04T17:02:54Z</time>
      </trkpt>
      <trkpt lat="46.59846" lon="5.66447">
        <ele>489.8</ele>
        <time>2022-03-04T17:02:55Z</time>
      </trkpt>
      <trkpt lat="46.59847" lon="5.66444">
        <ele>489.8</ele>
        <time>2022-03-04T17:02:56Z</time>
      </trkpt>
      <trkpt lat="46.59849" lon="5.6644">
        <ele>490.2</ele>
        <time>2022-03-04T17:02:57Z</time>
      </trkpt>
      <trkpt lat="46.5985" lon="5.66437">
        <ele>490.2</ele>
        <time>2022-03-04T17:02:58Z</time>
      </trkpt>
      <trkpt lat="46.59851" lon="5.66434">
        <ele>490.6</ele>
        <time>2022-03-04T17:02:59Z</time>
      </trkpt>
      <trkpt lat="46.59853" lon="5.6643">
        <ele>490.6</ele>
        <time>2022-03-04T17:03:00Z</time>
      </trkpt>
      <trkpt lat="46.59854" lon="5.66427">
        <ele>490.8</ele>
        <time>2022-03-04T17:03:01Z</time>
      </trkpt>
      <trkpt lat="46.59855" lon="5.66423">
        <ele>490.8</ele>
        <time>2022-03-04T17:03:02Z</time>
      </trkpt>
      <trkpt lat="46.59857" lon="5.6642">
        <ele>491.2</ele>
        <time>2022-03-04T17:03:03Z</time>
      </trkpt>
      <trkpt lat="46.59858" lon="5.66417">
        <ele>491.2</ele>
        <time>2022-03-04T17:03:04Z</time>
      </trkpt>
      <trkpt lat="46.59859" lon="5.66413">
        <ele>491.4</ele>
        <time>2022-03-04T17:03:05Z</time>
      </trkpt>
      <trkpt lat="46.5986" lon="5.6641">
        <ele>491.4</ele>
        <time>2022-03-04T17:03:06Z</time>
      </trkpt>
      <trkpt lat="46.59862" lon="5.66406">
        <ele>491.6</ele>
        <time>2022-03-04T17:03:07Z</time>
      </trkpt>
      <trkpt lat="46.59863" lon="5.66403">
        <ele>491.6</ele>
        <time>2022-03-04T17:03:08Z</time>
      </trkpt>
      <trkpt lat="46.59864" lon="5.664">
        <ele>491.8</ele>
        <time>2022-03-04T17:03:09Z</time>
      </trkpt>
      <trkpt lat="46.59865" lon="5.66397">
        <ele>491.8</ele>
        <time>2022-03-04T17:03:10Z</time>
      </trkpt>
      <trkpt lat="46.59866" lon="5.66393">
        <ele>491.8</ele>
        <time>2022-03-04T17:03:11Z</time>
      </trkpt>
      <trkpt lat="46.59867" lon="5.66389">
        <ele>492</ele>
        <time>2022-03-04T17:03:12Z</time>
      </trkpt>
      <trkpt lat="46.59868" lon="5.66386">
        <ele>492</ele>
        <time>2022-03-04T17:03:13Z</time>
      </trkpt>
      <trkpt lat="46.59868" lon="5.66383">
        <ele>492</ele>
        <time>2022-03-04T17:03:14Z</time>
      </trkpt>
      <trkpt lat="46.59868" lon="5.66379">
        <ele>492.4</ele>
        <time>2022-03-04T17:03:15Z</time>
      </trkpt>
      <trkpt lat="46.59869" lon="5.66375">
        <ele>492.4</ele>
        <time>2022-03-04T17:03:16Z</time>
      </trkpt>
      <trkpt lat="46.5987" lon="5.66372">
        <ele>492.8</ele>
        <time>2022-03-04T17:03:17Z</time>
      </trkpt>
      <trkpt lat="46.5987" lon="5.66368">
        <ele>492.8</ele>
        <time>2022-03-04T17:03:18Z</time>
      </trkpt>
      <trkpt lat="46.5987" lon="5.66365">
        <ele>493</ele>
        <time>2022-03-04T17:03:19Z</time>
      </trkpt>
      <trkpt lat="46.59871" lon="5.66362">
        <ele>493</ele>
        <time>2022-03-04T17:03:20Z</time>
      </trkpt>
      <trkpt lat="46.59871" lon="5.66359">
        <ele>493.2</ele>
        <time>2022-03-04T17:03:21Z</time>
      </trkpt>
      <trkpt lat="46.59872" lon="5.66355">
        <ele>493.2</ele>
        <time>2022-03-04T17:03:22Z</time>
      </trkpt>
      <trkpt lat="46.59873" lon="5.66352">
        <ele>493.6</ele>
        <time>2022-03-04T17:03:23Z</time>
      </trkpt>
      <trkpt lat="46.59873" lon="5.66348">
        <ele>493.6</ele>
        <time>2022-03-04T17:03:24Z</time>
      </trkpt>
      <trkpt lat="46.59874" lon="5.66345">
        <ele>493.8</ele>
        <time>2022-03-04T17:03:25Z</time>
      </trkpt>
      <trkpt lat="46.59875" lon="5.66341">
        <ele>493.8</ele>
        <time>2022-03-04T17:03:26Z</time>
      </trkpt>
      <trkpt lat="46.59876" lon="5.66337">
        <ele>494.2</ele>
        <time>2022-03-04T17:03:27Z</time>
      </trkpt>
      <trkpt lat="46.59877" lon="5.66333">
        <ele>494.2</ele>
        <time>2022-03-04T17:03:28Z</time>
      </trkpt>
      <trkpt lat="46.59878" lon="5.6633">
        <ele>494.4</ele>
        <time>2022-03-04T17:03:29Z</time>
      </trkpt>
      <trkpt lat="46.59878" lon="5.66326">
        <ele>494.4</ele>
        <time>2022-03-04T17:03:30Z</time>
      </trkpt>
      <trkpt lat="46.59879" lon="5.66323">
        <ele>494.4</ele>
        <time>2022-03-04T17:03:31Z</time>
      </trkpt>
      <trkpt lat="46.59879" lon="5.66319">
        <ele>494.8</ele>
        <time>2022-03-04T17:03:32Z</time>
      </trkpt>
      <trkpt lat="46.5988" lon="5.66315">
        <ele>494.8</ele>
        <time>2022-03-04T17:03:33Z</time>
      </trkpt>
      <trkpt lat="46.5988" lon="5.66312">
        <ele>495</ele>
        <time>2022-03-04T17:03:34Z</time>
      </trkpt>
      <trkpt lat="46.5988" lon="5.66308">
        <ele>495</ele>
        <time>2022-03-04T17:03:35Z</time>
      </trkpt>
      <trkpt lat="46.59881" lon="5.66304">
        <ele>495</ele>
        <time>2022-03-04T17:03:36Z</time>
      </trkpt>
      <trkpt lat="46.59881" lon="5.663">
        <ele>495.2</ele>
        <time>2022-03-04T17:03:37Z</time>
      </trkpt>
      <trkpt lat="46.59882" lon="5.66296">
        <ele>495.2</ele>
        <time>2022-03-04T17:03:38Z</time>
      </trkpt>
      <trkpt lat="46.59882" lon="5.66292">
        <ele>495.4</ele>
        <time>2022-03-04T17:03:39Z</time>
      </trkpt>
      <trkpt lat="46.59882" lon="5.66288">
        <ele>495.4</ele>
        <time>2022-03-04T17:03:40Z</time>
      </trkpt>
      <trkpt lat="46.59882" lon="5.66284">
        <ele>495.8</ele>
        <time>2022-03-04T17:03:41Z</time>
      </trkpt>
      <trkpt lat="46.59881" lon="5.6628">
        <ele>495.8</ele>
        <time>2022-03-04T17:03:42Z</time>
      </trkpt>
      <trkpt lat="46.59881" lon="5.66276">
        <ele>496</ele>
        <time>2022-03-04T17:03:43Z</time>
      </trkpt>
      <trkpt lat="46.5988" lon="5.66273">
        <ele>496</ele>
        <time>2022-03-04T17:03:44Z</time>
      </trkpt>
      <trkpt lat="46.5988" lon="5.66269">
        <ele>496.2</ele>
        <time>2022-03-04T17:03:45Z</time>
      </trkpt>
      <trkpt lat="46.5988" lon="5.66266">
        <ele>496.2</ele>
        <time>2022-03-04T17:03:46Z</time>
      </trkpt>
      <trkpt lat="46.59881" lon="5.66262">
        <ele>496.4</ele>
        <time>2022-03-04T17:03:47Z</time>
      </trkpt>
      <trkpt lat="46.59881" lon="5.66259">
        <ele>496.4</ele>
        <time>2022-03-04T17:03:48Z</time>
      </trkpt>
      <trkpt lat="46.59882" lon="5.66255">
        <ele>496.8</ele>
        <time>2022-03-04T17:03:49Z</time>
      </trkpt>
      <trkpt lat="46.59883" lon="5.66251">
        <ele>496.8</ele>
        <time>2022-03-04T17:03:50Z</time>
      </trkpt>
      <trkpt lat="46.59883" lon="5.66248">
        <ele>497</ele>
        <time>2022-03-04T17:03:51Z</time>
      </trkpt>
      <trkpt lat="46.59883" lon="5.66245">
        <ele>497</ele>
        <time>2022-03-04T17:03:52Z</time>
      </trkpt>
      <trkpt lat="46.59884" lon="5.66241">
        <ele>497.4</ele>
        <time>2022-03-04T17:03:53Z</time>
      </trkpt>
      <trkpt lat="46.59884" lon="5.66238">
        <ele>497.4</ele>
        <time>2022-03-04T17:03:54Z</time>
      </trkpt>
      <trkpt lat="46.59885" lon="5.66235">
        <ele>497.6</ele>
        <time>2022-03-04T17:03:55Z</time>
      </trkpt>
      <trkpt lat="46.59886" lon="5.66231">
        <ele>497.6</ele>
        <time>2022-03-04T17:03:56Z</time>
      </trkpt>
      <trkpt lat="46.59887" lon="5.66228">
        <ele>497.8</ele>
        <time>2022-03-04T17:03:57Z</time>
      </trkpt>
      <trkpt lat="46.59888" lon="5.66225">
        <ele>497.8</ele>
        <time>2022-03-04T17:03:58Z</time>
      </trkpt>
      <trkpt lat="46.59888" lon="5.66222">
        <ele>497.8</ele>
        <time>2022-03-04T17:03:59Z</time>
      </trkpt>
      <trkpt lat="46.59889" lon="5.66218">
        <ele>498.2</ele>
        <time>2022-03-04T17:04:00Z</time>
      </trkpt>
      <trkpt lat="46.5989" lon="5.66215">
        <ele>498.2</ele>
        <time>2022-03-04T17:04:01Z</time>
      </trkpt>
      <trkpt lat="46.59891" lon="5.66212">
        <ele>498.4</ele>
        <time>2022-03-04T17:04:02Z</time>
      </trkpt>
      <trkpt lat="46.59891" lon="5.66209">
        <ele>498.4</ele>
        <time>2022-03-04T17:04:03Z</time>
      </trkpt>
      <trkpt lat="46.59892" lon="5.66206">
        <ele>498.6</ele>
        <time>2022-03-04T17:04:04Z</time>
      </trkpt>
      <trkpt lat="46.59893" lon="5.66203">
        <ele>498.6</ele>
        <time>2022-03-04T17:04:05Z</time>
      </trkpt>
      <trkpt lat="46.59894" lon="5.662">
        <ele>499</ele>
        <time>2022-03-04T17:04:06Z</time>
      </trkpt>
      <trkpt lat="46.59895" lon="5.66197">
        <ele>499</ele>
        <time>2022-03-04T17:04:07Z</time>
      </trkpt>
      <trkpt lat="46.59896" lon="5.66194">
        <ele>499.2</ele>
        <time>2022-03-04T17:04:08Z</time>
      </trkpt>
      <trkpt lat="46.59897" lon="5.66191">
        <ele>499.2</ele>
        <time>2022-03-04T17:04:09Z</time>
      </trkpt>
      <trkpt lat="46.59898" lon="5.66187">
        <ele>499.4</ele>
        <time>2022-03-04T17:04:10Z</time>
      </trkpt>
      <trkpt lat="46.59899" lon="5.66184">
        <ele>499.4</ele>
        <time>2022-03-04T17:04:11Z</time>
      </trkpt>
      <trkpt lat="46.599" lon="5.66181">
        <ele>499.4</ele>
        <time>2022-03-04T17:04:12Z</time>
      </trkpt>
      <trkpt lat="46.59901" lon="5.66177">
        <ele>499.8</ele>
        <time>2022-03-04T17:04:13Z</time>
      </trkpt>
      <trkpt lat="46.59902" lon="5.66174">
        <ele>499.8</ele>
        <time>2022-03-04T17:04:14Z</time>
      </trkpt>
      <trkpt lat="46.59903" lon="5.6617">
        <ele>499.8</ele>
        <time>2022-03-04T17:04:15Z</time>
      </trkpt>
      <trkpt lat="46.59904" lon="5.66167">
        <ele>500.2</ele>
        <time>2022-03-04T17:04:16Z</time>
      </trkpt>
      <trkpt lat="46.59905" lon="5.66164">
        <ele>500.2</ele>
        <time>2022-03-04T17:04:17Z</time>
      </trkpt>
      <trkpt lat="46.59907" lon="5.66161">
        <ele>500.2</ele>
        <time>2022-03-04T17:04:18Z</time>
      </trkpt>
      <trkpt lat="46.59908" lon="5.66157">
        <ele>500.4</ele>
        <time>2022-03-04T17:04:19Z</time>
      </trkpt>
      <trkpt lat="46.59909" lon="5.66154">
        <ele>500.4</ele>
        <time>2022-03-04T17:04:20Z</time>
      </trkpt>
      <trkpt lat="46.5991" lon="5.66151">
        <ele>500.8</ele>
        <time>2022-03-04T17:04:21Z</time>
      </trkpt>
      <trkpt lat="46.59911" lon="5.66149">
        <ele>500.8</ele>
        <time>2022-03-04T17:04:22Z</time>
      </trkpt>
      <trkpt lat="46.59912" lon="5.66146">
        <ele>501</ele>
        <time>2022-03-04T17:04:23Z</time>
      </trkpt>
      <trkpt lat="46.59914" lon="5.66144">
        <ele>501</ele>
        <time>2022-03-04T17:04:24Z</time>
      </trkpt>
      <trkpt lat="46.59915" lon="5.6614">
        <ele>501.2</ele>
        <time>2022-03-04T17:04:25Z</time>
      </trkpt>
      <trkpt lat="46.59916" lon="5.66137">
        <ele>501.2</ele>
        <time>2022-03-04T17:04:26Z</time>
      </trkpt>
      <trkpt lat="46.59916" lon="5.66134">
        <ele>501.6</ele>
        <time>2022-03-04T17:04:27Z</time>
      </trkpt>
      <trkpt lat="46.59917" lon="5.66131">
        <ele>501.6</ele>
        <time>2022-03-04T17:04:28Z</time>
      </trkpt>
      <trkpt lat="46.5992" lon="5.66125">
        <ele>501.8</ele>
        <time>2022-03-04T17:04:29Z</time>
      </trkpt>
      <trkpt lat="46.59922" lon="5.66121">
        <ele>501.8</ele>
        <time>2022-03-04T17:04:30Z</time>
      </trkpt>
      <trkpt lat="46.59924" lon="5.66118">
        <ele>502.2</ele>
        <time>2022-03-04T17:04:31Z</time>
      </trkpt>
      <trkpt lat="46.59925" lon="5.66115">
        <ele>502.2</ele>
        <time>2022-03-04T17:04:32Z</time>
      </trkpt>
      <trkpt lat="46.59927" lon="5.66112">
        <ele>502.4</ele>
        <time>2022-03-04T17:04:33Z</time>
      </trkpt>
      <trkpt lat="46.59929" lon="5.66109">
        <ele>502.4</ele>
        <time>2022-03-04T17:04:34Z</time>
      </trkpt>
      <trkpt lat="46.5993" lon="5.66105">
        <ele>502.6</ele>
        <time>2022-03-04T17:04:35Z</time>
      </trkpt>
      <trkpt lat="46.59932" lon="5.66102">
        <ele>502.6</ele>
        <time>2022-03-04T17:04:36Z</time>
      </trkpt>
      <trkpt lat="46.59934" lon="5.66098">
        <ele>503</ele>
        <time>2022-03-04T17:04:37Z</time>
      </trkpt>
      <trkpt lat="46.59935" lon="5.66095">
        <ele>503</ele>
        <time>2022-03-04T17:04:38Z</time>
      </trkpt>
      <trkpt lat="46.59937" lon="5.66092">
        <ele>503.4</ele>
        <time>2022-03-04T17:04:39Z</time>
      </trkpt>
      <trkpt lat="46.59939" lon="5.66088">
        <ele>503.8</ele>
        <time>2022-03-04T17:04:40Z</time>
      </trkpt>
      <trkpt lat="46.5994" lon="5.66085">
        <ele>503.8</ele>
        <time>2022-03-04T17:04:41Z</time>
      </trkpt>
      <trkpt lat="46.59942" lon="5.66082">
        <ele>504</ele>
        <time>2022-03-04T17:04:42Z</time>
      </trkpt>
      <trkpt lat="46.59943" lon="5.66078">
        <ele>504</ele>
        <time>2022-03-04T17:04:43Z</time>
      </trkpt>
      <trkpt lat="46.59944" lon="5.66075">
        <ele>504</ele>
        <time>2022-03-04T17:04:44Z</time>
      </trkpt>
      <trkpt lat="46.59945" lon="5.66072">
        <ele>504.2</ele>
        <time>2022-03-04T17:04:45Z</time>
      </trkpt>
      <trkpt lat="46.59946" lon="5.66068">
        <ele>504.2</ele>
        <time>2022-03-04T17:04:46Z</time>
      </trkpt>
      <trkpt lat="46.59947" lon="5.66065">
        <ele>504.2</ele>
        <time>2022-03-04T17:04:47Z</time>
      </trkpt>
      <trkpt lat="46.59948" lon="5.66061">
        <ele>504.2</ele>
        <time>2022-03-04T17:04:48Z</time>
      </trkpt>
      <trkpt lat="46.59949" lon="5.66058">
        <ele>504.4</ele>
        <time>2022-03-04T17:04:49Z</time>
      </trkpt>
      <trkpt lat="46.5995" lon="5.66054">
        <ele>504.4</ele>
        <time>2022-03-04T17:04:50Z</time>
      </trkpt>
      <trkpt lat="46.5995" lon="5.6605">
        <ele>504.4</ele>
        <time>2022-03-04T17:04:51Z</time>
      </trkpt>
      <trkpt lat="46.59951" lon="5.66047">
        <ele>504.8</ele>
        <time>2022-03-04T17:04:52Z</time>
      </trkpt>
      <trkpt lat="46.59952" lon="5.66043">
        <ele>504.8</ele>
        <time>2022-03-04T17:04:53Z</time>
      </trkpt>
      <trkpt lat="46.59953" lon="5.6604">
        <ele>505</ele>
        <time>2022-03-04T17:04:54Z</time>
      </trkpt>
      <trkpt lat="46.59954" lon="5.66036">
        <ele>505</ele>
        <time>2022-03-04T17:04:55Z</time>
      </trkpt>
      <trkpt lat="46.59955" lon="5.66032">
        <ele>505.4</ele>
        <time>2022-03-04T17:04:56Z</time>
      </trkpt>
      <trkpt lat="46.59956" lon="5.66029">
        <ele>505.4</ele>
        <time>2022-03-04T17:04:57Z</time>
      </trkpt>
      <trkpt lat="46.59957" lon="5.66025">
        <ele>505.4</ele>
        <time>2022-03-04T17:04:58Z</time>
      </trkpt>
      <trkpt lat="46.59958" lon="5.66022">
        <ele>505.6</ele>
        <time>2022-03-04T17:04:59Z</time>
      </trkpt>
      <trkpt lat="46.59959" lon="5.66018">
        <ele>505.6</ele>
        <time>2022-03-04T17:05:00Z</time>
      </trkpt>
      <trkpt lat="46.5996" lon="5.66015">
        <ele>505.8</ele>
        <time>2022-03-04T17:05:01Z</time>
      </trkpt>
      <trkpt lat="46.59961" lon="5.66012">
        <ele>505.8</ele>
        <time>2022-03-04T17:05:02Z</time>
      </trkpt>
      <trkpt lat="46.59962" lon="5.66008">
        <ele>506.2</ele>
        <time>2022-03-04T17:05:03Z</time>
      </trkpt>
      <trkpt lat="46.59963" lon="5.66005">
        <ele>506.2</ele>
        <time>2022-03-04T17:05:04Z</time>
      </trkpt>
      <trkpt lat="46.59963" lon="5.66002">
        <ele>506.2</ele>
        <time>2022-03-04T17:05:05Z</time>
      </trkpt>
      <trkpt lat="46.59964" lon="5.65999">
        <ele>506.8</ele>
        <time>2022-03-04T17:05:06Z</time>
      </trkpt>
      <trkpt lat="46.59965" lon="5.65995">
        <ele>506.8</ele>
        <time>2022-03-04T17:05:07Z</time>
      </trkpt>
      <trkpt lat="46.59966" lon="5.65992">
        <ele>507</ele>
        <time>2022-03-04T17:05:08Z</time>
      </trkpt>
      <trkpt lat="46.59967" lon="5.65988">
        <ele>507.2</ele>
        <time>2022-03-04T17:05:09Z</time>
      </trkpt>
      <trkpt lat="46.59968" lon="5.65985">
        <ele>507.2</ele>
        <time>2022-03-04T17:05:10Z</time>
      </trkpt>
      <trkpt lat="46.59969" lon="5.65982">
        <ele>507.6</ele>
        <time>2022-03-04T17:05:11Z</time>
      </trkpt>
      <trkpt lat="46.59971" lon="5.65978">
        <ele>507.6</ele>
        <time>2022-03-04T17:05:12Z</time>
      </trkpt>
      <trkpt lat="46.59972" lon="5.65975">
        <ele>507.8</ele>
        <time>2022-03-04T17:05:13Z</time>
      </trkpt>
      <trkpt lat="46.59972" lon="5.65971">
        <ele>507.8</ele>
        <time>2022-03-04T17:05:14Z</time>
      </trkpt>
      <trkpt lat="46.59973" lon="5.65968">
        <ele>508.2</ele>
        <time>2022-03-04T17:05:15Z</time>
      </trkpt>
      <trkpt lat="46.59975" lon="5.65964">
        <ele>508.2</ele>
        <time>2022-03-04T17:05:16Z</time>
      </trkpt>
      <trkpt lat="46.59976" lon="5.6596">
        <ele>508.2</ele>
        <time>2022-03-04T17:05:17Z</time>
      </trkpt>
      <trkpt lat="46.59977" lon="5.65956">
        <ele>508.6</ele>
        <time>2022-03-04T17:05:18Z</time>
      </trkpt>
      <trkpt lat="46.59978" lon="5.65953">
        <ele>508.6</ele>
        <time>2022-03-04T17:05:19Z</time>
      </trkpt>
      <trkpt lat="46.59979" lon="5.65949">
        <ele>508.8</ele>
        <time>2022-03-04T17:05:20Z</time>
      </trkpt>
      <trkpt lat="46.5998" lon="5.65946">
        <ele>508.8</ele>
        <time>2022-03-04T17:05:21Z</time>
      </trkpt>
      <trkpt lat="46.59981" lon="5.65942">
        <ele>509.2</ele>
        <time>2022-03-04T17:05:22Z</time>
      </trkpt>
      <trkpt lat="46.59982" lon="5.65939">
        <ele>509.2</ele>
        <time>2022-03-04T17:05:23Z</time>
      </trkpt>
      <trkpt lat="46.59983" lon="5.65936">
        <ele>509.4</ele>
        <time>2022-03-04T17:05:24Z</time>
      </trkpt>
      <trkpt lat="46.59983" lon="5.65932">
        <ele>509.4</ele>
        <time>2022-03-04T17:05:25Z</time>
      </trkpt>
      <trkpt lat="46.59984" lon="5.65929">
        <ele>509.8</ele>
        <time>2022-03-04T17:05:26Z</time>
      </trkpt>
      <trkpt lat="46.59985" lon="5.65925">
        <ele>509.8</ele>
        <time>2022-03-04T17:05:27Z</time>
      </trkpt>
      <trkpt lat="46.59986" lon="5.65922">
        <ele>510</ele>
        <time>2022-03-04T17:05:28Z</time>
      </trkpt>
      <trkpt lat="46.59986" lon="5.65918">
        <ele>510</ele>
        <time>2022-03-04T17:05:29Z</time>
      </trkpt>
      <trkpt lat="46.59987" lon="5.65915">
        <ele>510.2</ele>
        <time>2022-03-04T17:05:30Z</time>
      </trkpt>
      <trkpt lat="46.59988" lon="5.65911">
        <ele>510.2</ele>
        <time>2022-03-04T17:05:31Z</time>
      </trkpt>
      <trkpt lat="46.59988" lon="5.65908">
        <ele>510.4</ele>
        <time>2022-03-04T17:05:32Z</time>
      </trkpt>
      <trkpt lat="46.59989" lon="5.65905">
        <ele>510.4</ele>
        <time>2022-03-04T17:05:33Z</time>
      </trkpt>
      <trkpt lat="46.59989" lon="5.65901">
        <ele>510.8</ele>
        <time>2022-03-04T17:05:34Z</time>
      </trkpt>
      <trkpt lat="46.5999" lon="5.65898">
        <ele>510.8</ele>
        <time>2022-03-04T17:05:35Z</time>
      </trkpt>
      <trkpt lat="46.5999" lon="5.65895">
        <ele>510.8</ele>
        <time>2022-03-04T17:05:36Z</time>
      </trkpt>
      <trkpt lat="46.59991" lon="5.65892">
        <ele>511</ele>
        <time>2022-03-04T17:05:37Z</time>
      </trkpt>
      <trkpt lat="46.59991" lon="5.65889">
        <ele>511</ele>
        <time>2022-03-04T17:05:38Z</time>
      </trkpt>
      <trkpt lat="46.59991" lon="5.65886">
        <ele>511</ele>
        <time>2022-03-04T17:05:39Z</time>
      </trkpt>
      <trkpt lat="46.59992" lon="5.65882">
        <ele>511.2</ele>
        <time>2022-03-04T17:05:40Z</time>
      </trkpt>
      <trkpt lat="46.59993" lon="5.65879">
        <ele>511.2</ele>
        <time>2022-03-04T17:05:41Z</time>
      </trkpt>
      <trkpt lat="46.59994" lon="5.65875">
        <ele>511.4</ele>
        <time>2022-03-04T17:05:42Z</time>
      </trkpt>
      <trkpt lat="46.59994" lon="5.65875">
        <ele>511.4</ele>
        <time>2022-03-04T17:05:43Z</time>
      </trkpt>
      <trkpt lat="46.59994" lon="5.65871">
        <ele>511.8</ele>
        <time>2022-03-04T17:05:44Z</time>
      </trkpt>
      <trkpt lat="46.59995" lon="5.65868">
        <ele>511.8</ele>
        <time>2022-03-04T17:05:45Z</time>
      </trkpt>
      <trkpt lat="46.59995" lon="5.65864">
        <ele>511.8</ele>
        <time>2022-03-04T17:05:46Z</time>
      </trkpt>
      <trkpt lat="46.59996" lon="5.6586">
        <ele>512</ele>
        <time>2022-03-04T17:05:47Z</time>
      </trkpt>
      <trkpt lat="46.59996" lon="5.65857">
        <ele>512</ele>
        <time>2022-03-04T17:05:48Z</time>
      </trkpt>
      <trkpt lat="46.59996" lon="5.65853">
        <ele>512.2</ele>
        <time>2022-03-04T17:05:49Z</time>
      </trkpt>
      <trkpt lat="46.59996" lon="5.65849">
        <ele>512.2</ele>
        <time>2022-03-04T17:05:50Z</time>
      </trkpt>
      <trkpt lat="46.59996" lon="5.65846">
        <ele>512.6</ele>
        <time>2022-03-04T17:05:51Z</time>
      </trkpt>
      <trkpt lat="46.59996" lon="5.65842">
        <ele>512.6</ele>
        <time>2022-03-04T17:05:52Z</time>
      </trkpt>
      <trkpt lat="46.59996" lon="5.65838">
        <ele>512.8</ele>
        <time>2022-03-04T17:05:53Z</time>
      </trkpt>
      <trkpt lat="46.59996" lon="5.65834">
        <ele>512.8</ele>
        <time>2022-03-04T17:05:54Z</time>
      </trkpt>
      <trkpt lat="46.59996" lon="5.65831">
        <ele>512.8</ele>
        <time>2022-03-04T17:05:55Z</time>
      </trkpt>
      <trkpt lat="46.59996" lon="5.65827">
        <ele>513</ele>
        <time>2022-03-04T17:05:56Z</time>
      </trkpt>
      <trkpt lat="46.59997" lon="5.65824">
        <ele>513</ele>
        <time>2022-03-04T17:05:57Z</time>
      </trkpt>
      <trkpt lat="46.59997" lon="5.6582">
        <ele>513.4</ele>
        <time>2022-03-04T17:05:58Z</time>
      </trkpt>
      <trkpt lat="46.59998" lon="5.65817">
        <ele>513.6</ele>
        <time>2022-03-04T17:05:59Z</time>
      </trkpt>
      <trkpt lat="46.59998" lon="5.65814">
        <ele>513.6</ele>
        <time>2022-03-04T17:06:00Z</time>
      </trkpt>
      <trkpt lat="46.59998" lon="5.6581">
        <ele>513.6</ele>
        <time>2022-03-04T17:06:01Z</time>
      </trkpt>
      <trkpt lat="46.59999" lon="5.65807">
        <ele>514</ele>
        <time>2022-03-04T17:06:02Z</time>
      </trkpt>
      <trkpt lat="46.59999" lon="5.65804">
        <ele>514</ele>
        <time>2022-03-04T17:06:03Z</time>
      </trkpt>
      <trkpt lat="46.6" lon="5.658">
        <ele>514.2</ele>
        <time>2022-03-04T17:06:04Z</time>
      </trkpt>
      <trkpt lat="46.6" lon="5.65797">
        <ele>514.4</ele>
        <time>2022-03-04T17:06:05Z</time>
      </trkpt>
      <trkpt lat="46.60001" lon="5.65794">
        <ele>514.4</ele>
        <time>2022-03-04T17:06:06Z</time>
      </trkpt>
      <trkpt lat="46.60001" lon="5.6579">
        <ele>514.8</ele>
        <time>2022-03-04T17:06:07Z</time>
      </trkpt>
      <trkpt lat="46.60002" lon="5.65787">
        <ele>514.8</ele>
        <time>2022-03-04T17:06:08Z</time>
      </trkpt>
      <trkpt lat="46.60002" lon="5.65784">
        <ele>515</ele>
        <time>2022-03-04T17:06:09Z</time>
      </trkpt>
      <trkpt lat="46.60003" lon="5.65781">
        <ele>515.2</ele>
        <time>2022-03-04T17:06:10Z</time>
      </trkpt>
      <trkpt lat="46.60003" lon="5.65777">
        <ele>515.4</ele>
        <time>2022-03-04T17:06:11Z</time>
      </trkpt>
      <trkpt lat="46.60004" lon="5.65774">
        <ele>515.4</ele>
        <time>2022-03-04T17:06:12Z</time>
      </trkpt>
      <trkpt lat="46.60004" lon="5.65771">
        <ele>515.8</ele>
        <time>2022-03-04T17:06:13Z</time>
      </trkpt>
      <trkpt lat="46.60004" lon="5.65767">
        <ele>515.8</ele>
        <time>2022-03-04T17:06:14Z</time>
      </trkpt>
      <trkpt lat="46.60004" lon="5.65764">
        <ele>516.2</ele>
        <time>2022-03-04T17:06:15Z</time>
      </trkpt>
      <trkpt lat="46.60005" lon="5.65761">
        <ele>516.2</ele>
        <time>2022-03-04T17:06:16Z</time>
      </trkpt>
      <trkpt lat="46.60006" lon="5.65758">
        <ele>516.4</ele>
        <time>2022-03-04T17:06:17Z</time>
      </trkpt>
      <trkpt lat="46.60006" lon="5.65754">
        <ele>516.4</ele>
        <time>2022-03-04T17:06:18Z</time>
      </trkpt>
      <trkpt lat="46.60006" lon="5.65751">
        <ele>516.8</ele>
        <time>2022-03-04T17:06:19Z</time>
      </trkpt>
      <trkpt lat="46.60007" lon="5.65748">
        <ele>516.8</ele>
        <time>2022-03-04T17:06:20Z</time>
      </trkpt>
      <trkpt lat="46.60007" lon="5.65745">
        <ele>516.8</ele>
        <time>2022-03-04T17:06:21Z</time>
      </trkpt>
      <trkpt lat="46.60007" lon="5.65741">
        <ele>517</ele>
        <time>2022-03-04T17:06:22Z</time>
      </trkpt>
      <trkpt lat="46.60008" lon="5.65738">
        <ele>517</ele>
        <time>2022-03-04T17:06:23Z</time>
      </trkpt>
      <trkpt lat="46.60008" lon="5.65734">
        <ele>517</ele>
        <time>2022-03-04T17:06:24Z</time>
      </trkpt>
      <trkpt lat="46.60009" lon="5.65731">
        <ele>517.4</ele>
        <time>2022-03-04T17:06:25Z</time>
      </trkpt>
      <trkpt lat="46.60009" lon="5.65727">
        <ele>517.4</ele>
        <time>2022-03-04T17:06:26Z</time>
      </trkpt>
      <trkpt lat="46.60009" lon="5.65723">
        <ele>517.4</ele>
        <time>2022-03-04T17:06:27Z</time>
      </trkpt>
      <trkpt lat="46.6001" lon="5.65719">
        <ele>517.4</ele>
        <time>2022-03-04T17:06:28Z</time>
      </trkpt>
      <trkpt lat="46.6001" lon="5.65716">
        <ele>517.6</ele>
        <time>2022-03-04T17:06:29Z</time>
      </trkpt>
      <trkpt lat="46.60011" lon="5.65712">
        <ele>517.6</ele>
        <time>2022-03-04T17:06:30Z</time>
      </trkpt>
      <trkpt lat="46.60011" lon="5.65708">
        <ele>517.8</ele>
        <time>2022-03-04T17:06:31Z</time>
      </trkpt>
      <trkpt lat="46.60011" lon="5.65705">
        <ele>517.8</ele>
        <time>2022-03-04T17:06:32Z</time>
      </trkpt>
      <trkpt lat="46.60012" lon="5.65701">
        <ele>518.2</ele>
        <time>2022-03-04T17:06:33Z</time>
      </trkpt>
      <trkpt lat="46.60012" lon="5.65698">
        <ele>518.2</ele>
        <time>2022-03-04T17:06:34Z</time>
      </trkpt>
      <trkpt lat="46.60012" lon="5.65694">
        <ele>518.4</ele>
        <time>2022-03-04T17:06:35Z</time>
      </trkpt>
      <trkpt lat="46.60013" lon="5.65691">
        <ele>518.4</ele>
        <time>2022-03-04T17:06:36Z</time>
      </trkpt>
      <trkpt lat="46.60012" lon="5.65687">
        <ele>518.4</ele>
        <time>2022-03-04T17:06:37Z</time>
      </trkpt>
      <trkpt lat="46.60012" lon="5.65683">
        <ele>518.8</ele>
        <time>2022-03-04T17:06:38Z</time>
      </trkpt>
      <trkpt lat="46.60012" lon="5.6568">
        <ele>518.8</ele>
        <time>2022-03-04T17:06:39Z</time>
      </trkpt>
      <trkpt lat="46.60012" lon="5.65676">
        <ele>519</ele>
        <time>2022-03-04T17:06:40Z</time>
      </trkpt>
      <trkpt lat="46.60013" lon="5.65673">
        <ele>519</ele>
        <time>2022-03-04T17:06:41Z</time>
      </trkpt>
      <trkpt lat="46.60013" lon="5.65669">
        <ele>519.2</ele>
        <time>2022-03-04T17:06:42Z</time>
      </trkpt>
      <trkpt lat="46.60013" lon="5.65666">
        <ele>519.2</ele>
        <time>2022-03-04T17:06:43Z</time>
      </trkpt>
      <trkpt lat="46.60014" lon="5.65662">
        <ele>519.2</ele>
        <time>2022-03-04T17:06:44Z</time>
      </trkpt>
      <trkpt lat="46.60014" lon="5.65659">
        <ele>519.2</ele>
        <time>2022-03-04T17:06:45Z</time>
      </trkpt>
      <trkpt lat="46.60015" lon="5.65655">
        <ele>519.6</ele>
        <time>2022-03-04T17:06:46Z</time>
      </trkpt>
      <trkpt lat="46.60015" lon="5.65651">
        <ele>519.6</ele>
        <time>2022-03-04T17:06:47Z</time>
      </trkpt>
      <trkpt lat="46.60015" lon="5.65647">
        <ele>519.6</ele>
        <time>2022-03-04T17:06:48Z</time>
      </trkpt>
      <trkpt lat="46.60015" lon="5.65644">
        <ele>519.6</ele>
        <time>2022-03-04T17:06:49Z</time>
      </trkpt>
      <trkpt lat="46.60015" lon="5.6564">
        <ele>519.6</ele>
        <time>2022-03-04T17:06:50Z</time>
      </trkpt>
      <trkpt lat="46.60015" lon="5.65636">
        <ele>519.6</ele>
        <time>2022-03-04T17:06:51Z</time>
      </trkpt>
      <trkpt lat="46.60016" lon="5.65631">
        <ele>519.6</ele>
        <time>2022-03-04T17:06:52Z</time>
      </trkpt>
      <trkpt lat="46.60016" lon="5.65627">
        <ele>519.6</ele>
        <time>2022-03-04T17:06:53Z</time>
      </trkpt>
      <trkpt lat="46.60016" lon="5.65623">
        <ele>519.6</ele>
        <time>2022-03-04T17:06:54Z</time>
      </trkpt>
      <trkpt lat="46.60017" lon="5.65619">
        <ele>519.6</ele>
        <time>2022-03-04T17:06:55Z</time>
      </trkpt>
      <trkpt lat="46.60017" lon="5.65614">
        <ele>519.6</ele>
        <time>2022-03-04T17:06:56Z</time>
      </trkpt>
      <trkpt lat="46.60018" lon="5.6561">
        <ele>519.6</ele>
        <time>2022-03-04T17:06:57Z</time>
      </trkpt>
      <trkpt lat="46.60018" lon="5.65605">
        <ele>519.6</ele>
        <time>2022-03-04T17:06:58Z</time>
      </trkpt>
      <trkpt lat="46.60018" lon="5.656">
        <ele>519.8</ele>
        <time>2022-03-04T17:06:59Z</time>
      </trkpt>
      <trkpt lat="46.60019" lon="5.65595">
        <ele>519.8</ele>
        <time>2022-03-04T17:07:00Z</time>
      </trkpt>
      <trkpt lat="46.60019" lon="5.6559">
        <ele>519.8</ele>
        <time>2022-03-04T17:07:01Z</time>
      </trkpt>
      <trkpt lat="46.60019" lon="5.65585">
        <ele>519.8</ele>
        <time>2022-03-04T17:07:02Z</time>
      </trkpt>
      <trkpt lat="46.6002" lon="5.65581">
        <ele>519.8</ele>
        <time>2022-03-04T17:07:03Z</time>
      </trkpt>
      <trkpt lat="46.6002" lon="5.65576">
        <ele>519.8</ele>
        <time>2022-03-04T17:07:04Z</time>
      </trkpt>
      <trkpt lat="46.6002" lon="5.6557">
        <ele>519.8</ele>
        <time>2022-03-04T17:07:05Z</time>
      </trkpt>
      <trkpt lat="46.6002" lon="5.65565">
        <ele>519.8</ele>
        <time>2022-03-04T17:07:06Z</time>
      </trkpt>
      <trkpt lat="46.6002" lon="5.6556">
        <ele>519.8</ele>
        <time>2022-03-04T17:07:07Z</time>
      </trkpt>
      <trkpt lat="46.6002" lon="5.65555">
        <ele>519.8</ele>
        <time>2022-03-04T17:07:08Z</time>
      </trkpt>
      <trkpt lat="46.60021" lon="5.65549">
        <ele>519.8</ele>
        <time>2022-03-04T17:07:09Z</time>
      </trkpt>
      <trkpt lat="46.60021" lon="5.65544">
        <ele>519.8</ele>
        <time>2022-03-04T17:07:10Z</time>
      </trkpt>
      <trkpt lat="46.60021" lon="5.65539">
        <ele>520</ele>
        <time>2022-03-04T17:07:11Z</time>
      </trkpt>
      <trkpt lat="46.60022" lon="5.65535">
        <ele>520</ele>
        <time>2022-03-04T17:07:12Z</time>
      </trkpt>
      <trkpt lat="46.60023" lon="5.6553">
        <ele>520</ele>
        <time>2022-03-04T17:07:13Z</time>
      </trkpt>
      <trkpt lat="46.60023" lon="5.65525">
        <ele>520</ele>
        <time>2022-03-04T17:07:14Z</time>
      </trkpt>
      <trkpt lat="46.60023" lon="5.6552">
        <ele>520</ele>
        <time>2022-03-04T17:07:15Z</time>
      </trkpt>
      <trkpt lat="46.60023" lon="5.65515">
        <ele>520</ele>
        <time>2022-03-04T17:07:16Z</time>
      </trkpt>
      <trkpt lat="46.60023" lon="5.65511">
        <ele>520</ele>
        <time>2022-03-04T17:07:17Z</time>
      </trkpt>
      <trkpt lat="46.60024" lon="5.65506">
        <ele>520.2</ele>
        <time>2022-03-04T17:07:18Z</time>
      </trkpt>
      <trkpt lat="46.60024" lon="5.65502">
        <ele>520.2</ele>
        <time>2022-03-04T17:07:19Z</time>
      </trkpt>
      <trkpt lat="46.60024" lon="5.65497">
        <ele>520.2</ele>
        <time>2022-03-04T17:07:20Z</time>
      </trkpt>
      <trkpt lat="46.60024" lon="5.65492">
        <ele>520.2</ele>
        <time>2022-03-04T17:07:21Z</time>
      </trkpt>
      <trkpt lat="46.60024" lon="5.65488">
        <ele>520.4</ele>
        <time>2022-03-04T17:07:22Z</time>
      </trkpt>
      <trkpt lat="46.60024" lon="5.65483">
        <ele>520.4</ele>
        <time>2022-03-04T17:07:23Z</time>
      </trkpt>
      <trkpt lat="46.60024" lon="5.65479">
        <ele>520.4</ele>
        <time>2022-03-04T17:07:24Z</time>
      </trkpt>
      <trkpt lat="46.60024" lon="5.65475">
        <ele>520.4</ele>
        <time>2022-03-04T17:07:25Z</time>
      </trkpt>
      <trkpt lat="46.60025" lon="5.65471">
        <ele>520.4</ele>
        <time>2022-03-04T17:07:26Z</time>
      </trkpt>
      <trkpt lat="46.60025" lon="5.65466">
        <ele>520.4</ele>
        <time>2022-03-04T17:07:27Z</time>
      </trkpt>
      <trkpt lat="46.60025" lon="5.65462">
        <ele>520.6</ele>
        <time>2022-03-04T17:07:28Z</time>
      </trkpt>
      <trkpt lat="46.60025" lon="5.65457">
        <ele>520.6</ele>
        <time>2022-03-04T17:07:29Z</time>
      </trkpt>
      <trkpt lat="46.60025" lon="5.65453">
        <ele>521</ele>
        <time>2022-03-04T17:07:30Z</time>
      </trkpt>
      <trkpt lat="46.60026" lon="5.65449">
        <ele>521</ele>
        <time>2022-03-04T17:07:31Z</time>
      </trkpt>
      <trkpt lat="46.60026" lon="5.65444">
        <ele>521.2</ele>
        <time>2022-03-04T17:07:32Z</time>
      </trkpt>
      <trkpt lat="46.60026" lon="5.6544">
        <ele>521.2</ele>
        <time>2022-03-04T17:07:33Z</time>
      </trkpt>
      <trkpt lat="46.60026" lon="5.65436">
        <ele>521.4</ele>
        <time>2022-03-04T17:07:34Z</time>
      </trkpt>
      <trkpt lat="46.60027" lon="5.65432">
        <ele>521.4</ele>
        <time>2022-03-04T17:07:35Z</time>
      </trkpt>
      <trkpt lat="46.60027" lon="5.65428">
        <ele>521.4</ele>
        <time>2022-03-04T17:07:36Z</time>
      </trkpt>
      <trkpt lat="46.60027" lon="5.65424">
        <ele>521.6</ele>
        <time>2022-03-04T17:07:37Z</time>
      </trkpt>
      <trkpt lat="46.60027" lon="5.65419">
        <ele>521.6</ele>
        <time>2022-03-04T17:07:38Z</time>
      </trkpt>
      <trkpt lat="46.60027" lon="5.65415">
        <ele>521.8</ele>
        <time>2022-03-04T17:07:39Z</time>
      </trkpt>
      <trkpt lat="46.60027" lon="5.65411">
        <ele>521.8</ele>
        <time>2022-03-04T17:07:40Z</time>
      </trkpt>
      <trkpt lat="46.60028" lon="5.65407">
        <ele>521.8</ele>
        <time>2022-03-04T17:07:41Z</time>
      </trkpt>
      <trkpt lat="46.60028" lon="5.65403">
        <ele>522.2</ele>
        <time>2022-03-04T17:07:42Z</time>
      </trkpt>
      <trkpt lat="46.60028" lon="5.65399">
        <ele>522.2</ele>
        <time>2022-03-04T17:07:43Z</time>
      </trkpt>
      <trkpt lat="46.60029" lon="5.65395">
        <ele>522.4</ele>
        <time>2022-03-04T17:07:44Z</time>
      </trkpt>
      <trkpt lat="46.60029" lon="5.65391">
        <ele>522.6</ele>
        <time>2022-03-04T17:07:45Z</time>
      </trkpt>
      <trkpt lat="46.60029" lon="5.65387">
        <ele>522.6</ele>
        <time>2022-03-04T17:07:46Z</time>
      </trkpt>
      <trkpt lat="46.60029" lon="5.65382">
        <ele>522.6</ele>
        <time>2022-03-04T17:07:47Z</time>
      </trkpt>
      <trkpt lat="46.60029" lon="5.65378">
        <ele>523</ele>
        <time>2022-03-04T17:07:48Z</time>
      </trkpt>
      <trkpt lat="46.60029" lon="5.65374">
        <ele>523</ele>
        <time>2022-03-04T17:07:49Z</time>
      </trkpt>
      <trkpt lat="46.6003" lon="5.65371">
        <ele>523.2</ele>
        <time>2022-03-04T17:07:50Z</time>
      </trkpt>
      <trkpt lat="46.6003" lon="5.65367">
        <ele>523.2</ele>
        <time>2022-03-04T17:07:51Z</time>
      </trkpt>
      <trkpt lat="46.6003" lon="5.65363">
        <ele>523.4</ele>
        <time>2022-03-04T17:07:52Z</time>
      </trkpt>
      <trkpt lat="46.6003" lon="5.65359">
        <ele>523.4</ele>
        <time>2022-03-04T17:07:53Z</time>
      </trkpt>
      <trkpt lat="46.6003" lon="5.65351">
        <ele>523.8</ele>
        <time>2022-03-04T17:07:54Z</time>
      </trkpt>
      <trkpt lat="46.6003" lon="5.65347">
        <ele>524</ele>
        <time>2022-03-04T17:07:55Z</time>
      </trkpt>
      <trkpt lat="46.6003" lon="5.65343">
        <ele>524</ele>
        <time>2022-03-04T17:07:56Z</time>
      </trkpt>
      <trkpt lat="46.6003" lon="5.65339">
        <ele>524.2</ele>
        <time>2022-03-04T17:07:57Z</time>
      </trkpt>
      <trkpt lat="46.6003" lon="5.65336">
        <ele>524.2</ele>
        <time>2022-03-04T17:07:58Z</time>
      </trkpt>
      <trkpt lat="46.6003" lon="5.65332">
        <ele>524.6</ele>
        <time>2022-03-04T17:07:59Z</time>
      </trkpt>
      <trkpt lat="46.6003" lon="5.65328">
        <ele>524.6</ele>
        <time>2022-03-04T17:08:00Z</time>
      </trkpt>
      <trkpt lat="46.60029" lon="5.65325">
        <ele>524.8</ele>
        <time>2022-03-04T17:08:01Z</time>
      </trkpt>
      <trkpt lat="46.60029" lon="5.65321">
        <ele>525</ele>
        <time>2022-03-04T17:08:02Z</time>
      </trkpt>
      <trkpt lat="46.60029" lon="5.65317">
        <ele>525</ele>
        <time>2022-03-04T17:08:03Z</time>
      </trkpt>
      <trkpt lat="46.60029" lon="5.65313">
        <ele>525</ele>
        <time>2022-03-04T17:08:04Z</time>
      </trkpt>
      <trkpt lat="46.60029" lon="5.6531">
        <ele>525.4</ele>
        <time>2022-03-04T17:08:05Z</time>
      </trkpt>
      <trkpt lat="46.60028" lon="5.65306">
        <ele>525.4</ele>
        <time>2022-03-04T17:08:06Z</time>
      </trkpt>
      <trkpt lat="46.60028" lon="5.65302">
        <ele>525.6</ele>
        <time>2022-03-04T17:08:07Z</time>
      </trkpt>
      <trkpt lat="46.60028" lon="5.65299">
        <ele>525.6</ele>
        <time>2022-03-04T17:08:08Z</time>
      </trkpt>
      <trkpt lat="46.60027" lon="5.65295">
        <ele>525.8</ele>
        <time>2022-03-04T17:08:09Z</time>
      </trkpt>
      <trkpt lat="46.60027" lon="5.65291">
        <ele>526</ele>
        <time>2022-03-04T17:08:10Z</time>
      </trkpt>
      <trkpt lat="46.60027" lon="5.65287">
        <ele>526</ele>
        <time>2022-03-04T17:08:11Z</time>
      </trkpt>
      <trkpt lat="46.60026" lon="5.65284">
        <ele>526.2</ele>
        <time>2022-03-04T17:08:12Z</time>
      </trkpt>
      <trkpt lat="46.60026" lon="5.65281">
        <ele>526.2</ele>
        <time>2022-03-04T17:08:13Z</time>
      </trkpt>
      <trkpt lat="46.60025" lon="5.65277">
        <ele>526.6</ele>
        <time>2022-03-04T17:08:14Z</time>
      </trkpt>
      <trkpt lat="46.60025" lon="5.65274">
        <ele>526.6</ele>
        <time>2022-03-04T17:08:15Z</time>
      </trkpt>
      <trkpt lat="46.60025" lon="5.65271">
        <ele>526.8</ele>
        <time>2022-03-04T17:08:16Z</time>
      </trkpt>
      <trkpt lat="46.60024" lon="5.65268">
        <ele>526.8</ele>
        <time>2022-03-04T17:08:17Z</time>
      </trkpt>
      <trkpt lat="46.60024" lon="5.65265">
        <ele>527</ele>
        <time>2022-03-04T17:08:18Z</time>
      </trkpt>
      <trkpt lat="46.60024" lon="5.65262">
        <ele>527</ele>
        <time>2022-03-04T17:08:19Z</time>
      </trkpt>
      <trkpt lat="46.60023" lon="5.65259">
        <ele>527.4</ele>
        <time>2022-03-04T17:08:20Z</time>
      </trkpt>
      <trkpt lat="46.60023" lon="5.65256">
        <ele>527.4</ele>
        <time>2022-03-04T17:08:21Z</time>
      </trkpt>
      <trkpt lat="46.60022" lon="5.65253">
        <ele>527.8</ele>
        <time>2022-03-04T17:08:22Z</time>
      </trkpt>
      <trkpt lat="46.60021" lon="5.6525">
        <ele>527.8</ele>
        <time>2022-03-04T17:08:23Z</time>
      </trkpt>
      <trkpt lat="46.6002" lon="5.65247">
        <ele>528</ele>
        <time>2022-03-04T17:08:24Z</time>
      </trkpt>
      <trkpt lat="46.6002" lon="5.65244">
        <ele>528</ele>
        <time>2022-03-04T17:08:25Z</time>
      </trkpt>
      <trkpt lat="46.60019" lon="5.65241">
        <ele>528.4</ele>
        <time>2022-03-04T17:08:26Z</time>
      </trkpt>
      <trkpt lat="46.60018" lon="5.65238">
        <ele>528.4</ele>
        <time>2022-03-04T17:08:27Z</time>
      </trkpt>
      <trkpt lat="46.60017" lon="5.65236">
        <ele>528.6</ele>
        <time>2022-03-04T17:08:28Z</time>
      </trkpt>
      <trkpt lat="46.60016" lon="5.65232">
        <ele>528.6</ele>
        <time>2022-03-04T17:08:29Z</time>
      </trkpt>
      <trkpt lat="46.60016" lon="5.65229">
        <ele>528.8</ele>
        <time>2022-03-04T17:08:30Z</time>
      </trkpt>
      <trkpt lat="46.60015" lon="5.65226">
        <ele>528.8</ele>
        <time>2022-03-04T17:08:31Z</time>
      </trkpt>
      <trkpt lat="46.60013" lon="5.65223">
        <ele>529.2</ele>
        <time>2022-03-04T17:08:32Z</time>
      </trkpt>
      <trkpt lat="46.60012" lon="5.6522">
        <ele>529.2</ele>
        <time>2022-03-04T17:08:33Z</time>
      </trkpt>
      <trkpt lat="46.60011" lon="5.65218">
        <ele>529.4</ele>
        <time>2022-03-04T17:08:34Z</time>
      </trkpt>
      <trkpt lat="46.6001" lon="5.65215">
        <ele>529.4</ele>
        <time>2022-03-04T17:08:35Z</time>
      </trkpt>
      <trkpt lat="46.60009" lon="5.65212">
        <ele>529.4</ele>
        <time>2022-03-04T17:08:36Z</time>
      </trkpt>
      <trkpt lat="46.60009" lon="5.65209">
        <ele>529.8</ele>
        <time>2022-03-04T17:08:37Z</time>
      </trkpt>
      <trkpt lat="46.60008" lon="5.65206">
        <ele>529.8</ele>
        <time>2022-03-04T17:08:38Z</time>
      </trkpt>
      <trkpt lat="46.60008" lon="5.65203">
        <ele>530</ele>
        <time>2022-03-04T17:08:39Z</time>
      </trkpt>
      <trkpt lat="46.60007" lon="5.652">
        <ele>530</ele>
        <time>2022-03-04T17:08:40Z</time>
      </trkpt>
      <trkpt lat="46.60006" lon="5.65198">
        <ele>530.4</ele>
        <time>2022-03-04T17:08:41Z</time>
      </trkpt>
      <trkpt lat="46.60005" lon="5.65195">
        <ele>530.4</ele>
        <time>2022-03-04T17:08:42Z</time>
      </trkpt>
      <trkpt lat="46.60004" lon="5.65193">
        <ele>530.6</ele>
        <time>2022-03-04T17:08:43Z</time>
      </trkpt>
      <trkpt lat="46.60003" lon="5.6519">
        <ele>530.6</ele>
        <time>2022-03-04T17:08:44Z</time>
      </trkpt>
      <trkpt lat="46.60003" lon="5.65188">
        <ele>530.6</ele>
        <time>2022-03-04T17:08:45Z</time>
      </trkpt>
      <trkpt lat="46.60001" lon="5.65186">
        <ele>530.6</ele>
        <time>2022-03-04T17:08:46Z</time>
      </trkpt>
      <trkpt lat="46.6" lon="5.65183">
        <ele>530.8</ele>
        <time>2022-03-04T17:08:47Z</time>
      </trkpt>
      <trkpt lat="46.59999" lon="5.6518">
        <ele>530.8</ele>
        <time>2022-03-04T17:08:48Z</time>
      </trkpt>
      <trkpt lat="46.59998" lon="5.65177">
        <ele>531.2</ele>
        <time>2022-03-04T17:08:49Z</time>
      </trkpt>
      <trkpt lat="46.59997" lon="5.65175">
        <ele>531.2</ele>
        <time>2022-03-04T17:08:50Z</time>
      </trkpt>
      <trkpt lat="46.59996" lon="5.65172">
        <ele>531.4</ele>
        <time>2022-03-04T17:08:51Z</time>
      </trkpt>
      <trkpt lat="46.59995" lon="5.65169">
        <ele>531.4</ele>
        <time>2022-03-04T17:08:52Z</time>
      </trkpt>
      <trkpt lat="46.59994" lon="5.65166">
        <ele>531.8</ele>
        <time>2022-03-04T17:08:53Z</time>
      </trkpt>
      <trkpt lat="46.59993" lon="5.65163">
        <ele>531.8</ele>
        <time>2022-03-04T17:08:54Z</time>
      </trkpt>
      <trkpt lat="46.59992" lon="5.6516">
        <ele>531.8</ele>
        <time>2022-03-04T17:08:55Z</time>
      </trkpt>
      <trkpt lat="46.59991" lon="5.65157">
        <ele>532</ele>
        <time>2022-03-04T17:08:56Z</time>
      </trkpt>
      <trkpt lat="46.59989" lon="5.65154">
        <ele>532</ele>
        <time>2022-03-04T17:08:57Z</time>
      </trkpt>
      <trkpt lat="46.59987" lon="5.65151">
        <ele>532.2</ele>
        <time>2022-03-04T17:08:58Z</time>
      </trkpt>
      <trkpt lat="46.59986" lon="5.65148">
        <ele>532.2</ele>
        <time>2022-03-04T17:08:59Z</time>
      </trkpt>
      <trkpt lat="46.59984" lon="5.65145">
        <ele>532.6</ele>
        <time>2022-03-04T17:09:00Z</time>
      </trkpt>
      <trkpt lat="46.59983" lon="5.65142">
        <ele>532.6</ele>
        <time>2022-03-04T17:09:01Z</time>
      </trkpt>
      <trkpt lat="46.59981" lon="5.65139">
        <ele>532.8</ele>
        <time>2022-03-04T17:09:02Z</time>
      </trkpt>
      <trkpt lat="46.5998" lon="5.65136">
        <ele>532.8</ele>
        <time>2022-03-04T17:09:03Z</time>
      </trkpt>
      <trkpt lat="46.59978" lon="5.65133">
        <ele>533.2</ele>
        <time>2022-03-04T17:09:04Z</time>
      </trkpt>
      <trkpt lat="46.59977" lon="5.6513">
        <ele>533.2</ele>
        <time>2022-03-04T17:09:05Z</time>
      </trkpt>
      <trkpt lat="46.59976" lon="5.65127">
        <ele>533.2</ele>
        <time>2022-03-04T17:09:06Z</time>
      </trkpt>
      <trkpt lat="46.59975" lon="5.65124">
        <ele>533.4</ele>
        <time>2022-03-04T17:09:07Z</time>
      </trkpt>
      <trkpt lat="46.59974" lon="5.65121">
        <ele>533.6</ele>
        <time>2022-03-04T17:09:08Z</time>
      </trkpt>
      <trkpt lat="46.59973" lon="5.65117">
        <ele>533.6</ele>
        <time>2022-03-04T17:09:09Z</time>
      </trkpt>
      <trkpt lat="46.59971" lon="5.65114">
        <ele>533.6</ele>
        <time>2022-03-04T17:09:10Z</time>
      </trkpt>
      <trkpt lat="46.5997" lon="5.65111">
        <ele>533.8</ele>
        <time>2022-03-04T17:09:11Z</time>
      </trkpt>
      <trkpt lat="46.59969" lon="5.65108">
        <ele>533.8</ele>
        <time>2022-03-04T17:09:12Z</time>
      </trkpt>
      <trkpt lat="46.59969" lon="5.65108">
        <ele>533.8</ele>
        <time>2022-03-04T17:09:13Z</time>
      </trkpt>
      <trkpt lat="46.59968" lon="5.65105">
        <ele>534.2</ele>
        <time>2022-03-04T17:09:14Z</time>
      </trkpt>
      <trkpt lat="46.59967" lon="5.65103">
        <ele>534.2</ele>
        <time>2022-03-04T17:09:15Z</time>
      </trkpt>
      <trkpt lat="46.59966" lon="5.651">
        <ele>534.4</ele>
        <time>2022-03-04T17:09:16Z</time>
      </trkpt>
      <trkpt lat="46.59965" lon="5.65097">
        <ele>534.4</ele>
        <time>2022-03-04T17:09:17Z</time>
      </trkpt>
      <trkpt lat="46.59964" lon="5.65094">
        <ele>534.8</ele>
        <time>2022-03-04T17:09:18Z</time>
      </trkpt>
      <trkpt lat="46.59963" lon="5.65092">
        <ele>534.8</ele>
        <time>2022-03-04T17:09:19Z</time>
      </trkpt>
      <trkpt lat="46.59961" lon="5.65089">
        <ele>535</ele>
        <time>2022-03-04T17:09:20Z</time>
      </trkpt>
      <trkpt lat="46.5996" lon="5.65087">
        <ele>535</ele>
        <time>2022-03-04T17:09:21Z</time>
      </trkpt>
      <trkpt lat="46.59959" lon="5.65084">
        <ele>535.2</ele>
        <time>2022-03-04T17:09:22Z</time>
      </trkpt>
      <trkpt lat="46.59958" lon="5.65081">
        <ele>535.2</ele>
        <time>2022-03-04T17:09:23Z</time>
      </trkpt>
      <trkpt lat="46.59957" lon="5.65078">
        <ele>535.6</ele>
        <time>2022-03-04T17:09:24Z</time>
      </trkpt>
      <trkpt lat="46.59955" lon="5.65075">
        <ele>535.6</ele>
        <time>2022-03-04T17:09:25Z</time>
      </trkpt>
      <trkpt lat="46.59954" lon="5.65072">
        <ele>535.6</ele>
        <time>2022-03-04T17:09:26Z</time>
      </trkpt>
      <trkpt lat="46.59953" lon="5.65069">
        <ele>535.6</ele>
        <time>2022-03-04T17:09:27Z</time>
      </trkpt>
      <trkpt lat="46.59952" lon="5.65067">
        <ele>535.8</ele>
        <time>2022-03-04T17:09:28Z</time>
      </trkpt>
      <trkpt lat="46.59951" lon="5.65064">
        <ele>535.8</ele>
        <time>2022-03-04T17:09:29Z</time>
      </trkpt>
      <trkpt lat="46.5995" lon="5.65061">
        <ele>535.8</ele>
        <time>2022-03-04T17:09:30Z</time>
      </trkpt>
      <trkpt lat="46.59949" lon="5.65058">
        <ele>536</ele>
        <time>2022-03-04T17:09:31Z</time>
      </trkpt>
      <trkpt lat="46.59947" lon="5.65055">
        <ele>536</ele>
        <time>2022-03-04T17:09:32Z</time>
      </trkpt>
      <trkpt lat="46.59946" lon="5.65053">
        <ele>536.4</ele>
        <time>2022-03-04T17:09:33Z</time>
      </trkpt>
      <trkpt lat="46.59945" lon="5.6505">
        <ele>536.4</ele>
        <time>2022-03-04T17:09:34Z</time>
      </trkpt>
      <trkpt lat="46.59944" lon="5.65048">
        <ele>536.8</ele>
        <time>2022-03-04T17:09:35Z</time>
      </trkpt>
      <trkpt lat="46.59942" lon="5.65045">
        <ele>536.8</ele>
        <time>2022-03-04T17:09:36Z</time>
      </trkpt>
      <trkpt lat="46.59941" lon="5.65043">
        <ele>537</ele>
        <time>2022-03-04T17:09:37Z</time>
      </trkpt>
      <trkpt lat="46.5994" lon="5.6504">
        <ele>537</ele>
        <time>2022-03-04T17:09:38Z</time>
      </trkpt>
      <trkpt lat="46.59939" lon="5.65038">
        <ele>537.2</ele>
        <time>2022-03-04T17:09:39Z</time>
      </trkpt>
      <trkpt lat="46.59938" lon="5.65036">
        <ele>537.2</ele>
        <time>2022-03-04T17:09:40Z</time>
      </trkpt>
      <trkpt lat="46.59936" lon="5.65033">
        <ele>537.4</ele>
        <time>2022-03-04T17:09:41Z</time>
      </trkpt>
      <trkpt lat="46.59935" lon="5.6503">
        <ele>537.4</ele>
        <time>2022-03-04T17:09:42Z</time>
      </trkpt>
      <trkpt lat="46.59934" lon="5.65028">
        <ele>537.4</ele>
        <time>2022-03-04T17:09:43Z</time>
      </trkpt>
      <trkpt lat="46.59932" lon="5.65025">
        <ele>537.8</ele>
        <time>2022-03-04T17:09:44Z</time>
      </trkpt>
      <trkpt lat="46.59931" lon="5.65022">
        <ele>537.8</ele>
        <time>2022-03-04T17:09:45Z</time>
      </trkpt>
      <trkpt lat="46.59929" lon="5.6502">
        <ele>538</ele>
        <time>2022-03-04T17:09:46Z</time>
      </trkpt>
      <trkpt lat="46.59928" lon="5.65017">
        <ele>538</ele>
        <time>2022-03-04T17:09:47Z</time>
      </trkpt>
      <trkpt lat="46.59927" lon="5.65014">
        <ele>538</ele>
        <time>2022-03-04T17:09:48Z</time>
      </trkpt>
      <trkpt lat="46.59925" lon="5.65011">
        <ele>538.2</ele>
        <time>2022-03-04T17:09:49Z</time>
      </trkpt>
      <trkpt lat="46.59924" lon="5.65008">
        <ele>538.2</ele>
        <time>2022-03-04T17:09:50Z</time>
      </trkpt>
      <trkpt lat="46.59923" lon="5.65004">
        <ele>538.6</ele>
        <time>2022-03-04T17:09:51Z</time>
      </trkpt>
      <trkpt lat="46.59922" lon="5.65001">
        <ele>538.6</ele>
        <time>2022-03-04T17:09:52Z</time>
      </trkpt>
      <trkpt lat="46.59921" lon="5.64999">
        <ele>538.8</ele>
        <time>2022-03-04T17:09:53Z</time>
      </trkpt>
      <trkpt lat="46.59919" lon="5.64996">
        <ele>538.8</ele>
        <time>2022-03-04T17:09:54Z</time>
      </trkpt>
      <trkpt lat="46.59918" lon="5.64993">
        <ele>538.8</ele>
        <time>2022-03-04T17:09:55Z</time>
      </trkpt>
      <trkpt lat="46.59917" lon="5.6499">
        <ele>539</ele>
        <time>2022-03-04T17:09:56Z</time>
      </trkpt>
      <trkpt lat="46.59916" lon="5.64987">
        <ele>539</ele>
        <time>2022-03-04T17:09:57Z</time>
      </trkpt>
      <trkpt lat="46.59915" lon="5.64984">
        <ele>539.4</ele>
        <time>2022-03-04T17:09:58Z</time>
      </trkpt>
      <trkpt lat="46.59914" lon="5.64981">
        <ele>539.4</ele>
        <time>2022-03-04T17:09:59Z</time>
      </trkpt>
      <trkpt lat="46.59913" lon="5.64978">
        <ele>539.6</ele>
        <time>2022-03-04T17:10:00Z</time>
      </trkpt>
      <trkpt lat="46.59912" lon="5.64975">
        <ele>539.6</ele>
        <time>2022-03-04T17:10:01Z</time>
      </trkpt>
      <trkpt lat="46.59911" lon="5.64972">
        <ele>540</ele>
        <time>2022-03-04T17:10:02Z</time>
      </trkpt>
      <trkpt lat="46.5991" lon="5.64969">
        <ele>540</ele>
        <time>2022-03-04T17:10:03Z</time>
      </trkpt>
      <trkpt lat="46.59908" lon="5.64966">
        <ele>540.2</ele>
        <time>2022-03-04T17:10:04Z</time>
      </trkpt>
      <trkpt lat="46.59907" lon="5.64963">
        <ele>540.2</ele>
        <time>2022-03-04T17:10:05Z</time>
      </trkpt>
      <trkpt lat="46.59906" lon="5.6496">
        <ele>540.4</ele>
        <time>2022-03-04T17:10:06Z</time>
      </trkpt>
      <trkpt lat="46.59905" lon="5.64957">
        <ele>540.8</ele>
        <time>2022-03-04T17:10:07Z</time>
      </trkpt>
      <trkpt lat="46.59904" lon="5.64954">
        <ele>540.8</ele>
        <time>2022-03-04T17:10:08Z</time>
      </trkpt>
      <trkpt lat="46.59903" lon="5.64951">
        <ele>540.8</ele>
        <time>2022-03-04T17:10:09Z</time>
      </trkpt>
      <trkpt lat="46.59902" lon="5.64948">
        <ele>541</ele>
        <time>2022-03-04T17:10:10Z</time>
      </trkpt>
      <trkpt lat="46.59901" lon="5.64945">
        <ele>541</ele>
        <time>2022-03-04T17:10:11Z</time>
      </trkpt>
      <trkpt lat="46.59899" lon="5.64943">
        <ele>541.2</ele>
        <time>2022-03-04T17:10:12Z</time>
      </trkpt>
      <trkpt lat="46.59898" lon="5.6494">
        <ele>541.2</ele>
        <time>2022-03-04T17:10:13Z</time>
      </trkpt>
      <trkpt lat="46.59897" lon="5.64937">
        <ele>541.2</ele>
        <time>2022-03-04T17:10:14Z</time>
      </trkpt>
      <trkpt lat="46.59895" lon="5.64935">
        <ele>541.6</ele>
        <time>2022-03-04T17:10:15Z</time>
      </trkpt>
      <trkpt lat="46.59894" lon="5.64932">
        <ele>541.6</ele>
        <time>2022-03-04T17:10:16Z</time>
      </trkpt>
      <trkpt lat="46.59892" lon="5.6493">
        <ele>541.6</ele>
        <time>2022-03-04T17:10:17Z</time>
      </trkpt>
      <trkpt lat="46.59891" lon="5.64927">
        <ele>541.8</ele>
        <time>2022-03-04T17:10:18Z</time>
      </trkpt>
      <trkpt lat="46.5989" lon="5.64924">
        <ele>541.8</ele>
        <time>2022-03-04T17:10:19Z</time>
      </trkpt>
      <trkpt lat="46.59888" lon="5.64922">
        <ele>542</ele>
        <time>2022-03-04T17:10:20Z</time>
      </trkpt>
      <trkpt lat="46.59887" lon="5.6492">
        <ele>542</ele>
        <time>2022-03-04T17:10:21Z</time>
      </trkpt>
      <trkpt lat="46.59886" lon="5.64917">
        <ele>542.4</ele>
        <time>2022-03-04T17:10:22Z</time>
      </trkpt>
      <trkpt lat="46.59885" lon="5.64915">
        <ele>542.4</ele>
        <time>2022-03-04T17:10:23Z</time>
      </trkpt>
      <trkpt lat="46.59884" lon="5.64912">
        <ele>542.6</ele>
        <time>2022-03-04T17:10:24Z</time>
      </trkpt>
      <trkpt lat="46.59882" lon="5.64909">
        <ele>542.6</ele>
        <time>2022-03-04T17:10:25Z</time>
      </trkpt>
      <trkpt lat="46.59881" lon="5.64906">
        <ele>542.6</ele>
        <time>2022-03-04T17:10:26Z</time>
      </trkpt>
      <trkpt lat="46.5988" lon="5.64904">
        <ele>543</ele>
        <time>2022-03-04T17:10:27Z</time>
      </trkpt>
      <trkpt lat="46.59879" lon="5.64901">
        <ele>543</ele>
        <time>2022-03-04T17:10:28Z</time>
      </trkpt>
      <trkpt lat="46.59878" lon="5.64899">
        <ele>543.4</ele>
        <time>2022-03-04T17:10:29Z</time>
      </trkpt>
      <trkpt lat="46.59876" lon="5.64896">
        <ele>543.4</ele>
        <time>2022-03-04T17:10:30Z</time>
      </trkpt>
      <trkpt lat="46.59875" lon="5.64894">
        <ele>543.6</ele>
        <time>2022-03-04T17:10:31Z</time>
      </trkpt>
      <trkpt lat="46.59874" lon="5.64891">
        <ele>543.6</ele>
        <time>2022-03-04T17:10:32Z</time>
      </trkpt>
      <trkpt lat="46.59873" lon="5.64889">
        <ele>543.8</ele>
        <time>2022-03-04T17:10:33Z</time>
      </trkpt>
      <trkpt lat="46.59871" lon="5.64886">
        <ele>543.8</ele>
        <time>2022-03-04T17:10:34Z</time>
      </trkpt>
      <trkpt lat="46.5987" lon="5.64883">
        <ele>544.2</ele>
        <time>2022-03-04T17:10:35Z</time>
      </trkpt>
      <trkpt lat="46.59868" lon="5.64881">
        <ele>544.2</ele>
        <time>2022-03-04T17:10:36Z</time>
      </trkpt>
      <trkpt lat="46.59867" lon="5.64878">
        <ele>544.4</ele>
        <time>2022-03-04T17:10:37Z</time>
      </trkpt>
      <trkpt lat="46.59865" lon="5.64875">
        <ele>544.4</ele>
        <time>2022-03-04T17:10:38Z</time>
      </trkpt>
      <trkpt lat="46.59864" lon="5.64872">
        <ele>544.6</ele>
        <time>2022-03-04T17:10:39Z</time>
      </trkpt>
      <trkpt lat="46.59863" lon="5.64869">
        <ele>544.6</ele>
        <time>2022-03-04T17:10:40Z</time>
      </trkpt>
      <trkpt lat="46.59862" lon="5.64866">
        <ele>544.6</ele>
        <time>2022-03-04T17:10:41Z</time>
      </trkpt>
      <trkpt lat="46.59861" lon="5.64863">
        <ele>544.8</ele>
        <time>2022-03-04T17:10:42Z</time>
      </trkpt>
      <trkpt lat="46.5986" lon="5.6486">
        <ele>544.8</ele>
        <time>2022-03-04T17:10:43Z</time>
      </trkpt>
      <trkpt lat="46.59859" lon="5.64857">
        <ele>545.2</ele>
        <time>2022-03-04T17:10:44Z</time>
      </trkpt>
      <trkpt lat="46.59857" lon="5.64855">
        <ele>545.2</ele>
        <time>2022-03-04T17:10:45Z</time>
      </trkpt>
      <trkpt lat="46.59856" lon="5.64852">
        <ele>545.6</ele>
        <time>2022-03-04T17:10:46Z</time>
      </trkpt>
      <trkpt lat="46.59855" lon="5.6485">
        <ele>545.6</ele>
        <time>2022-03-04T17:10:47Z</time>
      </trkpt>
      <trkpt lat="46.59854" lon="5.64847">
        <ele>545.8</ele>
        <time>2022-03-04T17:10:48Z</time>
      </trkpt>
      <trkpt lat="46.59854" lon="5.64845">
        <ele>545.8</ele>
        <time>2022-03-04T17:10:49Z</time>
      </trkpt>
      <trkpt lat="46.59853" lon="5.64842">
        <ele>546.2</ele>
        <time>2022-03-04T17:10:50Z</time>
      </trkpt>
      <trkpt lat="46.59852" lon="5.6484">
        <ele>546.2</ele>
        <time>2022-03-04T17:10:51Z</time>
      </trkpt>
      <trkpt lat="46.5985" lon="5.64837">
        <ele>546.2</ele>
        <time>2022-03-04T17:10:52Z</time>
      </trkpt>
      <trkpt lat="46.59849" lon="5.64834">
        <ele>546.4</ele>
        <time>2022-03-04T17:10:53Z</time>
      </trkpt>
      <trkpt lat="46.59847" lon="5.64831">
        <ele>546.4</ele>
        <time>2022-03-04T17:10:54Z</time>
      </trkpt>
      <trkpt lat="46.59845" lon="5.64828">
        <ele>546.6</ele>
        <time>2022-03-04T17:10:55Z</time>
      </trkpt>
      <trkpt lat="46.59843" lon="5.64826">
        <ele>546.6</ele>
        <time>2022-03-04T17:10:56Z</time>
      </trkpt>
      <trkpt lat="46.59842" lon="5.64824">
        <ele>547</ele>
        <time>2022-03-04T17:10:57Z</time>
      </trkpt>
      <trkpt lat="46.5984" lon="5.64822">
        <ele>547</ele>
        <time>2022-03-04T17:10:58Z</time>
      </trkpt>
      <trkpt lat="46.59839" lon="5.64819">
        <ele>547.2</ele>
        <time>2022-03-04T17:10:59Z</time>
      </trkpt>
      <trkpt lat="46.59837" lon="5.64817">
        <ele>547.6</ele>
        <time>2022-03-04T17:11:00Z</time>
      </trkpt>
      <trkpt lat="46.59835" lon="5.64814">
        <ele>547.6</ele>
        <time>2022-03-04T17:11:01Z</time>
      </trkpt>
      <trkpt lat="46.59834" lon="5.64812">
        <ele>547.8</ele>
        <time>2022-03-04T17:11:02Z</time>
      </trkpt>
      <trkpt lat="46.59832" lon="5.6481">
        <ele>547.8</ele>
        <time>2022-03-04T17:11:03Z</time>
      </trkpt>
      <trkpt lat="46.5983" lon="5.64807">
        <ele>548.2</ele>
        <time>2022-03-04T17:11:04Z</time>
      </trkpt>
      <trkpt lat="46.59829" lon="5.64805">
        <ele>548.2</ele>
        <time>2022-03-04T17:11:05Z</time>
      </trkpt>
      <trkpt lat="46.59827" lon="5.64802">
        <ele>548.2</ele>
        <time>2022-03-04T17:11:06Z</time>
      </trkpt>
      <trkpt lat="46.59825" lon="5.648">
        <ele>548.4</ele>
        <time>2022-03-04T17:11:07Z</time>
      </trkpt>
      <trkpt lat="46.59824" lon="5.64798">
        <ele>548.4</ele>
        <time>2022-03-04T17:11:08Z</time>
      </trkpt>
      <trkpt lat="46.59822" lon="5.64795">
        <ele>548.6</ele>
        <time>2022-03-04T17:11:09Z</time>
      </trkpt>
      <trkpt lat="46.5982" lon="5.64793">
        <ele>548.6</ele>
        <time>2022-03-04T17:11:10Z</time>
      </trkpt>
      <trkpt lat="46.59818" lon="5.6479">
        <ele>548.6</ele>
        <time>2022-03-04T17:11:11Z</time>
      </trkpt>
      <trkpt lat="46.59816" lon="5.64787">
        <ele>548.6</ele>
        <time>2022-03-04T17:11:12Z</time>
      </trkpt>
      <trkpt lat="46.59815" lon="5.64785">
        <ele>548.8</ele>
        <time>2022-03-04T17:11:13Z</time>
      </trkpt>
      <trkpt lat="46.59813" lon="5.64783">
        <ele>548.8</ele>
        <time>2022-03-04T17:11:14Z</time>
      </trkpt>
      <trkpt lat="46.59811" lon="5.6478">
        <ele>549</ele>
        <time>2022-03-04T17:11:15Z</time>
      </trkpt>
      <trkpt lat="46.59809" lon="5.64778">
        <ele>549</ele>
        <time>2022-03-04T17:11:16Z</time>
      </trkpt>
      <trkpt lat="46.59808" lon="5.64776">
        <ele>549.2</ele>
        <time>2022-03-04T17:11:17Z</time>
      </trkpt>
      <trkpt lat="46.59806" lon="5.64773">
        <ele>549.2</ele>
        <time>2022-03-04T17:11:18Z</time>
      </trkpt>
      <trkpt lat="46.59804" lon="5.64771">
        <ele>549.2</ele>
        <time>2022-03-04T17:11:19Z</time>
      </trkpt>
      <trkpt lat="46.59802" lon="5.64769">
        <ele>549.6</ele>
        <time>2022-03-04T17:11:20Z</time>
      </trkpt>
      <trkpt lat="46.59801" lon="5.64767">
        <ele>549.6</ele>
        <time>2022-03-04T17:11:21Z</time>
      </trkpt>
      <trkpt lat="46.59799" lon="5.64764">
        <ele>549.6</ele>
        <time>2022-03-04T17:11:22Z</time>
      </trkpt>
      <trkpt lat="46.59798" lon="5.64762">
        <ele>550</ele>
        <time>2022-03-04T17:11:23Z</time>
      </trkpt>
      <trkpt lat="46.59796" lon="5.6476">
        <ele>550</ele>
        <time>2022-03-04T17:11:24Z</time>
      </trkpt>
      <trkpt lat="46.59795" lon="5.64758">
        <ele>550.2</ele>
        <time>2022-03-04T17:11:25Z</time>
      </trkpt>
      <trkpt lat="46.59793" lon="5.64755">
        <ele>550.2</ele>
        <time>2022-03-04T17:11:26Z</time>
      </trkpt>
      <trkpt lat="46.59791" lon="5.64753">
        <ele>550.2</ele>
        <time>2022-03-04T17:11:27Z</time>
      </trkpt>
      <trkpt lat="46.59789" lon="5.64751">
        <ele>550.4</ele>
        <time>2022-03-04T17:11:28Z</time>
      </trkpt>
      <trkpt lat="46.59788" lon="5.64749">
        <ele>550.4</ele>
        <time>2022-03-04T17:11:29Z</time>
      </trkpt>
      <trkpt lat="46.59786" lon="5.64747">
        <ele>550.6</ele>
        <time>2022-03-04T17:11:30Z</time>
      </trkpt>
      <trkpt lat="46.59783" lon="5.64742">
        <ele>550.6</ele>
        <time>2022-03-04T17:11:31Z</time>
      </trkpt>
      <trkpt lat="46.59782" lon="5.64739">
        <ele>550.8</ele>
        <time>2022-03-04T17:11:32Z</time>
      </trkpt>
      <trkpt lat="46.5978" lon="5.64736">
        <ele>550.8</ele>
        <time>2022-03-04T17:11:33Z</time>
      </trkpt>
      <trkpt lat="46.59778" lon="5.64733">
        <ele>550.8</ele>
        <time>2022-03-04T17:11:34Z</time>
      </trkpt>
      <trkpt lat="46.59777" lon="5.64731">
        <ele>551.2</ele>
        <time>2022-03-04T17:11:35Z</time>
      </trkpt>
      <trkpt lat="46.59775" lon="5.64728">
        <ele>551.2</ele>
        <time>2022-03-04T17:11:36Z</time>
      </trkpt>
      <trkpt lat="46.59774" lon="5.64725">
        <ele>551.4</ele>
        <time>2022-03-04T17:11:37Z</time>
      </trkpt>
      <trkpt lat="46.59772" lon="5.64723">
        <ele>551.4</ele>
        <time>2022-03-04T17:11:38Z</time>
      </trkpt>
      <trkpt lat="46.5977" lon="5.6472">
        <ele>551.8</ele>
        <time>2022-03-04T17:11:39Z</time>
      </trkpt>
      <trkpt lat="46.59769" lon="5.64718">
        <ele>551.8</ele>
        <time>2022-03-04T17:11:40Z</time>
      </trkpt>
      <trkpt lat="46.59767" lon="5.64715">
        <ele>552</ele>
        <time>2022-03-04T17:11:41Z</time>
      </trkpt>
      <trkpt lat="46.59766" lon="5.64713">
        <ele>552</ele>
        <time>2022-03-04T17:11:42Z</time>
      </trkpt>
      <trkpt lat="46.59764" lon="5.6471">
        <ele>552</ele>
        <time>2022-03-04T17:11:43Z</time>
      </trkpt>
      <trkpt lat="46.59763" lon="5.64708">
        <ele>552.2</ele>
        <time>2022-03-04T17:11:44Z</time>
      </trkpt>
      <trkpt lat="46.59762" lon="5.64705">
        <ele>552.2</ele>
        <time>2022-03-04T17:11:45Z</time>
      </trkpt>
      <trkpt lat="46.59761" lon="5.64702">
        <ele>552.6</ele>
        <time>2022-03-04T17:11:46Z</time>
      </trkpt>
      <trkpt lat="46.5976" lon="5.64699">
        <ele>552.6</ele>
        <time>2022-03-04T17:11:47Z</time>
      </trkpt>
      <trkpt lat="46.59759" lon="5.64696">
        <ele>552.8</ele>
        <time>2022-03-04T17:11:48Z</time>
      </trkpt>
      <trkpt lat="46.59757" lon="5.64694">
        <ele>552.8</ele>
        <time>2022-03-04T17:11:49Z</time>
      </trkpt>
      <trkpt lat="46.59756" lon="5.64691">
        <ele>553</ele>
        <time>2022-03-04T17:11:50Z</time>
      </trkpt>
      <trkpt lat="46.59755" lon="5.64687">
        <ele>553</ele>
        <time>2022-03-04T17:11:51Z</time>
      </trkpt>
      <trkpt lat="46.59753" lon="5.64684">
        <ele>553</ele>
        <time>2022-03-04T17:11:52Z</time>
      </trkpt>
      <trkpt lat="46.59752" lon="5.64681">
        <ele>553.4</ele>
        <time>2022-03-04T17:11:53Z</time>
      </trkpt>
      <trkpt lat="46.59751" lon="5.64677">
        <ele>553.4</ele>
        <time>2022-03-04T17:11:54Z</time>
      </trkpt>
      <trkpt lat="46.5975" lon="5.64674">
        <ele>553.6</ele>
        <time>2022-03-04T17:11:55Z</time>
      </trkpt>
      <trkpt lat="46.59749" lon="5.6467">
        <ele>553.6</ele>
        <time>2022-03-04T17:11:56Z</time>
      </trkpt>
      <trkpt lat="46.59748" lon="5.64666">
        <ele>553.6</ele>
        <time>2022-03-04T17:11:57Z</time>
      </trkpt>
      <trkpt lat="46.59747" lon="5.64662">
        <ele>553.8</ele>
        <time>2022-03-04T17:11:58Z</time>
      </trkpt>
      <trkpt lat="46.59746" lon="5.64658">
        <ele>553.8</ele>
        <time>2022-03-04T17:11:59Z</time>
      </trkpt>
      <trkpt lat="46.59745" lon="5.64654">
        <ele>554.2</ele>
        <time>2022-03-04T17:12:00Z</time>
      </trkpt>
      <trkpt lat="46.59744" lon="5.6465">
        <ele>554.2</ele>
        <time>2022-03-04T17:12:01Z</time>
      </trkpt>
      <trkpt lat="46.59744" lon="5.64646">
        <ele>554.4</ele>
        <time>2022-03-04T17:12:02Z</time>
      </trkpt>
      <trkpt lat="46.59743" lon="5.64643">
        <ele>554.4</ele>
        <time>2022-03-04T17:12:03Z</time>
      </trkpt>
      <trkpt lat="46.59743" lon="5.64639">
        <ele>554.4</ele>
        <time>2022-03-04T17:12:04Z</time>
      </trkpt>
      <trkpt lat="46.59742" lon="5.64635">
        <ele>554.6</ele>
        <time>2022-03-04T17:12:05Z</time>
      </trkpt>
      <trkpt lat="46.59742" lon="5.64632">
        <ele>554.6</ele>
        <time>2022-03-04T17:12:06Z</time>
      </trkpt>
      <trkpt lat="46.59741" lon="5.64628">
        <ele>554.6</ele>
        <time>2022-03-04T17:12:07Z</time>
      </trkpt>
      <trkpt lat="46.59741" lon="5.64625">
        <ele>554.8</ele>
        <time>2022-03-04T17:12:08Z</time>
      </trkpt>
      <trkpt lat="46.5974" lon="5.64621">
        <ele>554.8</ele>
        <time>2022-03-04T17:12:09Z</time>
      </trkpt>
      <trkpt lat="46.5974" lon="5.64617">
        <ele>554.8</ele>
        <time>2022-03-04T17:12:10Z</time>
      </trkpt>
      <trkpt lat="46.5974" lon="5.64613">
        <ele>555</ele>
        <time>2022-03-04T17:12:11Z</time>
      </trkpt>
      <trkpt lat="46.59739" lon="5.64609">
        <ele>555</ele>
        <time>2022-03-04T17:12:12Z</time>
      </trkpt>
      <trkpt lat="46.59739" lon="5.64604">
        <ele>555</ele>
        <time>2022-03-04T17:12:13Z</time>
      </trkpt>
      <trkpt lat="46.59739" lon="5.646">
        <ele>555</ele>
        <time>2022-03-04T17:12:14Z</time>
      </trkpt>
      <trkpt lat="46.59739" lon="5.64595">
        <ele>555.2</ele>
        <time>2022-03-04T17:12:15Z</time>
      </trkpt>
      <trkpt lat="46.59739" lon="5.6459">
        <ele>555.2</ele>
        <time>2022-03-04T17:12:16Z</time>
      </trkpt>
      <trkpt lat="46.59739" lon="5.64586">
        <ele>555.2</ele>
        <time>2022-03-04T17:12:17Z</time>
      </trkpt>
      <trkpt lat="46.5974" lon="5.64581">
        <ele>555.6</ele>
        <time>2022-03-04T17:12:18Z</time>
      </trkpt>
      <trkpt lat="46.5974" lon="5.64577">
        <ele>555.6</ele>
        <time>2022-03-04T17:12:19Z</time>
      </trkpt>
      <trkpt lat="46.5974" lon="5.64573">
        <ele>555.6</ele>
        <time>2022-03-04T17:12:20Z</time>
      </trkpt>
      <trkpt lat="46.59741" lon="5.64568">
        <ele>555.6</ele>
        <time>2022-03-04T17:12:21Z</time>
      </trkpt>
      <trkpt lat="46.59742" lon="5.64563">
        <ele>555.6</ele>
        <time>2022-03-04T17:12:22Z</time>
      </trkpt>
      <trkpt lat="46.59743" lon="5.64558">
        <ele>555.6</ele>
        <time>2022-03-04T17:12:23Z</time>
      </trkpt>
      <trkpt lat="46.59744" lon="5.64553">
        <ele>555.6</ele>
        <time>2022-03-04T17:12:24Z</time>
      </trkpt>
      <trkpt lat="46.59745" lon="5.64549">
        <ele>555.6</ele>
        <time>2022-03-04T17:12:25Z</time>
      </trkpt>
      <trkpt lat="46.59746" lon="5.64544">
        <ele>555.6</ele>
        <time>2022-03-04T17:12:26Z</time>
      </trkpt>
      <trkpt lat="46.59748" lon="5.64539">
        <ele>555.6</ele>
        <time>2022-03-04T17:12:27Z</time>
      </trkpt>
      <trkpt lat="46.59749" lon="5.64534">
        <ele>555.6</ele>
        <time>2022-03-04T17:12:28Z</time>
      </trkpt>
      <trkpt lat="46.59751" lon="5.64528">
        <ele>555.8</ele>
        <time>2022-03-04T17:12:29Z</time>
      </trkpt>
      <trkpt lat="46.59753" lon="5.64523">
        <ele>555.8</ele>
        <time>2022-03-04T17:12:30Z</time>
      </trkpt>
      <trkpt lat="46.59755" lon="5.64518">
        <ele>555.8</ele>
        <time>2022-03-04T17:12:31Z</time>
      </trkpt>
      <trkpt lat="46.59758" lon="5.64512">
        <ele>555.8</ele>
        <time>2022-03-04T17:12:32Z</time>
      </trkpt>
      <trkpt lat="46.59761" lon="5.64506">
        <ele>555.8</ele>
        <time>2022-03-04T17:12:33Z</time>
      </trkpt>
      <trkpt lat="46.59763" lon="5.645">
        <ele>555.8</ele>
        <time>2022-03-04T17:12:34Z</time>
      </trkpt>
      <trkpt lat="46.59766" lon="5.64494">
        <ele>555.4</ele>
        <time>2022-03-04T17:12:35Z</time>
      </trkpt>
      <trkpt lat="46.59769" lon="5.64487">
        <ele>555.4</ele>
        <time>2022-03-04T17:12:36Z</time>
      </trkpt>
      <trkpt lat="46.59773" lon="5.6448">
        <ele>555.2</ele>
        <time>2022-03-04T17:12:37Z</time>
      </trkpt>
      <trkpt lat="46.59776" lon="5.64472">
        <ele>555.2</ele>
        <time>2022-03-04T17:12:38Z</time>
      </trkpt>
      <trkpt lat="46.59779" lon="5.64465">
        <ele>554.8</ele>
        <time>2022-03-04T17:12:39Z</time>
      </trkpt>
      <trkpt lat="46.59782" lon="5.64457">
        <ele>554.4</ele>
        <time>2022-03-04T17:12:40Z</time>
      </trkpt>
      <trkpt lat="46.59785" lon="5.64449">
        <ele>554.2</ele>
        <time>2022-03-04T17:12:41Z</time>
      </trkpt>
      <trkpt lat="46.59789" lon="5.64441">
        <ele>553.6</ele>
        <time>2022-03-04T17:12:42Z</time>
      </trkpt>
      <trkpt lat="46.59792" lon="5.64433">
        <ele>553.2</ele>
        <time>2022-03-04T17:12:43Z</time>
      </trkpt>
      <trkpt lat="46.59796" lon="5.64425">
        <ele>553</ele>
        <time>2022-03-04T17:12:44Z</time>
      </trkpt>
      <trkpt lat="46.598" lon="5.64417">
        <ele>552.8</ele>
        <time>2022-03-04T17:12:45Z</time>
      </trkpt>
      <trkpt lat="46.59804" lon="5.64409">
        <ele>552.6</ele>
        <time>2022-03-04T17:12:46Z</time>
      </trkpt>
      <trkpt lat="46.59808" lon="5.64401">
        <ele>552.4</ele>
        <time>2022-03-04T17:12:47Z</time>
      </trkpt>
      <trkpt lat="46.59812" lon="5.64393">
        <ele>552</ele>
        <time>2022-03-04T17:12:48Z</time>
      </trkpt>
      <trkpt lat="46.59815" lon="5.64384">
        <ele>551.8</ele>
        <time>2022-03-04T17:12:49Z</time>
      </trkpt>
      <trkpt lat="46.59819" lon="5.64376">
        <ele>551.4</ele>
        <time>2022-03-04T17:12:50Z</time>
      </trkpt>
      <trkpt lat="46.59823" lon="5.64367">
        <ele>551</ele>
        <time>2022-03-04T17:12:51Z</time>
      </trkpt>
      <trkpt lat="46.59827" lon="5.64358">
        <ele>550.8</ele>
        <time>2022-03-04T17:12:52Z</time>
      </trkpt>
      <trkpt lat="46.59831" lon="5.64349">
        <ele>550.6</ele>
        <time>2022-03-04T17:12:53Z</time>
      </trkpt>
      <trkpt lat="46.59836" lon="5.64341">
        <ele>550.4</ele>
        <time>2022-03-04T17:12:54Z</time>
      </trkpt>
      <trkpt lat="46.5984" lon="5.64332">
        <ele>550</ele>
        <time>2022-03-04T17:12:55Z</time>
      </trkpt>
      <trkpt lat="46.59845" lon="5.64324">
        <ele>549.8</ele>
        <time>2022-03-04T17:12:56Z</time>
      </trkpt>
      <trkpt lat="46.59848" lon="5.64315">
        <ele>549.4</ele>
        <time>2022-03-04T17:12:57Z</time>
      </trkpt>
      <trkpt lat="46.59852" lon="5.64305">
        <ele>549.2</ele>
        <time>2022-03-04T17:12:58Z</time>
      </trkpt>
      <trkpt lat="46.59856" lon="5.64297">
        <ele>548.6</ele>
        <time>2022-03-04T17:12:59Z</time>
      </trkpt>
      <trkpt lat="46.5986" lon="5.64288">
        <ele>548.4</ele>
        <time>2022-03-04T17:13:00Z</time>
      </trkpt>
      <trkpt lat="46.59865" lon="5.6428">
        <ele>548</ele>
        <time>2022-03-04T17:13:01Z</time>
      </trkpt>
      <trkpt lat="46.5987" lon="5.64272">
        <ele>547.8</ele>
        <time>2022-03-04T17:13:02Z</time>
      </trkpt>
      <trkpt lat="46.59875" lon="5.64264">
        <ele>547.6</ele>
        <time>2022-03-04T17:13:03Z</time>
      </trkpt>
      <trkpt lat="46.59879" lon="5.64256">
        <ele>547.4</ele>
        <time>2022-03-04T17:13:04Z</time>
      </trkpt>
      <trkpt lat="46.59883" lon="5.64247">
        <ele>547.2</ele>
        <time>2022-03-04T17:13:05Z</time>
      </trkpt>
      <trkpt lat="46.59887" lon="5.64239">
        <ele>547</ele>
        <time>2022-03-04T17:13:06Z</time>
      </trkpt>
      <trkpt lat="46.59891" lon="5.64231">
        <ele>546.6</ele>
        <time>2022-03-04T17:13:07Z</time>
      </trkpt>
      <trkpt lat="46.59895" lon="5.64223">
        <ele>546.6</ele>
        <time>2022-03-04T17:13:08Z</time>
      </trkpt>
      <trkpt lat="46.59899" lon="5.64215">
        <ele>546.2</ele>
        <time>2022-03-04T17:13:09Z</time>
      </trkpt>
      <trkpt lat="46.59899" lon="5.64215">
        <ele>546.2</ele>
        <time>2022-03-04T17:13:10Z</time>
      </trkpt>
      <trkpt lat="46.59903" lon="5.64208">
        <ele>546</ele>
        <time>2022-03-04T17:13:11Z</time>
      </trkpt>
      <trkpt lat="46.59906" lon="5.64201">
        <ele>546</ele>
        <time>2022-03-04T17:13:12Z</time>
      </trkpt>
      <trkpt lat="46.5991" lon="5.64194">
        <ele>546</ele>
        <time>2022-03-04T17:13:13Z</time>
      </trkpt>
      <trkpt lat="46.59913" lon="5.64187">
        <ele>546</ele>
        <time>2022-03-04T17:13:14Z</time>
      </trkpt>
      <trkpt lat="46.59917" lon="5.6418">
        <ele>546</ele>
        <time>2022-03-04T17:13:15Z</time>
      </trkpt>
      <trkpt lat="46.5992" lon="5.64174">
        <ele>546</ele>
        <time>2022-03-04T17:13:16Z</time>
      </trkpt>
      <trkpt lat="46.59924" lon="5.64168">
        <ele>546</ele>
        <time>2022-03-04T17:13:17Z</time>
      </trkpt>
      <trkpt lat="46.59927" lon="5.64162">
        <ele>546</ele>
        <time>2022-03-04T17:13:18Z</time>
      </trkpt>
      <trkpt lat="46.59929" lon="5.64156">
        <ele>546</ele>
        <time>2022-03-04T17:13:19Z</time>
      </trkpt>
      <trkpt lat="46.59932" lon="5.6415">
        <ele>546</ele>
        <time>2022-03-04T17:13:20Z</time>
      </trkpt>
      <trkpt lat="46.59935" lon="5.64145">
        <ele>546</ele>
        <time>2022-03-04T17:13:21Z</time>
      </trkpt>
      <trkpt lat="46.59938" lon="5.64139">
        <ele>546</ele>
        <time>2022-03-04T17:13:22Z</time>
      </trkpt>
      <trkpt lat="46.59941" lon="5.64134">
        <ele>546.4</ele>
        <time>2022-03-04T17:13:23Z</time>
      </trkpt>
      <trkpt lat="46.59943" lon="5.64129">
        <ele>546.4</ele>
        <time>2022-03-04T17:13:24Z</time>
      </trkpt>
      <trkpt lat="46.59946" lon="5.64124">
        <ele>546.4</ele>
        <time>2022-03-04T17:13:25Z</time>
      </trkpt>
      <trkpt lat="46.59948" lon="5.64119">
        <ele>546.4</ele>
        <time>2022-03-04T17:13:26Z</time>
      </trkpt>
      <trkpt lat="46.59951" lon="5.64115">
        <ele>546.4</ele>
        <time>2022-03-04T17:13:27Z</time>
      </trkpt>
      <trkpt lat="46.59953" lon="5.6411">
        <ele>546.6</ele>
        <time>2022-03-04T17:13:28Z</time>
      </trkpt>
      <trkpt lat="46.59956" lon="5.64105">
        <ele>546.6</ele>
        <time>2022-03-04T17:13:29Z</time>
      </trkpt>
      <trkpt lat="46.59958" lon="5.64101">
        <ele>546.6</ele>
        <time>2022-03-04T17:13:30Z</time>
      </trkpt>
      <trkpt lat="46.59961" lon="5.64097">
        <ele>547</ele>
        <time>2022-03-04T17:13:31Z</time>
      </trkpt>
      <trkpt lat="46.59963" lon="5.64092">
        <ele>547</ele>
        <time>2022-03-04T17:13:32Z</time>
      </trkpt>
      <trkpt lat="46.59965" lon="5.64088">
        <ele>547.2</ele>
        <time>2022-03-04T17:13:33Z</time>
      </trkpt>
      <trkpt lat="46.59968" lon="5.64083">
        <ele>547.2</ele>
        <time>2022-03-04T17:13:34Z</time>
      </trkpt>
      <trkpt lat="46.5997" lon="5.64078">
        <ele>547.2</ele>
        <time>2022-03-04T17:13:35Z</time>
      </trkpt>
      <trkpt lat="46.59972" lon="5.64073">
        <ele>547.2</ele>
        <time>2022-03-04T17:13:36Z</time>
      </trkpt>
      <trkpt lat="46.59975" lon="5.64068">
        <ele>547.4</ele>
        <time>2022-03-04T17:13:37Z</time>
      </trkpt>
      <trkpt lat="46.59977" lon="5.64063">
        <ele>547.4</ele>
        <time>2022-03-04T17:13:38Z</time>
      </trkpt>
      <trkpt lat="46.5998" lon="5.64058">
        <ele>547.4</ele>
        <time>2022-03-04T17:13:39Z</time>
      </trkpt>
      <trkpt lat="46.59982" lon="5.64053">
        <ele>547.4</ele>
        <time>2022-03-04T17:13:40Z</time>
      </trkpt>
      <trkpt lat="46.59985" lon="5.64048">
        <ele>547.4</ele>
        <time>2022-03-04T17:13:41Z</time>
      </trkpt>
      <trkpt lat="46.59987" lon="5.64042">
        <ele>547.4</ele>
        <time>2022-03-04T17:13:42Z</time>
      </trkpt>
      <trkpt lat="46.5999" lon="5.64037">
        <ele>547.4</ele>
        <time>2022-03-04T17:13:43Z</time>
      </trkpt>
      <trkpt lat="46.59993" lon="5.64032">
        <ele>547.4</ele>
        <time>2022-03-04T17:13:44Z</time>
      </trkpt>
      <trkpt lat="46.59996" lon="5.64026">
        <ele>547.6</ele>
        <time>2022-03-04T17:13:45Z</time>
      </trkpt>
      <trkpt lat="46.59998" lon="5.64021">
        <ele>547.6</ele>
        <time>2022-03-04T17:13:46Z</time>
      </trkpt>
      <trkpt lat="46.60001" lon="5.64015">
        <ele>547.6</ele>
        <time>2022-03-04T17:13:47Z</time>
      </trkpt>
      <trkpt lat="46.60004" lon="5.6401">
        <ele>547.4</ele>
        <time>2022-03-04T17:13:48Z</time>
      </trkpt>
      <trkpt lat="46.60007" lon="5.64005">
        <ele>547.4</ele>
        <time>2022-03-04T17:13:49Z</time>
      </trkpt>
      <trkpt lat="46.60009" lon="5.63999">
        <ele>547.2</ele>
        <time>2022-03-04T17:13:50Z</time>
      </trkpt>
      <trkpt lat="46.60012" lon="5.63994">
        <ele>547.2</ele>
        <time>2022-03-04T17:13:51Z</time>
      </trkpt>
      <trkpt lat="46.60015" lon="5.63989">
        <ele>547</ele>
        <time>2022-03-04T17:13:52Z</time>
      </trkpt>
      <trkpt lat="46.60018" lon="5.63983">
        <ele>547</ele>
        <time>2022-03-04T17:13:53Z</time>
      </trkpt>
      <trkpt lat="46.60021" lon="5.63977">
        <ele>547</ele>
        <time>2022-03-04T17:13:54Z</time>
      </trkpt>
      <trkpt lat="46.60023" lon="5.63971">
        <ele>547</ele>
        <time>2022-03-04T17:13:55Z</time>
      </trkpt>
      <trkpt lat="46.60026" lon="5.63965">
        <ele>546.8</ele>
        <time>2022-03-04T17:13:56Z</time>
      </trkpt>
      <trkpt lat="46.60029" lon="5.63958">
        <ele>546.8</ele>
        <time>2022-03-04T17:13:57Z</time>
      </trkpt>
      <trkpt lat="46.60032" lon="5.63952">
        <ele>546.8</ele>
        <time>2022-03-04T17:13:58Z</time>
      </trkpt>
      <trkpt lat="46.60035" lon="5.63945">
        <ele>546.4</ele>
        <time>2022-03-04T17:13:59Z</time>
      </trkpt>
      <trkpt lat="46.60038" lon="5.63938">
        <ele>546.4</ele>
        <time>2022-03-04T17:14:00Z</time>
      </trkpt>
      <trkpt lat="46.60042" lon="5.6393">
        <ele>546</ele>
        <time>2022-03-04T17:14:01Z</time>
      </trkpt>
      <trkpt lat="46.60045" lon="5.63924">
        <ele>546</ele>
        <time>2022-03-04T17:14:02Z</time>
      </trkpt>
      <trkpt lat="46.60048" lon="5.63917">
        <ele>546</ele>
        <time>2022-03-04T17:14:03Z</time>
      </trkpt>
      <trkpt lat="46.60049" lon="5.6391">
        <ele>545.8</ele>
        <time>2022-03-04T17:14:04Z</time>
      </trkpt>
      <trkpt lat="46.60049" lon="5.63902">
        <ele>545.8</ele>
        <time>2022-03-04T17:14:05Z</time>
      </trkpt>
      <trkpt lat="46.60048" lon="5.63895">
        <ele>545.4</ele>
        <time>2022-03-04T17:14:06Z</time>
      </trkpt>
      <trkpt lat="46.60045" lon="5.63889">
        <ele>545.4</ele>
        <time>2022-03-04T17:14:07Z</time>
      </trkpt>
      <trkpt lat="46.60042" lon="5.63883">
        <ele>545.2</ele>
        <time>2022-03-04T17:14:08Z</time>
      </trkpt>
      <trkpt lat="46.60037" lon="5.63877">
        <ele>545.2</ele>
        <time>2022-03-04T17:14:09Z</time>
      </trkpt>
      <trkpt lat="46.60033" lon="5.63872">
        <ele>545</ele>
        <time>2022-03-04T17:14:10Z</time>
      </trkpt>
      <trkpt lat="46.60028" lon="5.63868">
        <ele>545</ele>
        <time>2022-03-04T17:14:11Z</time>
      </trkpt>
      <trkpt lat="46.60023" lon="5.63864">
        <ele>545</ele>
        <time>2022-03-04T17:14:12Z</time>
      </trkpt>
      <trkpt lat="46.60019" lon="5.63859">
        <ele>545</ele>
        <time>2022-03-04T17:14:13Z</time>
      </trkpt>
      <trkpt lat="46.60014" lon="5.63854">
        <ele>544.6</ele>
        <time>2022-03-04T17:14:14Z</time>
      </trkpt>
      <trkpt lat="46.6001" lon="5.6385">
        <ele>544.6</ele>
        <time>2022-03-04T17:14:15Z</time>
      </trkpt>
      <trkpt lat="46.60005" lon="5.63845">
        <ele>544.6</ele>
        <time>2022-03-04T17:14:16Z</time>
      </trkpt>
      <trkpt lat="46.60001" lon="5.6384">
        <ele>544.4</ele>
        <time>2022-03-04T17:14:17Z</time>
      </trkpt>
      <trkpt lat="46.59996" lon="5.63835">
        <ele>544.4</ele>
        <time>2022-03-04T17:14:18Z</time>
      </trkpt>
      <trkpt lat="46.59991" lon="5.6383">
        <ele>544</ele>
        <time>2022-03-04T17:14:19Z</time>
      </trkpt>
      <trkpt lat="46.59986" lon="5.63825">
        <ele>544</ele>
        <time>2022-03-04T17:14:20Z</time>
      </trkpt>
      <trkpt lat="46.59981" lon="5.6382">
        <ele>543.8</ele>
        <time>2022-03-04T17:14:21Z</time>
      </trkpt>
      <trkpt lat="46.59976" lon="5.63815">
        <ele>543.8</ele>
        <time>2022-03-04T17:14:22Z</time>
      </trkpt>
      <trkpt lat="46.59971" lon="5.6381">
        <ele>543.6</ele>
        <time>2022-03-04T17:14:23Z</time>
      </trkpt>
      <trkpt lat="46.59966" lon="5.63805">
        <ele>543.6</ele>
        <time>2022-03-04T17:14:24Z</time>
      </trkpt>
      <trkpt lat="46.5996" lon="5.638">
        <ele>543.2</ele>
        <time>2022-03-04T17:14:25Z</time>
      </trkpt>
      <trkpt lat="46.59955" lon="5.63795">
        <ele>543</ele>
        <time>2022-03-04T17:14:26Z</time>
      </trkpt>
      <trkpt lat="46.59949" lon="5.63789">
        <ele>542.6</ele>
        <time>2022-03-04T17:14:27Z</time>
      </trkpt>
      <trkpt lat="46.59944" lon="5.63783">
        <ele>542.4</ele>
        <time>2022-03-04T17:14:28Z</time>
      </trkpt>
      <trkpt lat="46.59938" lon="5.63777">
        <ele>542.2</ele>
        <time>2022-03-04T17:14:29Z</time>
      </trkpt>
      <trkpt lat="46.59932" lon="5.63771">
        <ele>541.8</ele>
        <time>2022-03-04T17:14:30Z</time>
      </trkpt>
      <trkpt lat="46.59927" lon="5.63764">
        <ele>541.6</ele>
        <time>2022-03-04T17:14:31Z</time>
      </trkpt>
      <trkpt lat="46.59922" lon="5.63757">
        <ele>541.6</ele>
        <time>2022-03-04T17:14:32Z</time>
      </trkpt>
      <trkpt lat="46.59918" lon="5.6375">
        <ele>541.6</ele>
        <time>2022-03-04T17:14:33Z</time>
      </trkpt>
      <trkpt lat="46.59914" lon="5.63743">
        <ele>541.4</ele>
        <time>2022-03-04T17:14:34Z</time>
      </trkpt>
      <trkpt lat="46.59911" lon="5.63735">
        <ele>541.4</ele>
        <time>2022-03-04T17:14:35Z</time>
      </trkpt>
      <trkpt lat="46.59907" lon="5.63728">
        <ele>541.4</ele>
        <time>2022-03-04T17:14:36Z</time>
      </trkpt>
      <trkpt lat="46.59904" lon="5.63721">
        <ele>541.4</ele>
        <time>2022-03-04T17:14:37Z</time>
      </trkpt>
      <trkpt lat="46.59901" lon="5.63713">
        <ele>541.2</ele>
        <time>2022-03-04T17:14:38Z</time>
      </trkpt>
      <trkpt lat="46.59898" lon="5.63706">
        <ele>541.2</ele>
        <time>2022-03-04T17:14:39Z</time>
      </trkpt>
      <trkpt lat="46.59896" lon="5.63699">
        <ele>541.2</ele>
        <time>2022-03-04T17:14:40Z</time>
      </trkpt>
      <trkpt lat="46.59893" lon="5.63691">
        <ele>541.2</ele>
        <time>2022-03-04T17:14:41Z</time>
      </trkpt>
      <trkpt lat="46.59891" lon="5.63684">
        <ele>541.2</ele>
        <time>2022-03-04T17:14:42Z</time>
      </trkpt>
      <trkpt lat="46.59888" lon="5.63677">
        <ele>541.2</ele>
        <time>2022-03-04T17:14:43Z</time>
      </trkpt>
      <trkpt lat="46.59886" lon="5.6367">
        <ele>541.2</ele>
        <time>2022-03-04T17:14:44Z</time>
      </trkpt>
      <trkpt lat="46.59883" lon="5.63663">
        <ele>541.2</ele>
        <time>2022-03-04T17:14:45Z</time>
      </trkpt>
      <trkpt lat="46.59881" lon="5.63657">
        <ele>541.2</ele>
        <time>2022-03-04T17:14:46Z</time>
      </trkpt>
      <trkpt lat="46.59879" lon="5.63651">
        <ele>541.2</ele>
        <time>2022-03-04T17:14:47Z</time>
      </trkpt>
      <trkpt lat="46.59877" lon="5.63644">
        <ele>541.4</ele>
        <time>2022-03-04T17:14:48Z</time>
      </trkpt>
      <trkpt lat="46.59874" lon="5.63638">
        <ele>541.4</ele>
        <time>2022-03-04T17:14:49Z</time>
      </trkpt>
      <trkpt lat="46.59872" lon="5.63632">
        <ele>541.4</ele>
        <time>2022-03-04T17:14:50Z</time>
      </trkpt>
      <trkpt lat="46.5987" lon="5.63626">
        <ele>541.4</ele>
        <time>2022-03-04T17:14:51Z</time>
      </trkpt>
      <trkpt lat="46.59868" lon="5.6362">
        <ele>541.4</ele>
        <time>2022-03-04T17:14:52Z</time>
      </trkpt>
      <trkpt lat="46.59866" lon="5.63614">
        <ele>541.4</ele>
        <time>2022-03-04T17:14:53Z</time>
      </trkpt>
      <trkpt lat="46.59864" lon="5.63608">
        <ele>541.6</ele>
        <time>2022-03-04T17:14:54Z</time>
      </trkpt>
      <trkpt lat="46.59862" lon="5.63602">
        <ele>541.6</ele>
        <time>2022-03-04T17:14:55Z</time>
      </trkpt>
      <trkpt lat="46.59859" lon="5.63596">
        <ele>541.6</ele>
        <time>2022-03-04T17:14:56Z</time>
      </trkpt>
      <trkpt lat="46.59857" lon="5.63591">
        <ele>541.6</ele>
        <time>2022-03-04T17:14:57Z</time>
      </trkpt>
      <trkpt lat="46.59854" lon="5.63585">
        <ele>542</ele>
        <time>2022-03-04T17:14:58Z</time>
      </trkpt>
      <trkpt lat="46.59852" lon="5.6358">
        <ele>542.2</ele>
        <time>2022-03-04T17:14:59Z</time>
      </trkpt>
      <trkpt lat="46.59849" lon="5.63575">
        <ele>542.4</ele>
        <time>2022-03-04T17:15:00Z</time>
      </trkpt>
      <trkpt lat="46.59845" lon="5.63571">
        <ele>542.8</ele>
        <time>2022-03-04T17:15:01Z</time>
      </trkpt>
      <trkpt lat="46.59841" lon="5.63568">
        <ele>542.8</ele>
        <time>2022-03-04T17:15:02Z</time>
      </trkpt>
      <trkpt lat="46.59838" lon="5.63564">
        <ele>543</ele>
        <time>2022-03-04T17:15:03Z</time>
      </trkpt>
      <trkpt lat="46.59834" lon="5.6356">
        <ele>543</ele>
        <time>2022-03-04T17:15:04Z</time>
      </trkpt>
      <trkpt lat="46.59829" lon="5.63557">
        <ele>543.2</ele>
        <time>2022-03-04T17:15:05Z</time>
      </trkpt>
      <trkpt lat="46.59825" lon="5.63554">
        <ele>543.2</ele>
        <time>2022-03-04T17:15:06Z</time>
      </trkpt>
      <trkpt lat="46.59821" lon="5.6355">
        <ele>543.6</ele>
        <time>2022-03-04T17:15:07Z</time>
      </trkpt>
      <trkpt lat="46.59818" lon="5.63548">
        <ele>543.6</ele>
        <time>2022-03-04T17:15:08Z</time>
      </trkpt>
      <trkpt lat="46.59813" lon="5.63545">
        <ele>543.8</ele>
        <time>2022-03-04T17:15:09Z</time>
      </trkpt>
      <trkpt lat="46.59809" lon="5.63543">
        <ele>543.8</ele>
        <time>2022-03-04T17:15:10Z</time>
      </trkpt>
      <trkpt lat="46.59805" lon="5.6354">
        <ele>543.8</ele>
        <time>2022-03-04T17:15:11Z</time>
      </trkpt>
      <trkpt lat="46.59801" lon="5.63537">
        <ele>543.8</ele>
        <time>2022-03-04T17:15:12Z</time>
      </trkpt>
      <trkpt lat="46.59797" lon="5.63534">
        <ele>543.8</ele>
        <time>2022-03-04T17:15:13Z</time>
      </trkpt>
      <trkpt lat="46.59792" lon="5.63531">
        <ele>543.8</ele>
        <time>2022-03-04T17:15:14Z</time>
      </trkpt>
      <trkpt lat="46.59788" lon="5.63528">
        <ele>543.8</ele>
        <time>2022-03-04T17:15:15Z</time>
      </trkpt>
      <trkpt lat="46.59783" lon="5.63524">
        <ele>543.8</ele>
        <time>2022-03-04T17:15:16Z</time>
      </trkpt>
      <trkpt lat="46.59778" lon="5.6352">
        <ele>543.8</ele>
        <time>2022-03-04T17:15:17Z</time>
      </trkpt>
      <trkpt lat="46.59773" lon="5.63515">
        <ele>543.6</ele>
        <time>2022-03-04T17:15:18Z</time>
      </trkpt>
      <trkpt lat="46.59768" lon="5.6351">
        <ele>543.6</ele>
        <time>2022-03-04T17:15:19Z</time>
      </trkpt>
      <trkpt lat="46.59763" lon="5.63505">
        <ele>543.2</ele>
        <time>2022-03-04T17:15:20Z</time>
      </trkpt>
      <trkpt lat="46.59758" lon="5.63498">
        <ele>542.8</ele>
        <time>2022-03-04T17:15:21Z</time>
      </trkpt>
      <trkpt lat="46.59754" lon="5.63491">
        <ele>542.8</ele>
        <time>2022-03-04T17:15:22Z</time>
      </trkpt>
      <trkpt lat="46.5975" lon="5.63483">
        <ele>542.4</ele>
        <time>2022-03-04T17:15:23Z</time>
      </trkpt>
      <trkpt lat="46.59746" lon="5.63475">
        <ele>542.2</ele>
        <time>2022-03-04T17:15:24Z</time>
      </trkpt>
      <trkpt lat="46.59744" lon="5.63466">
        <ele>542.2</ele>
        <time>2022-03-04T17:15:25Z</time>
      </trkpt>
      <trkpt lat="46.59742" lon="5.63457">
        <ele>541.8</ele>
        <time>2022-03-04T17:15:26Z</time>
      </trkpt>
      <trkpt lat="46.59741" lon="5.63447">
        <ele>541.6</ele>
        <time>2022-03-04T17:15:27Z</time>
      </trkpt>
      <trkpt lat="46.59741" lon="5.63437">
        <ele>541.4</ele>
        <time>2022-03-04T17:15:28Z</time>
      </trkpt>
      <trkpt lat="46.59741" lon="5.63428">
        <ele>541.4</ele>
        <time>2022-03-04T17:15:29Z</time>
      </trkpt>
      <trkpt lat="46.59742" lon="5.63419">
        <ele>541.2</ele>
        <time>2022-03-04T17:15:30Z</time>
      </trkpt>
      <trkpt lat="46.59743" lon="5.6341">
        <ele>541.2</ele>
        <time>2022-03-04T17:15:31Z</time>
      </trkpt>
      <trkpt lat="46.59745" lon="5.63401">
        <ele>540.8</ele>
        <time>2022-03-04T17:15:32Z</time>
      </trkpt>
      <trkpt lat="46.59746" lon="5.63391">
        <ele>540.4</ele>
        <time>2022-03-04T17:15:33Z</time>
      </trkpt>
      <trkpt lat="46.59748" lon="5.63382">
        <ele>540.2</ele>
        <time>2022-03-04T17:15:34Z</time>
      </trkpt>
      <trkpt lat="46.59749" lon="5.63372">
        <ele>539.8</ele>
        <time>2022-03-04T17:15:35Z</time>
      </trkpt>
      <trkpt lat="46.59751" lon="5.63362">
        <ele>539.6</ele>
        <time>2022-03-04T17:15:36Z</time>
      </trkpt>
      <trkpt lat="46.59752" lon="5.63352">
        <ele>539.2</ele>
        <time>2022-03-04T17:15:37Z</time>
      </trkpt>
      <trkpt lat="46.59755" lon="5.63331">
        <ele>539</ele>
        <time>2022-03-04T17:15:38Z</time>
      </trkpt>
      <trkpt lat="46.59756" lon="5.63321">
        <ele>538.8</ele>
        <time>2022-03-04T17:15:39Z</time>
      </trkpt>
      <trkpt lat="46.59756" lon="5.63311">
        <ele>538.6</ele>
        <time>2022-03-04T17:15:40Z</time>
      </trkpt>
      <trkpt lat="46.59756" lon="5.63301">
        <ele>538.2</ele>
        <time>2022-03-04T17:15:41Z</time>
      </trkpt>
      <trkpt lat="46.59757" lon="5.63292">
        <ele>538</ele>
        <time>2022-03-04T17:15:42Z</time>
      </trkpt>
      <trkpt lat="46.59756" lon="5.63282">
        <ele>537.8</ele>
        <time>2022-03-04T17:15:43Z</time>
      </trkpt>
      <trkpt lat="46.59756" lon="5.63273">
        <ele>537.8</ele>
        <time>2022-03-04T17:15:44Z</time>
      </trkpt>
      <trkpt lat="46.59755" lon="5.63264">
        <ele>537.6</ele>
        <time>2022-03-04T17:15:45Z</time>
      </trkpt>
      <trkpt lat="46.59754" lon="5.63255">
        <ele>537.6</ele>
        <time>2022-03-04T17:15:46Z</time>
      </trkpt>
      <trkpt lat="46.59754" lon="5.63246">
        <ele>537.6</ele>
        <time>2022-03-04T17:15:47Z</time>
      </trkpt>
      <trkpt lat="46.59753" lon="5.63236">
        <ele>537.2</ele>
        <time>2022-03-04T17:15:48Z</time>
      </trkpt>
      <trkpt lat="46.59752" lon="5.63227">
        <ele>537.2</ele>
        <time>2022-03-04T17:15:49Z</time>
      </trkpt>
      <trkpt lat="46.59752" lon="5.63218">
        <ele>537</ele>
        <time>2022-03-04T17:15:50Z</time>
      </trkpt>
      <trkpt lat="46.59751" lon="5.63209">
        <ele>537</ele>
        <time>2022-03-04T17:15:51Z</time>
      </trkpt>
      <trkpt lat="46.5975" lon="5.632">
        <ele>536.8</ele>
        <time>2022-03-04T17:15:52Z</time>
      </trkpt>
      <trkpt lat="46.5975" lon="5.63191">
        <ele>536.8</ele>
        <time>2022-03-04T17:15:53Z</time>
      </trkpt>
      <trkpt lat="46.59749" lon="5.63183">
        <ele>536.6</ele>
        <time>2022-03-04T17:15:54Z</time>
      </trkpt>
      <trkpt lat="46.59749" lon="5.63174">
        <ele>536.6</ele>
        <time>2022-03-04T17:15:55Z</time>
      </trkpt>
      <trkpt lat="46.59749" lon="5.63166">
        <ele>536.6</ele>
        <time>2022-03-04T17:15:56Z</time>
      </trkpt>
      <trkpt lat="46.59749" lon="5.63158">
        <ele>536.6</ele>
        <time>2022-03-04T17:15:57Z</time>
      </trkpt>
      <trkpt lat="46.59749" lon="5.6315">
        <ele>536.6</ele>
        <time>2022-03-04T17:15:58Z</time>
      </trkpt>
      <trkpt lat="46.59749" lon="5.63143">
        <ele>536.6</ele>
        <time>2022-03-04T17:15:59Z</time>
      </trkpt>
      <trkpt lat="46.59749" lon="5.63136">
        <ele>536.6</ele>
        <time>2022-03-04T17:16:00Z</time>
      </trkpt>
      <trkpt lat="46.59749" lon="5.63129">
        <ele>536.6</ele>
        <time>2022-03-04T17:16:01Z</time>
      </trkpt>
      <trkpt lat="46.59748" lon="5.63123">
        <ele>536.6</ele>
        <time>2022-03-04T17:16:02Z</time>
      </trkpt>
      <trkpt lat="46.59749" lon="5.63117">
        <ele>536.6</ele>
        <time>2022-03-04T17:16:03Z</time>
      </trkpt>
      <trkpt lat="46.5975" lon="5.63111">
        <ele>536.8</ele>
        <time>2022-03-04T17:16:04Z</time>
      </trkpt>
      <trkpt lat="46.59751" lon="5.63105">
        <ele>536.8</ele>
        <time>2022-03-04T17:16:05Z</time>
      </trkpt>
      <trkpt lat="46.59752" lon="5.631">
        <ele>537.2</ele>
        <time>2022-03-04T17:16:06Z</time>
      </trkpt>
      <trkpt lat="46.59754" lon="5.63094">
        <ele>537.2</ele>
        <time>2022-03-04T17:16:07Z</time>
      </trkpt>
      <trkpt lat="46.59754" lon="5.63087">
        <ele>537.2</ele>
        <time>2022-03-04T17:16:08Z</time>
      </trkpt>
      <trkpt lat="46.59754" lon="5.63081">
        <ele>537.2</ele>
        <time>2022-03-04T17:16:09Z</time>
      </trkpt>
      <trkpt lat="46.59754" lon="5.63074">
        <ele>537.2</ele>
        <time>2022-03-04T17:16:10Z</time>
      </trkpt>
      <trkpt lat="46.59754" lon="5.63067">
        <ele>537.2</ele>
        <time>2022-03-04T17:16:11Z</time>
      </trkpt>
      <trkpt lat="46.59754" lon="5.6306">
        <ele>537.2</ele>
        <time>2022-03-04T17:16:12Z</time>
      </trkpt>
      <trkpt lat="46.59752" lon="5.63053">
        <ele>537.2</ele>
        <time>2022-03-04T17:16:13Z</time>
      </trkpt>
      <trkpt lat="46.59749" lon="5.63047">
        <ele>536.8</ele>
        <time>2022-03-04T17:16:14Z</time>
      </trkpt>
      <trkpt lat="46.59746" lon="5.63041">
        <ele>536.8</ele>
        <time>2022-03-04T17:16:15Z</time>
      </trkpt>
      <trkpt lat="46.5974" lon="5.63038">
        <ele>536.4</ele>
        <time>2022-03-04T17:16:16Z</time>
      </trkpt>
      <trkpt lat="46.59734" lon="5.63037">
        <ele>536.2</ele>
        <time>2022-03-04T17:16:17Z</time>
      </trkpt>
      <trkpt lat="46.59728" lon="5.63037">
        <ele>535.8</ele>
        <time>2022-03-04T17:16:18Z</time>
      </trkpt>
      <trkpt lat="46.59722" lon="5.63036">
        <ele>535.6</ele>
        <time>2022-03-04T17:16:19Z</time>
      </trkpt>
      <trkpt lat="46.59716" lon="5.63035">
        <ele>535.2</ele>
        <time>2022-03-04T17:16:20Z</time>
      </trkpt>
      <trkpt lat="46.5971" lon="5.63032">
        <ele>535.2</ele>
        <time>2022-03-04T17:16:21Z</time>
      </trkpt>
      <trkpt lat="46.59704" lon="5.6303">
        <ele>535</ele>
        <time>2022-03-04T17:16:22Z</time>
      </trkpt>
      <trkpt lat="46.59699" lon="5.63028">
        <ele>534.8</ele>
        <time>2022-03-04T17:16:23Z</time>
      </trkpt>
      <trkpt lat="46.59693" lon="5.63026">
        <ele>534.4</ele>
        <time>2022-03-04T17:16:24Z</time>
      </trkpt>
      <trkpt lat="46.59688" lon="5.63024">
        <ele>534.4</ele>
        <time>2022-03-04T17:16:25Z</time>
      </trkpt>
      <trkpt lat="46.59683" lon="5.63022">
        <ele>534.4</ele>
        <time>2022-03-04T17:16:26Z</time>
      </trkpt>
      <trkpt lat="46.59679" lon="5.63019">
        <ele>534.2</ele>
        <time>2022-03-04T17:16:27Z</time>
      </trkpt>
      <trkpt lat="46.59675" lon="5.63015">
        <ele>534.2</ele>
        <time>2022-03-04T17:16:28Z</time>
      </trkpt>
      <trkpt lat="46.59671" lon="5.63012">
        <ele>534.2</ele>
        <time>2022-03-04T17:16:29Z</time>
      </trkpt>
      <trkpt lat="46.59668" lon="5.63007">
        <ele>534.2</ele>
        <time>2022-03-04T17:16:30Z</time>
      </trkpt>
      <trkpt lat="46.59665" lon="5.63003">
        <ele>534.2</ele>
        <time>2022-03-04T17:16:31Z</time>
      </trkpt>
      <trkpt lat="46.59662" lon="5.62999">
        <ele>534.2</ele>
        <time>2022-03-04T17:16:32Z</time>
      </trkpt>
      <trkpt lat="46.5966" lon="5.62995">
        <ele>534.2</ele>
        <time>2022-03-04T17:16:33Z</time>
      </trkpt>
      <trkpt lat="46.59657" lon="5.62991">
        <ele>534.2</ele>
        <time>2022-03-04T17:16:34Z</time>
      </trkpt>
      <trkpt lat="46.59655" lon="5.62986">
        <ele>534.2</ele>
        <time>2022-03-04T17:16:35Z</time>
      </trkpt>
      <trkpt lat="46.59653" lon="5.62982">
        <ele>534.2</ele>
        <time>2022-03-04T17:16:36Z</time>
      </trkpt>
      <trkpt lat="46.59651" lon="5.62978">
        <ele>534.2</ele>
        <time>2022-03-04T17:16:37Z</time>
      </trkpt>
      <trkpt lat="46.59649" lon="5.62975">
        <ele>534.2</ele>
        <time>2022-03-04T17:16:38Z</time>
      </trkpt>
      <trkpt lat="46.59646" lon="5.62971">
        <ele>534.4</ele>
        <time>2022-03-04T17:16:39Z</time>
      </trkpt>
      <trkpt lat="46.59644" lon="5.62969">
        <ele>534.4</ele>
        <time>2022-03-04T17:16:40Z</time>
      </trkpt>
      <trkpt lat="46.59642" lon="5.62966">
        <ele>534.4</ele>
        <time>2022-03-04T17:16:41Z</time>
      </trkpt>
      <trkpt lat="46.5964" lon="5.62963">
        <ele>534.4</ele>
        <time>2022-03-04T17:16:42Z</time>
      </trkpt>
      <trkpt lat="46.59638" lon="5.6296">
        <ele>534.4</ele>
        <time>2022-03-04T17:16:43Z</time>
      </trkpt>
      <trkpt lat="46.59637" lon="5.62956">
        <ele>534.4</ele>
        <time>2022-03-04T17:16:44Z</time>
      </trkpt>
      <trkpt lat="46.59638" lon="5.62954">
        <ele>534.4</ele>
        <time>2022-03-04T17:16:45Z</time>
      </trkpt>
      <trkpt lat="46.59638" lon="5.6295">
        <ele>534.4</ele>
        <time>2022-03-04T17:16:46Z</time>
      </trkpt>
      <trkpt lat="46.5964" lon="5.62947">
        <ele>534.6</ele>
        <time>2022-03-04T17:16:47Z</time>
      </trkpt>
      <trkpt lat="46.5964" lon="5.62947">
        <ele>534.6</ele>
        <time>2022-03-04T17:16:48Z</time>
      </trkpt>
      <trkpt lat="46.59642" lon="5.62944">
        <ele>534.6</ele>
        <time>2022-03-04T17:16:49Z</time>
      </trkpt>
      <trkpt lat="46.59644" lon="5.62941">
        <ele>534.6</ele>
        <time>2022-03-04T17:16:50Z</time>
      </trkpt>
      <trkpt lat="46.59647" lon="5.62939">
        <ele>534.6</ele>
        <time>2022-03-04T17:16:51Z</time>
      </trkpt>
      <trkpt lat="46.59649" lon="5.62936">
        <ele>534.4</ele>
        <time>2022-03-04T17:16:52Z</time>
      </trkpt>
      <trkpt lat="46.59652" lon="5.62933">
        <ele>534.4</ele>
        <time>2022-03-04T17:16:53Z</time>
      </trkpt>
      <trkpt lat="46.59655" lon="5.62929">
        <ele>534.4</ele>
        <time>2022-03-04T17:16:54Z</time>
      </trkpt>
      <trkpt lat="46.59657" lon="5.62924">
        <ele>534.4</ele>
        <time>2022-03-04T17:16:55Z</time>
      </trkpt>
      <trkpt lat="46.59659" lon="5.6292">
        <ele>534.4</ele>
        <time>2022-03-04T17:16:56Z</time>
      </trkpt>
      <trkpt lat="46.5966" lon="5.62914">
        <ele>534.4</ele>
        <time>2022-03-04T17:16:57Z</time>
      </trkpt>
      <trkpt lat="46.59662" lon="5.62909">
        <ele>534.4</ele>
        <time>2022-03-04T17:16:58Z</time>
      </trkpt>
      <trkpt lat="46.59663" lon="5.62903">
        <ele>534.4</ele>
        <time>2022-03-04T17:16:59Z</time>
      </trkpt>
      <trkpt lat="46.59665" lon="5.62898">
        <ele>534.4</ele>
        <time>2022-03-04T17:17:00Z</time>
      </trkpt>
      <trkpt lat="46.59666" lon="5.62892">
        <ele>534.4</ele>
        <time>2022-03-04T17:17:01Z</time>
      </trkpt>
      <trkpt lat="46.59668" lon="5.62887">
        <ele>534.4</ele>
        <time>2022-03-04T17:17:02Z</time>
      </trkpt>
      <trkpt lat="46.59669" lon="5.62881">
        <ele>534</ele>
        <time>2022-03-04T17:17:03Z</time>
      </trkpt>
      <trkpt lat="46.59671" lon="5.62874">
        <ele>534</ele>
        <time>2022-03-04T17:17:04Z</time>
      </trkpt>
      <trkpt lat="46.59672" lon="5.62868">
        <ele>534</ele>
        <time>2022-03-04T17:17:05Z</time>
      </trkpt>
      <trkpt lat="46.59674" lon="5.62862">
        <ele>533.8</ele>
        <time>2022-03-04T17:17:06Z</time>
      </trkpt>
      <trkpt lat="46.59675" lon="5.62855">
        <ele>533.8</ele>
        <time>2022-03-04T17:17:07Z</time>
      </trkpt>
      <trkpt lat="46.59676" lon="5.62848">
        <ele>533.8</ele>
        <time>2022-03-04T17:17:08Z</time>
      </trkpt>
      <trkpt lat="46.59677" lon="5.62842">
        <ele>533.8</ele>
        <time>2022-03-04T17:17:09Z</time>
      </trkpt>
      <trkpt lat="46.59678" lon="5.62836">
        <ele>533.8</ele>
        <time>2022-03-04T17:17:10Z</time>
      </trkpt>
      <trkpt lat="46.59678" lon="5.6283">
        <ele>533.8</ele>
        <time>2022-03-04T17:17:11Z</time>
      </trkpt>
      <trkpt lat="46.59678" lon="5.62824">
        <ele>533.8</ele>
        <time>2022-03-04T17:17:12Z</time>
      </trkpt>
      <trkpt lat="46.59679" lon="5.62818">
        <ele>533.8</ele>
        <time>2022-03-04T17:17:13Z</time>
      </trkpt>
      <trkpt lat="46.59679" lon="5.62812">
        <ele>533.8</ele>
        <time>2022-03-04T17:17:14Z</time>
      </trkpt>
      <trkpt lat="46.59679" lon="5.62807">
        <ele>533.8</ele>
        <time>2022-03-04T17:17:15Z</time>
      </trkpt>
      <trkpt lat="46.59679" lon="5.62801">
        <ele>533.8</ele>
        <time>2022-03-04T17:17:16Z</time>
      </trkpt>
      <trkpt lat="46.59679" lon="5.62795">
        <ele>534</ele>
        <time>2022-03-04T17:17:17Z</time>
      </trkpt>
      <trkpt lat="46.5968" lon="5.62789">
        <ele>534</ele>
        <time>2022-03-04T17:17:18Z</time>
      </trkpt>
      <trkpt lat="46.5968" lon="5.62783">
        <ele>534</ele>
        <time>2022-03-04T17:17:19Z</time>
      </trkpt>
      <trkpt lat="46.59679" lon="5.62777">
        <ele>534</ele>
        <time>2022-03-04T17:17:20Z</time>
      </trkpt>
      <trkpt lat="46.59679" lon="5.62771">
        <ele>534</ele>
        <time>2022-03-04T17:17:21Z</time>
      </trkpt>
      <trkpt lat="46.59679" lon="5.62766">
        <ele>534.4</ele>
        <time>2022-03-04T17:17:22Z</time>
      </trkpt>
      <trkpt lat="46.59679" lon="5.6276">
        <ele>534.4</ele>
        <time>2022-03-04T17:17:23Z</time>
      </trkpt>
      <trkpt lat="46.59679" lon="5.62755">
        <ele>534.6</ele>
        <time>2022-03-04T17:17:24Z</time>
      </trkpt>
      <trkpt lat="46.59679" lon="5.62749">
        <ele>534.6</ele>
        <time>2022-03-04T17:17:25Z</time>
      </trkpt>
      <trkpt lat="46.59679" lon="5.62744">
        <ele>534.6</ele>
        <time>2022-03-04T17:17:26Z</time>
      </trkpt>
      <trkpt lat="46.5968" lon="5.62739">
        <ele>535</ele>
        <time>2022-03-04T17:17:27Z</time>
      </trkpt>
      <trkpt lat="46.5968" lon="5.62733">
        <ele>535</ele>
        <time>2022-03-04T17:17:28Z</time>
      </trkpt>
      <trkpt lat="46.59681" lon="5.62728">
        <ele>535</ele>
        <time>2022-03-04T17:17:29Z</time>
      </trkpt>
      <trkpt lat="46.59682" lon="5.62723">
        <ele>535</ele>
        <time>2022-03-04T17:17:30Z</time>
      </trkpt>
      <trkpt lat="46.59683" lon="5.62718">
        <ele>535</ele>
        <time>2022-03-04T17:17:31Z</time>
      </trkpt>
      <trkpt lat="46.59683" lon="5.62712">
        <ele>535.2</ele>
        <time>2022-03-04T17:17:32Z</time>
      </trkpt>
      <trkpt lat="46.59683" lon="5.62707">
        <ele>535.2</ele>
        <time>2022-03-04T17:17:33Z</time>
      </trkpt>
      <trkpt lat="46.59683" lon="5.62702">
        <ele>535.6</ele>
        <time>2022-03-04T17:17:34Z</time>
      </trkpt>
      <trkpt lat="46.59683" lon="5.62697">
        <ele>535.6</ele>
        <time>2022-03-04T17:17:35Z</time>
      </trkpt>
      <trkpt lat="46.59683" lon="5.62691">
        <ele>535.8</ele>
        <time>2022-03-04T17:17:36Z</time>
      </trkpt>
      <trkpt lat="46.59682" lon="5.62686">
        <ele>535.8</ele>
        <time>2022-03-04T17:17:37Z</time>
      </trkpt>
      <trkpt lat="46.59682" lon="5.62681">
        <ele>536.2</ele>
        <time>2022-03-04T17:17:38Z</time>
      </trkpt>
      <trkpt lat="46.59681" lon="5.62675">
        <ele>536.2</ele>
        <time>2022-03-04T17:17:39Z</time>
      </trkpt>
      <trkpt lat="46.59681" lon="5.6267">
        <ele>536.4</ele>
        <time>2022-03-04T17:17:40Z</time>
      </trkpt>
      <trkpt lat="46.59681" lon="5.62664">
        <ele>536.4</ele>
        <time>2022-03-04T17:17:41Z</time>
      </trkpt>
      <trkpt lat="46.59681" lon="5.62659">
        <ele>536.8</ele>
        <time>2022-03-04T17:17:42Z</time>
      </trkpt>
      <trkpt lat="46.5968" lon="5.62654">
        <ele>536.8</ele>
        <time>2022-03-04T17:17:43Z</time>
      </trkpt>
      <trkpt lat="46.5968" lon="5.62649">
        <ele>536.8</ele>
        <time>2022-03-04T17:17:44Z</time>
      </trkpt>
      <trkpt lat="46.5968" lon="5.62644">
        <ele>537</ele>
        <time>2022-03-04T17:17:45Z</time>
      </trkpt>
      <trkpt lat="46.5968" lon="5.62638">
        <ele>537</ele>
        <time>2022-03-04T17:17:46Z</time>
      </trkpt>
      <trkpt lat="46.5968" lon="5.62633">
        <ele>537</ele>
        <time>2022-03-04T17:17:47Z</time>
      </trkpt>
      <trkpt lat="46.59679" lon="5.62628">
        <ele>537.2</ele>
        <time>2022-03-04T17:17:48Z</time>
      </trkpt>
      <trkpt lat="46.59678" lon="5.62622">
        <ele>537.2</ele>
        <time>2022-03-04T17:17:49Z</time>
      </trkpt>
      <trkpt lat="46.59678" lon="5.62615">
        <ele>537.2</ele>
        <time>2022-03-04T17:17:50Z</time>
      </trkpt>
      <trkpt lat="46.59677" lon="5.62609">
        <ele>537.4</ele>
        <time>2022-03-04T17:17:51Z</time>
      </trkpt>
      <trkpt lat="46.59677" lon="5.62603">
        <ele>537.4</ele>
        <time>2022-03-04T17:17:52Z</time>
      </trkpt>
      <trkpt lat="46.59676" lon="5.62597">
        <ele>537.4</ele>
        <time>2022-03-04T17:17:53Z</time>
      </trkpt>
      <trkpt lat="46.59676" lon="5.6259">
        <ele>537.4</ele>
        <time>2022-03-04T17:17:54Z</time>
      </trkpt>
      <trkpt lat="46.59675" lon="5.62583">
        <ele>537.4</ele>
        <time>2022-03-04T17:17:55Z</time>
      </trkpt>
      <trkpt lat="46.59674" lon="5.62577">
        <ele>537.4</ele>
        <time>2022-03-04T17:17:56Z</time>
      </trkpt>
      <trkpt lat="46.59673" lon="5.62571">
        <ele>537.4</ele>
        <time>2022-03-04T17:17:57Z</time>
      </trkpt>
      <trkpt lat="46.59673" lon="5.62564">
        <ele>537.4</ele>
        <time>2022-03-04T17:17:58Z</time>
      </trkpt>
      <trkpt lat="46.59672" lon="5.62558">
        <ele>537.4</ele>
        <time>2022-03-04T17:17:59Z</time>
      </trkpt>
      <trkpt lat="46.59671" lon="5.62552">
        <ele>537.4</ele>
        <time>2022-03-04T17:18:00Z</time>
      </trkpt>
      <trkpt lat="46.59671" lon="5.62545">
        <ele>537.2</ele>
        <time>2022-03-04T17:18:01Z</time>
      </trkpt>
      <trkpt lat="46.5967" lon="5.62538">
        <ele>537.2</ele>
        <time>2022-03-04T17:18:02Z</time>
      </trkpt>
      <trkpt lat="46.59669" lon="5.6253">
        <ele>537.2</ele>
        <time>2022-03-04T17:18:03Z</time>
      </trkpt>
      <trkpt lat="46.59668" lon="5.62523">
        <ele>537</ele>
        <time>2022-03-04T17:18:04Z</time>
      </trkpt>
      <trkpt lat="46.59668" lon="5.62516">
        <ele>537</ele>
        <time>2022-03-04T17:18:05Z</time>
      </trkpt>
      <trkpt lat="46.59667" lon="5.62508">
        <ele>536.8</ele>
        <time>2022-03-04T17:18:06Z</time>
      </trkpt>
      <trkpt lat="46.59666" lon="5.625">
        <ele>536.8</ele>
        <time>2022-03-04T17:18:07Z</time>
      </trkpt>
      <trkpt lat="46.59666" lon="5.62492">
        <ele>536.4</ele>
        <time>2022-03-04T17:18:08Z</time>
      </trkpt>
      <trkpt lat="46.59665" lon="5.62484">
        <ele>536.4</ele>
        <time>2022-03-04T17:18:09Z</time>
      </trkpt>
      <trkpt lat="46.59664" lon="5.62476">
        <ele>536</ele>
        <time>2022-03-04T17:18:10Z</time>
      </trkpt>
      <trkpt lat="46.59663" lon="5.62468">
        <ele>536</ele>
        <time>2022-03-04T17:18:11Z</time>
      </trkpt>
      <trkpt lat="46.59661" lon="5.6246">
        <ele>535.8</ele>
        <time>2022-03-04T17:18:12Z</time>
      </trkpt>
      <trkpt lat="46.5966" lon="5.62452">
        <ele>535.8</ele>
        <time>2022-03-04T17:18:13Z</time>
      </trkpt>
      <trkpt lat="46.59658" lon="5.62444">
        <ele>535.8</ele>
        <time>2022-03-04T17:18:14Z</time>
      </trkpt>
      <trkpt lat="46.59656" lon="5.62436">
        <ele>535.6</ele>
        <time>2022-03-04T17:18:15Z</time>
      </trkpt>
      <trkpt lat="46.59654" lon="5.62428">
        <ele>535.4</ele>
        <time>2022-03-04T17:18:16Z</time>
      </trkpt>
      <trkpt lat="46.59652" lon="5.62421">
        <ele>535</ele>
        <time>2022-03-04T17:18:17Z</time>
      </trkpt>
      <trkpt lat="46.5965" lon="5.62413">
        <ele>535</ele>
        <time>2022-03-04T17:18:18Z</time>
      </trkpt>
      <trkpt lat="46.59648" lon="5.62405">
        <ele>534.6</ele>
        <time>2022-03-04T17:18:19Z</time>
      </trkpt>
      <trkpt lat="46.59646" lon="5.62397">
        <ele>534.4</ele>
        <time>2022-03-04T17:18:20Z</time>
      </trkpt>
      <trkpt lat="46.59644" lon="5.62389">
        <ele>534</ele>
        <time>2022-03-04T17:18:21Z</time>
      </trkpt>
      <trkpt lat="46.59642" lon="5.62383">
        <ele>533.6</ele>
        <time>2022-03-04T17:18:22Z</time>
      </trkpt>
      <trkpt lat="46.5964" lon="5.62377">
        <ele>533.2</ele>
        <time>2022-03-04T17:18:23Z</time>
      </trkpt>
      <trkpt lat="46.59638" lon="5.62373">
        <ele>532.8</ele>
        <time>2022-03-04T17:18:24Z</time>
      </trkpt>
      <trkpt lat="46.59636" lon="5.6237">
        <ele>532.6</ele>
        <time>2022-03-04T17:18:25Z</time>
      </trkpt>
      <trkpt lat="46.59633" lon="5.62367">
        <ele>532.2</ele>
        <time>2022-03-04T17:18:26Z</time>
      </trkpt>
      <trkpt lat="46.59631" lon="5.62364">
        <ele>532</ele>
        <time>2022-03-04T17:18:27Z</time>
      </trkpt>
      <trkpt lat="46.59628" lon="5.62362">
        <ele>531.8</ele>
        <time>2022-03-04T17:18:28Z</time>
      </trkpt>
      <trkpt lat="46.59625" lon="5.62359">
        <ele>531.8</ele>
        <time>2022-03-04T17:18:29Z</time>
      </trkpt>
      <trkpt lat="46.59622" lon="5.62357">
        <ele>531.4</ele>
        <time>2022-03-04T17:18:30Z</time>
      </trkpt>
      <trkpt lat="46.59618" lon="5.62356">
        <ele>531.2</ele>
        <time>2022-03-04T17:18:31Z</time>
      </trkpt>
      <trkpt lat="46.59614" lon="5.62355">
        <ele>531</ele>
        <time>2022-03-04T17:18:32Z</time>
      </trkpt>
      <trkpt lat="46.59609" lon="5.62354">
        <ele>530.6</ele>
        <time>2022-03-04T17:18:33Z</time>
      </trkpt>
      <trkpt lat="46.59604" lon="5.62354">
        <ele>530.4</ele>
        <time>2022-03-04T17:18:34Z</time>
      </trkpt>
      <trkpt lat="46.59598" lon="5.62355">
        <ele>530.4</ele>
        <time>2022-03-04T17:18:35Z</time>
      </trkpt>
      <trkpt lat="46.59593" lon="5.62354">
        <ele>530</ele>
        <time>2022-03-04T17:18:36Z</time>
      </trkpt>
      <trkpt lat="46.59587" lon="5.62354">
        <ele>529.8</ele>
        <time>2022-03-04T17:18:37Z</time>
      </trkpt>
      <trkpt lat="46.59582" lon="5.62354">
        <ele>529.4</ele>
        <time>2022-03-04T17:18:38Z</time>
      </trkpt>
      <trkpt lat="46.59577" lon="5.62354">
        <ele>529.2</ele>
        <time>2022-03-04T17:18:39Z</time>
      </trkpt>
      <trkpt lat="46.59573" lon="5.62354">
        <ele>529</ele>
        <time>2022-03-04T17:18:40Z</time>
      </trkpt>
      <trkpt lat="46.59568" lon="5.62354">
        <ele>528.8</ele>
        <time>2022-03-04T17:18:41Z</time>
      </trkpt>
      <trkpt lat="46.59563" lon="5.62355">
        <ele>528.8</ele>
        <time>2022-03-04T17:18:42Z</time>
      </trkpt>
      <trkpt lat="46.59559" lon="5.62355">
        <ele>528.4</ele>
        <time>2022-03-04T17:18:43Z</time>
      </trkpt>
      <trkpt lat="46.59554" lon="5.62355">
        <ele>528.2</ele>
        <time>2022-03-04T17:18:44Z</time>
      </trkpt>
      <trkpt lat="46.59549" lon="5.62356">
        <ele>528.2</ele>
        <time>2022-03-04T17:18:45Z</time>
      </trkpt>
      <trkpt lat="46.59545" lon="5.62356">
        <ele>528</ele>
        <time>2022-03-04T17:18:46Z</time>
      </trkpt>
      <trkpt lat="46.5954" lon="5.62357">
        <ele>528</ele>
        <time>2022-03-04T17:18:47Z</time>
      </trkpt>
      <trkpt lat="46.59536" lon="5.62358">
        <ele>527.6</ele>
        <time>2022-03-04T17:18:48Z</time>
      </trkpt>
      <trkpt lat="46.59531" lon="5.62358">
        <ele>527.4</ele>
        <time>2022-03-04T17:18:49Z</time>
      </trkpt>
      <trkpt lat="46.59527" lon="5.62359">
        <ele>527.4</ele>
        <time>2022-03-04T17:18:50Z</time>
      </trkpt>
      <trkpt lat="46.59523" lon="5.62359">
        <ele>527.4</ele>
        <time>2022-03-04T17:18:51Z</time>
      </trkpt>
      <trkpt lat="46.59519" lon="5.6236">
        <ele>527.4</ele>
        <time>2022-03-04T17:18:52Z</time>
      </trkpt>
      <trkpt lat="46.59516" lon="5.6236">
        <ele>527.4</ele>
        <time>2022-03-04T17:18:53Z</time>
      </trkpt>
      <trkpt lat="46.59512" lon="5.62361">
        <ele>527.4</ele>
        <time>2022-03-04T17:18:54Z</time>
      </trkpt>
      <trkpt lat="46.59508" lon="5.62361">
        <ele>527.4</ele>
        <time>2022-03-04T17:18:55Z</time>
      </trkpt>
      <trkpt lat="46.59504" lon="5.62361">
        <ele>527</ele>
        <time>2022-03-04T17:18:56Z</time>
      </trkpt>
      <trkpt lat="46.59501" lon="5.6236">
        <ele>527</ele>
        <time>2022-03-04T17:18:57Z</time>
      </trkpt>
      <trkpt lat="46.59497" lon="5.6236">
        <ele>527</ele>
        <time>2022-03-04T17:18:58Z</time>
      </trkpt>
      <trkpt lat="46.59493" lon="5.62359">
        <ele>527</ele>
        <time>2022-03-04T17:18:59Z</time>
      </trkpt>
      <trkpt lat="46.5949" lon="5.62359">
        <ele>526.8</ele>
        <time>2022-03-04T17:19:00Z</time>
      </trkpt>
      <trkpt lat="46.59486" lon="5.62359">
        <ele>526.8</ele>
        <time>2022-03-04T17:19:01Z</time>
      </trkpt>
      <trkpt lat="46.59482" lon="5.62359">
        <ele>526.6</ele>
        <time>2022-03-04T17:19:02Z</time>
      </trkpt>
      <trkpt lat="46.59478" lon="5.62361">
        <ele>526.6</ele>
        <time>2022-03-04T17:19:03Z</time>
      </trkpt>
      <trkpt lat="46.59474" lon="5.62363">
        <ele>526.6</ele>
        <time>2022-03-04T17:19:04Z</time>
      </trkpt>
      <trkpt lat="46.59471" lon="5.62367">
        <ele>526.6</ele>
        <time>2022-03-04T17:19:05Z</time>
      </trkpt>
      <trkpt lat="46.59469" lon="5.62371">
        <ele>526.6</ele>
        <time>2022-03-04T17:19:06Z</time>
      </trkpt>
      <trkpt lat="46.59466" lon="5.62375">
        <ele>526.6</ele>
        <time>2022-03-04T17:19:07Z</time>
      </trkpt>
      <trkpt lat="46.59464" lon="5.62379">
        <ele>526.8</ele>
        <time>2022-03-04T17:19:08Z</time>
      </trkpt>
      <trkpt lat="46.59461" lon="5.62383">
        <ele>526.8</ele>
        <time>2022-03-04T17:19:09Z</time>
      </trkpt>
      <trkpt lat="46.59459" lon="5.62387">
        <ele>526.8</ele>
        <time>2022-03-04T17:19:10Z</time>
      </trkpt>
      <trkpt lat="46.59456" lon="5.62391">
        <ele>526.8</ele>
        <time>2022-03-04T17:19:11Z</time>
      </trkpt>
      <trkpt lat="46.59454" lon="5.62395">
        <ele>527</ele>
        <time>2022-03-04T17:19:12Z</time>
      </trkpt>
      <trkpt lat="46.59452" lon="5.62399">
        <ele>527</ele>
        <time>2022-03-04T17:19:13Z</time>
      </trkpt>
      <trkpt lat="46.59449" lon="5.62403">
        <ele>527</ele>
        <time>2022-03-04T17:19:14Z</time>
      </trkpt>
      <trkpt lat="46.59447" lon="5.62407">
        <ele>527.4</ele>
        <time>2022-03-04T17:19:15Z</time>
      </trkpt>
      <trkpt lat="46.59445" lon="5.62411">
        <ele>527.4</ele>
        <time>2022-03-04T17:19:16Z</time>
      </trkpt>
      <trkpt lat="46.59443" lon="5.62414">
        <ele>527.4</ele>
        <time>2022-03-04T17:19:17Z</time>
      </trkpt>
      <trkpt lat="46.5944" lon="5.62418">
        <ele>527.6</ele>
        <time>2022-03-04T17:19:18Z</time>
      </trkpt>
      <trkpt lat="46.59439" lon="5.62421">
        <ele>527.6</ele>
        <time>2022-03-04T17:19:19Z</time>
      </trkpt>
      <trkpt lat="46.59434" lon="5.62428">
        <ele>527.6</ele>
        <time>2022-03-04T17:19:20Z</time>
      </trkpt>
      <trkpt lat="46.59432" lon="5.62432">
        <ele>528</ele>
        <time>2022-03-04T17:19:21Z</time>
      </trkpt>
      <trkpt lat="46.5943" lon="5.62435">
        <ele>528</ele>
        <time>2022-03-04T17:19:22Z</time>
      </trkpt>
      <trkpt lat="46.59428" lon="5.62439">
        <ele>528.2</ele>
        <time>2022-03-04T17:19:23Z</time>
      </trkpt>
      <trkpt lat="46.59426" lon="5.62442">
        <ele>528.2</ele>
        <time>2022-03-04T17:19:24Z</time>
      </trkpt>
      <trkpt lat="46.59425" lon="5.62446">
        <ele>528.2</ele>
        <time>2022-03-04T17:19:25Z</time>
      </trkpt>
      <trkpt lat="46.59423" lon="5.62449">
        <ele>528.6</ele>
        <time>2022-03-04T17:19:26Z</time>
      </trkpt>
      <trkpt lat="46.59421" lon="5.62452">
        <ele>528.8</ele>
        <time>2022-03-04T17:19:27Z</time>
      </trkpt>
      <trkpt lat="46.59419" lon="5.62456">
        <ele>529.2</ele>
        <time>2022-03-04T17:19:28Z</time>
      </trkpt>
      <trkpt lat="46.59417" lon="5.62459">
        <ele>529.4</ele>
        <time>2022-03-04T17:19:29Z</time>
      </trkpt>
      <trkpt lat="46.59415" lon="5.62462">
        <ele>529.6</ele>
        <time>2022-03-04T17:19:30Z</time>
      </trkpt>
      <trkpt lat="46.59413" lon="5.62464">
        <ele>529.6</ele>
        <time>2022-03-04T17:19:31Z</time>
      </trkpt>
      <trkpt lat="46.59412" lon="5.62467">
        <ele>530</ele>
        <time>2022-03-04T17:19:32Z</time>
      </trkpt>
      <trkpt lat="46.5941" lon="5.6247">
        <ele>530</ele>
        <time>2022-03-04T17:19:33Z</time>
      </trkpt>
      <trkpt lat="46.59409" lon="5.62474">
        <ele>530.4</ele>
        <time>2022-03-04T17:19:34Z</time>
      </trkpt>
      <trkpt lat="46.59407" lon="5.62477">
        <ele>530.4</ele>
        <time>2022-03-04T17:19:35Z</time>
      </trkpt>
      <trkpt lat="46.59406" lon="5.6248">
        <ele>530.8</ele>
        <time>2022-03-04T17:19:36Z</time>
      </trkpt>
      <trkpt lat="46.59404" lon="5.62482">
        <ele>531</ele>
        <time>2022-03-04T17:19:37Z</time>
      </trkpt>
      <trkpt lat="46.59403" lon="5.62485">
        <ele>531</ele>
        <time>2022-03-04T17:19:38Z</time>
      </trkpt>
      <trkpt lat="46.59401" lon="5.62488">
        <ele>531.2</ele>
        <time>2022-03-04T17:19:39Z</time>
      </trkpt>
      <trkpt lat="46.594" lon="5.62491">
        <ele>531.2</ele>
        <time>2022-03-04T17:19:40Z</time>
      </trkpt>
      <trkpt lat="46.59399" lon="5.62494">
        <ele>531.2</ele>
        <time>2022-03-04T17:19:41Z</time>
      </trkpt>
      <trkpt lat="46.59398" lon="5.62498">
        <ele>531.6</ele>
        <time>2022-03-04T17:19:42Z</time>
      </trkpt>
      <trkpt lat="46.59398" lon="5.62502">
        <ele>531.6</ele>
        <time>2022-03-04T17:19:43Z</time>
      </trkpt>
      <trkpt lat="46.59397" lon="5.62505">
        <ele>531.8</ele>
        <time>2022-03-04T17:19:44Z</time>
      </trkpt>
      <trkpt lat="46.59397" lon="5.62509">
        <ele>531.8</ele>
        <time>2022-03-04T17:19:45Z</time>
      </trkpt>
      <trkpt lat="46.59396" lon="5.62513">
        <ele>531.8</ele>
        <time>2022-03-04T17:19:46Z</time>
      </trkpt>
      <trkpt lat="46.59396" lon="5.62516">
        <ele>532</ele>
        <time>2022-03-04T17:19:47Z</time>
      </trkpt>
      <trkpt lat="46.59395" lon="5.6252">
        <ele>532</ele>
        <time>2022-03-04T17:19:48Z</time>
      </trkpt>
      <trkpt lat="46.59395" lon="5.62524">
        <ele>532.4</ele>
        <time>2022-03-04T17:19:49Z</time>
      </trkpt>
      <trkpt lat="46.59394" lon="5.62527">
        <ele>532.4</ele>
        <time>2022-03-04T17:19:50Z</time>
      </trkpt>
      <trkpt lat="46.59394" lon="5.62531">
        <ele>532.6</ele>
        <time>2022-03-04T17:19:51Z</time>
      </trkpt>
      <trkpt lat="46.59393" lon="5.62535">
        <ele>532.6</ele>
        <time>2022-03-04T17:19:52Z</time>
      </trkpt>
      <trkpt lat="46.59392" lon="5.62539">
        <ele>532.8</ele>
        <time>2022-03-04T17:19:53Z</time>
      </trkpt>
      <trkpt lat="46.59392" lon="5.62543">
        <ele>532.8</ele>
        <time>2022-03-04T17:19:54Z</time>
      </trkpt>
      <trkpt lat="46.59391" lon="5.62548">
        <ele>532.8</ele>
        <time>2022-03-04T17:19:55Z</time>
      </trkpt>
      <trkpt lat="46.59391" lon="5.62552">
        <ele>532.8</ele>
        <time>2022-03-04T17:19:56Z</time>
      </trkpt>
      <trkpt lat="46.59391" lon="5.62556">
        <ele>532.8</ele>
        <time>2022-03-04T17:19:57Z</time>
      </trkpt>
      <trkpt lat="46.59391" lon="5.6256">
        <ele>533</ele>
        <time>2022-03-04T17:19:58Z</time>
      </trkpt>
      <trkpt lat="46.5939" lon="5.62564">
        <ele>533</ele>
        <time>2022-03-04T17:19:59Z</time>
      </trkpt>
      <trkpt lat="46.5939" lon="5.62569">
        <ele>533</ele>
        <time>2022-03-04T17:20:00Z</time>
      </trkpt>
      <trkpt lat="46.59389" lon="5.62573">
        <ele>533.2</ele>
        <time>2022-03-04T17:20:01Z</time>
      </trkpt>
      <trkpt lat="46.59389" lon="5.62578">
        <ele>533.2</ele>
        <time>2022-03-04T17:20:02Z</time>
      </trkpt>
      <trkpt lat="46.59389" lon="5.62582">
        <ele>533.2</ele>
        <time>2022-03-04T17:20:03Z</time>
      </trkpt>
      <trkpt lat="46.59389" lon="5.62587">
        <ele>533.6</ele>
        <time>2022-03-04T17:20:04Z</time>
      </trkpt>
      <trkpt lat="46.59388" lon="5.62591">
        <ele>533.6</ele>
        <time>2022-03-04T17:20:05Z</time>
      </trkpt>
      <trkpt lat="46.59389" lon="5.62596">
        <ele>533.6</ele>
        <time>2022-03-04T17:20:06Z</time>
      </trkpt>
      <trkpt lat="46.59389" lon="5.626">
        <ele>533.6</ele>
        <time>2022-03-04T17:20:07Z</time>
      </trkpt>
      <trkpt lat="46.5939" lon="5.62605">
        <ele>533.6</ele>
        <time>2022-03-04T17:20:08Z</time>
      </trkpt>
      <trkpt lat="46.59391" lon="5.62609">
        <ele>533.6</ele>
        <time>2022-03-04T17:20:09Z</time>
      </trkpt>
      <trkpt lat="46.59391" lon="5.62614">
        <ele>533.6</ele>
        <time>2022-03-04T17:20:10Z</time>
      </trkpt>
      <trkpt lat="46.59392" lon="5.62619">
        <ele>533.6</ele>
        <time>2022-03-04T17:20:11Z</time>
      </trkpt>
      <trkpt lat="46.59393" lon="5.62624">
        <ele>533.8</ele>
        <time>2022-03-04T17:20:12Z</time>
      </trkpt>
      <trkpt lat="46.59393" lon="5.62629">
        <ele>533.8</ele>
        <time>2022-03-04T17:20:13Z</time>
      </trkpt>
      <trkpt lat="46.59394" lon="5.62635">
        <ele>533.8</ele>
        <time>2022-03-04T17:20:14Z</time>
      </trkpt>
      <trkpt lat="46.59394" lon="5.6264">
        <ele>533.8</ele>
        <time>2022-03-04T17:20:15Z</time>
      </trkpt>
      <trkpt lat="46.59395" lon="5.62645">
        <ele>533.8</ele>
        <time>2022-03-04T17:20:16Z</time>
      </trkpt>
      <trkpt lat="46.59395" lon="5.62651">
        <ele>533.8</ele>
        <time>2022-03-04T17:20:17Z</time>
      </trkpt>
      <trkpt lat="46.59395" lon="5.62656">
        <ele>533.8</ele>
        <time>2022-03-04T17:20:18Z</time>
      </trkpt>
      <trkpt lat="46.59395" lon="5.62662">
        <ele>533.8</ele>
        <time>2022-03-04T17:20:19Z</time>
      </trkpt>
      <trkpt lat="46.59395" lon="5.62667">
        <ele>533.8</ele>
        <time>2022-03-04T17:20:20Z</time>
      </trkpt>
      <trkpt lat="46.59395" lon="5.62672">
        <ele>533.8</ele>
        <time>2022-03-04T17:20:21Z</time>
      </trkpt>
      <trkpt lat="46.59395" lon="5.62677">
        <ele>534.2</ele>
        <time>2022-03-04T17:20:22Z</time>
      </trkpt>
      <trkpt lat="46.59395" lon="5.62683">
        <ele>534.2</ele>
        <time>2022-03-04T17:20:23Z</time>
      </trkpt>
      <trkpt lat="46.59395" lon="5.62688">
        <ele>534.4</ele>
        <time>2022-03-04T17:20:24Z</time>
      </trkpt>
      <trkpt lat="46.59395" lon="5.62693">
        <ele>534.4</ele>
        <time>2022-03-04T17:20:25Z</time>
      </trkpt>
      <trkpt lat="46.59395" lon="5.62698">
        <ele>534.4</ele>
        <time>2022-03-04T17:20:26Z</time>
      </trkpt>
      <trkpt lat="46.59396" lon="5.62703">
        <ele>534.8</ele>
        <time>2022-03-04T17:20:27Z</time>
      </trkpt>
      <trkpt lat="46.59396" lon="5.62708">
        <ele>534.8</ele>
        <time>2022-03-04T17:20:28Z</time>
      </trkpt>
      <trkpt lat="46.59396" lon="5.62713">
        <ele>534.8</ele>
        <time>2022-03-04T17:20:29Z</time>
      </trkpt>
      <trkpt lat="46.59396" lon="5.62718">
        <ele>535</ele>
        <time>2022-03-04T17:20:30Z</time>
      </trkpt>
      <trkpt lat="46.59396" lon="5.62723">
        <ele>535</ele>
        <time>2022-03-04T17:20:31Z</time>
      </trkpt>
      <trkpt lat="46.59396" lon="5.62729">
        <ele>535.2</ele>
        <time>2022-03-04T17:20:32Z</time>
      </trkpt>
      <trkpt lat="46.59396" lon="5.62734">
        <ele>535.2</ele>
        <time>2022-03-04T17:20:33Z</time>
      </trkpt>
      <trkpt lat="46.59396" lon="5.6274">
        <ele>535.2</ele>
        <time>2022-03-04T17:20:34Z</time>
      </trkpt>
      <trkpt lat="46.59396" lon="5.62745">
        <ele>535.4</ele>
        <time>2022-03-04T17:20:35Z</time>
      </trkpt>
      <trkpt lat="46.59396" lon="5.62751">
        <ele>535.4</ele>
        <time>2022-03-04T17:20:36Z</time>
      </trkpt>
      <trkpt lat="46.59396" lon="5.62757">
        <ele>535.6</ele>
        <time>2022-03-04T17:20:37Z</time>
      </trkpt>
      <trkpt lat="46.59396" lon="5.62762">
        <ele>535.6</ele>
        <time>2022-03-04T17:20:38Z</time>
      </trkpt>
      <trkpt lat="46.59396" lon="5.62767">
        <ele>535.6</ele>
        <time>2022-03-04T17:20:39Z</time>
      </trkpt>
      <trkpt lat="46.59396" lon="5.62772">
        <ele>535.6</ele>
        <time>2022-03-04T17:20:40Z</time>
      </trkpt>
      <trkpt lat="46.59396" lon="5.62778">
        <ele>535.6</ele>
        <time>2022-03-04T17:20:41Z</time>
      </trkpt>
      <trkpt lat="46.59396" lon="5.62783">
        <ele>535.8</ele>
        <time>2022-03-04T17:20:42Z</time>
      </trkpt>
      <trkpt lat="46.59396" lon="5.62788">
        <ele>535.8</ele>
        <time>2022-03-04T17:20:43Z</time>
      </trkpt>
      <trkpt lat="46.59396" lon="5.62794">
        <ele>535.8</ele>
        <time>2022-03-04T17:20:44Z</time>
      </trkpt>
      <trkpt lat="46.59395" lon="5.628">
        <ele>535.8</ele>
        <time>2022-03-04T17:20:45Z</time>
      </trkpt>
      <trkpt lat="46.59395" lon="5.62805">
        <ele>535.8</ele>
        <time>2022-03-04T17:20:46Z</time>
      </trkpt>
      <trkpt lat="46.59394" lon="5.62811">
        <ele>535.8</ele>
        <time>2022-03-04T17:20:47Z</time>
      </trkpt>
      <trkpt lat="46.59394" lon="5.62811">
        <ele>535.8</ele>
        <time>2022-03-04T17:20:48Z</time>
      </trkpt>
      <trkpt lat="46.59394" lon="5.62817">
        <ele>535.8</ele>
        <time>2022-03-04T17:20:49Z</time>
      </trkpt>
      <trkpt lat="46.59393" lon="5.62823">
        <ele>535.8</ele>
        <time>2022-03-04T17:20:50Z</time>
      </trkpt>
      <trkpt lat="46.59393" lon="5.62829">
        <ele>535.8</ele>
        <time>2022-03-04T17:20:51Z</time>
      </trkpt>
      <trkpt lat="46.59393" lon="5.62835">
        <ele>535.8</ele>
        <time>2022-03-04T17:20:52Z</time>
      </trkpt>
      <trkpt lat="46.59393" lon="5.6284">
        <ele>535.8</ele>
        <time>2022-03-04T17:20:53Z</time>
      </trkpt>
      <trkpt lat="46.59392" lon="5.62846">
        <ele>535.8</ele>
        <time>2022-03-04T17:20:54Z</time>
      </trkpt>
      <trkpt lat="46.59392" lon="5.62852">
        <ele>535.8</ele>
        <time>2022-03-04T17:20:55Z</time>
      </trkpt>
      <trkpt lat="46.59392" lon="5.62857">
        <ele>535.8</ele>
        <time>2022-03-04T17:20:56Z</time>
      </trkpt>
      <trkpt lat="46.59391" lon="5.62862">
        <ele>535.8</ele>
        <time>2022-03-04T17:20:57Z</time>
      </trkpt>
      <trkpt lat="46.59391" lon="5.62868">
        <ele>535.8</ele>
        <time>2022-03-04T17:20:58Z</time>
      </trkpt>
      <trkpt lat="46.59392" lon="5.62873">
        <ele>535.8</ele>
        <time>2022-03-04T17:20:59Z</time>
      </trkpt>
      <trkpt lat="46.59392" lon="5.62879">
        <ele>535.8</ele>
        <time>2022-03-04T17:21:00Z</time>
      </trkpt>
      <trkpt lat="46.59393" lon="5.62884">
        <ele>535.8</ele>
        <time>2022-03-04T17:21:01Z</time>
      </trkpt>
      <trkpt lat="46.59394" lon="5.6289">
        <ele>535.8</ele>
        <time>2022-03-04T17:21:02Z</time>
      </trkpt>
      <trkpt lat="46.59395" lon="5.62895">
        <ele>535.8</ele>
        <time>2022-03-04T17:21:03Z</time>
      </trkpt>
      <trkpt lat="46.59396" lon="5.629">
        <ele>535.8</ele>
        <time>2022-03-04T17:21:04Z</time>
      </trkpt>
      <trkpt lat="46.59397" lon="5.62905">
        <ele>535.8</ele>
        <time>2022-03-04T17:21:05Z</time>
      </trkpt>
      <trkpt lat="46.59399" lon="5.6291">
        <ele>535.8</ele>
        <time>2022-03-04T17:21:06Z</time>
      </trkpt>
      <trkpt lat="46.594" lon="5.62915">
        <ele>535.8</ele>
        <time>2022-03-04T17:21:07Z</time>
      </trkpt>
      <trkpt lat="46.59401" lon="5.62919">
        <ele>535.8</ele>
        <time>2022-03-04T17:21:08Z</time>
      </trkpt>
      <trkpt lat="46.59401" lon="5.62924">
        <ele>535.8</ele>
        <time>2022-03-04T17:21:09Z</time>
      </trkpt>
      <trkpt lat="46.594" lon="5.62929">
        <ele>536</ele>
        <time>2022-03-04T17:21:10Z</time>
      </trkpt>
      <trkpt lat="46.59399" lon="5.62933">
        <ele>536</ele>
        <time>2022-03-04T17:21:11Z</time>
      </trkpt>
      <trkpt lat="46.59397" lon="5.62937">
        <ele>536</ele>
        <time>2022-03-04T17:21:12Z</time>
      </trkpt>
      <trkpt lat="46.59396" lon="5.62941">
        <ele>536.4</ele>
        <time>2022-03-04T17:21:13Z</time>
      </trkpt>
      <trkpt lat="46.59394" lon="5.62944">
        <ele>536.4</ele>
        <time>2022-03-04T17:21:14Z</time>
      </trkpt>
      <trkpt lat="46.59393" lon="5.62948">
        <ele>536.6</ele>
        <time>2022-03-04T17:21:15Z</time>
      </trkpt>
      <trkpt lat="46.59391" lon="5.6295">
        <ele>536.6</ele>
        <time>2022-03-04T17:21:16Z</time>
      </trkpt>
      <trkpt lat="46.5939" lon="5.62952">
        <ele>536.8</ele>
        <time>2022-03-04T17:21:17Z</time>
      </trkpt>
      <trkpt lat="46.59388" lon="5.62954">
        <ele>536.8</ele>
        <time>2022-03-04T17:21:18Z</time>
      </trkpt>
      <trkpt lat="46.59387" lon="5.62955">
        <ele>536.8</ele>
        <time>2022-03-04T17:21:19Z</time>
      </trkpt>
      <trkpt lat="46.59384" lon="5.62955">
        <ele>536.8</ele>
        <time>2022-03-04T17:21:20Z</time>
      </trkpt>
      <trkpt lat="46.59382" lon="5.62954">
        <ele>536.8</ele>
        <time>2022-03-04T17:21:21Z</time>
      </trkpt>
      <trkpt lat="46.5938" lon="5.62954">
        <ele>536.8</ele>
        <time>2022-03-04T17:21:22Z</time>
      </trkpt>
      <trkpt lat="46.59378" lon="5.62953">
        <ele>536.8</ele>
        <time>2022-03-04T17:21:23Z</time>
      </trkpt>
      <trkpt lat="46.59377" lon="5.62952">
        <ele>536.8</ele>
        <time>2022-03-04T17:21:24Z</time>
      </trkpt>
      <trkpt lat="46.59376" lon="5.62951">
        <ele>536.8</ele>
        <time>2022-03-04T17:21:25Z</time>
      </trkpt>
      <trkpt lat="46.59376" lon="5.62951">
        <ele>536.8</ele>
        <time>2022-03-04T17:21:26Z</time>
      </trkpt>
      <trkpt lat="46.59376" lon="5.62953">
        <ele>536.8</ele>
        <time>2022-03-04T17:21:27Z</time>
      </trkpt>
      <trkpt lat="46.59376" lon="5.62953">
        <ele>536.8</ele>
        <time>2022-03-04T17:21:28Z</time>
      </trkpt>
      <trkpt lat="46.59377" lon="5.62953">
        <ele>536.8</ele>
        <time>2022-03-04T17:21:29Z</time>
      </trkpt>
      <trkpt lat="46.59377" lon="5.62953">
        <ele>537</ele>
        <time>2022-03-04T17:21:31Z</time>
      </trkpt>
      <trkpt lat="46.59377" lon="5.62953">
        <ele>537</ele>
        <time>2022-03-04T17:21:32Z</time>
      </trkpt>
      <trkpt lat="46.59383" lon="5.62953">
        <ele>537</ele>
        <time>2022-03-04T17:21:34Z</time>
      </trkpt>
      <trkpt lat="46.59384" lon="5.62953">
        <ele>537</ele>
        <time>2022-03-04T17:21:35Z</time>
      </trkpt>
      <trkpt lat="46.59387" lon="5.62953">
        <ele>537</ele>
        <time>2022-03-04T17:21:36Z</time>
      </trkpt>
      <trkpt lat="46.59389" lon="5.62953">
        <ele>537</ele>
        <time>2022-03-04T17:21:37Z</time>
      </trkpt>
      <trkpt lat="46.59391" lon="5.62953">
        <ele>537</ele>
        <time>2022-03-04T17:21:38Z</time>
      </trkpt>
      <trkpt lat="46.59394" lon="5.62953">
        <ele>537</ele>
        <time>2022-03-04T17:21:39Z</time>
      </trkpt>
      <trkpt lat="46.59396" lon="5.62954">
        <ele>537</ele>
        <time>2022-03-04T17:21:40Z</time>
      </trkpt>
      <trkpt lat="46.59399" lon="5.62955">
        <ele>537</ele>
        <time>2022-03-04T17:21:41Z</time>
      </trkpt>
      <trkpt lat="46.59401" lon="5.62956">
        <ele>537.4</ele>
        <time>2022-03-04T17:21:42Z</time>
      </trkpt>
      <trkpt lat="46.59404" lon="5.62957">
        <ele>537.4</ele>
        <time>2022-03-04T17:21:43Z</time>
      </trkpt>
      <trkpt lat="46.59406" lon="5.62957">
        <ele>537.4</ele>
        <time>2022-03-04T17:21:44Z</time>
      </trkpt>
      <trkpt lat="46.59409" lon="5.62958">
        <ele>537.4</ele>
        <time>2022-03-04T17:21:45Z</time>
      </trkpt>
      <trkpt lat="46.59412" lon="5.62959">
        <ele>537.4</ele>
        <time>2022-03-04T17:21:46Z</time>
      </trkpt>
      <trkpt lat="46.59414" lon="5.6296">
        <ele>537.4</ele>
        <time>2022-03-04T17:21:47Z</time>
      </trkpt>
      <trkpt lat="46.59416" lon="5.62961">
        <ele>537.4</ele>
        <time>2022-03-04T17:21:48Z</time>
      </trkpt>
      <trkpt lat="46.59417" lon="5.62963">
        <ele>537</ele>
        <time>2022-03-04T17:21:49Z</time>
      </trkpt>
      <trkpt lat="46.59418" lon="5.62966">
        <ele>537</ele>
        <time>2022-03-04T17:21:50Z</time>
      </trkpt>
      <trkpt lat="46.59419" lon="5.6297">
        <ele>537</ele>
        <time>2022-03-04T17:21:51Z</time>
      </trkpt>
      <trkpt lat="46.59418" lon="5.62973">
        <ele>537</ele>
        <time>2022-03-04T17:21:52Z</time>
      </trkpt>
      <trkpt lat="46.59416" lon="5.62976">
        <ele>537</ele>
        <time>2022-03-04T17:21:53Z</time>
      </trkpt>
      <trkpt lat="46.59414" lon="5.62977">
        <ele>537</ele>
        <time>2022-03-04T17:21:54Z</time>
      </trkpt>
      <trkpt lat="46.59411" lon="5.62978">
        <ele>537</ele>
        <time>2022-03-04T17:21:55Z</time>
      </trkpt>
      <trkpt lat="46.59408" lon="5.62978">
        <ele>537</ele>
        <time>2022-03-04T17:21:56Z</time>
      </trkpt>
      <trkpt lat="46.59405" lon="5.62978">
        <ele>537</ele>
        <time>2022-03-04T17:21:57Z</time>
      </trkpt>
      <trkpt lat="46.59402" lon="5.62978">
        <ele>537</ele>
        <time>2022-03-04T17:21:58Z</time>
      </trkpt>
      <trkpt lat="46.59398" lon="5.62978">
        <ele>537</ele>
        <time>2022-03-04T17:21:59Z</time>
      </trkpt>
      <trkpt lat="46.59395" lon="5.62979">
        <ele>537</ele>
        <time>2022-03-04T17:22:00Z</time>
      </trkpt>
      <trkpt lat="46.59392" lon="5.62979">
        <ele>537</ele>
        <time>2022-03-04T17:22:01Z</time>
      </trkpt>
      <trkpt lat="46.59389" lon="5.62979">
        <ele>537</ele>
        <time>2022-03-04T17:22:02Z</time>
      </trkpt>
      <trkpt lat="46.59385" lon="5.6298">
        <ele>537</ele>
        <time>2022-03-04T17:22:03Z</time>
      </trkpt>
      <trkpt lat="46.59382" lon="5.62981">
        <ele>537</ele>
        <time>2022-03-04T17:22:04Z</time>
      </trkpt>
      <trkpt lat="46.59378" lon="5.62982">
        <ele>537</ele>
        <time>2022-03-04T17:22:05Z</time>
      </trkpt>
      <trkpt lat="46.59375" lon="5.62982">
        <ele>537</ele>
        <time>2022-03-04T17:22:06Z</time>
      </trkpt>
      <trkpt lat="46.59371" lon="5.62983">
        <ele>537.2</ele>
        <time>2022-03-04T17:22:07Z</time>
      </trkpt>
      <trkpt lat="46.59367" lon="5.62983">
        <ele>537.2</ele>
        <time>2022-03-04T17:22:08Z</time>
      </trkpt>
      <trkpt lat="46.59364" lon="5.62984">
        <ele>537.2</ele>
        <time>2022-03-04T17:22:09Z</time>
      </trkpt>
      <trkpt lat="46.5936" lon="5.62985">
        <ele>537.2</ele>
        <time>2022-03-04T17:22:10Z</time>
      </trkpt>
      <trkpt lat="46.59356" lon="5.62986">
        <ele>537.2</ele>
        <time>2022-03-04T17:22:11Z</time>
      </trkpt>
      <trkpt lat="46.59352" lon="5.62986">
        <ele>537.2</ele>
        <time>2022-03-04T17:22:12Z</time>
      </trkpt>
      <trkpt lat="46.59348" lon="5.62987">
        <ele>537.6</ele>
        <time>2022-03-04T17:22:13Z</time>
      </trkpt>
      <trkpt lat="46.59344" lon="5.62988">
        <ele>537.6</ele>
        <time>2022-03-04T17:22:14Z</time>
      </trkpt>
      <trkpt lat="46.5934" lon="5.62989">
        <ele>537.6</ele>
        <time>2022-03-04T17:22:15Z</time>
      </trkpt>
      <trkpt lat="46.59336" lon="5.62989">
        <ele>537.6</ele>
        <time>2022-03-04T17:22:16Z</time>
      </trkpt>
      <trkpt lat="46.59332" lon="5.6299">
        <ele>537.6</ele>
        <time>2022-03-04T17:22:17Z</time>
      </trkpt>
      <trkpt lat="46.59327" lon="5.62991">
        <ele>537.6</ele>
        <time>2022-03-04T17:22:18Z</time>
      </trkpt>
      <trkpt lat="46.59323" lon="5.62992">
        <ele>537.6</ele>
        <time>2022-03-04T17:22:19Z</time>
      </trkpt>
      <trkpt lat="46.59319" lon="5.62992">
        <ele>537.6</ele>
        <time>2022-03-04T17:22:20Z</time>
      </trkpt>
      <trkpt lat="46.59314" lon="5.62993">
        <ele>537.6</ele>
        <time>2022-03-04T17:22:21Z</time>
      </trkpt>
      <trkpt lat="46.5931" lon="5.62994">
        <ele>537.2</ele>
        <time>2022-03-04T17:22:22Z</time>
      </trkpt>
      <trkpt lat="46.59305" lon="5.62994">
        <ele>537.2</ele>
        <time>2022-03-04T17:22:23Z</time>
      </trkpt>
      <trkpt lat="46.59301" lon="5.62995">
        <ele>537.2</ele>
        <time>2022-03-04T17:22:24Z</time>
      </trkpt>
      <trkpt lat="46.59296" lon="5.62996">
        <ele>537.2</ele>
        <time>2022-03-04T17:22:25Z</time>
      </trkpt>
      <trkpt lat="46.59291" lon="5.62996">
        <ele>537.2</ele>
        <time>2022-03-04T17:22:26Z</time>
      </trkpt>
      <trkpt lat="46.59287" lon="5.62997">
        <ele>537.2</ele>
        <time>2022-03-04T17:22:27Z</time>
      </trkpt>
      <trkpt lat="46.59282" lon="5.62997">
        <ele>537.2</ele>
        <time>2022-03-04T17:22:28Z</time>
      </trkpt>
      <trkpt lat="46.59277" lon="5.62997">
        <ele>537.2</ele>
        <time>2022-03-04T17:22:29Z</time>
      </trkpt>
      <trkpt lat="46.59272" lon="5.62997">
        <ele>537</ele>
        <time>2022-03-04T17:22:30Z</time>
      </trkpt>
      <trkpt lat="46.59268" lon="5.62998">
        <ele>537</ele>
        <time>2022-03-04T17:22:31Z</time>
      </trkpt>
      <trkpt lat="46.59263" lon="5.62998">
        <ele>537</ele>
        <time>2022-03-04T17:22:32Z</time>
      </trkpt>
      <trkpt lat="46.59257" lon="5.62998">
        <ele>536.8</ele>
        <time>2022-03-04T17:22:33Z</time>
      </trkpt>
      <trkpt lat="46.59252" lon="5.62998">
        <ele>536.8</ele>
        <time>2022-03-04T17:22:34Z</time>
      </trkpt>
      <trkpt lat="46.59247" lon="5.62998">
        <ele>536.8</ele>
        <time>2022-03-04T17:22:35Z</time>
      </trkpt>
      <trkpt lat="46.59242" lon="5.62998">
        <ele>536.8</ele>
        <time>2022-03-04T17:22:36Z</time>
      </trkpt>
      <trkpt lat="46.59237" lon="5.62998">
        <ele>536.8</ele>
        <time>2022-03-04T17:22:37Z</time>
      </trkpt>
      <trkpt lat="46.59233" lon="5.62997">
        <ele>536.6</ele>
        <time>2022-03-04T17:22:38Z</time>
      </trkpt>
      <trkpt lat="46.59228" lon="5.62996">
        <ele>536.6</ele>
        <time>2022-03-04T17:22:39Z</time>
      </trkpt>
      <trkpt lat="46.59223" lon="5.62996">
        <ele>536.6</ele>
        <time>2022-03-04T17:22:40Z</time>
      </trkpt>
      <trkpt lat="46.59218" lon="5.62995">
        <ele>536.6</ele>
        <time>2022-03-04T17:22:41Z</time>
      </trkpt>
      <trkpt lat="46.59213" lon="5.62994">
        <ele>536.6</ele>
        <time>2022-03-04T17:22:42Z</time>
      </trkpt>
      <trkpt lat="46.59208" lon="5.62994">
        <ele>536.6</ele>
        <time>2022-03-04T17:22:43Z</time>
      </trkpt>
      <trkpt lat="46.59203" lon="5.62993">
        <ele>536.4</ele>
        <time>2022-03-04T17:22:44Z</time>
      </trkpt>
      <trkpt lat="46.59198" lon="5.62992">
        <ele>536.4</ele>
        <time>2022-03-04T17:22:45Z</time>
      </trkpt>
      <trkpt lat="46.59192" lon="5.62992">
        <ele>536.4</ele>
        <time>2022-03-04T17:22:46Z</time>
      </trkpt>
      <trkpt lat="46.59187" lon="5.62991">
        <ele>536.4</ele>
        <time>2022-03-04T17:22:47Z</time>
      </trkpt>
      <trkpt lat="46.59182" lon="5.62991">
        <ele>536.4</ele>
        <time>2022-03-04T17:22:48Z</time>
      </trkpt>
      <trkpt lat="46.59176" lon="5.6299">
        <ele>536.4</ele>
        <time>2022-03-04T17:22:49Z</time>
      </trkpt>
      <trkpt lat="46.59171" lon="5.62989">
        <ele>536.4</ele>
        <time>2022-03-04T17:22:50Z</time>
      </trkpt>
      <trkpt lat="46.59166" lon="5.62988">
        <ele>536</ele>
        <time>2022-03-04T17:22:51Z</time>
      </trkpt>
      <trkpt lat="46.5916" lon="5.62987">
        <ele>536</ele>
        <time>2022-03-04T17:22:52Z</time>
      </trkpt>
      <trkpt lat="46.59155" lon="5.62986">
        <ele>536</ele>
        <time>2022-03-04T17:22:53Z</time>
      </trkpt>
      <trkpt lat="46.59149" lon="5.62985">
        <ele>536</ele>
        <time>2022-03-04T17:22:54Z</time>
      </trkpt>
      <trkpt lat="46.59144" lon="5.62984">
        <ele>535.8</ele>
        <time>2022-03-04T17:22:55Z</time>
      </trkpt>
      <trkpt lat="46.59138" lon="5.62983">
        <ele>535.8</ele>
        <time>2022-03-04T17:22:56Z</time>
      </trkpt>
      <trkpt lat="46.59132" lon="5.62983">
        <ele>535.6</ele>
        <time>2022-03-04T17:22:57Z</time>
      </trkpt>
      <trkpt lat="46.59127" lon="5.62982">
        <ele>535.6</ele>
        <time>2022-03-04T17:22:58Z</time>
      </trkpt>
      <trkpt lat="46.59121" lon="5.62981">
        <ele>535.6</ele>
        <time>2022-03-04T17:22:59Z</time>
      </trkpt>
      <trkpt lat="46.59115" lon="5.6298">
        <ele>535.6</ele>
        <time>2022-03-04T17:23:00Z</time>
      </trkpt>
      <trkpt lat="46.59115" lon="5.6298">
        <ele>535.4</ele>
        <time>2022-03-04T17:23:01Z</time>
      </trkpt>
      <trkpt lat="46.59109" lon="5.62979">
        <ele>535.4</ele>
        <time>2022-03-04T17:23:02Z</time>
      </trkpt>
      <trkpt lat="46.59104" lon="5.62978">
        <ele>535.4</ele>
        <time>2022-03-04T17:23:03Z</time>
      </trkpt>
      <trkpt lat="46.59098" lon="5.62978">
        <ele>535.4</ele>
        <time>2022-03-04T17:23:04Z</time>
      </trkpt>
      <trkpt lat="46.59092" lon="5.62977">
        <ele>535.2</ele>
        <time>2022-03-04T17:23:05Z</time>
      </trkpt>
      <trkpt lat="46.59086" lon="5.62976">
        <ele>535.2</ele>
        <time>2022-03-04T17:23:06Z</time>
      </trkpt>
      <trkpt lat="46.5908" lon="5.62975">
        <ele>535.2</ele>
        <time>2022-03-04T17:23:07Z</time>
      </trkpt>
      <trkpt lat="46.59074" lon="5.62974">
        <ele>535</ele>
        <time>2022-03-04T17:23:08Z</time>
      </trkpt>
      <trkpt lat="46.59069" lon="5.62974">
        <ele>535</ele>
        <time>2022-03-04T17:23:09Z</time>
      </trkpt>
      <trkpt lat="46.59063" lon="5.62973">
        <ele>535</ele>
        <time>2022-03-04T17:23:10Z</time>
      </trkpt>
      <trkpt lat="46.59057" lon="5.62972">
        <ele>534.8</ele>
        <time>2022-03-04T17:23:11Z</time>
      </trkpt>
      <trkpt lat="46.59051" lon="5.62971">
        <ele>534.8</ele>
        <time>2022-03-04T17:23:12Z</time>
      </trkpt>
      <trkpt lat="46.59045" lon="5.6297">
        <ele>534.8</ele>
        <time>2022-03-04T17:23:13Z</time>
      </trkpt>
      <trkpt lat="46.59039" lon="5.62969">
        <ele>534.8</ele>
        <time>2022-03-04T17:23:14Z</time>
      </trkpt>
      <trkpt lat="46.59033" lon="5.62969">
        <ele>534.8</ele>
        <time>2022-03-04T17:23:15Z</time>
      </trkpt>
      <trkpt lat="46.59028" lon="5.62968">
        <ele>534.8</ele>
        <time>2022-03-04T17:23:16Z</time>
      </trkpt>
      <trkpt lat="46.59022" lon="5.62967">
        <ele>534.8</ele>
        <time>2022-03-04T17:23:17Z</time>
      </trkpt>
      <trkpt lat="46.59016" lon="5.62966">
        <ele>534.8</ele>
        <time>2022-03-04T17:23:18Z</time>
      </trkpt>
      <trkpt lat="46.5901" lon="5.62965">
        <ele>534.4</ele>
        <time>2022-03-04T17:23:19Z</time>
      </trkpt>
      <trkpt lat="46.59004" lon="5.62964">
        <ele>534.4</ele>
        <time>2022-03-04T17:23:20Z</time>
      </trkpt>
      <trkpt lat="46.58998" lon="5.62963">
        <ele>534.2</ele>
        <time>2022-03-04T17:23:21Z</time>
      </trkpt>
      <trkpt lat="46.58992" lon="5.62962">
        <ele>534.2</ele>
        <time>2022-03-04T17:23:22Z</time>
      </trkpt>
      <trkpt lat="46.58986" lon="5.62962">
        <ele>534.2</ele>
        <time>2022-03-04T17:23:23Z</time>
      </trkpt>
      <trkpt lat="46.5898" lon="5.62961">
        <ele>534.2</ele>
        <time>2022-03-04T17:23:24Z</time>
      </trkpt>
      <trkpt lat="46.58974" lon="5.6296">
        <ele>534.2</ele>
        <time>2022-03-04T17:23:25Z</time>
      </trkpt>
      <trkpt lat="46.58968" lon="5.62959">
        <ele>534.2</ele>
        <time>2022-03-04T17:23:26Z</time>
      </trkpt>
      <trkpt lat="46.58963" lon="5.62958">
        <ele>534.2</ele>
        <time>2022-03-04T17:23:27Z</time>
      </trkpt>
      <trkpt lat="46.58957" lon="5.62957">
        <ele>534</ele>
        <time>2022-03-04T17:23:28Z</time>
      </trkpt>
      <trkpt lat="46.58951" lon="5.62956">
        <ele>534</ele>
        <time>2022-03-04T17:23:29Z</time>
      </trkpt>
      <trkpt lat="46.58945" lon="5.62956">
        <ele>534</ele>
        <time>2022-03-04T17:23:30Z</time>
      </trkpt>
      <trkpt lat="46.58939" lon="5.62955">
        <ele>534</ele>
        <time>2022-03-04T17:23:31Z</time>
      </trkpt>
      <trkpt lat="46.58933" lon="5.62954">
        <ele>534</ele>
        <time>2022-03-04T17:23:32Z</time>
      </trkpt>
      <trkpt lat="46.58927" lon="5.62953">
        <ele>534</ele>
        <time>2022-03-04T17:23:33Z</time>
      </trkpt>
      <trkpt lat="46.58922" lon="5.62952">
        <ele>534</ele>
        <time>2022-03-04T17:23:34Z</time>
      </trkpt>
      <trkpt lat="46.58916" lon="5.62952">
        <ele>534</ele>
        <time>2022-03-04T17:23:35Z</time>
      </trkpt>
      <trkpt lat="46.5891" lon="5.62951">
        <ele>534</ele>
        <time>2022-03-04T17:23:36Z</time>
      </trkpt>
      <trkpt lat="46.58904" lon="5.6295">
        <ele>534</ele>
        <time>2022-03-04T17:23:37Z</time>
      </trkpt>
      <trkpt lat="46.58899" lon="5.62949">
        <ele>533.8</ele>
        <time>2022-03-04T17:23:38Z</time>
      </trkpt>
      <trkpt lat="46.58893" lon="5.62948">
        <ele>533.8</ele>
        <time>2022-03-04T17:23:39Z</time>
      </trkpt>
      <trkpt lat="46.58887" lon="5.62947">
        <ele>533.8</ele>
        <time>2022-03-04T17:23:40Z</time>
      </trkpt>
      <trkpt lat="46.58881" lon="5.62947">
        <ele>533.8</ele>
        <time>2022-03-04T17:23:41Z</time>
      </trkpt>
      <trkpt lat="46.58876" lon="5.62946">
        <ele>533.8</ele>
        <time>2022-03-04T17:23:42Z</time>
      </trkpt>
      <trkpt lat="46.5887" lon="5.62945">
        <ele>533.8</ele>
        <time>2022-03-04T17:23:43Z</time>
      </trkpt>
      <trkpt lat="46.58864" lon="5.62944">
        <ele>533.8</ele>
        <time>2022-03-04T17:23:44Z</time>
      </trkpt>
      <trkpt lat="46.58859" lon="5.62943">
        <ele>533.8</ele>
        <time>2022-03-04T17:23:45Z</time>
      </trkpt>
      <trkpt lat="46.58853" lon="5.62942">
        <ele>533.8</ele>
        <time>2022-03-04T17:23:46Z</time>
      </trkpt>
      <trkpt lat="46.58848" lon="5.62942">
        <ele>533.8</ele>
        <time>2022-03-04T17:23:47Z</time>
      </trkpt>
      <trkpt lat="46.58842" lon="5.62941">
        <ele>533.8</ele>
        <time>2022-03-04T17:23:48Z</time>
      </trkpt>
      <trkpt lat="46.58837" lon="5.6294">
        <ele>533.8</ele>
        <time>2022-03-04T17:23:49Z</time>
      </trkpt>
      <trkpt lat="46.58831" lon="5.62939">
        <ele>533.8</ele>
        <time>2022-03-04T17:23:50Z</time>
      </trkpt>
      <trkpt lat="46.58826" lon="5.62939">
        <ele>533.8</ele>
        <time>2022-03-04T17:23:51Z</time>
      </trkpt>
      <trkpt lat="46.5882" lon="5.62938">
        <ele>533.6</ele>
        <time>2022-03-04T17:23:52Z</time>
      </trkpt>
      <trkpt lat="46.58814" lon="5.62937">
        <ele>533.6</ele>
        <time>2022-03-04T17:23:53Z</time>
      </trkpt>
      <trkpt lat="46.58809" lon="5.62936">
        <ele>533.6</ele>
        <time>2022-03-04T17:23:54Z</time>
      </trkpt>
      <trkpt lat="46.58804" lon="5.62936">
        <ele>533.6</ele>
        <time>2022-03-04T17:23:55Z</time>
      </trkpt>
      <trkpt lat="46.58798" lon="5.62935">
        <ele>533.6</ele>
        <time>2022-03-04T17:23:56Z</time>
      </trkpt>
      <trkpt lat="46.58793" lon="5.62934">
        <ele>533.6</ele>
        <time>2022-03-04T17:23:57Z</time>
      </trkpt>
      <trkpt lat="46.58787" lon="5.62933">
        <ele>533.6</ele>
        <time>2022-03-04T17:23:58Z</time>
      </trkpt>
      <trkpt lat="46.58782" lon="5.62932">
        <ele>533.6</ele>
        <time>2022-03-04T17:23:59Z</time>
      </trkpt>
      <trkpt lat="46.58776" lon="5.62932">
        <ele>533.6</ele>
        <time>2022-03-04T17:24:00Z</time>
      </trkpt>
      <trkpt lat="46.58771" lon="5.62931">
        <ele>533.6</ele>
        <time>2022-03-04T17:24:01Z</time>
      </trkpt>
      <trkpt lat="46.58765" lon="5.6293">
        <ele>533.6</ele>
        <time>2022-03-04T17:24:02Z</time>
      </trkpt>
      <trkpt lat="46.5876" lon="5.62929">
        <ele>533.6</ele>
        <time>2022-03-04T17:24:03Z</time>
      </trkpt>
      <trkpt lat="46.58754" lon="5.62928">
        <ele>533.6</ele>
        <time>2022-03-04T17:24:04Z</time>
      </trkpt>
      <trkpt lat="46.58748" lon="5.62927">
        <ele>533.6</ele>
        <time>2022-03-04T17:24:05Z</time>
      </trkpt>
      <trkpt lat="46.58743" lon="5.62925">
        <ele>533.6</ele>
        <time>2022-03-04T17:24:06Z</time>
      </trkpt>
      <trkpt lat="46.58737" lon="5.62924">
        <ele>533.6</ele>
        <time>2022-03-04T17:24:07Z</time>
      </trkpt>
      <trkpt lat="46.58731" lon="5.62923">
        <ele>533.6</ele>
        <time>2022-03-04T17:24:08Z</time>
      </trkpt>
      <trkpt lat="46.58726" lon="5.62921">
        <ele>533.6</ele>
        <time>2022-03-04T17:24:09Z</time>
      </trkpt>
      <trkpt lat="46.5872" lon="5.6292">
        <ele>533.6</ele>
        <time>2022-03-04T17:24:10Z</time>
      </trkpt>
      <trkpt lat="46.58714" lon="5.62918">
        <ele>533.6</ele>
        <time>2022-03-04T17:24:11Z</time>
      </trkpt>
      <trkpt lat="46.58708" lon="5.62916">
        <ele>533.4</ele>
        <time>2022-03-04T17:24:12Z</time>
      </trkpt>
      <trkpt lat="46.58702" lon="5.62915">
        <ele>533.4</ele>
        <time>2022-03-04T17:24:13Z</time>
      </trkpt>
      <trkpt lat="46.58696" lon="5.62913">
        <ele>533.4</ele>
        <time>2022-03-04T17:24:14Z</time>
      </trkpt>
      <trkpt lat="46.5869" lon="5.62911">
        <ele>533.2</ele>
        <time>2022-03-04T17:24:15Z</time>
      </trkpt>
      <trkpt lat="46.58684" lon="5.6291">
        <ele>533.2</ele>
        <time>2022-03-04T17:24:16Z</time>
      </trkpt>
      <trkpt lat="46.58678" lon="5.62908">
        <ele>533.2</ele>
        <time>2022-03-04T17:24:17Z</time>
      </trkpt>
      <trkpt lat="46.58672" lon="5.62906">
        <ele>532.8</ele>
        <time>2022-03-04T17:24:18Z</time>
      </trkpt>
      <trkpt lat="46.58666" lon="5.62905">
        <ele>532.8</ele>
        <time>2022-03-04T17:24:19Z</time>
      </trkpt>
      <trkpt lat="46.5866" lon="5.62903">
        <ele>532.4</ele>
        <time>2022-03-04T17:24:20Z</time>
      </trkpt>
      <trkpt lat="46.58654" lon="5.62901">
        <ele>532.4</ele>
        <time>2022-03-04T17:24:21Z</time>
      </trkpt>
      <trkpt lat="46.58647" lon="5.62899">
        <ele>532.4</ele>
        <time>2022-03-04T17:24:22Z</time>
      </trkpt>
      <trkpt lat="46.58641" lon="5.62897">
        <ele>532.2</ele>
        <time>2022-03-04T17:24:23Z</time>
      </trkpt>
      <trkpt lat="46.58634" lon="5.62895">
        <ele>531.8</ele>
        <time>2022-03-04T17:24:24Z</time>
      </trkpt>
      <trkpt lat="46.58628" lon="5.62893">
        <ele>531.6</ele>
        <time>2022-03-04T17:24:25Z</time>
      </trkpt>
      <trkpt lat="46.58622" lon="5.62891">
        <ele>531.6</ele>
        <time>2022-03-04T17:24:26Z</time>
      </trkpt>
      <trkpt lat="46.58615" lon="5.6289">
        <ele>531.6</ele>
        <time>2022-03-04T17:24:27Z</time>
      </trkpt>
      <trkpt lat="46.58609" lon="5.62888">
        <ele>531.4</ele>
        <time>2022-03-04T17:24:28Z</time>
      </trkpt>
      <trkpt lat="46.58602" lon="5.62886">
        <ele>531.4</ele>
        <time>2022-03-04T17:24:29Z</time>
      </trkpt>
      <trkpt lat="46.58596" lon="5.62885">
        <ele>531.2</ele>
        <time>2022-03-04T17:24:30Z</time>
      </trkpt>
      <trkpt lat="46.5859" lon="5.62884">
        <ele>531.2</ele>
        <time>2022-03-04T17:24:31Z</time>
      </trkpt>
      <trkpt lat="46.58583" lon="5.62883">
        <ele>531.2</ele>
        <time>2022-03-04T17:24:32Z</time>
      </trkpt>
      <trkpt lat="46.58577" lon="5.62882">
        <ele>530.8</ele>
        <time>2022-03-04T17:24:33Z</time>
      </trkpt>
      <trkpt lat="46.58571" lon="5.62882">
        <ele>530.8</ele>
        <time>2022-03-04T17:24:34Z</time>
      </trkpt>
      <trkpt lat="46.58564" lon="5.62882">
        <ele>530.8</ele>
        <time>2022-03-04T17:24:35Z</time>
      </trkpt>
      <trkpt lat="46.58558" lon="5.62882">
        <ele>530.8</ele>
        <time>2022-03-04T17:24:36Z</time>
      </trkpt>
      <trkpt lat="46.58551" lon="5.62883">
        <ele>530.6</ele>
        <time>2022-03-04T17:24:37Z</time>
      </trkpt>
      <trkpt lat="46.58545" lon="5.62885">
        <ele>530.6</ele>
        <time>2022-03-04T17:24:38Z</time>
      </trkpt>
      <trkpt lat="46.58539" lon="5.62887">
        <ele>530.2</ele>
        <time>2022-03-04T17:24:39Z</time>
      </trkpt>
      <trkpt lat="46.58532" lon="5.62889">
        <ele>530</ele>
        <time>2022-03-04T17:24:40Z</time>
      </trkpt>
      <trkpt lat="46.58526" lon="5.62892">
        <ele>530</ele>
        <time>2022-03-04T17:24:41Z</time>
      </trkpt>
      <trkpt lat="46.5852" lon="5.62895">
        <ele>529.8</ele>
        <time>2022-03-04T17:24:42Z</time>
      </trkpt>
      <trkpt lat="46.58513" lon="5.62898">
        <ele>529.8</ele>
        <time>2022-03-04T17:24:43Z</time>
      </trkpt>
      <trkpt lat="46.58507" lon="5.62901">
        <ele>529.4</ele>
        <time>2022-03-04T17:24:44Z</time>
      </trkpt>
      <trkpt lat="46.585" lon="5.62904">
        <ele>529.4</ele>
        <time>2022-03-04T17:24:45Z</time>
      </trkpt>
      <trkpt lat="46.58493" lon="5.62907">
        <ele>529.2</ele>
        <time>2022-03-04T17:24:46Z</time>
      </trkpt>
      <trkpt lat="46.58487" lon="5.6291">
        <ele>529</ele>
        <time>2022-03-04T17:24:47Z</time>
      </trkpt>
      <trkpt lat="46.5848" lon="5.62914">
        <ele>528.8</ele>
        <time>2022-03-04T17:24:48Z</time>
      </trkpt>
      <trkpt lat="46.58474" lon="5.62917">
        <ele>528.6</ele>
        <time>2022-03-04T17:24:49Z</time>
      </trkpt>
      <trkpt lat="46.58467" lon="5.6292">
        <ele>528.2</ele>
        <time>2022-03-04T17:24:50Z</time>
      </trkpt>
      <trkpt lat="46.5846" lon="5.62923">
        <ele>528.2</ele>
        <time>2022-03-04T17:24:51Z</time>
      </trkpt>
      <trkpt lat="46.58454" lon="5.62927">
        <ele>528</ele>
        <time>2022-03-04T17:24:52Z</time>
      </trkpt>
      <trkpt lat="46.58448" lon="5.6293">
        <ele>528</ele>
        <time>2022-03-04T17:24:53Z</time>
      </trkpt>
      <trkpt lat="46.58441" lon="5.62934">
        <ele>527.6</ele>
        <time>2022-03-04T17:24:54Z</time>
      </trkpt>
      <trkpt lat="46.58435" lon="5.62937">
        <ele>527.6</ele>
        <time>2022-03-04T17:24:55Z</time>
      </trkpt>
      <trkpt lat="46.58428" lon="5.6294">
        <ele>527.4</ele>
        <time>2022-03-04T17:24:56Z</time>
      </trkpt>
      <trkpt lat="46.58422" lon="5.62943">
        <ele>527.4</ele>
        <time>2022-03-04T17:24:57Z</time>
      </trkpt>
      <trkpt lat="46.58415" lon="5.62946">
        <ele>527</ele>
        <time>2022-03-04T17:24:58Z</time>
      </trkpt>
      <trkpt lat="46.58408" lon="5.62949">
        <ele>527</ele>
        <time>2022-03-04T17:24:59Z</time>
      </trkpt>
      <trkpt lat="46.58402" lon="5.62953">
        <ele>526.6</ele>
        <time>2022-03-04T17:25:00Z</time>
      </trkpt>
      <trkpt lat="46.58395" lon="5.62956">
        <ele>526.6</ele>
        <time>2022-03-04T17:25:01Z</time>
      </trkpt>
      <trkpt lat="46.58389" lon="5.62958">
        <ele>526.6</ele>
        <time>2022-03-04T17:25:02Z</time>
      </trkpt>
      <trkpt lat="46.58383" lon="5.62962">
        <ele>526.6</ele>
        <time>2022-03-04T17:25:03Z</time>
      </trkpt>
      <trkpt lat="46.58377" lon="5.62965">
        <ele>526.6</ele>
        <time>2022-03-04T17:25:04Z</time>
      </trkpt>
      <trkpt lat="46.5837" lon="5.62968">
        <ele>526.4</ele>
        <time>2022-03-04T17:25:05Z</time>
      </trkpt>
      <trkpt lat="46.58364" lon="5.62971">
        <ele>526.4</ele>
        <time>2022-03-04T17:25:06Z</time>
      </trkpt>
      <trkpt lat="46.58358" lon="5.62974">
        <ele>526.4</ele>
        <time>2022-03-04T17:25:07Z</time>
      </trkpt>
      <trkpt lat="46.58352" lon="5.62977">
        <ele>526</ele>
        <time>2022-03-04T17:25:08Z</time>
      </trkpt>
      <trkpt lat="46.58346" lon="5.6298">
        <ele>526</ele>
        <time>2022-03-04T17:25:09Z</time>
      </trkpt>
      <trkpt lat="46.5834" lon="5.62983">
        <ele>526</ele>
        <time>2022-03-04T17:25:10Z</time>
      </trkpt>
      <trkpt lat="46.58334" lon="5.62986">
        <ele>525.8</ele>
        <time>2022-03-04T17:25:11Z</time>
      </trkpt>
      <trkpt lat="46.58328" lon="5.62989">
        <ele>525.8</ele>
        <time>2022-03-04T17:25:12Z</time>
      </trkpt>
      <trkpt lat="46.58322" lon="5.62992">
        <ele>525.6</ele>
        <time>2022-03-04T17:25:13Z</time>
      </trkpt>
      <trkpt lat="46.58316" lon="5.62995">
        <ele>525.6</ele>
        <time>2022-03-04T17:25:14Z</time>
      </trkpt>
      <trkpt lat="46.5831" lon="5.62998">
        <ele>525.4</ele>
        <time>2022-03-04T17:25:15Z</time>
      </trkpt>
      <trkpt lat="46.58304" lon="5.63001">
        <ele>525.4</ele>
        <time>2022-03-04T17:25:16Z</time>
      </trkpt>
      <trkpt lat="46.58298" lon="5.63003">
        <ele>525.4</ele>
        <time>2022-03-04T17:25:17Z</time>
      </trkpt>
      <trkpt lat="46.58292" lon="5.63006">
        <ele>525</ele>
        <time>2022-03-04T17:25:18Z</time>
      </trkpt>
      <trkpt lat="46.58286" lon="5.63009">
        <ele>525</ele>
        <time>2022-03-04T17:25:19Z</time>
      </trkpt>
      <trkpt lat="46.5828" lon="5.63012">
        <ele>524.8</ele>
        <time>2022-03-04T17:25:20Z</time>
      </trkpt>
      <trkpt lat="46.58274" lon="5.63015">
        <ele>524.8</ele>
        <time>2022-03-04T17:25:21Z</time>
      </trkpt>
      <trkpt lat="46.58267" lon="5.63018">
        <ele>524.8</ele>
        <time>2022-03-04T17:25:22Z</time>
      </trkpt>
      <trkpt lat="46.58261" lon="5.63021">
        <ele>524.6</ele>
        <time>2022-03-04T17:25:23Z</time>
      </trkpt>
      <trkpt lat="46.58255" lon="5.63024">
        <ele>524.6</ele>
        <time>2022-03-04T17:25:24Z</time>
      </trkpt>
      <trkpt lat="46.58249" lon="5.63028">
        <ele>524.6</ele>
        <time>2022-03-04T17:25:25Z</time>
      </trkpt>
      <trkpt lat="46.58242" lon="5.63031">
        <ele>524.4</ele>
        <time>2022-03-04T17:25:26Z</time>
      </trkpt>
      <trkpt lat="46.58236" lon="5.63034">
        <ele>524.4</ele>
        <time>2022-03-04T17:25:27Z</time>
      </trkpt>
      <trkpt lat="46.5823" lon="5.63037">
        <ele>524</ele>
        <time>2022-03-04T17:25:28Z</time>
      </trkpt>
      <trkpt lat="46.58223" lon="5.63039">
        <ele>523.8</ele>
        <time>2022-03-04T17:25:29Z</time>
      </trkpt>
      <trkpt lat="46.58217" lon="5.63042">
        <ele>523.4</ele>
        <time>2022-03-04T17:25:30Z</time>
      </trkpt>
      <trkpt lat="46.5821" lon="5.63045">
        <ele>523.2</ele>
        <time>2022-03-04T17:25:31Z</time>
      </trkpt>
      <trkpt lat="46.58204" lon="5.63046">
        <ele>523</ele>
        <time>2022-03-04T17:25:32Z</time>
      </trkpt>
      <trkpt lat="46.58197" lon="5.63047">
        <ele>522.6</ele>
        <time>2022-03-04T17:25:33Z</time>
      </trkpt>
      <trkpt lat="46.58191" lon="5.63048">
        <ele>522.6</ele>
        <time>2022-03-04T17:25:34Z</time>
      </trkpt>
      <trkpt lat="46.58184" lon="5.63047">
        <ele>522.2</ele>
        <time>2022-03-04T17:25:35Z</time>
      </trkpt>
      <trkpt lat="46.58178" lon="5.63046">
        <ele>522.2</ele>
        <time>2022-03-04T17:25:36Z</time>
      </trkpt>
      <trkpt lat="46.58171" lon="5.63045">
        <ele>522</ele>
        <time>2022-03-04T17:25:37Z</time>
      </trkpt>
      <trkpt lat="46.58164" lon="5.63042">
        <ele>521.8</ele>
        <time>2022-03-04T17:25:38Z</time>
      </trkpt>
      <trkpt lat="46.58158" lon="5.63039">
        <ele>521.8</ele>
        <time>2022-03-04T17:25:39Z</time>
      </trkpt>
      <trkpt lat="46.58152" lon="5.63036">
        <ele>521.4</ele>
        <time>2022-03-04T17:25:40Z</time>
      </trkpt>
      <trkpt lat="46.58146" lon="5.63032">
        <ele>521.4</ele>
        <time>2022-03-04T17:25:41Z</time>
      </trkpt>
      <trkpt lat="46.5814" lon="5.63027">
        <ele>521.2</ele>
        <time>2022-03-04T17:25:42Z</time>
      </trkpt>
      <trkpt lat="46.58135" lon="5.63022">
        <ele>521.2</ele>
        <time>2022-03-04T17:25:43Z</time>
      </trkpt>
      <trkpt lat="46.58129" lon="5.63017">
        <ele>521</ele>
        <time>2022-03-04T17:25:44Z</time>
      </trkpt>
      <trkpt lat="46.58123" lon="5.63011">
        <ele>521</ele>
        <time>2022-03-04T17:25:45Z</time>
      </trkpt>
      <trkpt lat="46.58118" lon="5.63004">
        <ele>520.6</ele>
        <time>2022-03-04T17:25:46Z</time>
      </trkpt>
      <trkpt lat="46.58112" lon="5.62998">
        <ele>520.4</ele>
        <time>2022-03-04T17:25:47Z</time>
      </trkpt>
      <trkpt lat="46.58107" lon="5.62991">
        <ele>520.4</ele>
        <time>2022-03-04T17:25:48Z</time>
      </trkpt>
      <trkpt lat="46.58101" lon="5.62985">
        <ele>520.4</ele>
        <time>2022-03-04T17:25:49Z</time>
      </trkpt>
      <trkpt lat="46.58095" lon="5.62978">
        <ele>520.2</ele>
        <time>2022-03-04T17:25:50Z</time>
      </trkpt>
      <trkpt lat="46.5809" lon="5.62972">
        <ele>520.2</ele>
        <time>2022-03-04T17:25:51Z</time>
      </trkpt>
      <trkpt lat="46.58085" lon="5.62965">
        <ele>519.8</ele>
        <time>2022-03-04T17:25:52Z</time>
      </trkpt>
      <trkpt lat="46.58079" lon="5.62959">
        <ele>519.8</ele>
        <time>2022-03-04T17:25:53Z</time>
      </trkpt>
      <trkpt lat="46.58074" lon="5.62952">
        <ele>519.6</ele>
        <time>2022-03-04T17:25:54Z</time>
      </trkpt>
      <trkpt lat="46.58063" lon="5.62939">
        <ele>519.6</ele>
        <time>2022-03-04T17:25:55Z</time>
      </trkpt>
      <trkpt lat="46.58057" lon="5.62933">
        <ele>519.2</ele>
        <time>2022-03-04T17:25:56Z</time>
      </trkpt>
      <trkpt lat="46.58051" lon="5.62927">
        <ele>519</ele>
        <time>2022-03-04T17:25:57Z</time>
      </trkpt>
      <trkpt lat="46.58046" lon="5.62921">
        <ele>518.8</ele>
        <time>2022-03-04T17:25:58Z</time>
      </trkpt>
      <trkpt lat="46.5804" lon="5.62916">
        <ele>518.8</ele>
        <time>2022-03-04T17:25:59Z</time>
      </trkpt>
      <trkpt lat="46.58034" lon="5.62911">
        <ele>518.4</ele>
        <time>2022-03-04T17:26:00Z</time>
      </trkpt>
      <trkpt lat="46.58028" lon="5.62906">
        <ele>518.4</ele>
        <time>2022-03-04T17:26:01Z</time>
      </trkpt>
      <trkpt lat="46.58021" lon="5.62901">
        <ele>518.2</ele>
        <time>2022-03-04T17:26:02Z</time>
      </trkpt>
      <trkpt lat="46.58015" lon="5.62896">
        <ele>517.8</ele>
        <time>2022-03-04T17:26:03Z</time>
      </trkpt>
      <trkpt lat="46.58009" lon="5.62891">
        <ele>517.6</ele>
        <time>2022-03-04T17:26:04Z</time>
      </trkpt>
      <trkpt lat="46.58002" lon="5.62887">
        <ele>517.6</ele>
        <time>2022-03-04T17:26:05Z</time>
      </trkpt>
      <trkpt lat="46.57996" lon="5.62883">
        <ele>517.4</ele>
        <time>2022-03-04T17:26:06Z</time>
      </trkpt>
      <trkpt lat="46.57989" lon="5.62879">
        <ele>517.4</ele>
        <time>2022-03-04T17:26:07Z</time>
      </trkpt>
      <trkpt lat="46.57983" lon="5.62875">
        <ele>517.2</ele>
        <time>2022-03-04T17:26:08Z</time>
      </trkpt>
      <trkpt lat="46.57976" lon="5.62871">
        <ele>517.2</ele>
        <time>2022-03-04T17:26:09Z</time>
      </trkpt>
      <trkpt lat="46.5797" lon="5.62867">
        <ele>516.8</ele>
        <time>2022-03-04T17:26:10Z</time>
      </trkpt>
      <trkpt lat="46.57964" lon="5.62863">
        <ele>516.8</ele>
        <time>2022-03-04T17:26:11Z</time>
      </trkpt>
      <trkpt lat="46.57957" lon="5.6286">
        <ele>516.6</ele>
        <time>2022-03-04T17:26:12Z</time>
      </trkpt>
      <trkpt lat="46.5795" lon="5.62857">
        <ele>516.6</ele>
        <time>2022-03-04T17:26:13Z</time>
      </trkpt>
      <trkpt lat="46.57943" lon="5.62854">
        <ele>516.4</ele>
        <time>2022-03-04T17:26:14Z</time>
      </trkpt>
      <trkpt lat="46.57936" lon="5.62851">
        <ele>516.4</ele>
        <time>2022-03-04T17:26:15Z</time>
      </trkpt>
      <trkpt lat="46.57929" lon="5.62849">
        <ele>516</ele>
        <time>2022-03-04T17:26:16Z</time>
      </trkpt>
      <trkpt lat="46.57923" lon="5.62847">
        <ele>516</ele>
        <time>2022-03-04T17:26:17Z</time>
      </trkpt>
      <trkpt lat="46.57915" lon="5.62844">
        <ele>515.6</ele>
        <time>2022-03-04T17:26:18Z</time>
      </trkpt>
      <trkpt lat="46.57908" lon="5.62842">
        <ele>515.4</ele>
        <time>2022-03-04T17:26:19Z</time>
      </trkpt>
      <trkpt lat="46.57901" lon="5.6284">
        <ele>515.4</ele>
        <time>2022-03-04T17:26:20Z</time>
      </trkpt>
      <trkpt lat="46.57894" lon="5.62838">
        <ele>515.2</ele>
        <time>2022-03-04T17:26:21Z</time>
      </trkpt>
      <trkpt lat="46.57887" lon="5.62836">
        <ele>515.2</ele>
        <time>2022-03-04T17:26:22Z</time>
      </trkpt>
      <trkpt lat="46.57879" lon="5.62834">
        <ele>514.8</ele>
        <time>2022-03-04T17:26:23Z</time>
      </trkpt>
      <trkpt lat="46.57872" lon="5.62832">
        <ele>514.6</ele>
        <time>2022-03-04T17:26:24Z</time>
      </trkpt>
      <trkpt lat="46.57865" lon="5.6283">
        <ele>514.6</ele>
        <time>2022-03-04T17:26:25Z</time>
      </trkpt>
      <trkpt lat="46.57858" lon="5.62828">
        <ele>514.2</ele>
        <time>2022-03-04T17:26:26Z</time>
      </trkpt>
      <trkpt lat="46.5785" lon="5.62826">
        <ele>514.2</ele>
        <time>2022-03-04T17:26:27Z</time>
      </trkpt>
      <trkpt lat="46.57843" lon="5.62824">
        <ele>514</ele>
        <time>2022-03-04T17:26:28Z</time>
      </trkpt>
      <trkpt lat="46.57836" lon="5.62822">
        <ele>514</ele>
        <time>2022-03-04T17:26:29Z</time>
      </trkpt>
      <trkpt lat="46.57829" lon="5.62819">
        <ele>513.8</ele>
        <time>2022-03-04T17:26:30Z</time>
      </trkpt>
      <trkpt lat="46.57822" lon="5.62817">
        <ele>513.6</ele>
        <time>2022-03-04T17:26:31Z</time>
      </trkpt>
      <trkpt lat="46.57815" lon="5.62815">
        <ele>513.4</ele>
        <time>2022-03-04T17:26:32Z</time>
      </trkpt>
      <trkpt lat="46.57807" lon="5.62813">
        <ele>513.2</ele>
        <time>2022-03-04T17:26:33Z</time>
      </trkpt>
      <trkpt lat="46.578" lon="5.62811">
        <ele>512.8</ele>
        <time>2022-03-04T17:26:34Z</time>
      </trkpt>
      <trkpt lat="46.57792" lon="5.62808">
        <ele>512.6</ele>
        <time>2022-03-04T17:26:35Z</time>
      </trkpt>
      <trkpt lat="46.57785" lon="5.62805">
        <ele>512.4</ele>
        <time>2022-03-04T17:26:36Z</time>
      </trkpt>
      <trkpt lat="46.57777" lon="5.62803">
        <ele>512.4</ele>
        <time>2022-03-04T17:26:37Z</time>
      </trkpt>
      <trkpt lat="46.5777" lon="5.628">
        <ele>512</ele>
        <time>2022-03-04T17:26:38Z</time>
      </trkpt>
      <trkpt lat="46.57762" lon="5.62796">
        <ele>512</ele>
        <time>2022-03-04T17:26:39Z</time>
      </trkpt>
      <trkpt lat="46.57755" lon="5.62793">
        <ele>511.8</ele>
        <time>2022-03-04T17:26:40Z</time>
      </trkpt>
      <trkpt lat="46.57748" lon="5.62789">
        <ele>511.8</ele>
        <time>2022-03-04T17:26:41Z</time>
      </trkpt>
      <trkpt lat="46.5774" lon="5.62785">
        <ele>511.4</ele>
        <time>2022-03-04T17:26:42Z</time>
      </trkpt>
      <trkpt lat="46.57733" lon="5.62781">
        <ele>511.4</ele>
        <time>2022-03-04T17:26:43Z</time>
      </trkpt>
      <trkpt lat="46.57725" lon="5.62778">
        <ele>511.2</ele>
        <time>2022-03-04T17:26:44Z</time>
      </trkpt>
      <trkpt lat="46.57718" lon="5.62774">
        <ele>511.2</ele>
        <time>2022-03-04T17:26:45Z</time>
      </trkpt>
      <trkpt lat="46.5771" lon="5.6277">
        <ele>511</ele>
        <time>2022-03-04T17:26:46Z</time>
      </trkpt>
      <trkpt lat="46.57703" lon="5.62767">
        <ele>511</ele>
        <time>2022-03-04T17:26:47Z</time>
      </trkpt>
      <trkpt lat="46.57696" lon="5.62763">
        <ele>510.6</ele>
        <time>2022-03-04T17:26:48Z</time>
      </trkpt>
      <trkpt lat="46.57689" lon="5.62759">
        <ele>510.4</ele>
        <time>2022-03-04T17:26:49Z</time>
      </trkpt>
      <trkpt lat="46.57682" lon="5.62756">
        <ele>510.4</ele>
        <time>2022-03-04T17:26:50Z</time>
      </trkpt>
      <trkpt lat="46.57674" lon="5.62753">
        <ele>510</ele>
        <time>2022-03-04T17:26:51Z</time>
      </trkpt>
      <trkpt lat="46.57667" lon="5.62749">
        <ele>509.8</ele>
        <time>2022-03-04T17:26:52Z</time>
      </trkpt>
      <trkpt lat="46.57661" lon="5.62746">
        <ele>509.8</ele>
        <time>2022-03-04T17:26:53Z</time>
      </trkpt>
      <trkpt lat="46.57654" lon="5.62742">
        <ele>509.4</ele>
        <time>2022-03-04T17:26:54Z</time>
      </trkpt>
      <trkpt lat="46.57647" lon="5.62739">
        <ele>509.2</ele>
        <time>2022-03-04T17:26:55Z</time>
      </trkpt>
      <trkpt lat="46.5764" lon="5.62735">
        <ele>509.2</ele>
        <time>2022-03-04T17:26:56Z</time>
      </trkpt>
      <trkpt lat="46.57633" lon="5.62732">
        <ele>508.8</ele>
        <time>2022-03-04T17:26:57Z</time>
      </trkpt>
      <trkpt lat="46.57627" lon="5.62729">
        <ele>508.6</ele>
        <time>2022-03-04T17:26:58Z</time>
      </trkpt>
      <trkpt lat="46.57621" lon="5.62727">
        <ele>508.4</ele>
        <time>2022-03-04T17:26:59Z</time>
      </trkpt>
      <trkpt lat="46.57617" lon="5.62724">
        <ele>508.4</ele>
        <time>2022-03-04T17:27:00Z</time>
      </trkpt>
      <trkpt lat="46.57614" lon="5.6272">
        <ele>508</ele>
        <time>2022-03-04T17:27:01Z</time>
      </trkpt>
      <trkpt lat="46.57613" lon="5.62714">
        <ele>507.8</ele>
        <time>2022-03-04T17:27:02Z</time>
      </trkpt>
      <trkpt lat="46.57612" lon="5.62708">
        <ele>507.6</ele>
        <time>2022-03-04T17:27:03Z</time>
      </trkpt>
      <trkpt lat="46.57612" lon="5.62701">
        <ele>507.4</ele>
        <time>2022-03-04T17:27:04Z</time>
      </trkpt>
      <trkpt lat="46.57613" lon="5.62693">
        <ele>507</ele>
        <time>2022-03-04T17:27:05Z</time>
      </trkpt>
      <trkpt lat="46.57614" lon="5.62685">
        <ele>506.8</ele>
        <time>2022-03-04T17:27:06Z</time>
      </trkpt>
      <trkpt lat="46.57615" lon="5.62676">
        <ele>506.4</ele>
        <time>2022-03-04T17:27:07Z</time>
      </trkpt>
      <trkpt lat="46.57615" lon="5.62668">
        <ele>506.2</ele>
        <time>2022-03-04T17:27:08Z</time>
      </trkpt>
      <trkpt lat="46.57616" lon="5.6266">
        <ele>506</ele>
        <time>2022-03-04T17:27:09Z</time>
      </trkpt>
      <trkpt lat="46.57616" lon="5.62652">
        <ele>506</ele>
        <time>2022-03-04T17:27:10Z</time>
      </trkpt>
      <trkpt lat="46.57616" lon="5.62645">
        <ele>506</ele>
        <time>2022-03-04T17:27:11Z</time>
      </trkpt>
      <trkpt lat="46.57616" lon="5.62639">
        <ele>506</ele>
        <time>2022-03-04T17:27:12Z</time>
      </trkpt>
      <trkpt lat="46.57616" lon="5.62639">
        <ele>506</ele>
        <time>2022-03-04T17:27:13Z</time>
      </trkpt>
      <trkpt lat="46.57617" lon="5.62633">
        <ele>506</ele>
        <time>2022-03-04T17:27:14Z</time>
      </trkpt>
      <trkpt lat="46.57617" lon="5.62627">
        <ele>506</ele>
        <time>2022-03-04T17:27:15Z</time>
      </trkpt>
      <trkpt lat="46.57617" lon="5.62622">
        <ele>506</ele>
        <time>2022-03-04T17:27:16Z</time>
      </trkpt>
      <trkpt lat="46.57617" lon="5.62617">
        <ele>506.2</ele>
        <time>2022-03-04T17:27:17Z</time>
      </trkpt>
      <trkpt lat="46.57617" lon="5.62613">
        <ele>506.2</ele>
        <time>2022-03-04T17:27:18Z</time>
      </trkpt>
      <trkpt lat="46.57618" lon="5.62609">
        <ele>506.6</ele>
        <time>2022-03-04T17:27:19Z</time>
      </trkpt>
      <trkpt lat="46.57619" lon="5.62605">
        <ele>506.6</ele>
        <time>2022-03-04T17:27:20Z</time>
      </trkpt>
      <trkpt lat="46.57619" lon="5.62601">
        <ele>506.8</ele>
        <time>2022-03-04T17:27:21Z</time>
      </trkpt>
      <trkpt lat="46.5762" lon="5.62596">
        <ele>506.8</ele>
        <time>2022-03-04T17:27:22Z</time>
      </trkpt>
      <trkpt lat="46.57621" lon="5.62592">
        <ele>506.8</ele>
        <time>2022-03-04T17:27:23Z</time>
      </trkpt>
      <trkpt lat="46.57622" lon="5.62588">
        <ele>507</ele>
        <time>2022-03-04T17:27:24Z</time>
      </trkpt>
      <trkpt lat="46.57622" lon="5.62584">
        <ele>507</ele>
        <time>2022-03-04T17:27:25Z</time>
      </trkpt>
      <trkpt lat="46.57623" lon="5.6258">
        <ele>507.2</ele>
        <time>2022-03-04T17:27:26Z</time>
      </trkpt>
      <trkpt lat="46.57623" lon="5.62577">
        <ele>507.2</ele>
        <time>2022-03-04T17:27:27Z</time>
      </trkpt>
      <trkpt lat="46.57624" lon="5.62574">
        <ele>507.6</ele>
        <time>2022-03-04T17:27:28Z</time>
      </trkpt>
      <trkpt lat="46.57625" lon="5.62572">
        <ele>507.6</ele>
        <time>2022-03-04T17:27:29Z</time>
      </trkpt>
      <trkpt lat="46.57625" lon="5.62569">
        <ele>508</ele>
        <time>2022-03-04T17:27:30Z</time>
      </trkpt>
      <trkpt lat="46.57626" lon="5.62565">
        <ele>508</ele>
        <time>2022-03-04T17:27:31Z</time>
      </trkpt>
      <trkpt lat="46.57626" lon="5.62562">
        <ele>508.2</ele>
        <time>2022-03-04T17:27:32Z</time>
      </trkpt>
      <trkpt lat="46.57627" lon="5.62559">
        <ele>508.2</ele>
        <time>2022-03-04T17:27:33Z</time>
      </trkpt>
      <trkpt lat="46.57627" lon="5.62556">
        <ele>508.4</ele>
        <time>2022-03-04T17:27:34Z</time>
      </trkpt>
      <trkpt lat="46.57628" lon="5.62553">
        <ele>508.4</ele>
        <time>2022-03-04T17:27:35Z</time>
      </trkpt>
      <trkpt lat="46.57628" lon="5.6255">
        <ele>508.8</ele>
        <time>2022-03-04T17:27:36Z</time>
      </trkpt>
      <trkpt lat="46.57629" lon="5.62547">
        <ele>509</ele>
        <time>2022-03-04T17:27:37Z</time>
      </trkpt>
      <trkpt lat="46.57629" lon="5.62544">
        <ele>509.4</ele>
        <time>2022-03-04T17:27:38Z</time>
      </trkpt>
      <trkpt lat="46.5763" lon="5.62542">
        <ele>509.4</ele>
        <time>2022-03-04T17:27:39Z</time>
      </trkpt>
      <trkpt lat="46.57631" lon="5.6254">
        <ele>509.6</ele>
        <time>2022-03-04T17:27:40Z</time>
      </trkpt>
      <trkpt lat="46.57631" lon="5.62537">
        <ele>509.6</ele>
        <time>2022-03-04T17:27:41Z</time>
      </trkpt>
      <trkpt lat="46.57632" lon="5.62534">
        <ele>510</ele>
        <time>2022-03-04T17:27:42Z</time>
      </trkpt>
      <trkpt lat="46.57632" lon="5.62532">
        <ele>510</ele>
        <time>2022-03-04T17:27:43Z</time>
      </trkpt>
      <trkpt lat="46.57633" lon="5.62529">
        <ele>510</ele>
        <time>2022-03-04T17:27:44Z</time>
      </trkpt>
      <trkpt lat="46.57634" lon="5.62526">
        <ele>510.2</ele>
        <time>2022-03-04T17:27:45Z</time>
      </trkpt>
      <trkpt lat="46.57635" lon="5.62523">
        <ele>510.2</ele>
        <time>2022-03-04T17:27:46Z</time>
      </trkpt>
      <trkpt lat="46.57635" lon="5.6252">
        <ele>510.6</ele>
        <time>2022-03-04T17:27:47Z</time>
      </trkpt>
      <trkpt lat="46.57636" lon="5.62517">
        <ele>510.6</ele>
        <time>2022-03-04T17:27:48Z</time>
      </trkpt>
      <trkpt lat="46.57637" lon="5.62514">
        <ele>510.8</ele>
        <time>2022-03-04T17:27:49Z</time>
      </trkpt>
      <trkpt lat="46.57638" lon="5.62511">
        <ele>510.8</ele>
        <time>2022-03-04T17:27:50Z</time>
      </trkpt>
      <trkpt lat="46.57639" lon="5.62508">
        <ele>511</ele>
        <time>2022-03-04T17:27:51Z</time>
      </trkpt>
      <trkpt lat="46.57639" lon="5.62504">
        <ele>511.4</ele>
        <time>2022-03-04T17:27:52Z</time>
      </trkpt>
      <trkpt lat="46.5764" lon="5.62501">
        <ele>511.6</ele>
        <time>2022-03-04T17:27:53Z</time>
      </trkpt>
      <trkpt lat="46.57641" lon="5.62498">
        <ele>511.6</ele>
        <time>2022-03-04T17:27:54Z</time>
      </trkpt>
      <trkpt lat="46.57642" lon="5.62495">
        <ele>512</ele>
        <time>2022-03-04T17:27:55Z</time>
      </trkpt>
      <trkpt lat="46.57643" lon="5.62492">
        <ele>512</ele>
        <time>2022-03-04T17:27:56Z</time>
      </trkpt>
      <trkpt lat="46.57644" lon="5.62489">
        <ele>512.2</ele>
        <time>2022-03-04T17:27:57Z</time>
      </trkpt>
      <trkpt lat="46.57645" lon="5.62486">
        <ele>512.4</ele>
        <time>2022-03-04T17:27:58Z</time>
      </trkpt>
      <trkpt lat="46.57645" lon="5.62483">
        <ele>512.4</ele>
        <time>2022-03-04T17:27:59Z</time>
      </trkpt>
      <trkpt lat="46.57646" lon="5.6248">
        <ele>512.8</ele>
        <time>2022-03-04T17:28:00Z</time>
      </trkpt>
      <trkpt lat="46.57647" lon="5.62477">
        <ele>512.8</ele>
        <time>2022-03-04T17:28:01Z</time>
      </trkpt>
      <trkpt lat="46.57647" lon="5.62474">
        <ele>513</ele>
        <time>2022-03-04T17:28:02Z</time>
      </trkpt>
      <trkpt lat="46.57648" lon="5.6247">
        <ele>513</ele>
        <time>2022-03-04T17:28:03Z</time>
      </trkpt>
      <trkpt lat="46.57649" lon="5.62467">
        <ele>513</ele>
        <time>2022-03-04T17:28:04Z</time>
      </trkpt>
      <trkpt lat="46.57649" lon="5.62464">
        <ele>513.4</ele>
        <time>2022-03-04T17:28:05Z</time>
      </trkpt>
      <trkpt lat="46.5765" lon="5.6246">
        <ele>513.4</ele>
        <time>2022-03-04T17:28:06Z</time>
      </trkpt>
      <trkpt lat="46.57651" lon="5.62457">
        <ele>513.4</ele>
        <time>2022-03-04T17:28:07Z</time>
      </trkpt>
      <trkpt lat="46.57651" lon="5.62453">
        <ele>513.4</ele>
        <time>2022-03-04T17:28:08Z</time>
      </trkpt>
      <trkpt lat="46.57652" lon="5.62448">
        <ele>513.4</ele>
        <time>2022-03-04T17:28:09Z</time>
      </trkpt>
      <trkpt lat="46.57653" lon="5.62444">
        <ele>513.4</ele>
        <time>2022-03-04T17:28:10Z</time>
      </trkpt>
      <trkpt lat="46.57653" lon="5.62439">
        <ele>513.4</ele>
        <time>2022-03-04T17:28:11Z</time>
      </trkpt>
      <trkpt lat="46.57653" lon="5.62435">
        <ele>513.4</ele>
        <time>2022-03-04T17:28:12Z</time>
      </trkpt>
      <trkpt lat="46.57654" lon="5.62431">
        <ele>513.4</ele>
        <time>2022-03-04T17:28:13Z</time>
      </trkpt>
      <trkpt lat="46.57654" lon="5.62427">
        <ele>513.4</ele>
        <time>2022-03-04T17:28:14Z</time>
      </trkpt>
      <trkpt lat="46.57654" lon="5.62423">
        <ele>513.6</ele>
        <time>2022-03-04T17:28:15Z</time>
      </trkpt>
      <trkpt lat="46.57655" lon="5.62419">
        <ele>513.6</ele>
        <time>2022-03-04T17:28:16Z</time>
      </trkpt>
      <trkpt lat="46.57655" lon="5.62416">
        <ele>513.8</ele>
        <time>2022-03-04T17:28:17Z</time>
      </trkpt>
      <trkpt lat="46.57655" lon="5.62412">
        <ele>513.8</ele>
        <time>2022-03-04T17:28:18Z</time>
      </trkpt>
      <trkpt lat="46.57656" lon="5.62409">
        <ele>514.2</ele>
        <time>2022-03-04T17:28:19Z</time>
      </trkpt>
      <trkpt lat="46.57657" lon="5.62406">
        <ele>514.4</ele>
        <time>2022-03-04T17:28:20Z</time>
      </trkpt>
      <trkpt lat="46.57657" lon="5.62403">
        <ele>514.4</ele>
        <time>2022-03-04T17:28:21Z</time>
      </trkpt>
      <trkpt lat="46.57657" lon="5.624">
        <ele>514.6</ele>
        <time>2022-03-04T17:28:22Z</time>
      </trkpt>
      <trkpt lat="46.57657" lon="5.62397">
        <ele>514.6</ele>
        <time>2022-03-04T17:28:23Z</time>
      </trkpt>
      <trkpt lat="46.57657" lon="5.62395">
        <ele>515</ele>
        <time>2022-03-04T17:28:24Z</time>
      </trkpt>
      <trkpt lat="46.57658" lon="5.62392">
        <ele>515</ele>
        <time>2022-03-04T17:28:25Z</time>
      </trkpt>
      <trkpt lat="46.57658" lon="5.62389">
        <ele>515.4</ele>
        <time>2022-03-04T17:28:26Z</time>
      </trkpt>
      <trkpt lat="46.57659" lon="5.62386">
        <ele>515.4</ele>
        <time>2022-03-04T17:28:27Z</time>
      </trkpt>
      <trkpt lat="46.5766" lon="5.62383">
        <ele>515.6</ele>
        <time>2022-03-04T17:28:28Z</time>
      </trkpt>
      <trkpt lat="46.57661" lon="5.62381">
        <ele>515.6</ele>
        <time>2022-03-04T17:28:29Z</time>
      </trkpt>
      <trkpt lat="46.57662" lon="5.62378">
        <ele>516</ele>
        <time>2022-03-04T17:28:30Z</time>
      </trkpt>
      <trkpt lat="46.57663" lon="5.62376">
        <ele>516.2</ele>
        <time>2022-03-04T17:28:31Z</time>
      </trkpt>
      <trkpt lat="46.57665" lon="5.62373">
        <ele>516.2</ele>
        <time>2022-03-04T17:28:32Z</time>
      </trkpt>
      <trkpt lat="46.57666" lon="5.6237">
        <ele>516.6</ele>
        <time>2022-03-04T17:28:33Z</time>
      </trkpt>
      <trkpt lat="46.57667" lon="5.62366">
        <ele>516.6</ele>
        <time>2022-03-04T17:28:34Z</time>
      </trkpt>
      <trkpt lat="46.57668" lon="5.62362">
        <ele>516.8</ele>
        <time>2022-03-04T17:28:35Z</time>
      </trkpt>
      <trkpt lat="46.57669" lon="5.62358">
        <ele>516.8</ele>
        <time>2022-03-04T17:28:36Z</time>
      </trkpt>
      <trkpt lat="46.5767" lon="5.62354">
        <ele>516.8</ele>
        <time>2022-03-04T17:28:37Z</time>
      </trkpt>
      <trkpt lat="46.57671" lon="5.6235">
        <ele>516.8</ele>
        <time>2022-03-04T17:28:38Z</time>
      </trkpt>
      <trkpt lat="46.57671" lon="5.62346">
        <ele>516.8</ele>
        <time>2022-03-04T17:28:39Z</time>
      </trkpt>
      <trkpt lat="46.57672" lon="5.62342">
        <ele>517</ele>
        <time>2022-03-04T17:28:40Z</time>
      </trkpt>
      <trkpt lat="46.57672" lon="5.62338">
        <ele>517</ele>
        <time>2022-03-04T17:28:41Z</time>
      </trkpt>
      <trkpt lat="46.57673" lon="5.62333">
        <ele>517</ele>
        <time>2022-03-04T17:28:42Z</time>
      </trkpt>
      <trkpt lat="46.57673" lon="5.62329">
        <ele>516.8</ele>
        <time>2022-03-04T17:28:43Z</time>
      </trkpt>
      <trkpt lat="46.57674" lon="5.62324">
        <ele>516.8</ele>
        <time>2022-03-04T17:28:44Z</time>
      </trkpt>
      <trkpt lat="46.57674" lon="5.62318">
        <ele>516.8</ele>
        <time>2022-03-04T17:28:45Z</time>
      </trkpt>
      <trkpt lat="46.57675" lon="5.62312">
        <ele>516.4</ele>
        <time>2022-03-04T17:28:46Z</time>
      </trkpt>
      <trkpt lat="46.57675" lon="5.62306">
        <ele>516.4</ele>
        <time>2022-03-04T17:28:47Z</time>
      </trkpt>
      <trkpt lat="46.57675" lon="5.623">
        <ele>516.2</ele>
        <time>2022-03-04T17:28:48Z</time>
      </trkpt>
      <trkpt lat="46.57675" lon="5.62294">
        <ele>516.2</ele>
        <time>2022-03-04T17:28:49Z</time>
      </trkpt>
      <trkpt lat="46.57676" lon="5.62288">
        <ele>516</ele>
        <time>2022-03-04T17:28:50Z</time>
      </trkpt>
      <trkpt lat="46.57676" lon="5.62282">
        <ele>516</ele>
        <time>2022-03-04T17:28:51Z</time>
      </trkpt>
      <trkpt lat="46.57676" lon="5.62276">
        <ele>516</ele>
        <time>2022-03-04T17:28:52Z</time>
      </trkpt>
      <trkpt lat="46.57676" lon="5.62269">
        <ele>515.6</ele>
        <time>2022-03-04T17:28:53Z</time>
      </trkpt>
      <trkpt lat="46.57676" lon="5.62263">
        <ele>515.6</ele>
        <time>2022-03-04T17:28:54Z</time>
      </trkpt>
      <trkpt lat="46.57676" lon="5.62257">
        <ele>515.4</ele>
        <time>2022-03-04T17:28:55Z</time>
      </trkpt>
      <trkpt lat="46.57676" lon="5.6225">
        <ele>515.4</ele>
        <time>2022-03-04T17:28:56Z</time>
      </trkpt>
      <trkpt lat="46.57675" lon="5.62244">
        <ele>515.2</ele>
        <time>2022-03-04T17:28:57Z</time>
      </trkpt>
      <trkpt lat="46.57674" lon="5.62237">
        <ele>515.2</ele>
        <time>2022-03-04T17:28:58Z</time>
      </trkpt>
      <trkpt lat="46.57674" lon="5.62231">
        <ele>515.2</ele>
        <time>2022-03-04T17:28:59Z</time>
      </trkpt>
      <trkpt lat="46.57674" lon="5.62225">
        <ele>514.8</ele>
        <time>2022-03-04T17:29:00Z</time>
      </trkpt>
      <trkpt lat="46.57674" lon="5.62218">
        <ele>514.8</ele>
        <time>2022-03-04T17:29:01Z</time>
      </trkpt>
      <trkpt lat="46.57674" lon="5.62211">
        <ele>514.6</ele>
        <time>2022-03-04T17:29:02Z</time>
      </trkpt>
      <trkpt lat="46.57674" lon="5.62204">
        <ele>514.6</ele>
        <time>2022-03-04T17:29:03Z</time>
      </trkpt>
      <trkpt lat="46.57674" lon="5.62197">
        <ele>514.2</ele>
        <time>2022-03-04T17:29:04Z</time>
      </trkpt>
      <trkpt lat="46.57673" lon="5.6219">
        <ele>514.2</ele>
        <time>2022-03-04T17:29:05Z</time>
      </trkpt>
      <trkpt lat="46.57673" lon="5.62183">
        <ele>513.8</ele>
        <time>2022-03-04T17:29:06Z</time>
      </trkpt>
      <trkpt lat="46.57673" lon="5.62175">
        <ele>513.8</ele>
        <time>2022-03-04T17:29:07Z</time>
      </trkpt>
      <trkpt lat="46.57673" lon="5.62168">
        <ele>513.6</ele>
        <time>2022-03-04T17:29:08Z</time>
      </trkpt>
      <trkpt lat="46.57674" lon="5.6216">
        <ele>513.6</ele>
        <time>2022-03-04T17:29:09Z</time>
      </trkpt>
      <trkpt lat="46.57674" lon="5.62152">
        <ele>513.2</ele>
        <time>2022-03-04T17:29:10Z</time>
      </trkpt>
      <trkpt lat="46.57675" lon="5.62143">
        <ele>513</ele>
        <time>2022-03-04T17:29:11Z</time>
      </trkpt>
      <trkpt lat="46.57675" lon="5.62134">
        <ele>513</ele>
        <time>2022-03-04T17:29:12Z</time>
      </trkpt>
      <trkpt lat="46.57676" lon="5.62126">
        <ele>512.6</ele>
        <time>2022-03-04T17:29:13Z</time>
      </trkpt>
      <trkpt lat="46.57676" lon="5.62118">
        <ele>512.6</ele>
        <time>2022-03-04T17:29:14Z</time>
      </trkpt>
      <trkpt lat="46.57676" lon="5.6211">
        <ele>512.2</ele>
        <time>2022-03-04T17:29:15Z</time>
      </trkpt>
      <trkpt lat="46.57677" lon="5.62102">
        <ele>512.2</ele>
        <time>2022-03-04T17:29:16Z</time>
      </trkpt>
      <trkpt lat="46.57677" lon="5.62096">
        <ele>511.8</ele>
        <time>2022-03-04T17:29:17Z</time>
      </trkpt>
      <trkpt lat="46.57678" lon="5.6209">
        <ele>511.8</ele>
        <time>2022-03-04T17:29:18Z</time>
      </trkpt>
      <trkpt lat="46.5768" lon="5.62084">
        <ele>511.6</ele>
        <time>2022-03-04T17:29:19Z</time>
      </trkpt>
      <trkpt lat="46.57681" lon="5.62079">
        <ele>511.6</ele>
        <time>2022-03-04T17:29:20Z</time>
      </trkpt>
      <trkpt lat="46.57681" lon="5.62075">
        <ele>511.6</ele>
        <time>2022-03-04T17:29:21Z</time>
      </trkpt>
      <trkpt lat="46.57681" lon="5.62071">
        <ele>511.6</ele>
        <time>2022-03-04T17:29:22Z</time>
      </trkpt>
      <trkpt lat="46.5768" lon="5.62068">
        <ele>511.4</ele>
        <time>2022-03-04T17:29:23Z</time>
      </trkpt>
      <trkpt lat="46.57679" lon="5.62065">
        <ele>511.4</ele>
        <time>2022-03-04T17:29:24Z</time>
      </trkpt>
      <trkpt lat="46.57678" lon="5.62062">
        <ele>511.4</ele>
        <time>2022-03-04T17:29:25Z</time>
      </trkpt>
      <trkpt lat="46.57677" lon="5.62061">
        <ele>511.4</ele>
        <time>2022-03-04T17:29:26Z</time>
      </trkpt>
      <trkpt lat="46.57676" lon="5.62059">
        <ele>511.4</ele>
        <time>2022-03-04T17:29:27Z</time>
      </trkpt>
      <trkpt lat="46.57675" lon="5.62059">
        <ele>511.4</ele>
        <time>2022-03-04T17:29:28Z</time>
      </trkpt>
      <trkpt lat="46.57674" lon="5.62058">
        <ele>511.4</ele>
        <time>2022-03-04T17:29:29Z</time>
      </trkpt>
      <trkpt lat="46.57674" lon="5.62058">
        <ele>511.4</ele>
        <time>2022-03-04T17:29:30Z</time>
      </trkpt>
      <trkpt lat="46.57673" lon="5.62058">
        <ele>511.4</ele>
        <time>2022-03-04T17:29:31Z</time>
      </trkpt>
      <trkpt lat="46.57673" lon="5.62058">
        <ele>511.4</ele>
        <time>2022-03-04T17:29:33Z</time>
      </trkpt>
      <trkpt lat="46.57673" lon="5.62058">
        <ele>511.4</ele>
        <time>2022-03-04T17:29:34Z</time>
      </trkpt>
      <trkpt lat="46.57673" lon="5.62058">
        <ele>511.4</ele>
        <time>2022-03-04T17:29:35Z</time>
      </trkpt>
      <trkpt lat="46.57673" lon="5.62058">
        <ele>511.2</ele>
        <time>2022-03-04T17:29:39Z</time>
      </trkpt>
      <trkpt lat="46.57673" lon="5.62058">
        <ele>511.2</ele>
        <time>2022-03-04T17:29:40Z</time>
      </trkpt>
      <trkpt lat="46.57673" lon="5.62058">
        <ele>511.2</ele>
        <time>2022-03-04T17:29:43Z</time>
      </trkpt>
      <trkpt lat="46.57673" lon="5.62058">
        <ele>511.2</ele>
        <time>2022-03-04T17:29:44Z</time>
      </trkpt>
      <trkpt lat="46.57673" lon="5.62058">
        <ele>511.2</ele>
        <time>2022-03-04T17:30:03Z</time>
      </trkpt>
      <trkpt lat="46.57673" lon="5.62058">
        <ele>511.2</ele>
        <time>2022-03-04T17:30:04Z</time>
      </trkpt>
      <trkpt lat="46.57673" lon="5.62058">
        <ele>511.2</ele>
        <time>2022-03-04T17:30:07Z</time>
      </trkpt>
      <trkpt lat="46.57673" lon="5.62058">
        <ele>511.2</ele>
        <time>2022-03-04T17:30:08Z</time>
      </trkpt>
      <trkpt lat="46.57673" lon="5.62058">
        <ele>511.2</ele>
        <time>2022-03-04T17:30:10Z</time>
      </trkpt>
      <trkpt lat="46.57673" lon="5.62058">
        <ele>511.2</ele>
        <time>2022-03-04T17:30:11Z</time>
      </trkpt>
      <trkpt lat="46.57673" lon="5.62058">
        <ele>511.4</ele>
        <time>2022-03-04T17:30:16Z</time>
      </trkpt>
      <trkpt lat="46.57673" lon="5.62058">
        <ele>511.4</ele>
        <time>2022-03-04T17:30:17Z</time>
      </trkpt>
      <trkpt lat="46.57673" lon="5.62058">
        <ele>511.2</ele>
        <time>2022-03-04T17:30:27Z</time>
      </trkpt>
      <trkpt lat="46.57673" lon="5.62058">
        <ele>511.2</ele>
        <time>2022-03-04T17:30:28Z</time>
      </trkpt>
      <trkpt lat="46.57673" lon="5.62058">
        <ele>511.2</ele>
        <time>2022-03-04T17:30:29Z</time>
      </trkpt>
      <trkpt lat="46.57673" lon="5.62058">
        <ele>511.2</ele>
        <time>2022-03-04T17:30:30Z</time>
      </trkpt>
      <trkpt lat="46.57673" lon="5.62058">
        <ele>511.2</ele>
        <time>2022-03-04T17:30:31Z</time>
      </trkpt>
      <trkpt lat="46.57673" lon="5.62058">
        <ele>511.2</ele>
        <time>2022-03-04T17:30:32Z</time>
      </trkpt>
      <trkpt lat="46.57673" lon="5.62058">
        <ele>511.2</ele>
        <time>2022-03-04T17:30:33Z</time>
      </trkpt>
      <trkpt lat="46.57673" lon="5.62058">
        <ele>511.2</ele>
        <time>2022-03-04T17:30:34Z</time>
      </trkpt>
      <trkpt lat="46.57673" lon="5.62058">
        <ele>511.2</ele>
        <time>2022-03-04T17:30:35Z</time>
      </trkpt>
      <trkpt lat="46.57673" lon="5.62058">
        <ele>511.2</ele>
        <time>2022-03-04T17:30:36Z</time>
      </trkpt>
      <trkpt lat="46.57673" lon="5.62058">
        <ele>511.2</ele>
        <time>2022-03-04T17:30:37Z</time>
      </trkpt>
      <trkpt lat="46.57673" lon="5.62058">
        <ele>511.2</ele>
        <time>2022-03-04T17:30:38Z</time>
      </trkpt>
      <trkpt lat="46.57673" lon="5.62058">
        <ele>511.2</ele>
        <time>2022-03-04T17:30:39Z</time>
      </trkpt>
      <trkpt lat="46.57673" lon="5.62058">
        <ele>511.2</ele>
        <time>2022-03-04T17:30:40Z</time>
      </trkpt>
      <trkpt lat="46.57673" lon="5.62058">
        <ele>511.2</ele>
        <time>2022-03-04T17:30:41Z</time>
      </trkpt>
      <trkpt lat="46.57673" lon="5.62058">
        <ele>511.2</ele>
        <time>2022-03-04T17:30:42Z</time>
      </trkpt>
      <trkpt lat="46.57664" lon="5.6206">
        <ele>511.2</ele>
        <time>2022-03-04T17:30:46Z</time>
      </trkpt>
      <trkpt lat="46.57662" lon="5.6206">
        <ele>511.2</ele>
        <time>2022-03-04T17:30:47Z</time>
      </trkpt>
      <trkpt lat="46.5766" lon="5.6206">
        <ele>511.2</ele>
        <time>2022-03-04T17:30:48Z</time>
      </trkpt>
      <trkpt lat="46.57658" lon="5.62061">
        <ele>511.2</ele>
        <time>2022-03-04T17:30:49Z</time>
      </trkpt>
      <trkpt lat="46.57656" lon="5.62061">
        <ele>511.2</ele>
        <time>2022-03-04T17:30:50Z</time>
      </trkpt>
      <trkpt lat="46.57654" lon="5.62062">
        <ele>511</ele>
        <time>2022-03-04T17:30:51Z</time>
      </trkpt>
      <trkpt lat="46.57652" lon="5.62062">
        <ele>511</ele>
        <time>2022-03-04T17:30:52Z</time>
      </trkpt>
      <trkpt lat="46.5765" lon="5.62062">
        <ele>511</ele>
        <time>2022-03-04T17:30:53Z</time>
      </trkpt>
      <trkpt lat="46.57648" lon="5.62063">
        <ele>511</ele>
        <time>2022-03-04T17:30:54Z</time>
      </trkpt>
      <trkpt lat="46.57646" lon="5.62063">
        <ele>511</ele>
        <time>2022-03-04T17:30:55Z</time>
      </trkpt>
      <trkpt lat="46.57644" lon="5.62063">
        <ele>511.2</ele>
        <time>2022-03-04T17:30:56Z</time>
      </trkpt>
      <trkpt lat="46.57641" lon="5.62064">
        <ele>511.2</ele>
        <time>2022-03-04T17:30:57Z</time>
      </trkpt>
      <trkpt lat="46.57639" lon="5.62064">
        <ele>511.2</ele>
        <time>2022-03-04T17:30:58Z</time>
      </trkpt>
      <trkpt lat="46.57636" lon="5.62065">
        <ele>511.2</ele>
        <time>2022-03-04T17:30:59Z</time>
      </trkpt>
      <trkpt lat="46.57633" lon="5.62066">
        <ele>511.2</ele>
        <time>2022-03-04T17:31:00Z</time>
      </trkpt>
      <trkpt lat="46.5763" lon="5.62066">
        <ele>511.2</ele>
        <time>2022-03-04T17:31:01Z</time>
      </trkpt>
      <trkpt lat="46.57627" lon="5.62068">
        <ele>511.2</ele>
        <time>2022-03-04T17:31:02Z</time>
      </trkpt>
      <trkpt lat="46.57624" lon="5.62068">
        <ele>511.2</ele>
        <time>2022-03-04T17:31:03Z</time>
      </trkpt>
      <trkpt lat="46.57621" lon="5.6207">
        <ele>511.2</ele>
        <time>2022-03-04T17:31:04Z</time>
      </trkpt>
      <trkpt lat="46.57618" lon="5.6207">
        <ele>511.2</ele>
        <time>2022-03-04T17:31:05Z</time>
      </trkpt>
      <trkpt lat="46.57616" lon="5.6207">
        <ele>511.2</ele>
        <time>2022-03-04T17:31:06Z</time>
      </trkpt>
      <trkpt lat="46.57613" lon="5.62071">
        <ele>511</ele>
        <time>2022-03-04T17:31:07Z</time>
      </trkpt>
      <trkpt lat="46.57611" lon="5.62072">
        <ele>511</ele>
        <time>2022-03-04T17:31:08Z</time>
      </trkpt>
      <trkpt lat="46.57608" lon="5.62073">
        <ele>511</ele>
        <time>2022-03-04T17:31:09Z</time>
      </trkpt>
      <trkpt lat="46.57606" lon="5.62073">
        <ele>511</ele>
        <time>2022-03-04T17:31:10Z</time>
      </trkpt>
      <trkpt lat="46.57603" lon="5.62073">
        <ele>511</ele>
        <time>2022-03-04T17:31:11Z</time>
      </trkpt>
      <trkpt lat="46.57601" lon="5.62074">
        <ele>510.8</ele>
        <time>2022-03-04T17:31:12Z</time>
      </trkpt>
      <trkpt lat="46.57598" lon="5.62075">
        <ele>510.8</ele>
        <time>2022-03-04T17:31:13Z</time>
      </trkpt>
      <trkpt lat="46.57594" lon="5.62076">
        <ele>510.4</ele>
        <time>2022-03-04T17:31:14Z</time>
      </trkpt>
      <trkpt lat="46.57591" lon="5.62076">
        <ele>510.4</ele>
        <time>2022-03-04T17:31:15Z</time>
      </trkpt>
      <trkpt lat="46.57588" lon="5.62077">
        <ele>510.2</ele>
        <time>2022-03-04T17:31:16Z</time>
      </trkpt>
      <trkpt lat="46.57586" lon="5.62078">
        <ele>510.2</ele>
        <time>2022-03-04T17:31:17Z</time>
      </trkpt>
      <trkpt lat="46.57583" lon="5.62079">
        <ele>510.2</ele>
        <time>2022-03-04T17:31:18Z</time>
      </trkpt>
      <trkpt lat="46.57581" lon="5.6208">
        <ele>510.2</ele>
        <time>2022-03-04T17:31:19Z</time>
      </trkpt>
      <trkpt lat="46.57578" lon="5.62081">
        <ele>510.2</ele>
        <time>2022-03-04T17:31:20Z</time>
      </trkpt>
      <trkpt lat="46.57576" lon="5.62081">
        <ele>510.2</ele>
        <time>2022-03-04T17:31:21Z</time>
      </trkpt>
      <trkpt lat="46.57573" lon="5.62082">
        <ele>510.2</ele>
        <time>2022-03-04T17:31:22Z</time>
      </trkpt>
      <trkpt lat="46.57571" lon="5.62082">
        <ele>510.2</ele>
        <time>2022-03-04T17:31:23Z</time>
      </trkpt>
      <trkpt lat="46.57568" lon="5.62083">
        <ele>510.2</ele>
        <time>2022-03-04T17:31:24Z</time>
      </trkpt>
      <trkpt lat="46.57566" lon="5.62083">
        <ele>510.2</ele>
        <time>2022-03-04T17:31:25Z</time>
      </trkpt>
      <trkpt lat="46.57564" lon="5.62084">
        <ele>510.2</ele>
        <time>2022-03-04T17:31:26Z</time>
      </trkpt>
      <trkpt lat="46.57561" lon="5.62085">
        <ele>510.2</ele>
        <time>2022-03-04T17:31:27Z</time>
      </trkpt>
      <trkpt lat="46.57559" lon="5.62085">
        <ele>510.2</ele>
        <time>2022-03-04T17:31:28Z</time>
      </trkpt>
      <trkpt lat="46.57557" lon="5.62086">
        <ele>510.2</ele>
        <time>2022-03-04T17:31:29Z</time>
      </trkpt>
      <trkpt lat="46.57555" lon="5.62086">
        <ele>510.2</ele>
        <time>2022-03-04T17:31:30Z</time>
      </trkpt>
      <trkpt lat="46.57553" lon="5.62087">
        <ele>510.2</ele>
        <time>2022-03-04T17:31:31Z</time>
      </trkpt>
      <trkpt lat="46.5755" lon="5.62087">
        <ele>510.2</ele>
        <time>2022-03-04T17:31:32Z</time>
      </trkpt>
      <trkpt lat="46.57547" lon="5.62088">
        <ele>510.2</ele>
        <time>2022-03-04T17:31:33Z</time>
      </trkpt>
      <trkpt lat="46.57545" lon="5.62089">
        <ele>510</ele>
        <time>2022-03-04T17:31:34Z</time>
      </trkpt>
      <trkpt lat="46.57543" lon="5.6209">
        <ele>510</ele>
        <time>2022-03-04T17:31:35Z</time>
      </trkpt>
      <trkpt lat="46.5754" lon="5.62091">
        <ele>510</ele>
        <time>2022-03-04T17:31:36Z</time>
      </trkpt>
      <trkpt lat="46.57538" lon="5.62091">
        <ele>509.6</ele>
        <time>2022-03-04T17:31:37Z</time>
      </trkpt>
      <trkpt lat="46.57536" lon="5.62092">
        <ele>509.6</ele>
        <time>2022-03-04T17:31:38Z</time>
      </trkpt>
      <trkpt lat="46.57535" lon="5.62092">
        <ele>509.6</ele>
        <time>2022-03-04T17:31:39Z</time>
      </trkpt>
      <trkpt lat="46.57534" lon="5.62093">
        <ele>509.4</ele>
        <time>2022-03-04T17:31:40Z</time>
      </trkpt>
      <trkpt lat="46.57532" lon="5.62093">
        <ele>509.4</ele>
        <time>2022-03-04T17:31:41Z</time>
      </trkpt>
      <trkpt lat="46.57531" lon="5.62094">
        <ele>509.4</ele>
        <time>2022-03-04T17:31:42Z</time>
      </trkpt>
      <trkpt lat="46.57529" lon="5.62094">
        <ele>509.4</ele>
        <time>2022-03-04T17:31:43Z</time>
      </trkpt>
      <trkpt lat="46.57527" lon="5.62094">
        <ele>509.4</ele>
        <time>2022-03-04T17:31:44Z</time>
      </trkpt>
      <trkpt lat="46.57525" lon="5.62095">
        <ele>509.2</ele>
        <time>2022-03-04T17:31:45Z</time>
      </trkpt>
      <trkpt lat="46.57523" lon="5.62095">
        <ele>509.2</ele>
        <time>2022-03-04T17:31:46Z</time>
      </trkpt>
      <trkpt lat="46.57521" lon="5.62095">
        <ele>509.2</ele>
        <time>2022-03-04T17:31:47Z</time>
      </trkpt>
      <trkpt lat="46.57519" lon="5.62096">
        <ele>509.2</ele>
        <time>2022-03-04T17:31:48Z</time>
      </trkpt>
      <trkpt lat="46.57517" lon="5.62097">
        <ele>509</ele>
        <time>2022-03-04T17:31:49Z</time>
      </trkpt>
      <trkpt lat="46.57515" lon="5.62097">
        <ele>509</ele>
        <time>2022-03-04T17:31:50Z</time>
      </trkpt>
      <trkpt lat="46.57513" lon="5.62097">
        <ele>509</ele>
        <time>2022-03-04T17:31:51Z</time>
      </trkpt>
      <trkpt lat="46.57511" lon="5.62098">
        <ele>509</ele>
        <time>2022-03-04T17:31:52Z</time>
      </trkpt>
      <trkpt lat="46.57509" lon="5.62098">
        <ele>508.6</ele>
        <time>2022-03-04T17:31:53Z</time>
      </trkpt>
      <trkpt lat="46.57508" lon="5.62098">
        <ele>508.6</ele>
        <time>2022-03-04T17:31:54Z</time>
      </trkpt>
      <trkpt lat="46.57506" lon="5.62098">
        <ele>508.4</ele>
        <time>2022-03-04T17:31:55Z</time>
      </trkpt>
      <trkpt lat="46.57504" lon="5.62099">
        <ele>508.4</ele>
        <time>2022-03-04T17:31:56Z</time>
      </trkpt>
      <trkpt lat="46.57503" lon="5.621">
        <ele>508.4</ele>
        <time>2022-03-04T17:31:57Z</time>
      </trkpt>
      <trkpt lat="46.57501" lon="5.62101">
        <ele>508.4</ele>
        <time>2022-03-04T17:31:58Z</time>
      </trkpt>
      <trkpt lat="46.57499" lon="5.62101">
        <ele>508.4</ele>
        <time>2022-03-04T17:31:59Z</time>
      </trkpt>
      <trkpt lat="46.57497" lon="5.62102">
        <ele>508.4</ele>
        <time>2022-03-04T17:32:00Z</time>
      </trkpt>
      <trkpt lat="46.57495" lon="5.62103">
        <ele>508.4</ele>
        <time>2022-03-04T17:32:01Z</time>
      </trkpt>
      <trkpt lat="46.57492" lon="5.62105">
        <ele>508.2</ele>
        <time>2022-03-04T17:32:02Z</time>
      </trkpt>
      <trkpt lat="46.5749" lon="5.62105">
        <ele>508.2</ele>
        <time>2022-03-04T17:32:03Z</time>
      </trkpt>
      <trkpt lat="46.5749" lon="5.62105">
        <ele>508.2</ele>
        <time>2022-03-04T17:32:04Z</time>
      </trkpt>
      <trkpt lat="46.57488" lon="5.62107">
        <ele>508.2</ele>
        <time>2022-03-04T17:32:05Z</time>
      </trkpt>
      <trkpt lat="46.57487" lon="5.62108">
        <ele>508.2</ele>
        <time>2022-03-04T17:32:06Z</time>
      </trkpt>
      <trkpt lat="46.57485" lon="5.62108">
        <ele>508.2</ele>
        <time>2022-03-04T17:32:07Z</time>
      </trkpt>
      <trkpt lat="46.57483" lon="5.62108">
        <ele>508.2</ele>
        <time>2022-03-04T17:32:08Z</time>
      </trkpt>
      <trkpt lat="46.57481" lon="5.62109">
        <ele>508.2</ele>
        <time>2022-03-04T17:32:09Z</time>
      </trkpt>
      <trkpt lat="46.57478" lon="5.62109">
        <ele>508.2</ele>
        <time>2022-03-04T17:32:10Z</time>
      </trkpt>
      <trkpt lat="46.57476" lon="5.6211">
        <ele>508.2</ele>
        <time>2022-03-04T17:32:11Z</time>
      </trkpt>
      <trkpt lat="46.57473" lon="5.6211">
        <ele>508.2</ele>
        <time>2022-03-04T17:32:12Z</time>
      </trkpt>
      <trkpt lat="46.57471" lon="5.62111">
        <ele>508.6</ele>
        <time>2022-03-04T17:32:13Z</time>
      </trkpt>
      <trkpt lat="46.57469" lon="5.62112">
        <ele>508.6</ele>
        <time>2022-03-04T17:32:14Z</time>
      </trkpt>
      <trkpt lat="46.57467" lon="5.62113">
        <ele>508.8</ele>
        <time>2022-03-04T17:32:15Z</time>
      </trkpt>
      <trkpt lat="46.57465" lon="5.62114">
        <ele>508.8</ele>
        <time>2022-03-04T17:32:16Z</time>
      </trkpt>
      <trkpt lat="46.57463" lon="5.62114">
        <ele>509.2</ele>
        <time>2022-03-04T17:32:17Z</time>
      </trkpt>
      <trkpt lat="46.57461" lon="5.62116">
        <ele>509.2</ele>
        <time>2022-03-04T17:32:18Z</time>
      </trkpt>
      <trkpt lat="46.57459" lon="5.62117">
        <ele>509.4</ele>
        <time>2022-03-04T17:32:19Z</time>
      </trkpt>
      <trkpt lat="46.57457" lon="5.62117">
        <ele>509.4</ele>
        <time>2022-03-04T17:32:20Z</time>
      </trkpt>
      <trkpt lat="46.57455" lon="5.62118">
        <ele>509.4</ele>
        <time>2022-03-04T17:32:21Z</time>
      </trkpt>
      <trkpt lat="46.57454" lon="5.62119">
        <ele>509.4</ele>
        <time>2022-03-04T17:32:22Z</time>
      </trkpt>
      <trkpt lat="46.57452" lon="5.6212">
        <ele>509.4</ele>
        <time>2022-03-04T17:32:23Z</time>
      </trkpt>
      <trkpt lat="46.5745" lon="5.6212">
        <ele>509.4</ele>
        <time>2022-03-04T17:32:24Z</time>
      </trkpt>
      <trkpt lat="46.57448" lon="5.6212">
        <ele>509.4</ele>
        <time>2022-03-04T17:32:25Z</time>
      </trkpt>
      <trkpt lat="46.57447" lon="5.6212">
        <ele>509.4</ele>
        <time>2022-03-04T17:32:26Z</time>
      </trkpt>
      <trkpt lat="46.57446" lon="5.6212">
        <ele>509.4</ele>
        <time>2022-03-04T17:32:27Z</time>
      </trkpt>
      <trkpt lat="46.57445" lon="5.62119">
        <ele>509.4</ele>
        <time>2022-03-04T17:32:28Z</time>
      </trkpt>
      <trkpt lat="46.57444" lon="5.62118">
        <ele>509.4</ele>
        <time>2022-03-04T17:32:29Z</time>
      </trkpt>
      <trkpt lat="46.57443" lon="5.62117">
        <ele>509.4</ele>
        <time>2022-03-04T17:32:30Z</time>
      </trkpt>
      <trkpt lat="46.57442" lon="5.62116">
        <ele>509.4</ele>
        <time>2022-03-04T17:32:31Z</time>
      </trkpt>
      <trkpt lat="46.57441" lon="5.62115">
        <ele>509.4</ele>
        <time>2022-03-04T17:32:32Z</time>
      </trkpt>
      <trkpt lat="46.5744" lon="5.62114">
        <ele>509.4</ele>
        <time>2022-03-04T17:32:33Z</time>
      </trkpt>
      <trkpt lat="46.5744" lon="5.62112">
        <ele>509.4</ele>
        <time>2022-03-04T17:32:34Z</time>
      </trkpt>
      <trkpt lat="46.5744" lon="5.6211">
        <ele>509.4</ele>
        <time>2022-03-04T17:32:35Z</time>
      </trkpt>
      <trkpt lat="46.5744" lon="5.62107">
        <ele>509.2</ele>
        <time>2022-03-04T17:32:36Z</time>
      </trkpt>
      <trkpt lat="46.5744" lon="5.62104">
        <ele>509.2</ele>
        <time>2022-03-04T17:32:37Z</time>
      </trkpt>
      <trkpt lat="46.5744" lon="5.62102">
        <ele>509</ele>
        <time>2022-03-04T17:32:38Z</time>
      </trkpt>
      <trkpt lat="46.5744" lon="5.621">
        <ele>509</ele>
        <time>2022-03-04T17:32:39Z</time>
      </trkpt>
      <trkpt lat="46.5744" lon="5.62098">
        <ele>508.8</ele>
        <time>2022-03-04T17:32:40Z</time>
      </trkpt>
      <trkpt lat="46.5744" lon="5.62096">
        <ele>508.8</ele>
        <time>2022-03-04T17:32:41Z</time>
      </trkpt>
      <trkpt lat="46.57439" lon="5.62094">
        <ele>508.6</ele>
        <time>2022-03-04T17:32:42Z</time>
      </trkpt>
      <trkpt lat="46.57439" lon="5.62092">
        <ele>508.6</ele>
        <time>2022-03-04T17:32:43Z</time>
      </trkpt>
      <trkpt lat="46.57438" lon="5.62088">
        <ele>508.6</ele>
        <time>2022-03-04T17:32:44Z</time>
      </trkpt>
      <trkpt lat="46.57438" lon="5.62086">
        <ele>508.2</ele>
        <time>2022-03-04T17:32:45Z</time>
      </trkpt>
      <trkpt lat="46.57438" lon="5.62084">
        <ele>508.2</ele>
        <time>2022-03-04T17:32:46Z</time>
      </trkpt>
      <trkpt lat="46.57437" lon="5.62082">
        <ele>508.2</ele>
        <time>2022-03-04T17:32:47Z</time>
      </trkpt>
      <trkpt lat="46.57437" lon="5.62079">
        <ele>508.2</ele>
        <time>2022-03-04T17:32:48Z</time>
      </trkpt>
      <trkpt lat="46.57438" lon="5.62077">
        <ele>508.2</ele>
        <time>2022-03-04T17:32:49Z</time>
      </trkpt>
      <trkpt lat="46.57438" lon="5.62075">
        <ele>508.2</ele>
        <time>2022-03-04T17:32:50Z</time>
      </trkpt>
      <trkpt lat="46.57438" lon="5.62071">
        <ele>508.2</ele>
        <time>2022-03-04T17:32:51Z</time>
      </trkpt>
      <trkpt lat="46.57438" lon="5.62068">
        <ele>508.2</ele>
        <time>2022-03-04T17:32:52Z</time>
      </trkpt>
      <trkpt lat="46.57438" lon="5.62065">
        <ele>508</ele>
        <time>2022-03-04T17:32:53Z</time>
      </trkpt>
      <trkpt lat="46.57439" lon="5.62062">
        <ele>508</ele>
        <time>2022-03-04T17:32:54Z</time>
      </trkpt>
      <trkpt lat="46.57439" lon="5.62059">
        <ele>507.8</ele>
        <time>2022-03-04T17:32:55Z</time>
      </trkpt>
      <trkpt lat="46.57439" lon="5.62057">
        <ele>507.8</ele>
        <time>2022-03-04T17:32:56Z</time>
      </trkpt>
      <trkpt lat="46.57439" lon="5.62054">
        <ele>507.8</ele>
        <time>2022-03-04T17:32:57Z</time>
      </trkpt>
      <trkpt lat="46.57439" lon="5.62051">
        <ele>507.6</ele>
        <time>2022-03-04T17:32:58Z</time>
      </trkpt>
      <trkpt lat="46.57438" lon="5.62049">
        <ele>507.6</ele>
        <time>2022-03-04T17:32:59Z</time>
      </trkpt>
      <trkpt lat="46.57439" lon="5.62046">
        <ele>507.4</ele>
        <time>2022-03-04T17:33:00Z</time>
      </trkpt>
      <trkpt lat="46.57439" lon="5.62043">
        <ele>507.4</ele>
        <time>2022-03-04T17:33:01Z</time>
      </trkpt>
      <trkpt lat="46.57439" lon="5.6204">
        <ele>507.4</ele>
        <time>2022-03-04T17:33:02Z</time>
      </trkpt>
      <trkpt lat="46.57439" lon="5.62038">
        <ele>507.4</ele>
        <time>2022-03-04T17:33:03Z</time>
      </trkpt>
      <trkpt lat="46.57439" lon="5.62036">
        <ele>507</ele>
        <time>2022-03-04T17:33:04Z</time>
      </trkpt>
      <trkpt lat="46.57439" lon="5.62034">
        <ele>507</ele>
        <time>2022-03-04T17:33:05Z</time>
      </trkpt>
      <trkpt lat="46.57439" lon="5.62032">
        <ele>506.8</ele>
        <time>2022-03-04T17:33:06Z</time>
      </trkpt>
      <trkpt lat="46.57439" lon="5.62029">
        <ele>506.8</ele>
        <time>2022-03-04T17:33:07Z</time>
      </trkpt>
      <trkpt lat="46.57439" lon="5.62028">
        <ele>506.6</ele>
        <time>2022-03-04T17:33:08Z</time>
      </trkpt>
      <trkpt lat="46.5744" lon="5.62027">
        <ele>506.6</ele>
        <time>2022-03-04T17:33:09Z</time>
      </trkpt>
      <trkpt lat="46.57439" lon="5.62025">
        <ele>506.6</ele>
        <time>2022-03-04T17:33:10Z</time>
      </trkpt>
      <trkpt lat="46.57439" lon="5.62025">
        <ele>506.6</ele>
        <time>2022-03-04T17:33:15Z</time>
      </trkpt>
      <trkpt lat="46.57439" lon="5.62025">
        <ele>506.8</ele>
        <time>2022-03-04T17:33:16Z</time>
      </trkpt>
      <trkpt lat="46.5744" lon="5.62012">
        <ele>507</ele>
        <time>2022-03-04T17:33:18Z</time>
      </trkpt>
      <trkpt lat="46.57441" lon="5.6201">
        <ele>507</ele>
        <time>2022-03-04T17:33:19Z</time>
      </trkpt>
      <trkpt lat="46.57441" lon="5.62009">
        <ele>507.4</ele>
        <time>2022-03-04T17:33:20Z</time>
      </trkpt>
      <trkpt lat="46.57441" lon="5.62007">
        <ele>507.4</ele>
        <time>2022-03-04T17:33:21Z</time>
      </trkpt>
      <trkpt lat="46.57441" lon="5.62006">
        <ele>507.4</ele>
        <time>2022-03-04T17:33:22Z</time>
      </trkpt>
      <trkpt lat="46.57441" lon="5.62005">
        <ele>507.4</ele>
        <time>2022-03-04T17:33:24Z</time>
      </trkpt>
      <trkpt lat="46.57441" lon="5.62004">
        <ele>507.6</ele>
        <time>2022-03-04T17:33:25Z</time>
      </trkpt>
      <trkpt lat="46.57441" lon="5.62001">
        <ele>507.6</ele>
        <time>2022-03-04T17:33:26Z</time>
      </trkpt>
      <trkpt lat="46.57441" lon="5.61999">
        <ele>507.6</ele>
        <time>2022-03-04T17:33:27Z</time>
      </trkpt>
      <trkpt lat="46.57441" lon="5.61997">
        <ele>507.6</ele>
        <time>2022-03-04T17:33:28Z</time>
      </trkpt>
      <trkpt lat="46.57441" lon="5.61995">
        <ele>507.6</ele>
        <time>2022-03-04T17:33:29Z</time>
      </trkpt>
      <trkpt lat="46.57441" lon="5.61993">
        <ele>507.6</ele>
        <time>2022-03-04T17:33:30Z</time>
      </trkpt>
      <trkpt lat="46.57441" lon="5.61991">
        <ele>507.6</ele>
        <time>2022-03-04T17:33:31Z</time>
      </trkpt>
      <trkpt lat="46.57442" lon="5.61988">
        <ele>508</ele>
        <time>2022-03-04T17:33:32Z</time>
      </trkpt>
      <trkpt lat="46.57442" lon="5.61985">
        <ele>508</ele>
        <time>2022-03-04T17:33:33Z</time>
      </trkpt>
      <trkpt lat="46.57442" lon="5.61983">
        <ele>508.2</ele>
        <time>2022-03-04T17:33:34Z</time>
      </trkpt>
      <trkpt lat="46.57442" lon="5.6198">
        <ele>508.2</ele>
        <time>2022-03-04T17:33:35Z</time>
      </trkpt>
      <trkpt lat="46.57442" lon="5.61978">
        <ele>508.2</ele>
        <time>2022-03-04T17:33:36Z</time>
      </trkpt>
      <trkpt lat="46.57442" lon="5.61976">
        <ele>508.2</ele>
        <time>2022-03-04T17:33:37Z</time>
      </trkpt>
      <trkpt lat="46.57442" lon="5.61973">
        <ele>508.2</ele>
        <time>2022-03-04T17:33:38Z</time>
      </trkpt>
      <trkpt lat="46.57442" lon="5.61971">
        <ele>508.2</ele>
        <time>2022-03-04T17:33:39Z</time>
      </trkpt>
      <trkpt lat="46.57442" lon="5.61969">
        <ele>508.4</ele>
        <time>2022-03-04T17:33:40Z</time>
      </trkpt>
      <trkpt lat="46.57442" lon="5.61966">
        <ele>508.4</ele>
        <time>2022-03-04T17:33:41Z</time>
      </trkpt>
      <trkpt lat="46.57442" lon="5.61963">
        <ele>508.4</ele>
        <time>2022-03-04T17:33:42Z</time>
      </trkpt>
      <trkpt lat="46.57442" lon="5.61961">
        <ele>508.4</ele>
        <time>2022-03-04T17:33:43Z</time>
      </trkpt>
      <trkpt lat="46.57442" lon="5.61957">
        <ele>508.4</ele>
        <time>2022-03-04T17:33:44Z</time>
      </trkpt>
      <trkpt lat="46.57442" lon="5.61954">
        <ele>508.4</ele>
        <time>2022-03-04T17:33:45Z</time>
      </trkpt>
      <trkpt lat="46.57442" lon="5.61951">
        <ele>508.4</ele>
        <time>2022-03-04T17:33:46Z</time>
      </trkpt>
      <trkpt lat="46.57442" lon="5.61949">
        <ele>508.4</ele>
        <time>2022-03-04T17:33:47Z</time>
      </trkpt>
      <trkpt lat="46.57442" lon="5.61946">
        <ele>508.4</ele>
        <time>2022-03-04T17:33:48Z</time>
      </trkpt>
      <trkpt lat="46.57443" lon="5.61943">
        <ele>508.4</ele>
        <time>2022-03-04T17:33:49Z</time>
      </trkpt>
      <trkpt lat="46.57443" lon="5.6194">
        <ele>508.4</ele>
        <time>2022-03-04T17:33:50Z</time>
      </trkpt>
      <trkpt lat="46.57443" lon="5.61936">
        <ele>508.4</ele>
        <time>2022-03-04T17:33:51Z</time>
      </trkpt>
      <trkpt lat="46.57444" lon="5.61933">
        <ele>508.4</ele>
        <time>2022-03-04T17:33:52Z</time>
      </trkpt>
      <trkpt lat="46.57444" lon="5.6193">
        <ele>508.4</ele>
        <time>2022-03-04T17:33:53Z</time>
      </trkpt>
      <trkpt lat="46.57444" lon="5.61928">
        <ele>508.2</ele>
        <time>2022-03-04T17:33:54Z</time>
      </trkpt>
      <trkpt lat="46.57444" lon="5.61925">
        <ele>508.2</ele>
        <time>2022-03-04T17:33:55Z</time>
      </trkpt>
      <trkpt lat="46.57444" lon="5.61923">
        <ele>508.2</ele>
        <time>2022-03-04T17:33:56Z</time>
      </trkpt>
      <trkpt lat="46.57444" lon="5.6192">
        <ele>507.8</ele>
        <time>2022-03-04T17:33:57Z</time>
      </trkpt>
      <trkpt lat="46.57445" lon="5.61917">
        <ele>507.8</ele>
        <time>2022-03-04T17:33:58Z</time>
      </trkpt>
      <trkpt lat="46.57445" lon="5.61914">
        <ele>507.8</ele>
        <time>2022-03-04T17:33:59Z</time>
      </trkpt>
      <trkpt lat="46.57445" lon="5.6191">
        <ele>507.8</ele>
        <time>2022-03-04T17:34:00Z</time>
      </trkpt>
      <trkpt lat="46.57445" lon="5.61909">
        <ele>507.6</ele>
        <time>2022-03-04T17:34:01Z</time>
      </trkpt>
      <trkpt lat="46.57445" lon="5.61907">
        <ele>507.6</ele>
        <time>2022-03-04T17:34:02Z</time>
      </trkpt>
      <trkpt lat="46.57445" lon="5.61906">
        <ele>507.6</ele>
        <time>2022-03-04T17:34:03Z</time>
      </trkpt>
      <trkpt lat="46.57445" lon="5.61904">
        <ele>507.4</ele>
        <time>2022-03-04T17:34:04Z</time>
      </trkpt>
      <trkpt lat="46.57445" lon="5.61903">
        <ele>507.4</ele>
        <time>2022-03-04T17:34:05Z</time>
      </trkpt>
      <trkpt lat="46.57445" lon="5.61901">
        <ele>507</ele>
        <time>2022-03-04T17:34:06Z</time>
      </trkpt>
      <trkpt lat="46.57445" lon="5.61899">
        <ele>507</ele>
        <time>2022-03-04T17:34:07Z</time>
      </trkpt>
      <trkpt lat="46.57445" lon="5.61898">
        <ele>506.6</ele>
        <time>2022-03-04T17:34:08Z</time>
      </trkpt>
      <trkpt lat="46.57445" lon="5.61896">
        <ele>506.4</ele>
        <time>2022-03-04T17:34:09Z</time>
      </trkpt>
      <trkpt lat="46.57445" lon="5.61895">
        <ele>506.4</ele>
        <time>2022-03-04T17:34:10Z</time>
      </trkpt>
      <trkpt lat="46.57445" lon="5.61893">
        <ele>506.2</ele>
        <time>2022-03-04T17:34:11Z</time>
      </trkpt>
      <trkpt lat="46.57445" lon="5.61892">
        <ele>506.2</ele>
        <time>2022-03-04T17:34:12Z</time>
      </trkpt>
      <trkpt lat="46.57445" lon="5.6189">
        <ele>505.8</ele>
        <time>2022-03-04T17:34:13Z</time>
      </trkpt>
      <trkpt lat="46.57446" lon="5.61889">
        <ele>505.8</ele>
        <time>2022-03-04T17:34:14Z</time>
      </trkpt>
      <trkpt lat="46.57446" lon="5.61887">
        <ele>505.8</ele>
        <time>2022-03-04T17:34:15Z</time>
      </trkpt>
      <trkpt lat="46.57446" lon="5.61885">
        <ele>505.6</ele>
        <time>2022-03-04T17:34:16Z</time>
      </trkpt>
      <trkpt lat="46.57446" lon="5.61884">
        <ele>505.6</ele>
        <time>2022-03-04T17:34:18Z</time>
      </trkpt>
      <trkpt lat="46.57446" lon="5.61882">
        <ele>505.6</ele>
        <time>2022-03-04T17:34:19Z</time>
      </trkpt>
      <trkpt lat="46.57446" lon="5.61881">
        <ele>505.6</ele>
        <time>2022-03-04T17:34:20Z</time>
      </trkpt>
      <trkpt lat="46.57446" lon="5.61879">
        <ele>505.2</ele>
        <time>2022-03-04T17:34:21Z</time>
      </trkpt>
      <trkpt lat="46.57446" lon="5.61878">
        <ele>505.2</ele>
        <time>2022-03-04T17:34:22Z</time>
      </trkpt>
      <trkpt lat="46.57446" lon="5.61876">
        <ele>505</ele>
        <time>2022-03-04T17:34:23Z</time>
      </trkpt>
      <trkpt lat="46.57446" lon="5.61875">
        <ele>505</ele>
        <time>2022-03-04T17:34:24Z</time>
      </trkpt>
      <trkpt lat="46.57446" lon="5.61873">
        <ele>504.8</ele>
        <time>2022-03-04T17:34:25Z</time>
      </trkpt>
      <trkpt lat="46.57446" lon="5.61871">
        <ele>504.8</ele>
        <time>2022-03-04T17:34:26Z</time>
      </trkpt>
      <trkpt lat="46.57446" lon="5.6187">
        <ele>504.4</ele>
        <time>2022-03-04T17:34:27Z</time>
      </trkpt>
      <trkpt lat="46.57446" lon="5.61868">
        <ele>504.4</ele>
        <time>2022-03-04T17:34:28Z</time>
      </trkpt>
      <trkpt lat="46.57446" lon="5.61865">
        <ele>504.4</ele>
        <time>2022-03-04T17:34:29Z</time>
      </trkpt>
      <trkpt lat="46.57446" lon="5.61864">
        <ele>504.4</ele>
        <time>2022-03-04T17:34:30Z</time>
      </trkpt>
      <trkpt lat="46.57446" lon="5.61862">
        <ele>504.4</ele>
        <time>2022-03-04T17:34:31Z</time>
      </trkpt>
      <trkpt lat="46.57446" lon="5.6186">
        <ele>504.2</ele>
        <time>2022-03-04T17:34:32Z</time>
      </trkpt>
      <trkpt lat="46.57446" lon="5.61859">
        <ele>504.2</ele>
        <time>2022-03-04T17:34:33Z</time>
      </trkpt>
      <trkpt lat="46.57446" lon="5.61857">
        <ele>504.2</ele>
        <time>2022-03-04T17:34:35Z</time>
      </trkpt>
      <trkpt lat="46.57446" lon="5.61855">
        <ele>504.2</ele>
        <time>2022-03-04T17:34:36Z</time>
      </trkpt>
      <trkpt lat="46.57446" lon="5.61853">
        <ele>504.4</ele>
        <time>2022-03-04T17:34:38Z</time>
      </trkpt>
      <trkpt lat="46.57446" lon="5.61852">
        <ele>504.4</ele>
        <time>2022-03-04T17:34:39Z</time>
      </trkpt>
      <trkpt lat="46.57447" lon="5.6185">
        <ele>504.4</ele>
        <time>2022-03-04T17:34:40Z</time>
      </trkpt>
      <trkpt lat="46.57447" lon="5.61848">
        <ele>504.4</ele>
        <time>2022-03-04T17:34:41Z</time>
      </trkpt>
      <trkpt lat="46.57447" lon="5.61847">
        <ele>504.4</ele>
        <time>2022-03-04T17:34:42Z</time>
      </trkpt>
      <trkpt lat="46.57447" lon="5.61846">
        <ele>504.8</ele>
        <time>2022-03-04T17:34:43Z</time>
      </trkpt>
      <trkpt lat="46.57447" lon="5.61846">
        <ele>504.8</ele>
        <time>2022-03-04T17:34:44Z</time>
      </trkpt>
      <trkpt lat="46.57447" lon="5.61846">
        <ele>505.4</ele>
        <time>2022-03-04T17:34:48Z</time>
      </trkpt>
      <trkpt lat="46.57447" lon="5.61846">
        <ele>505.4</ele>
        <time>2022-03-04T17:34:49Z</time>
      </trkpt>
      <trkpt lat="46.57448" lon="5.61833">
        <ele>505.6</ele>
        <time>2022-03-04T17:34:54Z</time>
      </trkpt>
      <trkpt lat="46.57448" lon="5.61831">
        <ele>505.8</ele>
        <time>2022-03-04T17:34:55Z</time>
      </trkpt>
      <trkpt lat="46.57449" lon="5.6183">
        <ele>505.8</ele>
        <time>2022-03-04T17:34:56Z</time>
      </trkpt>
      <trkpt lat="46.57449" lon="5.61828">
        <ele>505.8</ele>
        <time>2022-03-04T17:34:57Z</time>
      </trkpt>
      <trkpt lat="46.57449" lon="5.61828">
        <ele>505.8</ele>
        <time>2022-03-04T17:34:58Z</time>
      </trkpt>
      <trkpt lat="46.57449" lon="5.61828">
        <ele>506</ele>
        <time>2022-03-04T17:34:59Z</time>
      </trkpt>
      <trkpt lat="46.57449" lon="5.61828">
        <ele>506</ele>
        <time>2022-03-04T17:35:00Z</time>
      </trkpt>
      <trkpt lat="46.57449" lon="5.61828">
        <ele>506.2</ele>
        <time>2022-03-04T17:35:02Z</time>
      </trkpt>
      <trkpt lat="46.57449" lon="5.61828">
        <ele>506.2</ele>
        <time>2022-03-04T17:35:03Z</time>
      </trkpt>
      <trkpt lat="46.5745" lon="5.61815">
        <ele>506.4</ele>
        <time>2022-03-04T17:35:07Z</time>
      </trkpt>
      <trkpt lat="46.5745" lon="5.61814">
        <ele>506.8</ele>
        <time>2022-03-04T17:35:08Z</time>
      </trkpt>
      <trkpt lat="46.5745" lon="5.61814">
        <ele>506.8</ele>
        <time>2022-03-04T17:35:09Z</time>
      </trkpt>
      <trkpt lat="46.5745" lon="5.61814">
        <ele>507</ele>
        <time>2022-03-04T17:35:10Z</time>
      </trkpt>
      <trkpt lat="46.5745" lon="5.61814">
        <ele>507</ele>
        <time>2022-03-04T17:35:11Z</time>
      </trkpt>
      <trkpt lat="46.5745" lon="5.61814">
        <ele>507</ele>
        <time>2022-03-04T17:35:12Z</time>
      </trkpt>
      <trkpt lat="46.5745" lon="5.61814">
        <ele>507</ele>
        <time>2022-03-04T17:35:13Z</time>
      </trkpt>
      <trkpt lat="46.5745" lon="5.61814">
        <ele>507</ele>
        <time>2022-03-04T17:35:14Z</time>
      </trkpt>
      <trkpt lat="46.5745" lon="5.61814">
        <ele>507.2</ele>
        <time>2022-03-04T17:35:15Z</time>
      </trkpt>
      <trkpt lat="46.5745" lon="5.61814">
        <ele>507.2</ele>
        <time>2022-03-04T17:35:16Z</time>
      </trkpt>
      <trkpt lat="46.5745" lon="5.61814">
        <ele>507.2</ele>
        <time>2022-03-04T17:35:17Z</time>
      </trkpt>
      <trkpt lat="46.5745" lon="5.61814">
        <ele>507.4</ele>
        <time>2022-03-04T17:35:18Z</time>
      </trkpt>
      <trkpt lat="46.5745" lon="5.61814">
        <ele>507.4</ele>
        <time>2022-03-04T17:35:19Z</time>
      </trkpt>
      <trkpt lat="46.5745" lon="5.61814">
        <ele>507.6</ele>
        <time>2022-03-04T17:35:21Z</time>
      </trkpt>
      <trkpt lat="46.5745" lon="5.61814">
        <ele>507.6</ele>
        <time>2022-03-04T17:35:22Z</time>
      </trkpt>
      <trkpt lat="46.57452" lon="5.618">
        <ele>507.6</ele>
        <time>2022-03-04T17:35:24Z</time>
      </trkpt>
      <trkpt lat="46.57452" lon="5.61798">
        <ele>507.6</ele>
        <time>2022-03-04T17:35:25Z</time>
      </trkpt>
      <trkpt lat="46.57452" lon="5.61797">
        <ele>507.8</ele>
        <time>2022-03-04T17:35:26Z</time>
      </trkpt>
      <trkpt lat="46.57452" lon="5.61796">
        <ele>507.8</ele>
        <time>2022-03-04T17:35:27Z</time>
      </trkpt>
      <trkpt lat="46.57452" lon="5.61795">
        <ele>507.8</ele>
        <time>2022-03-04T17:35:28Z</time>
      </trkpt>
      <trkpt lat="46.57452" lon="5.61794">
        <ele>507.6</ele>
        <time>2022-03-04T17:35:29Z</time>
      </trkpt>
      <trkpt lat="46.57452" lon="5.61793">
        <ele>507.6</ele>
        <time>2022-03-04T17:35:30Z</time>
      </trkpt>
      <trkpt lat="46.57452" lon="5.61792">
        <ele>507.6</ele>
        <time>2022-03-04T17:35:31Z</time>
      </trkpt>
      <trkpt lat="46.57452" lon="5.6179">
        <ele>507.6</ele>
        <time>2022-03-04T17:35:32Z</time>
      </trkpt>
      <trkpt lat="46.57452" lon="5.61789">
        <ele>507.6</ele>
        <time>2022-03-04T17:35:33Z</time>
      </trkpt>
      <trkpt lat="46.57452" lon="5.61788">
        <ele>507.6</ele>
        <time>2022-03-04T17:35:34Z</time>
      </trkpt>
      <trkpt lat="46.57452" lon="5.61787">
        <ele>507.8</ele>
        <time>2022-03-04T17:35:35Z</time>
      </trkpt>
      <trkpt lat="46.57452" lon="5.61786">
        <ele>507.8</ele>
        <time>2022-03-04T17:35:36Z</time>
      </trkpt>
      <trkpt lat="46.57452" lon="5.61785">
        <ele>507.8</ele>
        <time>2022-03-04T17:35:37Z</time>
      </trkpt>
      <trkpt lat="46.57452" lon="5.61781">
        <ele>507.8</ele>
        <time>2022-03-04T17:35:38Z</time>
      </trkpt>
      <trkpt lat="46.57453" lon="5.6178">
        <ele>508</ele>
        <time>2022-03-04T17:35:39Z</time>
      </trkpt>
      <trkpt lat="46.57453" lon="5.61779">
        <ele>508</ele>
        <time>2022-03-04T17:35:40Z</time>
      </trkpt>
      <trkpt lat="46.57453" lon="5.61777">
        <ele>508.4</ele>
        <time>2022-03-04T17:35:41Z</time>
      </trkpt>
      <trkpt lat="46.57453" lon="5.61776">
        <ele>508.4</ele>
        <time>2022-03-04T17:35:42Z</time>
      </trkpt>
      <trkpt lat="46.57453" lon="5.61775">
        <ele>508.4</ele>
        <time>2022-03-04T17:35:43Z</time>
      </trkpt>
      <trkpt lat="46.57453" lon="5.61774">
        <ele>508.4</ele>
        <time>2022-03-04T17:35:44Z</time>
      </trkpt>
      <trkpt lat="46.57453" lon="5.61772">
        <ele>508.4</ele>
        <time>2022-03-04T17:35:45Z</time>
      </trkpt>
      <trkpt lat="46.57453" lon="5.61771">
        <ele>508.4</ele>
        <time>2022-03-04T17:35:46Z</time>
      </trkpt>
      <trkpt lat="46.57453" lon="5.6177">
        <ele>508.4</ele>
        <time>2022-03-04T17:35:47Z</time>
      </trkpt>
      <trkpt lat="46.57453" lon="5.61768">
        <ele>508.4</ele>
        <time>2022-03-04T17:35:50Z</time>
      </trkpt>
      <trkpt lat="46.57454" lon="5.61767">
        <ele>508.4</ele>
        <time>2022-03-04T17:35:51Z</time>
      </trkpt>
      <trkpt lat="46.57454" lon="5.61766">
        <ele>508.4</ele>
        <time>2022-03-04T17:35:52Z</time>
      </trkpt>
      <trkpt lat="46.57454" lon="5.61764">
        <ele>508.4</ele>
        <time>2022-03-04T17:35:53Z</time>
      </trkpt>
      <trkpt lat="46.57454" lon="5.61763">
        <ele>508.4</ele>
        <time>2022-03-04T17:35:54Z</time>
      </trkpt>
      <trkpt lat="46.57454" lon="5.61762">
        <ele>508.4</ele>
        <time>2022-03-04T17:35:55Z</time>
      </trkpt>
      <trkpt lat="46.57454" lon="5.6176">
        <ele>508.4</ele>
        <time>2022-03-04T17:35:56Z</time>
      </trkpt>
      <trkpt lat="46.57454" lon="5.61759">
        <ele>508.4</ele>
        <time>2022-03-04T17:35:57Z</time>
      </trkpt>
      <trkpt lat="46.57454" lon="5.61758">
        <ele>508.4</ele>
        <time>2022-03-04T17:35:59Z</time>
      </trkpt>
      <trkpt lat="46.57454" lon="5.61757">
        <ele>508.4</ele>
        <time>2022-03-04T17:36:00Z</time>
      </trkpt>
      <trkpt lat="46.57454" lon="5.61755">
        <ele>508.4</ele>
        <time>2022-03-04T17:36:01Z</time>
      </trkpt>
      <trkpt lat="46.57455" lon="5.61754">
        <ele>508.4</ele>
        <time>2022-03-04T17:36:02Z</time>
      </trkpt>
      <trkpt lat="46.57455" lon="5.61753">
        <ele>508.4</ele>
        <time>2022-03-04T17:36:03Z</time>
      </trkpt>
      <trkpt lat="46.57455" lon="5.61751">
        <ele>508.4</ele>
        <time>2022-03-04T17:36:04Z</time>
      </trkpt>
      <trkpt lat="46.57455" lon="5.6175">
        <ele>508.4</ele>
        <time>2022-03-04T17:36:05Z</time>
      </trkpt>
      <trkpt lat="46.57455" lon="5.61749">
        <ele>508.4</ele>
        <time>2022-03-04T17:36:06Z</time>
      </trkpt>
      <trkpt lat="46.57455" lon="5.61747">
        <ele>508.4</ele>
        <time>2022-03-04T17:36:07Z</time>
      </trkpt>
      <trkpt lat="46.57455" lon="5.61746">
        <ele>508.4</ele>
        <time>2022-03-04T17:36:08Z</time>
      </trkpt>
      <trkpt lat="46.57455" lon="5.61745">
        <ele>508.4</ele>
        <time>2022-03-04T17:36:09Z</time>
      </trkpt>
      <trkpt lat="46.57455" lon="5.61744">
        <ele>508.4</ele>
        <time>2022-03-04T17:36:10Z</time>
      </trkpt>
      <trkpt lat="46.57455" lon="5.61742">
        <ele>508.4</ele>
        <time>2022-03-04T17:36:11Z</time>
      </trkpt>
      <trkpt lat="46.57456" lon="5.61741">
        <ele>508.4</ele>
        <time>2022-03-04T17:36:12Z</time>
      </trkpt>
      <trkpt lat="46.57456" lon="5.6174">
        <ele>508.6</ele>
        <time>2022-03-04T17:36:13Z</time>
      </trkpt>
      <trkpt lat="46.57456" lon="5.61738">
        <ele>508.6</ele>
        <time>2022-03-04T17:36:18Z</time>
      </trkpt>
      <trkpt lat="46.57456" lon="5.61737">
        <ele>508.6</ele>
        <time>2022-03-04T17:36:19Z</time>
      </trkpt>
      <trkpt lat="46.57456" lon="5.61736">
        <ele>508.6</ele>
        <time>2022-03-04T17:36:20Z</time>
      </trkpt>
      <trkpt lat="46.57456" lon="5.61734">
        <ele>508.6</ele>
        <time>2022-03-04T17:36:21Z</time>
      </trkpt>
      <trkpt lat="46.57456" lon="5.61733">
        <ele>508.6</ele>
        <time>2022-03-04T17:36:22Z</time>
      </trkpt>
      <trkpt lat="46.57456" lon="5.61732">
        <ele>508.6</ele>
        <time>2022-03-04T17:36:23Z</time>
      </trkpt>
      <trkpt lat="46.57456" lon="5.6173">
        <ele>508.6</ele>
        <time>2022-03-04T17:36:24Z</time>
      </trkpt>
      <trkpt lat="46.57456" lon="5.61729">
        <ele>508.6</ele>
        <time>2022-03-04T17:36:25Z</time>
      </trkpt>
      <trkpt lat="46.57457" lon="5.61728">
        <ele>508.6</ele>
        <time>2022-03-04T17:36:26Z</time>
      </trkpt>
      <trkpt lat="46.57457" lon="5.61727">
        <ele>508.6</ele>
        <time>2022-03-04T17:36:27Z</time>
      </trkpt>
      <trkpt lat="46.57457" lon="5.61725">
        <ele>508.6</ele>
        <time>2022-03-04T17:36:28Z</time>
      </trkpt>
      <trkpt lat="46.57457" lon="5.61724">
        <ele>508.6</ele>
        <time>2022-03-04T17:36:29Z</time>
      </trkpt>
      <trkpt lat="46.57457" lon="5.61723">
        <ele>508.6</ele>
        <time>2022-03-04T17:36:30Z</time>
      </trkpt>
      <trkpt lat="46.57457" lon="5.61721">
        <ele>508.6</ele>
        <time>2022-03-04T17:36:31Z</time>
      </trkpt>
      <trkpt lat="46.57457" lon="5.6172">
        <ele>508.6</ele>
        <time>2022-03-04T17:36:32Z</time>
      </trkpt>
      <trkpt lat="46.57457" lon="5.61719">
        <ele>508.6</ele>
        <time>2022-03-04T17:36:34Z</time>
      </trkpt>
      <trkpt lat="46.57457" lon="5.61717">
        <ele>508.6</ele>
        <time>2022-03-04T17:36:35Z</time>
      </trkpt>
      <trkpt lat="46.57458" lon="5.61716">
        <ele>508.6</ele>
        <time>2022-03-04T17:36:36Z</time>
      </trkpt>
      <trkpt lat="46.57458" lon="5.61715">
        <ele>508.6</ele>
        <time>2022-03-04T17:36:37Z</time>
      </trkpt>
      <trkpt lat="46.57458" lon="5.61714">
        <ele>508.6</ele>
        <time>2022-03-04T17:36:38Z</time>
      </trkpt>
      <trkpt lat="46.57458" lon="5.61714">
        <ele>508.6</ele>
        <time>2022-03-04T17:36:39Z</time>
      </trkpt>
      <trkpt lat="46.57458" lon="5.61714">
        <ele>508.6</ele>
        <time>2022-03-04T17:36:41Z</time>
      </trkpt>
      <trkpt lat="46.57458" lon="5.61714">
        <ele>508.2</ele>
        <time>2022-03-04T17:36:42Z</time>
      </trkpt>
      <trkpt lat="46.57458" lon="5.61714">
        <ele>508.2</ele>
        <time>2022-03-04T17:36:44Z</time>
      </trkpt>
      <trkpt lat="46.57458" lon="5.61714">
        <ele>508.2</ele>
        <time>2022-03-04T17:36:45Z</time>
      </trkpt>
      <trkpt lat="46.57456" lon="5.61701">
        <ele>508</ele>
        <time>2022-03-04T17:36:49Z</time>
      </trkpt>
      <trkpt lat="46.57455" lon="5.617">
        <ele>508</ele>
        <time>2022-03-04T17:36:50Z</time>
      </trkpt>
      <trkpt lat="46.57454" lon="5.61699">
        <ele>508</ele>
        <time>2022-03-04T17:36:51Z</time>
      </trkpt>
      <trkpt lat="46.57454" lon="5.617">
        <ele>508</ele>
        <time>2022-03-04T17:36:52Z</time>
      </trkpt>
      <trkpt lat="46.57454" lon="5.617">
        <ele>508</ele>
        <time>2022-03-04T17:36:53Z</time>
      </trkpt>
      <trkpt lat="46.57454" lon="5.617">
        <ele>508</ele>
        <time>2022-03-04T17:36:54Z</time>
      </trkpt>
      <trkpt lat="46.5745" lon="5.61701">
        <ele>508</ele>
        <time>2022-03-04T17:36:55Z</time>
      </trkpt>
      <trkpt lat="46.57449" lon="5.61701">
        <ele>508</ele>
        <time>2022-03-04T17:36:56Z</time>
      </trkpt>
      <trkpt lat="46.57447" lon="5.61701">
        <ele>507.8</ele>
        <time>2022-03-04T17:36:57Z</time>
      </trkpt>
      <trkpt lat="46.57446" lon="5.61702">
        <ele>507.8</ele>
        <time>2022-03-04T17:36:58Z</time>
      </trkpt>
      <trkpt lat="46.57444" lon="5.61702">
        <ele>507.8</ele>
        <time>2022-03-04T17:36:59Z</time>
      </trkpt>
      <trkpt lat="46.57443" lon="5.61703">
        <ele>507.8</ele>
        <time>2022-03-04T17:37:00Z</time>
      </trkpt>
      <trkpt lat="46.57441" lon="5.61704">
        <ele>507.8</ele>
        <time>2022-03-04T17:37:01Z</time>
      </trkpt>
      <trkpt lat="46.57439" lon="5.61704">
        <ele>507.8</ele>
        <time>2022-03-04T17:37:02Z</time>
      </trkpt>
      <trkpt lat="46.57437" lon="5.61705">
        <ele>507.8</ele>
        <time>2022-03-04T17:37:03Z</time>
      </trkpt>
      <trkpt lat="46.57435" lon="5.61705">
        <ele>507.6</ele>
        <time>2022-03-04T17:37:04Z</time>
      </trkpt>
      <trkpt lat="46.57433" lon="5.61706">
        <ele>507.6</ele>
        <time>2022-03-04T17:37:05Z</time>
      </trkpt>
      <trkpt lat="46.57431" lon="5.61707">
        <ele>507.6</ele>
        <time>2022-03-04T17:37:06Z</time>
      </trkpt>
      <trkpt lat="46.57429" lon="5.61708">
        <ele>507.2</ele>
        <time>2022-03-04T17:37:07Z</time>
      </trkpt>
      <trkpt lat="46.57427" lon="5.6171">
        <ele>507.2</ele>
        <time>2022-03-04T17:37:08Z</time>
      </trkpt>
      <trkpt lat="46.57426" lon="5.6171">
        <ele>507.2</ele>
        <time>2022-03-04T17:37:09Z</time>
      </trkpt>
      <trkpt lat="46.57424" lon="5.61711">
        <ele>507</ele>
        <time>2022-03-04T17:37:10Z</time>
      </trkpt>
      <trkpt lat="46.57423" lon="5.61711">
        <ele>507</ele>
        <time>2022-03-04T17:37:11Z</time>
      </trkpt>
      <trkpt lat="46.57422" lon="5.61712">
        <ele>507</ele>
        <time>2022-03-04T17:37:12Z</time>
      </trkpt>
      <trkpt lat="46.57421" lon="5.61713">
        <ele>506.8</ele>
        <time>2022-03-04T17:37:13Z</time>
      </trkpt>
      <trkpt lat="46.5742" lon="5.61713">
        <ele>506.8</ele>
        <time>2022-03-04T17:37:14Z</time>
      </trkpt>
      <trkpt lat="46.57419" lon="5.61714">
        <ele>506.8</ele>
        <time>2022-03-04T17:37:15Z</time>
      </trkpt>
      <trkpt lat="46.57418" lon="5.61715">
        <ele>506.6</ele>
        <time>2022-03-04T17:37:16Z</time>
      </trkpt>
      <trkpt lat="46.57416" lon="5.61715">
        <ele>506.6</ele>
        <time>2022-03-04T17:37:19Z</time>
      </trkpt>
      <trkpt lat="46.57415" lon="5.61716">
        <ele>506.2</ele>
        <time>2022-03-04T17:37:20Z</time>
      </trkpt>
      <trkpt lat="46.57415" lon="5.61716">
        <ele>506.2</ele>
        <time>2022-03-04T17:37:21Z</time>
      </trkpt>
      <trkpt lat="46.57414" lon="5.61717">
        <ele>506</ele>
        <time>2022-03-04T17:37:22Z</time>
      </trkpt>
      <trkpt lat="46.57413" lon="5.61718">
        <ele>506</ele>
        <time>2022-03-04T17:37:23Z</time>
      </trkpt>
      <trkpt lat="46.57411" lon="5.61719">
        <ele>506</ele>
        <time>2022-03-04T17:37:24Z</time>
      </trkpt>
      <trkpt lat="46.5741" lon="5.6172">
        <ele>505.8</ele>
        <time>2022-03-04T17:37:25Z</time>
      </trkpt>
      <trkpt lat="46.57408" lon="5.6172">
        <ele>505.8</ele>
        <time>2022-03-04T17:37:26Z</time>
      </trkpt>
      <trkpt lat="46.57405" lon="5.61721">
        <ele>505.8</ele>
        <time>2022-03-04T17:37:27Z</time>
      </trkpt>
      <trkpt lat="46.57403" lon="5.61722">
        <ele>505.8</ele>
        <time>2022-03-04T17:37:28Z</time>
      </trkpt>
      <trkpt lat="46.57401" lon="5.61723">
        <ele>505.4</ele>
        <time>2022-03-04T17:37:29Z</time>
      </trkpt>
      <trkpt lat="46.57399" lon="5.61723">
        <ele>505.4</ele>
        <time>2022-03-04T17:37:30Z</time>
      </trkpt>
      <trkpt lat="46.57398" lon="5.61723">
        <ele>505.2</ele>
        <time>2022-03-04T17:37:31Z</time>
      </trkpt>
      <trkpt lat="46.57396" lon="5.61724">
        <ele>505.2</ele>
        <time>2022-03-04T17:37:32Z</time>
      </trkpt>
      <trkpt lat="46.57394" lon="5.61725">
        <ele>505.2</ele>
        <time>2022-03-04T17:37:33Z</time>
      </trkpt>
      <trkpt lat="46.57392" lon="5.61727">
        <ele>505.2</ele>
        <time>2022-03-04T17:37:34Z</time>
      </trkpt>
      <trkpt lat="46.5739" lon="5.61728">
        <ele>504.8</ele>
        <time>2022-03-04T17:37:35Z</time>
      </trkpt>
      <trkpt lat="46.57387" lon="5.61728">
        <ele>504.8</ele>
        <time>2022-03-04T17:37:36Z</time>
      </trkpt>
      <trkpt lat="46.57385" lon="5.61728">
        <ele>504.6</ele>
        <time>2022-03-04T17:37:37Z</time>
      </trkpt>
      <trkpt lat="46.57383" lon="5.61729">
        <ele>504.6</ele>
        <time>2022-03-04T17:37:38Z</time>
      </trkpt>
      <trkpt lat="46.57382" lon="5.61729">
        <ele>504.6</ele>
        <time>2022-03-04T17:37:39Z</time>
      </trkpt>
      <trkpt lat="46.5738" lon="5.61729">
        <ele>504.4</ele>
        <time>2022-03-04T17:37:40Z</time>
      </trkpt>
      <trkpt lat="46.57378" lon="5.6173">
        <ele>504.4</ele>
        <time>2022-03-04T17:37:41Z</time>
      </trkpt>
      <trkpt lat="46.57376" lon="5.61731">
        <ele>504</ele>
        <time>2022-03-04T17:37:42Z</time>
      </trkpt>
      <trkpt lat="46.57372" lon="5.61732">
        <ele>503.8</ele>
        <time>2022-03-04T17:37:43Z</time>
      </trkpt>
      <trkpt lat="46.57369" lon="5.61733">
        <ele>503.2</ele>
        <time>2022-03-04T17:37:44Z</time>
      </trkpt>
      <trkpt lat="46.57365" lon="5.61734">
        <ele>503</ele>
        <time>2022-03-04T17:37:45Z</time>
      </trkpt>
      <trkpt lat="46.57363" lon="5.61734">
        <ele>502.8</ele>
        <time>2022-03-04T17:37:46Z</time>
      </trkpt>
      <trkpt lat="46.57359" lon="5.61734">
        <ele>502.8</ele>
        <time>2022-03-04T17:37:47Z</time>
      </trkpt>
      <trkpt lat="46.57357" lon="5.61733">
        <ele>502.8</ele>
        <time>2022-03-04T17:37:48Z</time>
      </trkpt>
      <trkpt lat="46.57355" lon="5.61735">
        <ele>502.4</ele>
        <time>2022-03-04T17:37:49Z</time>
      </trkpt>
      <trkpt lat="46.57353" lon="5.61735">
        <ele>502.4</ele>
        <time>2022-03-04T17:37:50Z</time>
      </trkpt>
      <trkpt lat="46.57351" lon="5.61736">
        <ele>502.4</ele>
        <time>2022-03-04T17:37:51Z</time>
      </trkpt>
      <trkpt lat="46.57349" lon="5.61737">
        <ele>502.8</ele>
        <time>2022-03-04T17:37:52Z</time>
      </trkpt>
      <trkpt lat="46.57348" lon="5.61737">
        <ele>502.8</ele>
        <time>2022-03-04T17:37:53Z</time>
      </trkpt>
      <trkpt lat="46.57347" lon="5.61736">
        <ele>502.8</ele>
        <time>2022-03-04T17:37:54Z</time>
      </trkpt>
      <trkpt lat="46.57345" lon="5.61736">
        <ele>502.8</ele>
        <time>2022-03-04T17:37:55Z</time>
      </trkpt>
      <trkpt lat="46.57344" lon="5.61735">
        <ele>502.8</ele>
        <time>2022-03-04T17:37:56Z</time>
      </trkpt>
      <trkpt lat="46.57343" lon="5.61734">
        <ele>502.8</ele>
        <time>2022-03-04T17:37:57Z</time>
      </trkpt>
      <trkpt lat="46.57341" lon="5.61731">
        <ele>502.8</ele>
        <time>2022-03-04T17:37:58Z</time>
      </trkpt>
      <trkpt lat="46.57339" lon="5.61729">
        <ele>502.8</ele>
        <time>2022-03-04T17:37:59Z</time>
      </trkpt>
      <trkpt lat="46.57337" lon="5.61726">
        <ele>502.8</ele>
        <time>2022-03-04T17:38:00Z</time>
      </trkpt>
      <trkpt lat="46.57335" lon="5.61724">
        <ele>502.8</ele>
        <time>2022-03-04T17:38:01Z</time>
      </trkpt>
      <trkpt lat="46.57333" lon="5.61721">
        <ele>502.4</ele>
        <time>2022-03-04T17:38:02Z</time>
      </trkpt>
      <trkpt lat="46.57331" lon="5.6172">
        <ele>502.4</ele>
        <time>2022-03-04T17:38:03Z</time>
      </trkpt>
      <trkpt lat="46.57329" lon="5.61718">
        <ele>502.4</ele>
        <time>2022-03-04T17:38:04Z</time>
      </trkpt>
      <trkpt lat="46.57326" lon="5.61718">
        <ele>502.4</ele>
        <time>2022-03-04T17:38:05Z</time>
      </trkpt>
      <trkpt lat="46.57324" lon="5.61717">
        <ele>502.4</ele>
        <time>2022-03-04T17:38:06Z</time>
      </trkpt>
      <trkpt lat="46.57323" lon="5.61716">
        <ele>502.4</ele>
        <time>2022-03-04T17:38:07Z</time>
      </trkpt>
      <trkpt lat="46.57321" lon="5.61716">
        <ele>502.4</ele>
        <time>2022-03-04T17:38:08Z</time>
      </trkpt>
      <trkpt lat="46.57319" lon="5.61715">
        <ele>502.4</ele>
        <time>2022-03-04T17:38:09Z</time>
      </trkpt>
      <trkpt lat="46.57317" lon="5.61714">
        <ele>502.4</ele>
        <time>2022-03-04T17:38:10Z</time>
      </trkpt>
      <trkpt lat="46.57315" lon="5.61713">
        <ele>502.4</ele>
        <time>2022-03-04T17:38:11Z</time>
      </trkpt>
      <trkpt lat="46.57313" lon="5.61711">
        <ele>502.4</ele>
        <time>2022-03-04T17:38:12Z</time>
      </trkpt>
      <trkpt lat="46.57311" lon="5.6171">
        <ele>502.4</ele>
        <time>2022-03-04T17:38:13Z</time>
      </trkpt>
      <trkpt lat="46.57309" lon="5.61708">
        <ele>502.4</ele>
        <time>2022-03-04T17:38:14Z</time>
      </trkpt>
      <trkpt lat="46.57307" lon="5.61707">
        <ele>502.4</ele>
        <time>2022-03-04T17:38:15Z</time>
      </trkpt>
      <trkpt lat="46.57305" lon="5.61705">
        <ele>502.2</ele>
        <time>2022-03-04T17:38:16Z</time>
      </trkpt>
      <trkpt lat="46.57304" lon="5.61703">
        <ele>502.2</ele>
        <time>2022-03-04T17:38:17Z</time>
      </trkpt>
      <trkpt lat="46.57302" lon="5.61702">
        <ele>502.2</ele>
        <time>2022-03-04T17:38:18Z</time>
      </trkpt>
      <trkpt lat="46.57299" lon="5.617">
        <ele>502.2</ele>
        <time>2022-03-04T17:38:19Z</time>
      </trkpt>
      <trkpt lat="46.57297" lon="5.61699">
        <ele>502.2</ele>
        <time>2022-03-04T17:38:20Z</time>
      </trkpt>
      <trkpt lat="46.57295" lon="5.61698">
        <ele>502.2</ele>
        <time>2022-03-04T17:38:21Z</time>
      </trkpt>
      <trkpt lat="46.57293" lon="5.61697">
        <ele>502</ele>
        <time>2022-03-04T17:38:22Z</time>
      </trkpt>
      <trkpt lat="46.57293" lon="5.61697">
        <ele>502</ele>
        <time>2022-03-04T17:38:23Z</time>
      </trkpt>
      <trkpt lat="46.57291" lon="5.61696">
        <ele>502</ele>
        <time>2022-03-04T17:38:24Z</time>
      </trkpt>
      <trkpt lat="46.57288" lon="5.61694">
        <ele>502</ele>
        <time>2022-03-04T17:38:25Z</time>
      </trkpt>
      <trkpt lat="46.57285" lon="5.61693">
        <ele>502</ele>
        <time>2022-03-04T17:38:26Z</time>
      </trkpt>
      <trkpt lat="46.57282" lon="5.61691">
        <ele>502</ele>
        <time>2022-03-04T17:38:27Z</time>
      </trkpt>
      <trkpt lat="46.57279" lon="5.6169">
        <ele>502</ele>
        <time>2022-03-04T17:38:28Z</time>
      </trkpt>
      <trkpt lat="46.57276" lon="5.61688">
        <ele>502</ele>
        <time>2022-03-04T17:38:29Z</time>
      </trkpt>
      <trkpt lat="46.57274" lon="5.61687">
        <ele>502</ele>
        <time>2022-03-04T17:38:30Z</time>
      </trkpt>
      <trkpt lat="46.57272" lon="5.61686">
        <ele>501.8</ele>
        <time>2022-03-04T17:38:31Z</time>
      </trkpt>
      <trkpt lat="46.57271" lon="5.61684">
        <ele>501.8</ele>
        <time>2022-03-04T17:38:32Z</time>
      </trkpt>
      <trkpt lat="46.57268" lon="5.61683">
        <ele>501.8</ele>
        <time>2022-03-04T17:38:33Z</time>
      </trkpt>
      <trkpt lat="46.57266" lon="5.61681">
        <ele>501.4</ele>
        <time>2022-03-04T17:38:34Z</time>
      </trkpt>
      <trkpt lat="46.57263" lon="5.6168">
        <ele>501.4</ele>
        <time>2022-03-04T17:38:35Z</time>
      </trkpt>
      <trkpt lat="46.57261" lon="5.61679">
        <ele>501</ele>
        <time>2022-03-04T17:38:36Z</time>
      </trkpt>
      <trkpt lat="46.57259" lon="5.61679">
        <ele>501</ele>
        <time>2022-03-04T17:38:37Z</time>
      </trkpt>
      <trkpt lat="46.57256" lon="5.61678">
        <ele>501</ele>
        <time>2022-03-04T17:38:38Z</time>
      </trkpt>
      <trkpt lat="46.57254" lon="5.61678">
        <ele>501</ele>
        <time>2022-03-04T17:38:39Z</time>
      </trkpt>
      <trkpt lat="46.57252" lon="5.61677">
        <ele>500.8</ele>
        <time>2022-03-04T17:38:40Z</time>
      </trkpt>
      <trkpt lat="46.5725" lon="5.61676">
        <ele>500.8</ele>
        <time>2022-03-04T17:38:41Z</time>
      </trkpt>
      <trkpt lat="46.57248" lon="5.61675">
        <ele>500.8</ele>
        <time>2022-03-04T17:38:42Z</time>
      </trkpt>
      <trkpt lat="46.57246" lon="5.61674">
        <ele>500.8</ele>
        <time>2022-03-04T17:38:43Z</time>
      </trkpt>
      <trkpt lat="46.57244" lon="5.61673">
        <ele>501</ele>
        <time>2022-03-04T17:38:44Z</time>
      </trkpt>
      <trkpt lat="46.57243" lon="5.61673">
        <ele>501</ele>
        <time>2022-03-04T17:38:45Z</time>
      </trkpt>
      <trkpt lat="46.5724" lon="5.61671">
        <ele>501</ele>
        <time>2022-03-04T17:38:46Z</time>
      </trkpt>
      <trkpt lat="46.57238" lon="5.6167">
        <ele>501.4</ele>
        <time>2022-03-04T17:38:47Z</time>
      </trkpt>
      <trkpt lat="46.57235" lon="5.6167">
        <ele>501.4</ele>
        <time>2022-03-04T17:38:48Z</time>
      </trkpt>
      <trkpt lat="46.57232" lon="5.61669">
        <ele>501.4</ele>
        <time>2022-03-04T17:38:49Z</time>
      </trkpt>
      <trkpt lat="46.57229" lon="5.61668">
        <ele>501.6</ele>
        <time>2022-03-04T17:38:50Z</time>
      </trkpt>
      <trkpt lat="46.57227" lon="5.61668">
        <ele>501.6</ele>
        <time>2022-03-04T17:38:51Z</time>
      </trkpt>
      <trkpt lat="46.57224" lon="5.61666">
        <ele>501.6</ele>
        <time>2022-03-04T17:38:52Z</time>
      </trkpt>
      <trkpt lat="46.57221" lon="5.61666">
        <ele>501.8</ele>
        <time>2022-03-04T17:38:53Z</time>
      </trkpt>
      <trkpt lat="46.57218" lon="5.61664">
        <ele>501.8</ele>
        <time>2022-03-04T17:38:54Z</time>
      </trkpt>
      <trkpt lat="46.57216" lon="5.61663">
        <ele>501.8</ele>
        <time>2022-03-04T17:38:55Z</time>
      </trkpt>
      <trkpt lat="46.57213" lon="5.61662">
        <ele>501.8</ele>
        <time>2022-03-04T17:38:56Z</time>
      </trkpt>
      <trkpt lat="46.5721" lon="5.61661">
        <ele>501.8</ele>
        <time>2022-03-04T17:38:57Z</time>
      </trkpt>
      <trkpt lat="46.57208" lon="5.6166">
        <ele>501.8</ele>
        <time>2022-03-04T17:38:58Z</time>
      </trkpt>
      <trkpt lat="46.57205" lon="5.61659">
        <ele>501.8</ele>
        <time>2022-03-04T17:38:59Z</time>
      </trkpt>
      <trkpt lat="46.57203" lon="5.61658">
        <ele>501.4</ele>
        <time>2022-03-04T17:39:00Z</time>
      </trkpt>
      <trkpt lat="46.57201" lon="5.61658">
        <ele>501.4</ele>
        <time>2022-03-04T17:39:01Z</time>
      </trkpt>
      <trkpt lat="46.57199" lon="5.61658">
        <ele>501.4</ele>
        <time>2022-03-04T17:39:02Z</time>
      </trkpt>
      <trkpt lat="46.57197" lon="5.61657">
        <ele>501.2</ele>
        <time>2022-03-04T17:39:03Z</time>
      </trkpt>
      <trkpt lat="46.57194" lon="5.61657">
        <ele>501.2</ele>
        <time>2022-03-04T17:39:04Z</time>
      </trkpt>
      <trkpt lat="46.57192" lon="5.61658">
        <ele>501</ele>
        <time>2022-03-04T17:39:05Z</time>
      </trkpt>
      <trkpt lat="46.57188" lon="5.61659">
        <ele>501</ele>
        <time>2022-03-04T17:39:06Z</time>
      </trkpt>
      <trkpt lat="46.57185" lon="5.6166">
        <ele>501</ele>
        <time>2022-03-04T17:39:07Z</time>
      </trkpt>
      <trkpt lat="46.57183" lon="5.61661">
        <ele>501</ele>
        <time>2022-03-04T17:39:08Z</time>
      </trkpt>
      <trkpt lat="46.57179" lon="5.61662">
        <ele>501</ele>
        <time>2022-03-04T17:39:09Z</time>
      </trkpt>
      <trkpt lat="46.57175" lon="5.61663">
        <ele>501</ele>
        <time>2022-03-04T17:39:10Z</time>
      </trkpt>
      <trkpt lat="46.57171" lon="5.61664">
        <ele>500.6</ele>
        <time>2022-03-04T17:39:11Z</time>
      </trkpt>
      <trkpt lat="46.57167" lon="5.61666">
        <ele>500.6</ele>
        <time>2022-03-04T17:39:12Z</time>
      </trkpt>
      <trkpt lat="46.57165" lon="5.61667">
        <ele>500.6</ele>
        <time>2022-03-04T17:39:13Z</time>
      </trkpt>
      <trkpt lat="46.57162" lon="5.61668">
        <ele>500.6</ele>
        <time>2022-03-04T17:39:14Z</time>
      </trkpt>
      <trkpt lat="46.5716" lon="5.61669">
        <ele>500.6</ele>
        <time>2022-03-04T17:39:15Z</time>
      </trkpt>
      <trkpt lat="46.57157" lon="5.61671">
        <ele>500.6</ele>
        <time>2022-03-04T17:39:16Z</time>
      </trkpt>
      <trkpt lat="46.57153" lon="5.61673">
        <ele>500.6</ele>
        <time>2022-03-04T17:39:17Z</time>
      </trkpt>
      <trkpt lat="46.5715" lon="5.61675">
        <ele>500.6</ele>
        <time>2022-03-04T17:39:18Z</time>
      </trkpt>
      <trkpt lat="46.57147" lon="5.61678">
        <ele>500.6</ele>
        <time>2022-03-04T17:39:19Z</time>
      </trkpt>
      <trkpt lat="46.57144" lon="5.6168">
        <ele>500.6</ele>
        <time>2022-03-04T17:39:20Z</time>
      </trkpt>
      <trkpt lat="46.57142" lon="5.61681">
        <ele>500.4</ele>
        <time>2022-03-04T17:39:21Z</time>
      </trkpt>
      <trkpt lat="46.57139" lon="5.61683">
        <ele>500.4</ele>
        <time>2022-03-04T17:39:22Z</time>
      </trkpt>
      <trkpt lat="46.57135" lon="5.61686">
        <ele>500.4</ele>
        <time>2022-03-04T17:39:23Z</time>
      </trkpt>
      <trkpt lat="46.57132" lon="5.61689">
        <ele>500.4</ele>
        <time>2022-03-04T17:39:24Z</time>
      </trkpt>
      <trkpt lat="46.57129" lon="5.61691">
        <ele>500.4</ele>
        <time>2022-03-04T17:39:25Z</time>
      </trkpt>
      <trkpt lat="46.57126" lon="5.61694">
        <ele>500.4</ele>
        <time>2022-03-04T17:39:26Z</time>
      </trkpt>
      <trkpt lat="46.57123" lon="5.61696">
        <ele>500.4</ele>
        <time>2022-03-04T17:39:27Z</time>
      </trkpt>
      <trkpt lat="46.57121" lon="5.61698">
        <ele>500.4</ele>
        <time>2022-03-04T17:39:28Z</time>
      </trkpt>
      <trkpt lat="46.57119" lon="5.61701">
        <ele>500.4</ele>
        <time>2022-03-04T17:39:29Z</time>
      </trkpt>
      <trkpt lat="46.57116" lon="5.61702">
        <ele>500.4</ele>
        <time>2022-03-04T17:39:30Z</time>
      </trkpt>
      <trkpt lat="46.57114" lon="5.61704">
        <ele>500.4</ele>
        <time>2022-03-04T17:39:31Z</time>
      </trkpt>
      <trkpt lat="46.57111" lon="5.61705">
        <ele>500.4</ele>
        <time>2022-03-04T17:39:32Z</time>
      </trkpt>
      <trkpt lat="46.57107" lon="5.61705">
        <ele>500.4</ele>
        <time>2022-03-04T17:39:33Z</time>
      </trkpt>
      <trkpt lat="46.57104" lon="5.61706">
        <ele>500.4</ele>
        <time>2022-03-04T17:39:34Z</time>
      </trkpt>
      <trkpt lat="46.57101" lon="5.61705">
        <ele>500.4</ele>
        <time>2022-03-04T17:39:35Z</time>
      </trkpt>
      <trkpt lat="46.57098" lon="5.61704">
        <ele>500.2</ele>
        <time>2022-03-04T17:39:36Z</time>
      </trkpt>
      <trkpt lat="46.57094" lon="5.61704">
        <ele>500.2</ele>
        <time>2022-03-04T17:39:37Z</time>
      </trkpt>
      <trkpt lat="46.57091" lon="5.61702">
        <ele>500</ele>
        <time>2022-03-04T17:39:38Z</time>
      </trkpt>
      <trkpt lat="46.57088" lon="5.61701">
        <ele>500</ele>
        <time>2022-03-04T17:39:39Z</time>
      </trkpt>
      <trkpt lat="46.57084" lon="5.61699">
        <ele>499.8</ele>
        <time>2022-03-04T17:39:40Z</time>
      </trkpt>
      <trkpt lat="46.57081" lon="5.61698">
        <ele>499.8</ele>
        <time>2022-03-04T17:39:41Z</time>
      </trkpt>
      <trkpt lat="46.57077" lon="5.61697">
        <ele>499.8</ele>
        <time>2022-03-04T17:39:42Z</time>
      </trkpt>
      <trkpt lat="46.57074" lon="5.61696">
        <ele>499.8</ele>
        <time>2022-03-04T17:39:43Z</time>
      </trkpt>
      <trkpt lat="46.5707" lon="5.61695">
        <ele>499.8</ele>
        <time>2022-03-04T17:39:44Z</time>
      </trkpt>
      <trkpt lat="46.57067" lon="5.61694">
        <ele>499.4</ele>
        <time>2022-03-04T17:39:45Z</time>
      </trkpt>
      <trkpt lat="46.57064" lon="5.61692">
        <ele>499.4</ele>
        <time>2022-03-04T17:39:46Z</time>
      </trkpt>
      <trkpt lat="46.5706" lon="5.61691">
        <ele>499.4</ele>
        <time>2022-03-04T17:39:47Z</time>
      </trkpt>
      <trkpt lat="46.57057" lon="5.6169">
        <ele>499.4</ele>
        <time>2022-03-04T17:39:48Z</time>
      </trkpt>
      <trkpt lat="46.57053" lon="5.61688">
        <ele>499.4</ele>
        <time>2022-03-04T17:39:49Z</time>
      </trkpt>
      <trkpt lat="46.5705" lon="5.61686">
        <ele>499.2</ele>
        <time>2022-03-04T17:39:50Z</time>
      </trkpt>
      <trkpt lat="46.57048" lon="5.61685">
        <ele>499.2</ele>
        <time>2022-03-04T17:39:51Z</time>
      </trkpt>
      <trkpt lat="46.57045" lon="5.61683">
        <ele>499</ele>
        <time>2022-03-04T17:39:52Z</time>
      </trkpt>
      <trkpt lat="46.57042" lon="5.61683">
        <ele>499</ele>
        <time>2022-03-04T17:39:53Z</time>
      </trkpt>
      <trkpt lat="46.57039" lon="5.61681">
        <ele>499</ele>
        <time>2022-03-04T17:39:54Z</time>
      </trkpt>
      <trkpt lat="46.57037" lon="5.6168">
        <ele>499</ele>
        <time>2022-03-04T17:39:55Z</time>
      </trkpt>
      <trkpt lat="46.57034" lon="5.61679">
        <ele>499</ele>
        <time>2022-03-04T17:39:56Z</time>
      </trkpt>
      <trkpt lat="46.57031" lon="5.61678">
        <ele>499.2</ele>
        <time>2022-03-04T17:39:57Z</time>
      </trkpt>
      <trkpt lat="46.57029" lon="5.61676">
        <ele>499.2</ele>
        <time>2022-03-04T17:39:58Z</time>
      </trkpt>
      <trkpt lat="46.57027" lon="5.61675">
        <ele>499.2</ele>
        <time>2022-03-04T17:39:59Z</time>
      </trkpt>
      <trkpt lat="46.57024" lon="5.61673">
        <ele>499.2</ele>
        <time>2022-03-04T17:40:00Z</time>
      </trkpt>
      <trkpt lat="46.57022" lon="5.61671">
        <ele>499.2</ele>
        <time>2022-03-04T17:40:01Z</time>
      </trkpt>
      <trkpt lat="46.5702" lon="5.61669">
        <ele>499.2</ele>
        <time>2022-03-04T17:40:02Z</time>
      </trkpt>
      <trkpt lat="46.57016" lon="5.61666">
        <ele>499.2</ele>
        <time>2022-03-04T17:40:03Z</time>
      </trkpt>
      <trkpt lat="46.57012" lon="5.61663">
        <ele>499.2</ele>
        <time>2022-03-04T17:40:04Z</time>
      </trkpt>
      <trkpt lat="46.57009" lon="5.61659">
        <ele>499.2</ele>
        <time>2022-03-04T17:40:05Z</time>
      </trkpt>
      <trkpt lat="46.57005" lon="5.61656">
        <ele>499.2</ele>
        <time>2022-03-04T17:40:06Z</time>
      </trkpt>
      <trkpt lat="46.57001" lon="5.61652">
        <ele>498.8</ele>
        <time>2022-03-04T17:40:07Z</time>
      </trkpt>
      <trkpt lat="46.56998" lon="5.61648">
        <ele>498.6</ele>
        <time>2022-03-04T17:40:08Z</time>
      </trkpt>
      <trkpt lat="46.56993" lon="5.61644">
        <ele>498.6</ele>
        <time>2022-03-04T17:40:09Z</time>
      </trkpt>
      <trkpt lat="46.56989" lon="5.61641">
        <ele>498.2</ele>
        <time>2022-03-04T17:40:10Z</time>
      </trkpt>
      <trkpt lat="46.56986" lon="5.61638">
        <ele>498.2</ele>
        <time>2022-03-04T17:40:11Z</time>
      </trkpt>
      <trkpt lat="46.56983" lon="5.61635">
        <ele>498</ele>
        <time>2022-03-04T17:40:12Z</time>
      </trkpt>
      <trkpt lat="46.5698" lon="5.61633">
        <ele>498</ele>
        <time>2022-03-04T17:40:13Z</time>
      </trkpt>
      <trkpt lat="46.56976" lon="5.61631">
        <ele>497.6</ele>
        <time>2022-03-04T17:40:14Z</time>
      </trkpt>
      <trkpt lat="46.56973" lon="5.6163">
        <ele>497.6</ele>
        <time>2022-03-04T17:40:15Z</time>
      </trkpt>
      <trkpt lat="46.56969" lon="5.6163">
        <ele>497.6</ele>
        <time>2022-03-04T17:40:16Z</time>
      </trkpt>
      <trkpt lat="46.56965" lon="5.61629">
        <ele>497.4</ele>
        <time>2022-03-04T17:40:17Z</time>
      </trkpt>
      <trkpt lat="46.56959" lon="5.61628">
        <ele>497.4</ele>
        <time>2022-03-04T17:40:18Z</time>
      </trkpt>
      <trkpt lat="46.56955" lon="5.61627">
        <ele>497.2</ele>
        <time>2022-03-04T17:40:19Z</time>
      </trkpt>
      <trkpt lat="46.56949" lon="5.61625">
        <ele>497.2</ele>
        <time>2022-03-04T17:40:20Z</time>
      </trkpt>
      <trkpt lat="46.56944" lon="5.61624">
        <ele>497</ele>
        <time>2022-03-04T17:40:21Z</time>
      </trkpt>
      <trkpt lat="46.5694" lon="5.61625">
        <ele>497</ele>
        <time>2022-03-04T17:40:22Z</time>
      </trkpt>
      <trkpt lat="46.56934" lon="5.61625">
        <ele>497</ele>
        <time>2022-03-04T17:40:23Z</time>
      </trkpt>
      <trkpt lat="46.5693" lon="5.61625">
        <ele>496.8</ele>
        <time>2022-03-04T17:40:24Z</time>
      </trkpt>
      <trkpt lat="46.56924" lon="5.61624">
        <ele>496.8</ele>
        <time>2022-03-04T17:40:25Z</time>
      </trkpt>
      <trkpt lat="46.56919" lon="5.61623">
        <ele>496.8</ele>
        <time>2022-03-04T17:40:26Z</time>
      </trkpt>
      <trkpt lat="46.56914" lon="5.61621">
        <ele>496.8</ele>
        <time>2022-03-04T17:40:27Z</time>
      </trkpt>
      <trkpt lat="46.5691" lon="5.6162">
        <ele>496.8</ele>
        <time>2022-03-04T17:40:28Z</time>
      </trkpt>
      <trkpt lat="46.56906" lon="5.61618">
        <ele>496.8</ele>
        <time>2022-03-04T17:40:29Z</time>
      </trkpt>
      <trkpt lat="46.56901" lon="5.61616">
        <ele>496.8</ele>
        <time>2022-03-04T17:40:30Z</time>
      </trkpt>
      <trkpt lat="46.56897" lon="5.61615">
        <ele>497</ele>
        <time>2022-03-04T17:40:31Z</time>
      </trkpt>
      <trkpt lat="46.56893" lon="5.61612">
        <ele>497</ele>
        <time>2022-03-04T17:40:32Z</time>
      </trkpt>
      <trkpt lat="46.56888" lon="5.6161">
        <ele>497</ele>
        <time>2022-03-04T17:40:33Z</time>
      </trkpt>
      <trkpt lat="46.56883" lon="5.61607">
        <ele>497.2</ele>
        <time>2022-03-04T17:40:34Z</time>
      </trkpt>
      <trkpt lat="46.56879" lon="5.61605">
        <ele>497.2</ele>
        <time>2022-03-04T17:40:35Z</time>
      </trkpt>
      <trkpt lat="46.56874" lon="5.61604">
        <ele>497.2</ele>
        <time>2022-03-04T17:40:36Z</time>
      </trkpt>
      <trkpt lat="46.56869" lon="5.61602">
        <ele>497.4</ele>
        <time>2022-03-04T17:40:37Z</time>
      </trkpt>
      <trkpt lat="46.56865" lon="5.61601">
        <ele>497.4</ele>
        <time>2022-03-04T17:40:38Z</time>
      </trkpt>
      <trkpt lat="46.56861" lon="5.61599">
        <ele>497.4</ele>
        <time>2022-03-04T17:40:39Z</time>
      </trkpt>
      <trkpt lat="46.56857" lon="5.61598">
        <ele>497.6</ele>
        <time>2022-03-04T17:40:40Z</time>
      </trkpt>
      <trkpt lat="46.56852" lon="5.61597">
        <ele>497.6</ele>
        <time>2022-03-04T17:40:41Z</time>
      </trkpt>
      <trkpt lat="46.56848" lon="5.61596">
        <ele>497.6</ele>
        <time>2022-03-04T17:40:42Z</time>
      </trkpt>
      <trkpt lat="46.56844" lon="5.61595">
        <ele>497.6</ele>
        <time>2022-03-04T17:40:43Z</time>
      </trkpt>
      <trkpt lat="46.5684" lon="5.61595">
        <ele>497.6</ele>
        <time>2022-03-04T17:40:44Z</time>
      </trkpt>
      <trkpt lat="46.56835" lon="5.61594">
        <ele>497.8</ele>
        <time>2022-03-04T17:40:45Z</time>
      </trkpt>
      <trkpt lat="46.56831" lon="5.61595">
        <ele>497.8</ele>
        <time>2022-03-04T17:40:46Z</time>
      </trkpt>
      <trkpt lat="46.56827" lon="5.61595">
        <ele>497.8</ele>
        <time>2022-03-04T17:40:47Z</time>
      </trkpt>
      <trkpt lat="46.56822" lon="5.61595">
        <ele>497.8</ele>
        <time>2022-03-04T17:40:48Z</time>
      </trkpt>
      <trkpt lat="46.56817" lon="5.61596">
        <ele>497.8</ele>
        <time>2022-03-04T17:40:49Z</time>
      </trkpt>
      <trkpt lat="46.56812" lon="5.61596">
        <ele>497.6</ele>
        <time>2022-03-04T17:40:50Z</time>
      </trkpt>
      <trkpt lat="46.56806" lon="5.61597">
        <ele>497.6</ele>
        <time>2022-03-04T17:40:51Z</time>
      </trkpt>
      <trkpt lat="46.56801" lon="5.61598">
        <ele>497.6</ele>
        <time>2022-03-04T17:40:52Z</time>
      </trkpt>
      <trkpt lat="46.56796" lon="5.61598">
        <ele>497.4</ele>
        <time>2022-03-04T17:40:53Z</time>
      </trkpt>
      <trkpt lat="46.5679" lon="5.61598">
        <ele>497.4</ele>
        <time>2022-03-04T17:40:54Z</time>
      </trkpt>
      <trkpt lat="46.56785" lon="5.61599">
        <ele>497.2</ele>
        <time>2022-03-04T17:40:55Z</time>
      </trkpt>
      <trkpt lat="46.56779" lon="5.61599">
        <ele>497.2</ele>
        <time>2022-03-04T17:40:56Z</time>
      </trkpt>
      <trkpt lat="46.56774" lon="5.61599">
        <ele>497.2</ele>
        <time>2022-03-04T17:40:57Z</time>
      </trkpt>
      <trkpt lat="46.56768" lon="5.61598">
        <ele>496.8</ele>
        <time>2022-03-04T17:40:58Z</time>
      </trkpt>
      <trkpt lat="46.56763" lon="5.61597">
        <ele>496.8</ele>
        <time>2022-03-04T17:40:59Z</time>
      </trkpt>
      <trkpt lat="46.56758" lon="5.61596">
        <ele>496.8</ele>
        <time>2022-03-04T17:41:00Z</time>
      </trkpt>
      <trkpt lat="46.56753" lon="5.61594">
        <ele>496.8</ele>
        <time>2022-03-04T17:41:01Z</time>
      </trkpt>
      <trkpt lat="46.56748" lon="5.61593">
        <ele>496.8</ele>
        <time>2022-03-04T17:41:02Z</time>
      </trkpt>
      <trkpt lat="46.56744" lon="5.6159">
        <ele>496.6</ele>
        <time>2022-03-04T17:41:03Z</time>
      </trkpt>
      <trkpt lat="46.5674" lon="5.61588">
        <ele>496.6</ele>
        <time>2022-03-04T17:41:04Z</time>
      </trkpt>
      <trkpt lat="46.56736" lon="5.61585">
        <ele>496.6</ele>
        <time>2022-03-04T17:41:05Z</time>
      </trkpt>
      <trkpt lat="46.56731" lon="5.61583">
        <ele>496.6</ele>
        <time>2022-03-04T17:41:06Z</time>
      </trkpt>
      <trkpt lat="46.56727" lon="5.6158">
        <ele>496.6</ele>
        <time>2022-03-04T17:41:07Z</time>
      </trkpt>
      <trkpt lat="46.56723" lon="5.61577">
        <ele>496.6</ele>
        <time>2022-03-04T17:41:08Z</time>
      </trkpt>
      <trkpt lat="46.56715" lon="5.61572">
        <ele>496.6</ele>
        <time>2022-03-04T17:41:09Z</time>
      </trkpt>
      <trkpt lat="46.56711" lon="5.61569">
        <ele>496.6</ele>
        <time>2022-03-04T17:41:10Z</time>
      </trkpt>
      <trkpt lat="46.56707" lon="5.61566">
        <ele>496.6</ele>
        <time>2022-03-04T17:41:11Z</time>
      </trkpt>
      <trkpt lat="46.56704" lon="5.61564">
        <ele>496.6</ele>
        <time>2022-03-04T17:41:12Z</time>
      </trkpt>
      <trkpt lat="46.567" lon="5.61562">
        <ele>496.6</ele>
        <time>2022-03-04T17:41:13Z</time>
      </trkpt>
      <trkpt lat="46.56696" lon="5.6156">
        <ele>497</ele>
        <time>2022-03-04T17:41:14Z</time>
      </trkpt>
      <trkpt lat="46.56693" lon="5.61558">
        <ele>497</ele>
        <time>2022-03-04T17:41:15Z</time>
      </trkpt>
      <trkpt lat="46.56689" lon="5.61555">
        <ele>497</ele>
        <time>2022-03-04T17:41:16Z</time>
      </trkpt>
      <trkpt lat="46.56686" lon="5.61553">
        <ele>497.2</ele>
        <time>2022-03-04T17:41:17Z</time>
      </trkpt>
      <trkpt lat="46.56682" lon="5.61551">
        <ele>497.2</ele>
        <time>2022-03-04T17:41:18Z</time>
      </trkpt>
      <trkpt lat="46.56678" lon="5.61549">
        <ele>497.2</ele>
        <time>2022-03-04T17:41:19Z</time>
      </trkpt>
      <trkpt lat="46.56675" lon="5.61547">
        <ele>497.4</ele>
        <time>2022-03-04T17:41:20Z</time>
      </trkpt>
      <trkpt lat="46.56671" lon="5.61546">
        <ele>497.4</ele>
        <time>2022-03-04T17:41:21Z</time>
      </trkpt>
      <trkpt lat="46.56668" lon="5.61544">
        <ele>497.6</ele>
        <time>2022-03-04T17:41:22Z</time>
      </trkpt>
      <trkpt lat="46.56664" lon="5.61542">
        <ele>497.6</ele>
        <time>2022-03-04T17:41:23Z</time>
      </trkpt>
      <trkpt lat="46.56661" lon="5.6154">
        <ele>497.8</ele>
        <time>2022-03-04T17:41:24Z</time>
      </trkpt>
      <trkpt lat="46.56658" lon="5.61538">
        <ele>497.8</ele>
        <time>2022-03-04T17:41:25Z</time>
      </trkpt>
      <trkpt lat="46.56654" lon="5.61537">
        <ele>498.4</ele>
        <time>2022-03-04T17:41:26Z</time>
      </trkpt>
      <trkpt lat="46.56651" lon="5.61535">
        <ele>498.6</ele>
        <time>2022-03-04T17:41:27Z</time>
      </trkpt>
      <trkpt lat="46.56648" lon="5.61534">
        <ele>498.8</ele>
        <time>2022-03-04T17:41:28Z</time>
      </trkpt>
      <trkpt lat="46.56645" lon="5.61533">
        <ele>499</ele>
        <time>2022-03-04T17:41:29Z</time>
      </trkpt>
      <trkpt lat="46.56642" lon="5.61531">
        <ele>499.6</ele>
        <time>2022-03-04T17:41:30Z</time>
      </trkpt>
      <trkpt lat="46.56639" lon="5.6153">
        <ele>499.8</ele>
        <time>2022-03-04T17:41:31Z</time>
      </trkpt>
      <trkpt lat="46.56637" lon="5.61528">
        <ele>500</ele>
        <time>2022-03-04T17:41:32Z</time>
      </trkpt>
      <trkpt lat="46.56634" lon="5.61527">
        <ele>500.2</ele>
        <time>2022-03-04T17:41:33Z</time>
      </trkpt>
      <trkpt lat="46.56631" lon="5.61526">
        <ele>500.4</ele>
        <time>2022-03-04T17:41:34Z</time>
      </trkpt>
      <trkpt lat="46.56628" lon="5.61525">
        <ele>500.4</ele>
        <time>2022-03-04T17:41:35Z</time>
      </trkpt>
      <trkpt lat="46.56625" lon="5.61523">
        <ele>500.8</ele>
        <time>2022-03-04T17:41:36Z</time>
      </trkpt>
      <trkpt lat="46.56622" lon="5.61521">
        <ele>501</ele>
        <time>2022-03-04T17:41:37Z</time>
      </trkpt>
      <trkpt lat="46.56619" lon="5.61519">
        <ele>501</ele>
        <time>2022-03-04T17:41:38Z</time>
      </trkpt>
      <trkpt lat="46.56615" lon="5.61517">
        <ele>501.2</ele>
        <time>2022-03-04T17:41:39Z</time>
      </trkpt>
      <trkpt lat="46.56612" lon="5.61514">
        <ele>501.2</ele>
        <time>2022-03-04T17:41:40Z</time>
      </trkpt>
      <trkpt lat="46.56608" lon="5.61512">
        <ele>501.2</ele>
        <time>2022-03-04T17:41:41Z</time>
      </trkpt>
      <trkpt lat="46.56605" lon="5.61509">
        <ele>501.2</ele>
        <time>2022-03-04T17:41:42Z</time>
      </trkpt>
      <trkpt lat="46.56601" lon="5.61506">
        <ele>501.2</ele>
        <time>2022-03-04T17:41:43Z</time>
      </trkpt>
      <trkpt lat="46.56598" lon="5.61503">
        <ele>501.2</ele>
        <time>2022-03-04T17:41:44Z</time>
      </trkpt>
      <trkpt lat="46.56594" lon="5.61499">
        <ele>501.2</ele>
        <time>2022-03-04T17:41:45Z</time>
      </trkpt>
      <trkpt lat="46.56591" lon="5.61495">
        <ele>501.2</ele>
        <time>2022-03-04T17:41:46Z</time>
      </trkpt>
      <trkpt lat="46.56588" lon="5.6149">
        <ele>501.2</ele>
        <time>2022-03-04T17:41:47Z</time>
      </trkpt>
      <trkpt lat="46.56585" lon="5.61486">
        <ele>501.2</ele>
        <time>2022-03-04T17:41:48Z</time>
      </trkpt>
      <trkpt lat="46.56582" lon="5.61481">
        <ele>501.2</ele>
        <time>2022-03-04T17:41:49Z</time>
      </trkpt>
      <trkpt lat="46.56579" lon="5.61477">
        <ele>501.2</ele>
        <time>2022-03-04T17:41:50Z</time>
      </trkpt>
      <trkpt lat="46.56576" lon="5.61472">
        <ele>501.2</ele>
        <time>2022-03-04T17:41:51Z</time>
      </trkpt>
      <trkpt lat="46.56574" lon="5.61467">
        <ele>501.2</ele>
        <time>2022-03-04T17:41:52Z</time>
      </trkpt>
      <trkpt lat="46.56571" lon="5.61462">
        <ele>501.2</ele>
        <time>2022-03-04T17:41:53Z</time>
      </trkpt>
      <trkpt lat="46.56569" lon="5.61457">
        <ele>501.2</ele>
        <time>2022-03-04T17:41:54Z</time>
      </trkpt>
      <trkpt lat="46.56566" lon="5.61452">
        <ele>501.2</ele>
        <time>2022-03-04T17:41:55Z</time>
      </trkpt>
      <trkpt lat="46.56564" lon="5.61447">
        <ele>501.2</ele>
        <time>2022-03-04T17:41:56Z</time>
      </trkpt>
      <trkpt lat="46.56562" lon="5.61443">
        <ele>501.2</ele>
        <time>2022-03-04T17:41:57Z</time>
      </trkpt>
      <trkpt lat="46.5656" lon="5.61438">
        <ele>501.6</ele>
        <time>2022-03-04T17:41:58Z</time>
      </trkpt>
      <trkpt lat="46.56559" lon="5.61434">
        <ele>501.6</ele>
        <time>2022-03-04T17:41:59Z</time>
      </trkpt>
      <trkpt lat="46.56558" lon="5.61429">
        <ele>501.6</ele>
        <time>2022-03-04T17:42:00Z</time>
      </trkpt>
      <trkpt lat="46.56557" lon="5.61425">
        <ele>502</ele>
        <time>2022-03-04T17:42:01Z</time>
      </trkpt>
      <trkpt lat="46.56555" lon="5.6142">
        <ele>502.2</ele>
        <time>2022-03-04T17:42:02Z</time>
      </trkpt>
      <trkpt lat="46.56554" lon="5.61416">
        <ele>502.4</ele>
        <time>2022-03-04T17:42:03Z</time>
      </trkpt>
      <trkpt lat="46.56553" lon="5.61411">
        <ele>502.4</ele>
        <time>2022-03-04T17:42:04Z</time>
      </trkpt>
      <trkpt lat="46.56552" lon="5.61407">
        <ele>502.6</ele>
        <time>2022-03-04T17:42:05Z</time>
      </trkpt>
      <trkpt lat="46.5655" lon="5.61402">
        <ele>502.6</ele>
        <time>2022-03-04T17:42:06Z</time>
      </trkpt>
      <trkpt lat="46.56549" lon="5.61398">
        <ele>502.6</ele>
        <time>2022-03-04T17:42:07Z</time>
      </trkpt>
      <trkpt lat="46.56548" lon="5.61394">
        <ele>503</ele>
        <time>2022-03-04T17:42:08Z</time>
      </trkpt>
      <trkpt lat="46.56546" lon="5.6139">
        <ele>503</ele>
        <time>2022-03-04T17:42:09Z</time>
      </trkpt>
      <trkpt lat="46.56545" lon="5.61386">
        <ele>503.2</ele>
        <time>2022-03-04T17:42:10Z</time>
      </trkpt>
      <trkpt lat="46.56543" lon="5.61382">
        <ele>503.2</ele>
        <time>2022-03-04T17:42:11Z</time>
      </trkpt>
      <trkpt lat="46.56541" lon="5.61378">
        <ele>503.2</ele>
        <time>2022-03-04T17:42:12Z</time>
      </trkpt>
      <trkpt lat="46.56538" lon="5.61374">
        <ele>503.2</ele>
        <time>2022-03-04T17:42:13Z</time>
      </trkpt>
      <trkpt lat="46.56536" lon="5.6137">
        <ele>503.4</ele>
        <time>2022-03-04T17:42:14Z</time>
      </trkpt>
      <trkpt lat="46.56534" lon="5.61366">
        <ele>503.4</ele>
        <time>2022-03-04T17:42:15Z</time>
      </trkpt>
      <trkpt lat="46.56532" lon="5.61362">
        <ele>503.4</ele>
        <time>2022-03-04T17:42:16Z</time>
      </trkpt>
      <trkpt lat="46.5653" lon="5.61358">
        <ele>503.6</ele>
        <time>2022-03-04T17:42:17Z</time>
      </trkpt>
      <trkpt lat="46.56527" lon="5.61353">
        <ele>503.6</ele>
        <time>2022-03-04T17:42:18Z</time>
      </trkpt>
      <trkpt lat="46.56525" lon="5.61349">
        <ele>503.6</ele>
        <time>2022-03-04T17:42:19Z</time>
      </trkpt>
      <trkpt lat="46.56522" lon="5.61344">
        <ele>503.6</ele>
        <time>2022-03-04T17:42:20Z</time>
      </trkpt>
      <trkpt lat="46.5652" lon="5.6134">
        <ele>503.6</ele>
        <time>2022-03-04T17:42:21Z</time>
      </trkpt>
      <trkpt lat="46.56517" lon="5.61335">
        <ele>503.6</ele>
        <time>2022-03-04T17:42:22Z</time>
      </trkpt>
      <trkpt lat="46.56515" lon="5.6133">
        <ele>503.6</ele>
        <time>2022-03-04T17:42:23Z</time>
      </trkpt>
      <trkpt lat="46.56512" lon="5.61326">
        <ele>503.6</ele>
        <time>2022-03-04T17:42:24Z</time>
      </trkpt>
      <trkpt lat="46.5651" lon="5.61321">
        <ele>503.6</ele>
        <time>2022-03-04T17:42:25Z</time>
      </trkpt>
      <trkpt lat="46.56507" lon="5.61316">
        <ele>503.4</ele>
        <time>2022-03-04T17:42:26Z</time>
      </trkpt>
      <trkpt lat="46.56505" lon="5.61312">
        <ele>503.4</ele>
        <time>2022-03-04T17:42:27Z</time>
      </trkpt>
      <trkpt lat="46.56503" lon="5.61308">
        <ele>503.4</ele>
        <time>2022-03-04T17:42:28Z</time>
      </trkpt>
      <trkpt lat="46.565" lon="5.61304">
        <ele>503.4</ele>
        <time>2022-03-04T17:42:29Z</time>
      </trkpt>
      <trkpt lat="46.56498" lon="5.61299">
        <ele>503.4</ele>
        <time>2022-03-04T17:42:30Z</time>
      </trkpt>
      <trkpt lat="46.56495" lon="5.61295">
        <ele>503.4</ele>
        <time>2022-03-04T17:42:31Z</time>
      </trkpt>
      <trkpt lat="46.56493" lon="5.61291">
        <ele>503.4</ele>
        <time>2022-03-04T17:42:32Z</time>
      </trkpt>
      <trkpt lat="46.56491" lon="5.61287">
        <ele>503.4</ele>
        <time>2022-03-04T17:42:33Z</time>
      </trkpt>
      <trkpt lat="46.56488" lon="5.61283">
        <ele>503.4</ele>
        <time>2022-03-04T17:42:34Z</time>
      </trkpt>
      <trkpt lat="46.56486" lon="5.61279">
        <ele>503.6</ele>
        <time>2022-03-04T17:42:35Z</time>
      </trkpt>
      <trkpt lat="46.56484" lon="5.61275">
        <ele>503.6</ele>
        <time>2022-03-04T17:42:36Z</time>
      </trkpt>
      <trkpt lat="46.56481" lon="5.61272">
        <ele>503.6</ele>
        <time>2022-03-04T17:42:37Z</time>
      </trkpt>
      <trkpt lat="46.56479" lon="5.61268">
        <ele>503.6</ele>
        <time>2022-03-04T17:42:38Z</time>
      </trkpt>
      <trkpt lat="46.56476" lon="5.61265">
        <ele>503.8</ele>
        <time>2022-03-04T17:42:39Z</time>
      </trkpt>
      <trkpt lat="46.56473" lon="5.61263">
        <ele>503.8</ele>
        <time>2022-03-04T17:42:40Z</time>
      </trkpt>
      <trkpt lat="46.56471" lon="5.6126">
        <ele>504.2</ele>
        <time>2022-03-04T17:42:41Z</time>
      </trkpt>
      <trkpt lat="46.56468" lon="5.61258">
        <ele>504.2</ele>
        <time>2022-03-04T17:42:42Z</time>
      </trkpt>
      <trkpt lat="46.56465" lon="5.61256">
        <ele>504.4</ele>
        <time>2022-03-04T17:42:43Z</time>
      </trkpt>
      <trkpt lat="46.56462" lon="5.61254">
        <ele>504.4</ele>
        <time>2022-03-04T17:42:44Z</time>
      </trkpt>
      <trkpt lat="46.56459" lon="5.61252">
        <ele>504.4</ele>
        <time>2022-03-04T17:42:45Z</time>
      </trkpt>
      <trkpt lat="46.56456" lon="5.61251">
        <ele>504.8</ele>
        <time>2022-03-04T17:42:46Z</time>
      </trkpt>
      <trkpt lat="46.56453" lon="5.61249">
        <ele>504.8</ele>
        <time>2022-03-04T17:42:47Z</time>
      </trkpt>
      <trkpt lat="46.56453" lon="5.61249">
        <ele>505</ele>
        <time>2022-03-04T17:42:48Z</time>
      </trkpt>
      <trkpt lat="46.5645" lon="5.61248">
        <ele>505</ele>
        <time>2022-03-04T17:42:49Z</time>
      </trkpt>
      <trkpt lat="46.56446" lon="5.61247">
        <ele>505.4</ele>
        <time>2022-03-04T17:42:50Z</time>
      </trkpt>
      <trkpt lat="46.56443" lon="5.61246">
        <ele>505.4</ele>
        <time>2022-03-04T17:42:51Z</time>
      </trkpt>
      <trkpt lat="46.5644" lon="5.61244">
        <ele>505.6</ele>
        <time>2022-03-04T17:42:52Z</time>
      </trkpt>
      <trkpt lat="46.56436" lon="5.61243">
        <ele>505.6</ele>
        <time>2022-03-04T17:42:53Z</time>
      </trkpt>
      <trkpt lat="46.56433" lon="5.61243">
        <ele>505.8</ele>
        <time>2022-03-04T17:42:54Z</time>
      </trkpt>
      <trkpt lat="46.56429" lon="5.61242">
        <ele>505.8</ele>
        <time>2022-03-04T17:42:55Z</time>
      </trkpt>
      <trkpt lat="46.56425" lon="5.61241">
        <ele>505.8</ele>
        <time>2022-03-04T17:42:56Z</time>
      </trkpt>
      <trkpt lat="46.56421" lon="5.6124">
        <ele>505.8</ele>
        <time>2022-03-04T17:42:57Z</time>
      </trkpt>
      <trkpt lat="46.56417" lon="5.61239">
        <ele>505.8</ele>
        <time>2022-03-04T17:42:58Z</time>
      </trkpt>
      <trkpt lat="46.56413" lon="5.61238">
        <ele>505.8</ele>
        <time>2022-03-04T17:42:59Z</time>
      </trkpt>
      <trkpt lat="46.56409" lon="5.61237">
        <ele>505.8</ele>
        <time>2022-03-04T17:43:00Z</time>
      </trkpt>
      <trkpt lat="46.56404" lon="5.61236">
        <ele>505.8</ele>
        <time>2022-03-04T17:43:01Z</time>
      </trkpt>
      <trkpt lat="46.564" lon="5.61235">
        <ele>505.6</ele>
        <time>2022-03-04T17:43:02Z</time>
      </trkpt>
      <trkpt lat="46.56395" lon="5.61234">
        <ele>505.6</ele>
        <time>2022-03-04T17:43:03Z</time>
      </trkpt>
      <trkpt lat="46.5639" lon="5.61233">
        <ele>505.6</ele>
        <time>2022-03-04T17:43:04Z</time>
      </trkpt>
      <trkpt lat="46.56385" lon="5.61231">
        <ele>505.4</ele>
        <time>2022-03-04T17:43:05Z</time>
      </trkpt>
      <trkpt lat="46.5638" lon="5.61229">
        <ele>505.4</ele>
        <time>2022-03-04T17:43:06Z</time>
      </trkpt>
      <trkpt lat="46.56376" lon="5.61227">
        <ele>505.2</ele>
        <time>2022-03-04T17:43:07Z</time>
      </trkpt>
      <trkpt lat="46.56371" lon="5.61224">
        <ele>505.2</ele>
        <time>2022-03-04T17:43:08Z</time>
      </trkpt>
      <trkpt lat="46.56366" lon="5.61222">
        <ele>505.2</ele>
        <time>2022-03-04T17:43:09Z</time>
      </trkpt>
      <trkpt lat="46.56361" lon="5.61221">
        <ele>505.2</ele>
        <time>2022-03-04T17:43:10Z</time>
      </trkpt>
      <trkpt lat="46.56356" lon="5.61219">
        <ele>505.2</ele>
        <time>2022-03-04T17:43:11Z</time>
      </trkpt>
      <trkpt lat="46.56352" lon="5.61217">
        <ele>505.2</ele>
        <time>2022-03-04T17:43:12Z</time>
      </trkpt>
      <trkpt lat="46.56347" lon="5.61216">
        <ele>505.2</ele>
        <time>2022-03-04T17:43:13Z</time>
      </trkpt>
      <trkpt lat="46.56343" lon="5.61214">
        <ele>505.2</ele>
        <time>2022-03-04T17:43:14Z</time>
      </trkpt>
      <trkpt lat="46.56338" lon="5.61212">
        <ele>505.2</ele>
        <time>2022-03-04T17:43:15Z</time>
      </trkpt>
      <trkpt lat="46.56334" lon="5.61211">
        <ele>505.2</ele>
        <time>2022-03-04T17:43:16Z</time>
      </trkpt>
      <trkpt lat="46.5633" lon="5.61209">
        <ele>505.2</ele>
        <time>2022-03-04T17:43:17Z</time>
      </trkpt>
      <trkpt lat="46.56325" lon="5.61207">
        <ele>505.2</ele>
        <time>2022-03-04T17:43:18Z</time>
      </trkpt>
      <trkpt lat="46.56321" lon="5.61206">
        <ele>505.2</ele>
        <time>2022-03-04T17:43:19Z</time>
      </trkpt>
      <trkpt lat="46.56318" lon="5.61204">
        <ele>505.4</ele>
        <time>2022-03-04T17:43:20Z</time>
      </trkpt>
      <trkpt lat="46.56314" lon="5.61202">
        <ele>505.4</ele>
        <time>2022-03-04T17:43:21Z</time>
      </trkpt>
      <trkpt lat="46.5631" lon="5.61201">
        <ele>505.6</ele>
        <time>2022-03-04T17:43:22Z</time>
      </trkpt>
      <trkpt lat="46.56307" lon="5.61199">
        <ele>505.6</ele>
        <time>2022-03-04T17:43:23Z</time>
      </trkpt>
      <trkpt lat="46.56303" lon="5.61198">
        <ele>505.6</ele>
        <time>2022-03-04T17:43:24Z</time>
      </trkpt>
      <trkpt lat="46.563" lon="5.61196">
        <ele>505.8</ele>
        <time>2022-03-04T17:43:25Z</time>
      </trkpt>
      <trkpt lat="46.56297" lon="5.61194">
        <ele>505.8</ele>
        <time>2022-03-04T17:43:26Z</time>
      </trkpt>
      <trkpt lat="46.56293" lon="5.61193">
        <ele>505.8</ele>
        <time>2022-03-04T17:43:27Z</time>
      </trkpt>
      <trkpt lat="46.56289" lon="5.61191">
        <ele>506.2</ele>
        <time>2022-03-04T17:43:28Z</time>
      </trkpt>
      <trkpt lat="46.56286" lon="5.6119">
        <ele>506.2</ele>
        <time>2022-03-04T17:43:29Z</time>
      </trkpt>
      <trkpt lat="46.56282" lon="5.61188">
        <ele>506.2</ele>
        <time>2022-03-04T17:43:30Z</time>
      </trkpt>
      <trkpt lat="46.56278" lon="5.61186">
        <ele>506.2</ele>
        <time>2022-03-04T17:43:31Z</time>
      </trkpt>
      <trkpt lat="46.56275" lon="5.61184">
        <ele>506.2</ele>
        <time>2022-03-04T17:43:32Z</time>
      </trkpt>
      <trkpt lat="46.56271" lon="5.61182">
        <ele>506.2</ele>
        <time>2022-03-04T17:43:33Z</time>
      </trkpt>
      <trkpt lat="46.56268" lon="5.6118">
        <ele>506.2</ele>
        <time>2022-03-04T17:43:34Z</time>
      </trkpt>
      <trkpt lat="46.56264" lon="5.61178">
        <ele>506.2</ele>
        <time>2022-03-04T17:43:35Z</time>
      </trkpt>
      <trkpt lat="46.5626" lon="5.61176">
        <ele>506.2</ele>
        <time>2022-03-04T17:43:36Z</time>
      </trkpt>
      <trkpt lat="46.56257" lon="5.61174">
        <ele>506.2</ele>
        <time>2022-03-04T17:43:37Z</time>
      </trkpt>
      <trkpt lat="46.56253" lon="5.61172">
        <ele>506.4</ele>
        <time>2022-03-04T17:43:38Z</time>
      </trkpt>
      <trkpt lat="46.56249" lon="5.6117">
        <ele>506.4</ele>
        <time>2022-03-04T17:43:39Z</time>
      </trkpt>
      <trkpt lat="46.56245" lon="5.61168">
        <ele>506.4</ele>
        <time>2022-03-04T17:43:40Z</time>
      </trkpt>
      <trkpt lat="46.56242" lon="5.61166">
        <ele>506.4</ele>
        <time>2022-03-04T17:43:41Z</time>
      </trkpt>
      <trkpt lat="46.56238" lon="5.61164">
        <ele>506.4</ele>
        <time>2022-03-04T17:43:42Z</time>
      </trkpt>
      <trkpt lat="46.56234" lon="5.61162">
        <ele>506.4</ele>
        <time>2022-03-04T17:43:43Z</time>
      </trkpt>
      <trkpt lat="46.56231" lon="5.6116">
        <ele>506.4</ele>
        <time>2022-03-04T17:43:44Z</time>
      </trkpt>
      <trkpt lat="46.56227" lon="5.61158">
        <ele>506.4</ele>
        <time>2022-03-04T17:43:45Z</time>
      </trkpt>
      <trkpt lat="46.56223" lon="5.61156">
        <ele>506.4</ele>
        <time>2022-03-04T17:43:46Z</time>
      </trkpt>
      <trkpt lat="46.56219" lon="5.61153">
        <ele>506.4</ele>
        <time>2022-03-04T17:43:47Z</time>
      </trkpt>
      <trkpt lat="46.56215" lon="5.61151">
        <ele>506.4</ele>
        <time>2022-03-04T17:43:48Z</time>
      </trkpt>
      <trkpt lat="46.56211" lon="5.61149">
        <ele>506.4</ele>
        <time>2022-03-04T17:43:49Z</time>
      </trkpt>
      <trkpt lat="46.56207" lon="5.61146">
        <ele>506.4</ele>
        <time>2022-03-04T17:43:50Z</time>
      </trkpt>
      <trkpt lat="46.56204" lon="5.61144">
        <ele>506.4</ele>
        <time>2022-03-04T17:43:51Z</time>
      </trkpt>
      <trkpt lat="46.562" lon="5.61141">
        <ele>506.4</ele>
        <time>2022-03-04T17:43:52Z</time>
      </trkpt>
      <trkpt lat="46.56197" lon="5.61139">
        <ele>506.4</ele>
        <time>2022-03-04T17:43:53Z</time>
      </trkpt>
      <trkpt lat="46.56193" lon="5.61136">
        <ele>506.4</ele>
        <time>2022-03-04T17:43:54Z</time>
      </trkpt>
      <trkpt lat="46.5619" lon="5.61133">
        <ele>506.4</ele>
        <time>2022-03-04T17:43:55Z</time>
      </trkpt>
      <trkpt lat="46.56187" lon="5.6113">
        <ele>506.4</ele>
        <time>2022-03-04T17:43:56Z</time>
      </trkpt>
      <trkpt lat="46.56184" lon="5.61126">
        <ele>506.4</ele>
        <time>2022-03-04T17:43:57Z</time>
      </trkpt>
      <trkpt lat="46.56182" lon="5.61122">
        <ele>506.4</ele>
        <time>2022-03-04T17:43:58Z</time>
      </trkpt>
      <trkpt lat="46.56179" lon="5.61117">
        <ele>506</ele>
        <time>2022-03-04T17:43:59Z</time>
      </trkpt>
      <trkpt lat="46.56177" lon="5.61112">
        <ele>506</ele>
        <time>2022-03-04T17:44:00Z</time>
      </trkpt>
      <trkpt lat="46.56174" lon="5.61107">
        <ele>505.8</ele>
        <time>2022-03-04T17:44:01Z</time>
      </trkpt>
      <trkpt lat="46.56172" lon="5.61101">
        <ele>505.8</ele>
        <time>2022-03-04T17:44:02Z</time>
      </trkpt>
      <trkpt lat="46.5617" lon="5.61095">
        <ele>505.6</ele>
        <time>2022-03-04T17:44:03Z</time>
      </trkpt>
      <trkpt lat="46.56168" lon="5.61088">
        <ele>505.6</ele>
        <time>2022-03-04T17:44:04Z</time>
      </trkpt>
      <trkpt lat="46.56166" lon="5.61082">
        <ele>505.4</ele>
        <time>2022-03-04T17:44:05Z</time>
      </trkpt>
      <trkpt lat="46.56164" lon="5.61075">
        <ele>505.4</ele>
        <time>2022-03-04T17:44:06Z</time>
      </trkpt>
      <trkpt lat="46.56162" lon="5.61068">
        <ele>505</ele>
        <time>2022-03-04T17:44:07Z</time>
      </trkpt>
      <trkpt lat="46.5616" lon="5.61062">
        <ele>505</ele>
        <time>2022-03-04T17:44:08Z</time>
      </trkpt>
      <trkpt lat="46.56158" lon="5.61055">
        <ele>505</ele>
        <time>2022-03-04T17:44:09Z</time>
      </trkpt>
      <trkpt lat="46.56156" lon="5.61049">
        <ele>504.8</ele>
        <time>2022-03-04T17:44:10Z</time>
      </trkpt>
      <trkpt lat="46.56153" lon="5.61043">
        <ele>504.8</ele>
        <time>2022-03-04T17:44:11Z</time>
      </trkpt>
      <trkpt lat="46.56151" lon="5.61037">
        <ele>504.8</ele>
        <time>2022-03-04T17:44:12Z</time>
      </trkpt>
      <trkpt lat="46.56148" lon="5.61032">
        <ele>504.8</ele>
        <time>2022-03-04T17:44:13Z</time>
      </trkpt>
      <trkpt lat="46.56145" lon="5.61027">
        <ele>504.8</ele>
        <time>2022-03-04T17:44:14Z</time>
      </trkpt>
      <trkpt lat="46.56143" lon="5.61021">
        <ele>504.8</ele>
        <time>2022-03-04T17:44:15Z</time>
      </trkpt>
      <trkpt lat="46.56141" lon="5.61016">
        <ele>504.8</ele>
        <time>2022-03-04T17:44:16Z</time>
      </trkpt>
      <trkpt lat="46.56138" lon="5.61011">
        <ele>504.8</ele>
        <time>2022-03-04T17:44:17Z</time>
      </trkpt>
      <trkpt lat="46.56136" lon="5.61006">
        <ele>504.8</ele>
        <time>2022-03-04T17:44:18Z</time>
      </trkpt>
      <trkpt lat="46.56133" lon="5.61">
        <ele>504.6</ele>
        <time>2022-03-04T17:44:19Z</time>
      </trkpt>
      <trkpt lat="46.56131" lon="5.60994">
        <ele>504.6</ele>
        <time>2022-03-04T17:44:20Z</time>
      </trkpt>
      <trkpt lat="46.56128" lon="5.60989">
        <ele>504.6</ele>
        <time>2022-03-04T17:44:21Z</time>
      </trkpt>
      <trkpt lat="46.56125" lon="5.60984">
        <ele>504.6</ele>
        <time>2022-03-04T17:44:22Z</time>
      </trkpt>
      <trkpt lat="46.56122" lon="5.60979">
        <ele>504.6</ele>
        <time>2022-03-04T17:44:23Z</time>
      </trkpt>
      <trkpt lat="46.56119" lon="5.60974">
        <ele>504.6</ele>
        <time>2022-03-04T17:44:24Z</time>
      </trkpt>
      <trkpt lat="46.56116" lon="5.60969">
        <ele>504.6</ele>
        <time>2022-03-04T17:44:25Z</time>
      </trkpt>
      <trkpt lat="46.56113" lon="5.60965">
        <ele>504.6</ele>
        <time>2022-03-04T17:44:26Z</time>
      </trkpt>
      <trkpt lat="46.5611" lon="5.60961">
        <ele>504.6</ele>
        <time>2022-03-04T17:44:27Z</time>
      </trkpt>
      <trkpt lat="46.56107" lon="5.60957">
        <ele>504.8</ele>
        <time>2022-03-04T17:44:28Z</time>
      </trkpt>
      <trkpt lat="46.56104" lon="5.60953">
        <ele>504.8</ele>
        <time>2022-03-04T17:44:29Z</time>
      </trkpt>
      <trkpt lat="46.56101" lon="5.6095">
        <ele>504.8</ele>
        <time>2022-03-04T17:44:30Z</time>
      </trkpt>
      <trkpt lat="46.56098" lon="5.60946">
        <ele>505.2</ele>
        <time>2022-03-04T17:44:31Z</time>
      </trkpt>
      <trkpt lat="46.56095" lon="5.60943">
        <ele>505.2</ele>
        <time>2022-03-04T17:44:32Z</time>
      </trkpt>
      <trkpt lat="46.56093" lon="5.60939">
        <ele>505.2</ele>
        <time>2022-03-04T17:44:33Z</time>
      </trkpt>
      <trkpt lat="46.5609" lon="5.60936">
        <ele>505.2</ele>
        <time>2022-03-04T17:44:34Z</time>
      </trkpt>
      <trkpt lat="46.56088" lon="5.60933">
        <ele>505.4</ele>
        <time>2022-03-04T17:44:35Z</time>
      </trkpt>
      <trkpt lat="46.56086" lon="5.6093">
        <ele>505.4</ele>
        <time>2022-03-04T17:44:36Z</time>
      </trkpt>
      <trkpt lat="46.56083" lon="5.60927">
        <ele>505.4</ele>
        <time>2022-03-04T17:44:37Z</time>
      </trkpt>
      <trkpt lat="46.56081" lon="5.60925">
        <ele>505.6</ele>
        <time>2022-03-04T17:44:38Z</time>
      </trkpt>
      <trkpt lat="46.56079" lon="5.60923">
        <ele>505.6</ele>
        <time>2022-03-04T17:44:39Z</time>
      </trkpt>
      <trkpt lat="46.56077" lon="5.6092">
        <ele>505.8</ele>
        <time>2022-03-04T17:44:40Z</time>
      </trkpt>
      <trkpt lat="46.56075" lon="5.60918">
        <ele>505.8</ele>
        <time>2022-03-04T17:44:41Z</time>
      </trkpt>
      <trkpt lat="46.56073" lon="5.60916">
        <ele>505.8</ele>
        <time>2022-03-04T17:44:42Z</time>
      </trkpt>
      <trkpt lat="46.56071" lon="5.60914">
        <ele>506.2</ele>
        <time>2022-03-04T17:44:43Z</time>
      </trkpt>
      <trkpt lat="46.56069" lon="5.60912">
        <ele>506.2</ele>
        <time>2022-03-04T17:44:44Z</time>
      </trkpt>
      <trkpt lat="46.56068" lon="5.6091">
        <ele>506.2</ele>
        <time>2022-03-04T17:44:45Z</time>
      </trkpt>
      <trkpt lat="46.56067" lon="5.60907">
        <ele>506.4</ele>
        <time>2022-03-04T17:44:46Z</time>
      </trkpt>
      <trkpt lat="46.56066" lon="5.60903">
        <ele>506.4</ele>
        <time>2022-03-04T17:44:47Z</time>
      </trkpt>
      <trkpt lat="46.56065" lon="5.609">
        <ele>506.4</ele>
        <time>2022-03-04T17:44:48Z</time>
      </trkpt>
      <trkpt lat="46.56065" lon="5.60896">
        <ele>506.6</ele>
        <time>2022-03-04T17:44:49Z</time>
      </trkpt>
      <trkpt lat="46.56066" lon="5.60893">
        <ele>506.6</ele>
        <time>2022-03-04T17:44:50Z</time>
      </trkpt>
      <trkpt lat="46.56068" lon="5.6089">
        <ele>506.6</ele>
        <time>2022-03-04T17:44:51Z</time>
      </trkpt>
      <trkpt lat="46.5607" lon="5.60888">
        <ele>506.8</ele>
        <time>2022-03-04T17:44:52Z</time>
      </trkpt>
      <trkpt lat="46.56073" lon="5.60886">
        <ele>506.8</ele>
        <time>2022-03-04T17:44:53Z</time>
      </trkpt>
      <trkpt lat="46.56076" lon="5.60885">
        <ele>506.8</ele>
        <time>2022-03-04T17:44:54Z</time>
      </trkpt>
      <trkpt lat="46.56079" lon="5.60884">
        <ele>506.8</ele>
        <time>2022-03-04T17:44:55Z</time>
      </trkpt>
      <trkpt lat="46.56083" lon="5.60883">
        <ele>506.8</ele>
        <time>2022-03-04T17:44:56Z</time>
      </trkpt>
      <trkpt lat="46.56086" lon="5.60881">
        <ele>507</ele>
        <time>2022-03-04T17:44:57Z</time>
      </trkpt>
      <trkpt lat="46.56089" lon="5.60879">
        <ele>507</ele>
        <time>2022-03-04T17:44:58Z</time>
      </trkpt>
      <trkpt lat="46.56092" lon="5.60877">
        <ele>507</ele>
        <time>2022-03-04T17:44:59Z</time>
      </trkpt>
      <trkpt lat="46.56095" lon="5.60876">
        <ele>507</ele>
        <time>2022-03-04T17:45:00Z</time>
      </trkpt>
      <trkpt lat="46.56098" lon="5.60875">
        <ele>507</ele>
        <time>2022-03-04T17:45:01Z</time>
      </trkpt>
      <trkpt lat="46.56102" lon="5.60874">
        <ele>507</ele>
        <time>2022-03-04T17:45:02Z</time>
      </trkpt>
      <trkpt lat="46.56105" lon="5.60872">
        <ele>507</ele>
        <time>2022-03-04T17:45:03Z</time>
      </trkpt>
      <trkpt lat="46.56108" lon="5.60871">
        <ele>507</ele>
        <time>2022-03-04T17:45:04Z</time>
      </trkpt>
      <trkpt lat="46.56112" lon="5.6087">
        <ele>507</ele>
        <time>2022-03-04T17:45:05Z</time>
      </trkpt>
      <trkpt lat="46.56115" lon="5.60869">
        <ele>507</ele>
        <time>2022-03-04T17:45:06Z</time>
      </trkpt>
      <trkpt lat="46.56118" lon="5.60867">
        <ele>507.4</ele>
        <time>2022-03-04T17:45:07Z</time>
      </trkpt>
      <trkpt lat="46.56121" lon="5.60866">
        <ele>507.4</ele>
        <time>2022-03-04T17:45:08Z</time>
      </trkpt>
      <trkpt lat="46.56124" lon="5.60865">
        <ele>507.4</ele>
        <time>2022-03-04T17:45:09Z</time>
      </trkpt>
      <trkpt lat="46.56127" lon="5.60864">
        <ele>507.4</ele>
        <time>2022-03-04T17:45:10Z</time>
      </trkpt>
      <trkpt lat="46.56131" lon="5.60864">
        <ele>507.4</ele>
        <time>2022-03-04T17:45:11Z</time>
      </trkpt>
      <trkpt lat="46.56134" lon="5.60863">
        <ele>507.4</ele>
        <time>2022-03-04T17:45:12Z</time>
      </trkpt>
      <trkpt lat="46.56137" lon="5.60862">
        <ele>507.4</ele>
        <time>2022-03-04T17:45:13Z</time>
      </trkpt>
      <trkpt lat="46.56141" lon="5.60861">
        <ele>507.4</ele>
        <time>2022-03-04T17:45:14Z</time>
      </trkpt>
      <trkpt lat="46.56144" lon="5.60861">
        <ele>507.4</ele>
        <time>2022-03-04T17:45:15Z</time>
      </trkpt>
      <trkpt lat="46.56148" lon="5.6086">
        <ele>507.6</ele>
        <time>2022-03-04T17:45:16Z</time>
      </trkpt>
      <trkpt lat="46.56151" lon="5.60859">
        <ele>507.6</ele>
        <time>2022-03-04T17:45:17Z</time>
      </trkpt>
      <trkpt lat="46.56155" lon="5.60857">
        <ele>507.6</ele>
        <time>2022-03-04T17:45:18Z</time>
      </trkpt>
      <trkpt lat="46.56158" lon="5.60857">
        <ele>507.8</ele>
        <time>2022-03-04T17:45:19Z</time>
      </trkpt>
      <trkpt lat="46.56162" lon="5.60857">
        <ele>507.8</ele>
        <time>2022-03-04T17:45:20Z</time>
      </trkpt>
      <trkpt lat="46.56165" lon="5.60857">
        <ele>507.8</ele>
        <time>2022-03-04T17:45:21Z</time>
      </trkpt>
      <trkpt lat="46.56169" lon="5.60857">
        <ele>507.8</ele>
        <time>2022-03-04T17:45:22Z</time>
      </trkpt>
      <trkpt lat="46.56172" lon="5.60856">
        <ele>508</ele>
        <time>2022-03-04T17:45:23Z</time>
      </trkpt>
      <trkpt lat="46.56175" lon="5.60856">
        <ele>508</ele>
        <time>2022-03-04T17:45:24Z</time>
      </trkpt>
      <trkpt lat="46.56178" lon="5.60856">
        <ele>508</ele>
        <time>2022-03-04T17:45:25Z</time>
      </trkpt>
      <trkpt lat="46.56181" lon="5.60856">
        <ele>508.4</ele>
        <time>2022-03-04T17:45:26Z</time>
      </trkpt>
      <trkpt lat="46.56184" lon="5.60856">
        <ele>508.4</ele>
        <time>2022-03-04T17:45:27Z</time>
      </trkpt>
      <trkpt lat="46.56188" lon="5.60856">
        <ele>508.6</ele>
        <time>2022-03-04T17:45:28Z</time>
      </trkpt>
      <trkpt lat="46.56191" lon="5.60856">
        <ele>508.6</ele>
        <time>2022-03-04T17:45:29Z</time>
      </trkpt>
      <trkpt lat="46.56194" lon="5.60856">
        <ele>509</ele>
        <time>2022-03-04T17:45:30Z</time>
      </trkpt>
      <trkpt lat="46.56197" lon="5.60857">
        <ele>509</ele>
        <time>2022-03-04T17:45:31Z</time>
      </trkpt>
      <trkpt lat="46.562" lon="5.60857">
        <ele>509.4</ele>
        <time>2022-03-04T17:45:32Z</time>
      </trkpt>
      <trkpt lat="46.56203" lon="5.60858">
        <ele>509.6</ele>
        <time>2022-03-04T17:45:33Z</time>
      </trkpt>
      <trkpt lat="46.56206" lon="5.60858">
        <ele>509.8</ele>
        <time>2022-03-04T17:45:34Z</time>
      </trkpt>
      <trkpt lat="46.56209" lon="5.60858">
        <ele>509.8</ele>
        <time>2022-03-04T17:45:35Z</time>
      </trkpt>
      <trkpt lat="46.56213" lon="5.60858">
        <ele>510.4</ele>
        <time>2022-03-04T17:45:36Z</time>
      </trkpt>
      <trkpt lat="46.56216" lon="5.60859">
        <ele>510.4</ele>
        <time>2022-03-04T17:45:37Z</time>
      </trkpt>
      <trkpt lat="46.56219" lon="5.60859">
        <ele>510.6</ele>
        <time>2022-03-04T17:45:38Z</time>
      </trkpt>
      <trkpt lat="46.56224" lon="5.60861">
        <ele>510.6</ele>
        <time>2022-03-04T17:45:39Z</time>
      </trkpt>
      <trkpt lat="46.56227" lon="5.60861">
        <ele>510.8</ele>
        <time>2022-03-04T17:45:40Z</time>
      </trkpt>
      <trkpt lat="46.56231" lon="5.60862">
        <ele>510.8</ele>
        <time>2022-03-04T17:45:41Z</time>
      </trkpt>
      <trkpt lat="46.56234" lon="5.60863">
        <ele>511</ele>
        <time>2022-03-04T17:45:42Z</time>
      </trkpt>
      <trkpt lat="46.56237" lon="5.60864">
        <ele>511</ele>
        <time>2022-03-04T17:45:43Z</time>
      </trkpt>
      <trkpt lat="46.56241" lon="5.60865">
        <ele>511</ele>
        <time>2022-03-04T17:45:44Z</time>
      </trkpt>
      <trkpt lat="46.56244" lon="5.60866">
        <ele>511</ele>
        <time>2022-03-04T17:45:45Z</time>
      </trkpt>
      <trkpt lat="46.56248" lon="5.60867">
        <ele>511</ele>
        <time>2022-03-04T17:45:46Z</time>
      </trkpt>
      <trkpt lat="46.56253" lon="5.60869">
        <ele>511</ele>
        <time>2022-03-04T17:45:47Z</time>
      </trkpt>
      <trkpt lat="46.56257" lon="5.60871">
        <ele>511</ele>
        <time>2022-03-04T17:45:48Z</time>
      </trkpt>
      <trkpt lat="46.56262" lon="5.60872">
        <ele>511</ele>
        <time>2022-03-04T17:45:49Z</time>
      </trkpt>
      <trkpt lat="46.56266" lon="5.60873">
        <ele>511</ele>
        <time>2022-03-04T17:45:50Z</time>
      </trkpt>
      <trkpt lat="46.5627" lon="5.60875">
        <ele>511</ele>
        <time>2022-03-04T17:45:51Z</time>
      </trkpt>
      <trkpt lat="46.56275" lon="5.60876">
        <ele>510.6</ele>
        <time>2022-03-04T17:45:52Z</time>
      </trkpt>
      <trkpt lat="46.56279" lon="5.60877">
        <ele>510.6</ele>
        <time>2022-03-04T17:45:53Z</time>
      </trkpt>
      <trkpt lat="46.56283" lon="5.60879">
        <ele>510.6</ele>
        <time>2022-03-04T17:45:54Z</time>
      </trkpt>
      <trkpt lat="46.56288" lon="5.6088">
        <ele>510.6</ele>
        <time>2022-03-04T17:45:55Z</time>
      </trkpt>
      <trkpt lat="46.56292" lon="5.60882">
        <ele>510.6</ele>
        <time>2022-03-04T17:45:56Z</time>
      </trkpt>
      <trkpt lat="46.56296" lon="5.60883">
        <ele>510.6</ele>
        <time>2022-03-04T17:45:57Z</time>
      </trkpt>
      <trkpt lat="46.563" lon="5.60884">
        <ele>510.6</ele>
        <time>2022-03-04T17:45:58Z</time>
      </trkpt>
      <trkpt lat="46.56304" lon="5.60886">
        <ele>510.6</ele>
        <time>2022-03-04T17:45:59Z</time>
      </trkpt>
      <trkpt lat="46.56308" lon="5.60887">
        <ele>510.4</ele>
        <time>2022-03-04T17:46:00Z</time>
      </trkpt>
      <trkpt lat="46.56312" lon="5.60888">
        <ele>510.4</ele>
        <time>2022-03-04T17:46:01Z</time>
      </trkpt>
      <trkpt lat="46.56316" lon="5.60889">
        <ele>510.4</ele>
        <time>2022-03-04T17:46:02Z</time>
      </trkpt>
      <trkpt lat="46.56319" lon="5.60891">
        <ele>510.4</ele>
        <time>2022-03-04T17:46:03Z</time>
      </trkpt>
      <trkpt lat="46.56323" lon="5.60892">
        <ele>510.4</ele>
        <time>2022-03-04T17:46:04Z</time>
      </trkpt>
      <trkpt lat="46.56327" lon="5.60893">
        <ele>510.6</ele>
        <time>2022-03-04T17:46:05Z</time>
      </trkpt>
      <trkpt lat="46.56331" lon="5.60895">
        <ele>510.6</ele>
        <time>2022-03-04T17:46:06Z</time>
      </trkpt>
      <trkpt lat="46.56335" lon="5.60896">
        <ele>510.6</ele>
        <time>2022-03-04T17:46:07Z</time>
      </trkpt>
      <trkpt lat="46.56338" lon="5.60898">
        <ele>510.6</ele>
        <time>2022-03-04T17:46:08Z</time>
      </trkpt>
      <trkpt lat="46.56342" lon="5.60899">
        <ele>511</ele>
        <time>2022-03-04T17:46:09Z</time>
      </trkpt>
      <trkpt lat="46.56345" lon="5.60901">
        <ele>511</ele>
        <time>2022-03-04T17:46:10Z</time>
      </trkpt>
      <trkpt lat="46.56349" lon="5.60902">
        <ele>511</ele>
        <time>2022-03-04T17:46:11Z</time>
      </trkpt>
      <trkpt lat="46.56352" lon="5.60903">
        <ele>511.2</ele>
        <time>2022-03-04T17:46:12Z</time>
      </trkpt>
      <trkpt lat="46.56356" lon="5.60904">
        <ele>511.2</ele>
        <time>2022-03-04T17:46:13Z</time>
      </trkpt>
      <trkpt lat="46.5636" lon="5.60905">
        <ele>511.2</ele>
        <time>2022-03-04T17:46:14Z</time>
      </trkpt>
      <trkpt lat="46.56363" lon="5.60907">
        <ele>511.6</ele>
        <time>2022-03-04T17:46:15Z</time>
      </trkpt>
      <trkpt lat="46.56366" lon="5.60908">
        <ele>511.6</ele>
        <time>2022-03-04T17:46:16Z</time>
      </trkpt>
      <trkpt lat="46.56369" lon="5.60909">
        <ele>511.8</ele>
        <time>2022-03-04T17:46:17Z</time>
      </trkpt>
      <trkpt lat="46.56373" lon="5.6091">
        <ele>511.8</ele>
        <time>2022-03-04T17:46:18Z</time>
      </trkpt>
      <trkpt lat="46.56376" lon="5.6091">
        <ele>512.2</ele>
        <time>2022-03-04T17:46:19Z</time>
      </trkpt>
      <trkpt lat="46.56379" lon="5.60911">
        <ele>512.4</ele>
        <time>2022-03-04T17:46:20Z</time>
      </trkpt>
      <trkpt lat="46.56382" lon="5.60913">
        <ele>512.6</ele>
        <time>2022-03-04T17:46:21Z</time>
      </trkpt>
      <trkpt lat="46.56385" lon="5.60914">
        <ele>512.8</ele>
        <time>2022-03-04T17:46:22Z</time>
      </trkpt>
      <trkpt lat="46.56389" lon="5.60915">
        <ele>513</ele>
        <time>2022-03-04T17:46:23Z</time>
      </trkpt>
      <trkpt lat="46.56392" lon="5.60916">
        <ele>513</ele>
        <time>2022-03-04T17:46:24Z</time>
      </trkpt>
      <trkpt lat="46.56395" lon="5.60917">
        <ele>513.4</ele>
        <time>2022-03-04T17:46:25Z</time>
      </trkpt>
      <trkpt lat="46.56398" lon="5.60917">
        <ele>513.4</ele>
        <time>2022-03-04T17:46:26Z</time>
      </trkpt>
      <trkpt lat="46.56401" lon="5.60917">
        <ele>513.8</ele>
        <time>2022-03-04T17:46:27Z</time>
      </trkpt>
      <trkpt lat="46.56405" lon="5.60916">
        <ele>513.8</ele>
        <time>2022-03-04T17:46:28Z</time>
      </trkpt>
      <trkpt lat="46.56408" lon="5.60914">
        <ele>514</ele>
        <time>2022-03-04T17:46:29Z</time>
      </trkpt>
      <trkpt lat="46.5641" lon="5.60911">
        <ele>514.2</ele>
        <time>2022-03-04T17:46:30Z</time>
      </trkpt>
      <trkpt lat="46.56412" lon="5.60908">
        <ele>514.2</ele>
        <time>2022-03-04T17:46:31Z</time>
      </trkpt>
      <trkpt lat="46.56413" lon="5.60905">
        <ele>514.6</ele>
        <time>2022-03-04T17:46:32Z</time>
      </trkpt>
      <trkpt lat="46.56414" lon="5.60901">
        <ele>514.6</ele>
        <time>2022-03-04T17:46:33Z</time>
      </trkpt>
      <trkpt lat="46.56415" lon="5.60897">
        <ele>515</ele>
        <time>2022-03-04T17:46:34Z</time>
      </trkpt>
      <trkpt lat="46.56415" lon="5.60893">
        <ele>515.2</ele>
        <time>2022-03-04T17:46:35Z</time>
      </trkpt>
      <trkpt lat="46.56415" lon="5.60889">
        <ele>515.2</ele>
        <time>2022-03-04T17:46:36Z</time>
      </trkpt>
      <trkpt lat="46.56414" lon="5.60885">
        <ele>515.6</ele>
        <time>2022-03-04T17:46:37Z</time>
      </trkpt>
      <trkpt lat="46.56415" lon="5.60881">
        <ele>515.8</ele>
        <time>2022-03-04T17:46:38Z</time>
      </trkpt>
      <trkpt lat="46.56415" lon="5.60877">
        <ele>515.8</ele>
        <time>2022-03-04T17:46:39Z</time>
      </trkpt>
      <trkpt lat="46.56415" lon="5.60872">
        <ele>516.2</ele>
        <time>2022-03-04T17:46:40Z</time>
      </trkpt>
      <trkpt lat="46.56415" lon="5.60868">
        <ele>516.4</ele>
        <time>2022-03-04T17:46:41Z</time>
      </trkpt>
      <trkpt lat="46.56415" lon="5.60864">
        <ele>516.6</ele>
        <time>2022-03-04T17:46:42Z</time>
      </trkpt>
      <trkpt lat="46.56415" lon="5.6086">
        <ele>516.6</ele>
        <time>2022-03-04T17:46:43Z</time>
      </trkpt>
      <trkpt lat="46.56415" lon="5.6086">
        <ele>517.2</ele>
        <time>2022-03-04T17:46:44Z</time>
      </trkpt>
      <trkpt lat="46.56416" lon="5.60856">
        <ele>517.4</ele>
        <time>2022-03-04T17:46:45Z</time>
      </trkpt>
      <trkpt lat="46.56416" lon="5.60853">
        <ele>517.8</ele>
        <time>2022-03-04T17:46:46Z</time>
      </trkpt>
      <trkpt lat="46.56417" lon="5.60849">
        <ele>518</ele>
        <time>2022-03-04T17:46:47Z</time>
      </trkpt>
      <trkpt lat="46.56417" lon="5.60846">
        <ele>518.4</ele>
        <time>2022-03-04T17:46:48Z</time>
      </trkpt>
      <trkpt lat="46.56418" lon="5.60842">
        <ele>518.6</ele>
        <time>2022-03-04T17:46:49Z</time>
      </trkpt>
      <trkpt lat="46.56418" lon="5.60838">
        <ele>518.8</ele>
        <time>2022-03-04T17:46:50Z</time>
      </trkpt>
      <trkpt lat="46.56419" lon="5.60834">
        <ele>519</ele>
        <time>2022-03-04T17:46:51Z</time>
      </trkpt>
      <trkpt lat="46.56419" lon="5.6083">
        <ele>519</ele>
        <time>2022-03-04T17:46:52Z</time>
      </trkpt>
      <trkpt lat="46.56419" lon="5.60826">
        <ele>519.4</ele>
        <time>2022-03-04T17:46:53Z</time>
      </trkpt>
      <trkpt lat="46.56419" lon="5.60822">
        <ele>519.4</ele>
        <time>2022-03-04T17:46:54Z</time>
      </trkpt>
      <trkpt lat="46.5642" lon="5.60818">
        <ele>519.8</ele>
        <time>2022-03-04T17:46:55Z</time>
      </trkpt>
      <trkpt lat="46.5642" lon="5.60814">
        <ele>520</ele>
        <time>2022-03-04T17:46:56Z</time>
      </trkpt>
      <trkpt lat="46.56421" lon="5.6081">
        <ele>520.2</ele>
        <time>2022-03-04T17:46:57Z</time>
      </trkpt>
      <trkpt lat="46.56422" lon="5.60807">
        <ele>520.2</ele>
        <time>2022-03-04T17:46:58Z</time>
      </trkpt>
      <trkpt lat="46.56423" lon="5.60803">
        <ele>520.6</ele>
        <time>2022-03-04T17:46:59Z</time>
      </trkpt>
      <trkpt lat="46.56424" lon="5.60799">
        <ele>520.6</ele>
        <time>2022-03-04T17:47:00Z</time>
      </trkpt>
      <trkpt lat="46.56425" lon="5.60796">
        <ele>521</ele>
        <time>2022-03-04T17:47:01Z</time>
      </trkpt>
      <trkpt lat="46.56426" lon="5.60793">
        <ele>521</ele>
        <time>2022-03-04T17:47:02Z</time>
      </trkpt>
      <trkpt lat="46.56427" lon="5.60789">
        <ele>521.2</ele>
        <time>2022-03-04T17:47:03Z</time>
      </trkpt>
      <trkpt lat="46.56429" lon="5.60786">
        <ele>521.2</ele>
        <time>2022-03-04T17:47:04Z</time>
      </trkpt>
      <trkpt lat="46.5643" lon="5.60782">
        <ele>521.2</ele>
        <time>2022-03-04T17:47:05Z</time>
      </trkpt>
      <trkpt lat="46.56432" lon="5.60779">
        <ele>521.4</ele>
        <time>2022-03-04T17:47:06Z</time>
      </trkpt>
      <trkpt lat="46.56434" lon="5.60775">
        <ele>521.4</ele>
        <time>2022-03-04T17:47:07Z</time>
      </trkpt>
      <trkpt lat="46.56436" lon="5.60772">
        <ele>521.6</ele>
        <time>2022-03-04T17:47:08Z</time>
      </trkpt>
      <trkpt lat="46.56438" lon="5.60769">
        <ele>521.6</ele>
        <time>2022-03-04T17:47:09Z</time>
      </trkpt>
      <trkpt lat="46.5644" lon="5.60766">
        <ele>521.6</ele>
        <time>2022-03-04T17:47:10Z</time>
      </trkpt>
      <trkpt lat="46.56443" lon="5.60764">
        <ele>522</ele>
        <time>2022-03-04T17:47:11Z</time>
      </trkpt>
      <trkpt lat="46.56445" lon="5.60762">
        <ele>522</ele>
        <time>2022-03-04T17:47:12Z</time>
      </trkpt>
      <trkpt lat="46.56448" lon="5.6076">
        <ele>522</ele>
        <time>2022-03-04T17:47:13Z</time>
      </trkpt>
      <trkpt lat="46.56451" lon="5.60759">
        <ele>522.2</ele>
        <time>2022-03-04T17:47:14Z</time>
      </trkpt>
      <trkpt lat="46.56454" lon="5.60757">
        <ele>522.2</ele>
        <time>2022-03-04T17:47:15Z</time>
      </trkpt>
      <trkpt lat="46.56457" lon="5.60756">
        <ele>522.2</ele>
        <time>2022-03-04T17:47:16Z</time>
      </trkpt>
      <trkpt lat="46.56459" lon="5.60754">
        <ele>522.2</ele>
        <time>2022-03-04T17:47:17Z</time>
      </trkpt>
      <trkpt lat="46.56462" lon="5.60753">
        <ele>522.4</ele>
        <time>2022-03-04T17:47:18Z</time>
      </trkpt>
      <trkpt lat="46.56464" lon="5.60751">
        <ele>522.4</ele>
        <time>2022-03-04T17:47:19Z</time>
      </trkpt>
      <trkpt lat="46.56467" lon="5.6075">
        <ele>522.4</ele>
        <time>2022-03-04T17:47:20Z</time>
      </trkpt>
      <trkpt lat="46.56469" lon="5.60749">
        <ele>522.4</ele>
        <time>2022-03-04T17:47:21Z</time>
      </trkpt>
      <trkpt lat="46.56472" lon="5.60748">
        <ele>522.4</ele>
        <time>2022-03-04T17:47:22Z</time>
      </trkpt>
      <trkpt lat="46.56474" lon="5.60747">
        <ele>522.6</ele>
        <time>2022-03-04T17:47:23Z</time>
      </trkpt>
      <trkpt lat="46.56476" lon="5.60746">
        <ele>522.6</ele>
        <time>2022-03-04T17:47:24Z</time>
      </trkpt>
      <trkpt lat="46.56478" lon="5.60744">
        <ele>522.6</ele>
        <time>2022-03-04T17:47:25Z</time>
      </trkpt>
      <trkpt lat="46.5648" lon="5.60743">
        <ele>522.6</ele>
        <time>2022-03-04T17:47:26Z</time>
      </trkpt>
      <trkpt lat="46.56482" lon="5.60741">
        <ele>522.6</ele>
        <time>2022-03-04T17:47:27Z</time>
      </trkpt>
      <trkpt lat="46.56485" lon="5.6074">
        <ele>522.6</ele>
        <time>2022-03-04T17:47:28Z</time>
      </trkpt>
      <trkpt lat="46.56487" lon="5.60739">
        <ele>522.6</ele>
        <time>2022-03-04T17:47:29Z</time>
      </trkpt>
      <trkpt lat="46.56489" lon="5.60738">
        <ele>522.6</ele>
        <time>2022-03-04T17:47:30Z</time>
      </trkpt>
      <trkpt lat="46.56491" lon="5.60736">
        <ele>522.6</ele>
        <time>2022-03-04T17:47:31Z</time>
      </trkpt>
      <trkpt lat="46.56494" lon="5.60735">
        <ele>522.6</ele>
        <time>2022-03-04T17:47:32Z</time>
      </trkpt>
      <trkpt lat="46.56496" lon="5.60733">
        <ele>522.6</ele>
        <time>2022-03-04T17:47:33Z</time>
      </trkpt>
      <trkpt lat="46.56499" lon="5.60731">
        <ele>522.6</ele>
        <time>2022-03-04T17:47:34Z</time>
      </trkpt>
      <trkpt lat="46.56502" lon="5.60729">
        <ele>522.6</ele>
        <time>2022-03-04T17:47:35Z</time>
      </trkpt>
      <trkpt lat="46.56506" lon="5.60727">
        <ele>522.6</ele>
        <time>2022-03-04T17:47:36Z</time>
      </trkpt>
      <trkpt lat="46.56509" lon="5.60725">
        <ele>522.6</ele>
        <time>2022-03-04T17:47:37Z</time>
      </trkpt>
      <trkpt lat="46.56512" lon="5.60723">
        <ele>523</ele>
        <time>2022-03-04T17:47:38Z</time>
      </trkpt>
      <trkpt lat="46.56516" lon="5.60721">
        <ele>523</ele>
        <time>2022-03-04T17:47:39Z</time>
      </trkpt>
      <trkpt lat="46.56519" lon="5.60719">
        <ele>523</ele>
        <time>2022-03-04T17:47:40Z</time>
      </trkpt>
      <trkpt lat="46.56523" lon="5.60717">
        <ele>523</ele>
        <time>2022-03-04T17:47:41Z</time>
      </trkpt>
      <trkpt lat="46.56526" lon="5.60715">
        <ele>523</ele>
        <time>2022-03-04T17:47:42Z</time>
      </trkpt>
      <trkpt lat="46.56529" lon="5.60713">
        <ele>523.2</ele>
        <time>2022-03-04T17:47:43Z</time>
      </trkpt>
      <trkpt lat="46.56533" lon="5.60711">
        <ele>523.2</ele>
        <time>2022-03-04T17:47:44Z</time>
      </trkpt>
      <trkpt lat="46.56536" lon="5.60709">
        <ele>523.2</ele>
        <time>2022-03-04T17:47:45Z</time>
      </trkpt>
      <trkpt lat="46.56539" lon="5.60707">
        <ele>523.2</ele>
        <time>2022-03-04T17:47:46Z</time>
      </trkpt>
      <trkpt lat="46.56542" lon="5.60705">
        <ele>523.2</ele>
        <time>2022-03-04T17:47:47Z</time>
      </trkpt>
      <trkpt lat="46.56545" lon="5.60703">
        <ele>523.2</ele>
        <time>2022-03-04T17:47:48Z</time>
      </trkpt>
      <trkpt lat="46.56548" lon="5.60701">
        <ele>523.4</ele>
        <time>2022-03-04T17:47:49Z</time>
      </trkpt>
      <trkpt lat="46.56551" lon="5.60699">
        <ele>523.4</ele>
        <time>2022-03-04T17:47:50Z</time>
      </trkpt>
      <trkpt lat="46.56555" lon="5.60697">
        <ele>523.4</ele>
        <time>2022-03-04T17:47:51Z</time>
      </trkpt>
      <trkpt lat="46.56558" lon="5.60695">
        <ele>523.4</ele>
        <time>2022-03-04T17:47:52Z</time>
      </trkpt>
      <trkpt lat="46.56561" lon="5.60692">
        <ele>523.6</ele>
        <time>2022-03-04T17:47:53Z</time>
      </trkpt>
      <trkpt lat="46.56564" lon="5.6069">
        <ele>523.6</ele>
        <time>2022-03-04T17:47:54Z</time>
      </trkpt>
      <trkpt lat="46.56568" lon="5.60688">
        <ele>523.6</ele>
        <time>2022-03-04T17:47:55Z</time>
      </trkpt>
      <trkpt lat="46.56571" lon="5.60685">
        <ele>523.6</ele>
        <time>2022-03-04T17:47:56Z</time>
      </trkpt>
      <trkpt lat="46.56575" lon="5.60683">
        <ele>523.6</ele>
        <time>2022-03-04T17:47:57Z</time>
      </trkpt>
      <trkpt lat="46.56578" lon="5.6068">
        <ele>523.6</ele>
        <time>2022-03-04T17:47:58Z</time>
      </trkpt>
      <trkpt lat="46.56582" lon="5.60678">
        <ele>523.6</ele>
        <time>2022-03-04T17:47:59Z</time>
      </trkpt>
      <trkpt lat="46.56585" lon="5.60676">
        <ele>523.6</ele>
        <time>2022-03-04T17:48:00Z</time>
      </trkpt>
      <trkpt lat="46.56589" lon="5.60673">
        <ele>523.6</ele>
        <time>2022-03-04T17:48:01Z</time>
      </trkpt>
      <trkpt lat="46.56592" lon="5.60671">
        <ele>523.6</ele>
        <time>2022-03-04T17:48:02Z</time>
      </trkpt>
      <trkpt lat="46.56595" lon="5.60668">
        <ele>523.6</ele>
        <time>2022-03-04T17:48:03Z</time>
      </trkpt>
      <trkpt lat="46.56599" lon="5.60666">
        <ele>523.6</ele>
        <time>2022-03-04T17:48:04Z</time>
      </trkpt>
      <trkpt lat="46.56602" lon="5.60663">
        <ele>523.6</ele>
        <time>2022-03-04T17:48:05Z</time>
      </trkpt>
      <trkpt lat="46.56605" lon="5.6066">
        <ele>523.6</ele>
        <time>2022-03-04T17:48:06Z</time>
      </trkpt>
      <trkpt lat="46.56609" lon="5.60657">
        <ele>523.6</ele>
        <time>2022-03-04T17:48:07Z</time>
      </trkpt>
      <trkpt lat="46.56612" lon="5.60655">
        <ele>523.6</ele>
        <time>2022-03-04T17:48:08Z</time>
      </trkpt>
      <trkpt lat="46.56616" lon="5.60653">
        <ele>523.6</ele>
        <time>2022-03-04T17:48:09Z</time>
      </trkpt>
      <trkpt lat="46.56619" lon="5.6065">
        <ele>523.6</ele>
        <time>2022-03-04T17:48:10Z</time>
      </trkpt>
      <trkpt lat="46.56622" lon="5.60647">
        <ele>523.6</ele>
        <time>2022-03-04T17:48:11Z</time>
      </trkpt>
      <trkpt lat="46.56626" lon="5.60644">
        <ele>523.8</ele>
        <time>2022-03-04T17:48:12Z</time>
      </trkpt>
      <trkpt lat="46.56629" lon="5.60642">
        <ele>523.8</ele>
        <time>2022-03-04T17:48:13Z</time>
      </trkpt>
      <trkpt lat="46.56632" lon="5.60639">
        <ele>523.8</ele>
        <time>2022-03-04T17:48:14Z</time>
      </trkpt>
      <trkpt lat="46.56635" lon="5.60637">
        <ele>523.8</ele>
        <time>2022-03-04T17:48:15Z</time>
      </trkpt>
      <trkpt lat="46.56638" lon="5.60634">
        <ele>524.2</ele>
        <time>2022-03-04T17:48:16Z</time>
      </trkpt>
      <trkpt lat="46.56641" lon="5.60632">
        <ele>524.2</ele>
        <time>2022-03-04T17:48:17Z</time>
      </trkpt>
      <trkpt lat="46.56643" lon="5.60629">
        <ele>524.4</ele>
        <time>2022-03-04T17:48:18Z</time>
      </trkpt>
      <trkpt lat="46.56646" lon="5.60626">
        <ele>524.4</ele>
        <time>2022-03-04T17:48:19Z</time>
      </trkpt>
      <trkpt lat="46.56649" lon="5.60624">
        <ele>524.8</ele>
        <time>2022-03-04T17:48:20Z</time>
      </trkpt>
      <trkpt lat="46.56652" lon="5.60622">
        <ele>524.8</ele>
        <time>2022-03-04T17:48:21Z</time>
      </trkpt>
      <trkpt lat="46.56654" lon="5.60619">
        <ele>525</ele>
        <time>2022-03-04T17:48:22Z</time>
      </trkpt>
      <trkpt lat="46.56657" lon="5.60617">
        <ele>525</ele>
        <time>2022-03-04T17:48:23Z</time>
      </trkpt>
      <trkpt lat="46.5666" lon="5.60615">
        <ele>525.2</ele>
        <time>2022-03-04T17:48:24Z</time>
      </trkpt>
      <trkpt lat="46.56663" lon="5.60614">
        <ele>525.4</ele>
        <time>2022-03-04T17:48:25Z</time>
      </trkpt>
      <trkpt lat="46.56666" lon="5.60612">
        <ele>525.4</ele>
        <time>2022-03-04T17:48:26Z</time>
      </trkpt>
      <trkpt lat="46.56669" lon="5.60611">
        <ele>525.8</ele>
        <time>2022-03-04T17:48:27Z</time>
      </trkpt>
      <trkpt lat="46.56672" lon="5.6061">
        <ele>525.8</ele>
        <time>2022-03-04T17:48:28Z</time>
      </trkpt>
      <trkpt lat="46.56675" lon="5.60608">
        <ele>526</ele>
        <time>2022-03-04T17:48:29Z</time>
      </trkpt>
      <trkpt lat="46.56678" lon="5.60607">
        <ele>526</ele>
        <time>2022-03-04T17:48:30Z</time>
      </trkpt>
      <trkpt lat="46.56681" lon="5.60606">
        <ele>526.2</ele>
        <time>2022-03-04T17:48:31Z</time>
      </trkpt>
      <trkpt lat="46.56684" lon="5.60605">
        <ele>526.2</ele>
        <time>2022-03-04T17:48:32Z</time>
      </trkpt>
      <trkpt lat="46.56687" lon="5.60603">
        <ele>526.6</ele>
        <time>2022-03-04T17:48:33Z</time>
      </trkpt>
      <trkpt lat="46.5669" lon="5.60603">
        <ele>526.6</ele>
        <time>2022-03-04T17:48:34Z</time>
      </trkpt>
      <trkpt lat="46.56693" lon="5.60602">
        <ele>526.6</ele>
        <time>2022-03-04T17:48:35Z</time>
      </trkpt>
      <trkpt lat="46.56695" lon="5.60601">
        <ele>527</ele>
        <time>2022-03-04T17:48:36Z</time>
      </trkpt>
      <trkpt lat="46.56698" lon="5.60601">
        <ele>527</ele>
        <time>2022-03-04T17:48:37Z</time>
      </trkpt>
      <trkpt lat="46.567" lon="5.60601">
        <ele>527.2</ele>
        <time>2022-03-04T17:48:38Z</time>
      </trkpt>
      <trkpt lat="46.56702" lon="5.606">
        <ele>527.2</ele>
        <time>2022-03-04T17:48:39Z</time>
      </trkpt>
      <trkpt lat="46.56704" lon="5.606">
        <ele>527.6</ele>
        <time>2022-03-04T17:48:40Z</time>
      </trkpt>
      <trkpt lat="46.56707" lon="5.60599">
        <ele>527.6</ele>
        <time>2022-03-04T17:48:41Z</time>
      </trkpt>
      <trkpt lat="46.56709" lon="5.60599">
        <ele>527.8</ele>
        <time>2022-03-04T17:48:42Z</time>
      </trkpt>
      <trkpt lat="46.56711" lon="5.60599">
        <ele>528</ele>
        <time>2022-03-04T17:48:43Z</time>
      </trkpt>
      <trkpt lat="46.56713" lon="5.60598">
        <ele>528.2</ele>
        <time>2022-03-04T17:48:44Z</time>
      </trkpt>
      <trkpt lat="46.56715" lon="5.60598">
        <ele>528.2</ele>
        <time>2022-03-04T17:48:45Z</time>
      </trkpt>
      <trkpt lat="46.56717" lon="5.60599">
        <ele>528.6</ele>
        <time>2022-03-04T17:48:46Z</time>
      </trkpt>
      <trkpt lat="46.56719" lon="5.60598">
        <ele>528.8</ele>
        <time>2022-03-04T17:48:47Z</time>
      </trkpt>
      <trkpt lat="46.56722" lon="5.60598">
        <ele>528.8</ele>
        <time>2022-03-04T17:48:48Z</time>
      </trkpt>
      <trkpt lat="46.56724" lon="5.60598">
        <ele>529.2</ele>
        <time>2022-03-04T17:48:49Z</time>
      </trkpt>
      <trkpt lat="46.56726" lon="5.60597">
        <ele>529.2</ele>
        <time>2022-03-04T17:48:50Z</time>
      </trkpt>
      <trkpt lat="46.56728" lon="5.60597">
        <ele>529.6</ele>
        <time>2022-03-04T17:48:51Z</time>
      </trkpt>
      <trkpt lat="46.56729" lon="5.60597">
        <ele>529.6</ele>
        <time>2022-03-04T17:48:52Z</time>
      </trkpt>
      <trkpt lat="46.56732" lon="5.60597">
        <ele>529.8</ele>
        <time>2022-03-04T17:48:53Z</time>
      </trkpt>
      <trkpt lat="46.56734" lon="5.60597">
        <ele>529.8</ele>
        <time>2022-03-04T17:48:54Z</time>
      </trkpt>
      <trkpt lat="46.56736" lon="5.60597">
        <ele>529.8</ele>
        <time>2022-03-04T17:48:55Z</time>
      </trkpt>
      <trkpt lat="46.56739" lon="5.60597">
        <ele>530</ele>
        <time>2022-03-04T17:48:56Z</time>
      </trkpt>
      <trkpt lat="46.56741" lon="5.60597">
        <ele>530</ele>
        <time>2022-03-04T17:48:57Z</time>
      </trkpt>
      <trkpt lat="46.56744" lon="5.60597">
        <ele>530</ele>
        <time>2022-03-04T17:48:58Z</time>
      </trkpt>
      <trkpt lat="46.56747" lon="5.60598">
        <ele>530.2</ele>
        <time>2022-03-04T17:48:59Z</time>
      </trkpt>
      <trkpt lat="46.5675" lon="5.60598">
        <ele>530.2</ele>
        <time>2022-03-04T17:49:00Z</time>
      </trkpt>
      <trkpt lat="46.56753" lon="5.60599">
        <ele>530.2</ele>
        <time>2022-03-04T17:49:01Z</time>
      </trkpt>
      <trkpt lat="46.56756" lon="5.60599">
        <ele>530.4</ele>
        <time>2022-03-04T17:49:02Z</time>
      </trkpt>
      <trkpt lat="46.56758" lon="5.606">
        <ele>530.4</ele>
        <time>2022-03-04T17:49:03Z</time>
      </trkpt>
      <trkpt lat="46.56761" lon="5.60601">
        <ele>530.4</ele>
        <time>2022-03-04T17:49:04Z</time>
      </trkpt>
      <trkpt lat="46.56764" lon="5.60602">
        <ele>530.4</ele>
        <time>2022-03-04T17:49:05Z</time>
      </trkpt>
      <trkpt lat="46.56767" lon="5.60604">
        <ele>530.4</ele>
        <time>2022-03-04T17:49:06Z</time>
      </trkpt>
      <trkpt lat="46.5677" lon="5.60605">
        <ele>530.6</ele>
        <time>2022-03-04T17:49:07Z</time>
      </trkpt>
      <trkpt lat="46.56774" lon="5.60606">
        <ele>530.6</ele>
        <time>2022-03-04T17:49:08Z</time>
      </trkpt>
      <trkpt lat="46.56777" lon="5.60607">
        <ele>531</ele>
        <time>2022-03-04T17:49:09Z</time>
      </trkpt>
      <trkpt lat="46.56781" lon="5.60608">
        <ele>531</ele>
        <time>2022-03-04T17:49:10Z</time>
      </trkpt>
      <trkpt lat="46.56784" lon="5.60609">
        <ele>531</ele>
        <time>2022-03-04T17:49:11Z</time>
      </trkpt>
      <trkpt lat="46.56788" lon="5.6061">
        <ele>531</ele>
        <time>2022-03-04T17:49:12Z</time>
      </trkpt>
      <trkpt lat="46.56791" lon="5.60611">
        <ele>531.2</ele>
        <time>2022-03-04T17:49:13Z</time>
      </trkpt>
      <trkpt lat="46.56795" lon="5.60613">
        <ele>531.2</ele>
        <time>2022-03-04T17:49:14Z</time>
      </trkpt>
      <trkpt lat="46.56799" lon="5.60614">
        <ele>531.2</ele>
        <time>2022-03-04T17:49:15Z</time>
      </trkpt>
      <trkpt lat="46.56803" lon="5.60615">
        <ele>531.2</ele>
        <time>2022-03-04T17:49:16Z</time>
      </trkpt>
      <trkpt lat="46.56806" lon="5.60617">
        <ele>531.2</ele>
        <time>2022-03-04T17:49:17Z</time>
      </trkpt>
      <trkpt lat="46.56809" lon="5.60618">
        <ele>531.4</ele>
        <time>2022-03-04T17:49:18Z</time>
      </trkpt>
      <trkpt lat="46.56812" lon="5.6062">
        <ele>531.4</ele>
        <time>2022-03-04T17:49:19Z</time>
      </trkpt>
      <trkpt lat="46.56816" lon="5.60621">
        <ele>531.4</ele>
        <time>2022-03-04T17:49:20Z</time>
      </trkpt>
      <trkpt lat="46.56819" lon="5.60623">
        <ele>531.4</ele>
        <time>2022-03-04T17:49:21Z</time>
      </trkpt>
      <trkpt lat="46.56822" lon="5.60624">
        <ele>531.6</ele>
        <time>2022-03-04T17:49:22Z</time>
      </trkpt>
      <trkpt lat="46.56825" lon="5.60626">
        <ele>531.6</ele>
        <time>2022-03-04T17:49:23Z</time>
      </trkpt>
      <trkpt lat="46.56828" lon="5.60628">
        <ele>531.8</ele>
        <time>2022-03-04T17:49:24Z</time>
      </trkpt>
      <trkpt lat="46.56831" lon="5.6063">
        <ele>531.8</ele>
        <time>2022-03-04T17:49:25Z</time>
      </trkpt>
      <trkpt lat="46.56834" lon="5.60632">
        <ele>532</ele>
        <time>2022-03-04T17:49:26Z</time>
      </trkpt>
      <trkpt lat="46.56837" lon="5.60634">
        <ele>532</ele>
        <time>2022-03-04T17:49:27Z</time>
      </trkpt>
      <trkpt lat="46.5684" lon="5.60636">
        <ele>532</ele>
        <time>2022-03-04T17:49:28Z</time>
      </trkpt>
      <trkpt lat="46.56844" lon="5.60638">
        <ele>532.4</ele>
        <time>2022-03-04T17:49:29Z</time>
      </trkpt>
      <trkpt lat="46.56847" lon="5.6064">
        <ele>532.4</ele>
        <time>2022-03-04T17:49:30Z</time>
      </trkpt>
      <trkpt lat="46.5685" lon="5.60642">
        <ele>532.6</ele>
        <time>2022-03-04T17:49:31Z</time>
      </trkpt>
      <trkpt lat="46.56854" lon="5.60644">
        <ele>532.6</ele>
        <time>2022-03-04T17:49:32Z</time>
      </trkpt>
      <trkpt lat="46.56857" lon="5.60646">
        <ele>532.6</ele>
        <time>2022-03-04T17:49:33Z</time>
      </trkpt>
      <trkpt lat="46.56861" lon="5.60648">
        <ele>532.6</ele>
        <time>2022-03-04T17:49:34Z</time>
      </trkpt>
      <trkpt lat="46.56864" lon="5.60648">
        <ele>532.8</ele>
        <time>2022-03-04T17:49:35Z</time>
      </trkpt>
      <trkpt lat="46.56868" lon="5.60647">
        <ele>532.8</ele>
        <time>2022-03-04T17:49:36Z</time>
      </trkpt>
      <trkpt lat="46.56871" lon="5.60645">
        <ele>532.8</ele>
        <time>2022-03-04T17:49:37Z</time>
      </trkpt>
      <trkpt lat="46.56874" lon="5.60642">
        <ele>533</ele>
        <time>2022-03-04T17:49:38Z</time>
      </trkpt>
      <trkpt lat="46.56876" lon="5.60638">
        <ele>533.4</ele>
        <time>2022-03-04T17:49:39Z</time>
      </trkpt>
      <trkpt lat="46.56877" lon="5.60629">
        <ele>533.4</ele>
        <time>2022-03-04T17:49:40Z</time>
      </trkpt>
      <trkpt lat="46.56876" lon="5.60625">
        <ele>533.6</ele>
        <time>2022-03-04T17:49:41Z</time>
      </trkpt>
      <trkpt lat="46.56876" lon="5.6062">
        <ele>533.6</ele>
        <time>2022-03-04T17:49:42Z</time>
      </trkpt>
      <trkpt lat="46.56876" lon="5.60616">
        <ele>533.8</ele>
        <time>2022-03-04T17:49:43Z</time>
      </trkpt>
      <trkpt lat="46.56876" lon="5.60612">
        <ele>533.8</ele>
        <time>2022-03-04T17:49:44Z</time>
      </trkpt>
      <trkpt lat="46.56875" lon="5.60609">
        <ele>534.2</ele>
        <time>2022-03-04T17:49:45Z</time>
      </trkpt>
      <trkpt lat="46.56875" lon="5.60605">
        <ele>534.2</ele>
        <time>2022-03-04T17:49:46Z</time>
      </trkpt>
      <trkpt lat="46.56875" lon="5.60601">
        <ele>534.2</ele>
        <time>2022-03-04T17:49:47Z</time>
      </trkpt>
      <trkpt lat="46.56875" lon="5.60597">
        <ele>534.6</ele>
        <time>2022-03-04T17:49:48Z</time>
      </trkpt>
      <trkpt lat="46.56874" lon="5.60594">
        <ele>534.6</ele>
        <time>2022-03-04T17:49:49Z</time>
      </trkpt>
      <trkpt lat="46.56874" lon="5.6059">
        <ele>535</ele>
        <time>2022-03-04T17:49:50Z</time>
      </trkpt>
      <trkpt lat="46.56873" lon="5.60586">
        <ele>535</ele>
        <time>2022-03-04T17:49:51Z</time>
      </trkpt>
      <trkpt lat="46.56872" lon="5.60583">
        <ele>535.2</ele>
        <time>2022-03-04T17:49:52Z</time>
      </trkpt>
      <trkpt lat="46.56872" lon="5.60579">
        <ele>535.2</ele>
        <time>2022-03-04T17:49:53Z</time>
      </trkpt>
      <trkpt lat="46.56872" lon="5.60576">
        <ele>535.6</ele>
        <time>2022-03-04T17:49:54Z</time>
      </trkpt>
      <trkpt lat="46.56873" lon="5.60572">
        <ele>535.6</ele>
        <time>2022-03-04T17:49:55Z</time>
      </trkpt>
      <trkpt lat="46.56873" lon="5.60569">
        <ele>535.8</ele>
        <time>2022-03-04T17:49:56Z</time>
      </trkpt>
      <trkpt lat="46.56873" lon="5.60565">
        <ele>535.8</ele>
        <time>2022-03-04T17:49:57Z</time>
      </trkpt>
      <trkpt lat="46.56873" lon="5.60562">
        <ele>536.4</ele>
        <time>2022-03-04T17:49:58Z</time>
      </trkpt>
      <trkpt lat="46.56873" lon="5.60558">
        <ele>536.6</ele>
        <time>2022-03-04T17:49:59Z</time>
      </trkpt>
      <trkpt lat="46.56873" lon="5.60555">
        <ele>536.6</ele>
        <time>2022-03-04T17:50:00Z</time>
      </trkpt>
      <trkpt lat="46.56873" lon="5.60551">
        <ele>537</ele>
        <time>2022-03-04T17:50:01Z</time>
      </trkpt>
      <trkpt lat="46.56872" lon="5.60548">
        <ele>537.2</ele>
        <time>2022-03-04T17:50:02Z</time>
      </trkpt>
      <trkpt lat="46.56872" lon="5.60544">
        <ele>537.6</ele>
        <time>2022-03-04T17:50:03Z</time>
      </trkpt>
      <trkpt lat="46.56871" lon="5.60541">
        <ele>537.8</ele>
        <time>2022-03-04T17:50:04Z</time>
      </trkpt>
      <trkpt lat="46.56871" lon="5.60538">
        <ele>538</ele>
        <time>2022-03-04T17:50:05Z</time>
      </trkpt>
      <trkpt lat="46.5687" lon="5.60535">
        <ele>538</ele>
        <time>2022-03-04T17:50:06Z</time>
      </trkpt>
      <trkpt lat="46.56869" lon="5.60531">
        <ele>538.4</ele>
        <time>2022-03-04T17:50:07Z</time>
      </trkpt>
      <trkpt lat="46.56868" lon="5.60529">
        <ele>538.6</ele>
        <time>2022-03-04T17:50:08Z</time>
      </trkpt>
      <trkpt lat="46.56867" lon="5.60526">
        <ele>538.6</ele>
        <time>2022-03-04T17:50:09Z</time>
      </trkpt>
      <trkpt lat="46.56866" lon="5.60523">
        <ele>539</ele>
        <time>2022-03-04T17:50:10Z</time>
      </trkpt>
      <trkpt lat="46.56865" lon="5.6052">
        <ele>539</ele>
        <time>2022-03-04T17:50:11Z</time>
      </trkpt>
      <trkpt lat="46.56863" lon="5.60518">
        <ele>539.2</ele>
        <time>2022-03-04T17:50:12Z</time>
      </trkpt>
      <trkpt lat="46.56862" lon="5.60516">
        <ele>539.2</ele>
        <time>2022-03-04T17:50:13Z</time>
      </trkpt>
      <trkpt lat="46.5686" lon="5.60514">
        <ele>539.6</ele>
        <time>2022-03-04T17:50:14Z</time>
      </trkpt>
      <trkpt lat="46.56858" lon="5.60512">
        <ele>539.8</ele>
        <time>2022-03-04T17:50:15Z</time>
      </trkpt>
      <trkpt lat="46.56856" lon="5.6051">
        <ele>539.8</ele>
        <time>2022-03-04T17:50:16Z</time>
      </trkpt>
      <trkpt lat="46.56855" lon="5.60508">
        <ele>540.2</ele>
        <time>2022-03-04T17:50:17Z</time>
      </trkpt>
      <trkpt lat="46.56853" lon="5.60505">
        <ele>540.2</ele>
        <time>2022-03-04T17:50:18Z</time>
      </trkpt>
      <trkpt lat="46.56852" lon="5.60503">
        <ele>540.6</ele>
        <time>2022-03-04T17:50:19Z</time>
      </trkpt>
      <trkpt lat="46.5685" lon="5.60501">
        <ele>540.8</ele>
        <time>2022-03-04T17:50:20Z</time>
      </trkpt>
      <trkpt lat="46.56849" lon="5.60499">
        <ele>541</ele>
        <time>2022-03-04T17:50:21Z</time>
      </trkpt>
      <trkpt lat="46.56847" lon="5.60497">
        <ele>541</ele>
        <time>2022-03-04T17:50:22Z</time>
      </trkpt>
      <trkpt lat="46.56846" lon="5.60494">
        <ele>541.4</ele>
        <time>2022-03-04T17:50:23Z</time>
      </trkpt>
      <trkpt lat="46.56845" lon="5.60492">
        <ele>541.4</ele>
        <time>2022-03-04T17:50:24Z</time>
      </trkpt>
      <trkpt lat="46.56844" lon="5.60489">
        <ele>541.8</ele>
        <time>2022-03-04T17:50:25Z</time>
      </trkpt>
      <trkpt lat="46.56843" lon="5.60486">
        <ele>542</ele>
        <time>2022-03-04T17:50:26Z</time>
      </trkpt>
      <trkpt lat="46.56842" lon="5.60484">
        <ele>542</ele>
        <time>2022-03-04T17:50:27Z</time>
      </trkpt>
      <trkpt lat="46.56842" lon="5.60481">
        <ele>542.4</ele>
        <time>2022-03-04T17:50:28Z</time>
      </trkpt>
      <trkpt lat="46.56843" lon="5.60479">
        <ele>542.6</ele>
        <time>2022-03-04T17:50:29Z</time>
      </trkpt>
      <trkpt lat="46.56843" lon="5.60476">
        <ele>542.8</ele>
        <time>2022-03-04T17:50:30Z</time>
      </trkpt>
      <trkpt lat="46.56844" lon="5.60474">
        <ele>542.8</ele>
        <time>2022-03-04T17:50:31Z</time>
      </trkpt>
      <trkpt lat="46.56845" lon="5.60472">
        <ele>543.2</ele>
        <time>2022-03-04T17:50:32Z</time>
      </trkpt>
      <trkpt lat="46.56847" lon="5.6047">
        <ele>543.2</ele>
        <time>2022-03-04T17:50:33Z</time>
      </trkpt>
      <trkpt lat="46.56849" lon="5.60468">
        <ele>543.6</ele>
        <time>2022-03-04T17:50:34Z</time>
      </trkpt>
      <trkpt lat="46.5685" lon="5.60466">
        <ele>543.6</ele>
        <time>2022-03-04T17:50:35Z</time>
      </trkpt>
      <trkpt lat="46.56852" lon="5.60463">
        <ele>543.8</ele>
        <time>2022-03-04T17:50:36Z</time>
      </trkpt>
      <trkpt lat="46.56853" lon="5.60461">
        <ele>543.8</ele>
        <time>2022-03-04T17:50:37Z</time>
      </trkpt>
      <trkpt lat="46.56855" lon="5.60458">
        <ele>544.2</ele>
        <time>2022-03-04T17:50:38Z</time>
      </trkpt>
      <trkpt lat="46.56856" lon="5.60456">
        <ele>544.2</ele>
        <time>2022-03-04T17:50:39Z</time>
      </trkpt>
      <trkpt lat="46.56858" lon="5.60454">
        <ele>544.4</ele>
        <time>2022-03-04T17:50:40Z</time>
      </trkpt>
      <trkpt lat="46.56859" lon="5.60451">
        <ele>544.4</ele>
        <time>2022-03-04T17:50:41Z</time>
      </trkpt>
      <trkpt lat="46.5686" lon="5.60449">
        <ele>544.6</ele>
        <time>2022-03-04T17:50:42Z</time>
      </trkpt>
      <trkpt lat="46.56862" lon="5.60447">
        <ele>544.8</ele>
        <time>2022-03-04T17:50:43Z</time>
      </trkpt>
      <trkpt lat="46.56863" lon="5.60445">
        <ele>544.8</ele>
        <time>2022-03-04T17:50:44Z</time>
      </trkpt>
      <trkpt lat="46.56865" lon="5.60443">
        <ele>545.2</ele>
        <time>2022-03-04T17:50:45Z</time>
      </trkpt>
      <trkpt lat="46.56866" lon="5.60441">
        <ele>545.2</ele>
        <time>2022-03-04T17:50:46Z</time>
      </trkpt>
      <trkpt lat="46.56868" lon="5.60439">
        <ele>545.4</ele>
        <time>2022-03-04T17:50:47Z</time>
      </trkpt>
      <trkpt lat="46.56869" lon="5.60437">
        <ele>545.4</ele>
        <time>2022-03-04T17:50:48Z</time>
      </trkpt>
      <trkpt lat="46.5687" lon="5.60434">
        <ele>545.8</ele>
        <time>2022-03-04T17:50:49Z</time>
      </trkpt>
      <trkpt lat="46.56871" lon="5.60431">
        <ele>545.8</ele>
        <time>2022-03-04T17:50:50Z</time>
      </trkpt>
      <trkpt lat="46.56873" lon="5.60429">
        <ele>546</ele>
        <time>2022-03-04T17:50:51Z</time>
      </trkpt>
      <trkpt lat="46.56875" lon="5.60427">
        <ele>546</ele>
        <time>2022-03-04T17:50:52Z</time>
      </trkpt>
      <trkpt lat="46.56877" lon="5.60426">
        <ele>546.4</ele>
        <time>2022-03-04T17:50:53Z</time>
      </trkpt>
      <trkpt lat="46.56878" lon="5.60425">
        <ele>546.4</ele>
        <time>2022-03-04T17:50:54Z</time>
      </trkpt>
      <trkpt lat="46.5688" lon="5.60424">
        <ele>546.6</ele>
        <time>2022-03-04T17:50:55Z</time>
      </trkpt>
      <trkpt lat="46.56881" lon="5.60422">
        <ele>546.8</ele>
        <time>2022-03-04T17:50:56Z</time>
      </trkpt>
      <trkpt lat="46.56883" lon="5.60421">
        <ele>547.2</ele>
        <time>2022-03-04T17:50:57Z</time>
      </trkpt>
      <trkpt lat="46.56884" lon="5.6042">
        <ele>547.2</ele>
        <time>2022-03-04T17:50:58Z</time>
      </trkpt>
      <trkpt lat="46.56886" lon="5.60418">
        <ele>547.4</ele>
        <time>2022-03-04T17:50:59Z</time>
      </trkpt>
      <trkpt lat="46.56887" lon="5.60417">
        <ele>547.6</ele>
        <time>2022-03-04T17:51:00Z</time>
      </trkpt>
      <trkpt lat="46.56889" lon="5.60416">
        <ele>547.6</ele>
        <time>2022-03-04T17:51:01Z</time>
      </trkpt>
      <trkpt lat="46.56889" lon="5.60416">
        <ele>548</ele>
        <time>2022-03-04T17:51:02Z</time>
      </trkpt>
      <trkpt lat="46.56891" lon="5.60415">
        <ele>548</ele>
        <time>2022-03-04T17:51:03Z</time>
      </trkpt>
      <trkpt lat="46.56893" lon="5.60414">
        <ele>548.4</ele>
        <time>2022-03-04T17:51:04Z</time>
      </trkpt>
      <trkpt lat="46.56895" lon="5.60413">
        <ele>548.4</ele>
        <time>2022-03-04T17:51:05Z</time>
      </trkpt>
      <trkpt lat="46.56897" lon="5.60413">
        <ele>548.6</ele>
        <time>2022-03-04T17:51:06Z</time>
      </trkpt>
      <trkpt lat="46.56899" lon="5.60412">
        <ele>548.8</ele>
        <time>2022-03-04T17:51:07Z</time>
      </trkpt>
      <trkpt lat="46.56901" lon="5.60412">
        <ele>548.8</ele>
        <time>2022-03-04T17:51:08Z</time>
      </trkpt>
      <trkpt lat="46.56903" lon="5.60411">
        <ele>549.2</ele>
        <time>2022-03-04T17:51:09Z</time>
      </trkpt>
      <trkpt lat="46.56905" lon="5.60411">
        <ele>549.2</ele>
        <time>2022-03-04T17:51:10Z</time>
      </trkpt>
      <trkpt lat="46.56907" lon="5.6041">
        <ele>549.4</ele>
        <time>2022-03-04T17:51:11Z</time>
      </trkpt>
      <trkpt lat="46.56909" lon="5.6041">
        <ele>549.4</ele>
        <time>2022-03-04T17:51:12Z</time>
      </trkpt>
      <trkpt lat="46.56911" lon="5.6041">
        <ele>549.4</ele>
        <time>2022-03-04T17:51:13Z</time>
      </trkpt>
      <trkpt lat="46.56914" lon="5.6041">
        <ele>549.8</ele>
        <time>2022-03-04T17:51:14Z</time>
      </trkpt>
      <trkpt lat="46.56916" lon="5.6041">
        <ele>549.8</ele>
        <time>2022-03-04T17:51:15Z</time>
      </trkpt>
      <trkpt lat="46.56918" lon="5.6041">
        <ele>549.8</ele>
        <time>2022-03-04T17:51:16Z</time>
      </trkpt>
      <trkpt lat="46.5692" lon="5.6041">
        <ele>550</ele>
        <time>2022-03-04T17:51:17Z</time>
      </trkpt>
      <trkpt lat="46.56922" lon="5.60411">
        <ele>550</ele>
        <time>2022-03-04T17:51:18Z</time>
      </trkpt>
      <trkpt lat="46.56924" lon="5.60411">
        <ele>550.2</ele>
        <time>2022-03-04T17:51:19Z</time>
      </trkpt>
      <trkpt lat="46.56926" lon="5.60411">
        <ele>550.2</ele>
        <time>2022-03-04T17:51:20Z</time>
      </trkpt>
      <trkpt lat="46.56928" lon="5.60411">
        <ele>550.6</ele>
        <time>2022-03-04T17:51:21Z</time>
      </trkpt>
      <trkpt lat="46.5693" lon="5.60412">
        <ele>550.6</ele>
        <time>2022-03-04T17:51:22Z</time>
      </trkpt>
      <trkpt lat="46.56932" lon="5.60412">
        <ele>550.6</ele>
        <time>2022-03-04T17:51:23Z</time>
      </trkpt>
      <trkpt lat="46.56934" lon="5.60412">
        <ele>550.8</ele>
        <time>2022-03-04T17:51:24Z</time>
      </trkpt>
      <trkpt lat="46.56936" lon="5.60412">
        <ele>550.8</ele>
        <time>2022-03-04T17:51:25Z</time>
      </trkpt>
      <trkpt lat="46.56938" lon="5.60412">
        <ele>550.8</ele>
        <time>2022-03-04T17:51:26Z</time>
      </trkpt>
      <trkpt lat="46.5694" lon="5.60412">
        <ele>551</ele>
        <time>2022-03-04T17:51:27Z</time>
      </trkpt>
      <trkpt lat="46.56942" lon="5.60413">
        <ele>551</ele>
        <time>2022-03-04T17:51:28Z</time>
      </trkpt>
      <trkpt lat="46.56944" lon="5.60413">
        <ele>551.2</ele>
        <time>2022-03-04T17:51:29Z</time>
      </trkpt>
      <trkpt lat="46.56946" lon="5.60413">
        <ele>551.2</ele>
        <time>2022-03-04T17:51:30Z</time>
      </trkpt>
      <trkpt lat="46.56948" lon="5.60414">
        <ele>551.2</ele>
        <time>2022-03-04T17:51:31Z</time>
      </trkpt>
      <trkpt lat="46.5695" lon="5.60414">
        <ele>551.2</ele>
        <time>2022-03-04T17:51:32Z</time>
      </trkpt>
      <trkpt lat="46.56952" lon="5.60415">
        <ele>551.2</ele>
        <time>2022-03-04T17:51:33Z</time>
      </trkpt>
      <trkpt lat="46.56954" lon="5.60415">
        <ele>551.2</ele>
        <time>2022-03-04T17:51:34Z</time>
      </trkpt>
      <trkpt lat="46.56956" lon="5.60416">
        <ele>551.6</ele>
        <time>2022-03-04T17:51:35Z</time>
      </trkpt>
      <trkpt lat="46.56958" lon="5.60416">
        <ele>551.6</ele>
        <time>2022-03-04T17:51:36Z</time>
      </trkpt>
      <trkpt lat="46.5696" lon="5.60417">
        <ele>551.6</ele>
        <time>2022-03-04T17:51:37Z</time>
      </trkpt>
      <trkpt lat="46.56963" lon="5.60418">
        <ele>551.8</ele>
        <time>2022-03-04T17:51:38Z</time>
      </trkpt>
      <trkpt lat="46.56965" lon="5.60418">
        <ele>551.8</ele>
        <time>2022-03-04T17:51:39Z</time>
      </trkpt>
      <trkpt lat="46.56967" lon="5.60418">
        <ele>551.8</ele>
        <time>2022-03-04T17:51:40Z</time>
      </trkpt>
      <trkpt lat="46.5697" lon="5.60417">
        <ele>552</ele>
        <time>2022-03-04T17:51:41Z</time>
      </trkpt>
      <trkpt lat="46.56972" lon="5.60417">
        <ele>552</ele>
        <time>2022-03-04T17:51:42Z</time>
      </trkpt>
      <trkpt lat="46.56974" lon="5.60417">
        <ele>552.2</ele>
        <time>2022-03-04T17:51:43Z</time>
      </trkpt>
      <trkpt lat="46.56977" lon="5.60417">
        <ele>552.6</ele>
        <time>2022-03-04T17:51:44Z</time>
      </trkpt>
      <trkpt lat="46.56979" lon="5.60417">
        <ele>552.8</ele>
        <time>2022-03-04T17:51:45Z</time>
      </trkpt>
      <trkpt lat="46.56982" lon="5.60417">
        <ele>552.8</ele>
        <time>2022-03-04T17:51:46Z</time>
      </trkpt>
      <trkpt lat="46.56984" lon="5.60417">
        <ele>553</ele>
        <time>2022-03-04T17:51:47Z</time>
      </trkpt>
      <trkpt lat="46.56986" lon="5.60417">
        <ele>553</ele>
        <time>2022-03-04T17:51:48Z</time>
      </trkpt>
      <trkpt lat="46.56988" lon="5.60418">
        <ele>553.4</ele>
        <time>2022-03-04T17:51:49Z</time>
      </trkpt>
      <trkpt lat="46.5699" lon="5.60418">
        <ele>553.4</ele>
        <time>2022-03-04T17:51:50Z</time>
      </trkpt>
      <trkpt lat="46.56992" lon="5.60418">
        <ele>553.8</ele>
        <time>2022-03-04T17:51:51Z</time>
      </trkpt>
      <trkpt lat="46.56994" lon="5.60418">
        <ele>553.8</ele>
        <time>2022-03-04T17:51:52Z</time>
      </trkpt>
      <trkpt lat="46.56996" lon="5.60418">
        <ele>554</ele>
        <time>2022-03-04T17:51:53Z</time>
      </trkpt>
      <trkpt lat="46.56998" lon="5.60419">
        <ele>554</ele>
        <time>2022-03-04T17:51:54Z</time>
      </trkpt>
      <trkpt lat="46.57" lon="5.60419">
        <ele>554.4</ele>
        <time>2022-03-04T17:51:55Z</time>
      </trkpt>
      <trkpt lat="46.57002" lon="5.60419">
        <ele>554.4</ele>
        <time>2022-03-04T17:51:56Z</time>
      </trkpt>
      <trkpt lat="46.57004" lon="5.60419">
        <ele>554.6</ele>
        <time>2022-03-04T17:51:57Z</time>
      </trkpt>
      <trkpt lat="46.57006" lon="5.60419">
        <ele>554.6</ele>
        <time>2022-03-04T17:51:58Z</time>
      </trkpt>
      <trkpt lat="46.57008" lon="5.60419">
        <ele>555</ele>
        <time>2022-03-04T17:51:59Z</time>
      </trkpt>
      <trkpt lat="46.5701" lon="5.60419">
        <ele>555</ele>
        <time>2022-03-04T17:52:00Z</time>
      </trkpt>
      <trkpt lat="46.57012" lon="5.6042">
        <ele>555.2</ele>
        <time>2022-03-04T17:52:01Z</time>
      </trkpt>
      <trkpt lat="46.57013" lon="5.6042">
        <ele>555.2</ele>
        <time>2022-03-04T17:52:02Z</time>
      </trkpt>
      <trkpt lat="46.57015" lon="5.6042">
        <ele>555.4</ele>
        <time>2022-03-04T17:52:03Z</time>
      </trkpt>
      <trkpt lat="46.57017" lon="5.6042">
        <ele>555.4</ele>
        <time>2022-03-04T17:52:04Z</time>
      </trkpt>
      <trkpt lat="46.57019" lon="5.60421">
        <ele>555.8</ele>
        <time>2022-03-04T17:52:05Z</time>
      </trkpt>
      <trkpt lat="46.57021" lon="5.60421">
        <ele>555.8</ele>
        <time>2022-03-04T17:52:06Z</time>
      </trkpt>
      <trkpt lat="46.57023" lon="5.60421">
        <ele>556</ele>
        <time>2022-03-04T17:52:07Z</time>
      </trkpt>
      <trkpt lat="46.57025" lon="5.60421">
        <ele>556</ele>
        <time>2022-03-04T17:52:08Z</time>
      </trkpt>
      <trkpt lat="46.57026" lon="5.60421">
        <ele>556.2</ele>
        <time>2022-03-04T17:52:09Z</time>
      </trkpt>
      <trkpt lat="46.57028" lon="5.60421">
        <ele>556.2</ele>
        <time>2022-03-04T17:52:10Z</time>
      </trkpt>
      <trkpt lat="46.57031" lon="5.60421">
        <ele>556.6</ele>
        <time>2022-03-04T17:52:11Z</time>
      </trkpt>
      <trkpt lat="46.57033" lon="5.60421">
        <ele>556.6</ele>
        <time>2022-03-04T17:52:12Z</time>
      </trkpt>
      <trkpt lat="46.57034" lon="5.60421">
        <ele>556.6</ele>
        <time>2022-03-04T17:52:13Z</time>
      </trkpt>
      <trkpt lat="46.57036" lon="5.60421">
        <ele>556.6</ele>
        <time>2022-03-04T17:52:14Z</time>
      </trkpt>
      <trkpt lat="46.57037" lon="5.60421">
        <ele>556.8</ele>
        <time>2022-03-04T17:52:15Z</time>
      </trkpt>
      <trkpt lat="46.57039" lon="5.60421">
        <ele>556.8</ele>
        <time>2022-03-04T17:52:16Z</time>
      </trkpt>
      <trkpt lat="46.5704" lon="5.60421">
        <ele>557.2</ele>
        <time>2022-03-04T17:52:17Z</time>
      </trkpt>
      <trkpt lat="46.57042" lon="5.60421">
        <ele>558</ele>
        <time>2022-03-04T17:52:22Z</time>
      </trkpt>
      <trkpt lat="46.57043" lon="5.60421">
        <ele>558</ele>
        <time>2022-03-04T17:52:23Z</time>
      </trkpt>
      <trkpt lat="46.57049" lon="5.6042">
        <ele>558.4</ele>
        <time>2022-03-04T17:52:24Z</time>
      </trkpt>
      <trkpt lat="46.57051" lon="5.6042">
        <ele>558.4</ele>
        <time>2022-03-04T17:52:25Z</time>
      </trkpt>
      <trkpt lat="46.57053" lon="5.6042">
        <ele>558.6</ele>
        <time>2022-03-04T17:52:26Z</time>
      </trkpt>
      <trkpt lat="46.57055" lon="5.6042">
        <ele>558.6</ele>
        <time>2022-03-04T17:52:27Z</time>
      </trkpt>
      <trkpt lat="46.57057" lon="5.6042">
        <ele>558.6</ele>
        <time>2022-03-04T17:52:28Z</time>
      </trkpt>
      <trkpt lat="46.57059" lon="5.6042">
        <ele>559</ele>
        <time>2022-03-04T17:52:29Z</time>
      </trkpt>
      <trkpt lat="46.57061" lon="5.60421">
        <ele>559</ele>
        <time>2022-03-04T17:52:30Z</time>
      </trkpt>
      <trkpt lat="46.57063" lon="5.60422">
        <ele>559</ele>
        <time>2022-03-04T17:52:31Z</time>
      </trkpt>
      <trkpt lat="46.57066" lon="5.60423">
        <ele>559.4</ele>
        <time>2022-03-04T17:52:32Z</time>
      </trkpt>
      <trkpt lat="46.57068" lon="5.60424">
        <ele>559.4</ele>
        <time>2022-03-04T17:52:33Z</time>
      </trkpt>
      <trkpt lat="46.5707" lon="5.60425">
        <ele>559.6</ele>
        <time>2022-03-04T17:52:34Z</time>
      </trkpt>
      <trkpt lat="46.57072" lon="5.60426">
        <ele>559.6</ele>
        <time>2022-03-04T17:52:35Z</time>
      </trkpt>
      <trkpt lat="46.57075" lon="5.60426">
        <ele>559.6</ele>
        <time>2022-03-04T17:52:36Z</time>
      </trkpt>
      <trkpt lat="46.57077" lon="5.60426">
        <ele>559.8</ele>
        <time>2022-03-04T17:52:37Z</time>
      </trkpt>
      <trkpt lat="46.57079" lon="5.60426">
        <ele>559.8</ele>
        <time>2022-03-04T17:52:38Z</time>
      </trkpt>
      <trkpt lat="46.57082" lon="5.60426">
        <ele>559.8</ele>
        <time>2022-03-04T17:52:39Z</time>
      </trkpt>
      <trkpt lat="46.57085" lon="5.60425">
        <ele>559.8</ele>
        <time>2022-03-04T17:52:40Z</time>
      </trkpt>
      <trkpt lat="46.57088" lon="5.60425">
        <ele>559.8</ele>
        <time>2022-03-04T17:52:41Z</time>
      </trkpt>
      <trkpt lat="46.57091" lon="5.60426">
        <ele>559.8</ele>
        <time>2022-03-04T17:52:42Z</time>
      </trkpt>
      <trkpt lat="46.57094" lon="5.60426">
        <ele>559.6</ele>
        <time>2022-03-04T17:52:43Z</time>
      </trkpt>
      <trkpt lat="46.57097" lon="5.60427">
        <ele>559.4</ele>
        <time>2022-03-04T17:52:44Z</time>
      </trkpt>
      <trkpt lat="46.57101" lon="5.60427">
        <ele>559.4</ele>
        <time>2022-03-04T17:52:45Z</time>
      </trkpt>
      <trkpt lat="46.57104" lon="5.60428">
        <ele>559.2</ele>
        <time>2022-03-04T17:52:46Z</time>
      </trkpt>
      <trkpt lat="46.57109" lon="5.60429">
        <ele>559.2</ele>
        <time>2022-03-04T17:52:47Z</time>
      </trkpt>
      <trkpt lat="46.57113" lon="5.60429">
        <ele>559</ele>
        <time>2022-03-04T17:52:48Z</time>
      </trkpt>
      <trkpt lat="46.57117" lon="5.60429">
        <ele>558.6</ele>
        <time>2022-03-04T17:52:49Z</time>
      </trkpt>
      <trkpt lat="46.5712" lon="5.6043">
        <ele>558.6</ele>
        <time>2022-03-04T17:52:50Z</time>
      </trkpt>
      <trkpt lat="46.57125" lon="5.60432">
        <ele>558.6</ele>
        <time>2022-03-04T17:52:51Z</time>
      </trkpt>
      <trkpt lat="46.57129" lon="5.60433">
        <ele>558.4</ele>
        <time>2022-03-04T17:52:52Z</time>
      </trkpt>
      <trkpt lat="46.57133" lon="5.60435">
        <ele>558.4</ele>
        <time>2022-03-04T17:52:53Z</time>
      </trkpt>
      <trkpt lat="46.57137" lon="5.60436">
        <ele>558.4</ele>
        <time>2022-03-04T17:52:54Z</time>
      </trkpt>
      <trkpt lat="46.57141" lon="5.60438">
        <ele>558.2</ele>
        <time>2022-03-04T17:52:55Z</time>
      </trkpt>
      <trkpt lat="46.57144" lon="5.60439">
        <ele>558.2</ele>
        <time>2022-03-04T17:52:56Z</time>
      </trkpt>
      <trkpt lat="46.57148" lon="5.60441">
        <ele>558</ele>
        <time>2022-03-04T17:52:57Z</time>
      </trkpt>
      <trkpt lat="46.57151" lon="5.60443">
        <ele>558</ele>
        <time>2022-03-04T17:52:58Z</time>
      </trkpt>
      <trkpt lat="46.57154" lon="5.60445">
        <ele>558</ele>
        <time>2022-03-04T17:52:59Z</time>
      </trkpt>
      <trkpt lat="46.57156" lon="5.60447">
        <ele>557.8</ele>
        <time>2022-03-04T17:53:00Z</time>
      </trkpt>
      <trkpt lat="46.57159" lon="5.60448">
        <ele>557.8</ele>
        <time>2022-03-04T17:53:01Z</time>
      </trkpt>
      <trkpt lat="46.57161" lon="5.60451">
        <ele>557.8</ele>
        <time>2022-03-04T17:53:02Z</time>
      </trkpt>
      <trkpt lat="46.57163" lon="5.60453">
        <ele>557.8</ele>
        <time>2022-03-04T17:53:03Z</time>
      </trkpt>
      <trkpt lat="46.57165" lon="5.60455">
        <ele>557.8</ele>
        <time>2022-03-04T17:53:04Z</time>
      </trkpt>
      <trkpt lat="46.57167" lon="5.60458">
        <ele>557.8</ele>
        <time>2022-03-04T17:53:05Z</time>
      </trkpt>
      <trkpt lat="46.57169" lon="5.60461">
        <ele>557.8</ele>
        <time>2022-03-04T17:53:06Z</time>
      </trkpt>
      <trkpt lat="46.57171" lon="5.60465">
        <ele>557.8</ele>
        <time>2022-03-04T17:53:07Z</time>
      </trkpt>
      <trkpt lat="46.57174" lon="5.60468">
        <ele>557.8</ele>
        <time>2022-03-04T17:53:08Z</time>
      </trkpt>
      <trkpt lat="46.57177" lon="5.60472">
        <ele>557.4</ele>
        <time>2022-03-04T17:53:09Z</time>
      </trkpt>
      <trkpt lat="46.57181" lon="5.60476">
        <ele>557.4</ele>
        <time>2022-03-04T17:53:10Z</time>
      </trkpt>
      <trkpt lat="46.57184" lon="5.60479">
        <ele>557.4</ele>
        <time>2022-03-04T17:53:11Z</time>
      </trkpt>
      <trkpt lat="46.57187" lon="5.60482">
        <ele>557.2</ele>
        <time>2022-03-04T17:53:12Z</time>
      </trkpt>
      <trkpt lat="46.5719" lon="5.60484">
        <ele>557.2</ele>
        <time>2022-03-04T17:53:13Z</time>
      </trkpt>
      <trkpt lat="46.57193" lon="5.60487">
        <ele>557.2</ele>
        <time>2022-03-04T17:53:14Z</time>
      </trkpt>
      <trkpt lat="46.57196" lon="5.60489">
        <ele>557.2</ele>
        <time>2022-03-04T17:53:15Z</time>
      </trkpt>
      <trkpt lat="46.57199" lon="5.60491">
        <ele>557.2</ele>
        <time>2022-03-04T17:53:16Z</time>
      </trkpt>
      <trkpt lat="46.57202" lon="5.60492">
        <ele>557.2</ele>
        <time>2022-03-04T17:53:17Z</time>
      </trkpt>
      <trkpt lat="46.57205" lon="5.60494">
        <ele>557.2</ele>
        <time>2022-03-04T17:53:18Z</time>
      </trkpt>
      <trkpt lat="46.57208" lon="5.60495">
        <ele>557.2</ele>
        <time>2022-03-04T17:53:19Z</time>
      </trkpt>
      <trkpt lat="46.57211" lon="5.60496">
        <ele>557.4</ele>
        <time>2022-03-04T17:53:20Z</time>
      </trkpt>
      <trkpt lat="46.57214" lon="5.60498">
        <ele>557.4</ele>
        <time>2022-03-04T17:53:21Z</time>
      </trkpt>
      <trkpt lat="46.57217" lon="5.60498">
        <ele>557.4</ele>
        <time>2022-03-04T17:53:22Z</time>
      </trkpt>
      <trkpt lat="46.57219" lon="5.60499">
        <ele>557.4</ele>
        <time>2022-03-04T17:53:23Z</time>
      </trkpt>
      <trkpt lat="46.57222" lon="5.605">
        <ele>557.6</ele>
        <time>2022-03-04T17:53:24Z</time>
      </trkpt>
      <trkpt lat="46.57225" lon="5.605">
        <ele>557.6</ele>
        <time>2022-03-04T17:53:25Z</time>
      </trkpt>
      <trkpt lat="46.57228" lon="5.60501">
        <ele>557.6</ele>
        <time>2022-03-04T17:53:26Z</time>
      </trkpt>
      <trkpt lat="46.5723" lon="5.60501">
        <ele>557.8</ele>
        <time>2022-03-04T17:53:27Z</time>
      </trkpt>
      <trkpt lat="46.5723" lon="5.60501">
        <ele>557.8</ele>
        <time>2022-03-04T17:53:28Z</time>
      </trkpt>
      <trkpt lat="46.57233" lon="5.605">
        <ele>557.8</ele>
        <time>2022-03-04T17:53:29Z</time>
      </trkpt>
      <trkpt lat="46.57236" lon="5.605">
        <ele>557.8</ele>
        <time>2022-03-04T17:53:30Z</time>
      </trkpt>
      <trkpt lat="46.57239" lon="5.605">
        <ele>557.8</ele>
        <time>2022-03-04T17:53:31Z</time>
      </trkpt>
      <trkpt lat="46.57243" lon="5.60499">
        <ele>557.8</ele>
        <time>2022-03-04T17:53:32Z</time>
      </trkpt>
      <trkpt lat="46.57246" lon="5.60498">
        <ele>557.8</ele>
        <time>2022-03-04T17:53:33Z</time>
      </trkpt>
      <trkpt lat="46.57249" lon="5.60497">
        <ele>557.8</ele>
        <time>2022-03-04T17:53:34Z</time>
      </trkpt>
      <trkpt lat="46.57252" lon="5.60496">
        <ele>557.8</ele>
        <time>2022-03-04T17:53:35Z</time>
      </trkpt>
      <trkpt lat="46.57255" lon="5.60495">
        <ele>557.6</ele>
        <time>2022-03-04T17:53:36Z</time>
      </trkpt>
      <trkpt lat="46.57258" lon="5.60494">
        <ele>557.6</ele>
        <time>2022-03-04T17:53:37Z</time>
      </trkpt>
      <trkpt lat="46.57261" lon="5.60493">
        <ele>557.2</ele>
        <time>2022-03-04T17:53:38Z</time>
      </trkpt>
      <trkpt lat="46.57264" lon="5.60492">
        <ele>557.2</ele>
        <time>2022-03-04T17:53:39Z</time>
      </trkpt>
      <trkpt lat="46.57267" lon="5.60491">
        <ele>556.8</ele>
        <time>2022-03-04T17:53:40Z</time>
      </trkpt>
      <trkpt lat="46.5727" lon="5.6049">
        <ele>556.8</ele>
        <time>2022-03-04T17:53:41Z</time>
      </trkpt>
      <trkpt lat="46.57273" lon="5.60488">
        <ele>556.4</ele>
        <time>2022-03-04T17:53:42Z</time>
      </trkpt>
      <trkpt lat="46.57277" lon="5.60487">
        <ele>556</ele>
        <time>2022-03-04T17:53:43Z</time>
      </trkpt>
      <trkpt lat="46.5728" lon="5.60484">
        <ele>555.8</ele>
        <time>2022-03-04T17:53:44Z</time>
      </trkpt>
      <trkpt lat="46.57284" lon="5.6048">
        <ele>555.4</ele>
        <time>2022-03-04T17:53:45Z</time>
      </trkpt>
      <trkpt lat="46.57288" lon="5.60476">
        <ele>555.2</ele>
        <time>2022-03-04T17:53:46Z</time>
      </trkpt>
      <trkpt lat="46.57292" lon="5.60472">
        <ele>555.2</ele>
        <time>2022-03-04T17:53:47Z</time>
      </trkpt>
      <trkpt lat="46.57295" lon="5.60469">
        <ele>554.8</ele>
        <time>2022-03-04T17:53:48Z</time>
      </trkpt>
      <trkpt lat="46.57299" lon="5.60465">
        <ele>554.6</ele>
        <time>2022-03-04T17:53:49Z</time>
      </trkpt>
      <trkpt lat="46.57303" lon="5.60462">
        <ele>554.6</ele>
        <time>2022-03-04T17:53:50Z</time>
      </trkpt>
      <trkpt lat="46.57306" lon="5.60458">
        <ele>554.2</ele>
        <time>2022-03-04T17:53:51Z</time>
      </trkpt>
      <trkpt lat="46.5731" lon="5.60454">
        <ele>554.2</ele>
        <time>2022-03-04T17:53:52Z</time>
      </trkpt>
      <trkpt lat="46.57314" lon="5.6045">
        <ele>553.8</ele>
        <time>2022-03-04T17:53:53Z</time>
      </trkpt>
      <trkpt lat="46.57317" lon="5.60446">
        <ele>553.8</ele>
        <time>2022-03-04T17:53:54Z</time>
      </trkpt>
      <trkpt lat="46.5732" lon="5.60442">
        <ele>553.6</ele>
        <time>2022-03-04T17:53:55Z</time>
      </trkpt>
      <trkpt lat="46.57322" lon="5.60439">
        <ele>553.6</ele>
        <time>2022-03-04T17:53:56Z</time>
      </trkpt>
      <trkpt lat="46.57325" lon="5.60436">
        <ele>553.4</ele>
        <time>2022-03-04T17:53:57Z</time>
      </trkpt>
      <trkpt lat="46.57326" lon="5.60431">
        <ele>553.4</ele>
        <time>2022-03-04T17:53:58Z</time>
      </trkpt>
      <trkpt lat="46.57327" lon="5.60427">
        <ele>553.4</ele>
        <time>2022-03-04T17:53:59Z</time>
      </trkpt>
      <trkpt lat="46.57327" lon="5.60422">
        <ele>553.4</ele>
        <time>2022-03-04T17:54:00Z</time>
      </trkpt>
      <trkpt lat="46.57327" lon="5.60417">
        <ele>553</ele>
        <time>2022-03-04T17:54:01Z</time>
      </trkpt>
      <trkpt lat="46.57326" lon="5.60413">
        <ele>553</ele>
        <time>2022-03-04T17:54:02Z</time>
      </trkpt>
      <trkpt lat="46.57326" lon="5.60408">
        <ele>553</ele>
        <time>2022-03-04T17:54:03Z</time>
      </trkpt>
      <trkpt lat="46.57325" lon="5.60404">
        <ele>553</ele>
        <time>2022-03-04T17:54:04Z</time>
      </trkpt>
      <trkpt lat="46.57324" lon="5.604">
        <ele>553</ele>
        <time>2022-03-04T17:54:05Z</time>
      </trkpt>
      <trkpt lat="46.57323" lon="5.60396">
        <ele>552.8</ele>
        <time>2022-03-04T17:54:06Z</time>
      </trkpt>
      <trkpt lat="46.57322" lon="5.60392">
        <ele>552.8</ele>
        <time>2022-03-04T17:54:07Z</time>
      </trkpt>
      <trkpt lat="46.57321" lon="5.6039">
        <ele>552.4</ele>
        <time>2022-03-04T17:54:08Z</time>
      </trkpt>
      <trkpt lat="46.57321" lon="5.60389">
        <ele>552.4</ele>
        <time>2022-03-04T17:54:09Z</time>
      </trkpt>
      <trkpt lat="46.57321" lon="5.60389">
        <ele>552.4</ele>
        <time>2022-03-04T17:54:10Z</time>
      </trkpt>
      <trkpt lat="46.57321" lon="5.60389">
        <ele>552.4</ele>
        <time>2022-03-04T17:54:11Z</time>
      </trkpt>
      <trkpt lat="46.57321" lon="5.60389">
        <ele>552.4</ele>
        <time>2022-03-04T17:54:12Z</time>
      </trkpt>
      <trkpt lat="46.57324" lon="5.60393">
        <ele>552.4</ele>
        <time>2022-03-04T17:54:15Z</time>
      </trkpt>
      <trkpt lat="46.57325" lon="5.60394">
        <ele>552.4</ele>
        <time>2022-03-04T17:54:16Z</time>
      </trkpt>
      <trkpt lat="46.57326" lon="5.60395">
        <ele>552.2</ele>
        <time>2022-03-04T17:54:17Z</time>
      </trkpt>
      <trkpt lat="46.57327" lon="5.60396">
        <ele>552.2</ele>
        <time>2022-03-04T17:54:18Z</time>
      </trkpt>
      <trkpt lat="46.57328" lon="5.60398">
        <ele>552.2</ele>
        <time>2022-03-04T17:54:19Z</time>
      </trkpt>
      <trkpt lat="46.57329" lon="5.604">
        <ele>552.6</ele>
        <time>2022-03-04T17:54:20Z</time>
      </trkpt>
      <trkpt lat="46.5733" lon="5.60403">
        <ele>552.6</ele>
        <time>2022-03-04T17:54:21Z</time>
      </trkpt>
      <trkpt lat="46.57331" lon="5.60405">
        <ele>552.6</ele>
        <time>2022-03-04T17:54:22Z</time>
      </trkpt>
      <trkpt lat="46.57332" lon="5.60408">
        <ele>552.6</ele>
        <time>2022-03-04T17:54:23Z</time>
      </trkpt>
      <trkpt lat="46.57333" lon="5.60411">
        <ele>552.8</ele>
        <time>2022-03-04T17:54:24Z</time>
      </trkpt>
      <trkpt lat="46.57334" lon="5.60414">
        <ele>552.8</ele>
        <time>2022-03-04T17:54:25Z</time>
      </trkpt>
      <trkpt lat="46.57335" lon="5.60417">
        <ele>552.8</ele>
        <time>2022-03-04T17:54:26Z</time>
      </trkpt>
      <trkpt lat="46.57336" lon="5.60419">
        <ele>552.8</ele>
        <time>2022-03-04T17:54:27Z</time>
      </trkpt>
      <trkpt lat="46.57338" lon="5.60422">
        <ele>552.8</ele>
        <time>2022-03-04T17:54:28Z</time>
      </trkpt>
      <trkpt lat="46.5734" lon="5.60424">
        <ele>552.8</ele>
        <time>2022-03-04T17:54:29Z</time>
      </trkpt>
      <trkpt lat="46.57341" lon="5.60426">
        <ele>552.8</ele>
        <time>2022-03-04T17:54:30Z</time>
      </trkpt>
      <trkpt lat="46.57343" lon="5.60427">
        <ele>553</ele>
        <time>2022-03-04T17:54:31Z</time>
      </trkpt>
      <trkpt lat="46.57344" lon="5.60429">
        <ele>553</ele>
        <time>2022-03-04T17:54:32Z</time>
      </trkpt>
      <trkpt lat="46.57346" lon="5.6043">
        <ele>553</ele>
        <time>2022-03-04T17:54:33Z</time>
      </trkpt>
      <trkpt lat="46.57348" lon="5.60431">
        <ele>553.4</ele>
        <time>2022-03-04T17:54:34Z</time>
      </trkpt>
      <trkpt lat="46.5735" lon="5.60432">
        <ele>553.4</ele>
        <time>2022-03-04T17:54:35Z</time>
      </trkpt>
      <trkpt lat="46.57352" lon="5.60432">
        <ele>553.4</ele>
        <time>2022-03-04T17:54:36Z</time>
      </trkpt>
      <trkpt lat="46.57353" lon="5.60432">
        <ele>553.4</ele>
        <time>2022-03-04T17:54:37Z</time>
      </trkpt>
      <trkpt lat="46.57354" lon="5.60432">
        <ele>553.4</ele>
        <time>2022-03-04T17:54:38Z</time>
      </trkpt>
      <trkpt lat="46.57355" lon="5.60432">
        <ele>553.4</ele>
        <time>2022-03-04T17:54:39Z</time>
      </trkpt>
      <trkpt lat="46.57356" lon="5.60432">
        <ele>553.4</ele>
        <time>2022-03-04T17:54:40Z</time>
      </trkpt>
      <trkpt lat="46.57355" lon="5.60432">
        <ele>553.4</ele>
        <time>2022-03-04T17:54:41Z</time>
      </trkpt>
      <trkpt lat="46.57355" lon="5.60432">
        <ele>553.4</ele>
        <time>2022-03-04T17:54:42Z</time>
      </trkpt>
      <trkpt lat="46.5735" lon="5.60432">
        <ele>553.4</ele>
        <time>2022-03-04T17:54:45Z</time>
      </trkpt>
      <trkpt lat="46.57348" lon="5.60432">
        <ele>553.4</ele>
        <time>2022-03-04T17:54:46Z</time>
      </trkpt>
      <trkpt lat="46.57346" lon="5.60432">
        <ele>553.6</ele>
        <time>2022-03-04T17:54:47Z</time>
      </trkpt>
      <trkpt lat="46.57344" lon="5.60431">
        <ele>553.6</ele>
        <time>2022-03-04T17:54:48Z</time>
      </trkpt>
      <trkpt lat="46.57342" lon="5.6043">
        <ele>553.6</ele>
        <time>2022-03-04T17:54:49Z</time>
      </trkpt>
      <trkpt lat="46.5734" lon="5.60429">
        <ele>553.6</ele>
        <time>2022-03-04T17:54:50Z</time>
      </trkpt>
      <trkpt lat="46.57338" lon="5.60428">
        <ele>553.6</ele>
        <time>2022-03-04T17:54:51Z</time>
      </trkpt>
      <trkpt lat="46.57336" lon="5.60426">
        <ele>553.6</ele>
        <time>2022-03-04T17:54:52Z</time>
      </trkpt>
      <trkpt lat="46.57335" lon="5.60424">
        <ele>553.6</ele>
        <time>2022-03-04T17:54:53Z</time>
      </trkpt>
      <trkpt lat="46.57334" lon="5.60421">
        <ele>553.6</ele>
        <time>2022-03-04T17:54:54Z</time>
      </trkpt>
      <trkpt lat="46.57333" lon="5.60418">
        <ele>553.4</ele>
        <time>2022-03-04T17:54:55Z</time>
      </trkpt>
      <trkpt lat="46.57334" lon="5.60414">
        <ele>553.4</ele>
        <time>2022-03-04T17:54:56Z</time>
      </trkpt>
      <trkpt lat="46.57334" lon="5.60413">
        <ele>553.4</ele>
        <time>2022-03-04T17:54:57Z</time>
      </trkpt>
      <trkpt lat="46.57335" lon="5.60411">
        <ele>553.4</ele>
        <time>2022-03-04T17:54:58Z</time>
      </trkpt>
      <trkpt lat="46.57335" lon="5.60409">
        <ele>553</ele>
        <time>2022-03-04T17:54:59Z</time>
      </trkpt>
      <trkpt lat="46.57336" lon="5.60408">
        <ele>553</ele>
        <time>2022-03-04T17:55:00Z</time>
      </trkpt>
      <trkpt lat="46.57336" lon="5.60406">
        <ele>552.8</ele>
        <time>2022-03-04T17:55:01Z</time>
      </trkpt>
      <trkpt lat="46.57337" lon="5.60404">
        <ele>552.8</ele>
        <time>2022-03-04T17:55:02Z</time>
      </trkpt>
      <trkpt lat="46.57337" lon="5.60403">
        <ele>552.8</ele>
        <time>2022-03-04T17:55:03Z</time>
      </trkpt>
      <trkpt lat="46.57338" lon="5.60401">
        <ele>552.6</ele>
        <time>2022-03-04T17:55:04Z</time>
      </trkpt>
      <trkpt lat="46.57338" lon="5.60399">
        <ele>552.6</ele>
        <time>2022-03-04T17:55:05Z</time>
      </trkpt>
      <trkpt lat="46.57339" lon="5.60398">
        <ele>552.4</ele>
        <time>2022-03-04T17:55:06Z</time>
      </trkpt>
      <trkpt lat="46.57339" lon="5.60396">
        <ele>552.4</ele>
        <time>2022-03-04T17:55:07Z</time>
      </trkpt>
      <trkpt lat="46.5734" lon="5.60395">
        <ele>552.4</ele>
        <time>2022-03-04T17:55:08Z</time>
      </trkpt>
      <trkpt lat="46.57341" lon="5.60393">
        <ele>552.4</ele>
        <time>2022-03-04T17:55:09Z</time>
      </trkpt>
      <trkpt lat="46.57341" lon="5.60391">
        <ele>552.4</ele>
        <time>2022-03-04T17:55:10Z</time>
      </trkpt>
      <trkpt lat="46.57342" lon="5.6039">
        <ele>552.4</ele>
        <time>2022-03-04T17:55:13Z</time>
      </trkpt>
      <trkpt lat="46.57342" lon="5.60388">
        <ele>552.4</ele>
        <time>2022-03-04T17:55:14Z</time>
      </trkpt>
      <trkpt lat="46.57343" lon="5.60385">
        <ele>552.4</ele>
        <time>2022-03-04T17:55:15Z</time>
      </trkpt>
      <trkpt lat="46.57343" lon="5.60383">
        <ele>552.4</ele>
        <time>2022-03-04T17:55:16Z</time>
      </trkpt>
      <trkpt lat="46.57344" lon="5.6038">
        <ele>552.4</ele>
        <time>2022-03-04T17:55:17Z</time>
      </trkpt>
      <trkpt lat="46.57345" lon="5.60378">
        <ele>552.4</ele>
        <time>2022-03-04T17:55:18Z</time>
      </trkpt>
      <trkpt lat="46.57346" lon="5.60376">
        <ele>552.4</ele>
        <time>2022-03-04T17:55:19Z</time>
      </trkpt>
      <trkpt lat="46.57347" lon="5.60373">
        <ele>552.4</ele>
        <time>2022-03-04T17:55:20Z</time>
      </trkpt>
      <trkpt lat="46.57349" lon="5.60371">
        <ele>552.4</ele>
        <time>2022-03-04T17:55:21Z</time>
      </trkpt>
      <trkpt lat="46.5735" lon="5.60369">
        <ele>552.4</ele>
        <time>2022-03-04T17:55:22Z</time>
      </trkpt>
      <trkpt lat="46.57352" lon="5.60366">
        <ele>552.4</ele>
        <time>2022-03-04T17:55:23Z</time>
      </trkpt>
      <trkpt lat="46.57352" lon="5.60365">
        <ele>552.6</ele>
        <time>2022-03-04T17:55:24Z</time>
      </trkpt>
      <trkpt lat="46.57353" lon="5.60364">
        <ele>552.6</ele>
        <time>2022-03-04T17:55:25Z</time>
      </trkpt>
      <trkpt lat="46.57354" lon="5.60362">
        <ele>552.6</ele>
        <time>2022-03-04T17:55:26Z</time>
      </trkpt>
      <trkpt lat="46.57355" lon="5.60361">
        <ele>552.6</ele>
        <time>2022-03-04T17:55:27Z</time>
      </trkpt>
      <trkpt lat="46.57355" lon="5.6036">
        <ele>552.6</ele>
        <time>2022-03-04T17:55:28Z</time>
      </trkpt>
      <trkpt lat="46.57356" lon="5.60359">
        <ele>552.6</ele>
        <time>2022-03-04T17:55:29Z</time>
      </trkpt>
      <trkpt lat="46.57357" lon="5.60358">
        <ele>552.8</ele>
        <time>2022-03-04T17:55:33Z</time>
      </trkpt>
      <trkpt lat="46.57358" lon="5.60357">
        <ele>552.8</ele>
        <time>2022-03-04T17:55:34Z</time>
      </trkpt>
      <trkpt lat="46.57358" lon="5.60356">
        <ele>552.8</ele>
        <time>2022-03-04T17:55:35Z</time>
      </trkpt>
      <trkpt lat="46.57359" lon="5.60355">
        <ele>552.8</ele>
        <time>2022-03-04T17:55:40Z</time>
      </trkpt>
      <trkpt lat="46.5736" lon="5.60353">
        <ele>552.8</ele>
        <time>2022-03-04T17:55:41Z</time>
      </trkpt>
      <trkpt lat="46.57361" lon="5.60352">
        <ele>552.8</ele>
        <time>2022-03-04T17:55:42Z</time>
      </trkpt>
      <trkpt lat="46.57362" lon="5.60351">
        <ele>552.8</ele>
        <time>2022-03-04T17:55:43Z</time>
      </trkpt>
      <trkpt lat="46.57363" lon="5.60349">
        <ele>552.8</ele>
        <time>2022-03-04T17:55:44Z</time>
      </trkpt>
      <trkpt lat="46.57364" lon="5.60348">
        <ele>552.8</ele>
        <time>2022-03-04T17:55:45Z</time>
      </trkpt>
      <trkpt lat="46.57365" lon="5.60346">
        <ele>552.8</ele>
        <time>2022-03-04T17:55:46Z</time>
      </trkpt>
      <trkpt lat="46.57366" lon="5.60344">
        <ele>552.8</ele>
        <time>2022-03-04T17:55:47Z</time>
      </trkpt>
      <trkpt lat="46.57367" lon="5.60343">
        <ele>552.8</ele>
        <time>2022-03-04T17:55:48Z</time>
      </trkpt>
      <trkpt lat="46.57369" lon="5.60341">
        <ele>552.8</ele>
        <time>2022-03-04T17:55:49Z</time>
      </trkpt>
      <trkpt lat="46.5737" lon="5.6034">
        <ele>552.8</ele>
        <time>2022-03-04T17:55:50Z</time>
      </trkpt>
      <trkpt lat="46.57372" lon="5.60339">
        <ele>552.8</ele>
        <time>2022-03-04T17:55:51Z</time>
      </trkpt>
      <trkpt lat="46.57374" lon="5.60339">
        <ele>552.8</ele>
        <time>2022-03-04T17:55:52Z</time>
      </trkpt>
      <trkpt lat="46.57376" lon="5.60337">
        <ele>552.8</ele>
        <time>2022-03-04T17:55:53Z</time>
      </trkpt>
      <trkpt lat="46.57377" lon="5.60336">
        <ele>552.8</ele>
        <time>2022-03-04T17:55:54Z</time>
      </trkpt>
      <trkpt lat="46.57379" lon="5.60334">
        <ele>552.8</ele>
        <time>2022-03-04T17:55:55Z</time>
      </trkpt>
      <trkpt lat="46.57381" lon="5.60333">
        <ele>552.8</ele>
        <time>2022-03-04T17:55:56Z</time>
      </trkpt>
      <trkpt lat="46.57383" lon="5.60331">
        <ele>552.8</ele>
        <time>2022-03-04T17:55:57Z</time>
      </trkpt>
      <trkpt lat="46.57384" lon="5.6033">
        <ele>552.8</ele>
        <time>2022-03-04T17:55:58Z</time>
      </trkpt>
      <trkpt lat="46.57386" lon="5.60328">
        <ele>552.8</ele>
        <time>2022-03-04T17:55:59Z</time>
      </trkpt>
      <trkpt lat="46.57387" lon="5.60327">
        <ele>553</ele>
        <time>2022-03-04T17:56:00Z</time>
      </trkpt>
      <trkpt lat="46.57389" lon="5.60326">
        <ele>553</ele>
        <time>2022-03-04T17:56:01Z</time>
      </trkpt>
      <trkpt lat="46.57391" lon="5.60325">
        <ele>553</ele>
        <time>2022-03-04T17:56:02Z</time>
      </trkpt>
      <trkpt lat="46.57392" lon="5.60323">
        <ele>553</ele>
        <time>2022-03-04T17:56:03Z</time>
      </trkpt>
      <trkpt lat="46.57394" lon="5.60321">
        <ele>553</ele>
        <time>2022-03-04T17:56:04Z</time>
      </trkpt>
      <trkpt lat="46.57395" lon="5.6032">
        <ele>553.2</ele>
        <time>2022-03-04T17:56:05Z</time>
      </trkpt>
      <trkpt lat="46.57397" lon="5.60318">
        <ele>553.2</ele>
        <time>2022-03-04T17:56:06Z</time>
      </trkpt>
      <trkpt lat="46.57399" lon="5.60317">
        <ele>553.2</ele>
        <time>2022-03-04T17:56:07Z</time>
      </trkpt>
      <trkpt lat="46.57401" lon="5.60316">
        <ele>553.2</ele>
        <time>2022-03-04T17:56:08Z</time>
      </trkpt>
      <trkpt lat="46.57403" lon="5.60315">
        <ele>553.4</ele>
        <time>2022-03-04T17:56:09Z</time>
      </trkpt>
      <trkpt lat="46.57404" lon="5.60314">
        <ele>553.4</ele>
        <time>2022-03-04T17:56:10Z</time>
      </trkpt>
      <trkpt lat="46.57406" lon="5.60313">
        <ele>553.8</ele>
        <time>2022-03-04T17:56:11Z</time>
      </trkpt>
      <trkpt lat="46.57407" lon="5.60311">
        <ele>553.8</ele>
        <time>2022-03-04T17:56:12Z</time>
      </trkpt>
      <trkpt lat="46.57409" lon="5.6031">
        <ele>553.8</ele>
        <time>2022-03-04T17:56:13Z</time>
      </trkpt>
      <trkpt lat="46.57411" lon="5.60309">
        <ele>553.8</ele>
        <time>2022-03-04T17:56:14Z</time>
      </trkpt>
      <trkpt lat="46.57414" lon="5.60307">
        <ele>553.8</ele>
        <time>2022-03-04T17:56:15Z</time>
      </trkpt>
      <trkpt lat="46.57416" lon="5.60305">
        <ele>553.8</ele>
        <time>2022-03-04T17:56:16Z</time>
      </trkpt>
      <trkpt lat="46.57418" lon="5.60304">
        <ele>554</ele>
        <time>2022-03-04T17:56:17Z</time>
      </trkpt>
      <trkpt lat="46.5742" lon="5.60304">
        <ele>554</ele>
        <time>2022-03-04T17:56:18Z</time>
      </trkpt>
      <trkpt lat="46.57422" lon="5.60303">
        <ele>554</ele>
        <time>2022-03-04T17:56:19Z</time>
      </trkpt>
      <trkpt lat="46.57425" lon="5.60302">
        <ele>554.2</ele>
        <time>2022-03-04T17:56:20Z</time>
      </trkpt>
      <trkpt lat="46.57427" lon="5.603">
        <ele>554.2</ele>
        <time>2022-03-04T17:56:21Z</time>
      </trkpt>
      <trkpt lat="46.57429" lon="5.60299">
        <ele>554.4</ele>
        <time>2022-03-04T17:56:22Z</time>
      </trkpt>
      <trkpt lat="46.5743" lon="5.60297">
        <ele>554.4</ele>
        <time>2022-03-04T17:56:23Z</time>
      </trkpt>
      <trkpt lat="46.57432" lon="5.60295">
        <ele>554.6</ele>
        <time>2022-03-04T17:56:24Z</time>
      </trkpt>
      <trkpt lat="46.57434" lon="5.60293">
        <ele>554.6</ele>
        <time>2022-03-04T17:56:25Z</time>
      </trkpt>
      <trkpt lat="46.57435" lon="5.60292">
        <ele>554.6</ele>
        <time>2022-03-04T17:56:26Z</time>
      </trkpt>
      <trkpt lat="46.57438" lon="5.60291">
        <ele>554.6</ele>
        <time>2022-03-04T17:56:27Z</time>
      </trkpt>
      <trkpt lat="46.5744" lon="5.60291">
        <ele>554.6</ele>
        <time>2022-03-04T17:56:28Z</time>
      </trkpt>
      <trkpt lat="46.57442" lon="5.6029">
        <ele>555</ele>
        <time>2022-03-04T17:56:29Z</time>
      </trkpt>
      <trkpt lat="46.57444" lon="5.60289">
        <ele>555</ele>
        <time>2022-03-04T17:56:30Z</time>
      </trkpt>
      <trkpt lat="46.57446" lon="5.60288">
        <ele>555</ele>
        <time>2022-03-04T17:56:31Z</time>
      </trkpt>
      <trkpt lat="46.57448" lon="5.60287">
        <ele>555.2</ele>
        <time>2022-03-04T17:56:32Z</time>
      </trkpt>
      <trkpt lat="46.5745" lon="5.60286">
        <ele>555.2</ele>
        <time>2022-03-04T17:56:33Z</time>
      </trkpt>
      <trkpt lat="46.57452" lon="5.60285">
        <ele>555.2</ele>
        <time>2022-03-04T17:56:34Z</time>
      </trkpt>
      <trkpt lat="46.57453" lon="5.60283">
        <ele>555.2</ele>
        <time>2022-03-04T17:56:35Z</time>
      </trkpt>
      <trkpt lat="46.57455" lon="5.60282">
        <ele>555.2</ele>
        <time>2022-03-04T17:56:36Z</time>
      </trkpt>
      <trkpt lat="46.57457" lon="5.6028">
        <ele>555.4</ele>
        <time>2022-03-04T17:56:37Z</time>
      </trkpt>
      <trkpt lat="46.57458" lon="5.60279">
        <ele>555.4</ele>
        <time>2022-03-04T17:56:38Z</time>
      </trkpt>
      <trkpt lat="46.5746" lon="5.60279">
        <ele>555.4</ele>
        <time>2022-03-04T17:56:39Z</time>
      </trkpt>
      <trkpt lat="46.57462" lon="5.60278">
        <ele>555.4</ele>
        <time>2022-03-04T17:56:40Z</time>
      </trkpt>
      <trkpt lat="46.57463" lon="5.60277">
        <ele>555.6</ele>
        <time>2022-03-04T17:56:41Z</time>
      </trkpt>
      <trkpt lat="46.57464" lon="5.60277">
        <ele>555.6</ele>
        <time>2022-03-04T17:56:42Z</time>
      </trkpt>
      <trkpt lat="46.57466" lon="5.60276">
        <ele>555.6</ele>
        <time>2022-03-04T17:56:43Z</time>
      </trkpt>
      <trkpt lat="46.57468" lon="5.60276">
        <ele>556</ele>
        <time>2022-03-04T17:56:44Z</time>
      </trkpt>
      <trkpt lat="46.57469" lon="5.60275">
        <ele>556</ele>
        <time>2022-03-04T17:56:45Z</time>
      </trkpt>
      <trkpt lat="46.57471" lon="5.60274">
        <ele>556.2</ele>
        <time>2022-03-04T17:56:46Z</time>
      </trkpt>
      <trkpt lat="46.57473" lon="5.60272">
        <ele>556.2</ele>
        <time>2022-03-04T17:56:47Z</time>
      </trkpt>
      <trkpt lat="46.57475" lon="5.60271">
        <ele>556.2</ele>
        <time>2022-03-04T17:56:48Z</time>
      </trkpt>
      <trkpt lat="46.57478" lon="5.6027">
        <ele>556.4</ele>
        <time>2022-03-04T17:56:49Z</time>
      </trkpt>
      <trkpt lat="46.5748" lon="5.60269">
        <ele>556.4</ele>
        <time>2022-03-04T17:56:50Z</time>
      </trkpt>
      <trkpt lat="46.57482" lon="5.60268">
        <ele>556.4</ele>
        <time>2022-03-04T17:56:51Z</time>
      </trkpt>
      <trkpt lat="46.57483" lon="5.60267">
        <ele>556.4</ele>
        <time>2022-03-04T17:56:52Z</time>
      </trkpt>
      <trkpt lat="46.57485" lon="5.60266">
        <ele>556.6</ele>
        <time>2022-03-04T17:56:53Z</time>
      </trkpt>
      <trkpt lat="46.57487" lon="5.60265">
        <ele>556.6</ele>
        <time>2022-03-04T17:56:54Z</time>
      </trkpt>
      <trkpt lat="46.57488" lon="5.60265">
        <ele>556.6</ele>
        <time>2022-03-04T17:56:55Z</time>
      </trkpt>
      <trkpt lat="46.5749" lon="5.60264">
        <ele>556.6</ele>
        <time>2022-03-04T17:56:56Z</time>
      </trkpt>
      <trkpt lat="46.57492" lon="5.60263">
        <ele>556.8</ele>
        <time>2022-03-04T17:56:57Z</time>
      </trkpt>
      <trkpt lat="46.57493" lon="5.60262">
        <ele>556.8</ele>
        <time>2022-03-04T17:56:58Z</time>
      </trkpt>
      <trkpt lat="46.57494" lon="5.60262">
        <ele>557.2</ele>
        <time>2022-03-04T17:56:59Z</time>
      </trkpt>
      <trkpt lat="46.57495" lon="5.60261">
        <ele>557.2</ele>
        <time>2022-03-04T17:57:00Z</time>
      </trkpt>
      <trkpt lat="46.57495" lon="5.60261">
        <ele>557.2</ele>
        <time>2022-03-04T17:57:01Z</time>
      </trkpt>
      <trkpt lat="46.57504" lon="5.60254">
        <ele>557.6</ele>
        <time>2022-03-04T17:57:10Z</time>
      </trkpt>
      <trkpt lat="46.57506" lon="5.60253">
        <ele>557.6</ele>
        <time>2022-03-04T17:57:11Z</time>
      </trkpt>
      <trkpt lat="46.57506" lon="5.60252">
        <ele>557.6</ele>
        <time>2022-03-04T17:57:12Z</time>
      </trkpt>
      <trkpt lat="46.57508" lon="5.60251">
        <ele>558</ele>
        <time>2022-03-04T17:57:13Z</time>
      </trkpt>
      <trkpt lat="46.57508" lon="5.60251">
        <ele>558</ele>
        <time>2022-03-04T17:57:14Z</time>
      </trkpt>
      <trkpt lat="46.57508" lon="5.60251">
        <ele>558.2</ele>
        <time>2022-03-04T17:57:18Z</time>
      </trkpt>
      <trkpt lat="46.57508" lon="5.60251">
        <ele>558.2</ele>
        <time>2022-03-04T17:57:19Z</time>
      </trkpt>
      <trkpt lat="46.57514" lon="5.60246">
        <ele>558.4</ele>
        <time>2022-03-04T17:57:21Z</time>
      </trkpt>
      <trkpt lat="46.57517" lon="5.60244">
        <ele>558.4</ele>
        <time>2022-03-04T17:57:22Z</time>
      </trkpt>
      <trkpt lat="46.57518" lon="5.60244">
        <ele>558.4</ele>
        <time>2022-03-04T17:57:23Z</time>
      </trkpt>
      <trkpt lat="46.57519" lon="5.60243">
        <ele>558.6</ele>
        <time>2022-03-04T17:57:24Z</time>
      </trkpt>
      <trkpt lat="46.5752" lon="5.60242">
        <ele>558.6</ele>
        <time>2022-03-04T17:57:25Z</time>
      </trkpt>
      <trkpt lat="46.57522" lon="5.60241">
        <ele>558.6</ele>
        <time>2022-03-04T17:57:26Z</time>
      </trkpt>
      <trkpt lat="46.57523" lon="5.60241">
        <ele>559.2</ele>
        <time>2022-03-04T17:57:30Z</time>
      </trkpt>
      <trkpt lat="46.57524" lon="5.6024">
        <ele>559.2</ele>
        <time>2022-03-04T17:57:31Z</time>
      </trkpt>
      <trkpt lat="46.57525" lon="5.60239">
        <ele>559.2</ele>
        <time>2022-03-04T17:57:32Z</time>
      </trkpt>
      <trkpt lat="46.57527" lon="5.60238">
        <ele>559.2</ele>
        <time>2022-03-04T17:57:33Z</time>
      </trkpt>
      <trkpt lat="46.57528" lon="5.60238">
        <ele>559.4</ele>
        <time>2022-03-04T17:57:34Z</time>
      </trkpt>
      <trkpt lat="46.57529" lon="5.60238">
        <ele>559.4</ele>
        <time>2022-03-04T17:57:35Z</time>
      </trkpt>
      <trkpt lat="46.57529" lon="5.60238">
        <ele>559.8</ele>
        <time>2022-03-04T17:57:36Z</time>
      </trkpt>
      <trkpt lat="46.5753" lon="5.60238">
        <ele>559.8</ele>
        <time>2022-03-04T17:57:37Z</time>
      </trkpt>
      <trkpt lat="46.57531" lon="5.60238">
        <ele>559.8</ele>
        <time>2022-03-04T17:57:38Z</time>
      </trkpt>
      <trkpt lat="46.57532" lon="5.60238">
        <ele>560</ele>
        <time>2022-03-04T17:57:40Z</time>
      </trkpt>
      <trkpt lat="46.57532" lon="5.60238">
        <ele>560</ele>
        <time>2022-03-04T17:57:41Z</time>
      </trkpt>
      <trkpt lat="46.57533" lon="5.60238">
        <ele>560.2</ele>
        <time>2022-03-04T17:57:42Z</time>
      </trkpt>
      <trkpt lat="46.57534" lon="5.60238">
        <ele>560.2</ele>
        <time>2022-03-04T17:57:43Z</time>
      </trkpt>
      <trkpt lat="46.57535" lon="5.60238">
        <ele>560.2</ele>
        <time>2022-03-04T17:57:44Z</time>
      </trkpt>
      <trkpt lat="46.57536" lon="5.60237">
        <ele>560.2</ele>
        <time>2022-03-04T17:57:45Z</time>
      </trkpt>
      <trkpt lat="46.57536" lon="5.60237">
        <ele>560.4</ele>
        <time>2022-03-04T17:57:46Z</time>
      </trkpt>
      <trkpt lat="46.57538" lon="5.60238">
        <ele>560.4</ele>
        <time>2022-03-04T17:57:47Z</time>
      </trkpt>
      <trkpt lat="46.57539" lon="5.60239">
        <ele>560.4</ele>
        <time>2022-03-04T17:57:48Z</time>
      </trkpt>
      <trkpt lat="46.57541" lon="5.60239">
        <ele>560.6</ele>
        <time>2022-03-04T17:57:49Z</time>
      </trkpt>
      <trkpt lat="46.57543" lon="5.6024">
        <ele>560.6</ele>
        <time>2022-03-04T17:57:50Z</time>
      </trkpt>
      <trkpt lat="46.57545" lon="5.6024">
        <ele>560.6</ele>
        <time>2022-03-04T17:57:51Z</time>
      </trkpt>
      <trkpt lat="46.57547" lon="5.6024">
        <ele>560.6</ele>
        <time>2022-03-04T17:57:52Z</time>
      </trkpt>
      <trkpt lat="46.57549" lon="5.6024">
        <ele>560.8</ele>
        <time>2022-03-04T17:57:53Z</time>
      </trkpt>
      <trkpt lat="46.57551" lon="5.60241">
        <ele>560.8</ele>
        <time>2022-03-04T17:57:54Z</time>
      </trkpt>
      <trkpt lat="46.57553" lon="5.60241">
        <ele>560.8</ele>
        <time>2022-03-04T17:57:55Z</time>
      </trkpt>
      <trkpt lat="46.57555" lon="5.60241">
        <ele>560.8</ele>
        <time>2022-03-04T17:57:56Z</time>
      </trkpt>
      <trkpt lat="46.57556" lon="5.60241">
        <ele>561.2</ele>
        <time>2022-03-04T17:57:57Z</time>
      </trkpt>
      <trkpt lat="46.57558" lon="5.60241">
        <ele>561.2</ele>
        <time>2022-03-04T17:57:58Z</time>
      </trkpt>
      <trkpt lat="46.5756" lon="5.60241">
        <ele>561.2</ele>
        <time>2022-03-04T17:57:59Z</time>
      </trkpt>
      <trkpt lat="46.57562" lon="5.60241">
        <ele>561.2</ele>
        <time>2022-03-04T17:58:00Z</time>
      </trkpt>
      <trkpt lat="46.57564" lon="5.60241">
        <ele>561.4</ele>
        <time>2022-03-04T17:58:01Z</time>
      </trkpt>
      <trkpt lat="46.57566" lon="5.60241">
        <ele>561.4</ele>
        <time>2022-03-04T17:58:02Z</time>
      </trkpt>
      <trkpt lat="46.57568" lon="5.6024">
        <ele>561.4</ele>
        <time>2022-03-04T17:58:03Z</time>
      </trkpt>
      <trkpt lat="46.5757" lon="5.6024">
        <ele>561.6</ele>
        <time>2022-03-04T17:58:04Z</time>
      </trkpt>
      <trkpt lat="46.57571" lon="5.6024">
        <ele>561.6</ele>
        <time>2022-03-04T17:58:05Z</time>
      </trkpt>
      <trkpt lat="46.57574" lon="5.6024">
        <ele>561.6</ele>
        <time>2022-03-04T17:58:06Z</time>
      </trkpt>
      <trkpt lat="46.57576" lon="5.6024">
        <ele>561.8</ele>
        <time>2022-03-04T17:58:07Z</time>
      </trkpt>
      <trkpt lat="46.57578" lon="5.6024">
        <ele>561.8</ele>
        <time>2022-03-04T17:58:08Z</time>
      </trkpt>
      <trkpt lat="46.5758" lon="5.6024">
        <ele>561.8</ele>
        <time>2022-03-04T17:58:09Z</time>
      </trkpt>
      <trkpt lat="46.57582" lon="5.6024">
        <ele>561.8</ele>
        <time>2022-03-04T17:58:10Z</time>
      </trkpt>
      <trkpt lat="46.57583" lon="5.60239">
        <ele>562.2</ele>
        <time>2022-03-04T17:58:11Z</time>
      </trkpt>
      <trkpt lat="46.57585" lon="5.60239">
        <ele>562.2</ele>
        <time>2022-03-04T17:58:12Z</time>
      </trkpt>
      <trkpt lat="46.57587" lon="5.6024">
        <ele>562.4</ele>
        <time>2022-03-04T17:58:13Z</time>
      </trkpt>
      <trkpt lat="46.57589" lon="5.6024">
        <ele>562.4</ele>
        <time>2022-03-04T17:58:14Z</time>
      </trkpt>
      <trkpt lat="46.57591" lon="5.6024">
        <ele>562.8</ele>
        <time>2022-03-04T17:58:15Z</time>
      </trkpt>
      <trkpt lat="46.57592" lon="5.6024">
        <ele>562.8</ele>
        <time>2022-03-04T17:58:16Z</time>
      </trkpt>
      <trkpt lat="46.57594" lon="5.60241">
        <ele>563.2</ele>
        <time>2022-03-04T17:58:17Z</time>
      </trkpt>
      <trkpt lat="46.57595" lon="5.60241">
        <ele>563.2</ele>
        <time>2022-03-04T17:58:18Z</time>
      </trkpt>
      <trkpt lat="46.57596" lon="5.60242">
        <ele>563.6</ele>
        <time>2022-03-04T17:58:19Z</time>
      </trkpt>
      <trkpt lat="46.57598" lon="5.60242">
        <ele>563.6</ele>
        <time>2022-03-04T17:58:20Z</time>
      </trkpt>
      <trkpt lat="46.576" lon="5.60243">
        <ele>563.8</ele>
        <time>2022-03-04T17:58:21Z</time>
      </trkpt>
      <trkpt lat="46.57601" lon="5.60243">
        <ele>563.8</ele>
        <time>2022-03-04T17:58:22Z</time>
      </trkpt>
      <trkpt lat="46.57603" lon="5.60244">
        <ele>563.8</ele>
        <time>2022-03-04T17:58:23Z</time>
      </trkpt>
      <trkpt lat="46.57605" lon="5.60244">
        <ele>564</ele>
        <time>2022-03-04T17:58:24Z</time>
      </trkpt>
      <trkpt lat="46.57607" lon="5.60244">
        <ele>564</ele>
        <time>2022-03-04T17:58:25Z</time>
      </trkpt>
      <trkpt lat="46.57609" lon="5.60243">
        <ele>564.4</ele>
        <time>2022-03-04T17:58:26Z</time>
      </trkpt>
      <trkpt lat="46.57611" lon="5.60242">
        <ele>564.6</ele>
        <time>2022-03-04T17:58:27Z</time>
      </trkpt>
      <trkpt lat="46.57612" lon="5.60242">
        <ele>564.6</ele>
        <time>2022-03-04T17:58:28Z</time>
      </trkpt>
      <trkpt lat="46.57614" lon="5.60241">
        <ele>565</ele>
        <time>2022-03-04T17:58:29Z</time>
      </trkpt>
      <trkpt lat="46.57618" lon="5.60242">
        <ele>565</ele>
        <time>2022-03-04T17:58:30Z</time>
      </trkpt>
      <trkpt lat="46.5762" lon="5.60242">
        <ele>565.2</ele>
        <time>2022-03-04T17:58:31Z</time>
      </trkpt>
      <trkpt lat="46.57622" lon="5.60243">
        <ele>565.6</ele>
        <time>2022-03-04T17:58:35Z</time>
      </trkpt>
      <trkpt lat="46.57624" lon="5.60243">
        <ele>566</ele>
        <time>2022-03-04T17:58:36Z</time>
      </trkpt>
      <trkpt lat="46.57625" lon="5.60243">
        <ele>566</ele>
        <time>2022-03-04T17:58:37Z</time>
      </trkpt>
      <trkpt lat="46.57627" lon="5.60244">
        <ele>566.2</ele>
        <time>2022-03-04T17:58:38Z</time>
      </trkpt>
      <trkpt lat="46.57629" lon="5.60244">
        <ele>566.2</ele>
        <time>2022-03-04T17:58:39Z</time>
      </trkpt>
      <trkpt lat="46.57631" lon="5.60244">
        <ele>566.4</ele>
        <time>2022-03-04T17:58:40Z</time>
      </trkpt>
      <trkpt lat="46.57632" lon="5.60243">
        <ele>566.4</ele>
        <time>2022-03-04T17:58:41Z</time>
      </trkpt>
      <trkpt lat="46.57634" lon="5.60243">
        <ele>566.4</ele>
        <time>2022-03-04T17:58:42Z</time>
      </trkpt>
      <trkpt lat="46.57636" lon="5.60244">
        <ele>566.8</ele>
        <time>2022-03-04T17:58:43Z</time>
      </trkpt>
      <trkpt lat="46.57639" lon="5.60244">
        <ele>566.8</ele>
        <time>2022-03-04T17:58:44Z</time>
      </trkpt>
      <trkpt lat="46.57641" lon="5.60244">
        <ele>567.2</ele>
        <time>2022-03-04T17:58:45Z</time>
      </trkpt>
      <trkpt lat="46.57642" lon="5.60244">
        <ele>567.4</ele>
        <time>2022-03-04T17:58:46Z</time>
      </trkpt>
      <trkpt lat="46.57643" lon="5.60245">
        <ele>567.4</ele>
        <time>2022-03-04T17:58:47Z</time>
      </trkpt>
      <trkpt lat="46.57645" lon="5.60245">
        <ele>567.4</ele>
        <time>2022-03-04T17:58:48Z</time>
      </trkpt>
      <trkpt lat="46.57645" lon="5.60245">
        <ele>567.8</ele>
        <time>2022-03-04T17:58:49Z</time>
      </trkpt>
      <trkpt lat="46.57653" lon="5.60247">
        <ele>568.6</ele>
        <time>2022-03-04T17:58:53Z</time>
      </trkpt>
      <trkpt lat="46.57654" lon="5.60248">
        <ele>569</ele>
        <time>2022-03-04T17:58:54Z</time>
      </trkpt>
      <trkpt lat="46.57656" lon="5.60248">
        <ele>569.4</ele>
        <time>2022-03-04T17:58:55Z</time>
      </trkpt>
      <trkpt lat="46.57657" lon="5.60249">
        <ele>569.6</ele>
        <time>2022-03-04T17:58:56Z</time>
      </trkpt>
      <trkpt lat="46.5766" lon="5.6025">
        <ele>569.8</ele>
        <time>2022-03-04T17:58:57Z</time>
      </trkpt>
      <trkpt lat="46.57663" lon="5.6025">
        <ele>570.2</ele>
        <time>2022-03-04T17:58:58Z</time>
      </trkpt>
      <trkpt lat="46.57664" lon="5.6025">
        <ele>570.2</ele>
        <time>2022-03-04T17:58:59Z</time>
      </trkpt>
      <trkpt lat="46.57666" lon="5.6025">
        <ele>570.6</ele>
        <time>2022-03-04T17:59:02Z</time>
      </trkpt>
      <trkpt lat="46.57667" lon="5.6025">
        <ele>570.6</ele>
        <time>2022-03-04T17:59:03Z</time>
      </trkpt>
      <trkpt lat="46.57669" lon="5.6025">
        <ele>571</ele>
        <time>2022-03-04T17:59:04Z</time>
      </trkpt>
      <trkpt lat="46.57671" lon="5.6025">
        <ele>571</ele>
        <time>2022-03-04T17:59:05Z</time>
      </trkpt>
      <trkpt lat="46.57672" lon="5.6025">
        <ele>571.2</ele>
        <time>2022-03-04T17:59:06Z</time>
      </trkpt>
      <trkpt lat="46.57674" lon="5.6025">
        <ele>571.4</ele>
        <time>2022-03-04T17:59:07Z</time>
      </trkpt>
      <trkpt lat="46.57675" lon="5.6025">
        <ele>571.4</ele>
        <time>2022-03-04T17:59:08Z</time>
      </trkpt>
      <trkpt lat="46.57676" lon="5.6025">
        <ele>571.8</ele>
        <time>2022-03-04T17:59:09Z</time>
      </trkpt>
      <trkpt lat="46.57678" lon="5.60251">
        <ele>572</ele>
        <time>2022-03-04T17:59:10Z</time>
      </trkpt>
      <trkpt lat="46.57678" lon="5.60251">
        <ele>572</ele>
        <time>2022-03-04T17:59:11Z</time>
      </trkpt>
      <trkpt lat="46.57678" lon="5.60251">
        <ele>572.2</ele>
        <time>2022-03-04T17:59:12Z</time>
      </trkpt>
      <trkpt lat="46.57678" lon="5.60251">
        <ele>572.2</ele>
        <time>2022-03-04T17:59:13Z</time>
      </trkpt>
      <trkpt lat="46.57688" lon="5.60255">
        <ele>572.8</ele>
        <time>2022-03-04T17:59:17Z</time>
      </trkpt>
      <trkpt lat="46.5769" lon="5.60255">
        <ele>573.2</ele>
        <time>2022-03-04T17:59:18Z</time>
      </trkpt>
      <trkpt lat="46.57691" lon="5.60255">
        <ele>573.2</ele>
        <time>2022-03-04T17:59:19Z</time>
      </trkpt>
      <trkpt lat="46.57693" lon="5.60255">
        <ele>573.6</ele>
        <time>2022-03-04T17:59:20Z</time>
      </trkpt>
      <trkpt lat="46.57695" lon="5.60255">
        <ele>573.8</ele>
        <time>2022-03-04T17:59:21Z</time>
      </trkpt>
      <trkpt lat="46.57697" lon="5.60255">
        <ele>574.2</ele>
        <time>2022-03-04T17:59:22Z</time>
      </trkpt>
      <trkpt lat="46.57699" lon="5.60255">
        <ele>574.2</ele>
        <time>2022-03-04T17:59:23Z</time>
      </trkpt>
      <trkpt lat="46.57701" lon="5.60256">
        <ele>574.6</ele>
        <time>2022-03-04T17:59:24Z</time>
      </trkpt>
      <trkpt lat="46.57703" lon="5.60256">
        <ele>574.8</ele>
        <time>2022-03-04T17:59:25Z</time>
      </trkpt>
      <trkpt lat="46.57703" lon="5.60257">
        <ele>574.8</ele>
        <time>2022-03-04T17:59:26Z</time>
      </trkpt>
      <trkpt lat="46.57704" lon="5.60257">
        <ele>575</ele>
        <time>2022-03-04T17:59:27Z</time>
      </trkpt>
      <trkpt lat="46.57705" lon="5.60257">
        <ele>575</ele>
        <time>2022-03-04T17:59:28Z</time>
      </trkpt>
      <trkpt lat="46.57706" lon="5.60258">
        <ele>575.4</ele>
        <time>2022-03-04T17:59:29Z</time>
      </trkpt>
      <trkpt lat="46.57706" lon="5.60258">
        <ele>575.4</ele>
        <time>2022-03-04T17:59:30Z</time>
      </trkpt>
      <trkpt lat="46.57707" lon="5.60258">
        <ele>575.4</ele>
        <time>2022-03-04T17:59:31Z</time>
      </trkpt>
      <trkpt lat="46.57708" lon="5.60258">
        <ele>575.6</ele>
        <time>2022-03-04T17:59:32Z</time>
      </trkpt>
      <trkpt lat="46.57708" lon="5.60259">
        <ele>575.6</ele>
        <time>2022-03-04T17:59:33Z</time>
      </trkpt>
      <trkpt lat="46.57709" lon="5.60259">
        <ele>575.8</ele>
        <time>2022-03-04T17:59:34Z</time>
      </trkpt>
      <trkpt lat="46.5771" lon="5.60259">
        <ele>575.8</ele>
        <time>2022-03-04T17:59:35Z</time>
      </trkpt>
      <trkpt lat="46.5771" lon="5.6026">
        <ele>575.8</ele>
        <time>2022-03-04T17:59:36Z</time>
      </trkpt>
      <trkpt lat="46.57711" lon="5.6026">
        <ele>575.8</ele>
        <time>2022-03-04T17:59:37Z</time>
      </trkpt>
      <trkpt lat="46.57712" lon="5.6026">
        <ele>575.8</ele>
        <time>2022-03-04T17:59:38Z</time>
      </trkpt>
      <trkpt lat="46.57713" lon="5.6026">
        <ele>576</ele>
        <time>2022-03-04T17:59:39Z</time>
      </trkpt>
      <trkpt lat="46.57713" lon="5.60261">
        <ele>576</ele>
        <time>2022-03-04T17:59:40Z</time>
      </trkpt>
      <trkpt lat="46.57714" lon="5.60261">
        <ele>576</ele>
        <time>2022-03-04T17:59:41Z</time>
      </trkpt>
      <trkpt lat="46.57715" lon="5.60261">
        <ele>576.4</ele>
        <time>2022-03-04T17:59:42Z</time>
      </trkpt>
      <trkpt lat="46.57715" lon="5.60262">
        <ele>576.4</ele>
        <time>2022-03-04T17:59:43Z</time>
      </trkpt>
      <trkpt lat="46.57717" lon="5.60262">
        <ele>576.4</ele>
        <time>2022-03-04T17:59:44Z</time>
      </trkpt>
      <trkpt lat="46.57718" lon="5.60262">
        <ele>576.4</ele>
        <time>2022-03-04T17:59:45Z</time>
      </trkpt>
      <trkpt lat="46.57719" lon="5.60263">
        <ele>576.6</ele>
        <time>2022-03-04T17:59:46Z</time>
      </trkpt>
      <trkpt lat="46.5772" lon="5.60263">
        <ele>576.6</ele>
        <time>2022-03-04T17:59:47Z</time>
      </trkpt>
      <trkpt lat="46.57721" lon="5.60263">
        <ele>576.6</ele>
        <time>2022-03-04T17:59:48Z</time>
      </trkpt>
      <trkpt lat="46.57722" lon="5.60263">
        <ele>576.6</ele>
        <time>2022-03-04T17:59:49Z</time>
      </trkpt>
      <trkpt lat="46.57723" lon="5.60263">
        <ele>576.8</ele>
        <time>2022-03-04T17:59:51Z</time>
      </trkpt>
      <trkpt lat="46.57724" lon="5.60264">
        <ele>576.8</ele>
        <time>2022-03-04T17:59:52Z</time>
      </trkpt>
      <trkpt lat="46.57725" lon="5.60264">
        <ele>576.8</ele>
        <time>2022-03-04T17:59:53Z</time>
      </trkpt>
      <trkpt lat="46.57726" lon="5.60264">
        <ele>577</ele>
        <time>2022-03-04T17:59:54Z</time>
      </trkpt>
      <trkpt lat="46.57727" lon="5.60264">
        <ele>577</ele>
        <time>2022-03-04T17:59:55Z</time>
      </trkpt>
      <trkpt lat="46.57728" lon="5.60264">
        <ele>577</ele>
        <time>2022-03-04T17:59:56Z</time>
      </trkpt>
      <trkpt lat="46.57729" lon="5.60264">
        <ele>577</ele>
        <time>2022-03-04T17:59:57Z</time>
      </trkpt>
      <trkpt lat="46.5773" lon="5.60264">
        <ele>577</ele>
        <time>2022-03-04T17:59:58Z</time>
      </trkpt>
      <trkpt lat="46.5773" lon="5.60264">
        <ele>577</ele>
        <time>2022-03-04T17:59:59Z</time>
      </trkpt>
      <trkpt lat="46.5773" lon="5.60264">
        <ele>577.2</ele>
        <time>2022-03-04T18:00:00Z</time>
      </trkpt>
      <trkpt lat="46.5773" lon="5.60264">
        <ele>577.2</ele>
        <time>2022-03-04T18:00:01Z</time>
      </trkpt>
      <trkpt lat="46.5773" lon="5.60264">
        <ele>577.6</ele>
        <time>2022-03-04T18:00:02Z</time>
      </trkpt>
      <trkpt lat="46.5773" lon="5.60264">
        <ele>577.6</ele>
        <time>2022-03-04T18:00:03Z</time>
      </trkpt>
      <trkpt lat="46.5773" lon="5.60264">
        <ele>577.8</ele>
        <time>2022-03-04T18:00:04Z</time>
      </trkpt>
      <trkpt lat="46.5773" lon="5.60264">
        <ele>577.8</ele>
        <time>2022-03-04T18:00:05Z</time>
      </trkpt>
      <trkpt lat="46.5774" lon="5.60266">
        <ele>578.4</ele>
        <time>2022-03-04T18:00:07Z</time>
      </trkpt>
      <trkpt lat="46.57741" lon="5.60266">
        <ele>578.4</ele>
        <time>2022-03-04T18:00:08Z</time>
      </trkpt>
      <trkpt lat="46.57742" lon="5.60266">
        <ele>578.6</ele>
        <time>2022-03-04T18:00:09Z</time>
      </trkpt>
      <trkpt lat="46.57744" lon="5.60266">
        <ele>579</ele>
        <time>2022-03-04T18:00:10Z</time>
      </trkpt>
      <trkpt lat="46.57744" lon="5.60266">
        <ele>579</ele>
        <time>2022-03-04T18:00:11Z</time>
      </trkpt>
      <trkpt lat="46.57747" lon="5.60266">
        <ele>579.4</ele>
        <time>2022-03-04T18:00:12Z</time>
      </trkpt>
      <trkpt lat="46.57748" lon="5.60267">
        <ele>579.4</ele>
        <time>2022-03-04T18:00:13Z</time>
      </trkpt>
      <trkpt lat="46.5775" lon="5.60267">
        <ele>579.6</ele>
        <time>2022-03-04T18:00:14Z</time>
      </trkpt>
      <trkpt lat="46.57752" lon="5.60268">
        <ele>579.6</ele>
        <time>2022-03-04T18:00:15Z</time>
      </trkpt>
      <trkpt lat="46.57754" lon="5.60268">
        <ele>579.6</ele>
        <time>2022-03-04T18:00:16Z</time>
      </trkpt>
      <trkpt lat="46.57757" lon="5.60269">
        <ele>580</ele>
        <time>2022-03-04T18:00:17Z</time>
      </trkpt>
      <trkpt lat="46.57759" lon="5.60269">
        <ele>580</ele>
        <time>2022-03-04T18:00:18Z</time>
      </trkpt>
      <trkpt lat="46.5776" lon="5.60269">
        <ele>580.2</ele>
        <time>2022-03-04T18:00:19Z</time>
      </trkpt>
      <trkpt lat="46.57762" lon="5.60269">
        <ele>580.2</ele>
        <time>2022-03-04T18:00:20Z</time>
      </trkpt>
      <trkpt lat="46.57764" lon="5.6027">
        <ele>580.4</ele>
        <time>2022-03-04T18:00:21Z</time>
      </trkpt>
      <trkpt lat="46.57765" lon="5.6027">
        <ele>580.4</ele>
        <time>2022-03-04T18:00:22Z</time>
      </trkpt>
      <trkpt lat="46.57767" lon="5.6027">
        <ele>580.6</ele>
        <time>2022-03-04T18:00:23Z</time>
      </trkpt>
      <trkpt lat="46.57769" lon="5.6027">
        <ele>580.6</ele>
        <time>2022-03-04T18:00:24Z</time>
      </trkpt>
      <trkpt lat="46.5777" lon="5.60271">
        <ele>581</ele>
        <time>2022-03-04T18:00:25Z</time>
      </trkpt>
      <trkpt lat="46.57772" lon="5.60271">
        <ele>581.6</ele>
        <time>2022-03-04T18:00:31Z</time>
      </trkpt>
      <trkpt lat="46.57774" lon="5.60271">
        <ele>581.6</ele>
        <time>2022-03-04T18:00:32Z</time>
      </trkpt>
      <trkpt lat="46.57775" lon="5.60271">
        <ele>581.8</ele>
        <time>2022-03-04T18:00:33Z</time>
      </trkpt>
      <trkpt lat="46.57777" lon="5.60271">
        <ele>581.8</ele>
        <time>2022-03-04T18:00:34Z</time>
      </trkpt>
      <trkpt lat="46.57778" lon="5.60272">
        <ele>581.8</ele>
        <time>2022-03-04T18:00:35Z</time>
      </trkpt>
      <trkpt lat="46.57779" lon="5.60272">
        <ele>581.8</ele>
        <time>2022-03-04T18:00:36Z</time>
      </trkpt>
      <trkpt lat="46.57781" lon="5.60272">
        <ele>581.8</ele>
        <time>2022-03-04T18:00:37Z</time>
      </trkpt>
      <trkpt lat="46.57782" lon="5.60273">
        <ele>582</ele>
        <time>2022-03-04T18:00:38Z</time>
      </trkpt>
      <trkpt lat="46.57783" lon="5.60273">
        <ele>582</ele>
        <time>2022-03-04T18:00:39Z</time>
      </trkpt>
      <trkpt lat="46.57784" lon="5.60273">
        <ele>582</ele>
        <time>2022-03-04T18:00:40Z</time>
      </trkpt>
      <trkpt lat="46.57785" lon="5.60273">
        <ele>582.2</ele>
        <time>2022-03-04T18:00:41Z</time>
      </trkpt>
      <trkpt lat="46.57786" lon="5.60274">
        <ele>582.2</ele>
        <time>2022-03-04T18:00:42Z</time>
      </trkpt>
      <trkpt lat="46.57786" lon="5.60274">
        <ele>582.2</ele>
        <time>2022-03-04T18:00:43Z</time>
      </trkpt>
      <trkpt lat="46.57796" lon="5.60275">
        <ele>582.8</ele>
        <time>2022-03-04T18:00:50Z</time>
      </trkpt>
      <trkpt lat="46.57797" lon="5.60276">
        <ele>583</ele>
        <time>2022-03-04T18:00:51Z</time>
      </trkpt>
      <trkpt lat="46.57798" lon="5.60277">
        <ele>583</ele>
        <time>2022-03-04T18:00:52Z</time>
      </trkpt>
      <trkpt lat="46.578" lon="5.60278">
        <ele>583</ele>
        <time>2022-03-04T18:00:53Z</time>
      </trkpt>
      <trkpt lat="46.57801" lon="5.60279">
        <ele>583</ele>
        <time>2022-03-04T18:00:54Z</time>
      </trkpt>
      <trkpt lat="46.57803" lon="5.6028">
        <ele>583</ele>
        <time>2022-03-04T18:00:55Z</time>
      </trkpt>
      <trkpt lat="46.57804" lon="5.6028">
        <ele>583</ele>
        <time>2022-03-04T18:00:56Z</time>
      </trkpt>
      <trkpt lat="46.57805" lon="5.60281">
        <ele>583</ele>
        <time>2022-03-04T18:00:57Z</time>
      </trkpt>
      <trkpt lat="46.57806" lon="5.60281">
        <ele>583.2</ele>
        <time>2022-03-04T18:00:58Z</time>
      </trkpt>
      <trkpt lat="46.57807" lon="5.6028">
        <ele>583.2</ele>
        <time>2022-03-04T18:00:59Z</time>
      </trkpt>
      <trkpt lat="46.57808" lon="5.6028">
        <ele>583.2</ele>
        <time>2022-03-04T18:01:00Z</time>
      </trkpt>
      <trkpt lat="46.5781" lon="5.6028">
        <ele>583.4</ele>
        <time>2022-03-04T18:01:01Z</time>
      </trkpt>
      <trkpt lat="46.57811" lon="5.60281">
        <ele>583.4</ele>
        <time>2022-03-04T18:01:02Z</time>
      </trkpt>
      <trkpt lat="46.57812" lon="5.6028">
        <ele>583.4</ele>
        <time>2022-03-04T18:01:03Z</time>
      </trkpt>
      <trkpt lat="46.57814" lon="5.60281">
        <ele>583.6</ele>
        <time>2022-03-04T18:01:04Z</time>
      </trkpt>
      <trkpt lat="46.57815" lon="5.60281">
        <ele>583.6</ele>
        <time>2022-03-04T18:01:05Z</time>
      </trkpt>
      <trkpt lat="46.57816" lon="5.60281">
        <ele>583.6</ele>
        <time>2022-03-04T18:01:06Z</time>
      </trkpt>
      <trkpt lat="46.57817" lon="5.60281">
        <ele>583.8</ele>
        <time>2022-03-04T18:01:07Z</time>
      </trkpt>
      <trkpt lat="46.57817" lon="5.60281">
        <ele>583.8</ele>
        <time>2022-03-04T18:01:08Z</time>
      </trkpt>
      <trkpt lat="46.57817" lon="5.60281">
        <ele>584</ele>
        <time>2022-03-04T18:01:09Z</time>
      </trkpt>
      <trkpt lat="46.57817" lon="5.60281">
        <ele>584</ele>
        <time>2022-03-04T18:01:10Z</time>
      </trkpt>
      <trkpt lat="46.57826" lon="5.60282">
        <ele>584.6</ele>
        <time>2022-03-04T18:01:13Z</time>
      </trkpt>
      <trkpt lat="46.57828" lon="5.60282">
        <ele>584.6</ele>
        <time>2022-03-04T18:01:14Z</time>
      </trkpt>
      <trkpt lat="46.57829" lon="5.60282">
        <ele>584.6</ele>
        <time>2022-03-04T18:01:15Z</time>
      </trkpt>
      <trkpt lat="46.5783" lon="5.60282">
        <ele>584.6</ele>
        <time>2022-03-04T18:01:16Z</time>
      </trkpt>
      <trkpt lat="46.57832" lon="5.60282">
        <ele>584.6</ele>
        <time>2022-03-04T18:01:17Z</time>
      </trkpt>
      <trkpt lat="46.57832" lon="5.60282">
        <ele>584.6</ele>
        <time>2022-03-04T18:01:18Z</time>
      </trkpt>
      <trkpt lat="46.57833" lon="5.60282">
        <ele>584.6</ele>
        <time>2022-03-04T18:01:19Z</time>
      </trkpt>
      <trkpt lat="46.57835" lon="5.60283">
        <ele>584.8</ele>
        <time>2022-03-04T18:01:20Z</time>
      </trkpt>
      <trkpt lat="46.57835" lon="5.60283">
        <ele>584.8</ele>
        <time>2022-03-04T18:01:21Z</time>
      </trkpt>
      <trkpt lat="46.57835" lon="5.60283">
        <ele>584.8</ele>
        <time>2022-03-04T18:01:22Z</time>
      </trkpt>
      <trkpt lat="46.57835" lon="5.60283">
        <ele>584.8</ele>
        <time>2022-03-04T18:01:23Z</time>
      </trkpt>
      <trkpt lat="46.57845" lon="5.60285">
        <ele>585</ele>
        <time>2022-03-04T18:01:27Z</time>
      </trkpt>
      <trkpt lat="46.57846" lon="5.60286">
        <ele>585</ele>
        <time>2022-03-04T18:01:28Z</time>
      </trkpt>
      <trkpt lat="46.57847" lon="5.60286">
        <ele>585</ele>
        <time>2022-03-04T18:01:29Z</time>
      </trkpt>
      <trkpt lat="46.57849" lon="5.60286">
        <ele>585</ele>
        <time>2022-03-04T18:01:30Z</time>
      </trkpt>
      <trkpt lat="46.5785" lon="5.60287">
        <ele>585</ele>
        <time>2022-03-04T18:01:31Z</time>
      </trkpt>
      <trkpt lat="46.57851" lon="5.60288">
        <ele>585</ele>
        <time>2022-03-04T18:01:32Z</time>
      </trkpt>
      <trkpt lat="46.57853" lon="5.60288">
        <ele>585</ele>
        <time>2022-03-04T18:01:33Z</time>
      </trkpt>
      <trkpt lat="46.57854" lon="5.60288">
        <ele>585</ele>
        <time>2022-03-04T18:01:34Z</time>
      </trkpt>
      <trkpt lat="46.57855" lon="5.60289">
        <ele>584.8</ele>
        <time>2022-03-04T18:01:35Z</time>
      </trkpt>
      <trkpt lat="46.57856" lon="5.60288">
        <ele>584.8</ele>
        <time>2022-03-04T18:01:36Z</time>
      </trkpt>
      <trkpt lat="46.57857" lon="5.60289">
        <ele>584.6</ele>
        <time>2022-03-04T18:01:37Z</time>
      </trkpt>
      <trkpt lat="46.57858" lon="5.60289">
        <ele>584.6</ele>
        <time>2022-03-04T18:01:38Z</time>
      </trkpt>
      <trkpt lat="46.5786" lon="5.60289">
        <ele>584.6</ele>
        <time>2022-03-04T18:01:39Z</time>
      </trkpt>
      <trkpt lat="46.57862" lon="5.60289">
        <ele>584.2</ele>
        <time>2022-03-04T18:01:40Z</time>
      </trkpt>
      <trkpt lat="46.57864" lon="5.60289">
        <ele>584.2</ele>
        <time>2022-03-04T18:01:41Z</time>
      </trkpt>
      <trkpt lat="46.57866" lon="5.6029">
        <ele>584.2</ele>
        <time>2022-03-04T18:01:42Z</time>
      </trkpt>
      <trkpt lat="46.57867" lon="5.6029">
        <ele>584</ele>
        <time>2022-03-04T18:01:43Z</time>
      </trkpt>
      <trkpt lat="46.57869" lon="5.60291">
        <ele>584</ele>
        <time>2022-03-04T18:01:44Z</time>
      </trkpt>
      <trkpt lat="46.5787" lon="5.60291">
        <ele>583.8</ele>
        <time>2022-03-04T18:01:45Z</time>
      </trkpt>
      <trkpt lat="46.57872" lon="5.6029">
        <ele>583.8</ele>
        <time>2022-03-04T18:01:46Z</time>
      </trkpt>
      <trkpt lat="46.57873" lon="5.6029">
        <ele>583.4</ele>
        <time>2022-03-04T18:01:47Z</time>
      </trkpt>
      <trkpt lat="46.57874" lon="5.6029">
        <ele>583.4</ele>
        <time>2022-03-04T18:01:48Z</time>
      </trkpt>
      <trkpt lat="46.57875" lon="5.60291">
        <ele>583.2</ele>
        <time>2022-03-04T18:01:49Z</time>
      </trkpt>
      <trkpt lat="46.57877" lon="5.60291">
        <ele>583.2</ele>
        <time>2022-03-04T18:01:50Z</time>
      </trkpt>
      <trkpt lat="46.5788" lon="5.60291">
        <ele>583</ele>
        <time>2022-03-04T18:01:51Z</time>
      </trkpt>
      <trkpt lat="46.57881" lon="5.60291">
        <ele>583</ele>
        <time>2022-03-04T18:01:52Z</time>
      </trkpt>
      <trkpt lat="46.57882" lon="5.60292">
        <ele>582.8</ele>
        <time>2022-03-04T18:01:53Z</time>
      </trkpt>
      <trkpt lat="46.57883" lon="5.60292">
        <ele>582.8</ele>
        <time>2022-03-04T18:01:54Z</time>
      </trkpt>
      <trkpt lat="46.57884" lon="5.60292">
        <ele>582.6</ele>
        <time>2022-03-04T18:01:55Z</time>
      </trkpt>
      <trkpt lat="46.57885" lon="5.60293">
        <ele>582.6</ele>
        <time>2022-03-04T18:01:56Z</time>
      </trkpt>
      <trkpt lat="46.57886" lon="5.60293">
        <ele>582.4</ele>
        <time>2022-03-04T18:01:59Z</time>
      </trkpt>
      <trkpt lat="46.57887" lon="5.60293">
        <ele>582.4</ele>
        <time>2022-03-04T18:02:00Z</time>
      </trkpt>
      <trkpt lat="46.57888" lon="5.60293">
        <ele>582</ele>
        <time>2022-03-04T18:02:01Z</time>
      </trkpt>
      <trkpt lat="46.57889" lon="5.60294">
        <ele>582</ele>
        <time>2022-03-04T18:02:02Z</time>
      </trkpt>
      <trkpt lat="46.5789" lon="5.60294">
        <ele>581.6</ele>
        <time>2022-03-04T18:02:03Z</time>
      </trkpt>
      <trkpt lat="46.57891" lon="5.60294">
        <ele>581.4</ele>
        <time>2022-03-04T18:02:04Z</time>
      </trkpt>
      <trkpt lat="46.57893" lon="5.60295">
        <ele>581.4</ele>
        <time>2022-03-04T18:02:05Z</time>
      </trkpt>
      <trkpt lat="46.57894" lon="5.60295">
        <ele>581</ele>
        <time>2022-03-04T18:02:06Z</time>
      </trkpt>
      <trkpt lat="46.57895" lon="5.60295">
        <ele>581</ele>
        <time>2022-03-04T18:02:07Z</time>
      </trkpt>
      <trkpt lat="46.57896" lon="5.60296">
        <ele>580.8</ele>
        <time>2022-03-04T18:02:08Z</time>
      </trkpt>
      <trkpt lat="46.57897" lon="5.60296">
        <ele>580.8</ele>
        <time>2022-03-04T18:02:09Z</time>
      </trkpt>
      <trkpt lat="46.57898" lon="5.60296">
        <ele>580.4</ele>
        <time>2022-03-04T18:02:10Z</time>
      </trkpt>
      <trkpt lat="46.57899" lon="5.60296">
        <ele>580.4</ele>
        <time>2022-03-04T18:02:11Z</time>
      </trkpt>
      <trkpt lat="46.579" lon="5.60297">
        <ele>580.2</ele>
        <time>2022-03-04T18:02:12Z</time>
      </trkpt>
      <trkpt lat="46.57901" lon="5.60297">
        <ele>580.2</ele>
        <time>2022-03-04T18:02:13Z</time>
      </trkpt>
      <trkpt lat="46.57902" lon="5.60297">
        <ele>580</ele>
        <time>2022-03-04T18:02:14Z</time>
      </trkpt>
      <trkpt lat="46.57903" lon="5.60298">
        <ele>580</ele>
        <time>2022-03-04T18:02:15Z</time>
      </trkpt>
      <trkpt lat="46.57904" lon="5.60298">
        <ele>579.6</ele>
        <time>2022-03-04T18:02:16Z</time>
      </trkpt>
      <trkpt lat="46.57905" lon="5.60298">
        <ele>579.6</ele>
        <time>2022-03-04T18:02:17Z</time>
      </trkpt>
      <trkpt lat="46.57906" lon="5.60299">
        <ele>579.2</ele>
        <time>2022-03-04T18:02:18Z</time>
      </trkpt>
      <trkpt lat="46.57907" lon="5.60299">
        <ele>579.2</ele>
        <time>2022-03-04T18:02:19Z</time>
      </trkpt>
      <trkpt lat="46.57908" lon="5.60299">
        <ele>579</ele>
        <time>2022-03-04T18:02:20Z</time>
      </trkpt>
      <trkpt lat="46.57909" lon="5.60299">
        <ele>579</ele>
        <time>2022-03-04T18:02:21Z</time>
      </trkpt>
      <trkpt lat="46.5791" lon="5.603">
        <ele>578.8</ele>
        <time>2022-03-04T18:02:22Z</time>
      </trkpt>
      <trkpt lat="46.57911" lon="5.603">
        <ele>578.8</ele>
        <time>2022-03-04T18:02:23Z</time>
      </trkpt>
      <trkpt lat="46.57913" lon="5.603">
        <ele>578.6</ele>
        <time>2022-03-04T18:02:24Z</time>
      </trkpt>
      <trkpt lat="46.57914" lon="5.60301">
        <ele>578.6</ele>
        <time>2022-03-04T18:02:25Z</time>
      </trkpt>
      <trkpt lat="46.57915" lon="5.60301">
        <ele>578.2</ele>
        <time>2022-03-04T18:02:26Z</time>
      </trkpt>
      <trkpt lat="46.57916" lon="5.60301">
        <ele>578.2</ele>
        <time>2022-03-04T18:02:27Z</time>
      </trkpt>
      <trkpt lat="46.57917" lon="5.60302">
        <ele>578.2</ele>
        <time>2022-03-04T18:02:28Z</time>
      </trkpt>
      <trkpt lat="46.57918" lon="5.60302">
        <ele>578.2</ele>
        <time>2022-03-04T18:02:29Z</time>
      </trkpt>
      <trkpt lat="46.57919" lon="5.60302">
        <ele>578</ele>
        <time>2022-03-04T18:02:30Z</time>
      </trkpt>
      <trkpt lat="46.5792" lon="5.60302">
        <ele>578</ele>
        <time>2022-03-04T18:02:31Z</time>
      </trkpt>
      <trkpt lat="46.57921" lon="5.60303">
        <ele>578</ele>
        <time>2022-03-04T18:02:32Z</time>
      </trkpt>
      <trkpt lat="46.57922" lon="5.60303">
        <ele>578</ele>
        <time>2022-03-04T18:02:33Z</time>
      </trkpt>
      <trkpt lat="46.57923" lon="5.60303">
        <ele>577.8</ele>
        <time>2022-03-04T18:02:34Z</time>
      </trkpt>
      <trkpt lat="46.57924" lon="5.60304">
        <ele>577.8</ele>
        <time>2022-03-04T18:02:35Z</time>
      </trkpt>
      <trkpt lat="46.57925" lon="5.60304">
        <ele>577.6</ele>
        <time>2022-03-04T18:02:37Z</time>
      </trkpt>
      <trkpt lat="46.57926" lon="5.60304">
        <ele>577.6</ele>
        <time>2022-03-04T18:02:38Z</time>
      </trkpt>
      <trkpt lat="46.57927" lon="5.60305">
        <ele>577</ele>
        <time>2022-03-04T18:02:45Z</time>
      </trkpt>
      <trkpt lat="46.57928" lon="5.60305">
        <ele>577</ele>
        <time>2022-03-04T18:02:46Z</time>
      </trkpt>
      <trkpt lat="46.57929" lon="5.60305">
        <ele>576.8</ele>
        <time>2022-03-04T18:02:47Z</time>
      </trkpt>
      <trkpt lat="46.5793" lon="5.60305">
        <ele>576.8</ele>
        <time>2022-03-04T18:02:48Z</time>
      </trkpt>
      <trkpt lat="46.57931" lon="5.60306">
        <ele>576.8</ele>
        <time>2022-03-04T18:02:49Z</time>
      </trkpt>
      <trkpt lat="46.57932" lon="5.60306">
        <ele>576.8</ele>
        <time>2022-03-04T18:02:50Z</time>
      </trkpt>
      <trkpt lat="46.57934" lon="5.60306">
        <ele>576.8</ele>
        <time>2022-03-04T18:02:51Z</time>
      </trkpt>
      <trkpt lat="46.57935" lon="5.60307">
        <ele>576.8</ele>
        <time>2022-03-04T18:02:52Z</time>
      </trkpt>
      <trkpt lat="46.57936" lon="5.60307">
        <ele>577</ele>
        <time>2022-03-04T18:02:53Z</time>
      </trkpt>
      <trkpt lat="46.57937" lon="5.60307">
        <ele>577</ele>
        <time>2022-03-04T18:02:54Z</time>
      </trkpt>
      <trkpt lat="46.57938" lon="5.60308">
        <ele>577</ele>
        <time>2022-03-04T18:02:55Z</time>
      </trkpt>
      <trkpt lat="46.57939" lon="5.60308">
        <ele>577</ele>
        <time>2022-03-04T18:02:56Z</time>
      </trkpt>
      <trkpt lat="46.5794" lon="5.60308">
        <ele>577</ele>
        <time>2022-03-04T18:02:57Z</time>
      </trkpt>
      <trkpt lat="46.57941" lon="5.60308">
        <ele>577</ele>
        <time>2022-03-04T18:02:58Z</time>
      </trkpt>
      <trkpt lat="46.57942" lon="5.60309">
        <ele>577</ele>
        <time>2022-03-04T18:02:59Z</time>
      </trkpt>
      <trkpt lat="46.57943" lon="5.60309">
        <ele>577</ele>
        <time>2022-03-04T18:03:00Z</time>
      </trkpt>
      <trkpt lat="46.57944" lon="5.60309">
        <ele>577</ele>
        <time>2022-03-04T18:03:01Z</time>
      </trkpt>
      <trkpt lat="46.57945" lon="5.6031">
        <ele>577</ele>
        <time>2022-03-04T18:03:02Z</time>
      </trkpt>
      <trkpt lat="46.57946" lon="5.6031">
        <ele>577.2</ele>
        <time>2022-03-04T18:03:03Z</time>
      </trkpt>
      <trkpt lat="46.57947" lon="5.6031">
        <ele>577.2</ele>
        <time>2022-03-04T18:03:04Z</time>
      </trkpt>
      <trkpt lat="46.57948" lon="5.6031">
        <ele>577.6</ele>
        <time>2022-03-04T18:03:05Z</time>
      </trkpt>
      <trkpt lat="46.57949" lon="5.6031">
        <ele>577.6</ele>
        <time>2022-03-04T18:03:06Z</time>
      </trkpt>
      <trkpt lat="46.57951" lon="5.6031">
        <ele>577.6</ele>
        <time>2022-03-04T18:03:07Z</time>
      </trkpt>
      <trkpt lat="46.57953" lon="5.60309">
        <ele>577.8</ele>
        <time>2022-03-04T18:03:08Z</time>
      </trkpt>
      <trkpt lat="46.57954" lon="5.60309">
        <ele>577.8</ele>
        <time>2022-03-04T18:03:09Z</time>
      </trkpt>
      <trkpt lat="46.57956" lon="5.6031">
        <ele>577.8</ele>
        <time>2022-03-04T18:03:10Z</time>
      </trkpt>
      <trkpt lat="46.57957" lon="5.6031">
        <ele>577.8</ele>
        <time>2022-03-04T18:03:11Z</time>
      </trkpt>
      <trkpt lat="46.57959" lon="5.6031">
        <ele>577.8</ele>
        <time>2022-03-04T18:03:12Z</time>
      </trkpt>
      <trkpt lat="46.5796" lon="5.6031">
        <ele>578</ele>
        <time>2022-03-04T18:03:13Z</time>
      </trkpt>
      <trkpt lat="46.57961" lon="5.60311">
        <ele>578</ele>
        <time>2022-03-04T18:03:14Z</time>
      </trkpt>
      <trkpt lat="46.57962" lon="5.60311">
        <ele>578.2</ele>
        <time>2022-03-04T18:03:15Z</time>
      </trkpt>
      <trkpt lat="46.57963" lon="5.60312">
        <ele>578.2</ele>
        <time>2022-03-04T18:03:16Z</time>
      </trkpt>
      <trkpt lat="46.57963" lon="5.60312">
        <ele>578.4</ele>
        <time>2022-03-04T18:03:17Z</time>
      </trkpt>
      <trkpt lat="46.57963" lon="5.60311">
        <ele>578.4</ele>
        <time>2022-03-04T18:03:18Z</time>
      </trkpt>
      <trkpt lat="46.57964" lon="5.60312">
        <ele>578.4</ele>
        <time>2022-03-04T18:03:19Z</time>
      </trkpt>
      <trkpt lat="46.57964" lon="5.60312">
        <ele>578.6</ele>
        <time>2022-03-04T18:03:20Z</time>
      </trkpt>
      <trkpt lat="46.57968" lon="5.60312">
        <ele>579</ele>
        <time>2022-03-04T18:03:23Z</time>
      </trkpt>
      <trkpt lat="46.57969" lon="5.60313">
        <ele>579</ele>
        <time>2022-03-04T18:03:24Z</time>
      </trkpt>
      <trkpt lat="46.5797" lon="5.60313">
        <ele>579.4</ele>
        <time>2022-03-04T18:03:25Z</time>
      </trkpt>
      <trkpt lat="46.57971" lon="5.60314">
        <ele>579.4</ele>
        <time>2022-03-04T18:03:26Z</time>
      </trkpt>
      <trkpt lat="46.57973" lon="5.60313">
        <ele>579.4</ele>
        <time>2022-03-04T18:03:27Z</time>
      </trkpt>
      <trkpt lat="46.57975" lon="5.60313">
        <ele>579.4</ele>
        <time>2022-03-04T18:03:28Z</time>
      </trkpt>
      <trkpt lat="46.57976" lon="5.60312">
        <ele>579.6</ele>
        <time>2022-03-04T18:03:29Z</time>
      </trkpt>
      <trkpt lat="46.57977" lon="5.60312">
        <ele>579.6</ele>
        <time>2022-03-04T18:03:30Z</time>
      </trkpt>
      <trkpt lat="46.57979" lon="5.60312">
        <ele>580</ele>
        <time>2022-03-04T18:03:31Z</time>
      </trkpt>
      <trkpt lat="46.57981" lon="5.60312">
        <ele>580</ele>
        <time>2022-03-04T18:03:32Z</time>
      </trkpt>
      <trkpt lat="46.57983" lon="5.60314">
        <ele>580.2</ele>
        <time>2022-03-04T18:03:33Z</time>
      </trkpt>
      <trkpt lat="46.57986" lon="5.60314">
        <ele>580.2</ele>
        <time>2022-03-04T18:03:34Z</time>
      </trkpt>
      <trkpt lat="46.57987" lon="5.60315">
        <ele>580.4</ele>
        <time>2022-03-04T18:03:35Z</time>
      </trkpt>
      <trkpt lat="46.57988" lon="5.60315">
        <ele>580.4</ele>
        <time>2022-03-04T18:03:36Z</time>
      </trkpt>
      <trkpt lat="46.57989" lon="5.60315">
        <ele>580.6</ele>
        <time>2022-03-04T18:03:37Z</time>
      </trkpt>
      <trkpt lat="46.5799" lon="5.60315">
        <ele>580.6</ele>
        <time>2022-03-04T18:03:38Z</time>
      </trkpt>
      <trkpt lat="46.57991" lon="5.60315">
        <ele>580.8</ele>
        <time>2022-03-04T18:03:39Z</time>
      </trkpt>
      <trkpt lat="46.57992" lon="5.60316">
        <ele>580.8</ele>
        <time>2022-03-04T18:03:40Z</time>
      </trkpt>
      <trkpt lat="46.57993" lon="5.60316">
        <ele>581.2</ele>
        <time>2022-03-04T18:03:41Z</time>
      </trkpt>
      <trkpt lat="46.57994" lon="5.60316">
        <ele>581.2</ele>
        <time>2022-03-04T18:03:42Z</time>
      </trkpt>
      <trkpt lat="46.57996" lon="5.60316">
        <ele>581.4</ele>
        <time>2022-03-04T18:03:43Z</time>
      </trkpt>
      <trkpt lat="46.57997" lon="5.60316">
        <ele>581.6</ele>
        <time>2022-03-04T18:03:44Z</time>
      </trkpt>
      <trkpt lat="46.57998" lon="5.60317">
        <ele>581.6</ele>
        <time>2022-03-04T18:03:45Z</time>
      </trkpt>
      <trkpt lat="46.57999" lon="5.60317">
        <ele>582</ele>
        <time>2022-03-04T18:03:46Z</time>
      </trkpt>
      <trkpt lat="46.58" lon="5.60317">
        <ele>582</ele>
        <time>2022-03-04T18:03:47Z</time>
      </trkpt>
      <trkpt lat="46.58001" lon="5.60317">
        <ele>582.2</ele>
        <time>2022-03-04T18:03:48Z</time>
      </trkpt>
      <trkpt lat="46.58004" lon="5.60317">
        <ele>582.2</ele>
        <time>2022-03-04T18:03:49Z</time>
      </trkpt>
      <trkpt lat="46.58005" lon="5.60317">
        <ele>582.4</ele>
        <time>2022-03-04T18:03:50Z</time>
      </trkpt>
      <trkpt lat="46.58007" lon="5.60317">
        <ele>582.4</ele>
        <time>2022-03-04T18:03:51Z</time>
      </trkpt>
      <trkpt lat="46.58008" lon="5.60318">
        <ele>582.6</ele>
        <time>2022-03-04T18:03:52Z</time>
      </trkpt>
      <trkpt lat="46.5801" lon="5.60318">
        <ele>582.6</ele>
        <time>2022-03-04T18:03:53Z</time>
      </trkpt>
      <trkpt lat="46.58011" lon="5.60318">
        <ele>583</ele>
        <time>2022-03-04T18:03:54Z</time>
      </trkpt>
      <trkpt lat="46.58012" lon="5.60318">
        <ele>583</ele>
        <time>2022-03-04T18:03:55Z</time>
      </trkpt>
      <trkpt lat="46.58014" lon="5.60318">
        <ele>583.2</ele>
        <time>2022-03-04T18:03:56Z</time>
      </trkpt>
      <trkpt lat="46.58015" lon="5.60318">
        <ele>583.2</ele>
        <time>2022-03-04T18:03:57Z</time>
      </trkpt>
      <trkpt lat="46.58017" lon="5.60318">
        <ele>583.2</ele>
        <time>2022-03-04T18:03:58Z</time>
      </trkpt>
      <trkpt lat="46.58018" lon="5.60318">
        <ele>583.4</ele>
        <time>2022-03-04T18:03:59Z</time>
      </trkpt>
      <trkpt lat="46.5802" lon="5.60318">
        <ele>583.4</ele>
        <time>2022-03-04T18:04:00Z</time>
      </trkpt>
      <trkpt lat="46.58021" lon="5.60318">
        <ele>583.6</ele>
        <time>2022-03-04T18:04:01Z</time>
      </trkpt>
      <trkpt lat="46.58022" lon="5.60318">
        <ele>583.6</ele>
        <time>2022-03-04T18:04:02Z</time>
      </trkpt>
      <trkpt lat="46.58024" lon="5.60318">
        <ele>583.6</ele>
        <time>2022-03-04T18:04:03Z</time>
      </trkpt>
      <trkpt lat="46.58025" lon="5.60318">
        <ele>584</ele>
        <time>2022-03-04T18:04:04Z</time>
      </trkpt>
      <trkpt lat="46.58027" lon="5.60318">
        <ele>584</ele>
        <time>2022-03-04T18:04:05Z</time>
      </trkpt>
      <trkpt lat="46.58028" lon="5.60319">
        <ele>584</ele>
        <time>2022-03-04T18:04:06Z</time>
      </trkpt>
      <trkpt lat="46.58029" lon="5.60319">
        <ele>584.2</ele>
        <time>2022-03-04T18:04:07Z</time>
      </trkpt>
      <trkpt lat="46.58031" lon="5.60319">
        <ele>584.2</ele>
        <time>2022-03-04T18:04:08Z</time>
      </trkpt>
      <trkpt lat="46.58032" lon="5.60319">
        <ele>584.2</ele>
        <time>2022-03-04T18:04:09Z</time>
      </trkpt>
      <trkpt lat="46.58034" lon="5.60319">
        <ele>584.4</ele>
        <time>2022-03-04T18:04:10Z</time>
      </trkpt>
      <trkpt lat="46.58035" lon="5.60319">
        <ele>584.4</ele>
        <time>2022-03-04T18:04:11Z</time>
      </trkpt>
      <trkpt lat="46.58037" lon="5.60319">
        <ele>584.4</ele>
        <time>2022-03-04T18:04:12Z</time>
      </trkpt>
      <trkpt lat="46.58038" lon="5.60319">
        <ele>584.4</ele>
        <time>2022-03-04T18:04:13Z</time>
      </trkpt>
      <trkpt lat="46.58039" lon="5.60319">
        <ele>585.4</ele>
        <time>2022-03-04T18:04:21Z</time>
      </trkpt>
      <trkpt lat="46.58041" lon="5.60319">
        <ele>585.8</ele>
        <time>2022-03-04T18:04:22Z</time>
      </trkpt>
      <trkpt lat="46.58042" lon="5.60319">
        <ele>585.8</ele>
        <time>2022-03-04T18:04:23Z</time>
      </trkpt>
      <trkpt lat="46.58044" lon="5.60319">
        <ele>586</ele>
        <time>2022-03-04T18:04:24Z</time>
      </trkpt>
      <trkpt lat="46.58045" lon="5.60319">
        <ele>586</ele>
        <time>2022-03-04T18:04:25Z</time>
      </trkpt>
      <trkpt lat="46.58047" lon="5.60319">
        <ele>587.2</ele>
        <time>2022-03-04T18:04:32Z</time>
      </trkpt>
      <trkpt lat="46.58048" lon="5.6032">
        <ele>587.4</ele>
        <time>2022-03-04T18:04:33Z</time>
      </trkpt>
      <trkpt lat="46.5805" lon="5.6032">
        <ele>587.4</ele>
        <time>2022-03-04T18:04:34Z</time>
      </trkpt>
      <trkpt lat="46.58051" lon="5.6032">
        <ele>587.8</ele>
        <time>2022-03-04T18:04:35Z</time>
      </trkpt>
      <trkpt lat="46.58052" lon="5.60321">
        <ele>587.8</ele>
        <time>2022-03-04T18:04:36Z</time>
      </trkpt>
      <trkpt lat="46.58054" lon="5.60321">
        <ele>587.8</ele>
        <time>2022-03-04T18:04:37Z</time>
      </trkpt>
      <trkpt lat="46.58055" lon="5.60321">
        <ele>587.8</ele>
        <time>2022-03-04T18:04:38Z</time>
      </trkpt>
      <trkpt lat="46.58056" lon="5.60322">
        <ele>587.8</ele>
        <time>2022-03-04T18:04:39Z</time>
      </trkpt>
      <trkpt lat="46.58057" lon="5.60322">
        <ele>588.4</ele>
        <time>2022-03-04T18:04:44Z</time>
      </trkpt>
      <trkpt lat="46.58059" lon="5.60323">
        <ele>588.6</ele>
        <time>2022-03-04T18:04:45Z</time>
      </trkpt>
      <trkpt lat="46.5806" lon="5.60323">
        <ele>588.6</ele>
        <time>2022-03-04T18:04:46Z</time>
      </trkpt>
      <trkpt lat="46.58062" lon="5.60323">
        <ele>588.8</ele>
        <time>2022-03-04T18:04:47Z</time>
      </trkpt>
      <trkpt lat="46.58063" lon="5.60323">
        <ele>588.8</ele>
        <time>2022-03-04T18:04:48Z</time>
      </trkpt>
      <trkpt lat="46.58064" lon="5.60323">
        <ele>589</ele>
        <time>2022-03-04T18:04:49Z</time>
      </trkpt>
      <trkpt lat="46.58065" lon="5.60323">
        <ele>589</ele>
        <time>2022-03-04T18:04:50Z</time>
      </trkpt>
      <trkpt lat="46.58065" lon="5.60323">
        <ele>589</ele>
        <time>2022-03-04T18:04:51Z</time>
      </trkpt>
      <trkpt lat="46.58066" lon="5.60324">
        <ele>589.4</ele>
        <time>2022-03-04T18:04:52Z</time>
      </trkpt>
      <trkpt lat="46.58067" lon="5.60324">
        <ele>589.6</ele>
        <time>2022-03-04T18:04:56Z</time>
      </trkpt>
      <trkpt lat="46.58068" lon="5.60324">
        <ele>589.6</ele>
        <time>2022-03-04T18:04:57Z</time>
      </trkpt>
      <trkpt lat="46.58069" lon="5.60324">
        <ele>589.8</ele>
        <time>2022-03-04T18:04:59Z</time>
      </trkpt>
      <trkpt lat="46.5807" lon="5.60324">
        <ele>589.8</ele>
        <time>2022-03-04T18:05:00Z</time>
      </trkpt>
      <trkpt lat="46.58071" lon="5.60324">
        <ele>589.8</ele>
        <time>2022-03-04T18:05:01Z</time>
      </trkpt>
      <trkpt lat="46.58072" lon="5.60324">
        <ele>590</ele>
        <time>2022-03-04T18:05:02Z</time>
      </trkpt>
      <trkpt lat="46.58073" lon="5.60324">
        <ele>590</ele>
        <time>2022-03-04T18:05:03Z</time>
      </trkpt>
      <trkpt lat="46.58074" lon="5.60324">
        <ele>590</ele>
        <time>2022-03-04T18:05:04Z</time>
      </trkpt>
      <trkpt lat="46.58075" lon="5.60324">
        <ele>590</ele>
        <time>2022-03-04T18:05:05Z</time>
      </trkpt>
      <trkpt lat="46.58076" lon="5.60324">
        <ele>590</ele>
        <time>2022-03-04T18:05:06Z</time>
      </trkpt>
      <trkpt lat="46.58077" lon="5.60324">
        <ele>590</ele>
        <time>2022-03-04T18:05:07Z</time>
      </trkpt>
      <trkpt lat="46.58078" lon="5.60324">
        <ele>590</ele>
        <time>2022-03-04T18:05:08Z</time>
      </trkpt>
      <trkpt lat="46.58078" lon="5.60325">
        <ele>590</ele>
        <time>2022-03-04T18:05:09Z</time>
      </trkpt>
      <trkpt lat="46.58079" lon="5.60325">
        <ele>590</ele>
        <time>2022-03-04T18:05:10Z</time>
      </trkpt>
      <trkpt lat="46.5808" lon="5.60325">
        <ele>590</ele>
        <time>2022-03-04T18:05:11Z</time>
      </trkpt>
      <trkpt lat="46.58081" lon="5.60325">
        <ele>590</ele>
        <time>2022-03-04T18:05:12Z</time>
      </trkpt>
      <trkpt lat="46.58081" lon="5.60325">
        <ele>590</ele>
        <time>2022-03-04T18:05:13Z</time>
      </trkpt>
      <trkpt lat="46.58082" lon="5.60325">
        <ele>590</ele>
        <time>2022-03-04T18:05:14Z</time>
      </trkpt>
      <trkpt lat="46.58083" lon="5.60325">
        <ele>590</ele>
        <time>2022-03-04T18:05:15Z</time>
      </trkpt>
      <trkpt lat="46.58084" lon="5.60325">
        <ele>590</ele>
        <time>2022-03-04T18:05:16Z</time>
      </trkpt>
      <trkpt lat="46.58084" lon="5.60325">
        <ele>590.4</ele>
        <time>2022-03-04T18:05:17Z</time>
      </trkpt>
      <trkpt lat="46.58085" lon="5.60325">
        <ele>590.4</ele>
        <time>2022-03-04T18:05:18Z</time>
      </trkpt>
      <trkpt lat="46.58087" lon="5.60326">
        <ele>590.4</ele>
        <time>2022-03-04T18:05:19Z</time>
      </trkpt>
      <trkpt lat="46.58088" lon="5.60325">
        <ele>590.4</ele>
        <time>2022-03-04T18:05:20Z</time>
      </trkpt>
      <trkpt lat="46.58089" lon="5.60325">
        <ele>590.4</ele>
        <time>2022-03-04T18:05:21Z</time>
      </trkpt>
      <trkpt lat="46.5809" lon="5.60325">
        <ele>590.4</ele>
        <time>2022-03-04T18:05:22Z</time>
      </trkpt>
      <trkpt lat="46.58092" lon="5.60325">
        <ele>590.4</ele>
        <time>2022-03-04T18:05:23Z</time>
      </trkpt>
      <trkpt lat="46.58093" lon="5.60326">
        <ele>590.4</ele>
        <time>2022-03-04T18:05:24Z</time>
      </trkpt>
      <trkpt lat="46.58093" lon="5.60326">
        <ele>590.4</ele>
        <time>2022-03-04T18:05:25Z</time>
      </trkpt>
      <trkpt lat="46.58093" lon="5.60326">
        <ele>590.4</ele>
        <time>2022-03-04T18:05:26Z</time>
      </trkpt>
      <trkpt lat="46.58101" lon="5.60333">
        <ele>590.4</ele>
        <time>2022-03-04T18:05:32Z</time>
      </trkpt>
      <trkpt lat="46.58103" lon="5.60334">
        <ele>590.8</ele>
        <time>2022-03-04T18:05:33Z</time>
      </trkpt>
      <trkpt lat="46.58104" lon="5.60335">
        <ele>590.8</ele>
        <time>2022-03-04T18:05:34Z</time>
      </trkpt>
      <trkpt lat="46.58105" lon="5.60337">
        <ele>591</ele>
        <time>2022-03-04T18:05:35Z</time>
      </trkpt>
      <trkpt lat="46.58105" lon="5.60337">
        <ele>591</ele>
        <time>2022-03-04T18:05:36Z</time>
      </trkpt>
      <trkpt lat="46.58108" lon="5.60338">
        <ele>591</ele>
        <time>2022-03-04T18:05:37Z</time>
      </trkpt>
      <trkpt lat="46.5811" lon="5.60339">
        <ele>591</ele>
        <time>2022-03-04T18:05:38Z</time>
      </trkpt>
      <trkpt lat="46.58111" lon="5.6034">
        <ele>591</ele>
        <time>2022-03-04T18:05:39Z</time>
      </trkpt>
      <trkpt lat="46.58112" lon="5.6034">
        <ele>591</ele>
        <time>2022-03-04T18:05:40Z</time>
      </trkpt>
      <trkpt lat="46.58114" lon="5.6034">
        <ele>591</ele>
        <time>2022-03-04T18:05:41Z</time>
      </trkpt>
      <trkpt lat="46.58114" lon="5.6034">
        <ele>590.8</ele>
        <time>2022-03-04T18:05:42Z</time>
      </trkpt>
      <trkpt lat="46.58115" lon="5.6034">
        <ele>590.8</ele>
        <time>2022-03-04T18:05:43Z</time>
      </trkpt>
      <trkpt lat="46.58115" lon="5.6034">
        <ele>590.4</ele>
        <time>2022-03-04T18:05:44Z</time>
      </trkpt>
      <trkpt lat="46.58118" lon="5.60338">
        <ele>590.4</ele>
        <time>2022-03-04T18:05:45Z</time>
      </trkpt>
      <trkpt lat="46.58119" lon="5.60338">
        <ele>590.2</ele>
        <time>2022-03-04T18:05:46Z</time>
      </trkpt>
      <trkpt lat="46.5812" lon="5.60338">
        <ele>590.2</ele>
        <time>2022-03-04T18:05:47Z</time>
      </trkpt>
      <trkpt lat="46.58122" lon="5.60339">
        <ele>590.2</ele>
        <time>2022-03-04T18:05:48Z</time>
      </trkpt>
      <trkpt lat="46.58123" lon="5.60339">
        <ele>590.2</ele>
        <time>2022-03-04T18:05:49Z</time>
      </trkpt>
      <trkpt lat="46.58124" lon="5.6034">
        <ele>590.2</ele>
        <time>2022-03-04T18:05:50Z</time>
      </trkpt>
      <trkpt lat="46.58125" lon="5.6034">
        <ele>590.2</ele>
        <time>2022-03-04T18:05:51Z</time>
      </trkpt>
      <trkpt lat="46.58127" lon="5.60341">
        <ele>590.2</ele>
        <time>2022-03-04T18:05:52Z</time>
      </trkpt>
      <trkpt lat="46.58128" lon="5.60341">
        <ele>590.2</ele>
        <time>2022-03-04T18:05:53Z</time>
      </trkpt>
      <trkpt lat="46.5813" lon="5.6034">
        <ele>590.2</ele>
        <time>2022-03-04T18:05:54Z</time>
      </trkpt>
      <trkpt lat="46.58131" lon="5.60341">
        <ele>590.4</ele>
        <time>2022-03-04T18:05:55Z</time>
      </trkpt>
      <trkpt lat="46.58133" lon="5.60341">
        <ele>590.4</ele>
        <time>2022-03-04T18:05:56Z</time>
      </trkpt>
      <trkpt lat="46.58134" lon="5.60341">
        <ele>590.8</ele>
        <time>2022-03-04T18:05:57Z</time>
      </trkpt>
      <trkpt lat="46.58135" lon="5.60342">
        <ele>590.8</ele>
        <time>2022-03-04T18:05:58Z</time>
      </trkpt>
      <trkpt lat="46.58136" lon="5.60341">
        <ele>591</ele>
        <time>2022-03-04T18:05:59Z</time>
      </trkpt>
      <trkpt lat="46.58137" lon="5.60342">
        <ele>591</ele>
        <time>2022-03-04T18:06:00Z</time>
      </trkpt>
      <trkpt lat="46.58138" lon="5.60342">
        <ele>591.4</ele>
        <time>2022-03-04T18:06:01Z</time>
      </trkpt>
      <trkpt lat="46.58139" lon="5.60342">
        <ele>591.4</ele>
        <time>2022-03-04T18:06:02Z</time>
      </trkpt>
      <trkpt lat="46.5814" lon="5.60342">
        <ele>591.8</ele>
        <time>2022-03-04T18:06:03Z</time>
      </trkpt>
      <trkpt lat="46.58142" lon="5.60342">
        <ele>591.8</ele>
        <time>2022-03-04T18:06:04Z</time>
      </trkpt>
      <trkpt lat="46.58143" lon="5.60342">
        <ele>592.2</ele>
        <time>2022-03-04T18:06:05Z</time>
      </trkpt>
      <trkpt lat="46.58144" lon="5.60342">
        <ele>592.2</ele>
        <time>2022-03-04T18:06:06Z</time>
      </trkpt>
      <trkpt lat="46.58145" lon="5.60342">
        <ele>592.4</ele>
        <time>2022-03-04T18:06:07Z</time>
      </trkpt>
      <trkpt lat="46.58145" lon="5.60342">
        <ele>592.4</ele>
        <time>2022-03-04T18:06:08Z</time>
      </trkpt>
      <trkpt lat="46.58145" lon="5.60342">
        <ele>593.8</ele>
        <time>2022-03-04T18:06:14Z</time>
      </trkpt>
      <trkpt lat="46.58145" lon="5.60342">
        <ele>593.8</ele>
        <time>2022-03-04T18:06:15Z</time>
      </trkpt>
      <trkpt lat="46.58154" lon="5.6034">
        <ele>594.4</ele>
        <time>2022-03-04T18:06:18Z</time>
      </trkpt>
      <trkpt lat="46.58156" lon="5.6034">
        <ele>594.4</ele>
        <time>2022-03-04T18:06:19Z</time>
      </trkpt>
      <trkpt lat="46.58157" lon="5.6034">
        <ele>594.8</ele>
        <time>2022-03-04T18:06:20Z</time>
      </trkpt>
      <trkpt lat="46.58158" lon="5.6034">
        <ele>594.8</ele>
        <time>2022-03-04T18:06:21Z</time>
      </trkpt>
      <trkpt lat="46.58158" lon="5.6034">
        <ele>595.2</ele>
        <time>2022-03-04T18:06:22Z</time>
      </trkpt>
      <trkpt lat="46.58166" lon="5.60341">
        <ele>595.8</ele>
        <time>2022-03-04T18:06:28Z</time>
      </trkpt>
      <trkpt lat="46.58167" lon="5.60341">
        <ele>595.8</ele>
        <time>2022-03-04T18:06:29Z</time>
      </trkpt>
      <trkpt lat="46.58169" lon="5.60341">
        <ele>595.8</ele>
        <time>2022-03-04T18:06:30Z</time>
      </trkpt>
      <trkpt lat="46.5817" lon="5.60341">
        <ele>596.2</ele>
        <time>2022-03-04T18:06:31Z</time>
      </trkpt>
      <trkpt lat="46.5817" lon="5.60341">
        <ele>596.2</ele>
        <time>2022-03-04T18:06:32Z</time>
      </trkpt>
      <trkpt lat="46.58174" lon="5.60341">
        <ele>596.2</ele>
        <time>2022-03-04T18:06:33Z</time>
      </trkpt>
      <trkpt lat="46.58175" lon="5.60342">
        <ele>596.6</ele>
        <time>2022-03-04T18:06:34Z</time>
      </trkpt>
      <trkpt lat="46.58177" lon="5.60342">
        <ele>596.6</ele>
        <time>2022-03-04T18:06:35Z</time>
      </trkpt>
      <trkpt lat="46.58178" lon="5.60343">
        <ele>596.6</ele>
        <time>2022-03-04T18:06:36Z</time>
      </trkpt>
      <trkpt lat="46.58179" lon="5.60344">
        <ele>596.8</ele>
        <time>2022-03-04T18:06:37Z</time>
      </trkpt>
      <trkpt lat="46.58182" lon="5.60345">
        <ele>596.8</ele>
        <time>2022-03-04T18:06:38Z</time>
      </trkpt>
      <trkpt lat="46.58184" lon="5.60346">
        <ele>597</ele>
        <time>2022-03-04T18:06:39Z</time>
      </trkpt>
      <trkpt lat="46.58186" lon="5.60346">
        <ele>597</ele>
        <time>2022-03-04T18:06:40Z</time>
      </trkpt>
      <trkpt lat="46.58187" lon="5.60347">
        <ele>597.4</ele>
        <time>2022-03-04T18:06:41Z</time>
      </trkpt>
      <trkpt lat="46.58188" lon="5.60347">
        <ele>597.6</ele>
        <time>2022-03-04T18:06:42Z</time>
      </trkpt>
      <trkpt lat="46.5819" lon="5.60347">
        <ele>597.6</ele>
        <time>2022-03-04T18:06:43Z</time>
      </trkpt>
      <trkpt lat="46.58191" lon="5.60348">
        <ele>597.8</ele>
        <time>2022-03-04T18:06:44Z</time>
      </trkpt>
      <trkpt lat="46.58193" lon="5.60348">
        <ele>597.8</ele>
        <time>2022-03-04T18:06:45Z</time>
      </trkpt>
      <trkpt lat="46.58194" lon="5.60349">
        <ele>598.8</ele>
        <time>2022-03-04T18:06:50Z</time>
      </trkpt>
      <trkpt lat="46.58195" lon="5.60349">
        <ele>598.8</ele>
        <time>2022-03-04T18:06:51Z</time>
      </trkpt>
      <trkpt lat="46.58197" lon="5.6035">
        <ele>598.8</ele>
        <time>2022-03-04T18:06:52Z</time>
      </trkpt>
      <trkpt lat="46.58198" lon="5.60349">
        <ele>598.8</ele>
        <time>2022-03-04T18:06:53Z</time>
      </trkpt>
      <trkpt lat="46.58199" lon="5.60349">
        <ele>598.8</ele>
        <time>2022-03-04T18:06:54Z</time>
      </trkpt>
      <trkpt lat="46.582" lon="5.60349">
        <ele>598.8</ele>
        <time>2022-03-04T18:06:55Z</time>
      </trkpt>
      <trkpt lat="46.582" lon="5.60349">
        <ele>598.8</ele>
        <time>2022-03-04T18:06:56Z</time>
      </trkpt>
      <trkpt lat="46.58201" lon="5.60349">
        <ele>598.8</ele>
        <time>2022-03-04T18:06:57Z</time>
      </trkpt>
      <trkpt lat="46.58201" lon="5.60349">
        <ele>599</ele>
        <time>2022-03-04T18:06:58Z</time>
      </trkpt>
      <trkpt lat="46.58202" lon="5.60349">
        <ele>599</ele>
        <time>2022-03-04T18:07:00Z</time>
      </trkpt>
      <trkpt lat="46.58202" lon="5.60349">
        <ele>599</ele>
        <time>2022-03-04T18:07:01Z</time>
      </trkpt>
      <trkpt lat="46.58203" lon="5.60349">
        <ele>599</ele>
        <time>2022-03-04T18:07:02Z</time>
      </trkpt>
      <trkpt lat="46.58203" lon="5.60349">
        <ele>599</ele>
        <time>2022-03-04T18:07:03Z</time>
      </trkpt>
      <trkpt lat="46.58204" lon="5.60349">
        <ele>599</ele>
        <time>2022-03-04T18:07:04Z</time>
      </trkpt>
      <trkpt lat="46.58204" lon="5.60349">
        <ele>599</ele>
        <time>2022-03-04T18:07:05Z</time>
      </trkpt>
      <trkpt lat="46.58205" lon="5.60349">
        <ele>599</ele>
        <time>2022-03-04T18:07:06Z</time>
      </trkpt>
      <trkpt lat="46.58206" lon="5.60349">
        <ele>599</ele>
        <time>2022-03-04T18:07:07Z</time>
      </trkpt>
      <trkpt lat="46.58208" lon="5.60349">
        <ele>599.2</ele>
        <time>2022-03-04T18:07:08Z</time>
      </trkpt>
      <trkpt lat="46.58209" lon="5.6035">
        <ele>599.2</ele>
        <time>2022-03-04T18:07:09Z</time>
      </trkpt>
      <trkpt lat="46.5821" lon="5.6035">
        <ele>599.2</ele>
        <time>2022-03-04T18:07:10Z</time>
      </trkpt>
      <trkpt lat="46.58212" lon="5.6035">
        <ele>599.2</ele>
        <time>2022-03-04T18:07:11Z</time>
      </trkpt>
      <trkpt lat="46.58213" lon="5.6035">
        <ele>599.2</ele>
        <time>2022-03-04T18:07:12Z</time>
      </trkpt>
      <trkpt lat="46.58214" lon="5.60351">
        <ele>599.2</ele>
        <time>2022-03-04T18:07:13Z</time>
      </trkpt>
      <trkpt lat="46.58215" lon="5.60351">
        <ele>599.2</ele>
        <time>2022-03-04T18:07:14Z</time>
      </trkpt>
      <trkpt lat="46.58217" lon="5.60351">
        <ele>599.2</ele>
        <time>2022-03-04T18:07:15Z</time>
      </trkpt>
      <trkpt lat="46.58218" lon="5.60351">
        <ele>599.4</ele>
        <time>2022-03-04T18:07:16Z</time>
      </trkpt>
      <trkpt lat="46.58219" lon="5.60351">
        <ele>599.4</ele>
        <time>2022-03-04T18:07:17Z</time>
      </trkpt>
      <trkpt lat="46.5822" lon="5.60351">
        <ele>599.4</ele>
        <time>2022-03-04T18:07:18Z</time>
      </trkpt>
      <trkpt lat="46.58222" lon="5.60352">
        <ele>599.4</ele>
        <time>2022-03-04T18:07:19Z</time>
      </trkpt>
      <trkpt lat="46.58223" lon="5.60352">
        <ele>599.4</ele>
        <time>2022-03-04T18:07:20Z</time>
      </trkpt>
      <trkpt lat="46.58225" lon="5.60352">
        <ele>599.4</ele>
        <time>2022-03-04T18:07:21Z</time>
      </trkpt>
      <trkpt lat="46.58226" lon="5.60353">
        <ele>599.4</ele>
        <time>2022-03-04T18:07:22Z</time>
      </trkpt>
      <trkpt lat="46.58227" lon="5.60353">
        <ele>599.4</ele>
        <time>2022-03-04T18:07:23Z</time>
      </trkpt>
      <trkpt lat="46.58228" lon="5.60352">
        <ele>599.4</ele>
        <time>2022-03-04T18:07:24Z</time>
      </trkpt>
      <trkpt lat="46.5823" lon="5.60352">
        <ele>599.6</ele>
        <time>2022-03-04T18:07:25Z</time>
      </trkpt>
      <trkpt lat="46.58231" lon="5.60352">
        <ele>599.6</ele>
        <time>2022-03-04T18:07:26Z</time>
      </trkpt>
      <trkpt lat="46.58232" lon="5.60352">
        <ele>599.6</ele>
        <time>2022-03-04T18:07:27Z</time>
      </trkpt>
      <trkpt lat="46.58233" lon="5.60352">
        <ele>600</ele>
        <time>2022-03-04T18:07:28Z</time>
      </trkpt>
      <trkpt lat="46.58234" lon="5.60352">
        <ele>600</ele>
        <time>2022-03-04T18:07:29Z</time>
      </trkpt>
      <trkpt lat="46.58236" lon="5.60352">
        <ele>600.2</ele>
        <time>2022-03-04T18:07:30Z</time>
      </trkpt>
      <trkpt lat="46.58237" lon="5.60351">
        <ele>600.2</ele>
        <time>2022-03-04T18:07:31Z</time>
      </trkpt>
      <trkpt lat="46.58239" lon="5.60352">
        <ele>600.6</ele>
        <time>2022-03-04T18:07:32Z</time>
      </trkpt>
      <trkpt lat="46.58239" lon="5.60352">
        <ele>600.6</ele>
        <time>2022-03-04T18:07:33Z</time>
      </trkpt>
      <trkpt lat="46.58243" lon="5.60352">
        <ele>600.8</ele>
        <time>2022-03-04T18:07:35Z</time>
      </trkpt>
      <trkpt lat="46.58245" lon="5.60353">
        <ele>601.2</ele>
        <time>2022-03-04T18:07:36Z</time>
      </trkpt>
      <trkpt lat="46.58246" lon="5.60353">
        <ele>601.4</ele>
        <time>2022-03-04T18:07:37Z</time>
      </trkpt>
      <trkpt lat="46.58248" lon="5.60354">
        <ele>601.6</ele>
        <time>2022-03-04T18:07:38Z</time>
      </trkpt>
      <trkpt lat="46.5825" lon="5.60355">
        <ele>601.6</ele>
        <time>2022-03-04T18:07:39Z</time>
      </trkpt>
      <trkpt lat="46.58251" lon="5.60355">
        <ele>602</ele>
        <time>2022-03-04T18:07:40Z</time>
      </trkpt>
      <trkpt lat="46.58253" lon="5.60355">
        <ele>602</ele>
        <time>2022-03-04T18:07:41Z</time>
      </trkpt>
      <trkpt lat="46.58254" lon="5.60355">
        <ele>602.2</ele>
        <time>2022-03-04T18:07:42Z</time>
      </trkpt>
      <trkpt lat="46.58256" lon="5.60356">
        <ele>602.2</ele>
        <time>2022-03-04T18:07:43Z</time>
      </trkpt>
      <trkpt lat="46.58258" lon="5.60356">
        <ele>602.2</ele>
        <time>2022-03-04T18:07:44Z</time>
      </trkpt>
      <trkpt lat="46.58258" lon="5.60356">
        <ele>602.4</ele>
        <time>2022-03-04T18:07:45Z</time>
      </trkpt>
      <trkpt lat="46.58259" lon="5.60356">
        <ele>602.8</ele>
        <time>2022-03-04T18:07:47Z</time>
      </trkpt>
      <trkpt lat="46.5826" lon="5.60356">
        <ele>602.8</ele>
        <time>2022-03-04T18:07:48Z</time>
      </trkpt>
      <trkpt lat="46.5826" lon="5.60356">
        <ele>602.8</ele>
        <time>2022-03-04T18:07:49Z</time>
      </trkpt>
      <trkpt lat="46.58261" lon="5.60356">
        <ele>602.8</ele>
        <time>2022-03-04T18:07:50Z</time>
      </trkpt>
      <trkpt lat="46.58262" lon="5.60357">
        <ele>602.8</ele>
        <time>2022-03-04T18:07:51Z</time>
      </trkpt>
      <trkpt lat="46.58262" lon="5.60357">
        <ele>602.8</ele>
        <time>2022-03-04T18:07:52Z</time>
      </trkpt>
      <trkpt lat="46.58263" lon="5.60357">
        <ele>602.8</ele>
        <time>2022-03-04T18:07:53Z</time>
      </trkpt>
      <trkpt lat="46.58264" lon="5.60357">
        <ele>603</ele>
        <time>2022-03-04T18:07:54Z</time>
      </trkpt>
      <trkpt lat="46.58264" lon="5.60357">
        <ele>603</ele>
        <time>2022-03-04T18:07:55Z</time>
      </trkpt>
      <trkpt lat="46.58265" lon="5.60357">
        <ele>603.2</ele>
        <time>2022-03-04T18:07:56Z</time>
      </trkpt>
      <trkpt lat="46.58266" lon="5.60357">
        <ele>603.2</ele>
        <time>2022-03-04T18:07:57Z</time>
      </trkpt>
      <trkpt lat="46.58266" lon="5.60358">
        <ele>603.4</ele>
        <time>2022-03-04T18:07:58Z</time>
      </trkpt>
      <trkpt lat="46.58267" lon="5.60357">
        <ele>603.4</ele>
        <time>2022-03-04T18:07:59Z</time>
      </trkpt>
      <trkpt lat="46.58268" lon="5.60357">
        <ele>603.4</ele>
        <time>2022-03-04T18:08:00Z</time>
      </trkpt>
      <trkpt lat="46.58269" lon="5.60357">
        <ele>603.6</ele>
        <time>2022-03-04T18:08:01Z</time>
      </trkpt>
      <trkpt lat="46.5827" lon="5.60357">
        <ele>603.6</ele>
        <time>2022-03-04T18:08:02Z</time>
      </trkpt>
      <trkpt lat="46.58271" lon="5.60357">
        <ele>603.6</ele>
        <time>2022-03-04T18:08:03Z</time>
      </trkpt>
      <trkpt lat="46.58272" lon="5.60357">
        <ele>604</ele>
        <time>2022-03-04T18:08:04Z</time>
      </trkpt>
      <trkpt lat="46.58273" lon="5.60356">
        <ele>604</ele>
        <time>2022-03-04T18:08:05Z</time>
      </trkpt>
      <trkpt lat="46.58274" lon="5.60356">
        <ele>604</ele>
        <time>2022-03-04T18:08:06Z</time>
      </trkpt>
      <trkpt lat="46.58276" lon="5.60356">
        <ele>604.4</ele>
        <time>2022-03-04T18:08:07Z</time>
      </trkpt>
      <trkpt lat="46.58277" lon="5.60356">
        <ele>604.4</ele>
        <time>2022-03-04T18:08:08Z</time>
      </trkpt>
      <trkpt lat="46.58278" lon="5.60356">
        <ele>604.4</ele>
        <time>2022-03-04T18:08:09Z</time>
      </trkpt>
      <trkpt lat="46.58279" lon="5.60355">
        <ele>604.6</ele>
        <time>2022-03-04T18:08:10Z</time>
      </trkpt>
      <trkpt lat="46.5828" lon="5.60355">
        <ele>604.6</ele>
        <time>2022-03-04T18:08:11Z</time>
      </trkpt>
      <trkpt lat="46.58281" lon="5.60355">
        <ele>604.8</ele>
        <time>2022-03-04T18:08:12Z</time>
      </trkpt>
      <trkpt lat="46.58281" lon="5.60355">
        <ele>604.8</ele>
        <time>2022-03-04T18:08:13Z</time>
      </trkpt>
      <trkpt lat="46.58284" lon="5.60355">
        <ele>605.2</ele>
        <time>2022-03-04T18:08:14Z</time>
      </trkpt>
      <trkpt lat="46.58285" lon="5.60355">
        <ele>605.2</ele>
        <time>2022-03-04T18:08:15Z</time>
      </trkpt>
      <trkpt lat="46.58287" lon="5.60356">
        <ele>605.4</ele>
        <time>2022-03-04T18:08:16Z</time>
      </trkpt>
      <trkpt lat="46.58288" lon="5.60356">
        <ele>605.4</ele>
        <time>2022-03-04T18:08:17Z</time>
      </trkpt>
      <trkpt lat="46.5829" lon="5.60356">
        <ele>605.8</ele>
        <time>2022-03-04T18:08:18Z</time>
      </trkpt>
      <trkpt lat="46.58292" lon="5.60357">
        <ele>605.8</ele>
        <time>2022-03-04T18:08:19Z</time>
      </trkpt>
      <trkpt lat="46.58293" lon="5.60357">
        <ele>606</ele>
        <time>2022-03-04T18:08:20Z</time>
      </trkpt>
      <trkpt lat="46.58295" lon="5.60357">
        <ele>606</ele>
        <time>2022-03-04T18:08:21Z</time>
      </trkpt>
      <trkpt lat="46.58296" lon="5.60357">
        <ele>606</ele>
        <time>2022-03-04T18:08:22Z</time>
      </trkpt>
      <trkpt lat="46.58298" lon="5.60357">
        <ele>606.4</ele>
        <time>2022-03-04T18:08:23Z</time>
      </trkpt>
      <trkpt lat="46.58299" lon="5.60358">
        <ele>606.4</ele>
        <time>2022-03-04T18:08:24Z</time>
      </trkpt>
      <trkpt lat="46.58301" lon="5.6036">
        <ele>606.6</ele>
        <time>2022-03-04T18:08:25Z</time>
      </trkpt>
      <trkpt lat="46.58302" lon="5.6036">
        <ele>606.6</ele>
        <time>2022-03-04T18:08:26Z</time>
      </trkpt>
      <trkpt lat="46.58304" lon="5.60362">
        <ele>606.8</ele>
        <time>2022-03-04T18:08:27Z</time>
      </trkpt>
      <trkpt lat="46.58306" lon="5.60363">
        <ele>606.8</ele>
        <time>2022-03-04T18:08:28Z</time>
      </trkpt>
      <trkpt lat="46.58308" lon="5.60363">
        <ele>607.2</ele>
        <time>2022-03-04T18:08:29Z</time>
      </trkpt>
      <trkpt lat="46.58309" lon="5.60363">
        <ele>607.2</ele>
        <time>2022-03-04T18:08:30Z</time>
      </trkpt>
      <trkpt lat="46.5831" lon="5.60362">
        <ele>607.4</ele>
        <time>2022-03-04T18:08:31Z</time>
      </trkpt>
      <trkpt lat="46.58312" lon="5.60362">
        <ele>607.4</ele>
        <time>2022-03-04T18:08:32Z</time>
      </trkpt>
      <trkpt lat="46.58313" lon="5.60363">
        <ele>607.8</ele>
        <time>2022-03-04T18:08:33Z</time>
      </trkpt>
      <trkpt lat="46.58314" lon="5.60363">
        <ele>607.8</ele>
        <time>2022-03-04T18:08:34Z</time>
      </trkpt>
      <trkpt lat="46.58316" lon="5.60364">
        <ele>608.2</ele>
        <time>2022-03-04T18:08:35Z</time>
      </trkpt>
      <trkpt lat="46.58316" lon="5.60364">
        <ele>608.2</ele>
        <time>2022-03-04T18:08:36Z</time>
      </trkpt>
      <trkpt lat="46.58324" lon="5.60365">
        <ele>608.8</ele>
        <time>2022-03-04T18:08:40Z</time>
      </trkpt>
      <trkpt lat="46.58326" lon="5.60365">
        <ele>608.8</ele>
        <time>2022-03-04T18:08:41Z</time>
      </trkpt>
      <trkpt lat="46.58327" lon="5.60365">
        <ele>609</ele>
        <time>2022-03-04T18:08:42Z</time>
      </trkpt>
      <trkpt lat="46.58329" lon="5.60366">
        <ele>609</ele>
        <time>2022-03-04T18:08:43Z</time>
      </trkpt>
      <trkpt lat="46.5833" lon="5.60366">
        <ele>609.4</ele>
        <time>2022-03-04T18:08:44Z</time>
      </trkpt>
      <trkpt lat="46.58332" lon="5.60367">
        <ele>609.4</ele>
        <time>2022-03-04T18:08:45Z</time>
      </trkpt>
      <trkpt lat="46.58333" lon="5.60368">
        <ele>609.6</ele>
        <time>2022-03-04T18:08:46Z</time>
      </trkpt>
      <trkpt lat="46.58335" lon="5.60369">
        <ele>609.6</ele>
        <time>2022-03-04T18:08:47Z</time>
      </trkpt>
      <trkpt lat="46.58337" lon="5.6037">
        <ele>609.6</ele>
        <time>2022-03-04T18:08:48Z</time>
      </trkpt>
      <trkpt lat="46.58338" lon="5.6037">
        <ele>609.8</ele>
        <time>2022-03-04T18:08:49Z</time>
      </trkpt>
      <trkpt lat="46.5834" lon="5.6037">
        <ele>609.8</ele>
        <time>2022-03-04T18:08:50Z</time>
      </trkpt>
      <trkpt lat="46.58341" lon="5.6037">
        <ele>610</ele>
        <time>2022-03-04T18:08:51Z</time>
      </trkpt>
      <trkpt lat="46.58342" lon="5.60371">
        <ele>610</ele>
        <time>2022-03-04T18:08:52Z</time>
      </trkpt>
      <trkpt lat="46.58343" lon="5.60371">
        <ele>610.4</ele>
        <time>2022-03-04T18:08:55Z</time>
      </trkpt>
      <trkpt lat="46.58344" lon="5.60371">
        <ele>610.4</ele>
        <time>2022-03-04T18:08:56Z</time>
      </trkpt>
      <trkpt lat="46.58346" lon="5.60371">
        <ele>610.6</ele>
        <time>2022-03-04T18:08:57Z</time>
      </trkpt>
      <trkpt lat="46.58346" lon="5.60372">
        <ele>610.6</ele>
        <time>2022-03-04T18:08:58Z</time>
      </trkpt>
      <trkpt lat="46.58348" lon="5.60373">
        <ele>610.8</ele>
        <time>2022-03-04T18:08:59Z</time>
      </trkpt>
      <trkpt lat="46.58349" lon="5.60373">
        <ele>610.8</ele>
        <time>2022-03-04T18:09:00Z</time>
      </trkpt>
      <trkpt lat="46.5835" lon="5.60373">
        <ele>611.2</ele>
        <time>2022-03-04T18:09:01Z</time>
      </trkpt>
      <trkpt lat="46.58351" lon="5.60374">
        <ele>611.2</ele>
        <time>2022-03-04T18:09:02Z</time>
      </trkpt>
      <trkpt lat="46.58352" lon="5.60374">
        <ele>611.2</ele>
        <time>2022-03-04T18:09:03Z</time>
      </trkpt>
      <trkpt lat="46.58353" lon="5.60375">
        <ele>611.4</ele>
        <time>2022-03-04T18:09:04Z</time>
      </trkpt>
      <trkpt lat="46.58353" lon="5.60375">
        <ele>611.4</ele>
        <time>2022-03-04T18:09:05Z</time>
      </trkpt>
      <trkpt lat="46.58353" lon="5.60375">
        <ele>611.4</ele>
        <time>2022-03-04T18:09:06Z</time>
      </trkpt>
      <trkpt lat="46.58353" lon="5.60375">
        <ele>611.4</ele>
        <time>2022-03-04T18:09:07Z</time>
      </trkpt>
      <trkpt lat="46.58363" lon="5.60379">
        <ele>611.8</ele>
        <time>2022-03-04T18:09:14Z</time>
      </trkpt>
      <trkpt lat="46.58364" lon="5.60379">
        <ele>611.8</ele>
        <time>2022-03-04T18:09:15Z</time>
      </trkpt>
      <trkpt lat="46.58366" lon="5.6038">
        <ele>611.8</ele>
        <time>2022-03-04T18:09:16Z</time>
      </trkpt>
      <trkpt lat="46.58367" lon="5.6038">
        <ele>611.8</ele>
        <time>2022-03-04T18:09:17Z</time>
      </trkpt>
      <trkpt lat="46.58369" lon="5.60379">
        <ele>611.8</ele>
        <time>2022-03-04T18:09:18Z</time>
      </trkpt>
      <trkpt lat="46.58371" lon="5.60379">
        <ele>611.8</ele>
        <time>2022-03-04T18:09:19Z</time>
      </trkpt>
      <trkpt lat="46.58372" lon="5.60379">
        <ele>611.8</ele>
        <time>2022-03-04T18:09:20Z</time>
      </trkpt>
      <trkpt lat="46.58374" lon="5.60378">
        <ele>611.8</ele>
        <time>2022-03-04T18:09:21Z</time>
      </trkpt>
      <trkpt lat="46.58375" lon="5.60378">
        <ele>611.8</ele>
        <time>2022-03-04T18:09:22Z</time>
      </trkpt>
      <trkpt lat="46.58377" lon="5.60379">
        <ele>611.8</ele>
        <time>2022-03-04T18:09:23Z</time>
      </trkpt>
      <trkpt lat="46.58379" lon="5.60379">
        <ele>611.8</ele>
        <time>2022-03-04T18:09:24Z</time>
      </trkpt>
      <trkpt lat="46.58381" lon="5.60379">
        <ele>611.8</ele>
        <time>2022-03-04T18:09:25Z</time>
      </trkpt>
      <trkpt lat="46.58384" lon="5.6038">
        <ele>611.6</ele>
        <time>2022-03-04T18:09:26Z</time>
      </trkpt>
      <trkpt lat="46.58386" lon="5.60381">
        <ele>611.6</ele>
        <time>2022-03-04T18:09:27Z</time>
      </trkpt>
      <trkpt lat="46.58388" lon="5.60382">
        <ele>611.6</ele>
        <time>2022-03-04T18:09:28Z</time>
      </trkpt>
      <trkpt lat="46.58391" lon="5.60384">
        <ele>611.4</ele>
        <time>2022-03-04T18:09:29Z</time>
      </trkpt>
      <trkpt lat="46.58394" lon="5.60385">
        <ele>611.4</ele>
        <time>2022-03-04T18:09:30Z</time>
      </trkpt>
      <trkpt lat="46.58396" lon="5.60386">
        <ele>611</ele>
        <time>2022-03-04T18:09:31Z</time>
      </trkpt>
      <trkpt lat="46.58399" lon="5.60387">
        <ele>610.6</ele>
        <time>2022-03-04T18:09:32Z</time>
      </trkpt>
      <trkpt lat="46.58402" lon="5.60387">
        <ele>610.4</ele>
        <time>2022-03-04T18:09:33Z</time>
      </trkpt>
      <trkpt lat="46.58405" lon="5.60388">
        <ele>610.2</ele>
        <time>2022-03-04T18:09:34Z</time>
      </trkpt>
      <trkpt lat="46.58407" lon="5.60388">
        <ele>610</ele>
        <time>2022-03-04T18:09:35Z</time>
      </trkpt>
      <trkpt lat="46.5841" lon="5.60388">
        <ele>609.8</ele>
        <time>2022-03-04T18:09:36Z</time>
      </trkpt>
      <trkpt lat="46.58413" lon="5.60389">
        <ele>609.4</ele>
        <time>2022-03-04T18:09:37Z</time>
      </trkpt>
      <trkpt lat="46.58415" lon="5.60389">
        <ele>609</ele>
        <time>2022-03-04T18:09:38Z</time>
      </trkpt>
      <trkpt lat="46.58417" lon="5.60389">
        <ele>608.6</ele>
        <time>2022-03-04T18:09:39Z</time>
      </trkpt>
      <trkpt lat="46.5842" lon="5.6039">
        <ele>608.2</ele>
        <time>2022-03-04T18:09:40Z</time>
      </trkpt>
      <trkpt lat="46.58422" lon="5.6039">
        <ele>607.8</ele>
        <time>2022-03-04T18:09:41Z</time>
      </trkpt>
      <trkpt lat="46.58426" lon="5.60392">
        <ele>607.4</ele>
        <time>2022-03-04T18:09:42Z</time>
      </trkpt>
      <trkpt lat="46.58429" lon="5.60393">
        <ele>606.8</ele>
        <time>2022-03-04T18:09:43Z</time>
      </trkpt>
      <trkpt lat="46.58432" lon="5.60393">
        <ele>606.4</ele>
        <time>2022-03-04T18:09:44Z</time>
      </trkpt>
      <trkpt lat="46.58435" lon="5.60393">
        <ele>606.4</ele>
        <time>2022-03-04T18:09:45Z</time>
      </trkpt>
      <trkpt lat="46.58438" lon="5.60393">
        <ele>605.8</ele>
        <time>2022-03-04T18:09:46Z</time>
      </trkpt>
      <trkpt lat="46.58441" lon="5.60393">
        <ele>605.2</ele>
        <time>2022-03-04T18:09:47Z</time>
      </trkpt>
      <trkpt lat="46.58444" lon="5.60393">
        <ele>604.8</ele>
        <time>2022-03-04T18:09:48Z</time>
      </trkpt>
      <trkpt lat="46.58446" lon="5.60393">
        <ele>604.2</ele>
        <time>2022-03-04T18:09:49Z</time>
      </trkpt>
      <trkpt lat="46.58449" lon="5.60394">
        <ele>603.6</ele>
        <time>2022-03-04T18:09:50Z</time>
      </trkpt>
      <trkpt lat="46.58453" lon="5.60394">
        <ele>603</ele>
        <time>2022-03-04T18:09:51Z</time>
      </trkpt>
      <trkpt lat="46.58457" lon="5.60394">
        <ele>602.4</ele>
        <time>2022-03-04T18:09:52Z</time>
      </trkpt>
      <trkpt lat="46.58462" lon="5.60394">
        <ele>602</ele>
        <time>2022-03-04T18:09:53Z</time>
      </trkpt>
      <trkpt lat="46.58467" lon="5.60395">
        <ele>601</ele>
        <time>2022-03-04T18:09:54Z</time>
      </trkpt>
      <trkpt lat="46.58471" lon="5.60396">
        <ele>600.8</ele>
        <time>2022-03-04T18:09:55Z</time>
      </trkpt>
      <trkpt lat="46.58475" lon="5.60396">
        <ele>600.4</ele>
        <time>2022-03-04T18:09:56Z</time>
      </trkpt>
      <trkpt lat="46.58479" lon="5.60397">
        <ele>600.4</ele>
        <time>2022-03-04T18:09:57Z</time>
      </trkpt>
      <trkpt lat="46.58482" lon="5.60397">
        <ele>600.2</ele>
        <time>2022-03-04T18:09:58Z</time>
      </trkpt>
      <trkpt lat="46.58485" lon="5.60397">
        <ele>600.2</ele>
        <time>2022-03-04T18:09:59Z</time>
      </trkpt>
      <trkpt lat="46.58489" lon="5.60398">
        <ele>600.2</ele>
        <time>2022-03-04T18:10:00Z</time>
      </trkpt>
      <trkpt lat="46.58493" lon="5.60398">
        <ele>600.2</ele>
        <time>2022-03-04T18:10:01Z</time>
      </trkpt>
      <trkpt lat="46.58496" lon="5.60398">
        <ele>600.2</ele>
        <time>2022-03-04T18:10:02Z</time>
      </trkpt>
      <trkpt lat="46.58501" lon="5.60399">
        <ele>600.2</ele>
        <time>2022-03-04T18:10:03Z</time>
      </trkpt>
      <trkpt lat="46.58503" lon="5.60399">
        <ele>600.2</ele>
        <time>2022-03-04T18:10:04Z</time>
      </trkpt>
      <trkpt lat="46.58506" lon="5.60399">
        <ele>600.2</ele>
        <time>2022-03-04T18:10:05Z</time>
      </trkpt>
      <trkpt lat="46.58508" lon="5.604">
        <ele>600.2</ele>
        <time>2022-03-04T18:10:06Z</time>
      </trkpt>
      <trkpt lat="46.58512" lon="5.604">
        <ele>600.2</ele>
        <time>2022-03-04T18:10:07Z</time>
      </trkpt>
      <trkpt lat="46.58516" lon="5.604">
        <ele>600.4</ele>
        <time>2022-03-04T18:10:08Z</time>
      </trkpt>
      <trkpt lat="46.58519" lon="5.604">
        <ele>600.4</ele>
        <time>2022-03-04T18:10:09Z</time>
      </trkpt>
      <trkpt lat="46.58522" lon="5.60401">
        <ele>600.4</ele>
        <time>2022-03-04T18:10:10Z</time>
      </trkpt>
      <trkpt lat="46.58524" lon="5.60402">
        <ele>600.8</ele>
        <time>2022-03-04T18:10:11Z</time>
      </trkpt>
      <trkpt lat="46.58528" lon="5.60402">
        <ele>600.8</ele>
        <time>2022-03-04T18:10:12Z</time>
      </trkpt>
      <trkpt lat="46.58531" lon="5.60403">
        <ele>600.8</ele>
        <time>2022-03-04T18:10:13Z</time>
      </trkpt>
      <trkpt lat="46.58535" lon="5.60404">
        <ele>600.8</ele>
        <time>2022-03-04T18:10:14Z</time>
      </trkpt>
      <trkpt lat="46.58535" lon="5.60404">
        <ele>600.8</ele>
        <time>2022-03-04T18:10:15Z</time>
      </trkpt>
      <trkpt lat="46.58538" lon="5.60404">
        <ele>600.8</ele>
        <time>2022-03-04T18:10:16Z</time>
      </trkpt>
      <trkpt lat="46.58542" lon="5.60406">
        <ele>600.8</ele>
        <time>2022-03-04T18:10:17Z</time>
      </trkpt>
      <trkpt lat="46.58546" lon="5.60407">
        <ele>600.8</ele>
        <time>2022-03-04T18:10:18Z</time>
      </trkpt>
      <trkpt lat="46.5855" lon="5.60407">
        <ele>600.6</ele>
        <time>2022-03-04T18:10:19Z</time>
      </trkpt>
      <trkpt lat="46.58554" lon="5.60407">
        <ele>600.6</ele>
        <time>2022-03-04T18:10:20Z</time>
      </trkpt>
      <trkpt lat="46.58559" lon="5.60407">
        <ele>600</ele>
        <time>2022-03-04T18:10:21Z</time>
      </trkpt>
      <trkpt lat="46.58564" lon="5.60408">
        <ele>599.8</ele>
        <time>2022-03-04T18:10:22Z</time>
      </trkpt>
      <trkpt lat="46.58568" lon="5.60409">
        <ele>599.6</ele>
        <time>2022-03-04T18:10:23Z</time>
      </trkpt>
      <trkpt lat="46.58572" lon="5.60409">
        <ele>599.2</ele>
        <time>2022-03-04T18:10:24Z</time>
      </trkpt>
      <trkpt lat="46.58576" lon="5.60411">
        <ele>598.8</ele>
        <time>2022-03-04T18:10:25Z</time>
      </trkpt>
      <trkpt lat="46.58579" lon="5.60411">
        <ele>598.6</ele>
        <time>2022-03-04T18:10:26Z</time>
      </trkpt>
      <trkpt lat="46.58582" lon="5.60412">
        <ele>598.2</ele>
        <time>2022-03-04T18:10:27Z</time>
      </trkpt>
      <trkpt lat="46.58585" lon="5.60412">
        <ele>597.8</ele>
        <time>2022-03-04T18:10:28Z</time>
      </trkpt>
      <trkpt lat="46.58588" lon="5.60412">
        <ele>597.4</ele>
        <time>2022-03-04T18:10:29Z</time>
      </trkpt>
      <trkpt lat="46.58592" lon="5.60413">
        <ele>597</ele>
        <time>2022-03-04T18:10:30Z</time>
      </trkpt>
      <trkpt lat="46.58596" lon="5.60413">
        <ele>596.4</ele>
        <time>2022-03-04T18:10:31Z</time>
      </trkpt>
      <trkpt lat="46.58601" lon="5.60416">
        <ele>596</ele>
        <time>2022-03-04T18:10:32Z</time>
      </trkpt>
      <trkpt lat="46.58606" lon="5.60419">
        <ele>595.8</ele>
        <time>2022-03-04T18:10:33Z</time>
      </trkpt>
      <trkpt lat="46.58611" lon="5.60421">
        <ele>595.4</ele>
        <time>2022-03-04T18:10:34Z</time>
      </trkpt>
      <trkpt lat="46.58615" lon="5.60423">
        <ele>594.8</ele>
        <time>2022-03-04T18:10:35Z</time>
      </trkpt>
      <trkpt lat="46.58618" lon="5.60424">
        <ele>594.6</ele>
        <time>2022-03-04T18:10:36Z</time>
      </trkpt>
      <trkpt lat="46.58621" lon="5.60425">
        <ele>594.2</ele>
        <time>2022-03-04T18:10:37Z</time>
      </trkpt>
      <trkpt lat="46.58624" lon="5.60426">
        <ele>594</ele>
        <time>2022-03-04T18:10:38Z</time>
      </trkpt>
      <trkpt lat="46.58628" lon="5.60428">
        <ele>593.8</ele>
        <time>2022-03-04T18:10:39Z</time>
      </trkpt>
      <trkpt lat="46.58632" lon="5.60429">
        <ele>593.8</ele>
        <time>2022-03-04T18:10:40Z</time>
      </trkpt>
      <trkpt lat="46.58636" lon="5.60429">
        <ele>593.4</ele>
        <time>2022-03-04T18:10:41Z</time>
      </trkpt>
      <trkpt lat="46.58639" lon="5.6043">
        <ele>593.4</ele>
        <time>2022-03-04T18:10:42Z</time>
      </trkpt>
      <trkpt lat="46.58641" lon="5.6043">
        <ele>593.4</ele>
        <time>2022-03-04T18:10:43Z</time>
      </trkpt>
      <trkpt lat="46.58643" lon="5.6043">
        <ele>593.4</ele>
        <time>2022-03-04T18:10:44Z</time>
      </trkpt>
      <trkpt lat="46.58646" lon="5.6043">
        <ele>593.4</ele>
        <time>2022-03-04T18:10:45Z</time>
      </trkpt>
      <trkpt lat="46.58647" lon="5.60431">
        <ele>593.2</ele>
        <time>2022-03-04T18:10:46Z</time>
      </trkpt>
      <trkpt lat="46.5865" lon="5.60432">
        <ele>593.2</ele>
        <time>2022-03-04T18:10:47Z</time>
      </trkpt>
      <trkpt lat="46.58651" lon="5.60432">
        <ele>593.2</ele>
        <time>2022-03-04T18:10:48Z</time>
      </trkpt>
      <trkpt lat="46.58652" lon="5.60433">
        <ele>593.2</ele>
        <time>2022-03-04T18:10:49Z</time>
      </trkpt>
      <trkpt lat="46.58653" lon="5.60433">
        <ele>593.2</ele>
        <time>2022-03-04T18:10:50Z</time>
      </trkpt>
      <trkpt lat="46.58654" lon="5.60434">
        <ele>593.2</ele>
        <time>2022-03-04T18:10:51Z</time>
      </trkpt>
      <trkpt lat="46.58655" lon="5.60434">
        <ele>593.2</ele>
        <time>2022-03-04T18:10:52Z</time>
      </trkpt>
      <trkpt lat="46.58657" lon="5.60434">
        <ele>593.4</ele>
        <time>2022-03-04T18:10:54Z</time>
      </trkpt>
      <trkpt lat="46.58658" lon="5.60435">
        <ele>593.4</ele>
        <time>2022-03-04T18:10:55Z</time>
      </trkpt>
      <trkpt lat="46.58659" lon="5.60435">
        <ele>593.6</ele>
        <time>2022-03-04T18:11:00Z</time>
      </trkpt>
      <trkpt lat="46.5866" lon="5.60436">
        <ele>593.6</ele>
        <time>2022-03-04T18:11:01Z</time>
      </trkpt>
      <trkpt lat="46.58661" lon="5.60436">
        <ele>593.6</ele>
        <time>2022-03-04T18:11:02Z</time>
      </trkpt>
      <trkpt lat="46.58661" lon="5.60436">
        <ele>594</ele>
        <time>2022-03-04T18:11:03Z</time>
      </trkpt>
      <trkpt lat="46.58661" lon="5.60436">
        <ele>594</ele>
        <time>2022-03-04T18:11:04Z</time>
      </trkpt>
      <trkpt lat="46.5866" lon="5.60435">
        <ele>594</ele>
        <time>2022-03-04T18:11:05Z</time>
      </trkpt>
      <trkpt lat="46.5866" lon="5.60435">
        <ele>594.2</ele>
        <time>2022-03-04T18:11:06Z</time>
      </trkpt>
      <trkpt lat="46.5866" lon="5.60434">
        <ele>594.2</ele>
        <time>2022-03-04T18:11:09Z</time>
      </trkpt>
      <trkpt lat="46.5866" lon="5.60434">
        <ele>594.2</ele>
        <time>2022-03-04T18:11:10Z</time>
      </trkpt>
      <trkpt lat="46.58659" lon="5.60433">
        <ele>594.2</ele>
        <time>2022-03-04T18:11:11Z</time>
      </trkpt>
      <trkpt lat="46.58659" lon="5.60432">
        <ele>594.2</ele>
        <time>2022-03-04T18:11:12Z</time>
      </trkpt>
      <trkpt lat="46.58659" lon="5.60432">
        <ele>594.2</ele>
        <time>2022-03-04T18:11:13Z</time>
      </trkpt>
      <trkpt lat="46.58659" lon="5.60431">
        <ele>594.2</ele>
        <time>2022-03-04T18:11:14Z</time>
      </trkpt>
      <trkpt lat="46.58658" lon="5.6043">
        <ele>594.2</ele>
        <time>2022-03-04T18:11:15Z</time>
      </trkpt>
      <trkpt lat="46.58656" lon="5.60427">
        <ele>594</ele>
        <time>2022-03-04T18:11:16Z</time>
      </trkpt>
      <trkpt lat="46.58655" lon="5.60425">
        <ele>594</ele>
        <time>2022-03-04T18:11:17Z</time>
      </trkpt>
      <trkpt lat="46.58654" lon="5.60422">
        <ele>594</ele>
        <time>2022-03-04T18:11:18Z</time>
      </trkpt>
      <trkpt lat="46.58654" lon="5.6042">
        <ele>594</ele>
        <time>2022-03-04T18:11:19Z</time>
      </trkpt>
      <trkpt lat="46.58655" lon="5.60417">
        <ele>594</ele>
        <time>2022-03-04T18:11:20Z</time>
      </trkpt>
      <trkpt lat="46.58656" lon="5.60414">
        <ele>594</ele>
        <time>2022-03-04T18:11:21Z</time>
      </trkpt>
      <trkpt lat="46.58657" lon="5.60412">
        <ele>594.2</ele>
        <time>2022-03-04T18:11:22Z</time>
      </trkpt>
      <trkpt lat="46.58658" lon="5.60411">
        <ele>594.2</ele>
        <time>2022-03-04T18:11:23Z</time>
      </trkpt>
      <trkpt lat="46.58659" lon="5.60409">
        <ele>594.2</ele>
        <time>2022-03-04T18:11:24Z</time>
      </trkpt>
      <trkpt lat="46.58659" lon="5.60407">
        <ele>594.4</ele>
        <time>2022-03-04T18:11:25Z</time>
      </trkpt>
      <trkpt lat="46.5866" lon="5.60405">
        <ele>594.4</ele>
        <time>2022-03-04T18:11:26Z</time>
      </trkpt>
      <trkpt lat="46.58661" lon="5.60403">
        <ele>594.8</ele>
        <time>2022-03-04T18:11:27Z</time>
      </trkpt>
      <trkpt lat="46.58661" lon="5.60401">
        <ele>594.8</ele>
        <time>2022-03-04T18:11:28Z</time>
      </trkpt>
      <trkpt lat="46.58662" lon="5.60399">
        <ele>595</ele>
        <time>2022-03-04T18:11:29Z</time>
      </trkpt>
      <trkpt lat="46.58663" lon="5.60397">
        <ele>595</ele>
        <time>2022-03-04T18:11:30Z</time>
      </trkpt>
      <trkpt lat="46.58663" lon="5.60395">
        <ele>595.2</ele>
        <time>2022-03-04T18:11:31Z</time>
      </trkpt>
      <trkpt lat="46.58664" lon="5.60393">
        <ele>595.6</ele>
        <time>2022-03-04T18:11:32Z</time>
      </trkpt>
      <trkpt lat="46.58664" lon="5.60391">
        <ele>595.6</ele>
        <time>2022-03-04T18:11:33Z</time>
      </trkpt>
      <trkpt lat="46.58665" lon="5.60389">
        <ele>596</ele>
        <time>2022-03-04T18:11:34Z</time>
      </trkpt>
      <trkpt lat="46.58666" lon="5.60387">
        <ele>596</ele>
        <time>2022-03-04T18:11:35Z</time>
      </trkpt>
      <trkpt lat="46.58667" lon="5.60384">
        <ele>596.2</ele>
        <time>2022-03-04T18:11:36Z</time>
      </trkpt>
      <trkpt lat="46.58668" lon="5.60382">
        <ele>596.2</ele>
        <time>2022-03-04T18:11:37Z</time>
      </trkpt>
      <trkpt lat="46.58669" lon="5.6038">
        <ele>596.6</ele>
        <time>2022-03-04T18:11:38Z</time>
      </trkpt>
      <trkpt lat="46.5867" lon="5.60377">
        <ele>596.6</ele>
        <time>2022-03-04T18:11:39Z</time>
      </trkpt>
      <trkpt lat="46.58671" lon="5.60374">
        <ele>597</ele>
        <time>2022-03-04T18:11:40Z</time>
      </trkpt>
      <trkpt lat="46.58673" lon="5.60372">
        <ele>597.2</ele>
        <time>2022-03-04T18:11:41Z</time>
      </trkpt>
      <trkpt lat="46.58673" lon="5.60369">
        <ele>597.2</ele>
        <time>2022-03-04T18:11:42Z</time>
      </trkpt>
      <trkpt lat="46.58674" lon="5.60367">
        <ele>597.6</ele>
        <time>2022-03-04T18:11:43Z</time>
      </trkpt>
      <trkpt lat="46.58674" lon="5.60365">
        <ele>597.6</ele>
        <time>2022-03-04T18:11:44Z</time>
      </trkpt>
      <trkpt lat="46.58675" lon="5.60363">
        <ele>597.8</ele>
        <time>2022-03-04T18:11:45Z</time>
      </trkpt>
      <trkpt lat="46.58676" lon="5.60361">
        <ele>597.8</ele>
        <time>2022-03-04T18:11:46Z</time>
      </trkpt>
      <trkpt lat="46.58677" lon="5.60358">
        <ele>597.8</ele>
        <time>2022-03-04T18:11:47Z</time>
      </trkpt>
      <trkpt lat="46.58679" lon="5.60356">
        <ele>598.2</ele>
        <time>2022-03-04T18:11:48Z</time>
      </trkpt>
      <trkpt lat="46.5868" lon="5.60354">
        <ele>598.4</ele>
        <time>2022-03-04T18:11:49Z</time>
      </trkpt>
      <trkpt lat="46.58681" lon="5.60352">
        <ele>598.4</ele>
        <time>2022-03-04T18:11:50Z</time>
      </trkpt>
      <trkpt lat="46.58682" lon="5.60349">
        <ele>598.6</ele>
        <time>2022-03-04T18:11:51Z</time>
      </trkpt>
      <trkpt lat="46.58683" lon="5.60347">
        <ele>598.6</ele>
        <time>2022-03-04T18:11:52Z</time>
      </trkpt>
      <trkpt lat="46.58683" lon="5.60344">
        <ele>599</ele>
        <time>2022-03-04T18:11:53Z</time>
      </trkpt>
      <trkpt lat="46.58684" lon="5.60342">
        <ele>599</ele>
        <time>2022-03-04T18:11:54Z</time>
      </trkpt>
      <trkpt lat="46.58684" lon="5.60339">
        <ele>599.2</ele>
        <time>2022-03-04T18:11:55Z</time>
      </trkpt>
      <trkpt lat="46.58685" lon="5.60336">
        <ele>599.2</ele>
        <time>2022-03-04T18:11:56Z</time>
      </trkpt>
      <trkpt lat="46.58686" lon="5.60334">
        <ele>599.4</ele>
        <time>2022-03-04T18:11:57Z</time>
      </trkpt>
      <trkpt lat="46.58686" lon="5.60331">
        <ele>599.4</ele>
        <time>2022-03-04T18:11:58Z</time>
      </trkpt>
      <trkpt lat="46.58687" lon="5.60329">
        <ele>599.6</ele>
        <time>2022-03-04T18:11:59Z</time>
      </trkpt>
      <trkpt lat="46.58688" lon="5.60327">
        <ele>599.6</ele>
        <time>2022-03-04T18:12:00Z</time>
      </trkpt>
      <trkpt lat="46.58688" lon="5.60324">
        <ele>600</ele>
        <time>2022-03-04T18:12:01Z</time>
      </trkpt>
      <trkpt lat="46.58689" lon="5.60322">
        <ele>600</ele>
        <time>2022-03-04T18:12:02Z</time>
      </trkpt>
      <trkpt lat="46.5869" lon="5.60319">
        <ele>600.2</ele>
        <time>2022-03-04T18:12:03Z</time>
      </trkpt>
      <trkpt lat="46.58691" lon="5.60318">
        <ele>600.2</ele>
        <time>2022-03-04T18:12:04Z</time>
      </trkpt>
      <trkpt lat="46.58692" lon="5.60315">
        <ele>600.6</ele>
        <time>2022-03-04T18:12:05Z</time>
      </trkpt>
      <trkpt lat="46.58693" lon="5.60313">
        <ele>600.6</ele>
        <time>2022-03-04T18:12:06Z</time>
      </trkpt>
      <trkpt lat="46.58694" lon="5.60311">
        <ele>600.8</ele>
        <time>2022-03-04T18:12:07Z</time>
      </trkpt>
      <trkpt lat="46.58695" lon="5.60309">
        <ele>600.8</ele>
        <time>2022-03-04T18:12:08Z</time>
      </trkpt>
      <trkpt lat="46.58695" lon="5.60309">
        <ele>601.2</ele>
        <time>2022-03-04T18:12:09Z</time>
      </trkpt>
      <trkpt lat="46.58696" lon="5.60307">
        <ele>601.2</ele>
        <time>2022-03-04T18:12:10Z</time>
      </trkpt>
      <trkpt lat="46.58697" lon="5.60304">
        <ele>601.4</ele>
        <time>2022-03-04T18:12:11Z</time>
      </trkpt>
      <trkpt lat="46.58698" lon="5.60303">
        <ele>601.4</ele>
        <time>2022-03-04T18:12:12Z</time>
      </trkpt>
      <trkpt lat="46.58699" lon="5.60301">
        <ele>601.8</ele>
        <time>2022-03-04T18:12:13Z</time>
      </trkpt>
      <trkpt lat="46.587" lon="5.60299">
        <ele>601.8</ele>
        <time>2022-03-04T18:12:14Z</time>
      </trkpt>
      <trkpt lat="46.58701" lon="5.60296">
        <ele>602</ele>
        <time>2022-03-04T18:12:15Z</time>
      </trkpt>
      <trkpt lat="46.58701" lon="5.60294">
        <ele>602.2</ele>
        <time>2022-03-04T18:12:16Z</time>
      </trkpt>
      <trkpt lat="46.58702" lon="5.60292">
        <ele>602.4</ele>
        <time>2022-03-04T18:12:17Z</time>
      </trkpt>
      <trkpt lat="46.58704" lon="5.60291">
        <ele>602.4</ele>
        <time>2022-03-04T18:12:18Z</time>
      </trkpt>
      <trkpt lat="46.58705" lon="5.60289">
        <ele>602.8</ele>
        <time>2022-03-04T18:12:19Z</time>
      </trkpt>
      <trkpt lat="46.58706" lon="5.60288">
        <ele>603</ele>
        <time>2022-03-04T18:12:20Z</time>
      </trkpt>
      <trkpt lat="46.58707" lon="5.60285">
        <ele>603</ele>
        <time>2022-03-04T18:12:21Z</time>
      </trkpt>
      <trkpt lat="46.58708" lon="5.60284">
        <ele>603.2</ele>
        <time>2022-03-04T18:12:22Z</time>
      </trkpt>
      <trkpt lat="46.58709" lon="5.60281">
        <ele>603.2</ele>
        <time>2022-03-04T18:12:23Z</time>
      </trkpt>
      <trkpt lat="46.58711" lon="5.60279">
        <ele>603.4</ele>
        <time>2022-03-04T18:12:24Z</time>
      </trkpt>
      <trkpt lat="46.58712" lon="5.60278">
        <ele>603.4</ele>
        <time>2022-03-04T18:12:25Z</time>
      </trkpt>
      <trkpt lat="46.58714" lon="5.60276">
        <ele>603.8</ele>
        <time>2022-03-04T18:12:26Z</time>
      </trkpt>
      <trkpt lat="46.58716" lon="5.60275">
        <ele>603.8</ele>
        <time>2022-03-04T18:12:27Z</time>
      </trkpt>
      <trkpt lat="46.58717" lon="5.60273">
        <ele>604</ele>
        <time>2022-03-04T18:12:28Z</time>
      </trkpt>
      <trkpt lat="46.58718" lon="5.60272">
        <ele>604</ele>
        <time>2022-03-04T18:12:29Z</time>
      </trkpt>
      <trkpt lat="46.5872" lon="5.6027">
        <ele>604.2</ele>
        <time>2022-03-04T18:12:30Z</time>
      </trkpt>
      <trkpt lat="46.5872" lon="5.60268">
        <ele>604.2</ele>
        <time>2022-03-04T18:12:31Z</time>
      </trkpt>
      <trkpt lat="46.58722" lon="5.60266">
        <ele>604.6</ele>
        <time>2022-03-04T18:12:32Z</time>
      </trkpt>
      <trkpt lat="46.58723" lon="5.60264">
        <ele>604.6</ele>
        <time>2022-03-04T18:12:33Z</time>
      </trkpt>
      <trkpt lat="46.58725" lon="5.60263">
        <ele>604.8</ele>
        <time>2022-03-04T18:12:34Z</time>
      </trkpt>
      <trkpt lat="46.58727" lon="5.60261">
        <ele>604.8</ele>
        <time>2022-03-04T18:12:35Z</time>
      </trkpt>
      <trkpt lat="46.58728" lon="5.60258">
        <ele>605.2</ele>
        <time>2022-03-04T18:12:36Z</time>
      </trkpt>
      <trkpt lat="46.58729" lon="5.60256">
        <ele>605.2</ele>
        <time>2022-03-04T18:12:37Z</time>
      </trkpt>
      <trkpt lat="46.5873" lon="5.60254">
        <ele>605.6</ele>
        <time>2022-03-04T18:12:38Z</time>
      </trkpt>
      <trkpt lat="46.58731" lon="5.60252">
        <ele>605.6</ele>
        <time>2022-03-04T18:12:39Z</time>
      </trkpt>
      <trkpt lat="46.58733" lon="5.60251">
        <ele>605.6</ele>
        <time>2022-03-04T18:12:40Z</time>
      </trkpt>
      <trkpt lat="46.58735" lon="5.60249">
        <ele>605.8</ele>
        <time>2022-03-04T18:12:41Z</time>
      </trkpt>
      <trkpt lat="46.58736" lon="5.60247">
        <ele>606.2</ele>
        <time>2022-03-04T18:12:42Z</time>
      </trkpt>
      <trkpt lat="46.58738" lon="5.60245">
        <ele>606.4</ele>
        <time>2022-03-04T18:12:43Z</time>
      </trkpt>
      <trkpt lat="46.58739" lon="5.60243">
        <ele>606.4</ele>
        <time>2022-03-04T18:12:44Z</time>
      </trkpt>
      <trkpt lat="46.58741" lon="5.60242">
        <ele>606.8</ele>
        <time>2022-03-04T18:12:45Z</time>
      </trkpt>
      <trkpt lat="46.58742" lon="5.6024">
        <ele>607</ele>
        <time>2022-03-04T18:12:46Z</time>
      </trkpt>
      <trkpt lat="46.58744" lon="5.60238">
        <ele>607</ele>
        <time>2022-03-04T18:12:47Z</time>
      </trkpt>
      <trkpt lat="46.58745" lon="5.60237">
        <ele>607.2</ele>
        <time>2022-03-04T18:12:48Z</time>
      </trkpt>
      <trkpt lat="46.58747" lon="5.60236">
        <ele>607.6</ele>
        <time>2022-03-04T18:12:49Z</time>
      </trkpt>
      <trkpt lat="46.58748" lon="5.60234">
        <ele>607.6</ele>
        <time>2022-03-04T18:12:50Z</time>
      </trkpt>
      <trkpt lat="46.5875" lon="5.60233">
        <ele>607.8</ele>
        <time>2022-03-04T18:12:51Z</time>
      </trkpt>
      <trkpt lat="46.58751" lon="5.60232">
        <ele>607.8</ele>
        <time>2022-03-04T18:12:52Z</time>
      </trkpt>
      <trkpt lat="46.58753" lon="5.60231">
        <ele>608.2</ele>
        <time>2022-03-04T18:12:53Z</time>
      </trkpt>
      <trkpt lat="46.58755" lon="5.6023">
        <ele>608.2</ele>
        <time>2022-03-04T18:12:54Z</time>
      </trkpt>
      <trkpt lat="46.58756" lon="5.60229">
        <ele>608.6</ele>
        <time>2022-03-04T18:12:55Z</time>
      </trkpt>
      <trkpt lat="46.58757" lon="5.60228">
        <ele>608.8</ele>
        <time>2022-03-04T18:12:56Z</time>
      </trkpt>
      <trkpt lat="46.58759" lon="5.60227">
        <ele>608.8</ele>
        <time>2022-03-04T18:12:57Z</time>
      </trkpt>
      <trkpt lat="46.58761" lon="5.60226">
        <ele>609.2</ele>
        <time>2022-03-04T18:12:58Z</time>
      </trkpt>
      <trkpt lat="46.58761" lon="5.60225">
        <ele>609.2</ele>
        <time>2022-03-04T18:12:59Z</time>
      </trkpt>
      <trkpt lat="46.58763" lon="5.60224">
        <ele>609.6</ele>
        <time>2022-03-04T18:13:00Z</time>
      </trkpt>
      <trkpt lat="46.58764" lon="5.60223">
        <ele>609.8</ele>
        <time>2022-03-04T18:13:01Z</time>
      </trkpt>
      <trkpt lat="46.58765" lon="5.60222">
        <ele>610</ele>
        <time>2022-03-04T18:13:02Z</time>
      </trkpt>
      <trkpt lat="46.58767" lon="5.60221">
        <ele>610</ele>
        <time>2022-03-04T18:13:03Z</time>
      </trkpt>
      <trkpt lat="46.58768" lon="5.6022">
        <ele>610.4</ele>
        <time>2022-03-04T18:13:04Z</time>
      </trkpt>
      <trkpt lat="46.58769" lon="5.60219">
        <ele>610.4</ele>
        <time>2022-03-04T18:13:05Z</time>
      </trkpt>
      <trkpt lat="46.5877" lon="5.60218">
        <ele>610.6</ele>
        <time>2022-03-04T18:13:06Z</time>
      </trkpt>
      <trkpt lat="46.58771" lon="5.60217">
        <ele>610.6</ele>
        <time>2022-03-04T18:13:07Z</time>
      </trkpt>
      <trkpt lat="46.58772" lon="5.60217">
        <ele>611</ele>
        <time>2022-03-04T18:13:08Z</time>
      </trkpt>
      <trkpt lat="46.58773" lon="5.60216">
        <ele>611.2</ele>
        <time>2022-03-04T18:13:09Z</time>
      </trkpt>
      <trkpt lat="46.58775" lon="5.60214">
        <ele>611.2</ele>
        <time>2022-03-04T18:13:10Z</time>
      </trkpt>
      <trkpt lat="46.58777" lon="5.60213">
        <ele>611.4</ele>
        <time>2022-03-04T18:13:11Z</time>
      </trkpt>
      <trkpt lat="46.58779" lon="5.60212">
        <ele>611.6</ele>
        <time>2022-03-04T18:13:12Z</time>
      </trkpt>
      <trkpt lat="46.5878" lon="5.60211">
        <ele>612</ele>
        <time>2022-03-04T18:13:13Z</time>
      </trkpt>
      <trkpt lat="46.58782" lon="5.6021">
        <ele>612</ele>
        <time>2022-03-04T18:13:14Z</time>
      </trkpt>
      <trkpt lat="46.58783" lon="5.60209">
        <ele>612.2</ele>
        <time>2022-03-04T18:13:15Z</time>
      </trkpt>
      <trkpt lat="46.58785" lon="5.60208">
        <ele>612.2</ele>
        <time>2022-03-04T18:13:16Z</time>
      </trkpt>
      <trkpt lat="46.58786" lon="5.60207">
        <ele>612.4</ele>
        <time>2022-03-04T18:13:17Z</time>
      </trkpt>
      <trkpt lat="46.58787" lon="5.60206">
        <ele>612.4</ele>
        <time>2022-03-04T18:13:18Z</time>
      </trkpt>
      <trkpt lat="46.58789" lon="5.60204">
        <ele>612.4</ele>
        <time>2022-03-04T18:13:19Z</time>
      </trkpt>
      <trkpt lat="46.58791" lon="5.60203">
        <ele>612.8</ele>
        <time>2022-03-04T18:13:20Z</time>
      </trkpt>
      <trkpt lat="46.58793" lon="5.60202">
        <ele>612.8</ele>
        <time>2022-03-04T18:13:21Z</time>
      </trkpt>
      <trkpt lat="46.58794" lon="5.602">
        <ele>613</ele>
        <time>2022-03-04T18:13:22Z</time>
      </trkpt>
      <trkpt lat="46.58796" lon="5.60199">
        <ele>613</ele>
        <time>2022-03-04T18:13:23Z</time>
      </trkpt>
      <trkpt lat="46.58798" lon="5.60198">
        <ele>613</ele>
        <time>2022-03-04T18:13:24Z</time>
      </trkpt>
      <trkpt lat="46.588" lon="5.60196">
        <ele>613</ele>
        <time>2022-03-04T18:13:25Z</time>
      </trkpt>
      <trkpt lat="46.58801" lon="5.60195">
        <ele>613</ele>
        <time>2022-03-04T18:13:26Z</time>
      </trkpt>
      <trkpt lat="46.58803" lon="5.60193">
        <ele>613</ele>
        <time>2022-03-04T18:13:27Z</time>
      </trkpt>
      <trkpt lat="46.58805" lon="5.60191">
        <ele>613</ele>
        <time>2022-03-04T18:13:28Z</time>
      </trkpt>
      <trkpt lat="46.58807" lon="5.6019">
        <ele>613</ele>
        <time>2022-03-04T18:13:29Z</time>
      </trkpt>
      <trkpt lat="46.58809" lon="5.60188">
        <ele>613</ele>
        <time>2022-03-04T18:13:30Z</time>
      </trkpt>
      <trkpt lat="46.5881" lon="5.60186">
        <ele>613</ele>
        <time>2022-03-04T18:13:31Z</time>
      </trkpt>
      <trkpt lat="46.58812" lon="5.60184">
        <ele>613</ele>
        <time>2022-03-04T18:13:32Z</time>
      </trkpt>
      <trkpt lat="46.58814" lon="5.60183">
        <ele>613</ele>
        <time>2022-03-04T18:13:33Z</time>
      </trkpt>
      <trkpt lat="46.58816" lon="5.60181">
        <ele>613</ele>
        <time>2022-03-04T18:13:34Z</time>
      </trkpt>
      <trkpt lat="46.58819" lon="5.60179">
        <ele>612.8</ele>
        <time>2022-03-04T18:13:35Z</time>
      </trkpt>
      <trkpt lat="46.58822" lon="5.60177">
        <ele>612.8</ele>
        <time>2022-03-04T18:13:36Z</time>
      </trkpt>
      <trkpt lat="46.58825" lon="5.60174">
        <ele>612.8</ele>
        <time>2022-03-04T18:13:37Z</time>
      </trkpt>
      <trkpt lat="46.58828" lon="5.60172">
        <ele>612.4</ele>
        <time>2022-03-04T18:13:38Z</time>
      </trkpt>
      <trkpt lat="46.58831" lon="5.60169">
        <ele>612.4</ele>
        <time>2022-03-04T18:13:39Z</time>
      </trkpt>
      <trkpt lat="46.58835" lon="5.60166">
        <ele>612.2</ele>
        <time>2022-03-04T18:13:40Z</time>
      </trkpt>
      <trkpt lat="46.58838" lon="5.60164">
        <ele>611.8</ele>
        <time>2022-03-04T18:13:41Z</time>
      </trkpt>
      <trkpt lat="46.58841" lon="5.60162">
        <ele>611.8</ele>
        <time>2022-03-04T18:13:42Z</time>
      </trkpt>
      <trkpt lat="46.58845" lon="5.60159">
        <ele>611.6</ele>
        <time>2022-03-04T18:13:43Z</time>
      </trkpt>
      <trkpt lat="46.58849" lon="5.60156">
        <ele>611.4</ele>
        <time>2022-03-04T18:13:44Z</time>
      </trkpt>
      <trkpt lat="46.58854" lon="5.60153">
        <ele>611.4</ele>
        <time>2022-03-04T18:13:45Z</time>
      </trkpt>
      <trkpt lat="46.58858" lon="5.60151">
        <ele>611.4</ele>
        <time>2022-03-04T18:13:46Z</time>
      </trkpt>
      <trkpt lat="46.58863" lon="5.60148">
        <ele>611</ele>
        <time>2022-03-04T18:13:47Z</time>
      </trkpt>
      <trkpt lat="46.58867" lon="5.60146">
        <ele>611</ele>
        <time>2022-03-04T18:13:48Z</time>
      </trkpt>
      <trkpt lat="46.58871" lon="5.60143">
        <ele>610.8</ele>
        <time>2022-03-04T18:13:49Z</time>
      </trkpt>
      <trkpt lat="46.58875" lon="5.60141">
        <ele>610.8</ele>
        <time>2022-03-04T18:13:50Z</time>
      </trkpt>
      <trkpt lat="46.58879" lon="5.60138">
        <ele>610.8</ele>
        <time>2022-03-04T18:13:51Z</time>
      </trkpt>
      <trkpt lat="46.58883" lon="5.60135">
        <ele>610.6</ele>
        <time>2022-03-04T18:13:52Z</time>
      </trkpt>
      <trkpt lat="46.58886" lon="5.60133">
        <ele>610.6</ele>
        <time>2022-03-04T18:13:53Z</time>
      </trkpt>
      <trkpt lat="46.5889" lon="5.60131">
        <ele>610.6</ele>
        <time>2022-03-04T18:13:54Z</time>
      </trkpt>
      <trkpt lat="46.58893" lon="5.60129">
        <ele>610.6</ele>
        <time>2022-03-04T18:13:55Z</time>
      </trkpt>
      <trkpt lat="46.58897" lon="5.60126">
        <ele>610.6</ele>
        <time>2022-03-04T18:13:56Z</time>
      </trkpt>
      <trkpt lat="46.58901" lon="5.60124">
        <ele>610.8</ele>
        <time>2022-03-04T18:13:57Z</time>
      </trkpt>
      <trkpt lat="46.58905" lon="5.60121">
        <ele>610.8</ele>
        <time>2022-03-04T18:13:58Z</time>
      </trkpt>
      <trkpt lat="46.58909" lon="5.60118">
        <ele>610.8</ele>
        <time>2022-03-04T18:13:59Z</time>
      </trkpt>
      <trkpt lat="46.58913" lon="5.60115">
        <ele>610.8</ele>
        <time>2022-03-04T18:14:00Z</time>
      </trkpt>
      <trkpt lat="46.58917" lon="5.60113">
        <ele>611</ele>
        <time>2022-03-04T18:14:01Z</time>
      </trkpt>
      <trkpt lat="46.58921" lon="5.6011">
        <ele>611</ele>
        <time>2022-03-04T18:14:02Z</time>
      </trkpt>
      <trkpt lat="46.58924" lon="5.60107">
        <ele>611</ele>
        <time>2022-03-04T18:14:03Z</time>
      </trkpt>
      <trkpt lat="46.58927" lon="5.60105">
        <ele>611</ele>
        <time>2022-03-04T18:14:04Z</time>
      </trkpt>
      <trkpt lat="46.58931" lon="5.60102">
        <ele>611.2</ele>
        <time>2022-03-04T18:14:05Z</time>
      </trkpt>
      <trkpt lat="46.58934" lon="5.60099">
        <ele>611.2</ele>
        <time>2022-03-04T18:14:06Z</time>
      </trkpt>
      <trkpt lat="46.58937" lon="5.60096">
        <ele>611.2</ele>
        <time>2022-03-04T18:14:07Z</time>
      </trkpt>
      <trkpt lat="46.58941" lon="5.60093">
        <ele>611.2</ele>
        <time>2022-03-04T18:14:08Z</time>
      </trkpt>
      <trkpt lat="46.58945" lon="5.6009">
        <ele>611.6</ele>
        <time>2022-03-04T18:14:09Z</time>
      </trkpt>
      <trkpt lat="46.58949" lon="5.60087">
        <ele>611.6</ele>
        <time>2022-03-04T18:14:10Z</time>
      </trkpt>
      <trkpt lat="46.58952" lon="5.60084">
        <ele>611.6</ele>
        <time>2022-03-04T18:14:11Z</time>
      </trkpt>
      <trkpt lat="46.58956" lon="5.60081">
        <ele>611.8</ele>
        <time>2022-03-04T18:14:12Z</time>
      </trkpt>
      <trkpt lat="46.58959" lon="5.60079">
        <ele>611.8</ele>
        <time>2022-03-04T18:14:13Z</time>
      </trkpt>
      <trkpt lat="46.58963" lon="5.60076">
        <ele>611.8</ele>
        <time>2022-03-04T18:14:14Z</time>
      </trkpt>
      <trkpt lat="46.58967" lon="5.60074">
        <ele>611.8</ele>
        <time>2022-03-04T18:14:15Z</time>
      </trkpt>
      <trkpt lat="46.58971" lon="5.60072">
        <ele>611.8</ele>
        <time>2022-03-04T18:14:16Z</time>
      </trkpt>
      <trkpt lat="46.58975" lon="5.60071">
        <ele>611.8</ele>
        <time>2022-03-04T18:14:17Z</time>
      </trkpt>
      <trkpt lat="46.5898" lon="5.6007">
        <ele>611.8</ele>
        <time>2022-03-04T18:14:18Z</time>
      </trkpt>
      <trkpt lat="46.58984" lon="5.60069">
        <ele>611.8</ele>
        <time>2022-03-04T18:14:19Z</time>
      </trkpt>
      <trkpt lat="46.58988" lon="5.60067">
        <ele>611.8</ele>
        <time>2022-03-04T18:14:20Z</time>
      </trkpt>
      <trkpt lat="46.58992" lon="5.60064">
        <ele>611.8</ele>
        <time>2022-03-04T18:14:21Z</time>
      </trkpt>
      <trkpt lat="46.58995" lon="5.60062">
        <ele>611.8</ele>
        <time>2022-03-04T18:14:22Z</time>
      </trkpt>
      <trkpt lat="46.58999" lon="5.60061">
        <ele>612</ele>
        <time>2022-03-04T18:14:23Z</time>
      </trkpt>
      <trkpt lat="46.59004" lon="5.6006">
        <ele>612</ele>
        <time>2022-03-04T18:14:24Z</time>
      </trkpt>
      <trkpt lat="46.59008" lon="5.60059">
        <ele>612</ele>
        <time>2022-03-04T18:14:25Z</time>
      </trkpt>
      <trkpt lat="46.59012" lon="5.60059">
        <ele>612</ele>
        <time>2022-03-04T18:14:26Z</time>
      </trkpt>
      <trkpt lat="46.59016" lon="5.60058">
        <ele>612</ele>
        <time>2022-03-04T18:14:27Z</time>
      </trkpt>
      <trkpt lat="46.59021" lon="5.60059">
        <ele>612</ele>
        <time>2022-03-04T18:14:28Z</time>
      </trkpt>
      <trkpt lat="46.59025" lon="5.60058">
        <ele>612</ele>
        <time>2022-03-04T18:14:29Z</time>
      </trkpt>
      <trkpt lat="46.59029" lon="5.60057">
        <ele>611.8</ele>
        <time>2022-03-04T18:14:30Z</time>
      </trkpt>
      <trkpt lat="46.59033" lon="5.60057">
        <ele>611.8</ele>
        <time>2022-03-04T18:14:31Z</time>
      </trkpt>
      <trkpt lat="46.59037" lon="5.60057">
        <ele>611.8</ele>
        <time>2022-03-04T18:14:32Z</time>
      </trkpt>
      <trkpt lat="46.59041" lon="5.60057">
        <ele>611.4</ele>
        <time>2022-03-04T18:14:33Z</time>
      </trkpt>
      <trkpt lat="46.59046" lon="5.60056">
        <ele>611.4</ele>
        <time>2022-03-04T18:14:34Z</time>
      </trkpt>
      <trkpt lat="46.59051" lon="5.60056">
        <ele>611.2</ele>
        <time>2022-03-04T18:14:35Z</time>
      </trkpt>
      <trkpt lat="46.59056" lon="5.60055">
        <ele>611.2</ele>
        <time>2022-03-04T18:14:36Z</time>
      </trkpt>
      <trkpt lat="46.59061" lon="5.60055">
        <ele>610.8</ele>
        <time>2022-03-04T18:14:37Z</time>
      </trkpt>
      <trkpt lat="46.59066" lon="5.60055">
        <ele>610.8</ele>
        <time>2022-03-04T18:14:38Z</time>
      </trkpt>
      <trkpt lat="46.59072" lon="5.60054">
        <ele>610.2</ele>
        <time>2022-03-04T18:14:39Z</time>
      </trkpt>
      <trkpt lat="46.59077" lon="5.60054">
        <ele>610</ele>
        <time>2022-03-04T18:14:40Z</time>
      </trkpt>
      <trkpt lat="46.59082" lon="5.60054">
        <ele>609.6</ele>
        <time>2022-03-04T18:14:41Z</time>
      </trkpt>
      <trkpt lat="46.59089" lon="5.60055">
        <ele>609.2</ele>
        <time>2022-03-04T18:14:42Z</time>
      </trkpt>
      <trkpt lat="46.59095" lon="5.60055">
        <ele>608.6</ele>
        <time>2022-03-04T18:14:43Z</time>
      </trkpt>
      <trkpt lat="46.59102" lon="5.60057">
        <ele>608.2</ele>
        <time>2022-03-04T18:14:44Z</time>
      </trkpt>
      <trkpt lat="46.59108" lon="5.60057">
        <ele>607.8</ele>
        <time>2022-03-04T18:14:45Z</time>
      </trkpt>
      <trkpt lat="46.5912" lon="5.60057">
        <ele>607.4</ele>
        <time>2022-03-04T18:14:46Z</time>
      </trkpt>
      <trkpt lat="46.59127" lon="5.60056">
        <ele>606.8</ele>
        <time>2022-03-04T18:14:47Z</time>
      </trkpt>
      <trkpt lat="46.59133" lon="5.60055">
        <ele>606.6</ele>
        <time>2022-03-04T18:14:48Z</time>
      </trkpt>
      <trkpt lat="46.5914" lon="5.60054">
        <ele>606</ele>
        <time>2022-03-04T18:14:49Z</time>
      </trkpt>
      <trkpt lat="46.59147" lon="5.60053">
        <ele>605.6</ele>
        <time>2022-03-04T18:14:50Z</time>
      </trkpt>
      <trkpt lat="46.59153" lon="5.60052">
        <ele>605.4</ele>
        <time>2022-03-04T18:14:51Z</time>
      </trkpt>
      <trkpt lat="46.59159" lon="5.60052">
        <ele>604.8</ele>
        <time>2022-03-04T18:14:52Z</time>
      </trkpt>
      <trkpt lat="46.59165" lon="5.60051">
        <ele>604.4</ele>
        <time>2022-03-04T18:14:53Z</time>
      </trkpt>
      <trkpt lat="46.59171" lon="5.60051">
        <ele>604.2</ele>
        <time>2022-03-04T18:14:54Z</time>
      </trkpt>
      <trkpt lat="46.59177" lon="5.6005">
        <ele>604</ele>
        <time>2022-03-04T18:14:55Z</time>
      </trkpt>
      <trkpt lat="46.59184" lon="5.6005">
        <ele>603.8</ele>
        <time>2022-03-04T18:14:56Z</time>
      </trkpt>
      <trkpt lat="46.5919" lon="5.60052">
        <ele>603.4</ele>
        <time>2022-03-04T18:14:57Z</time>
      </trkpt>
      <trkpt lat="46.59197" lon="5.60053">
        <ele>603.4</ele>
        <time>2022-03-04T18:14:58Z</time>
      </trkpt>
      <trkpt lat="46.59203" lon="5.60054">
        <ele>603</ele>
        <time>2022-03-04T18:14:59Z</time>
      </trkpt>
      <trkpt lat="46.59209" lon="5.60054">
        <ele>602.8</ele>
        <time>2022-03-04T18:15:00Z</time>
      </trkpt>
      <trkpt lat="46.59216" lon="5.60055">
        <ele>602.6</ele>
        <time>2022-03-04T18:15:01Z</time>
      </trkpt>
      <trkpt lat="46.59222" lon="5.60055">
        <ele>602.6</ele>
        <time>2022-03-04T18:15:02Z</time>
      </trkpt>
      <trkpt lat="46.59228" lon="5.60056">
        <ele>602.2</ele>
        <time>2022-03-04T18:15:03Z</time>
      </trkpt>
      <trkpt lat="46.59234" lon="5.60056">
        <ele>602.2</ele>
        <time>2022-03-04T18:15:04Z</time>
      </trkpt>
      <trkpt lat="46.5924" lon="5.60056">
        <ele>601.8</ele>
        <time>2022-03-04T18:15:05Z</time>
      </trkpt>
      <trkpt lat="46.59246" lon="5.60055">
        <ele>601.8</ele>
        <time>2022-03-04T18:15:06Z</time>
      </trkpt>
      <trkpt lat="46.59252" lon="5.60056">
        <ele>601.6</ele>
        <time>2022-03-04T18:15:07Z</time>
      </trkpt>
      <trkpt lat="46.59257" lon="5.60056">
        <ele>601.6</ele>
        <time>2022-03-04T18:15:08Z</time>
      </trkpt>
      <trkpt lat="46.59263" lon="5.60056">
        <ele>601.6</ele>
        <time>2022-03-04T18:15:09Z</time>
      </trkpt>
      <trkpt lat="46.59268" lon="5.60056">
        <ele>601.2</ele>
        <time>2022-03-04T18:15:10Z</time>
      </trkpt>
      <trkpt lat="46.59272" lon="5.60056">
        <ele>601.2</ele>
        <time>2022-03-04T18:15:11Z</time>
      </trkpt>
      <trkpt lat="46.59277" lon="5.60055">
        <ele>601</ele>
        <time>2022-03-04T18:15:12Z</time>
      </trkpt>
      <trkpt lat="46.59283" lon="5.60054">
        <ele>601</ele>
        <time>2022-03-04T18:15:13Z</time>
      </trkpt>
      <trkpt lat="46.59287" lon="5.60053">
        <ele>601</ele>
        <time>2022-03-04T18:15:14Z</time>
      </trkpt>
      <trkpt lat="46.59291" lon="5.60052">
        <ele>601</ele>
        <time>2022-03-04T18:15:15Z</time>
      </trkpt>
      <trkpt lat="46.59295" lon="5.60052">
        <ele>601</ele>
        <time>2022-03-04T18:15:16Z</time>
      </trkpt>
      <trkpt lat="46.59299" lon="5.60051">
        <ele>601</ele>
        <time>2022-03-04T18:15:17Z</time>
      </trkpt>
      <trkpt lat="46.59303" lon="5.60051">
        <ele>601</ele>
        <time>2022-03-04T18:15:18Z</time>
      </trkpt>
      <trkpt lat="46.59308" lon="5.60051">
        <ele>601</ele>
        <time>2022-03-04T18:15:19Z</time>
      </trkpt>
      <trkpt lat="46.59311" lon="5.6005">
        <ele>601</ele>
        <time>2022-03-04T18:15:20Z</time>
      </trkpt>
      <trkpt lat="46.59314" lon="5.6005">
        <ele>601</ele>
        <time>2022-03-04T18:15:21Z</time>
      </trkpt>
      <trkpt lat="46.59318" lon="5.6005">
        <ele>601</ele>
        <time>2022-03-04T18:15:22Z</time>
      </trkpt>
      <trkpt lat="46.59322" lon="5.60048">
        <ele>601</ele>
        <time>2022-03-04T18:15:23Z</time>
      </trkpt>
      <trkpt lat="46.59326" lon="5.60047">
        <ele>601</ele>
        <time>2022-03-04T18:15:24Z</time>
      </trkpt>
      <trkpt lat="46.59331" lon="5.60046">
        <ele>601</ele>
        <time>2022-03-04T18:15:25Z</time>
      </trkpt>
      <trkpt lat="46.59335" lon="5.60045">
        <ele>600.8</ele>
        <time>2022-03-04T18:15:26Z</time>
      </trkpt>
      <trkpt lat="46.59339" lon="5.60044">
        <ele>600.8</ele>
        <time>2022-03-04T18:15:27Z</time>
      </trkpt>
      <trkpt lat="46.59342" lon="5.60043">
        <ele>600.6</ele>
        <time>2022-03-04T18:15:28Z</time>
      </trkpt>
      <trkpt lat="46.59346" lon="5.60041">
        <ele>600.6</ele>
        <time>2022-03-04T18:15:29Z</time>
      </trkpt>
      <trkpt lat="46.5935" lon="5.60039">
        <ele>600.6</ele>
        <time>2022-03-04T18:15:30Z</time>
      </trkpt>
      <trkpt lat="46.59353" lon="5.60038">
        <ele>600.2</ele>
        <time>2022-03-04T18:15:31Z</time>
      </trkpt>
      <trkpt lat="46.59358" lon="5.60035">
        <ele>600.2</ele>
        <time>2022-03-04T18:15:32Z</time>
      </trkpt>
      <trkpt lat="46.59361" lon="5.60033">
        <ele>600</ele>
        <time>2022-03-04T18:15:33Z</time>
      </trkpt>
      <trkpt lat="46.59365" lon="5.60032">
        <ele>600</ele>
        <time>2022-03-04T18:15:34Z</time>
      </trkpt>
      <trkpt lat="46.5937" lon="5.60029">
        <ele>599.8</ele>
        <time>2022-03-04T18:15:35Z</time>
      </trkpt>
      <trkpt lat="46.59374" lon="5.60027">
        <ele>599.8</ele>
        <time>2022-03-04T18:15:36Z</time>
      </trkpt>
      <trkpt lat="46.59378" lon="5.60026">
        <ele>599.4</ele>
        <time>2022-03-04T18:15:37Z</time>
      </trkpt>
      <trkpt lat="46.59382" lon="5.60024">
        <ele>599.2</ele>
        <time>2022-03-04T18:15:38Z</time>
      </trkpt>
      <trkpt lat="46.59387" lon="5.60022">
        <ele>599</ele>
        <time>2022-03-04T18:15:39Z</time>
      </trkpt>
      <trkpt lat="46.59392" lon="5.60019">
        <ele>598.6</ele>
        <time>2022-03-04T18:15:40Z</time>
      </trkpt>
      <trkpt lat="46.59397" lon="5.60017">
        <ele>598.6</ele>
        <time>2022-03-04T18:15:41Z</time>
      </trkpt>
      <trkpt lat="46.59402" lon="5.60015">
        <ele>598.4</ele>
        <time>2022-03-04T18:15:42Z</time>
      </trkpt>
      <trkpt lat="46.59409" lon="5.60013">
        <ele>598</ele>
        <time>2022-03-04T18:15:43Z</time>
      </trkpt>
      <trkpt lat="46.59415" lon="5.60011">
        <ele>597.8</ele>
        <time>2022-03-04T18:15:44Z</time>
      </trkpt>
      <trkpt lat="46.59422" lon="5.60009">
        <ele>597.6</ele>
        <time>2022-03-04T18:15:45Z</time>
      </trkpt>
      <trkpt lat="46.59428" lon="5.60008">
        <ele>597.4</ele>
        <time>2022-03-04T18:15:46Z</time>
      </trkpt>
      <trkpt lat="46.59434" lon="5.60007">
        <ele>597</ele>
        <time>2022-03-04T18:15:47Z</time>
      </trkpt>
      <trkpt lat="46.59439" lon="5.60006">
        <ele>596.6</ele>
        <time>2022-03-04T18:15:48Z</time>
      </trkpt>
      <trkpt lat="46.59444" lon="5.60005">
        <ele>596.2</ele>
        <time>2022-03-04T18:15:49Z</time>
      </trkpt>
      <trkpt lat="46.5945" lon="5.60005">
        <ele>595.8</ele>
        <time>2022-03-04T18:15:50Z</time>
      </trkpt>
      <trkpt lat="46.59455" lon="5.60004">
        <ele>595.4</ele>
        <time>2022-03-04T18:15:51Z</time>
      </trkpt>
      <trkpt lat="46.59461" lon="5.60003">
        <ele>595</ele>
        <time>2022-03-04T18:15:52Z</time>
      </trkpt>
      <trkpt lat="46.59467" lon="5.60003">
        <ele>594.6</ele>
        <time>2022-03-04T18:15:53Z</time>
      </trkpt>
      <trkpt lat="46.59473" lon="5.60001">
        <ele>594.2</ele>
        <time>2022-03-04T18:15:54Z</time>
      </trkpt>
      <trkpt lat="46.59478" lon="5.6">
        <ele>593.8</ele>
        <time>2022-03-04T18:15:55Z</time>
      </trkpt>
      <trkpt lat="46.59485" lon="5.59998">
        <ele>593.4</ele>
        <time>2022-03-04T18:15:56Z</time>
      </trkpt>
      <trkpt lat="46.59491" lon="5.59997">
        <ele>593</ele>
        <time>2022-03-04T18:15:57Z</time>
      </trkpt>
      <trkpt lat="46.59497" lon="5.59995">
        <ele>592.6</ele>
        <time>2022-03-04T18:15:58Z</time>
      </trkpt>
      <trkpt lat="46.59502" lon="5.59994">
        <ele>592.4</ele>
        <time>2022-03-04T18:15:59Z</time>
      </trkpt>
      <trkpt lat="46.59508" lon="5.59993">
        <ele>592.4</ele>
        <time>2022-03-04T18:16:00Z</time>
      </trkpt>
      <trkpt lat="46.59513" lon="5.59991">
        <ele>592</ele>
        <time>2022-03-04T18:16:01Z</time>
      </trkpt>
      <trkpt lat="46.59518" lon="5.5999">
        <ele>592</ele>
        <time>2022-03-04T18:16:02Z</time>
      </trkpt>
      <trkpt lat="46.59522" lon="5.59989">
        <ele>591.6</ele>
        <time>2022-03-04T18:16:03Z</time>
      </trkpt>
      <trkpt lat="46.59527" lon="5.59988">
        <ele>591.6</ele>
        <time>2022-03-04T18:16:04Z</time>
      </trkpt>
      <trkpt lat="46.59532" lon="5.59987">
        <ele>591.6</ele>
        <time>2022-03-04T18:16:05Z</time>
      </trkpt>
      <trkpt lat="46.59537" lon="5.59986">
        <ele>591.6</ele>
        <time>2022-03-04T18:16:06Z</time>
      </trkpt>
      <trkpt lat="46.59541" lon="5.59986">
        <ele>591.6</ele>
        <time>2022-03-04T18:16:07Z</time>
      </trkpt>
      <trkpt lat="46.59545" lon="5.59986">
        <ele>592</ele>
        <time>2022-03-04T18:16:08Z</time>
      </trkpt>
      <trkpt lat="46.59549" lon="5.59986">
        <ele>592</ele>
        <time>2022-03-04T18:16:09Z</time>
      </trkpt>
      <trkpt lat="46.59553" lon="5.59988">
        <ele>592.4</ele>
        <time>2022-03-04T18:16:10Z</time>
      </trkpt>
      <trkpt lat="46.59557" lon="5.59988">
        <ele>592.6</ele>
        <time>2022-03-04T18:16:11Z</time>
      </trkpt>
      <trkpt lat="46.5956" lon="5.59988">
        <ele>592.6</ele>
        <time>2022-03-04T18:16:12Z</time>
      </trkpt>
      <trkpt lat="46.59563" lon="5.59988">
        <ele>593</ele>
        <time>2022-03-04T18:16:13Z</time>
      </trkpt>
      <trkpt lat="46.59567" lon="5.59988">
        <ele>593.2</ele>
        <time>2022-03-04T18:16:14Z</time>
      </trkpt>
      <trkpt lat="46.59571" lon="5.59988">
        <ele>593.4</ele>
        <time>2022-03-04T18:16:15Z</time>
      </trkpt>
      <trkpt lat="46.59574" lon="5.59987">
        <ele>593.4</ele>
        <time>2022-03-04T18:16:16Z</time>
      </trkpt>
      <trkpt lat="46.59578" lon="5.59986">
        <ele>594</ele>
        <time>2022-03-04T18:16:17Z</time>
      </trkpt>
      <trkpt lat="46.59581" lon="5.59986">
        <ele>594.2</ele>
        <time>2022-03-04T18:16:18Z</time>
      </trkpt>
      <trkpt lat="46.59584" lon="5.59985">
        <ele>594.4</ele>
        <time>2022-03-04T18:16:19Z</time>
      </trkpt>
      <trkpt lat="46.59588" lon="5.59984">
        <ele>594.6</ele>
        <time>2022-03-04T18:16:20Z</time>
      </trkpt>
      <trkpt lat="46.59591" lon="5.59984">
        <ele>594.6</ele>
        <time>2022-03-04T18:16:21Z</time>
      </trkpt>
      <trkpt lat="46.59594" lon="5.59983">
        <ele>594.8</ele>
        <time>2022-03-04T18:16:22Z</time>
      </trkpt>
      <trkpt lat="46.59597" lon="5.59982">
        <ele>594.8</ele>
        <time>2022-03-04T18:16:23Z</time>
      </trkpt>
      <trkpt lat="46.59597" lon="5.59982">
        <ele>595</ele>
        <time>2022-03-04T18:16:24Z</time>
      </trkpt>
      <trkpt lat="46.596" lon="5.59981">
        <ele>595</ele>
        <time>2022-03-04T18:16:25Z</time>
      </trkpt>
      <trkpt lat="46.59604" lon="5.5998">
        <ele>595</ele>
        <time>2022-03-04T18:16:26Z</time>
      </trkpt>
      <trkpt lat="46.59606" lon="5.59979">
        <ele>595</ele>
        <time>2022-03-04T18:16:27Z</time>
      </trkpt>
      <trkpt lat="46.5961" lon="5.5998">
        <ele>595</ele>
        <time>2022-03-04T18:16:28Z</time>
      </trkpt>
      <trkpt lat="46.59613" lon="5.5998">
        <ele>595.2</ele>
        <time>2022-03-04T18:16:29Z</time>
      </trkpt>
      <trkpt lat="46.59616" lon="5.59979">
        <ele>595.2</ele>
        <time>2022-03-04T18:16:30Z</time>
      </trkpt>
      <trkpt lat="46.5962" lon="5.59979">
        <ele>595.2</ele>
        <time>2022-03-04T18:16:31Z</time>
      </trkpt>
      <trkpt lat="46.59623" lon="5.59979">
        <ele>595.2</ele>
        <time>2022-03-04T18:16:32Z</time>
      </trkpt>
      <trkpt lat="46.59627" lon="5.59978">
        <ele>595.2</ele>
        <time>2022-03-04T18:16:33Z</time>
      </trkpt>
      <trkpt lat="46.5963" lon="5.59978">
        <ele>595.2</ele>
        <time>2022-03-04T18:16:34Z</time>
      </trkpt>
      <trkpt lat="46.59634" lon="5.59978">
        <ele>595.2</ele>
        <time>2022-03-04T18:16:35Z</time>
      </trkpt>
      <trkpt lat="46.59638" lon="5.59978">
        <ele>595</ele>
        <time>2022-03-04T18:16:36Z</time>
      </trkpt>
      <trkpt lat="46.59641" lon="5.59978">
        <ele>595</ele>
        <time>2022-03-04T18:16:37Z</time>
      </trkpt>
      <trkpt lat="46.59645" lon="5.59978">
        <ele>594.8</ele>
        <time>2022-03-04T18:16:38Z</time>
      </trkpt>
      <trkpt lat="46.59649" lon="5.59977">
        <ele>594.8</ele>
        <time>2022-03-04T18:16:39Z</time>
      </trkpt>
      <trkpt lat="46.59654" lon="5.59977">
        <ele>594.6</ele>
        <time>2022-03-04T18:16:40Z</time>
      </trkpt>
      <trkpt lat="46.59658" lon="5.59977">
        <ele>594.6</ele>
        <time>2022-03-04T18:16:41Z</time>
      </trkpt>
      <trkpt lat="46.59662" lon="5.59978">
        <ele>594.6</ele>
        <time>2022-03-04T18:16:42Z</time>
      </trkpt>
      <trkpt lat="46.59666" lon="5.59978">
        <ele>594.6</ele>
        <time>2022-03-04T18:16:43Z</time>
      </trkpt>
      <trkpt lat="46.5967" lon="5.59978">
        <ele>594.2</ele>
        <time>2022-03-04T18:16:44Z</time>
      </trkpt>
      <trkpt lat="46.59674" lon="5.59978">
        <ele>594.2</ele>
        <time>2022-03-04T18:16:45Z</time>
      </trkpt>
      <trkpt lat="46.59679" lon="5.5998">
        <ele>594</ele>
        <time>2022-03-04T18:16:46Z</time>
      </trkpt>
      <trkpt lat="46.59685" lon="5.59982">
        <ele>594</ele>
        <time>2022-03-04T18:16:47Z</time>
      </trkpt>
      <trkpt lat="46.5969" lon="5.59984">
        <ele>594</ele>
        <time>2022-03-04T18:16:48Z</time>
      </trkpt>
      <trkpt lat="46.59695" lon="5.59982">
        <ele>594</ele>
        <time>2022-03-04T18:16:49Z</time>
      </trkpt>
      <trkpt lat="46.597" lon="5.59984">
        <ele>594</ele>
        <time>2022-03-04T18:16:50Z</time>
      </trkpt>
      <trkpt lat="46.59704" lon="5.59985">
        <ele>594</ele>
        <time>2022-03-04T18:16:51Z</time>
      </trkpt>
      <trkpt lat="46.5971" lon="5.5999">
        <ele>594.4</ele>
        <time>2022-03-04T18:16:52Z</time>
      </trkpt>
      <trkpt lat="46.59715" lon="5.59989">
        <ele>594.4</ele>
        <time>2022-03-04T18:16:53Z</time>
      </trkpt>
      <trkpt lat="46.5972" lon="5.59991">
        <ele>594.6</ele>
        <time>2022-03-04T18:16:54Z</time>
      </trkpt>
      <trkpt lat="46.59724" lon="5.59991">
        <ele>594.6</ele>
        <time>2022-03-04T18:16:55Z</time>
      </trkpt>
      <trkpt lat="46.59727" lon="5.59991">
        <ele>594.8</ele>
        <time>2022-03-04T18:16:56Z</time>
      </trkpt>
      <trkpt lat="46.59731" lon="5.59992">
        <ele>594.8</ele>
        <time>2022-03-04T18:16:57Z</time>
      </trkpt>
      <trkpt lat="46.59734" lon="5.59993">
        <ele>594.8</ele>
        <time>2022-03-04T18:16:58Z</time>
      </trkpt>
      <trkpt lat="46.59738" lon="5.59993">
        <ele>594.8</ele>
        <time>2022-03-04T18:16:59Z</time>
      </trkpt>
      <trkpt lat="46.59741" lon="5.59993">
        <ele>594.8</ele>
        <time>2022-03-04T18:17:00Z</time>
      </trkpt>
      <trkpt lat="46.59743" lon="5.59993">
        <ele>594.6</ele>
        <time>2022-03-04T18:17:01Z</time>
      </trkpt>
      <trkpt lat="46.59747" lon="5.59993">
        <ele>594.4</ele>
        <time>2022-03-04T18:17:02Z</time>
      </trkpt>
      <trkpt lat="46.59751" lon="5.59992">
        <ele>594.2</ele>
        <time>2022-03-04T18:17:03Z</time>
      </trkpt>
      <trkpt lat="46.59754" lon="5.59992">
        <ele>593.8</ele>
        <time>2022-03-04T18:17:04Z</time>
      </trkpt>
      <trkpt lat="46.59759" lon="5.59991">
        <ele>593.4</ele>
        <time>2022-03-04T18:17:05Z</time>
      </trkpt>
      <trkpt lat="46.59764" lon="5.59991">
        <ele>593</ele>
        <time>2022-03-04T18:17:06Z</time>
      </trkpt>
      <trkpt lat="46.59769" lon="5.5999">
        <ele>592.6</ele>
        <time>2022-03-04T18:17:07Z</time>
      </trkpt>
      <trkpt lat="46.59774" lon="5.5999">
        <ele>592</ele>
        <time>2022-03-04T18:17:08Z</time>
      </trkpt>
      <trkpt lat="46.59778" lon="5.59989">
        <ele>591.6</ele>
        <time>2022-03-04T18:17:09Z</time>
      </trkpt>
      <trkpt lat="46.59784" lon="5.59988">
        <ele>591.2</ele>
        <time>2022-03-04T18:17:10Z</time>
      </trkpt>
      <trkpt lat="46.59789" lon="5.59985">
        <ele>590.8</ele>
        <time>2022-03-04T18:17:11Z</time>
      </trkpt>
      <trkpt lat="46.59794" lon="5.59984">
        <ele>590.4</ele>
        <time>2022-03-04T18:17:12Z</time>
      </trkpt>
      <trkpt lat="46.598" lon="5.5998">
        <ele>590</ele>
        <time>2022-03-04T18:17:13Z</time>
      </trkpt>
      <trkpt lat="46.59805" lon="5.59979">
        <ele>589.6</ele>
        <time>2022-03-04T18:17:14Z</time>
      </trkpt>
      <trkpt lat="46.5981" lon="5.59978">
        <ele>589.4</ele>
        <time>2022-03-04T18:17:15Z</time>
      </trkpt>
      <trkpt lat="46.59815" lon="5.59978">
        <ele>589</ele>
        <time>2022-03-04T18:17:16Z</time>
      </trkpt>
      <trkpt lat="46.59819" lon="5.59975">
        <ele>588.6</ele>
        <time>2022-03-04T18:17:17Z</time>
      </trkpt>
      <trkpt lat="46.59824" lon="5.59975">
        <ele>588.4</ele>
        <time>2022-03-04T18:17:18Z</time>
      </trkpt>
      <trkpt lat="46.59828" lon="5.59975">
        <ele>588</ele>
        <time>2022-03-04T18:17:19Z</time>
      </trkpt>
      <trkpt lat="46.59834" lon="5.59975">
        <ele>587.8</ele>
        <time>2022-03-04T18:17:20Z</time>
      </trkpt>
      <trkpt lat="46.5984" lon="5.59979">
        <ele>587.6</ele>
        <time>2022-03-04T18:17:21Z</time>
      </trkpt>
      <trkpt lat="46.59846" lon="5.59981">
        <ele>587.4</ele>
        <time>2022-03-04T18:17:22Z</time>
      </trkpt>
      <trkpt lat="46.59855" lon="5.59988">
        <ele>587.4</ele>
        <time>2022-03-04T18:17:23Z</time>
      </trkpt>
      <trkpt lat="46.59859" lon="5.59991">
        <ele>587.4</ele>
        <time>2022-03-04T18:17:24Z</time>
      </trkpt>
      <trkpt lat="46.59863" lon="5.59993">
        <ele>587.2</ele>
        <time>2022-03-04T18:17:25Z</time>
      </trkpt>
      <trkpt lat="46.59867" lon="5.59995">
        <ele>587.2</ele>
        <time>2022-03-04T18:17:26Z</time>
      </trkpt>
      <trkpt lat="46.59871" lon="5.59996">
        <ele>587.6</ele>
        <time>2022-03-04T18:17:27Z</time>
      </trkpt>
      <trkpt lat="46.59874" lon="5.59996">
        <ele>587.6</ele>
        <time>2022-03-04T18:17:28Z</time>
      </trkpt>
      <trkpt lat="46.59878" lon="5.59996">
        <ele>587.8</ele>
        <time>2022-03-04T18:17:29Z</time>
      </trkpt>
      <trkpt lat="46.59881" lon="5.59996">
        <ele>587.8</ele>
        <time>2022-03-04T18:17:30Z</time>
      </trkpt>
      <trkpt lat="46.59883" lon="5.59997">
        <ele>588.2</ele>
        <time>2022-03-04T18:17:31Z</time>
      </trkpt>
      <trkpt lat="46.59886" lon="5.59999">
        <ele>588.2</ele>
        <time>2022-03-04T18:17:32Z</time>
      </trkpt>
      <trkpt lat="46.59889" lon="5.60003">
        <ele>588.4</ele>
        <time>2022-03-04T18:17:33Z</time>
      </trkpt>
      <trkpt lat="46.59891" lon="5.60005">
        <ele>588.4</ele>
        <time>2022-03-04T18:17:34Z</time>
      </trkpt>
      <trkpt lat="46.59894" lon="5.60008">
        <ele>588.8</ele>
        <time>2022-03-04T18:17:35Z</time>
      </trkpt>
      <trkpt lat="46.59896" lon="5.60011">
        <ele>588.8</ele>
        <time>2022-03-04T18:17:36Z</time>
      </trkpt>
      <trkpt lat="46.59898" lon="5.60011">
        <ele>589</ele>
        <time>2022-03-04T18:17:37Z</time>
      </trkpt>
      <trkpt lat="46.59899" lon="5.60011">
        <ele>589</ele>
        <time>2022-03-04T18:17:38Z</time>
      </trkpt>
      <trkpt lat="46.59902" lon="5.60011">
        <ele>589</ele>
        <time>2022-03-04T18:17:39Z</time>
      </trkpt>
      <trkpt lat="46.59904" lon="5.6001">
        <ele>589</ele>
        <time>2022-03-04T18:17:40Z</time>
      </trkpt>
      <trkpt lat="46.59907" lon="5.60013">
        <ele>589.4</ele>
        <time>2022-03-04T18:17:41Z</time>
      </trkpt>
      <trkpt lat="46.59909" lon="5.60012">
        <ele>589.4</ele>
        <time>2022-03-04T18:17:42Z</time>
      </trkpt>
      <trkpt lat="46.59911" lon="5.60011">
        <ele>589.4</ele>
        <time>2022-03-04T18:17:43Z</time>
      </trkpt>
      <trkpt lat="46.59912" lon="5.60009">
        <ele>589.4</ele>
        <time>2022-03-04T18:17:44Z</time>
      </trkpt>
      <trkpt lat="46.59913" lon="5.60005">
        <ele>589.4</ele>
        <time>2022-03-04T18:17:45Z</time>
      </trkpt>
      <trkpt lat="46.59915" lon="5.60002">
        <ele>589.4</ele>
        <time>2022-03-04T18:17:46Z</time>
      </trkpt>
      <trkpt lat="46.59916" lon="5.59998">
        <ele>589.4</ele>
        <time>2022-03-04T18:17:47Z</time>
      </trkpt>
      <trkpt lat="46.59918" lon="5.59993">
        <ele>589.4</ele>
        <time>2022-03-04T18:17:48Z</time>
      </trkpt>
      <trkpt lat="46.5992" lon="5.59989">
        <ele>589.4</ele>
        <time>2022-03-04T18:17:49Z</time>
      </trkpt>
      <trkpt lat="46.59921" lon="5.59984">
        <ele>589.4</ele>
        <time>2022-03-04T18:17:50Z</time>
      </trkpt>
      <trkpt lat="46.59922" lon="5.59979">
        <ele>589</ele>
        <time>2022-03-04T18:17:51Z</time>
      </trkpt>
      <trkpt lat="46.59923" lon="5.59974">
        <ele>589</ele>
        <time>2022-03-04T18:17:52Z</time>
      </trkpt>
      <trkpt lat="46.59924" lon="5.59968">
        <ele>588.8</ele>
        <time>2022-03-04T18:17:53Z</time>
      </trkpt>
      <trkpt lat="46.59926" lon="5.59962">
        <ele>588.8</ele>
        <time>2022-03-04T18:17:54Z</time>
      </trkpt>
      <trkpt lat="46.59928" lon="5.59957">
        <ele>588.4</ele>
        <time>2022-03-04T18:17:55Z</time>
      </trkpt>
      <trkpt lat="46.59929" lon="5.5995">
        <ele>588.2</ele>
        <time>2022-03-04T18:17:56Z</time>
      </trkpt>
      <trkpt lat="46.59931" lon="5.59944">
        <ele>588</ele>
        <time>2022-03-04T18:17:57Z</time>
      </trkpt>
      <trkpt lat="46.59932" lon="5.59939">
        <ele>587.6</ele>
        <time>2022-03-04T18:17:58Z</time>
      </trkpt>
      <trkpt lat="46.59933" lon="5.59933">
        <ele>587.4</ele>
        <time>2022-03-04T18:17:59Z</time>
      </trkpt>
      <trkpt lat="46.59934" lon="5.59928">
        <ele>587</ele>
        <time>2022-03-04T18:18:00Z</time>
      </trkpt>
      <trkpt lat="46.59935" lon="5.59923">
        <ele>586.6</ele>
        <time>2022-03-04T18:18:01Z</time>
      </trkpt>
      <trkpt lat="46.59936" lon="5.59916">
        <ele>586.2</ele>
        <time>2022-03-04T18:18:02Z</time>
      </trkpt>
      <trkpt lat="46.59937" lon="5.59907">
        <ele>585.6</ele>
        <time>2022-03-04T18:18:03Z</time>
      </trkpt>
      <trkpt lat="46.59938" lon="5.59898">
        <ele>585</ele>
        <time>2022-03-04T18:18:04Z</time>
      </trkpt>
      <trkpt lat="46.59938" lon="5.59888">
        <ele>584.2</ele>
        <time>2022-03-04T18:18:05Z</time>
      </trkpt>
      <trkpt lat="46.59938" lon="5.59879">
        <ele>583.6</ele>
        <time>2022-03-04T18:18:06Z</time>
      </trkpt>
      <trkpt lat="46.59938" lon="5.5987">
        <ele>582.8</ele>
        <time>2022-03-04T18:18:07Z</time>
      </trkpt>
      <trkpt lat="46.59937" lon="5.59859">
        <ele>581.8</ele>
        <time>2022-03-04T18:18:08Z</time>
      </trkpt>
      <trkpt lat="46.59937" lon="5.59849">
        <ele>581</ele>
        <time>2022-03-04T18:18:09Z</time>
      </trkpt>
      <trkpt lat="46.59936" lon="5.59838">
        <ele>580.2</ele>
        <time>2022-03-04T18:18:10Z</time>
      </trkpt>
      <trkpt lat="46.59936" lon="5.59827">
        <ele>579.2</ele>
        <time>2022-03-04T18:18:11Z</time>
      </trkpt>
      <trkpt lat="46.59936" lon="5.59816">
        <ele>578.4</ele>
        <time>2022-03-04T18:18:12Z</time>
      </trkpt>
      <trkpt lat="46.59935" lon="5.59805">
        <ele>577.6</ele>
        <time>2022-03-04T18:18:13Z</time>
      </trkpt>
      <trkpt lat="46.59934" lon="5.59793">
        <ele>576.8</ele>
        <time>2022-03-04T18:18:14Z</time>
      </trkpt>
      <trkpt lat="46.59933" lon="5.59782">
        <ele>575.8</ele>
        <time>2022-03-04T18:18:15Z</time>
      </trkpt>
      <trkpt lat="46.59933" lon="5.5977">
        <ele>575.2</ele>
        <time>2022-03-04T18:18:16Z</time>
      </trkpt>
      <trkpt lat="46.59932" lon="5.59759">
        <ele>574.4</ele>
        <time>2022-03-04T18:18:17Z</time>
      </trkpt>
      <trkpt lat="46.59932" lon="5.59749">
        <ele>573.6</ele>
        <time>2022-03-04T18:18:18Z</time>
      </trkpt>
      <trkpt lat="46.59931" lon="5.59739">
        <ele>572.8</ele>
        <time>2022-03-04T18:18:19Z</time>
      </trkpt>
      <trkpt lat="46.59931" lon="5.5973">
        <ele>572</ele>
        <time>2022-03-04T18:18:20Z</time>
      </trkpt>
      <trkpt lat="46.59931" lon="5.5972">
        <ele>571.4</ele>
        <time>2022-03-04T18:18:21Z</time>
      </trkpt>
      <trkpt lat="46.59932" lon="5.59711">
        <ele>570.8</ele>
        <time>2022-03-04T18:18:22Z</time>
      </trkpt>
      <trkpt lat="46.59933" lon="5.59701">
        <ele>570.2</ele>
        <time>2022-03-04T18:18:23Z</time>
      </trkpt>
      <trkpt lat="46.59934" lon="5.59692">
        <ele>569.6</ele>
        <time>2022-03-04T18:18:24Z</time>
      </trkpt>
      <trkpt lat="46.59936" lon="5.59683">
        <ele>569.2</ele>
        <time>2022-03-04T18:18:25Z</time>
      </trkpt>
      <trkpt lat="46.59937" lon="5.59674">
        <ele>568.6</ele>
        <time>2022-03-04T18:18:26Z</time>
      </trkpt>
      <trkpt lat="46.59938" lon="5.59665">
        <ele>568</ele>
        <time>2022-03-04T18:18:27Z</time>
      </trkpt>
      <trkpt lat="46.5994" lon="5.59655">
        <ele>567.4</ele>
        <time>2022-03-04T18:18:28Z</time>
      </trkpt>
      <trkpt lat="46.59941" lon="5.59646">
        <ele>566.8</ele>
        <time>2022-03-04T18:18:29Z</time>
      </trkpt>
      <trkpt lat="46.59943" lon="5.59637">
        <ele>566.2</ele>
        <time>2022-03-04T18:18:30Z</time>
      </trkpt>
      <trkpt lat="46.59944" lon="5.59629">
        <ele>565.6</ele>
        <time>2022-03-04T18:18:31Z</time>
      </trkpt>
      <trkpt lat="46.59946" lon="5.59622">
        <ele>565.2</ele>
        <time>2022-03-04T18:18:32Z</time>
      </trkpt>
      <trkpt lat="46.59947" lon="5.59616">
        <ele>564.6</ele>
        <time>2022-03-04T18:18:33Z</time>
      </trkpt>
      <trkpt lat="46.59948" lon="5.5961">
        <ele>564.4</ele>
        <time>2022-03-04T18:18:34Z</time>
      </trkpt>
      <trkpt lat="46.59949" lon="5.59605">
        <ele>564</ele>
        <time>2022-03-04T18:18:35Z</time>
      </trkpt>
      <trkpt lat="46.5995" lon="5.596">
        <ele>563.8</ele>
        <time>2022-03-04T18:18:36Z</time>
      </trkpt>
      <trkpt lat="46.59951" lon="5.59595">
        <ele>563.6</ele>
        <time>2022-03-04T18:18:37Z</time>
      </trkpt>
      <trkpt lat="46.59952" lon="5.59591">
        <ele>563.4</ele>
        <time>2022-03-04T18:18:38Z</time>
      </trkpt>
      <trkpt lat="46.59955" lon="5.59587">
        <ele>563</ele>
        <time>2022-03-04T18:18:39Z</time>
      </trkpt>
      <trkpt lat="46.59957" lon="5.59584">
        <ele>563</ele>
        <time>2022-03-04T18:18:40Z</time>
      </trkpt>
      <trkpt lat="46.5996" lon="5.59582">
        <ele>563</ele>
        <time>2022-03-04T18:18:41Z</time>
      </trkpt>
      <trkpt lat="46.59964" lon="5.59582">
        <ele>563</ele>
        <time>2022-03-04T18:18:42Z</time>
      </trkpt>
      <trkpt lat="46.59967" lon="5.59582">
        <ele>563</ele>
        <time>2022-03-04T18:18:43Z</time>
      </trkpt>
      <trkpt lat="46.59971" lon="5.59583">
        <ele>563</ele>
        <time>2022-03-04T18:18:44Z</time>
      </trkpt>
      <trkpt lat="46.59975" lon="5.59584">
        <ele>563</ele>
        <time>2022-03-04T18:18:45Z</time>
      </trkpt>
      <trkpt lat="46.59979" lon="5.59584">
        <ele>563</ele>
        <time>2022-03-04T18:18:46Z</time>
      </trkpt>
      <trkpt lat="46.59983" lon="5.59585">
        <ele>563</ele>
        <time>2022-03-04T18:18:47Z</time>
      </trkpt>
      <trkpt lat="46.59987" lon="5.59585">
        <ele>563</ele>
        <time>2022-03-04T18:18:48Z</time>
      </trkpt>
      <trkpt lat="46.59991" lon="5.59586">
        <ele>563</ele>
        <time>2022-03-04T18:18:49Z</time>
      </trkpt>
      <trkpt lat="46.59996" lon="5.59586">
        <ele>563</ele>
        <time>2022-03-04T18:18:50Z</time>
      </trkpt>
      <trkpt lat="46.6" lon="5.59587">
        <ele>563</ele>
        <time>2022-03-04T18:18:51Z</time>
      </trkpt>
      <trkpt lat="46.60004" lon="5.59587">
        <ele>563</ele>
        <time>2022-03-04T18:18:52Z</time>
      </trkpt>
      <trkpt lat="46.60008" lon="5.59588">
        <ele>563</ele>
        <time>2022-03-04T18:18:53Z</time>
      </trkpt>
      <trkpt lat="46.60012" lon="5.59588">
        <ele>563</ele>
        <time>2022-03-04T18:18:54Z</time>
      </trkpt>
      <trkpt lat="46.60017" lon="5.59589">
        <ele>563</ele>
        <time>2022-03-04T18:18:55Z</time>
      </trkpt>
      <trkpt lat="46.60021" lon="5.5959">
        <ele>563</ele>
        <time>2022-03-04T18:18:56Z</time>
      </trkpt>
      <trkpt lat="46.60025" lon="5.5959">
        <ele>563.4</ele>
        <time>2022-03-04T18:18:57Z</time>
      </trkpt>
      <trkpt lat="46.60034" lon="5.59591">
        <ele>563.4</ele>
        <time>2022-03-04T18:18:58Z</time>
      </trkpt>
      <trkpt lat="46.60038" lon="5.59592">
        <ele>563.4</ele>
        <time>2022-03-04T18:18:59Z</time>
      </trkpt>
      <trkpt lat="46.60042" lon="5.59592">
        <ele>563.4</ele>
        <time>2022-03-04T18:19:00Z</time>
      </trkpt>
      <trkpt lat="46.60047" lon="5.59593">
        <ele>563.4</ele>
        <time>2022-03-04T18:19:01Z</time>
      </trkpt>
      <trkpt lat="46.60051" lon="5.59593">
        <ele>563.6</ele>
        <time>2022-03-04T18:19:02Z</time>
      </trkpt>
      <trkpt lat="46.60056" lon="5.59593">
        <ele>563.6</ele>
        <time>2022-03-04T18:19:03Z</time>
      </trkpt>
      <trkpt lat="46.6006" lon="5.59594">
        <ele>563.6</ele>
        <time>2022-03-04T18:19:04Z</time>
      </trkpt>
      <trkpt lat="46.60065" lon="5.59594">
        <ele>563.6</ele>
        <time>2022-03-04T18:19:05Z</time>
      </trkpt>
      <trkpt lat="46.60069" lon="5.59595">
        <ele>563.6</ele>
        <time>2022-03-04T18:19:06Z</time>
      </trkpt>
      <trkpt lat="46.60073" lon="5.59595">
        <ele>563.6</ele>
        <time>2022-03-04T18:19:07Z</time>
      </trkpt>
      <trkpt lat="46.60078" lon="5.59596">
        <ele>563.6</ele>
        <time>2022-03-04T18:19:08Z</time>
      </trkpt>
      <trkpt lat="46.60082" lon="5.59596">
        <ele>563.8</ele>
        <time>2022-03-04T18:19:09Z</time>
      </trkpt>
      <trkpt lat="46.60086" lon="5.59596">
        <ele>563.8</ele>
        <time>2022-03-04T18:19:10Z</time>
      </trkpt>
      <trkpt lat="46.60091" lon="5.59597">
        <ele>563.8</ele>
        <time>2022-03-04T18:19:11Z</time>
      </trkpt>
      <trkpt lat="46.60095" lon="5.59597">
        <ele>563.8</ele>
        <time>2022-03-04T18:19:12Z</time>
      </trkpt>
      <trkpt lat="46.601" lon="5.59598">
        <ele>563.8</ele>
        <time>2022-03-04T18:19:13Z</time>
      </trkpt>
      <trkpt lat="46.60104" lon="5.59598">
        <ele>564</ele>
        <time>2022-03-04T18:19:14Z</time>
      </trkpt>
      <trkpt lat="46.60109" lon="5.59599">
        <ele>564</ele>
        <time>2022-03-04T18:19:15Z</time>
      </trkpt>
      <trkpt lat="46.60113" lon="5.59599">
        <ele>564</ele>
        <time>2022-03-04T18:19:16Z</time>
      </trkpt>
      <trkpt lat="46.60117" lon="5.596">
        <ele>564.2</ele>
        <time>2022-03-04T18:19:17Z</time>
      </trkpt>
      <trkpt lat="46.60122" lon="5.59601">
        <ele>564.2</ele>
        <time>2022-03-04T18:19:18Z</time>
      </trkpt>
      <trkpt lat="46.60126" lon="5.59601">
        <ele>564.2</ele>
        <time>2022-03-04T18:19:19Z</time>
      </trkpt>
      <trkpt lat="46.6013" lon="5.59601">
        <ele>564.2</ele>
        <time>2022-03-04T18:19:20Z</time>
      </trkpt>
      <trkpt lat="46.60135" lon="5.59602">
        <ele>564.2</ele>
        <time>2022-03-04T18:19:21Z</time>
      </trkpt>
      <trkpt lat="46.60139" lon="5.59603">
        <ele>564.6</ele>
        <time>2022-03-04T18:19:22Z</time>
      </trkpt>
      <trkpt lat="46.60143" lon="5.59603">
        <ele>564.6</ele>
        <time>2022-03-04T18:19:23Z</time>
      </trkpt>
      <trkpt lat="46.60148" lon="5.59604">
        <ele>564.6</ele>
        <time>2022-03-04T18:19:24Z</time>
      </trkpt>
      <trkpt lat="46.60152" lon="5.59604">
        <ele>564.6</ele>
        <time>2022-03-04T18:19:25Z</time>
      </trkpt>
      <trkpt lat="46.60156" lon="5.59605">
        <ele>564.6</ele>
        <time>2022-03-04T18:19:26Z</time>
      </trkpt>
      <trkpt lat="46.60161" lon="5.59605">
        <ele>564.6</ele>
        <time>2022-03-04T18:19:27Z</time>
      </trkpt>
      <trkpt lat="46.60165" lon="5.59606">
        <ele>564.6</ele>
        <time>2022-03-04T18:19:28Z</time>
      </trkpt>
      <trkpt lat="46.60169" lon="5.59606">
        <ele>565</ele>
        <time>2022-03-04T18:19:29Z</time>
      </trkpt>
      <trkpt lat="46.60174" lon="5.59607">
        <ele>565</ele>
        <time>2022-03-04T18:19:30Z</time>
      </trkpt>
      <trkpt lat="46.60178" lon="5.59608">
        <ele>565</ele>
        <time>2022-03-04T18:19:31Z</time>
      </trkpt>
      <trkpt lat="46.60183" lon="5.59608">
        <ele>565</ele>
        <time>2022-03-04T18:19:32Z</time>
      </trkpt>
      <trkpt lat="46.60187" lon="5.59608">
        <ele>565</ele>
        <time>2022-03-04T18:19:33Z</time>
      </trkpt>
      <trkpt lat="46.60192" lon="5.59609">
        <ele>565</ele>
        <time>2022-03-04T18:19:34Z</time>
      </trkpt>
      <trkpt lat="46.60196" lon="5.59609">
        <ele>565</ele>
        <time>2022-03-04T18:19:35Z</time>
      </trkpt>
      <trkpt lat="46.602" lon="5.59609">
        <ele>565</ele>
        <time>2022-03-04T18:19:36Z</time>
      </trkpt>
      <trkpt lat="46.60205" lon="5.5961">
        <ele>565</ele>
        <time>2022-03-04T18:19:37Z</time>
      </trkpt>
      <trkpt lat="46.60209" lon="5.5961">
        <ele>565.2</ele>
        <time>2022-03-04T18:19:38Z</time>
      </trkpt>
      <trkpt lat="46.60214" lon="5.5961">
        <ele>565.2</ele>
        <time>2022-03-04T18:19:39Z</time>
      </trkpt>
      <trkpt lat="46.60218" lon="5.5961">
        <ele>565.2</ele>
        <time>2022-03-04T18:19:40Z</time>
      </trkpt>
      <trkpt lat="46.60223" lon="5.59611">
        <ele>565.2</ele>
        <time>2022-03-04T18:19:41Z</time>
      </trkpt>
      <trkpt lat="46.60227" lon="5.59611">
        <ele>565.2</ele>
        <time>2022-03-04T18:19:42Z</time>
      </trkpt>
      <trkpt lat="46.60231" lon="5.59612">
        <ele>565.2</ele>
        <time>2022-03-04T18:19:43Z</time>
      </trkpt>
      <trkpt lat="46.60236" lon="5.59612">
        <ele>565.6</ele>
        <time>2022-03-04T18:19:44Z</time>
      </trkpt>
      <trkpt lat="46.6024" lon="5.59612">
        <ele>565.6</ele>
        <time>2022-03-04T18:19:45Z</time>
      </trkpt>
      <trkpt lat="46.60244" lon="5.59612">
        <ele>565.6</ele>
        <time>2022-03-04T18:19:46Z</time>
      </trkpt>
      <trkpt lat="46.60249" lon="5.59613">
        <ele>565.8</ele>
        <time>2022-03-04T18:19:47Z</time>
      </trkpt>
      <trkpt lat="46.60253" lon="5.59613">
        <ele>565.8</ele>
        <time>2022-03-04T18:19:48Z</time>
      </trkpt>
      <trkpt lat="46.60257" lon="5.59614">
        <ele>565.8</ele>
        <time>2022-03-04T18:19:49Z</time>
      </trkpt>
      <trkpt lat="46.60261" lon="5.59615">
        <ele>565.8</ele>
        <time>2022-03-04T18:19:50Z</time>
      </trkpt>
      <trkpt lat="46.60265" lon="5.59615">
        <ele>565.8</ele>
        <time>2022-03-04T18:19:51Z</time>
      </trkpt>
      <trkpt lat="46.60269" lon="5.59615">
        <ele>565.8</ele>
        <time>2022-03-04T18:19:52Z</time>
      </trkpt>
      <trkpt lat="46.60273" lon="5.59615">
        <ele>565.8</ele>
        <time>2022-03-04T18:19:53Z</time>
      </trkpt>
      <trkpt lat="46.60278" lon="5.59616">
        <ele>565.8</ele>
        <time>2022-03-04T18:19:54Z</time>
      </trkpt>
      <trkpt lat="46.60282" lon="5.59616">
        <ele>565.8</ele>
        <time>2022-03-04T18:19:55Z</time>
      </trkpt>
      <trkpt lat="46.60286" lon="5.59616">
        <ele>566</ele>
        <time>2022-03-04T18:19:56Z</time>
      </trkpt>
      <trkpt lat="46.6029" lon="5.59617">
        <ele>566</ele>
        <time>2022-03-04T18:19:57Z</time>
      </trkpt>
      <trkpt lat="46.60294" lon="5.59617">
        <ele>566</ele>
        <time>2022-03-04T18:19:58Z</time>
      </trkpt>
      <trkpt lat="46.60298" lon="5.59618">
        <ele>566</ele>
        <time>2022-03-04T18:19:59Z</time>
      </trkpt>
      <trkpt lat="46.60302" lon="5.59618">
        <ele>566</ele>
        <time>2022-03-04T18:20:00Z</time>
      </trkpt>
      <trkpt lat="46.60306" lon="5.59618">
        <ele>566</ele>
        <time>2022-03-04T18:20:01Z</time>
      </trkpt>
      <trkpt lat="46.60311" lon="5.59618">
        <ele>566</ele>
        <time>2022-03-04T18:20:02Z</time>
      </trkpt>
      <trkpt lat="46.60315" lon="5.59619">
        <ele>566</ele>
        <time>2022-03-04T18:20:03Z</time>
      </trkpt>
      <trkpt lat="46.60319" lon="5.59619">
        <ele>565.8</ele>
        <time>2022-03-04T18:20:04Z</time>
      </trkpt>
      <trkpt lat="46.60324" lon="5.5962">
        <ele>565.8</ele>
        <time>2022-03-04T18:20:05Z</time>
      </trkpt>
      <trkpt lat="46.60328" lon="5.5962">
        <ele>565.8</ele>
        <time>2022-03-04T18:20:06Z</time>
      </trkpt>
      <trkpt lat="46.60332" lon="5.59621">
        <ele>565.8</ele>
        <time>2022-03-04T18:20:07Z</time>
      </trkpt>
      <trkpt lat="46.60337" lon="5.59621">
        <ele>565.8</ele>
        <time>2022-03-04T18:20:08Z</time>
      </trkpt>
      <trkpt lat="46.60341" lon="5.59622">
        <ele>565.8</ele>
        <time>2022-03-04T18:20:09Z</time>
      </trkpt>
      <trkpt lat="46.60346" lon="5.59622">
        <ele>565.8</ele>
        <time>2022-03-04T18:20:10Z</time>
      </trkpt>
      <trkpt lat="46.6035" lon="5.59623">
        <ele>565.8</ele>
        <time>2022-03-04T18:20:11Z</time>
      </trkpt>
      <trkpt lat="46.60355" lon="5.59623">
        <ele>565.8</ele>
        <time>2022-03-04T18:20:12Z</time>
      </trkpt>
      <trkpt lat="46.60359" lon="5.59623">
        <ele>566.2</ele>
        <time>2022-03-04T18:20:13Z</time>
      </trkpt>
      <trkpt lat="46.60364" lon="5.59623">
        <ele>566.2</ele>
        <time>2022-03-04T18:20:14Z</time>
      </trkpt>
      <trkpt lat="46.60369" lon="5.59624">
        <ele>566.2</ele>
        <time>2022-03-04T18:20:15Z</time>
      </trkpt>
      <trkpt lat="46.60374" lon="5.59624">
        <ele>566.2</ele>
        <time>2022-03-04T18:20:16Z</time>
      </trkpt>
      <trkpt lat="46.60379" lon="5.59624">
        <ele>566</ele>
        <time>2022-03-04T18:20:17Z</time>
      </trkpt>
      <trkpt lat="46.60379" lon="5.59624">
        <ele>566</ele>
        <time>2022-03-04T18:20:18Z</time>
      </trkpt>
      <trkpt lat="46.60384" lon="5.59625">
        <ele>566</ele>
        <time>2022-03-04T18:20:19Z</time>
      </trkpt>
      <trkpt lat="46.60389" lon="5.59626">
        <ele>566</ele>
        <time>2022-03-04T18:20:20Z</time>
      </trkpt>
      <trkpt lat="46.60394" lon="5.59627">
        <ele>565.8</ele>
        <time>2022-03-04T18:20:21Z</time>
      </trkpt>
      <trkpt lat="46.60399" lon="5.59627">
        <ele>565.8</ele>
        <time>2022-03-04T18:20:22Z</time>
      </trkpt>
      <trkpt lat="46.60404" lon="5.59628">
        <ele>565.8</ele>
        <time>2022-03-04T18:20:23Z</time>
      </trkpt>
      <trkpt lat="46.60409" lon="5.59628">
        <ele>565.8</ele>
        <time>2022-03-04T18:20:24Z</time>
      </trkpt>
      <trkpt lat="46.60414" lon="5.59628">
        <ele>565.4</ele>
        <time>2022-03-04T18:20:25Z</time>
      </trkpt>
      <trkpt lat="46.60419" lon="5.59629">
        <ele>565.4</ele>
        <time>2022-03-04T18:20:26Z</time>
      </trkpt>
      <trkpt lat="46.60425" lon="5.59629">
        <ele>565.4</ele>
        <time>2022-03-04T18:20:27Z</time>
      </trkpt>
      <trkpt lat="46.6043" lon="5.5963">
        <ele>565.2</ele>
        <time>2022-03-04T18:20:28Z</time>
      </trkpt>
      <trkpt lat="46.60435" lon="5.5963">
        <ele>565.2</ele>
        <time>2022-03-04T18:20:29Z</time>
      </trkpt>
      <trkpt lat="46.60441" lon="5.5963">
        <ele>565.2</ele>
        <time>2022-03-04T18:20:30Z</time>
      </trkpt>
      <trkpt lat="46.60446" lon="5.59631">
        <ele>565</ele>
        <time>2022-03-04T18:20:31Z</time>
      </trkpt>
      <trkpt lat="46.60452" lon="5.59631">
        <ele>565</ele>
        <time>2022-03-04T18:20:32Z</time>
      </trkpt>
      <trkpt lat="46.60458" lon="5.59632">
        <ele>564.6</ele>
        <time>2022-03-04T18:20:33Z</time>
      </trkpt>
      <trkpt lat="46.60464" lon="5.59632">
        <ele>564.6</ele>
        <time>2022-03-04T18:20:34Z</time>
      </trkpt>
      <trkpt lat="46.60469" lon="5.59632">
        <ele>564.6</ele>
        <time>2022-03-04T18:20:35Z</time>
      </trkpt>
      <trkpt lat="46.60476" lon="5.59633">
        <ele>564.4</ele>
        <time>2022-03-04T18:20:36Z</time>
      </trkpt>
      <trkpt lat="46.60482" lon="5.59633">
        <ele>564.2</ele>
        <time>2022-03-04T18:20:37Z</time>
      </trkpt>
      <trkpt lat="46.60488" lon="5.59633">
        <ele>564</ele>
        <time>2022-03-04T18:20:38Z</time>
      </trkpt>
      <trkpt lat="46.60495" lon="5.59633">
        <ele>564</ele>
        <time>2022-03-04T18:20:39Z</time>
      </trkpt>
      <trkpt lat="46.60501" lon="5.59633">
        <ele>563.6</ele>
        <time>2022-03-04T18:20:40Z</time>
      </trkpt>
      <trkpt lat="46.60508" lon="5.59633">
        <ele>563.6</ele>
        <time>2022-03-04T18:20:41Z</time>
      </trkpt>
      <trkpt lat="46.60515" lon="5.59633">
        <ele>563</ele>
        <time>2022-03-04T18:20:42Z</time>
      </trkpt>
      <trkpt lat="46.60522" lon="5.59634">
        <ele>563</ele>
        <time>2022-03-04T18:20:43Z</time>
      </trkpt>
      <trkpt lat="46.60528" lon="5.59634">
        <ele>562.6</ele>
        <time>2022-03-04T18:20:44Z</time>
      </trkpt>
      <trkpt lat="46.60535" lon="5.59634">
        <ele>562.4</ele>
        <time>2022-03-04T18:20:45Z</time>
      </trkpt>
      <trkpt lat="46.60542" lon="5.59634">
        <ele>562</ele>
        <time>2022-03-04T18:20:46Z</time>
      </trkpt>
      <trkpt lat="46.6055" lon="5.59635">
        <ele>561.6</ele>
        <time>2022-03-04T18:20:47Z</time>
      </trkpt>
      <trkpt lat="46.60557" lon="5.59635">
        <ele>561.4</ele>
        <time>2022-03-04T18:20:48Z</time>
      </trkpt>
      <trkpt lat="46.60564" lon="5.59635">
        <ele>561</ele>
        <time>2022-03-04T18:20:49Z</time>
      </trkpt>
      <trkpt lat="46.60572" lon="5.59636">
        <ele>560.8</ele>
        <time>2022-03-04T18:20:50Z</time>
      </trkpt>
      <trkpt lat="46.60579" lon="5.59636">
        <ele>560.4</ele>
        <time>2022-03-04T18:20:51Z</time>
      </trkpt>
      <trkpt lat="46.60587" lon="5.59636">
        <ele>560.2</ele>
        <time>2022-03-04T18:20:52Z</time>
      </trkpt>
      <trkpt lat="46.60594" lon="5.59637">
        <ele>560.2</ele>
        <time>2022-03-04T18:20:53Z</time>
      </trkpt>
      <trkpt lat="46.60602" lon="5.59637">
        <ele>559.8</ele>
        <time>2022-03-04T18:20:54Z</time>
      </trkpt>
      <trkpt lat="46.60609" lon="5.59637">
        <ele>559.4</ele>
        <time>2022-03-04T18:20:55Z</time>
      </trkpt>
      <trkpt lat="46.60616" lon="5.59638">
        <ele>559.2</ele>
        <time>2022-03-04T18:20:56Z</time>
      </trkpt>
      <trkpt lat="46.60624" lon="5.59638">
        <ele>559</ele>
        <time>2022-03-04T18:20:57Z</time>
      </trkpt>
      <trkpt lat="46.60631" lon="5.59638">
        <ele>559</ele>
        <time>2022-03-04T18:20:58Z</time>
      </trkpt>
      <trkpt lat="46.60638" lon="5.59639">
        <ele>558.6</ele>
        <time>2022-03-04T18:20:59Z</time>
      </trkpt>
      <trkpt lat="46.60646" lon="5.5964">
        <ele>558.4</ele>
        <time>2022-03-04T18:21:00Z</time>
      </trkpt>
      <trkpt lat="46.60653" lon="5.59641">
        <ele>558</ele>
        <time>2022-03-04T18:21:01Z</time>
      </trkpt>
      <trkpt lat="46.6066" lon="5.59643">
        <ele>557.8</ele>
        <time>2022-03-04T18:21:02Z</time>
      </trkpt>
      <trkpt lat="46.60667" lon="5.59645">
        <ele>557.6</ele>
        <time>2022-03-04T18:21:03Z</time>
      </trkpt>
      <trkpt lat="46.60674" lon="5.59648">
        <ele>557.2</ele>
        <time>2022-03-04T18:21:04Z</time>
      </trkpt>
      <trkpt lat="46.6068" lon="5.59652">
        <ele>557</ele>
        <time>2022-03-04T18:21:05Z</time>
      </trkpt>
      <trkpt lat="46.60687" lon="5.59657">
        <ele>556.8</ele>
        <time>2022-03-04T18:21:06Z</time>
      </trkpt>
      <trkpt lat="46.60692" lon="5.59662">
        <ele>556.4</ele>
        <time>2022-03-04T18:21:07Z</time>
      </trkpt>
      <trkpt lat="46.60698" lon="5.59668">
        <ele>556.2</ele>
        <time>2022-03-04T18:21:08Z</time>
      </trkpt>
      <trkpt lat="46.60704" lon="5.59675">
        <ele>556</ele>
        <time>2022-03-04T18:21:09Z</time>
      </trkpt>
      <trkpt lat="46.60709" lon="5.59682">
        <ele>555.6</ele>
        <time>2022-03-04T18:21:10Z</time>
      </trkpt>
      <trkpt lat="46.60715" lon="5.59689">
        <ele>555.2</ele>
        <time>2022-03-04T18:21:11Z</time>
      </trkpt>
      <trkpt lat="46.6072" lon="5.59697">
        <ele>555</ele>
        <time>2022-03-04T18:21:12Z</time>
      </trkpt>
      <trkpt lat="46.60726" lon="5.59704">
        <ele>554.8</ele>
        <time>2022-03-04T18:21:13Z</time>
      </trkpt>
      <trkpt lat="46.60731" lon="5.59712">
        <ele>554.4</ele>
        <time>2022-03-04T18:21:14Z</time>
      </trkpt>
      <trkpt lat="46.60737" lon="5.5972">
        <ele>554</ele>
        <time>2022-03-04T18:21:15Z</time>
      </trkpt>
      <trkpt lat="46.60743" lon="5.59728">
        <ele>553.8</ele>
        <time>2022-03-04T18:21:16Z</time>
      </trkpt>
      <trkpt lat="46.60749" lon="5.59736">
        <ele>553.4</ele>
        <time>2022-03-04T18:21:17Z</time>
      </trkpt>
      <trkpt lat="46.60754" lon="5.59744">
        <ele>553</ele>
        <time>2022-03-04T18:21:18Z</time>
      </trkpt>
      <trkpt lat="46.6076" lon="5.59752">
        <ele>552.6</ele>
        <time>2022-03-04T18:21:19Z</time>
      </trkpt>
      <trkpt lat="46.60766" lon="5.5976">
        <ele>552.2</ele>
        <time>2022-03-04T18:21:20Z</time>
      </trkpt>
      <trkpt lat="46.60772" lon="5.59768">
        <ele>552</ele>
        <time>2022-03-04T18:21:21Z</time>
      </trkpt>
      <trkpt lat="46.60777" lon="5.59776">
        <ele>551.6</ele>
        <time>2022-03-04T18:21:22Z</time>
      </trkpt>
      <trkpt lat="46.60783" lon="5.59784">
        <ele>551.2</ele>
        <time>2022-03-04T18:21:23Z</time>
      </trkpt>
      <trkpt lat="46.60789" lon="5.59791">
        <ele>550.6</ele>
        <time>2022-03-04T18:21:24Z</time>
      </trkpt>
      <trkpt lat="46.60795" lon="5.59799">
        <ele>550.2</ele>
        <time>2022-03-04T18:21:25Z</time>
      </trkpt>
      <trkpt lat="46.608" lon="5.59806">
        <ele>549.6</ele>
        <time>2022-03-04T18:21:26Z</time>
      </trkpt>
      <trkpt lat="46.60804" lon="5.59813">
        <ele>549.2</ele>
        <time>2022-03-04T18:21:27Z</time>
      </trkpt>
      <trkpt lat="46.60808" lon="5.59819">
        <ele>548.8</ele>
        <time>2022-03-04T18:21:28Z</time>
      </trkpt>
      <trkpt lat="46.60812" lon="5.59824">
        <ele>548.4</ele>
        <time>2022-03-04T18:21:29Z</time>
      </trkpt>
      <trkpt lat="46.60816" lon="5.59829">
        <ele>548</ele>
        <time>2022-03-04T18:21:30Z</time>
      </trkpt>
      <trkpt lat="46.6082" lon="5.59833">
        <ele>547.8</ele>
        <time>2022-03-04T18:21:31Z</time>
      </trkpt>
      <trkpt lat="46.60824" lon="5.59834">
        <ele>547.6</ele>
        <time>2022-03-04T18:21:32Z</time>
      </trkpt>
      <trkpt lat="46.60828" lon="5.59834">
        <ele>547.4</ele>
        <time>2022-03-04T18:21:33Z</time>
      </trkpt>
      <trkpt lat="46.60831" lon="5.59831">
        <ele>547.2</ele>
        <time>2022-03-04T18:21:34Z</time>
      </trkpt>
      <trkpt lat="46.60835" lon="5.59827">
        <ele>546.8</ele>
        <time>2022-03-04T18:21:35Z</time>
      </trkpt>
      <trkpt lat="46.60837" lon="5.59822">
        <ele>546.8</ele>
        <time>2022-03-04T18:21:36Z</time>
      </trkpt>
      <trkpt lat="46.60839" lon="5.59817">
        <ele>546.8</ele>
        <time>2022-03-04T18:21:37Z</time>
      </trkpt>
      <trkpt lat="46.6084" lon="5.59811">
        <ele>546.8</ele>
        <time>2022-03-04T18:21:38Z</time>
      </trkpt>
      <trkpt lat="46.60842" lon="5.59805">
        <ele>546.8</ele>
        <time>2022-03-04T18:21:39Z</time>
      </trkpt>
      <trkpt lat="46.60843" lon="5.598">
        <ele>546.8</ele>
        <time>2022-03-04T18:21:40Z</time>
      </trkpt>
      <trkpt lat="46.60845" lon="5.59794">
        <ele>546.8</ele>
        <time>2022-03-04T18:21:41Z</time>
      </trkpt>
      <trkpt lat="46.60846" lon="5.59789">
        <ele>546.8</ele>
        <time>2022-03-04T18:21:42Z</time>
      </trkpt>
      <trkpt lat="46.60848" lon="5.59784">
        <ele>546.8</ele>
        <time>2022-03-04T18:21:43Z</time>
      </trkpt>
      <trkpt lat="46.60849" lon="5.59779">
        <ele>546.8</ele>
        <time>2022-03-04T18:21:44Z</time>
      </trkpt>
      <trkpt lat="46.60851" lon="5.59775">
        <ele>547.2</ele>
        <time>2022-03-04T18:21:45Z</time>
      </trkpt>
      <trkpt lat="46.60853" lon="5.5977">
        <ele>547.2</ele>
        <time>2022-03-04T18:21:46Z</time>
      </trkpt>
      <trkpt lat="46.60855" lon="5.59766">
        <ele>547.4</ele>
        <time>2022-03-04T18:21:47Z</time>
      </trkpt>
      <trkpt lat="46.60856" lon="5.59761">
        <ele>547.4</ele>
        <time>2022-03-04T18:21:48Z</time>
      </trkpt>
      <trkpt lat="46.60858" lon="5.59756">
        <ele>547.4</ele>
        <time>2022-03-04T18:21:49Z</time>
      </trkpt>
      <trkpt lat="46.6086" lon="5.59752">
        <ele>547.4</ele>
        <time>2022-03-04T18:21:50Z</time>
      </trkpt>
      <trkpt lat="46.60862" lon="5.59748">
        <ele>547.8</ele>
        <time>2022-03-04T18:21:51Z</time>
      </trkpt>
      <trkpt lat="46.60864" lon="5.59743">
        <ele>547.8</ele>
        <time>2022-03-04T18:21:52Z</time>
      </trkpt>
      <trkpt lat="46.60866" lon="5.59739">
        <ele>547.8</ele>
        <time>2022-03-04T18:21:53Z</time>
      </trkpt>
      <trkpt lat="46.60868" lon="5.59735">
        <ele>547.8</ele>
        <time>2022-03-04T18:21:54Z</time>
      </trkpt>
      <trkpt lat="46.6087" lon="5.59731">
        <ele>548</ele>
        <time>2022-03-04T18:21:55Z</time>
      </trkpt>
      <trkpt lat="46.60872" lon="5.59727">
        <ele>548</ele>
        <time>2022-03-04T18:21:56Z</time>
      </trkpt>
      <trkpt lat="46.60874" lon="5.59723">
        <ele>548</ele>
        <time>2022-03-04T18:21:57Z</time>
      </trkpt>
      <trkpt lat="46.60876" lon="5.59719">
        <ele>548.4</ele>
        <time>2022-03-04T18:21:58Z</time>
      </trkpt>
      <trkpt lat="46.60878" lon="5.59715">
        <ele>548.6</ele>
        <time>2022-03-04T18:21:59Z</time>
      </trkpt>
      <trkpt lat="46.6088" lon="5.59711">
        <ele>548.8</ele>
        <time>2022-03-04T18:22:00Z</time>
      </trkpt>
      <trkpt lat="46.60882" lon="5.59708">
        <ele>548.8</ele>
        <time>2022-03-04T18:22:01Z</time>
      </trkpt>
      <trkpt lat="46.60884" lon="5.59705">
        <ele>549.2</ele>
        <time>2022-03-04T18:22:02Z</time>
      </trkpt>
      <trkpt lat="46.60886" lon="5.59701">
        <ele>549.4</ele>
        <time>2022-03-04T18:22:03Z</time>
      </trkpt>
      <trkpt lat="46.60889" lon="5.59698">
        <ele>549.6</ele>
        <time>2022-03-04T18:22:04Z</time>
      </trkpt>
      <trkpt lat="46.60891" lon="5.59696">
        <ele>549.8</ele>
        <time>2022-03-04T18:22:05Z</time>
      </trkpt>
      <trkpt lat="46.60894" lon="5.59694">
        <ele>550</ele>
        <time>2022-03-04T18:22:06Z</time>
      </trkpt>
      <trkpt lat="46.60897" lon="5.59692">
        <ele>550</ele>
        <time>2022-03-04T18:22:07Z</time>
      </trkpt>
      <trkpt lat="46.609" lon="5.59689">
        <ele>550.4</ele>
        <time>2022-03-04T18:22:08Z</time>
      </trkpt>
      <trkpt lat="46.60902" lon="5.59687">
        <ele>550.4</ele>
        <time>2022-03-04T18:22:09Z</time>
      </trkpt>
      <trkpt lat="46.60905" lon="5.59684">
        <ele>550.8</ele>
        <time>2022-03-04T18:22:10Z</time>
      </trkpt>
      <trkpt lat="46.60908" lon="5.59682">
        <ele>550.8</ele>
        <time>2022-03-04T18:22:11Z</time>
      </trkpt>
      <trkpt lat="46.6091" lon="5.5968">
        <ele>551</ele>
        <time>2022-03-04T18:22:12Z</time>
      </trkpt>
      <trkpt lat="46.60913" lon="5.59679">
        <ele>551</ele>
        <time>2022-03-04T18:22:13Z</time>
      </trkpt>
      <trkpt lat="46.60916" lon="5.59677">
        <ele>551.4</ele>
        <time>2022-03-04T18:22:14Z</time>
      </trkpt>
      <trkpt lat="46.60918" lon="5.59675">
        <ele>551.8</ele>
        <time>2022-03-04T18:22:15Z</time>
      </trkpt>
      <trkpt lat="46.60921" lon="5.59673">
        <ele>552</ele>
        <time>2022-03-04T18:22:16Z</time>
      </trkpt>
      <trkpt lat="46.60924" lon="5.59671">
        <ele>552</ele>
        <time>2022-03-04T18:22:17Z</time>
      </trkpt>
      <trkpt lat="46.60926" lon="5.59668">
        <ele>552.4</ele>
        <time>2022-03-04T18:22:18Z</time>
      </trkpt>
      <trkpt lat="46.60929" lon="5.59665">
        <ele>552.6</ele>
        <time>2022-03-04T18:22:19Z</time>
      </trkpt>
      <trkpt lat="46.60931" lon="5.59662">
        <ele>553</ele>
        <time>2022-03-04T18:22:20Z</time>
      </trkpt>
      <trkpt lat="46.60932" lon="5.59657">
        <ele>553</ele>
        <time>2022-03-04T18:22:21Z</time>
      </trkpt>
      <trkpt lat="46.60933" lon="5.59653">
        <ele>553</ele>
        <time>2022-03-04T18:22:22Z</time>
      </trkpt>
      <trkpt lat="46.60934" lon="5.59648">
        <ele>553.2</ele>
        <time>2022-03-04T18:22:23Z</time>
      </trkpt>
      <trkpt lat="46.60935" lon="5.59643">
        <ele>553.2</ele>
        <time>2022-03-04T18:22:24Z</time>
      </trkpt>
      <trkpt lat="46.60936" lon="5.59638">
        <ele>553.2</ele>
        <time>2022-03-04T18:22:25Z</time>
      </trkpt>
      <trkpt lat="46.60936" lon="5.59633">
        <ele>553.4</ele>
        <time>2022-03-04T18:22:26Z</time>
      </trkpt>
      <trkpt lat="46.60936" lon="5.59628">
        <ele>553.4</ele>
        <time>2022-03-04T18:22:27Z</time>
      </trkpt>
      <trkpt lat="46.60936" lon="5.59623">
        <ele>553.8</ele>
        <time>2022-03-04T18:22:28Z</time>
      </trkpt>
      <trkpt lat="46.60936" lon="5.59618">
        <ele>553.8</ele>
        <time>2022-03-04T18:22:29Z</time>
      </trkpt>
      <trkpt lat="46.60936" lon="5.59613">
        <ele>553.8</ele>
        <time>2022-03-04T18:22:30Z</time>
      </trkpt>
      <trkpt lat="46.60936" lon="5.59608">
        <ele>553.8</ele>
        <time>2022-03-04T18:22:31Z</time>
      </trkpt>
      <trkpt lat="46.60936" lon="5.59603">
        <ele>553.8</ele>
        <time>2022-03-04T18:22:32Z</time>
      </trkpt>
      <trkpt lat="46.60936" lon="5.59599">
        <ele>554</ele>
        <time>2022-03-04T18:22:33Z</time>
      </trkpt>
      <trkpt lat="46.60936" lon="5.59594">
        <ele>554</ele>
        <time>2022-03-04T18:22:34Z</time>
      </trkpt>
      <trkpt lat="46.60936" lon="5.59589">
        <ele>554</ele>
        <time>2022-03-04T18:22:35Z</time>
      </trkpt>
      <trkpt lat="46.60937" lon="5.59584">
        <ele>554</ele>
        <time>2022-03-04T18:22:36Z</time>
      </trkpt>
      <trkpt lat="46.60937" lon="5.59579">
        <ele>554</ele>
        <time>2022-03-04T18:22:37Z</time>
      </trkpt>
      <trkpt lat="46.60938" lon="5.59574">
        <ele>554.2</ele>
        <time>2022-03-04T18:22:38Z</time>
      </trkpt>
      <trkpt lat="46.60938" lon="5.5957">
        <ele>554.2</ele>
        <time>2022-03-04T18:22:39Z</time>
      </trkpt>
      <trkpt lat="46.60939" lon="5.59566">
        <ele>554.2</ele>
        <time>2022-03-04T18:22:40Z</time>
      </trkpt>
      <trkpt lat="46.6094" lon="5.59561">
        <ele>554.6</ele>
        <time>2022-03-04T18:22:41Z</time>
      </trkpt>
      <trkpt lat="46.60941" lon="5.59557">
        <ele>554.6</ele>
        <time>2022-03-04T18:22:42Z</time>
      </trkpt>
      <trkpt lat="46.60941" lon="5.59552">
        <ele>555</ele>
        <time>2022-03-04T18:22:43Z</time>
      </trkpt>
      <trkpt lat="46.60942" lon="5.59548">
        <ele>555</ele>
        <time>2022-03-04T18:22:44Z</time>
      </trkpt>
      <trkpt lat="46.60943" lon="5.59544">
        <ele>555</ele>
        <time>2022-03-04T18:22:45Z</time>
      </trkpt>
      <trkpt lat="46.60944" lon="5.5954">
        <ele>555.2</ele>
        <time>2022-03-04T18:22:46Z</time>
      </trkpt>
      <trkpt lat="46.60945" lon="5.59535">
        <ele>555.2</ele>
        <time>2022-03-04T18:22:47Z</time>
      </trkpt>
      <trkpt lat="46.60946" lon="5.59531">
        <ele>555.6</ele>
        <time>2022-03-04T18:22:48Z</time>
      </trkpt>
      <trkpt lat="46.60947" lon="5.59527">
        <ele>555.6</ele>
        <time>2022-03-04T18:22:49Z</time>
      </trkpt>
      <trkpt lat="46.60948" lon="5.59522">
        <ele>555.8</ele>
        <time>2022-03-04T18:22:50Z</time>
      </trkpt>
      <trkpt lat="46.60949" lon="5.59518">
        <ele>555.8</ele>
        <time>2022-03-04T18:22:51Z</time>
      </trkpt>
      <trkpt lat="46.6095" lon="5.59514">
        <ele>556.2</ele>
        <time>2022-03-04T18:22:52Z</time>
      </trkpt>
      <trkpt lat="46.60951" lon="5.5951">
        <ele>556.2</ele>
        <time>2022-03-04T18:22:53Z</time>
      </trkpt>
      <trkpt lat="46.60952" lon="5.59506">
        <ele>556.4</ele>
        <time>2022-03-04T18:22:54Z</time>
      </trkpt>
      <trkpt lat="46.60953" lon="5.59502">
        <ele>556.4</ele>
        <time>2022-03-04T18:22:55Z</time>
      </trkpt>
      <trkpt lat="46.60954" lon="5.59498">
        <ele>556.6</ele>
        <time>2022-03-04T18:22:56Z</time>
      </trkpt>
      <trkpt lat="46.60955" lon="5.59494">
        <ele>556.6</ele>
        <time>2022-03-04T18:22:57Z</time>
      </trkpt>
      <trkpt lat="46.60957" lon="5.5949">
        <ele>556.8</ele>
        <time>2022-03-04T18:22:58Z</time>
      </trkpt>
      <trkpt lat="46.60957" lon="5.59487">
        <ele>556.8</ele>
        <time>2022-03-04T18:22:59Z</time>
      </trkpt>
      <trkpt lat="46.60958" lon="5.59484">
        <ele>557.2</ele>
        <time>2022-03-04T18:23:00Z</time>
      </trkpt>
      <trkpt lat="46.60959" lon="5.59481">
        <ele>557.2</ele>
        <time>2022-03-04T18:23:01Z</time>
      </trkpt>
      <trkpt lat="46.60961" lon="5.59478">
        <ele>557.2</ele>
        <time>2022-03-04T18:23:02Z</time>
      </trkpt>
      <trkpt lat="46.60962" lon="5.59475">
        <ele>557.2</ele>
        <time>2022-03-04T18:23:03Z</time>
      </trkpt>
      <trkpt lat="46.60963" lon="5.59471">
        <ele>557.4</ele>
        <time>2022-03-04T18:23:04Z</time>
      </trkpt>
      <trkpt lat="46.60964" lon="5.59468">
        <ele>557.4</ele>
        <time>2022-03-04T18:23:05Z</time>
      </trkpt>
      <trkpt lat="46.60966" lon="5.59465">
        <ele>557.4</ele>
        <time>2022-03-04T18:23:06Z</time>
      </trkpt>
      <trkpt lat="46.60969" lon="5.5946">
        <ele>557.4</ele>
        <time>2022-03-04T18:23:07Z</time>
      </trkpt>
      <trkpt lat="46.60971" lon="5.59457">
        <ele>557.4</ele>
        <time>2022-03-04T18:23:08Z</time>
      </trkpt>
      <trkpt lat="46.60972" lon="5.59454">
        <ele>557.4</ele>
        <time>2022-03-04T18:23:09Z</time>
      </trkpt>
      <trkpt lat="46.60974" lon="5.59451">
        <ele>557.4</ele>
        <time>2022-03-04T18:23:10Z</time>
      </trkpt>
      <trkpt lat="46.60975" lon="5.59448">
        <ele>557.8</ele>
        <time>2022-03-04T18:23:11Z</time>
      </trkpt>
      <trkpt lat="46.60976" lon="5.59445">
        <ele>557.8</ele>
        <time>2022-03-04T18:23:12Z</time>
      </trkpt>
      <trkpt lat="46.60978" lon="5.59442">
        <ele>558</ele>
        <time>2022-03-04T18:23:13Z</time>
      </trkpt>
      <trkpt lat="46.60979" lon="5.59439">
        <ele>558</ele>
        <time>2022-03-04T18:23:14Z</time>
      </trkpt>
      <trkpt lat="46.60981" lon="5.59436">
        <ele>558.2</ele>
        <time>2022-03-04T18:23:15Z</time>
      </trkpt>
      <trkpt lat="46.60982" lon="5.59433">
        <ele>558.2</ele>
        <time>2022-03-04T18:23:16Z</time>
      </trkpt>
      <trkpt lat="46.60983" lon="5.59431">
        <ele>558.6</ele>
        <time>2022-03-04T18:23:17Z</time>
      </trkpt>
      <trkpt lat="46.60985" lon="5.59428">
        <ele>558.6</ele>
        <time>2022-03-04T18:23:18Z</time>
      </trkpt>
      <trkpt lat="46.60987" lon="5.59425">
        <ele>558.6</ele>
        <time>2022-03-04T18:23:19Z</time>
      </trkpt>
      <trkpt lat="46.60989" lon="5.59422">
        <ele>558.8</ele>
        <time>2022-03-04T18:23:20Z</time>
      </trkpt>
      <trkpt lat="46.60991" lon="5.59419">
        <ele>558.8</ele>
        <time>2022-03-04T18:23:21Z</time>
      </trkpt>
      <trkpt lat="46.60992" lon="5.59416">
        <ele>558.8</ele>
        <time>2022-03-04T18:23:22Z</time>
      </trkpt>
      <trkpt lat="46.60994" lon="5.59413">
        <ele>559</ele>
        <time>2022-03-04T18:23:23Z</time>
      </trkpt>
      <trkpt lat="46.60996" lon="5.5941">
        <ele>559</ele>
        <time>2022-03-04T18:23:24Z</time>
      </trkpt>
      <trkpt lat="46.60998" lon="5.59407">
        <ele>559</ele>
        <time>2022-03-04T18:23:25Z</time>
      </trkpt>
      <trkpt lat="46.61" lon="5.59405">
        <ele>559</ele>
        <time>2022-03-04T18:23:26Z</time>
      </trkpt>
      <trkpt lat="46.61002" lon="5.59402">
        <ele>559</ele>
        <time>2022-03-04T18:23:27Z</time>
      </trkpt>
      <trkpt lat="46.61003" lon="5.594">
        <ele>559.4</ele>
        <time>2022-03-04T18:23:28Z</time>
      </trkpt>
      <trkpt lat="46.61005" lon="5.59398">
        <ele>559.4</ele>
        <time>2022-03-04T18:23:29Z</time>
      </trkpt>
      <trkpt lat="46.61007" lon="5.59396">
        <ele>559.4</ele>
        <time>2022-03-04T18:23:30Z</time>
      </trkpt>
      <trkpt lat="46.61009" lon="5.59394">
        <ele>559.8</ele>
        <time>2022-03-04T18:23:31Z</time>
      </trkpt>
      <trkpt lat="46.61011" lon="5.59393">
        <ele>559.8</ele>
        <time>2022-03-04T18:23:32Z</time>
      </trkpt>
      <trkpt lat="46.61014" lon="5.59391">
        <ele>559.8</ele>
        <time>2022-03-04T18:23:33Z</time>
      </trkpt>
      <trkpt lat="46.61016" lon="5.5939">
        <ele>560</ele>
        <time>2022-03-04T18:23:34Z</time>
      </trkpt>
      <trkpt lat="46.61018" lon="5.59388">
        <ele>560</ele>
        <time>2022-03-04T18:23:35Z</time>
      </trkpt>
      <trkpt lat="46.61021" lon="5.59387">
        <ele>560.2</ele>
        <time>2022-03-04T18:23:36Z</time>
      </trkpt>
      <trkpt lat="46.61023" lon="5.59385">
        <ele>560.2</ele>
        <time>2022-03-04T18:23:37Z</time>
      </trkpt>
      <trkpt lat="46.61025" lon="5.59384">
        <ele>560.4</ele>
        <time>2022-03-04T18:23:38Z</time>
      </trkpt>
      <trkpt lat="46.61027" lon="5.59382">
        <ele>560.6</ele>
        <time>2022-03-04T18:23:39Z</time>
      </trkpt>
      <trkpt lat="46.61029" lon="5.59381">
        <ele>560.6</ele>
        <time>2022-03-04T18:23:40Z</time>
      </trkpt>
      <trkpt lat="46.61032" lon="5.5938">
        <ele>561</ele>
        <time>2022-03-04T18:23:41Z</time>
      </trkpt>
      <trkpt lat="46.61034" lon="5.59379">
        <ele>561</ele>
        <time>2022-03-04T18:23:42Z</time>
      </trkpt>
      <trkpt lat="46.61036" lon="5.59378">
        <ele>561.4</ele>
        <time>2022-03-04T18:23:43Z</time>
      </trkpt>
      <trkpt lat="46.61039" lon="5.59377">
        <ele>561.6</ele>
        <time>2022-03-04T18:23:44Z</time>
      </trkpt>
      <trkpt lat="46.61041" lon="5.59376">
        <ele>561.6</ele>
        <time>2022-03-04T18:23:45Z</time>
      </trkpt>
      <trkpt lat="46.61043" lon="5.59374">
        <ele>561.8</ele>
        <time>2022-03-04T18:23:46Z</time>
      </trkpt>
      <trkpt lat="46.61045" lon="5.59373">
        <ele>562</ele>
        <time>2022-03-04T18:23:47Z</time>
      </trkpt>
      <trkpt lat="46.61047" lon="5.59372">
        <ele>562.2</ele>
        <time>2022-03-04T18:23:48Z</time>
      </trkpt>
      <trkpt lat="46.6105" lon="5.59371">
        <ele>562.2</ele>
        <time>2022-03-04T18:23:49Z</time>
      </trkpt>
      <trkpt lat="46.61052" lon="5.59371">
        <ele>562.6</ele>
        <time>2022-03-04T18:23:50Z</time>
      </trkpt>
      <trkpt lat="46.61054" lon="5.5937">
        <ele>562.6</ele>
        <time>2022-03-04T18:23:51Z</time>
      </trkpt>
      <trkpt lat="46.61057" lon="5.59369">
        <ele>562.8</ele>
        <time>2022-03-04T18:23:52Z</time>
      </trkpt>
      <trkpt lat="46.6106" lon="5.59368">
        <ele>562.8</ele>
        <time>2022-03-04T18:23:53Z</time>
      </trkpt>
      <trkpt lat="46.61062" lon="5.59368">
        <ele>563</ele>
        <time>2022-03-04T18:23:54Z</time>
      </trkpt>
      <trkpt lat="46.61064" lon="5.59367">
        <ele>563</ele>
        <time>2022-03-04T18:23:55Z</time>
      </trkpt>
      <trkpt lat="46.61067" lon="5.59366">
        <ele>563</ele>
        <time>2022-03-04T18:23:56Z</time>
      </trkpt>
      <trkpt lat="46.61069" lon="5.59365">
        <ele>563.4</ele>
        <time>2022-03-04T18:23:57Z</time>
      </trkpt>
      <trkpt lat="46.61071" lon="5.59364">
        <ele>563.6</ele>
        <time>2022-03-04T18:23:58Z</time>
      </trkpt>
      <trkpt lat="46.61073" lon="5.59363">
        <ele>563.6</ele>
        <time>2022-03-04T18:23:59Z</time>
      </trkpt>
      <trkpt lat="46.61075" lon="5.59361">
        <ele>564</ele>
        <time>2022-03-04T18:24:00Z</time>
      </trkpt>
      <trkpt lat="46.61078" lon="5.59361">
        <ele>564.2</ele>
        <time>2022-03-04T18:24:01Z</time>
      </trkpt>
      <trkpt lat="46.6108" lon="5.5936">
        <ele>564.2</ele>
        <time>2022-03-04T18:24:02Z</time>
      </trkpt>
      <trkpt lat="46.61082" lon="5.59359">
        <ele>564.4</ele>
        <time>2022-03-04T18:24:03Z</time>
      </trkpt>
      <trkpt lat="46.61084" lon="5.59358">
        <ele>564.4</ele>
        <time>2022-03-04T18:24:04Z</time>
      </trkpt>
      <trkpt lat="46.61087" lon="5.59357">
        <ele>564.8</ele>
        <time>2022-03-04T18:24:05Z</time>
      </trkpt>
      <trkpt lat="46.61089" lon="5.59355">
        <ele>564.8</ele>
        <time>2022-03-04T18:24:06Z</time>
      </trkpt>
      <trkpt lat="46.61091" lon="5.59353">
        <ele>565</ele>
        <time>2022-03-04T18:24:07Z</time>
      </trkpt>
      <trkpt lat="46.61093" lon="5.59351">
        <ele>565</ele>
        <time>2022-03-04T18:24:08Z</time>
      </trkpt>
      <trkpt lat="46.61094" lon="5.59349">
        <ele>565.4</ele>
        <time>2022-03-04T18:24:09Z</time>
      </trkpt>
      <trkpt lat="46.61096" lon="5.59347">
        <ele>565.4</ele>
        <time>2022-03-04T18:24:10Z</time>
      </trkpt>
      <trkpt lat="46.61098" lon="5.59346">
        <ele>565.6</ele>
        <time>2022-03-04T18:24:11Z</time>
      </trkpt>
      <trkpt lat="46.611" lon="5.59344">
        <ele>565.6</ele>
        <time>2022-03-04T18:24:12Z</time>
      </trkpt>
      <trkpt lat="46.61102" lon="5.59342">
        <ele>565.8</ele>
        <time>2022-03-04T18:24:13Z</time>
      </trkpt>
      <trkpt lat="46.61104" lon="5.5934">
        <ele>565.8</ele>
        <time>2022-03-04T18:24:14Z</time>
      </trkpt>
      <trkpt lat="46.61105" lon="5.59338">
        <ele>565.8</ele>
        <time>2022-03-04T18:24:15Z</time>
      </trkpt>
      <trkpt lat="46.61107" lon="5.59336">
        <ele>566</ele>
        <time>2022-03-04T18:24:16Z</time>
      </trkpt>
      <trkpt lat="46.61109" lon="5.59334">
        <ele>566</ele>
        <time>2022-03-04T18:24:17Z</time>
      </trkpt>
      <trkpt lat="46.61111" lon="5.59332">
        <ele>566.4</ele>
        <time>2022-03-04T18:24:18Z</time>
      </trkpt>
      <trkpt lat="46.61113" lon="5.5933">
        <ele>566.4</ele>
        <time>2022-03-04T18:24:19Z</time>
      </trkpt>
      <trkpt lat="46.61115" lon="5.59328">
        <ele>566.6</ele>
        <time>2022-03-04T18:24:20Z</time>
      </trkpt>
      <trkpt lat="46.61118" lon="5.59326">
        <ele>566.6</ele>
        <time>2022-03-04T18:24:21Z</time>
      </trkpt>
      <trkpt lat="46.6112" lon="5.59325">
        <ele>566.6</ele>
        <time>2022-03-04T18:24:22Z</time>
      </trkpt>
      <trkpt lat="46.61122" lon="5.59323">
        <ele>566.8</ele>
        <time>2022-03-04T18:24:23Z</time>
      </trkpt>
      <trkpt lat="46.61124" lon="5.59321">
        <ele>567</ele>
        <time>2022-03-04T18:24:24Z</time>
      </trkpt>
      <trkpt lat="46.61126" lon="5.5932">
        <ele>567</ele>
        <time>2022-03-04T18:24:25Z</time>
      </trkpt>
      <trkpt lat="46.61128" lon="5.59318">
        <ele>567.4</ele>
        <time>2022-03-04T18:24:26Z</time>
      </trkpt>
      <trkpt lat="46.61131" lon="5.59316">
        <ele>567.4</ele>
        <time>2022-03-04T18:24:27Z</time>
      </trkpt>
      <trkpt lat="46.61133" lon="5.59315">
        <ele>567.6</ele>
        <time>2022-03-04T18:24:28Z</time>
      </trkpt>
      <trkpt lat="46.61135" lon="5.59314">
        <ele>567.6</ele>
        <time>2022-03-04T18:24:29Z</time>
      </trkpt>
      <trkpt lat="46.61137" lon="5.59313">
        <ele>567.8</ele>
        <time>2022-03-04T18:24:30Z</time>
      </trkpt>
      <trkpt lat="46.6114" lon="5.59312">
        <ele>567.8</ele>
        <time>2022-03-04T18:24:31Z</time>
      </trkpt>
      <trkpt lat="46.61142" lon="5.59311">
        <ele>568</ele>
        <time>2022-03-04T18:24:32Z</time>
      </trkpt>
      <trkpt lat="46.61145" lon="5.59309">
        <ele>568</ele>
        <time>2022-03-04T18:24:33Z</time>
      </trkpt>
      <trkpt lat="46.61147" lon="5.59308">
        <ele>568.2</ele>
        <time>2022-03-04T18:24:34Z</time>
      </trkpt>
      <trkpt lat="46.61149" lon="5.59307">
        <ele>568.2</ele>
        <time>2022-03-04T18:24:35Z</time>
      </trkpt>
      <trkpt lat="46.61152" lon="5.59306">
        <ele>568.6</ele>
        <time>2022-03-04T18:24:36Z</time>
      </trkpt>
      <trkpt lat="46.61154" lon="5.59305">
        <ele>568.6</ele>
        <time>2022-03-04T18:24:37Z</time>
      </trkpt>
      <trkpt lat="46.61157" lon="5.59304">
        <ele>569</ele>
        <time>2022-03-04T18:24:38Z</time>
      </trkpt>
      <trkpt lat="46.61159" lon="5.59303">
        <ele>569</ele>
        <time>2022-03-04T18:24:39Z</time>
      </trkpt>
      <trkpt lat="46.61162" lon="5.59302">
        <ele>569.2</ele>
        <time>2022-03-04T18:24:40Z</time>
      </trkpt>
      <trkpt lat="46.61164" lon="5.59301">
        <ele>569.2</ele>
        <time>2022-03-04T18:24:41Z</time>
      </trkpt>
      <trkpt lat="46.61167" lon="5.593">
        <ele>569.4</ele>
        <time>2022-03-04T18:24:42Z</time>
      </trkpt>
      <trkpt lat="46.61169" lon="5.59299">
        <ele>569.4</ele>
        <time>2022-03-04T18:24:43Z</time>
      </trkpt>
      <trkpt lat="46.61171" lon="5.59298">
        <ele>569.6</ele>
        <time>2022-03-04T18:24:44Z</time>
      </trkpt>
      <trkpt lat="46.61174" lon="5.59297">
        <ele>569.6</ele>
        <time>2022-03-04T18:24:45Z</time>
      </trkpt>
      <trkpt lat="46.61176" lon="5.59296">
        <ele>570</ele>
        <time>2022-03-04T18:24:46Z</time>
      </trkpt>
      <trkpt lat="46.61178" lon="5.59295">
        <ele>570</ele>
        <time>2022-03-04T18:24:47Z</time>
      </trkpt>
      <trkpt lat="46.6118" lon="5.59293">
        <ele>570.2</ele>
        <time>2022-03-04T18:24:48Z</time>
      </trkpt>
      <trkpt lat="46.61182" lon="5.59292">
        <ele>570.2</ele>
        <time>2022-03-04T18:24:49Z</time>
      </trkpt>
      <trkpt lat="46.61184" lon="5.59291">
        <ele>570.6</ele>
        <time>2022-03-04T18:24:50Z</time>
      </trkpt>
      <trkpt lat="46.61184" lon="5.59291">
        <ele>570.6</ele>
        <time>2022-03-04T18:24:51Z</time>
      </trkpt>
      <trkpt lat="46.61186" lon="5.5929">
        <ele>571</ele>
        <time>2022-03-04T18:24:52Z</time>
      </trkpt>
      <trkpt lat="46.61188" lon="5.59289">
        <ele>571</ele>
        <time>2022-03-04T18:24:53Z</time>
      </trkpt>
      <trkpt lat="46.6119" lon="5.59288">
        <ele>571.2</ele>
        <time>2022-03-04T18:24:54Z</time>
      </trkpt>
      <trkpt lat="46.61192" lon="5.59287">
        <ele>571.2</ele>
        <time>2022-03-04T18:24:55Z</time>
      </trkpt>
      <trkpt lat="46.61194" lon="5.59286">
        <ele>571.6</ele>
        <time>2022-03-04T18:24:56Z</time>
      </trkpt>
      <trkpt lat="46.61197" lon="5.59286">
        <ele>571.6</ele>
        <time>2022-03-04T18:24:57Z</time>
      </trkpt>
      <trkpt lat="46.61199" lon="5.59285">
        <ele>572</ele>
        <time>2022-03-04T18:24:58Z</time>
      </trkpt>
      <trkpt lat="46.612" lon="5.59283">
        <ele>572.2</ele>
        <time>2022-03-04T18:24:59Z</time>
      </trkpt>
      <trkpt lat="46.61202" lon="5.59282">
        <ele>572.2</ele>
        <time>2022-03-04T18:25:00Z</time>
      </trkpt>
      <trkpt lat="46.61204" lon="5.59281">
        <ele>572.4</ele>
        <time>2022-03-04T18:25:01Z</time>
      </trkpt>
      <trkpt lat="46.61206" lon="5.5928">
        <ele>572.4</ele>
        <time>2022-03-04T18:25:02Z</time>
      </trkpt>
      <trkpt lat="46.61208" lon="5.59279">
        <ele>572.6</ele>
        <time>2022-03-04T18:25:03Z</time>
      </trkpt>
      <trkpt lat="46.6121" lon="5.59278">
        <ele>572.6</ele>
        <time>2022-03-04T18:25:04Z</time>
      </trkpt>
      <trkpt lat="46.61213" lon="5.59277">
        <ele>573</ele>
        <time>2022-03-04T18:25:05Z</time>
      </trkpt>
      <trkpt lat="46.61215" lon="5.59276">
        <ele>573</ele>
        <time>2022-03-04T18:25:06Z</time>
      </trkpt>
      <trkpt lat="46.61217" lon="5.59275">
        <ele>573.2</ele>
        <time>2022-03-04T18:25:07Z</time>
      </trkpt>
      <trkpt lat="46.61219" lon="5.59274">
        <ele>573.2</ele>
        <time>2022-03-04T18:25:08Z</time>
      </trkpt>
      <trkpt lat="46.61222" lon="5.59273">
        <ele>573.6</ele>
        <time>2022-03-04T18:25:09Z</time>
      </trkpt>
      <trkpt lat="46.61224" lon="5.59271">
        <ele>573.6</ele>
        <time>2022-03-04T18:25:10Z</time>
      </trkpt>
      <trkpt lat="46.61226" lon="5.5927">
        <ele>573.8</ele>
        <time>2022-03-04T18:25:11Z</time>
      </trkpt>
      <trkpt lat="46.61229" lon="5.59269">
        <ele>573.8</ele>
        <time>2022-03-04T18:25:12Z</time>
      </trkpt>
      <trkpt lat="46.61231" lon="5.59268">
        <ele>574</ele>
        <time>2022-03-04T18:25:13Z</time>
      </trkpt>
      <trkpt lat="46.61233" lon="5.59267">
        <ele>574</ele>
        <time>2022-03-04T18:25:14Z</time>
      </trkpt>
      <trkpt lat="46.61235" lon="5.59266">
        <ele>574</ele>
        <time>2022-03-04T18:25:15Z</time>
      </trkpt>
      <trkpt lat="46.61236" lon="5.59264">
        <ele>574.4</ele>
        <time>2022-03-04T18:25:16Z</time>
      </trkpt>
      <trkpt lat="46.61238" lon="5.59263">
        <ele>574.4</ele>
        <time>2022-03-04T18:25:17Z</time>
      </trkpt>
      <trkpt lat="46.6124" lon="5.59262">
        <ele>574.4</ele>
        <time>2022-03-04T18:25:18Z</time>
      </trkpt>
      <trkpt lat="46.61242" lon="5.5926">
        <ele>574.6</ele>
        <time>2022-03-04T18:25:19Z</time>
      </trkpt>
      <trkpt lat="46.61244" lon="5.59259">
        <ele>574.6</ele>
        <time>2022-03-04T18:25:20Z</time>
      </trkpt>
      <trkpt lat="46.61246" lon="5.59258">
        <ele>574.6</ele>
        <time>2022-03-04T18:25:21Z</time>
      </trkpt>
      <trkpt lat="46.61248" lon="5.59256">
        <ele>574.8</ele>
        <time>2022-03-04T18:25:22Z</time>
      </trkpt>
      <trkpt lat="46.6125" lon="5.59255">
        <ele>575</ele>
        <time>2022-03-04T18:25:23Z</time>
      </trkpt>
      <trkpt lat="46.61252" lon="5.59253">
        <ele>575</ele>
        <time>2022-03-04T18:25:24Z</time>
      </trkpt>
      <trkpt lat="46.61254" lon="5.59252">
        <ele>575.4</ele>
        <time>2022-03-04T18:25:25Z</time>
      </trkpt>
      <trkpt lat="46.61256" lon="5.5925">
        <ele>575.4</ele>
        <time>2022-03-04T18:25:26Z</time>
      </trkpt>
      <trkpt lat="46.61258" lon="5.59249">
        <ele>575.6</ele>
        <time>2022-03-04T18:25:27Z</time>
      </trkpt>
      <trkpt lat="46.6126" lon="5.59248">
        <ele>575.6</ele>
        <time>2022-03-04T18:25:28Z</time>
      </trkpt>
      <trkpt lat="46.61262" lon="5.59246">
        <ele>576</ele>
        <time>2022-03-04T18:25:29Z</time>
      </trkpt>
      <trkpt lat="46.61264" lon="5.59245">
        <ele>576</ele>
        <time>2022-03-04T18:25:30Z</time>
      </trkpt>
      <trkpt lat="46.61266" lon="5.59243">
        <ele>576</ele>
        <time>2022-03-04T18:25:31Z</time>
      </trkpt>
      <trkpt lat="46.61268" lon="5.59242">
        <ele>576.2</ele>
        <time>2022-03-04T18:25:32Z</time>
      </trkpt>
      <trkpt lat="46.6127" lon="5.5924">
        <ele>576.2</ele>
        <time>2022-03-04T18:25:33Z</time>
      </trkpt>
      <trkpt lat="46.61272" lon="5.59239">
        <ele>576.4</ele>
        <time>2022-03-04T18:25:34Z</time>
      </trkpt>
      <trkpt lat="46.61274" lon="5.59238">
        <ele>576.4</ele>
        <time>2022-03-04T18:25:35Z</time>
      </trkpt>
      <trkpt lat="46.61276" lon="5.59236">
        <ele>576.6</ele>
        <time>2022-03-04T18:25:36Z</time>
      </trkpt>
      <trkpt lat="46.61277" lon="5.59234">
        <ele>576.6</ele>
        <time>2022-03-04T18:25:37Z</time>
      </trkpt>
      <trkpt lat="46.61279" lon="5.59233">
        <ele>576.8</ele>
        <time>2022-03-04T18:25:38Z</time>
      </trkpt>
      <trkpt lat="46.61281" lon="5.59232">
        <ele>576.8</ele>
        <time>2022-03-04T18:25:39Z</time>
      </trkpt>
      <trkpt lat="46.61283" lon="5.5923">
        <ele>577.2</ele>
        <time>2022-03-04T18:25:40Z</time>
      </trkpt>
      <trkpt lat="46.61285" lon="5.59228">
        <ele>577.2</ele>
        <time>2022-03-04T18:25:41Z</time>
      </trkpt>
      <trkpt lat="46.61287" lon="5.59227">
        <ele>577.2</ele>
        <time>2022-03-04T18:25:42Z</time>
      </trkpt>
      <trkpt lat="46.61289" lon="5.59225">
        <ele>577.6</ele>
        <time>2022-03-04T18:25:43Z</time>
      </trkpt>
      <trkpt lat="46.61291" lon="5.59223">
        <ele>577.6</ele>
        <time>2022-03-04T18:25:44Z</time>
      </trkpt>
      <trkpt lat="46.61293" lon="5.59221">
        <ele>577.8</ele>
        <time>2022-03-04T18:25:45Z</time>
      </trkpt>
      <trkpt lat="46.61295" lon="5.5922">
        <ele>577.8</ele>
        <time>2022-03-04T18:25:46Z</time>
      </trkpt>
      <trkpt lat="46.61297" lon="5.59218">
        <ele>578.2</ele>
        <time>2022-03-04T18:25:47Z</time>
      </trkpt>
      <trkpt lat="46.61299" lon="5.59216">
        <ele>578.4</ele>
        <time>2022-03-04T18:25:48Z</time>
      </trkpt>
      <trkpt lat="46.61301" lon="5.59214">
        <ele>578.4</ele>
        <time>2022-03-04T18:25:49Z</time>
      </trkpt>
      <trkpt lat="46.61303" lon="5.59212">
        <ele>578.8</ele>
        <time>2022-03-04T18:25:50Z</time>
      </trkpt>
      <trkpt lat="46.61304" lon="5.5921">
        <ele>578.8</ele>
        <time>2022-03-04T18:25:51Z</time>
      </trkpt>
      <trkpt lat="46.61306" lon="5.59208">
        <ele>579.2</ele>
        <time>2022-03-04T18:25:52Z</time>
      </trkpt>
      <trkpt lat="46.61308" lon="5.59206">
        <ele>579.2</ele>
        <time>2022-03-04T18:25:53Z</time>
      </trkpt>
      <trkpt lat="46.6131" lon="5.59204">
        <ele>579.4</ele>
        <time>2022-03-04T18:25:54Z</time>
      </trkpt>
      <trkpt lat="46.61312" lon="5.59202">
        <ele>579.4</ele>
        <time>2022-03-04T18:25:55Z</time>
      </trkpt>
      <trkpt lat="46.61314" lon="5.59201">
        <ele>579.8</ele>
        <time>2022-03-04T18:25:56Z</time>
      </trkpt>
      <trkpt lat="46.61316" lon="5.59199">
        <ele>579.8</ele>
        <time>2022-03-04T18:25:57Z</time>
      </trkpt>
      <trkpt lat="46.61318" lon="5.59197">
        <ele>580</ele>
        <time>2022-03-04T18:25:58Z</time>
      </trkpt>
      <trkpt lat="46.6132" lon="5.59195">
        <ele>580.2</ele>
        <time>2022-03-04T18:25:59Z</time>
      </trkpt>
      <trkpt lat="46.61322" lon="5.59193">
        <ele>580.4</ele>
        <time>2022-03-04T18:26:00Z</time>
      </trkpt>
      <trkpt lat="46.61324" lon="5.59191">
        <ele>580.4</ele>
        <time>2022-03-04T18:26:01Z</time>
      </trkpt>
      <trkpt lat="46.61326" lon="5.59189">
        <ele>580.8</ele>
        <time>2022-03-04T18:26:02Z</time>
      </trkpt>
      <trkpt lat="46.61328" lon="5.59187">
        <ele>580.8</ele>
        <time>2022-03-04T18:26:03Z</time>
      </trkpt>
      <trkpt lat="46.6133" lon="5.59185">
        <ele>581</ele>
        <time>2022-03-04T18:26:04Z</time>
      </trkpt>
      <trkpt lat="46.61332" lon="5.59183">
        <ele>581</ele>
        <time>2022-03-04T18:26:05Z</time>
      </trkpt>
      <trkpt lat="46.61334" lon="5.59181">
        <ele>581</ele>
        <time>2022-03-04T18:26:06Z</time>
      </trkpt>
      <trkpt lat="46.61335" lon="5.59178">
        <ele>581</ele>
        <time>2022-03-04T18:26:07Z</time>
      </trkpt>
      <trkpt lat="46.61338" lon="5.59176">
        <ele>581.4</ele>
        <time>2022-03-04T18:26:08Z</time>
      </trkpt>
      <trkpt lat="46.6134" lon="5.59175">
        <ele>581.4</ele>
        <time>2022-03-04T18:26:09Z</time>
      </trkpt>
      <trkpt lat="46.61342" lon="5.59173">
        <ele>581.6</ele>
        <time>2022-03-04T18:26:10Z</time>
      </trkpt>
      <trkpt lat="46.61344" lon="5.5917">
        <ele>581.6</ele>
        <time>2022-03-04T18:26:11Z</time>
      </trkpt>
      <trkpt lat="46.61346" lon="5.59168">
        <ele>581.6</ele>
        <time>2022-03-04T18:26:12Z</time>
      </trkpt>
      <trkpt lat="46.61348" lon="5.59166">
        <ele>582</ele>
        <time>2022-03-04T18:26:13Z</time>
      </trkpt>
      <trkpt lat="46.6135" lon="5.59164">
        <ele>582</ele>
        <time>2022-03-04T18:26:14Z</time>
      </trkpt>
      <trkpt lat="46.61351" lon="5.59162">
        <ele>582.2</ele>
        <time>2022-03-04T18:26:15Z</time>
      </trkpt>
      <trkpt lat="46.61353" lon="5.5916">
        <ele>582.2</ele>
        <time>2022-03-04T18:26:16Z</time>
      </trkpt>
      <trkpt lat="46.61354" lon="5.59157">
        <ele>582.2</ele>
        <time>2022-03-04T18:26:17Z</time>
      </trkpt>
      <trkpt lat="46.61356" lon="5.59155">
        <ele>582.4</ele>
        <time>2022-03-04T18:26:18Z</time>
      </trkpt>
      <trkpt lat="46.61357" lon="5.59152">
        <ele>582.4</ele>
        <time>2022-03-04T18:26:19Z</time>
      </trkpt>
      <trkpt lat="46.61358" lon="5.5915">
        <ele>582.8</ele>
        <time>2022-03-04T18:26:20Z</time>
      </trkpt>
      <trkpt lat="46.6136" lon="5.59148">
        <ele>582.8</ele>
        <time>2022-03-04T18:26:21Z</time>
      </trkpt>
      <trkpt lat="46.61362" lon="5.59146">
        <ele>583</ele>
        <time>2022-03-04T18:26:22Z</time>
      </trkpt>
      <trkpt lat="46.61364" lon="5.59144">
        <ele>583</ele>
        <time>2022-03-04T18:26:23Z</time>
      </trkpt>
      <trkpt lat="46.61366" lon="5.59142">
        <ele>583.2</ele>
        <time>2022-03-04T18:26:24Z</time>
      </trkpt>
      <trkpt lat="46.61368" lon="5.59141">
        <ele>583.6</ele>
        <time>2022-03-04T18:26:25Z</time>
      </trkpt>
      <trkpt lat="46.6137" lon="5.59139">
        <ele>583.6</ele>
        <time>2022-03-04T18:26:26Z</time>
      </trkpt>
      <trkpt lat="46.61372" lon="5.59137">
        <ele>583.8</ele>
        <time>2022-03-04T18:26:27Z</time>
      </trkpt>
      <trkpt lat="46.61374" lon="5.59135">
        <ele>583.8</ele>
        <time>2022-03-04T18:26:28Z</time>
      </trkpt>
      <trkpt lat="46.61376" lon="5.59132">
        <ele>584</ele>
        <time>2022-03-04T18:26:29Z</time>
      </trkpt>
      <trkpt lat="46.61377" lon="5.5913">
        <ele>584</ele>
        <time>2022-03-04T18:26:30Z</time>
      </trkpt>
      <trkpt lat="46.61379" lon="5.59128">
        <ele>584.2</ele>
        <time>2022-03-04T18:26:31Z</time>
      </trkpt>
      <trkpt lat="46.61381" lon="5.59126">
        <ele>584.2</ele>
        <time>2022-03-04T18:26:32Z</time>
      </trkpt>
      <trkpt lat="46.61383" lon="5.59123">
        <ele>584.6</ele>
        <time>2022-03-04T18:26:33Z</time>
      </trkpt>
      <trkpt lat="46.61385" lon="5.59121">
        <ele>584.6</ele>
        <time>2022-03-04T18:26:34Z</time>
      </trkpt>
      <trkpt lat="46.61386" lon="5.59119">
        <ele>584.8</ele>
        <time>2022-03-04T18:26:35Z</time>
      </trkpt>
      <trkpt lat="46.61388" lon="5.59116">
        <ele>584.8</ele>
        <time>2022-03-04T18:26:36Z</time>
      </trkpt>
      <trkpt lat="46.6139" lon="5.59114">
        <ele>585</ele>
        <time>2022-03-04T18:26:37Z</time>
      </trkpt>
      <trkpt lat="46.61391" lon="5.59112">
        <ele>585</ele>
        <time>2022-03-04T18:26:38Z</time>
      </trkpt>
      <trkpt lat="46.61393" lon="5.5911">
        <ele>585.4</ele>
        <time>2022-03-04T18:26:39Z</time>
      </trkpt>
      <trkpt lat="46.61395" lon="5.59108">
        <ele>585.4</ele>
        <time>2022-03-04T18:26:40Z</time>
      </trkpt>
      <trkpt lat="46.61397" lon="5.59107">
        <ele>585.4</ele>
        <time>2022-03-04T18:26:41Z</time>
      </trkpt>
      <trkpt lat="46.61399" lon="5.59105">
        <ele>585.6</ele>
        <time>2022-03-04T18:26:42Z</time>
      </trkpt>
      <trkpt lat="46.61401" lon="5.59103">
        <ele>585.6</ele>
        <time>2022-03-04T18:26:43Z</time>
      </trkpt>
      <trkpt lat="46.61403" lon="5.59101">
        <ele>586</ele>
        <time>2022-03-04T18:26:44Z</time>
      </trkpt>
      <trkpt lat="46.61405" lon="5.59099">
        <ele>586</ele>
        <time>2022-03-04T18:26:45Z</time>
      </trkpt>
      <trkpt lat="46.61407" lon="5.59097">
        <ele>586.2</ele>
        <time>2022-03-04T18:26:46Z</time>
      </trkpt>
      <trkpt lat="46.61409" lon="5.59095">
        <ele>586.2</ele>
        <time>2022-03-04T18:26:47Z</time>
      </trkpt>
      <trkpt lat="46.61411" lon="5.59093">
        <ele>586.4</ele>
        <time>2022-03-04T18:26:48Z</time>
      </trkpt>
      <trkpt lat="46.61413" lon="5.59092">
        <ele>586.4</ele>
        <time>2022-03-04T18:26:49Z</time>
      </trkpt>
      <trkpt lat="46.61415" lon="5.5909">
        <ele>586.4</ele>
        <time>2022-03-04T18:26:50Z</time>
      </trkpt>
      <trkpt lat="46.61417" lon="5.59089">
        <ele>586.8</ele>
        <time>2022-03-04T18:26:51Z</time>
      </trkpt>
      <trkpt lat="46.6142" lon="5.59088">
        <ele>586.8</ele>
        <time>2022-03-04T18:26:52Z</time>
      </trkpt>
      <trkpt lat="46.61422" lon="5.59087">
        <ele>586.8</ele>
        <time>2022-03-04T18:26:53Z</time>
      </trkpt>
      <trkpt lat="46.61424" lon="5.59086">
        <ele>587</ele>
        <time>2022-03-04T18:26:54Z</time>
      </trkpt>
      <trkpt lat="46.61427" lon="5.59085">
        <ele>587</ele>
        <time>2022-03-04T18:26:55Z</time>
      </trkpt>
      <trkpt lat="46.61429" lon="5.59085">
        <ele>587</ele>
        <time>2022-03-04T18:26:56Z</time>
      </trkpt>
      <trkpt lat="46.61431" lon="5.59084">
        <ele>587.2</ele>
        <time>2022-03-04T18:26:57Z</time>
      </trkpt>
      <trkpt lat="46.61433" lon="5.59082">
        <ele>587.2</ele>
        <time>2022-03-04T18:26:58Z</time>
      </trkpt>
      <trkpt lat="46.61435" lon="5.5908">
        <ele>587.2</ele>
        <time>2022-03-04T18:26:59Z</time>
      </trkpt>
      <trkpt lat="46.61437" lon="5.59079">
        <ele>587.6</ele>
        <time>2022-03-04T18:27:00Z</time>
      </trkpt>
      <trkpt lat="46.6144" lon="5.59077">
        <ele>587.6</ele>
        <time>2022-03-04T18:27:01Z</time>
      </trkpt>
      <trkpt lat="46.61442" lon="5.59076">
        <ele>587.8</ele>
        <time>2022-03-04T18:27:02Z</time>
      </trkpt>
      <trkpt lat="46.61445" lon="5.59075">
        <ele>587.8</ele>
        <time>2022-03-04T18:27:03Z</time>
      </trkpt>
      <trkpt lat="46.61447" lon="5.59075">
        <ele>588.2</ele>
        <time>2022-03-04T18:27:04Z</time>
      </trkpt>
      <trkpt lat="46.61449" lon="5.59074">
        <ele>588.2</ele>
        <time>2022-03-04T18:27:05Z</time>
      </trkpt>
      <trkpt lat="46.61452" lon="5.59073">
        <ele>588.4</ele>
        <time>2022-03-04T18:27:06Z</time>
      </trkpt>
      <trkpt lat="46.61454" lon="5.59073">
        <ele>588.4</ele>
        <time>2022-03-04T18:27:07Z</time>
      </trkpt>
      <trkpt lat="46.61457" lon="5.59072">
        <ele>588.8</ele>
        <time>2022-03-04T18:27:08Z</time>
      </trkpt>
      <trkpt lat="46.6146" lon="5.59071">
        <ele>588.8</ele>
        <time>2022-03-04T18:27:09Z</time>
      </trkpt>
      <trkpt lat="46.61462" lon="5.5907">
        <ele>589</ele>
        <time>2022-03-04T18:27:10Z</time>
      </trkpt>
      <trkpt lat="46.61465" lon="5.5907">
        <ele>589</ele>
        <time>2022-03-04T18:27:11Z</time>
      </trkpt>
      <trkpt lat="46.61467" lon="5.5907">
        <ele>589</ele>
        <time>2022-03-04T18:27:12Z</time>
      </trkpt>
      <trkpt lat="46.6147" lon="5.59069">
        <ele>589</ele>
        <time>2022-03-04T18:27:13Z</time>
      </trkpt>
      <trkpt lat="46.61472" lon="5.59069">
        <ele>589.4</ele>
        <time>2022-03-04T18:27:14Z</time>
      </trkpt>
      <trkpt lat="46.61475" lon="5.59069">
        <ele>589.4</ele>
        <time>2022-03-04T18:27:15Z</time>
      </trkpt>
      <trkpt lat="46.61478" lon="5.59068">
        <ele>589.6</ele>
        <time>2022-03-04T18:27:16Z</time>
      </trkpt>
      <trkpt lat="46.6148" lon="5.59067">
        <ele>589.6</ele>
        <time>2022-03-04T18:27:17Z</time>
      </trkpt>
      <trkpt lat="46.61483" lon="5.59065">
        <ele>589.6</ele>
        <time>2022-03-04T18:27:18Z</time>
      </trkpt>
      <trkpt lat="46.61485" lon="5.59063">
        <ele>589.8</ele>
        <time>2022-03-04T18:27:19Z</time>
      </trkpt>
      <trkpt lat="46.61487" lon="5.5906">
        <ele>590</ele>
        <time>2022-03-04T18:27:20Z</time>
      </trkpt>
      <trkpt lat="46.61489" lon="5.59058">
        <ele>590.4</ele>
        <time>2022-03-04T18:27:21Z</time>
      </trkpt>
      <trkpt lat="46.61491" lon="5.59056">
        <ele>590.4</ele>
        <time>2022-03-04T18:27:22Z</time>
      </trkpt>
      <trkpt lat="46.61493" lon="5.59053">
        <ele>590.6</ele>
        <time>2022-03-04T18:27:23Z</time>
      </trkpt>
      <trkpt lat="46.61495" lon="5.59052">
        <ele>590.6</ele>
        <time>2022-03-04T18:27:24Z</time>
      </trkpt>
      <trkpt lat="46.61496" lon="5.59049">
        <ele>590.8</ele>
        <time>2022-03-04T18:27:25Z</time>
      </trkpt>
      <trkpt lat="46.61498" lon="5.59047">
        <ele>590.8</ele>
        <time>2022-03-04T18:27:26Z</time>
      </trkpt>
      <trkpt lat="46.615" lon="5.59044">
        <ele>591.2</ele>
        <time>2022-03-04T18:27:27Z</time>
      </trkpt>
      <trkpt lat="46.61501" lon="5.59041">
        <ele>591.2</ele>
        <time>2022-03-04T18:27:28Z</time>
      </trkpt>
      <trkpt lat="46.61503" lon="5.59038">
        <ele>591.4</ele>
        <time>2022-03-04T18:27:29Z</time>
      </trkpt>
      <trkpt lat="46.61505" lon="5.59036">
        <ele>591.4</ele>
        <time>2022-03-04T18:27:30Z</time>
      </trkpt>
      <trkpt lat="46.61507" lon="5.59033">
        <ele>591.8</ele>
        <time>2022-03-04T18:27:31Z</time>
      </trkpt>
      <trkpt lat="46.61509" lon="5.59031">
        <ele>591.8</ele>
        <time>2022-03-04T18:27:32Z</time>
      </trkpt>
      <trkpt lat="46.6151" lon="5.59029">
        <ele>592</ele>
        <time>2022-03-04T18:27:33Z</time>
      </trkpt>
      <trkpt lat="46.61512" lon="5.59028">
        <ele>592</ele>
        <time>2022-03-04T18:27:34Z</time>
      </trkpt>
      <trkpt lat="46.61514" lon="5.59026">
        <ele>592</ele>
        <time>2022-03-04T18:27:35Z</time>
      </trkpt>
      <trkpt lat="46.61516" lon="5.59024">
        <ele>592</ele>
        <time>2022-03-04T18:27:36Z</time>
      </trkpt>
      <trkpt lat="46.61517" lon="5.59022">
        <ele>592</ele>
        <time>2022-03-04T18:27:37Z</time>
      </trkpt>
      <trkpt lat="46.61519" lon="5.59021">
        <ele>592</ele>
        <time>2022-03-04T18:27:38Z</time>
      </trkpt>
      <trkpt lat="46.6152" lon="5.59019">
        <ele>592</ele>
        <time>2022-03-04T18:27:39Z</time>
      </trkpt>
      <trkpt lat="46.6152" lon="5.59017">
        <ele>592</ele>
        <time>2022-03-04T18:27:40Z</time>
      </trkpt>
      <trkpt lat="46.61522" lon="5.59016">
        <ele>592</ele>
        <time>2022-03-04T18:27:41Z</time>
      </trkpt>
      <trkpt lat="46.61522" lon="5.59015">
        <ele>592</ele>
        <time>2022-03-04T18:27:42Z</time>
      </trkpt>
      <trkpt lat="46.61522" lon="5.59014">
        <ele>592</ele>
        <time>2022-03-04T18:27:43Z</time>
      </trkpt>
      <trkpt lat="46.61523" lon="5.59014">
        <ele>592</ele>
        <time>2022-03-04T18:27:44Z</time>
      </trkpt>
      <trkpt lat="46.61523" lon="5.59014">
        <ele>592</ele>
        <time>2022-03-04T18:27:45Z</time>
      </trkpt>
      <trkpt lat="46.61523" lon="5.59014">
        <ele>592</ele>
        <time>2022-03-04T18:27:46Z</time>
      </trkpt>
      <trkpt lat="46.61523" lon="5.59014">
        <ele>592</ele>
        <time>2022-03-04T18:27:47Z</time>
      </trkpt>
      <trkpt lat="46.61523" lon="5.59014">
        <ele>592</ele>
        <time>2022-03-04T18:27:48Z</time>
      </trkpt>
      <trkpt lat="46.61523" lon="5.59014">
        <ele>592</ele>
        <time>2022-03-04T18:27:49Z</time>
      </trkpt>
      <trkpt lat="46.61523" lon="5.59014">
        <ele>592</ele>
        <time>2022-03-04T18:27:50Z</time>
      </trkpt>
      <trkpt lat="46.61523" lon="5.59014">
        <ele>592</ele>
        <time>2022-03-04T18:27:55Z</time>
      </trkpt>
      <trkpt lat="46.61523" lon="5.59014">
        <ele>592</ele>
        <time>2022-03-04T18:27:56Z</time>
      </trkpt>
      <trkpt lat="46.61523" lon="5.59014">
        <ele>591.6</ele>
        <time>2022-03-04T18:29:09Z</time>
      </trkpt>
      <trkpt lat="46.61523" lon="5.59014">
        <ele>591.4</ele>
        <time>2022-03-04T18:29:10Z</time>
      </trkpt>
      <trkpt lat="46.61524" lon="5.59012">
        <ele>591.4</ele>
        <time>2022-03-04T18:29:11Z</time>
      </trkpt>
      <trkpt lat="46.61525" lon="5.5901">
        <ele>591.4</ele>
        <time>2022-03-04T18:29:12Z</time>
      </trkpt>
      <trkpt lat="46.61526" lon="5.59008">
        <ele>591.4</ele>
        <time>2022-03-04T18:29:13Z</time>
      </trkpt>
      <trkpt lat="46.61526" lon="5.59006">
        <ele>591.4</ele>
        <time>2022-03-04T18:29:14Z</time>
      </trkpt>
      <trkpt lat="46.61528" lon="5.59004">
        <ele>591.4</ele>
        <time>2022-03-04T18:29:15Z</time>
      </trkpt>
      <trkpt lat="46.61529" lon="5.59001">
        <ele>591.4</ele>
        <time>2022-03-04T18:29:16Z</time>
      </trkpt>
      <trkpt lat="46.6153" lon="5.58998">
        <ele>591.4</ele>
        <time>2022-03-04T18:29:17Z</time>
      </trkpt>
      <trkpt lat="46.61531" lon="5.58995">
        <ele>591.4</ele>
        <time>2022-03-04T18:29:18Z</time>
      </trkpt>
      <trkpt lat="46.61533" lon="5.58992">
        <ele>591.4</ele>
        <time>2022-03-04T18:29:19Z</time>
      </trkpt>
      <trkpt lat="46.61535" lon="5.58989">
        <ele>591.4</ele>
        <time>2022-03-04T18:29:20Z</time>
      </trkpt>
      <trkpt lat="46.61537" lon="5.58986">
        <ele>591.4</ele>
        <time>2022-03-04T18:29:21Z</time>
      </trkpt>
      <trkpt lat="46.61539" lon="5.58983">
        <ele>591.2</ele>
        <time>2022-03-04T18:29:22Z</time>
      </trkpt>
      <trkpt lat="46.61542" lon="5.58981">
        <ele>591.2</ele>
        <time>2022-03-04T18:29:23Z</time>
      </trkpt>
      <trkpt lat="46.61546" lon="5.5898">
        <ele>591.2</ele>
        <time>2022-03-04T18:29:24Z</time>
      </trkpt>
      <trkpt lat="46.6155" lon="5.58978">
        <ele>590.8</ele>
        <time>2022-03-04T18:29:25Z</time>
      </trkpt>
      <trkpt lat="46.61554" lon="5.58977">
        <ele>590.8</ele>
        <time>2022-03-04T18:29:26Z</time>
      </trkpt>
      <trkpt lat="46.61558" lon="5.58976">
        <ele>590.6</ele>
        <time>2022-03-04T18:29:27Z</time>
      </trkpt>
      <trkpt lat="46.61562" lon="5.58975">
        <ele>590.4</ele>
        <time>2022-03-04T18:29:28Z</time>
      </trkpt>
      <trkpt lat="46.61566" lon="5.58974">
        <ele>590.4</ele>
        <time>2022-03-04T18:29:29Z</time>
      </trkpt>
      <trkpt lat="46.6157" lon="5.58974">
        <ele>590</ele>
        <time>2022-03-04T18:29:30Z</time>
      </trkpt>
      <trkpt lat="46.61575" lon="5.58973">
        <ele>589.8</ele>
        <time>2022-03-04T18:29:31Z</time>
      </trkpt>
      <trkpt lat="46.61579" lon="5.58972">
        <ele>589.4</ele>
        <time>2022-03-04T18:29:32Z</time>
      </trkpt>
      <trkpt lat="46.61584" lon="5.58972">
        <ele>589.2</ele>
        <time>2022-03-04T18:29:33Z</time>
      </trkpt>
      <trkpt lat="46.61589" lon="5.58972">
        <ele>588.8</ele>
        <time>2022-03-04T18:29:34Z</time>
      </trkpt>
      <trkpt lat="46.61593" lon="5.58973">
        <ele>588.6</ele>
        <time>2022-03-04T18:29:35Z</time>
      </trkpt>
      <trkpt lat="46.61597" lon="5.58976">
        <ele>588.2</ele>
        <time>2022-03-04T18:29:36Z</time>
      </trkpt>
      <trkpt lat="46.61601" lon="5.58981">
        <ele>588</ele>
        <time>2022-03-04T18:29:37Z</time>
      </trkpt>
      <trkpt lat="46.61604" lon="5.58986">
        <ele>587.6</ele>
        <time>2022-03-04T18:29:38Z</time>
      </trkpt>
      <trkpt lat="46.61607" lon="5.58992">
        <ele>587.4</ele>
        <time>2022-03-04T18:29:39Z</time>
      </trkpt>
      <trkpt lat="46.6161" lon="5.58998">
        <ele>587.4</ele>
        <time>2022-03-04T18:29:40Z</time>
      </trkpt>
      <trkpt lat="46.61612" lon="5.59005">
        <ele>587</ele>
        <time>2022-03-04T18:29:41Z</time>
      </trkpt>
      <trkpt lat="46.61614" lon="5.59011">
        <ele>587</ele>
        <time>2022-03-04T18:29:42Z</time>
      </trkpt>
      <trkpt lat="46.61616" lon="5.59016">
        <ele>586.6</ele>
        <time>2022-03-04T18:29:43Z</time>
      </trkpt>
      <trkpt lat="46.61618" lon="5.59021">
        <ele>586.4</ele>
        <time>2022-03-04T18:29:44Z</time>
      </trkpt>
      <trkpt lat="46.61621" lon="5.59025">
        <ele>586.4</ele>
        <time>2022-03-04T18:29:45Z</time>
      </trkpt>
      <trkpt lat="46.61624" lon="5.5903">
        <ele>586</ele>
        <time>2022-03-04T18:29:46Z</time>
      </trkpt>
      <trkpt lat="46.61628" lon="5.59033">
        <ele>585.8</ele>
        <time>2022-03-04T18:29:47Z</time>
      </trkpt>
      <trkpt lat="46.61632" lon="5.59034">
        <ele>585.4</ele>
        <time>2022-03-04T18:29:48Z</time>
      </trkpt>
      <trkpt lat="46.61635" lon="5.59034">
        <ele>585.2</ele>
        <time>2022-03-04T18:29:49Z</time>
      </trkpt>
      <trkpt lat="46.61638" lon="5.59033">
        <ele>584.8</ele>
        <time>2022-03-04T18:29:50Z</time>
      </trkpt>
      <trkpt lat="46.61641" lon="5.5903">
        <ele>584.4</ele>
        <time>2022-03-04T18:29:51Z</time>
      </trkpt>
      <trkpt lat="46.61643" lon="5.59024">
        <ele>584</ele>
        <time>2022-03-04T18:29:52Z</time>
      </trkpt>
      <trkpt lat="46.61645" lon="5.59017">
        <ele>583.8</ele>
        <time>2022-03-04T18:29:53Z</time>
      </trkpt>
      <trkpt lat="46.61646" lon="5.5901">
        <ele>583.6</ele>
        <time>2022-03-04T18:29:54Z</time>
      </trkpt>
      <trkpt lat="46.61647" lon="5.59002">
        <ele>583.2</ele>
        <time>2022-03-04T18:29:55Z</time>
      </trkpt>
      <trkpt lat="46.61648" lon="5.58993">
        <ele>582.8</ele>
        <time>2022-03-04T18:29:56Z</time>
      </trkpt>
      <trkpt lat="46.61648" lon="5.58984">
        <ele>582.4</ele>
        <time>2022-03-04T18:29:57Z</time>
      </trkpt>
      <trkpt lat="46.61648" lon="5.58974">
        <ele>582.2</ele>
        <time>2022-03-04T18:29:58Z</time>
      </trkpt>
      <trkpt lat="46.61647" lon="5.58966">
        <ele>581.8</ele>
        <time>2022-03-04T18:29:59Z</time>
      </trkpt>
      <trkpt lat="46.61647" lon="5.58958">
        <ele>581.6</ele>
        <time>2022-03-04T18:30:00Z</time>
      </trkpt>
      <trkpt lat="46.61646" lon="5.58951">
        <ele>581.4</ele>
        <time>2022-03-04T18:30:01Z</time>
      </trkpt>
      <trkpt lat="46.61645" lon="5.58944">
        <ele>581.2</ele>
        <time>2022-03-04T18:30:02Z</time>
      </trkpt>
      <trkpt lat="46.61643" lon="5.58939">
        <ele>581</ele>
        <time>2022-03-04T18:30:03Z</time>
      </trkpt>
      <trkpt lat="46.61642" lon="5.58935">
        <ele>581</ele>
        <time>2022-03-04T18:30:04Z</time>
      </trkpt>
      <trkpt lat="46.61641" lon="5.5893">
        <ele>580.6</ele>
        <time>2022-03-04T18:30:05Z</time>
      </trkpt>
      <trkpt lat="46.6164" lon="5.58925">
        <ele>580.6</ele>
        <time>2022-03-04T18:30:06Z</time>
      </trkpt>
      <trkpt lat="46.61638" lon="5.58921">
        <ele>580.6</ele>
        <time>2022-03-04T18:30:07Z</time>
      </trkpt>
      <trkpt lat="46.61637" lon="5.58917">
        <ele>580.6</ele>
        <time>2022-03-04T18:30:08Z</time>
      </trkpt>
      <trkpt lat="46.61636" lon="5.58913">
        <ele>580.6</ele>
        <time>2022-03-04T18:30:09Z</time>
      </trkpt>
      <trkpt lat="46.61634" lon="5.58908">
        <ele>580.4</ele>
        <time>2022-03-04T18:30:10Z</time>
      </trkpt>
      <trkpt lat="46.61633" lon="5.58904">
        <ele>580.4</ele>
        <time>2022-03-04T18:30:11Z</time>
      </trkpt>
      <trkpt lat="46.61631" lon="5.58898">
        <ele>580.2</ele>
        <time>2022-03-04T18:30:12Z</time>
      </trkpt>
      <trkpt lat="46.61629" lon="5.58892">
        <ele>580</ele>
        <time>2022-03-04T18:30:13Z</time>
      </trkpt>
      <trkpt lat="46.61627" lon="5.58886">
        <ele>579.8</ele>
        <time>2022-03-04T18:30:14Z</time>
      </trkpt>
      <trkpt lat="46.61624" lon="5.58879">
        <ele>579.4</ele>
        <time>2022-03-04T18:30:15Z</time>
      </trkpt>
      <trkpt lat="46.61621" lon="5.58873">
        <ele>579.2</ele>
        <time>2022-03-04T18:30:16Z</time>
      </trkpt>
      <trkpt lat="46.61619" lon="5.58865">
        <ele>578.8</ele>
        <time>2022-03-04T18:30:17Z</time>
      </trkpt>
      <trkpt lat="46.61616" lon="5.58858">
        <ele>578.6</ele>
        <time>2022-03-04T18:30:18Z</time>
      </trkpt>
      <trkpt lat="46.61613" lon="5.5885">
        <ele>578.4</ele>
        <time>2022-03-04T18:30:19Z</time>
      </trkpt>
      <trkpt lat="46.6161" lon="5.58842">
        <ele>578</ele>
        <time>2022-03-04T18:30:20Z</time>
      </trkpt>
      <trkpt lat="46.61608" lon="5.58834">
        <ele>577.6</ele>
        <time>2022-03-04T18:30:21Z</time>
      </trkpt>
      <trkpt lat="46.61605" lon="5.58825">
        <ele>577.6</ele>
        <time>2022-03-04T18:30:22Z</time>
      </trkpt>
      <trkpt lat="46.61601" lon="5.58817">
        <ele>577.2</ele>
        <time>2022-03-04T18:30:23Z</time>
      </trkpt>
      <trkpt lat="46.61599" lon="5.58809">
        <ele>577</ele>
        <time>2022-03-04T18:30:24Z</time>
      </trkpt>
      <trkpt lat="46.61596" lon="5.58802">
        <ele>576.6</ele>
        <time>2022-03-04T18:30:25Z</time>
      </trkpt>
      <trkpt lat="46.61592" lon="5.58794">
        <ele>576.6</ele>
        <time>2022-03-04T18:30:26Z</time>
      </trkpt>
      <trkpt lat="46.61592" lon="5.58794">
        <ele>576.4</ele>
        <time>2022-03-04T18:30:27Z</time>
      </trkpt>
      <trkpt lat="46.61589" lon="5.58786">
        <ele>576.4</ele>
        <time>2022-03-04T18:30:28Z</time>
      </trkpt>
      <trkpt lat="46.61586" lon="5.58779">
        <ele>576.2</ele>
        <time>2022-03-04T18:30:29Z</time>
      </trkpt>
      <trkpt lat="46.61583" lon="5.58772">
        <ele>576.2</ele>
        <time>2022-03-04T18:30:30Z</time>
      </trkpt>
      <trkpt lat="46.6158" lon="5.58764">
        <ele>576.2</ele>
        <time>2022-03-04T18:30:31Z</time>
      </trkpt>
      <trkpt lat="46.61577" lon="5.58757">
        <ele>576.2</ele>
        <time>2022-03-04T18:30:32Z</time>
      </trkpt>
      <trkpt lat="46.61574" lon="5.5875">
        <ele>576.2</ele>
        <time>2022-03-04T18:30:33Z</time>
      </trkpt>
      <trkpt lat="46.61571" lon="5.58743">
        <ele>576</ele>
        <time>2022-03-04T18:30:34Z</time>
      </trkpt>
      <trkpt lat="46.61568" lon="5.58737">
        <ele>576</ele>
        <time>2022-03-04T18:30:35Z</time>
      </trkpt>
      <trkpt lat="46.61566" lon="5.5873">
        <ele>575.8</ele>
        <time>2022-03-04T18:30:36Z</time>
      </trkpt>
      <trkpt lat="46.61563" lon="5.58723">
        <ele>575.8</ele>
        <time>2022-03-04T18:30:37Z</time>
      </trkpt>
      <trkpt lat="46.6156" lon="5.58716">
        <ele>575.8</ele>
        <time>2022-03-04T18:30:38Z</time>
      </trkpt>
      <trkpt lat="46.61557" lon="5.58708">
        <ele>575.6</ele>
        <time>2022-03-04T18:30:39Z</time>
      </trkpt>
      <trkpt lat="46.61554" lon="5.58701">
        <ele>575.6</ele>
        <time>2022-03-04T18:30:40Z</time>
      </trkpt>
      <trkpt lat="46.61552" lon="5.58694">
        <ele>575.2</ele>
        <time>2022-03-04T18:30:41Z</time>
      </trkpt>
      <trkpt lat="46.61549" lon="5.58686">
        <ele>575</ele>
        <time>2022-03-04T18:30:42Z</time>
      </trkpt>
      <trkpt lat="46.61546" lon="5.58678">
        <ele>574.6</ele>
        <time>2022-03-04T18:30:43Z</time>
      </trkpt>
      <trkpt lat="46.61545" lon="5.5867">
        <ele>574.4</ele>
        <time>2022-03-04T18:30:44Z</time>
      </trkpt>
      <trkpt lat="46.61543" lon="5.58662">
        <ele>574</ele>
        <time>2022-03-04T18:30:45Z</time>
      </trkpt>
      <trkpt lat="46.61542" lon="5.58654">
        <ele>573.6</ele>
        <time>2022-03-04T18:30:46Z</time>
      </trkpt>
      <trkpt lat="46.61542" lon="5.58647">
        <ele>573.2</ele>
        <time>2022-03-04T18:30:47Z</time>
      </trkpt>
      <trkpt lat="46.61541" lon="5.58641">
        <ele>573</ele>
        <time>2022-03-04T18:30:48Z</time>
      </trkpt>
      <trkpt lat="46.61539" lon="5.58635">
        <ele>572.4</ele>
        <time>2022-03-04T18:30:49Z</time>
      </trkpt>
      <trkpt lat="46.61536" lon="5.5863">
        <ele>572</ele>
        <time>2022-03-04T18:30:50Z</time>
      </trkpt>
      <trkpt lat="46.61533" lon="5.58626">
        <ele>571.6</ele>
        <time>2022-03-04T18:30:51Z</time>
      </trkpt>
      <trkpt lat="46.61528" lon="5.58623">
        <ele>571.2</ele>
        <time>2022-03-04T18:30:52Z</time>
      </trkpt>
      <trkpt lat="46.61523" lon="5.58621">
        <ele>570.8</ele>
        <time>2022-03-04T18:30:53Z</time>
      </trkpt>
      <trkpt lat="46.61517" lon="5.5862">
        <ele>570.2</ele>
        <time>2022-03-04T18:30:54Z</time>
      </trkpt>
      <trkpt lat="46.61511" lon="5.58619">
        <ele>569.8</ele>
        <time>2022-03-04T18:30:55Z</time>
      </trkpt>
      <trkpt lat="46.61505" lon="5.58619">
        <ele>569.4</ele>
        <time>2022-03-04T18:30:56Z</time>
      </trkpt>
      <trkpt lat="46.61498" lon="5.58618">
        <ele>568.8</ele>
        <time>2022-03-04T18:30:57Z</time>
      </trkpt>
      <trkpt lat="46.61492" lon="5.58617">
        <ele>568.4</ele>
        <time>2022-03-04T18:30:58Z</time>
      </trkpt>
      <trkpt lat="46.61487" lon="5.58614">
        <ele>567.8</ele>
        <time>2022-03-04T18:30:59Z</time>
      </trkpt>
      <trkpt lat="46.61481" lon="5.5861">
        <ele>567.4</ele>
        <time>2022-03-04T18:31:00Z</time>
      </trkpt>
      <trkpt lat="46.61477" lon="5.58605">
        <ele>567</ele>
        <time>2022-03-04T18:31:01Z</time>
      </trkpt>
      <trkpt lat="46.61474" lon="5.58598">
        <ele>566.4</ele>
        <time>2022-03-04T18:31:02Z</time>
      </trkpt>
      <trkpt lat="46.61471" lon="5.58591">
        <ele>565.8</ele>
        <time>2022-03-04T18:31:03Z</time>
      </trkpt>
      <trkpt lat="46.61469" lon="5.58583">
        <ele>565.2</ele>
        <time>2022-03-04T18:31:04Z</time>
      </trkpt>
      <trkpt lat="46.61468" lon="5.58574">
        <ele>564.8</ele>
        <time>2022-03-04T18:31:05Z</time>
      </trkpt>
      <trkpt lat="46.61466" lon="5.58566">
        <ele>564.4</ele>
        <time>2022-03-04T18:31:06Z</time>
      </trkpt>
      <trkpt lat="46.61465" lon="5.58557">
        <ele>563.8</ele>
        <time>2022-03-04T18:31:07Z</time>
      </trkpt>
      <trkpt lat="46.61465" lon="5.58548">
        <ele>563.8</ele>
        <time>2022-03-04T18:31:08Z</time>
      </trkpt>
      <trkpt lat="46.61465" lon="5.58538">
        <ele>563.4</ele>
        <time>2022-03-04T18:31:09Z</time>
      </trkpt>
      <trkpt lat="46.61465" lon="5.58529">
        <ele>563</ele>
        <time>2022-03-04T18:31:10Z</time>
      </trkpt>
      <trkpt lat="46.61466" lon="5.58519">
        <ele>562.6</ele>
        <time>2022-03-04T18:31:11Z</time>
      </trkpt>
      <trkpt lat="46.61467" lon="5.5851">
        <ele>562.2</ele>
        <time>2022-03-04T18:31:12Z</time>
      </trkpt>
      <trkpt lat="46.61468" lon="5.58499">
        <ele>561.8</ele>
        <time>2022-03-04T18:31:13Z</time>
      </trkpt>
      <trkpt lat="46.61469" lon="5.58489">
        <ele>561.4</ele>
        <time>2022-03-04T18:31:14Z</time>
      </trkpt>
      <trkpt lat="46.6147" lon="5.58479">
        <ele>561</ele>
        <time>2022-03-04T18:31:15Z</time>
      </trkpt>
      <trkpt lat="46.61472" lon="5.58468">
        <ele>560.6</ele>
        <time>2022-03-04T18:31:16Z</time>
      </trkpt>
      <trkpt lat="46.61474" lon="5.58458">
        <ele>560.2</ele>
        <time>2022-03-04T18:31:17Z</time>
      </trkpt>
      <trkpt lat="46.61477" lon="5.58447">
        <ele>559.8</ele>
        <time>2022-03-04T18:31:18Z</time>
      </trkpt>
      <trkpt lat="46.6148" lon="5.58437">
        <ele>559.4</ele>
        <time>2022-03-04T18:31:19Z</time>
      </trkpt>
      <trkpt lat="46.61483" lon="5.58427">
        <ele>559</ele>
        <time>2022-03-04T18:31:20Z</time>
      </trkpt>
      <trkpt lat="46.61486" lon="5.58417">
        <ele>558.6</ele>
        <time>2022-03-04T18:31:21Z</time>
      </trkpt>
      <trkpt lat="46.61488" lon="5.58408">
        <ele>558.2</ele>
        <time>2022-03-04T18:31:22Z</time>
      </trkpt>
      <trkpt lat="46.6149" lon="5.58399">
        <ele>557.8</ele>
        <time>2022-03-04T18:31:23Z</time>
      </trkpt>
      <trkpt lat="46.61491" lon="5.58389">
        <ele>557.4</ele>
        <time>2022-03-04T18:31:24Z</time>
      </trkpt>
      <trkpt lat="46.6149" lon="5.58378">
        <ele>557</ele>
        <time>2022-03-04T18:31:25Z</time>
      </trkpt>
      <trkpt lat="46.61488" lon="5.58367">
        <ele>556.4</ele>
        <time>2022-03-04T18:31:26Z</time>
      </trkpt>
      <trkpt lat="46.61485" lon="5.58355">
        <ele>555.8</ele>
        <time>2022-03-04T18:31:27Z</time>
      </trkpt>
      <trkpt lat="46.61483" lon="5.58344">
        <ele>555.4</ele>
        <time>2022-03-04T18:31:28Z</time>
      </trkpt>
      <trkpt lat="46.61481" lon="5.58332">
        <ele>554.6</ele>
        <time>2022-03-04T18:31:29Z</time>
      </trkpt>
      <trkpt lat="46.6148" lon="5.58321">
        <ele>554</ele>
        <time>2022-03-04T18:31:30Z</time>
      </trkpt>
      <trkpt lat="46.61479" lon="5.5831">
        <ele>552.6</ele>
        <time>2022-03-04T18:31:31Z</time>
      </trkpt>
      <trkpt lat="46.61478" lon="5.583">
        <ele>552</ele>
        <time>2022-03-04T18:31:32Z</time>
      </trkpt>
      <trkpt lat="46.61477" lon="5.58292">
        <ele>551.4</ele>
        <time>2022-03-04T18:31:33Z</time>
      </trkpt>
      <trkpt lat="46.61475" lon="5.58285">
        <ele>550.8</ele>
        <time>2022-03-04T18:31:34Z</time>
      </trkpt>
      <trkpt lat="46.61471" lon="5.58278">
        <ele>550.2</ele>
        <time>2022-03-04T18:31:35Z</time>
      </trkpt>
      <trkpt lat="46.61467" lon="5.58273">
        <ele>549.6</ele>
        <time>2022-03-04T18:31:36Z</time>
      </trkpt>
      <trkpt lat="46.61463" lon="5.58268">
        <ele>548.8</ele>
        <time>2022-03-04T18:31:37Z</time>
      </trkpt>
      <trkpt lat="46.61457" lon="5.58265">
        <ele>548.4</ele>
        <time>2022-03-04T18:31:38Z</time>
      </trkpt>
      <trkpt lat="46.6145" lon="5.58264">
        <ele>547.8</ele>
        <time>2022-03-04T18:31:39Z</time>
      </trkpt>
      <trkpt lat="46.61443" lon="5.58263">
        <ele>547.4</ele>
        <time>2022-03-04T18:31:40Z</time>
      </trkpt>
      <trkpt lat="46.61435" lon="5.58263">
        <ele>546.8</ele>
        <time>2022-03-04T18:31:41Z</time>
      </trkpt>
      <trkpt lat="46.61427" lon="5.58263">
        <ele>546.4</ele>
        <time>2022-03-04T18:31:42Z</time>
      </trkpt>
      <trkpt lat="46.61419" lon="5.58263">
        <ele>545.8</ele>
        <time>2022-03-04T18:31:43Z</time>
      </trkpt>
      <trkpt lat="46.61411" lon="5.58264">
        <ele>545.4</ele>
        <time>2022-03-04T18:31:44Z</time>
      </trkpt>
      <trkpt lat="46.61403" lon="5.58265">
        <ele>544.8</ele>
        <time>2022-03-04T18:31:45Z</time>
      </trkpt>
      <trkpt lat="46.61394" lon="5.58266">
        <ele>544.2</ele>
        <time>2022-03-04T18:31:46Z</time>
      </trkpt>
      <trkpt lat="46.61385" lon="5.58267">
        <ele>543.6</ele>
        <time>2022-03-04T18:31:47Z</time>
      </trkpt>
      <trkpt lat="46.61377" lon="5.58269">
        <ele>543</ele>
        <time>2022-03-04T18:31:48Z</time>
      </trkpt>
      <trkpt lat="46.6137" lon="5.5827">
        <ele>542.4</ele>
        <time>2022-03-04T18:31:49Z</time>
      </trkpt>
      <trkpt lat="46.61363" lon="5.58271">
        <ele>541.8</ele>
        <time>2022-03-04T18:31:50Z</time>
      </trkpt>
      <trkpt lat="46.61357" lon="5.5827">
        <ele>541.4</ele>
        <time>2022-03-04T18:31:51Z</time>
      </trkpt>
      <trkpt lat="46.61351" lon="5.58269">
        <ele>540.8</ele>
        <time>2022-03-04T18:31:52Z</time>
      </trkpt>
      <trkpt lat="46.61347" lon="5.58267">
        <ele>540.4</ele>
        <time>2022-03-04T18:31:53Z</time>
      </trkpt>
      <trkpt lat="46.61343" lon="5.58264">
        <ele>540</ele>
        <time>2022-03-04T18:31:54Z</time>
      </trkpt>
      <trkpt lat="46.6134" lon="5.5826">
        <ele>539.6</ele>
        <time>2022-03-04T18:31:55Z</time>
      </trkpt>
      <trkpt lat="46.61338" lon="5.58255">
        <ele>539.2</ele>
        <time>2022-03-04T18:31:56Z</time>
      </trkpt>
      <trkpt lat="46.61336" lon="5.5825">
        <ele>538.8</ele>
        <time>2022-03-04T18:31:57Z</time>
      </trkpt>
      <trkpt lat="46.61336" lon="5.58245">
        <ele>538.4</ele>
        <time>2022-03-04T18:31:58Z</time>
      </trkpt>
      <trkpt lat="46.61338" lon="5.58239">
        <ele>538.2</ele>
        <time>2022-03-04T18:31:59Z</time>
      </trkpt>
      <trkpt lat="46.61341" lon="5.58235">
        <ele>537.8</ele>
        <time>2022-03-04T18:32:00Z</time>
      </trkpt>
      <trkpt lat="46.61345" lon="5.58232">
        <ele>537.6</ele>
        <time>2022-03-04T18:32:01Z</time>
      </trkpt>
      <trkpt lat="46.6135" lon="5.5823">
        <ele>537.4</ele>
        <time>2022-03-04T18:32:02Z</time>
      </trkpt>
      <trkpt lat="46.61355" lon="5.58228">
        <ele>537</ele>
        <time>2022-03-04T18:32:03Z</time>
      </trkpt>
      <trkpt lat="46.6136" lon="5.58226">
        <ele>536.8</ele>
        <time>2022-03-04T18:32:04Z</time>
      </trkpt>
      <trkpt lat="46.61366" lon="5.58224">
        <ele>536.6</ele>
        <time>2022-03-04T18:32:05Z</time>
      </trkpt>
      <trkpt lat="46.61372" lon="5.58223">
        <ele>536.2</ele>
        <time>2022-03-04T18:32:06Z</time>
      </trkpt>
      <trkpt lat="46.61378" lon="5.58221">
        <ele>535.8</ele>
        <time>2022-03-04T18:32:07Z</time>
      </trkpt>
      <trkpt lat="46.61384" lon="5.58219">
        <ele>535.4</ele>
        <time>2022-03-04T18:32:08Z</time>
      </trkpt>
      <trkpt lat="46.6139" lon="5.58217">
        <ele>535</ele>
        <time>2022-03-04T18:32:09Z</time>
      </trkpt>
      <trkpt lat="46.61396" lon="5.58215">
        <ele>534.6</ele>
        <time>2022-03-04T18:32:10Z</time>
      </trkpt>
      <trkpt lat="46.61402" lon="5.58213">
        <ele>534</ele>
        <time>2022-03-04T18:32:11Z</time>
      </trkpt>
      <trkpt lat="46.61408" lon="5.58212">
        <ele>533.6</ele>
        <time>2022-03-04T18:32:12Z</time>
      </trkpt>
      <trkpt lat="46.61415" lon="5.5821">
        <ele>533.2</ele>
        <time>2022-03-04T18:32:13Z</time>
      </trkpt>
      <trkpt lat="46.61421" lon="5.58208">
        <ele>532.8</ele>
        <time>2022-03-04T18:32:14Z</time>
      </trkpt>
      <trkpt lat="46.61428" lon="5.58206">
        <ele>532.4</ele>
        <time>2022-03-04T18:32:15Z</time>
      </trkpt>
      <trkpt lat="46.61435" lon="5.58204">
        <ele>532</ele>
        <time>2022-03-04T18:32:16Z</time>
      </trkpt>
      <trkpt lat="46.61442" lon="5.58202">
        <ele>531.6</ele>
        <time>2022-03-04T18:32:17Z</time>
      </trkpt>
      <trkpt lat="46.61449" lon="5.58199">
        <ele>531.2</ele>
        <time>2022-03-04T18:32:18Z</time>
      </trkpt>
      <trkpt lat="46.61457" lon="5.58196">
        <ele>530.6</ele>
        <time>2022-03-04T18:32:19Z</time>
      </trkpt>
      <trkpt lat="46.61464" lon="5.58193">
        <ele>530.2</ele>
        <time>2022-03-04T18:32:20Z</time>
      </trkpt>
      <trkpt lat="46.61472" lon="5.58189">
        <ele>529.8</ele>
        <time>2022-03-04T18:32:21Z</time>
      </trkpt>
      <trkpt lat="46.61479" lon="5.58185">
        <ele>529.4</ele>
        <time>2022-03-04T18:32:22Z</time>
      </trkpt>
      <trkpt lat="46.61486" lon="5.5818">
        <ele>529</ele>
        <time>2022-03-04T18:32:23Z</time>
      </trkpt>
      <trkpt lat="46.61493" lon="5.58174">
        <ele>528.6</ele>
        <time>2022-03-04T18:32:24Z</time>
      </trkpt>
      <trkpt lat="46.615" lon="5.58167">
        <ele>528</ele>
        <time>2022-03-04T18:32:25Z</time>
      </trkpt>
      <trkpt lat="46.61507" lon="5.58161">
        <ele>527.6</ele>
        <time>2022-03-04T18:32:26Z</time>
      </trkpt>
      <trkpt lat="46.61514" lon="5.58154">
        <ele>527</ele>
        <time>2022-03-04T18:32:27Z</time>
      </trkpt>
      <trkpt lat="46.61522" lon="5.58147">
        <ele>526.6</ele>
        <time>2022-03-04T18:32:28Z</time>
      </trkpt>
      <trkpt lat="46.61529" lon="5.5814">
        <ele>526</ele>
        <time>2022-03-04T18:32:29Z</time>
      </trkpt>
      <trkpt lat="46.61536" lon="5.58133">
        <ele>525.4</ele>
        <time>2022-03-04T18:32:30Z</time>
      </trkpt>
      <trkpt lat="46.61544" lon="5.58126">
        <ele>524.6</ele>
        <time>2022-03-04T18:32:31Z</time>
      </trkpt>
      <trkpt lat="46.61552" lon="5.58118">
        <ele>524.2</ele>
        <time>2022-03-04T18:32:32Z</time>
      </trkpt>
      <trkpt lat="46.61559" lon="5.58111">
        <ele>523.6</ele>
        <time>2022-03-04T18:32:33Z</time>
      </trkpt>
      <trkpt lat="46.61567" lon="5.58103">
        <ele>523</ele>
        <time>2022-03-04T18:32:34Z</time>
      </trkpt>
      <trkpt lat="46.61574" lon="5.58095">
        <ele>522.4</ele>
        <time>2022-03-04T18:32:35Z</time>
      </trkpt>
      <trkpt lat="46.61582" lon="5.58087">
        <ele>522</ele>
        <time>2022-03-04T18:32:36Z</time>
      </trkpt>
      <trkpt lat="46.6159" lon="5.58079">
        <ele>521.2</ele>
        <time>2022-03-04T18:32:37Z</time>
      </trkpt>
      <trkpt lat="46.61597" lon="5.58072">
        <ele>520.8</ele>
        <time>2022-03-04T18:32:38Z</time>
      </trkpt>
      <trkpt lat="46.61605" lon="5.58066">
        <ele>520</ele>
        <time>2022-03-04T18:32:39Z</time>
      </trkpt>
      <trkpt lat="46.61613" lon="5.58061">
        <ele>519.4</ele>
        <time>2022-03-04T18:32:40Z</time>
      </trkpt>
      <trkpt lat="46.61621" lon="5.58057">
        <ele>518.8</ele>
        <time>2022-03-04T18:32:41Z</time>
      </trkpt>
      <trkpt lat="46.61629" lon="5.58053">
        <ele>518.2</ele>
        <time>2022-03-04T18:32:42Z</time>
      </trkpt>
      <trkpt lat="46.61638" lon="5.5805">
        <ele>517.6</ele>
        <time>2022-03-04T18:32:43Z</time>
      </trkpt>
      <trkpt lat="46.61647" lon="5.58049">
        <ele>517</ele>
        <time>2022-03-04T18:32:44Z</time>
      </trkpt>
      <trkpt lat="46.61656" lon="5.58047">
        <ele>516.6</ele>
        <time>2022-03-04T18:32:45Z</time>
      </trkpt>
      <trkpt lat="46.61664" lon="5.58045">
        <ele>516.2</ele>
        <time>2022-03-04T18:32:46Z</time>
      </trkpt>
      <trkpt lat="46.61672" lon="5.58042">
        <ele>515.6</ele>
        <time>2022-03-04T18:32:47Z</time>
      </trkpt>
      <trkpt lat="46.61679" lon="5.58038">
        <ele>515</ele>
        <time>2022-03-04T18:32:48Z</time>
      </trkpt>
      <trkpt lat="46.61687" lon="5.58034">
        <ele>514.4</ele>
        <time>2022-03-04T18:32:49Z</time>
      </trkpt>
      <trkpt lat="46.61694" lon="5.58028">
        <ele>513.8</ele>
        <time>2022-03-04T18:32:50Z</time>
      </trkpt>
      <trkpt lat="46.61701" lon="5.58021">
        <ele>513.2</ele>
        <time>2022-03-04T18:32:51Z</time>
      </trkpt>
      <trkpt lat="46.61707" lon="5.58014">
        <ele>512.8</ele>
        <time>2022-03-04T18:32:52Z</time>
      </trkpt>
      <trkpt lat="46.61713" lon="5.58007">
        <ele>512.2</ele>
        <time>2022-03-04T18:32:53Z</time>
      </trkpt>
      <trkpt lat="46.61719" lon="5.58">
        <ele>511.6</ele>
        <time>2022-03-04T18:32:54Z</time>
      </trkpt>
      <trkpt lat="46.61725" lon="5.57994">
        <ele>510.8</ele>
        <time>2022-03-04T18:32:55Z</time>
      </trkpt>
      <trkpt lat="46.6173" lon="5.57988">
        <ele>510.2</ele>
        <time>2022-03-04T18:32:56Z</time>
      </trkpt>
      <trkpt lat="46.61734" lon="5.57984">
        <ele>509.6</ele>
        <time>2022-03-04T18:32:57Z</time>
      </trkpt>
      <trkpt lat="46.61737" lon="5.57982">
        <ele>509</ele>
        <time>2022-03-04T18:32:58Z</time>
      </trkpt>
      <trkpt lat="46.6174" lon="5.57982">
        <ele>508.6</ele>
        <time>2022-03-04T18:32:59Z</time>
      </trkpt>
      <trkpt lat="46.61743" lon="5.57983">
        <ele>508.2</ele>
        <time>2022-03-04T18:33:00Z</time>
      </trkpt>
      <trkpt lat="46.61745" lon="5.57986">
        <ele>507.6</ele>
        <time>2022-03-04T18:33:01Z</time>
      </trkpt>
      <trkpt lat="46.61746" lon="5.5799">
        <ele>507.4</ele>
        <time>2022-03-04T18:33:02Z</time>
      </trkpt>
      <trkpt lat="46.61747" lon="5.57995">
        <ele>506.8</ele>
        <time>2022-03-04T18:33:03Z</time>
      </trkpt>
      <trkpt lat="46.61745" lon="5.58001">
        <ele>506.4</ele>
        <time>2022-03-04T18:33:04Z</time>
      </trkpt>
      <trkpt lat="46.61743" lon="5.58006">
        <ele>506.2</ele>
        <time>2022-03-04T18:33:05Z</time>
      </trkpt>
      <trkpt lat="46.6174" lon="5.58011">
        <ele>505.8</ele>
        <time>2022-03-04T18:33:06Z</time>
      </trkpt>
      <trkpt lat="46.61737" lon="5.58016">
        <ele>505.6</ele>
        <time>2022-03-04T18:33:07Z</time>
      </trkpt>
      <trkpt lat="46.61733" lon="5.58021">
        <ele>505.2</ele>
        <time>2022-03-04T18:33:08Z</time>
      </trkpt>
      <trkpt lat="46.61729" lon="5.58025">
        <ele>505</ele>
        <time>2022-03-04T18:33:09Z</time>
      </trkpt>
      <trkpt lat="46.61725" lon="5.58029">
        <ele>504.8</ele>
        <time>2022-03-04T18:33:10Z</time>
      </trkpt>
      <trkpt lat="46.6172" lon="5.58033">
        <ele>504.6</ele>
        <time>2022-03-04T18:33:11Z</time>
      </trkpt>
      <trkpt lat="46.61716" lon="5.58038">
        <ele>504.4</ele>
        <time>2022-03-04T18:33:12Z</time>
      </trkpt>
      <trkpt lat="46.61711" lon="5.58043">
        <ele>504</ele>
        <time>2022-03-04T18:33:13Z</time>
      </trkpt>
      <trkpt lat="46.61706" lon="5.58047">
        <ele>503.8</ele>
        <time>2022-03-04T18:33:14Z</time>
      </trkpt>
      <trkpt lat="46.61701" lon="5.58052">
        <ele>503.6</ele>
        <time>2022-03-04T18:33:15Z</time>
      </trkpt>
      <trkpt lat="46.61695" lon="5.58056">
        <ele>503.2</ele>
        <time>2022-03-04T18:33:16Z</time>
      </trkpt>
      <trkpt lat="46.6169" lon="5.5806">
        <ele>503</ele>
        <time>2022-03-04T18:33:17Z</time>
      </trkpt>
      <trkpt lat="46.61684" lon="5.58064">
        <ele>502.8</ele>
        <time>2022-03-04T18:33:18Z</time>
      </trkpt>
      <trkpt lat="46.61679" lon="5.58068">
        <ele>502.6</ele>
        <time>2022-03-04T18:33:19Z</time>
      </trkpt>
      <trkpt lat="46.61673" lon="5.5807">
        <ele>502.6</ele>
        <time>2022-03-04T18:33:20Z</time>
      </trkpt>
      <trkpt lat="46.61666" lon="5.58072">
        <ele>502.2</ele>
        <time>2022-03-04T18:33:21Z</time>
      </trkpt>
      <trkpt lat="46.6166" lon="5.58074">
        <ele>501.8</ele>
        <time>2022-03-04T18:33:22Z</time>
      </trkpt>
      <trkpt lat="46.61654" lon="5.58076">
        <ele>501.6</ele>
        <time>2022-03-04T18:33:23Z</time>
      </trkpt>
      <trkpt lat="46.61648" lon="5.58078">
        <ele>501.4</ele>
        <time>2022-03-04T18:33:24Z</time>
      </trkpt>
      <trkpt lat="46.61642" lon="5.58081">
        <ele>501.2</ele>
        <time>2022-03-04T18:33:25Z</time>
      </trkpt>
      <trkpt lat="46.61636" lon="5.58084">
        <ele>501.2</ele>
        <time>2022-03-04T18:33:26Z</time>
      </trkpt>
      <trkpt lat="46.6163" lon="5.58087">
        <ele>500.8</ele>
        <time>2022-03-04T18:33:27Z</time>
      </trkpt>
      <trkpt lat="46.61624" lon="5.58092">
        <ele>500.8</ele>
        <time>2022-03-04T18:33:28Z</time>
      </trkpt>
      <trkpt lat="46.61619" lon="5.58096">
        <ele>500.6</ele>
        <time>2022-03-04T18:33:29Z</time>
      </trkpt>
      <trkpt lat="46.61614" lon="5.581">
        <ele>500.6</ele>
        <time>2022-03-04T18:33:30Z</time>
      </trkpt>
      <trkpt lat="46.61609" lon="5.58104">
        <ele>500.2</ele>
        <time>2022-03-04T18:33:31Z</time>
      </trkpt>
      <trkpt lat="46.61604" lon="5.58109">
        <ele>500</ele>
        <time>2022-03-04T18:33:32Z</time>
      </trkpt>
      <trkpt lat="46.61599" lon="5.58113">
        <ele>500</ele>
        <time>2022-03-04T18:33:33Z</time>
      </trkpt>
      <trkpt lat="46.61595" lon="5.58118">
        <ele>499.6</ele>
        <time>2022-03-04T18:33:34Z</time>
      </trkpt>
      <trkpt lat="46.61592" lon="5.58123">
        <ele>499.6</ele>
        <time>2022-03-04T18:33:35Z</time>
      </trkpt>
      <trkpt lat="46.61589" lon="5.58128">
        <ele>499.6</ele>
        <time>2022-03-04T18:33:36Z</time>
      </trkpt>
      <trkpt lat="46.61584" lon="5.58138">
        <ele>499.4</ele>
        <time>2022-03-04T18:33:37Z</time>
      </trkpt>
      <trkpt lat="46.61585" lon="5.58144">
        <ele>499.4</ele>
        <time>2022-03-04T18:33:38Z</time>
      </trkpt>
      <trkpt lat="46.61586" lon="5.58149">
        <ele>498.8</ele>
        <time>2022-03-04T18:33:39Z</time>
      </trkpt>
      <trkpt lat="46.61589" lon="5.58153">
        <ele>498.6</ele>
        <time>2022-03-04T18:33:40Z</time>
      </trkpt>
      <trkpt lat="46.61594" lon="5.58155">
        <ele>498.4</ele>
        <time>2022-03-04T18:33:41Z</time>
      </trkpt>
      <trkpt lat="46.61598" lon="5.58155">
        <ele>498</ele>
        <time>2022-03-04T18:33:42Z</time>
      </trkpt>
      <trkpt lat="46.61604" lon="5.58154">
        <ele>497.8</ele>
        <time>2022-03-04T18:33:43Z</time>
      </trkpt>
      <trkpt lat="46.61609" lon="5.58152">
        <ele>497.6</ele>
        <time>2022-03-04T18:33:44Z</time>
      </trkpt>
      <trkpt lat="46.61615" lon="5.58149">
        <ele>497.2</ele>
        <time>2022-03-04T18:33:45Z</time>
      </trkpt>
      <trkpt lat="46.61621" lon="5.58147">
        <ele>497</ele>
        <time>2022-03-04T18:33:46Z</time>
      </trkpt>
      <trkpt lat="46.61627" lon="5.58145">
        <ele>496.8</ele>
        <time>2022-03-04T18:33:47Z</time>
      </trkpt>
      <trkpt lat="46.61634" lon="5.58144">
        <ele>496.4</ele>
        <time>2022-03-04T18:33:48Z</time>
      </trkpt>
      <trkpt lat="46.61641" lon="5.58143">
        <ele>496</ele>
        <time>2022-03-04T18:33:49Z</time>
      </trkpt>
      <trkpt lat="46.61648" lon="5.58142">
        <ele>495.6</ele>
        <time>2022-03-04T18:33:50Z</time>
      </trkpt>
      <trkpt lat="46.61656" lon="5.58142">
        <ele>495.2</ele>
        <time>2022-03-04T18:33:51Z</time>
      </trkpt>
      <trkpt lat="46.61664" lon="5.58142">
        <ele>494.8</ele>
        <time>2022-03-04T18:33:52Z</time>
      </trkpt>
      <trkpt lat="46.61672" lon="5.58142">
        <ele>494.4</ele>
        <time>2022-03-04T18:33:53Z</time>
      </trkpt>
      <trkpt lat="46.6168" lon="5.58143">
        <ele>494</ele>
        <time>2022-03-04T18:33:54Z</time>
      </trkpt>
      <trkpt lat="46.61689" lon="5.58143">
        <ele>493.6</ele>
        <time>2022-03-04T18:33:55Z</time>
      </trkpt>
      <trkpt lat="46.61697" lon="5.58144">
        <ele>493.4</ele>
        <time>2022-03-04T18:33:56Z</time>
      </trkpt>
      <trkpt lat="46.61705" lon="5.58144">
        <ele>493</ele>
        <time>2022-03-04T18:33:57Z</time>
      </trkpt>
      <trkpt lat="46.61714" lon="5.58145">
        <ele>492.6</ele>
        <time>2022-03-04T18:33:58Z</time>
      </trkpt>
      <trkpt lat="46.61723" lon="5.58146">
        <ele>492</ele>
        <time>2022-03-04T18:33:59Z</time>
      </trkpt>
      <trkpt lat="46.61732" lon="5.58148">
        <ele>491.4</ele>
        <time>2022-03-04T18:34:00Z</time>
      </trkpt>
      <trkpt lat="46.61741" lon="5.5815">
        <ele>490.8</ele>
        <time>2022-03-04T18:34:01Z</time>
      </trkpt>
      <trkpt lat="46.6175" lon="5.58152">
        <ele>490.4</ele>
        <time>2022-03-04T18:34:02Z</time>
      </trkpt>
      <trkpt lat="46.61758" lon="5.58154">
        <ele>489.8</ele>
        <time>2022-03-04T18:34:03Z</time>
      </trkpt>
      <trkpt lat="46.61767" lon="5.58156">
        <ele>489.2</ele>
        <time>2022-03-04T18:34:04Z</time>
      </trkpt>
      <trkpt lat="46.61776" lon="5.58159">
        <ele>488.6</ele>
        <time>2022-03-04T18:34:05Z</time>
      </trkpt>
      <trkpt lat="46.61785" lon="5.58163">
        <ele>488</ele>
        <time>2022-03-04T18:34:06Z</time>
      </trkpt>
      <trkpt lat="46.61793" lon="5.58167">
        <ele>487.4</ele>
        <time>2022-03-04T18:34:07Z</time>
      </trkpt>
      <trkpt lat="46.61802" lon="5.58172">
        <ele>486.8</ele>
        <time>2022-03-04T18:34:08Z</time>
      </trkpt>
      <trkpt lat="46.61811" lon="5.58177">
        <ele>486.2</ele>
        <time>2022-03-04T18:34:09Z</time>
      </trkpt>
      <trkpt lat="46.61819" lon="5.58182">
        <ele>485.4</ele>
        <time>2022-03-04T18:34:10Z</time>
      </trkpt>
      <trkpt lat="46.61828" lon="5.58187">
        <ele>484.8</ele>
        <time>2022-03-04T18:34:11Z</time>
      </trkpt>
      <trkpt lat="46.61836" lon="5.58192">
        <ele>484.2</ele>
        <time>2022-03-04T18:34:12Z</time>
      </trkpt>
      <trkpt lat="46.61844" lon="5.58197">
        <ele>483.6</ele>
        <time>2022-03-04T18:34:13Z</time>
      </trkpt>
      <trkpt lat="46.61852" lon="5.58201">
        <ele>483</ele>
        <time>2022-03-04T18:34:14Z</time>
      </trkpt>
      <trkpt lat="46.6186" lon="5.58205">
        <ele>482.4</ele>
        <time>2022-03-04T18:34:15Z</time>
      </trkpt>
      <trkpt lat="46.61867" lon="5.58209">
        <ele>481.8</ele>
        <time>2022-03-04T18:34:16Z</time>
      </trkpt>
      <trkpt lat="46.61875" lon="5.58212">
        <ele>481.2</ele>
        <time>2022-03-04T18:34:17Z</time>
      </trkpt>
      <trkpt lat="46.61882" lon="5.58213">
        <ele>480.6</ele>
        <time>2022-03-04T18:34:18Z</time>
      </trkpt>
      <trkpt lat="46.6189" lon="5.58214">
        <ele>480</ele>
        <time>2022-03-04T18:34:19Z</time>
      </trkpt>
      <trkpt lat="46.61898" lon="5.58215">
        <ele>479.6</ele>
        <time>2022-03-04T18:34:20Z</time>
      </trkpt>
      <trkpt lat="46.61906" lon="5.58216">
        <ele>479</ele>
        <time>2022-03-04T18:34:21Z</time>
      </trkpt>
      <trkpt lat="46.61915" lon="5.58217">
        <ele>478.4</ele>
        <time>2022-03-04T18:34:22Z</time>
      </trkpt>
      <trkpt lat="46.61924" lon="5.58217">
        <ele>478</ele>
        <time>2022-03-04T18:34:23Z</time>
      </trkpt>
      <trkpt lat="46.61933" lon="5.58217">
        <ele>477.4</ele>
        <time>2022-03-04T18:34:24Z</time>
      </trkpt>
      <trkpt lat="46.61942" lon="5.58218">
        <ele>477</ele>
        <time>2022-03-04T18:34:25Z</time>
      </trkpt>
      <trkpt lat="46.61951" lon="5.58218">
        <ele>476.4</ele>
        <time>2022-03-04T18:34:26Z</time>
      </trkpt>
      <trkpt lat="46.61961" lon="5.58219">
        <ele>475.8</ele>
        <time>2022-03-04T18:34:27Z</time>
      </trkpt>
      <trkpt lat="46.6197" lon="5.58219">
        <ele>475.2</ele>
        <time>2022-03-04T18:34:28Z</time>
      </trkpt>
      <trkpt lat="46.6198" lon="5.58219">
        <ele>474.4</ele>
        <time>2022-03-04T18:34:29Z</time>
      </trkpt>
      <trkpt lat="46.61989" lon="5.58219">
        <ele>473.8</ele>
        <time>2022-03-04T18:34:30Z</time>
      </trkpt>
      <trkpt lat="46.61999" lon="5.58219">
        <ele>473.2</ele>
        <time>2022-03-04T18:34:31Z</time>
      </trkpt>
      <trkpt lat="46.62008" lon="5.58219">
        <ele>472.6</ele>
        <time>2022-03-04T18:34:32Z</time>
      </trkpt>
      <trkpt lat="46.62016" lon="5.58219">
        <ele>472.2</ele>
        <time>2022-03-04T18:34:33Z</time>
      </trkpt>
      <trkpt lat="46.62024" lon="5.58219">
        <ele>471.4</ele>
        <time>2022-03-04T18:34:34Z</time>
      </trkpt>
      <trkpt lat="46.62032" lon="5.58219">
        <ele>470.8</ele>
        <time>2022-03-04T18:34:35Z</time>
      </trkpt>
      <trkpt lat="46.62039" lon="5.5822">
        <ele>470.2</ele>
        <time>2022-03-04T18:34:36Z</time>
      </trkpt>
      <trkpt lat="46.62046" lon="5.58222">
        <ele>469.6</ele>
        <time>2022-03-04T18:34:37Z</time>
      </trkpt>
      <trkpt lat="46.62052" lon="5.58225">
        <ele>469</ele>
        <time>2022-03-04T18:34:38Z</time>
      </trkpt>
      <trkpt lat="46.62059" lon="5.58229">
        <ele>468.6</ele>
        <time>2022-03-04T18:34:39Z</time>
      </trkpt>
      <trkpt lat="46.62066" lon="5.58234">
        <ele>468</ele>
        <time>2022-03-04T18:34:40Z</time>
      </trkpt>
      <trkpt lat="46.62073" lon="5.5824">
        <ele>467.4</ele>
        <time>2022-03-04T18:34:41Z</time>
      </trkpt>
      <trkpt lat="46.62079" lon="5.58246">
        <ele>467</ele>
        <time>2022-03-04T18:34:42Z</time>
      </trkpt>
      <trkpt lat="46.62084" lon="5.58253">
        <ele>466.4</ele>
        <time>2022-03-04T18:34:43Z</time>
      </trkpt>
      <trkpt lat="46.62089" lon="5.58259">
        <ele>465.8</ele>
        <time>2022-03-04T18:34:44Z</time>
      </trkpt>
      <trkpt lat="46.62093" lon="5.58265">
        <ele>465.4</ele>
        <time>2022-03-04T18:34:45Z</time>
      </trkpt>
      <trkpt lat="46.62096" lon="5.58268">
        <ele>464.8</ele>
        <time>2022-03-04T18:34:46Z</time>
      </trkpt>
      <trkpt lat="46.621" lon="5.5827">
        <ele>464.4</ele>
        <time>2022-03-04T18:34:47Z</time>
      </trkpt>
      <trkpt lat="46.62103" lon="5.5827">
        <ele>463.8</ele>
        <time>2022-03-04T18:34:48Z</time>
      </trkpt>
      <trkpt lat="46.62106" lon="5.58267">
        <ele>463.4</ele>
        <time>2022-03-04T18:34:49Z</time>
      </trkpt>
      <trkpt lat="46.62108" lon="5.58263">
        <ele>463</ele>
        <time>2022-03-04T18:34:50Z</time>
      </trkpt>
      <trkpt lat="46.62108" lon="5.58258">
        <ele>462.4</ele>
        <time>2022-03-04T18:34:51Z</time>
      </trkpt>
      <trkpt lat="46.62108" lon="5.58253">
        <ele>462</ele>
        <time>2022-03-04T18:34:52Z</time>
      </trkpt>
      <trkpt lat="46.62105" lon="5.58248">
        <ele>461.8</ele>
        <time>2022-03-04T18:34:53Z</time>
      </trkpt>
      <trkpt lat="46.62102" lon="5.58243">
        <ele>461.4</ele>
        <time>2022-03-04T18:34:54Z</time>
      </trkpt>
      <trkpt lat="46.62097" lon="5.58238">
        <ele>461.2</ele>
        <time>2022-03-04T18:34:55Z</time>
      </trkpt>
      <trkpt lat="46.62093" lon="5.58233">
        <ele>460.6</ele>
        <time>2022-03-04T18:34:56Z</time>
      </trkpt>
      <trkpt lat="46.62088" lon="5.58227">
        <ele>460.4</ele>
        <time>2022-03-04T18:34:57Z</time>
      </trkpt>
      <trkpt lat="46.62084" lon="5.58222">
        <ele>460</ele>
        <time>2022-03-04T18:34:58Z</time>
      </trkpt>
      <trkpt lat="46.62079" lon="5.58217">
        <ele>459.8</ele>
        <time>2022-03-04T18:34:59Z</time>
      </trkpt>
      <trkpt lat="46.62074" lon="5.58211">
        <ele>459.6</ele>
        <time>2022-03-04T18:35:00Z</time>
      </trkpt>
      <trkpt lat="46.62069" lon="5.58205">
        <ele>459.2</ele>
        <time>2022-03-04T18:35:01Z</time>
      </trkpt>
      <trkpt lat="46.62063" lon="5.58199">
        <ele>459</ele>
        <time>2022-03-04T18:35:02Z</time>
      </trkpt>
      <trkpt lat="46.62058" lon="5.58193">
        <ele>458.6</ele>
        <time>2022-03-04T18:35:03Z</time>
      </trkpt>
      <trkpt lat="46.62052" lon="5.58188">
        <ele>458.4</ele>
        <time>2022-03-04T18:35:04Z</time>
      </trkpt>
      <trkpt lat="46.62045" lon="5.58184">
        <ele>457.8</ele>
        <time>2022-03-04T18:35:05Z</time>
      </trkpt>
      <trkpt lat="46.62038" lon="5.58181">
        <ele>457.4</ele>
        <time>2022-03-04T18:35:06Z</time>
      </trkpt>
      <trkpt lat="46.6203" lon="5.58178">
        <ele>457</ele>
        <time>2022-03-04T18:35:07Z</time>
      </trkpt>
      <trkpt lat="46.62023" lon="5.58176">
        <ele>456.6</ele>
        <time>2022-03-04T18:35:08Z</time>
      </trkpt>
      <trkpt lat="46.62015" lon="5.58174">
        <ele>456.2</ele>
        <time>2022-03-04T18:35:09Z</time>
      </trkpt>
      <trkpt lat="46.62007" lon="5.58172">
        <ele>455.8</ele>
        <time>2022-03-04T18:35:10Z</time>
      </trkpt>
      <trkpt lat="46.62" lon="5.58171">
        <ele>455.4</ele>
        <time>2022-03-04T18:35:11Z</time>
      </trkpt>
      <trkpt lat="46.61993" lon="5.5817">
        <ele>455</ele>
        <time>2022-03-04T18:35:12Z</time>
      </trkpt>
      <trkpt lat="46.61986" lon="5.58168">
        <ele>454.6</ele>
        <time>2022-03-04T18:35:13Z</time>
      </trkpt>
      <trkpt lat="46.61979" lon="5.58165">
        <ele>454.2</ele>
        <time>2022-03-04T18:35:14Z</time>
      </trkpt>
      <trkpt lat="46.61973" lon="5.58161">
        <ele>453.6</ele>
        <time>2022-03-04T18:35:15Z</time>
      </trkpt>
      <trkpt lat="46.61966" lon="5.58156">
        <ele>453.2</ele>
        <time>2022-03-04T18:35:16Z</time>
      </trkpt>
      <trkpt lat="46.6196" lon="5.58149">
        <ele>452.8</ele>
        <time>2022-03-04T18:35:17Z</time>
      </trkpt>
      <trkpt lat="46.61955" lon="5.58141">
        <ele>452.2</ele>
        <time>2022-03-04T18:35:18Z</time>
      </trkpt>
      <trkpt lat="46.61949" lon="5.58132">
        <ele>451.8</ele>
        <time>2022-03-04T18:35:19Z</time>
      </trkpt>
      <trkpt lat="46.61944" lon="5.58123">
        <ele>451.4</ele>
        <time>2022-03-04T18:35:20Z</time>
      </trkpt>
      <trkpt lat="46.61938" lon="5.58114">
        <ele>450.8</ele>
        <time>2022-03-04T18:35:21Z</time>
      </trkpt>
      <trkpt lat="46.61932" lon="5.58105">
        <ele>450.2</ele>
        <time>2022-03-04T18:35:22Z</time>
      </trkpt>
      <trkpt lat="46.61927" lon="5.58096">
        <ele>450.2</ele>
        <time>2022-03-04T18:35:23Z</time>
      </trkpt>
      <trkpt lat="46.61922" lon="5.58088">
        <ele>449.8</ele>
        <time>2022-03-04T18:35:24Z</time>
      </trkpt>
      <trkpt lat="46.61917" lon="5.58081">
        <ele>449.4</ele>
        <time>2022-03-04T18:35:25Z</time>
      </trkpt>
      <trkpt lat="46.61913" lon="5.58074">
        <ele>449</ele>
        <time>2022-03-04T18:35:26Z</time>
      </trkpt>
      <trkpt lat="46.6191" lon="5.58067">
        <ele>448.4</ele>
        <time>2022-03-04T18:35:27Z</time>
      </trkpt>
      <trkpt lat="46.61908" lon="5.5806">
        <ele>448</ele>
        <time>2022-03-04T18:35:28Z</time>
      </trkpt>
      <trkpt lat="46.61907" lon="5.58053">
        <ele>447.4</ele>
        <time>2022-03-04T18:35:29Z</time>
      </trkpt>
      <trkpt lat="46.61908" lon="5.58047">
        <ele>447</ele>
        <time>2022-03-04T18:35:30Z</time>
      </trkpt>
      <trkpt lat="46.61911" lon="5.5804">
        <ele>446.4</ele>
        <time>2022-03-04T18:35:31Z</time>
      </trkpt>
      <trkpt lat="46.61915" lon="5.58034">
        <ele>446</ele>
        <time>2022-03-04T18:35:32Z</time>
      </trkpt>
      <trkpt lat="46.61919" lon="5.58029">
        <ele>445.6</ele>
        <time>2022-03-04T18:35:33Z</time>
      </trkpt>
      <trkpt lat="46.61919" lon="5.58029">
        <ele>445.2</ele>
        <time>2022-03-04T18:35:34Z</time>
      </trkpt>
      <trkpt lat="46.61924" lon="5.58023">
        <ele>444.8</ele>
        <time>2022-03-04T18:35:35Z</time>
      </trkpt>
      <trkpt lat="46.61929" lon="5.58018">
        <ele>444.2</ele>
        <time>2022-03-04T18:35:36Z</time>
      </trkpt>
      <trkpt lat="46.61935" lon="5.58013">
        <ele>443.8</ele>
        <time>2022-03-04T18:35:37Z</time>
      </trkpt>
      <trkpt lat="46.61941" lon="5.58009">
        <ele>443.4</ele>
        <time>2022-03-04T18:35:38Z</time>
      </trkpt>
      <trkpt lat="46.61946" lon="5.58004">
        <ele>442.6</ele>
        <time>2022-03-04T18:35:39Z</time>
      </trkpt>
      <trkpt lat="46.61952" lon="5.57998">
        <ele>442.2</ele>
        <time>2022-03-04T18:35:40Z</time>
      </trkpt>
      <trkpt lat="46.61958" lon="5.57991">
        <ele>441.6</ele>
        <time>2022-03-04T18:35:41Z</time>
      </trkpt>
      <trkpt lat="46.61965" lon="5.57985">
        <ele>441</ele>
        <time>2022-03-04T18:35:42Z</time>
      </trkpt>
      <trkpt lat="46.61972" lon="5.57978">
        <ele>440.6</ele>
        <time>2022-03-04T18:35:43Z</time>
      </trkpt>
      <trkpt lat="46.6198" lon="5.57971">
        <ele>440</ele>
        <time>2022-03-04T18:35:44Z</time>
      </trkpt>
      <trkpt lat="46.61987" lon="5.57965">
        <ele>439.4</ele>
        <time>2022-03-04T18:35:45Z</time>
      </trkpt>
      <trkpt lat="46.61995" lon="5.57959">
        <ele>439</ele>
        <time>2022-03-04T18:35:46Z</time>
      </trkpt>
      <trkpt lat="46.62003" lon="5.57953">
        <ele>438.4</ele>
        <time>2022-03-04T18:35:47Z</time>
      </trkpt>
      <trkpt lat="46.6201" lon="5.57948">
        <ele>437.8</ele>
        <time>2022-03-04T18:35:48Z</time>
      </trkpt>
      <trkpt lat="46.62018" lon="5.57943">
        <ele>437.4</ele>
        <time>2022-03-04T18:35:49Z</time>
      </trkpt>
      <trkpt lat="46.62026" lon="5.57938">
        <ele>436.8</ele>
        <time>2022-03-04T18:35:50Z</time>
      </trkpt>
      <trkpt lat="46.62034" lon="5.57934">
        <ele>436.4</ele>
        <time>2022-03-04T18:35:51Z</time>
      </trkpt>
      <trkpt lat="46.62043" lon="5.57929">
        <ele>435.8</ele>
        <time>2022-03-04T18:35:52Z</time>
      </trkpt>
      <trkpt lat="46.62052" lon="5.57925">
        <ele>435.2</ele>
        <time>2022-03-04T18:35:53Z</time>
      </trkpt>
      <trkpt lat="46.62061" lon="5.57921">
        <ele>434.6</ele>
        <time>2022-03-04T18:35:54Z</time>
      </trkpt>
      <trkpt lat="46.62071" lon="5.57917">
        <ele>434</ele>
        <time>2022-03-04T18:35:55Z</time>
      </trkpt>
      <trkpt lat="46.62082" lon="5.57915">
        <ele>433.4</ele>
        <time>2022-03-04T18:35:56Z</time>
      </trkpt>
      <trkpt lat="46.62092" lon="5.57911">
        <ele>432.8</ele>
        <time>2022-03-04T18:35:57Z</time>
      </trkpt>
      <trkpt lat="46.62104" lon="5.57909">
        <ele>432.2</ele>
        <time>2022-03-04T18:35:58Z</time>
      </trkpt>
      <trkpt lat="46.62114" lon="5.57906">
        <ele>431.8</ele>
        <time>2022-03-04T18:35:59Z</time>
      </trkpt>
      <trkpt lat="46.62123" lon="5.57902">
        <ele>431.2</ele>
        <time>2022-03-04T18:36:00Z</time>
      </trkpt>
      <trkpt lat="46.62132" lon="5.579">
        <ele>430.6</ele>
        <time>2022-03-04T18:36:01Z</time>
      </trkpt>
      <trkpt lat="46.62139" lon="5.57897">
        <ele>430.2</ele>
        <time>2022-03-04T18:36:02Z</time>
      </trkpt>
      <trkpt lat="46.62146" lon="5.57895">
        <ele>429.6</ele>
        <time>2022-03-04T18:36:03Z</time>
      </trkpt>
      <trkpt lat="46.62151" lon="5.57893">
        <ele>429</ele>
        <time>2022-03-04T18:36:04Z</time>
      </trkpt>
      <trkpt lat="46.62155" lon="5.57894">
        <ele>428.6</ele>
        <time>2022-03-04T18:36:05Z</time>
      </trkpt>
      <trkpt lat="46.62158" lon="5.57896">
        <ele>428.2</ele>
        <time>2022-03-04T18:36:06Z</time>
      </trkpt>
      <trkpt lat="46.6216" lon="5.57899">
        <ele>427.6</ele>
        <time>2022-03-04T18:36:07Z</time>
      </trkpt>
      <trkpt lat="46.62161" lon="5.57904">
        <ele>427.2</ele>
        <time>2022-03-04T18:36:08Z</time>
      </trkpt>
      <trkpt lat="46.6216" lon="5.57909">
        <ele>426.8</ele>
        <time>2022-03-04T18:36:09Z</time>
      </trkpt>
      <trkpt lat="46.62158" lon="5.57914">
        <ele>426.4</ele>
        <time>2022-03-04T18:36:10Z</time>
      </trkpt>
      <trkpt lat="46.62155" lon="5.57917">
        <ele>426.2</ele>
        <time>2022-03-04T18:36:11Z</time>
      </trkpt>
      <trkpt lat="46.62151" lon="5.57921">
        <ele>425.8</ele>
        <time>2022-03-04T18:36:12Z</time>
      </trkpt>
      <trkpt lat="46.62147" lon="5.57924">
        <ele>425.6</ele>
        <time>2022-03-04T18:36:13Z</time>
      </trkpt>
      <trkpt lat="46.62142" lon="5.57928">
        <ele>425.6</ele>
        <time>2022-03-04T18:36:14Z</time>
      </trkpt>
      <trkpt lat="46.62138" lon="5.57931">
        <ele>425.2</ele>
        <time>2022-03-04T18:36:15Z</time>
      </trkpt>
      <trkpt lat="46.62133" lon="5.57934">
        <ele>425.2</ele>
        <time>2022-03-04T18:36:16Z</time>
      </trkpt>
      <trkpt lat="46.62128" lon="5.57938">
        <ele>424.8</ele>
        <time>2022-03-04T18:36:17Z</time>
      </trkpt>
      <trkpt lat="46.62123" lon="5.57942">
        <ele>424.6</ele>
        <time>2022-03-04T18:36:18Z</time>
      </trkpt>
      <trkpt lat="46.62118" lon="5.57946">
        <ele>424.2</ele>
        <time>2022-03-04T18:36:19Z</time>
      </trkpt>
      <trkpt lat="46.62113" lon="5.5795">
        <ele>424</ele>
        <time>2022-03-04T18:36:20Z</time>
      </trkpt>
      <trkpt lat="46.62108" lon="5.57954">
        <ele>423.6</ele>
        <time>2022-03-04T18:36:21Z</time>
      </trkpt>
      <trkpt lat="46.62103" lon="5.57959">
        <ele>423.6</ele>
        <time>2022-03-04T18:36:22Z</time>
      </trkpt>
      <trkpt lat="46.62098" lon="5.57964">
        <ele>423.2</ele>
        <time>2022-03-04T18:36:23Z</time>
      </trkpt>
      <trkpt lat="46.62092" lon="5.57969">
        <ele>423</ele>
        <time>2022-03-04T18:36:24Z</time>
      </trkpt>
      <trkpt lat="46.62087" lon="5.57974">
        <ele>423</ele>
        <time>2022-03-04T18:36:25Z</time>
      </trkpt>
      <trkpt lat="46.62082" lon="5.57979">
        <ele>422.6</ele>
        <time>2022-03-04T18:36:26Z</time>
      </trkpt>
      <trkpt lat="46.62076" lon="5.57983">
        <ele>422.4</ele>
        <time>2022-03-04T18:36:27Z</time>
      </trkpt>
      <trkpt lat="46.62071" lon="5.57987">
        <ele>422.4</ele>
        <time>2022-03-04T18:36:28Z</time>
      </trkpt>
      <trkpt lat="46.62066" lon="5.57991">
        <ele>422</ele>
        <time>2022-03-04T18:36:29Z</time>
      </trkpt>
      <trkpt lat="46.62062" lon="5.57995">
        <ele>422</ele>
        <time>2022-03-04T18:36:30Z</time>
      </trkpt>
      <trkpt lat="46.62058" lon="5.57999">
        <ele>421.6</ele>
        <time>2022-03-04T18:36:31Z</time>
      </trkpt>
      <trkpt lat="46.62055" lon="5.58003">
        <ele>421.6</ele>
        <time>2022-03-04T18:36:32Z</time>
      </trkpt>
      <trkpt lat="46.62054" lon="5.58008">
        <ele>421.4</ele>
        <time>2022-03-04T18:36:33Z</time>
      </trkpt>
      <trkpt lat="46.62053" lon="5.58014">
        <ele>421.2</ele>
        <time>2022-03-04T18:36:34Z</time>
      </trkpt>
      <trkpt lat="46.62054" lon="5.58019">
        <ele>420.8</ele>
        <time>2022-03-04T18:36:35Z</time>
      </trkpt>
      <trkpt lat="46.62056" lon="5.58022">
        <ele>420.6</ele>
        <time>2022-03-04T18:36:36Z</time>
      </trkpt>
      <trkpt lat="46.62059" lon="5.58024">
        <ele>420</ele>
        <time>2022-03-04T18:36:37Z</time>
      </trkpt>
      <trkpt lat="46.62063" lon="5.58026">
        <ele>419.8</ele>
        <time>2022-03-04T18:36:38Z</time>
      </trkpt>
      <trkpt lat="46.62068" lon="5.58024">
        <ele>419.4</ele>
        <time>2022-03-04T18:36:39Z</time>
      </trkpt>
      <trkpt lat="46.62073" lon="5.58021">
        <ele>419</ele>
        <time>2022-03-04T18:36:40Z</time>
      </trkpt>
      <trkpt lat="46.62079" lon="5.58017">
        <ele>418.6</ele>
        <time>2022-03-04T18:36:41Z</time>
      </trkpt>
      <trkpt lat="46.62085" lon="5.58012">
        <ele>418.4</ele>
        <time>2022-03-04T18:36:42Z</time>
      </trkpt>
      <trkpt lat="46.62091" lon="5.58007">
        <ele>418</ele>
        <time>2022-03-04T18:36:43Z</time>
      </trkpt>
      <trkpt lat="46.62096" lon="5.58002">
        <ele>417.6</ele>
        <time>2022-03-04T18:36:44Z</time>
      </trkpt>
      <trkpt lat="46.62103" lon="5.57997">
        <ele>417.2</ele>
        <time>2022-03-04T18:36:45Z</time>
      </trkpt>
      <trkpt lat="46.62109" lon="5.57992">
        <ele>416.8</ele>
        <time>2022-03-04T18:36:46Z</time>
      </trkpt>
      <trkpt lat="46.62116" lon="5.57986">
        <ele>416.4</ele>
        <time>2022-03-04T18:36:47Z</time>
      </trkpt>
      <trkpt lat="46.62123" lon="5.57981">
        <ele>416.2</ele>
        <time>2022-03-04T18:36:48Z</time>
      </trkpt>
      <trkpt lat="46.6213" lon="5.57976">
        <ele>415.8</ele>
        <time>2022-03-04T18:36:49Z</time>
      </trkpt>
      <trkpt lat="46.62137" lon="5.5797">
        <ele>415.4</ele>
        <time>2022-03-04T18:36:50Z</time>
      </trkpt>
      <trkpt lat="46.62144" lon="5.57964">
        <ele>414.8</ele>
        <time>2022-03-04T18:36:51Z</time>
      </trkpt>
      <trkpt lat="46.62151" lon="5.57958">
        <ele>414.4</ele>
        <time>2022-03-04T18:36:52Z</time>
      </trkpt>
      <trkpt lat="46.62159" lon="5.57951">
        <ele>413.8</ele>
        <time>2022-03-04T18:36:53Z</time>
      </trkpt>
      <trkpt lat="46.62166" lon="5.57945">
        <ele>413.4</ele>
        <time>2022-03-04T18:36:54Z</time>
      </trkpt>
      <trkpt lat="46.62173" lon="5.57938">
        <ele>412.8</ele>
        <time>2022-03-04T18:36:55Z</time>
      </trkpt>
      <trkpt lat="46.62179" lon="5.5793">
        <ele>412.4</ele>
        <time>2022-03-04T18:36:56Z</time>
      </trkpt>
      <trkpt lat="46.62186" lon="5.57921">
        <ele>411.8</ele>
        <time>2022-03-04T18:36:57Z</time>
      </trkpt>
      <trkpt lat="46.62193" lon="5.57912">
        <ele>411.2</ele>
        <time>2022-03-04T18:36:58Z</time>
      </trkpt>
      <trkpt lat="46.62199" lon="5.57902">
        <ele>410.6</ele>
        <time>2022-03-04T18:36:59Z</time>
      </trkpt>
      <trkpt lat="46.62204" lon="5.57893">
        <ele>410</ele>
        <time>2022-03-04T18:37:00Z</time>
      </trkpt>
      <trkpt lat="46.6221" lon="5.57883">
        <ele>409.4</ele>
        <time>2022-03-04T18:37:01Z</time>
      </trkpt>
      <trkpt lat="46.62216" lon="5.57875">
        <ele>408.8</ele>
        <time>2022-03-04T18:37:02Z</time>
      </trkpt>
      <trkpt lat="46.62223" lon="5.57866">
        <ele>408</ele>
        <time>2022-03-04T18:37:03Z</time>
      </trkpt>
      <trkpt lat="46.62229" lon="5.57858">
        <ele>407.4</ele>
        <time>2022-03-04T18:37:04Z</time>
      </trkpt>
      <trkpt lat="46.62236" lon="5.57851">
        <ele>406.6</ele>
        <time>2022-03-04T18:37:05Z</time>
      </trkpt>
      <trkpt lat="46.62243" lon="5.57843">
        <ele>406</ele>
        <time>2022-03-04T18:37:06Z</time>
      </trkpt>
      <trkpt lat="46.6225" lon="5.57837">
        <ele>405.4</ele>
        <time>2022-03-04T18:37:07Z</time>
      </trkpt>
      <trkpt lat="46.62256" lon="5.57831">
        <ele>404.6</ele>
        <time>2022-03-04T18:37:08Z</time>
      </trkpt>
      <trkpt lat="46.62263" lon="5.57826">
        <ele>404</ele>
        <time>2022-03-04T18:37:09Z</time>
      </trkpt>
      <trkpt lat="46.62268" lon="5.57822">
        <ele>403.6</ele>
        <time>2022-03-04T18:37:10Z</time>
      </trkpt>
      <trkpt lat="46.62274" lon="5.57818">
        <ele>403.2</ele>
        <time>2022-03-04T18:37:11Z</time>
      </trkpt>
      <trkpt lat="46.62278" lon="5.57815">
        <ele>402.8</ele>
        <time>2022-03-04T18:37:12Z</time>
      </trkpt>
      <trkpt lat="46.62282" lon="5.57811">
        <ele>402.4</ele>
        <time>2022-03-04T18:37:13Z</time>
      </trkpt>
      <trkpt lat="46.62284" lon="5.57805">
        <ele>402</ele>
        <time>2022-03-04T18:37:14Z</time>
      </trkpt>
      <trkpt lat="46.62285" lon="5.57798">
        <ele>401.6</ele>
        <time>2022-03-04T18:37:15Z</time>
      </trkpt>
      <trkpt lat="46.62286" lon="5.57791">
        <ele>401.2</ele>
        <time>2022-03-04T18:37:16Z</time>
      </trkpt>
      <trkpt lat="46.62284" lon="5.57783">
        <ele>400.8</ele>
        <time>2022-03-04T18:37:17Z</time>
      </trkpt>
      <trkpt lat="46.62282" lon="5.57775">
        <ele>400.4</ele>
        <time>2022-03-04T18:37:18Z</time>
      </trkpt>
      <trkpt lat="46.62279" lon="5.57768">
        <ele>400.2</ele>
        <time>2022-03-04T18:37:19Z</time>
      </trkpt>
      <trkpt lat="46.62274" lon="5.5776">
        <ele>399.8</ele>
        <time>2022-03-04T18:37:20Z</time>
      </trkpt>
      <trkpt lat="46.6227" lon="5.57753">
        <ele>399.4</ele>
        <time>2022-03-04T18:37:21Z</time>
      </trkpt>
      <trkpt lat="46.62266" lon="5.57745">
        <ele>399</ele>
        <time>2022-03-04T18:37:22Z</time>
      </trkpt>
      <trkpt lat="46.62263" lon="5.57737">
        <ele>398.4</ele>
        <time>2022-03-04T18:37:23Z</time>
      </trkpt>
      <trkpt lat="46.62261" lon="5.57727">
        <ele>398.2</ele>
        <time>2022-03-04T18:37:24Z</time>
      </trkpt>
      <trkpt lat="46.62259" lon="5.57718">
        <ele>397.6</ele>
        <time>2022-03-04T18:37:25Z</time>
      </trkpt>
      <trkpt lat="46.62257" lon="5.57709">
        <ele>397.4</ele>
        <time>2022-03-04T18:37:26Z</time>
      </trkpt>
      <trkpt lat="46.62256" lon="5.57699">
        <ele>397</ele>
        <time>2022-03-04T18:37:27Z</time>
      </trkpt>
      <trkpt lat="46.62255" lon="5.5769">
        <ele>396.4</ele>
        <time>2022-03-04T18:37:28Z</time>
      </trkpt>
      <trkpt lat="46.62255" lon="5.5768">
        <ele>396.2</ele>
        <time>2022-03-04T18:37:29Z</time>
      </trkpt>
      <trkpt lat="46.62256" lon="5.5767">
        <ele>395.6</ele>
        <time>2022-03-04T18:37:30Z</time>
      </trkpt>
      <trkpt lat="46.62258" lon="5.57661">
        <ele>395.2</ele>
        <time>2022-03-04T18:37:31Z</time>
      </trkpt>
      <trkpt lat="46.6226" lon="5.57652">
        <ele>394.8</ele>
        <time>2022-03-04T18:37:32Z</time>
      </trkpt>
      <trkpt lat="46.62263" lon="5.57643">
        <ele>394.2</ele>
        <time>2022-03-04T18:37:33Z</time>
      </trkpt>
      <trkpt lat="46.62266" lon="5.57634">
        <ele>393.8</ele>
        <time>2022-03-04T18:37:34Z</time>
      </trkpt>
      <trkpt lat="46.62269" lon="5.57627">
        <ele>393.4</ele>
        <time>2022-03-04T18:37:35Z</time>
      </trkpt>
      <trkpt lat="46.62272" lon="5.5762">
        <ele>393</ele>
        <time>2022-03-04T18:37:36Z</time>
      </trkpt>
      <trkpt lat="46.62275" lon="5.57615">
        <ele>392.6</ele>
        <time>2022-03-04T18:37:37Z</time>
      </trkpt>
      <trkpt lat="46.62279" lon="5.57609">
        <ele>392.2</ele>
        <time>2022-03-04T18:37:38Z</time>
      </trkpt>
      <trkpt lat="46.62282" lon="5.57605">
        <ele>391.8</ele>
        <time>2022-03-04T18:37:39Z</time>
      </trkpt>
      <trkpt lat="46.62287" lon="5.57603">
        <ele>391.4</ele>
        <time>2022-03-04T18:37:40Z</time>
      </trkpt>
      <trkpt lat="46.62291" lon="5.57601">
        <ele>391.2</ele>
        <time>2022-03-04T18:37:41Z</time>
      </trkpt>
      <trkpt lat="46.62296" lon="5.57599">
        <ele>390.8</ele>
        <time>2022-03-04T18:37:42Z</time>
      </trkpt>
      <trkpt lat="46.62302" lon="5.57598">
        <ele>390.4</ele>
        <time>2022-03-04T18:37:43Z</time>
      </trkpt>
      <trkpt lat="46.62308" lon="5.57597">
        <ele>390.2</ele>
        <time>2022-03-04T18:37:44Z</time>
      </trkpt>
      <trkpt lat="46.62314" lon="5.57596">
        <ele>389.8</ele>
        <time>2022-03-04T18:37:45Z</time>
      </trkpt>
      <trkpt lat="46.62319" lon="5.57595">
        <ele>389.6</ele>
        <time>2022-03-04T18:37:46Z</time>
      </trkpt>
      <trkpt lat="46.62325" lon="5.57595">
        <ele>389.2</ele>
        <time>2022-03-04T18:37:47Z</time>
      </trkpt>
      <trkpt lat="46.62331" lon="5.57594">
        <ele>389</ele>
        <time>2022-03-04T18:37:48Z</time>
      </trkpt>
      <trkpt lat="46.62337" lon="5.57596">
        <ele>388.6</ele>
        <time>2022-03-04T18:37:49Z</time>
      </trkpt>
      <trkpt lat="46.62345" lon="5.57598">
        <ele>388.2</ele>
        <time>2022-03-04T18:37:50Z</time>
      </trkpt>
      <trkpt lat="46.62352" lon="5.57602">
        <ele>388</ele>
        <time>2022-03-04T18:37:51Z</time>
      </trkpt>
      <trkpt lat="46.62359" lon="5.57606">
        <ele>387.6</ele>
        <time>2022-03-04T18:37:52Z</time>
      </trkpt>
      <trkpt lat="46.62366" lon="5.57611">
        <ele>387.2</ele>
        <time>2022-03-04T18:37:53Z</time>
      </trkpt>
      <trkpt lat="46.62373" lon="5.57615">
        <ele>386.8</ele>
        <time>2022-03-04T18:37:54Z</time>
      </trkpt>
      <trkpt lat="46.62379" lon="5.57618">
        <ele>386.6</ele>
        <time>2022-03-04T18:37:55Z</time>
      </trkpt>
      <trkpt lat="46.62386" lon="5.5762">
        <ele>386.2</ele>
        <time>2022-03-04T18:37:56Z</time>
      </trkpt>
      <trkpt lat="46.62392" lon="5.5762">
        <ele>385.8</ele>
        <time>2022-03-04T18:37:57Z</time>
      </trkpt>
      <trkpt lat="46.62399" lon="5.57619">
        <ele>385.4</ele>
        <time>2022-03-04T18:37:58Z</time>
      </trkpt>
      <trkpt lat="46.62406" lon="5.57618">
        <ele>385</ele>
        <time>2022-03-04T18:37:59Z</time>
      </trkpt>
      <trkpt lat="46.62414" lon="5.57615">
        <ele>384.6</ele>
        <time>2022-03-04T18:38:00Z</time>
      </trkpt>
      <trkpt lat="46.62421" lon="5.57611">
        <ele>384.2</ele>
        <time>2022-03-04T18:38:01Z</time>
      </trkpt>
      <trkpt lat="46.62429" lon="5.57608">
        <ele>383.8</ele>
        <time>2022-03-04T18:38:02Z</time>
      </trkpt>
      <trkpt lat="46.62436" lon="5.57605">
        <ele>383.2</ele>
        <time>2022-03-04T18:38:03Z</time>
      </trkpt>
      <trkpt lat="46.62443" lon="5.57602">
        <ele>382.8</ele>
        <time>2022-03-04T18:38:04Z</time>
      </trkpt>
      <trkpt lat="46.6245" lon="5.57599">
        <ele>382.2</ele>
        <time>2022-03-04T18:38:05Z</time>
      </trkpt>
      <trkpt lat="46.62457" lon="5.57596">
        <ele>381.8</ele>
        <time>2022-03-04T18:38:06Z</time>
      </trkpt>
      <trkpt lat="46.62464" lon="5.57593">
        <ele>381.4</ele>
        <time>2022-03-04T18:38:07Z</time>
      </trkpt>
      <trkpt lat="46.6247" lon="5.5759">
        <ele>381</ele>
        <time>2022-03-04T18:38:08Z</time>
      </trkpt>
      <trkpt lat="46.62477" lon="5.57587">
        <ele>380.6</ele>
        <time>2022-03-04T18:38:09Z</time>
      </trkpt>
      <trkpt lat="46.62483" lon="5.57586">
        <ele>380.2</ele>
        <time>2022-03-04T18:38:10Z</time>
      </trkpt>
      <trkpt lat="46.62489" lon="5.57584">
        <ele>379.8</ele>
        <time>2022-03-04T18:38:11Z</time>
      </trkpt>
      <trkpt lat="46.62495" lon="5.57582">
        <ele>379.4</ele>
        <time>2022-03-04T18:38:12Z</time>
      </trkpt>
      <trkpt lat="46.62502" lon="5.5758">
        <ele>379</ele>
        <time>2022-03-04T18:38:13Z</time>
      </trkpt>
      <trkpt lat="46.62508" lon="5.57579">
        <ele>378.6</ele>
        <time>2022-03-04T18:38:14Z</time>
      </trkpt>
      <trkpt lat="46.62513" lon="5.57577">
        <ele>378.2</ele>
        <time>2022-03-04T18:38:15Z</time>
      </trkpt>
      <trkpt lat="46.62519" lon="5.57576">
        <ele>378</ele>
        <time>2022-03-04T18:38:16Z</time>
      </trkpt>
      <trkpt lat="46.62525" lon="5.57574">
        <ele>377.8</ele>
        <time>2022-03-04T18:38:17Z</time>
      </trkpt>
      <trkpt lat="46.6253" lon="5.57572">
        <ele>377.4</ele>
        <time>2022-03-04T18:38:18Z</time>
      </trkpt>
      <trkpt lat="46.62536" lon="5.57569">
        <ele>377</ele>
        <time>2022-03-04T18:38:19Z</time>
      </trkpt>
      <trkpt lat="46.62543" lon="5.57566">
        <ele>376.6</ele>
        <time>2022-03-04T18:38:20Z</time>
      </trkpt>
      <trkpt lat="46.6255" lon="5.57562">
        <ele>376.2</ele>
        <time>2022-03-04T18:38:21Z</time>
      </trkpt>
      <trkpt lat="46.62557" lon="5.57558">
        <ele>375.8</ele>
        <time>2022-03-04T18:38:22Z</time>
      </trkpt>
      <trkpt lat="46.62563" lon="5.57553">
        <ele>375.4</ele>
        <time>2022-03-04T18:38:23Z</time>
      </trkpt>
      <trkpt lat="46.6257" lon="5.57549">
        <ele>375.2</ele>
        <time>2022-03-04T18:38:24Z</time>
      </trkpt>
      <trkpt lat="46.62576" lon="5.57544">
        <ele>374.8</ele>
        <time>2022-03-04T18:38:25Z</time>
      </trkpt>
      <trkpt lat="46.62581" lon="5.57539">
        <ele>374.4</ele>
        <time>2022-03-04T18:38:26Z</time>
      </trkpt>
      <trkpt lat="46.62586" lon="5.57534">
        <ele>374</ele>
        <time>2022-03-04T18:38:27Z</time>
      </trkpt>
      <trkpt lat="46.62591" lon="5.5753">
        <ele>373.6</ele>
        <time>2022-03-04T18:38:28Z</time>
      </trkpt>
      <trkpt lat="46.62596" lon="5.57527">
        <ele>373.2</ele>
        <time>2022-03-04T18:38:29Z</time>
      </trkpt>
      <trkpt lat="46.62601" lon="5.57525">
        <ele>372.8</ele>
        <time>2022-03-04T18:38:30Z</time>
      </trkpt>
      <trkpt lat="46.62605" lon="5.57526">
        <ele>372.2</ele>
        <time>2022-03-04T18:38:31Z</time>
      </trkpt>
      <trkpt lat="46.62608" lon="5.57527">
        <ele>372</ele>
        <time>2022-03-04T18:38:32Z</time>
      </trkpt>
      <trkpt lat="46.6261" lon="5.57531">
        <ele>371.6</ele>
        <time>2022-03-04T18:38:33Z</time>
      </trkpt>
      <trkpt lat="46.62611" lon="5.57537">
        <ele>371.2</ele>
        <time>2022-03-04T18:38:34Z</time>
      </trkpt>
      <trkpt lat="46.6261" lon="5.57543">
        <ele>370.8</ele>
        <time>2022-03-04T18:38:35Z</time>
      </trkpt>
      <trkpt lat="46.62608" lon="5.57549">
        <ele>370.6</ele>
        <time>2022-03-04T18:38:36Z</time>
      </trkpt>
      <trkpt lat="46.62604" lon="5.57555">
        <ele>370.2</ele>
        <time>2022-03-04T18:38:37Z</time>
      </trkpt>
      <trkpt lat="46.626" lon="5.5756">
        <ele>370</ele>
        <time>2022-03-04T18:38:38Z</time>
      </trkpt>
      <trkpt lat="46.62596" lon="5.57565">
        <ele>370</ele>
        <time>2022-03-04T18:38:39Z</time>
      </trkpt>
      <trkpt lat="46.62591" lon="5.5757">
        <ele>369.4</ele>
        <time>2022-03-04T18:38:40Z</time>
      </trkpt>
      <trkpt lat="46.62586" lon="5.57574">
        <ele>369.2</ele>
        <time>2022-03-04T18:38:41Z</time>
      </trkpt>
      <trkpt lat="46.62581" lon="5.57579">
        <ele>369</ele>
        <time>2022-03-04T18:38:42Z</time>
      </trkpt>
      <trkpt lat="46.62576" lon="5.57585">
        <ele>368.8</ele>
        <time>2022-03-04T18:38:43Z</time>
      </trkpt>
      <trkpt lat="46.62571" lon="5.5759">
        <ele>368.4</ele>
        <time>2022-03-04T18:38:44Z</time>
      </trkpt>
      <trkpt lat="46.62567" lon="5.57595">
        <ele>368</ele>
        <time>2022-03-04T18:38:45Z</time>
      </trkpt>
      <trkpt lat="46.62563" lon="5.576">
        <ele>367.8</ele>
        <time>2022-03-04T18:38:46Z</time>
      </trkpt>
      <trkpt lat="46.62559" lon="5.57604">
        <ele>367.4</ele>
        <time>2022-03-04T18:38:47Z</time>
      </trkpt>
      <trkpt lat="46.62557" lon="5.57607">
        <ele>367.2</ele>
        <time>2022-03-04T18:38:48Z</time>
      </trkpt>
      <trkpt lat="46.62555" lon="5.57609">
        <ele>367</ele>
        <time>2022-03-04T18:38:49Z</time>
      </trkpt>
      <trkpt lat="46.62555" lon="5.57611">
        <ele>367</ele>
        <time>2022-03-04T18:38:50Z</time>
      </trkpt>
      <trkpt lat="46.62556" lon="5.57613">
        <ele>366.6</ele>
        <time>2022-03-04T18:38:51Z</time>
      </trkpt>
      <trkpt lat="46.62558" lon="5.57614">
        <ele>366.2</ele>
        <time>2022-03-04T18:38:52Z</time>
      </trkpt>
      <trkpt lat="46.62561" lon="5.57615">
        <ele>366</ele>
        <time>2022-03-04T18:38:53Z</time>
      </trkpt>
      <trkpt lat="46.62564" lon="5.57616">
        <ele>365.4</ele>
        <time>2022-03-04T18:38:54Z</time>
      </trkpt>
      <trkpt lat="46.62568" lon="5.57617">
        <ele>364.8</ele>
        <time>2022-03-04T18:38:55Z</time>
      </trkpt>
      <trkpt lat="46.62573" lon="5.57617">
        <ele>364.2</ele>
        <time>2022-03-04T18:38:56Z</time>
      </trkpt>
      <trkpt lat="46.62577" lon="5.57618">
        <ele>363.4</ele>
        <time>2022-03-04T18:38:57Z</time>
      </trkpt>
      <trkpt lat="46.62583" lon="5.5762">
        <ele>362.4</ele>
        <time>2022-03-04T18:38:58Z</time>
      </trkpt>
      <trkpt lat="46.62589" lon="5.57621">
        <ele>361.4</ele>
        <time>2022-03-04T18:38:59Z</time>
      </trkpt>
      <trkpt lat="46.62594" lon="5.57623">
        <ele>360.4</ele>
        <time>2022-03-04T18:39:00Z</time>
      </trkpt>
      <trkpt lat="46.62599" lon="5.57623">
        <ele>359.6</ele>
        <time>2022-03-04T18:39:01Z</time>
      </trkpt>
      <trkpt lat="46.62603" lon="5.57623">
        <ele>358.6</ele>
        <time>2022-03-04T18:39:02Z</time>
      </trkpt>
      <trkpt lat="46.62607" lon="5.57624">
        <ele>357.8</ele>
        <time>2022-03-04T18:39:03Z</time>
      </trkpt>
      <trkpt lat="46.62611" lon="5.57626">
        <ele>357</ele>
        <time>2022-03-04T18:39:04Z</time>
      </trkpt>
      <trkpt lat="46.62615" lon="5.57627">
        <ele>356.4</ele>
        <time>2022-03-04T18:39:05Z</time>
      </trkpt>
      <trkpt lat="46.62619" lon="5.57629">
        <ele>355.6</ele>
        <time>2022-03-04T18:39:06Z</time>
      </trkpt>
      <trkpt lat="46.62623" lon="5.57633">
        <ele>355</ele>
        <time>2022-03-04T18:39:07Z</time>
      </trkpt>
      <trkpt lat="46.62627" lon="5.57637">
        <ele>354.2</ele>
        <time>2022-03-04T18:39:08Z</time>
      </trkpt>
      <trkpt lat="46.62631" lon="5.57642">
        <ele>353.6</ele>
        <time>2022-03-04T18:39:09Z</time>
      </trkpt>
      <trkpt lat="46.62635" lon="5.57646">
        <ele>352.8</ele>
        <time>2022-03-04T18:39:10Z</time>
      </trkpt>
      <trkpt lat="46.6264" lon="5.5765">
        <ele>352.2</ele>
        <time>2022-03-04T18:39:11Z</time>
      </trkpt>
      <trkpt lat="46.62644" lon="5.57653">
        <ele>351.4</ele>
        <time>2022-03-04T18:39:12Z</time>
      </trkpt>
      <trkpt lat="46.62649" lon="5.57656">
        <ele>350.6</ele>
        <time>2022-03-04T18:39:13Z</time>
      </trkpt>
      <trkpt lat="46.62654" lon="5.57658">
        <ele>350</ele>
        <time>2022-03-04T18:39:14Z</time>
      </trkpt>
      <trkpt lat="46.62658" lon="5.57661">
        <ele>349.4</ele>
        <time>2022-03-04T18:39:15Z</time>
      </trkpt>
      <trkpt lat="46.62662" lon="5.57664">
        <ele>348.8</ele>
        <time>2022-03-04T18:39:16Z</time>
      </trkpt>
      <trkpt lat="46.62666" lon="5.57667">
        <ele>348.4</ele>
        <time>2022-03-04T18:39:17Z</time>
      </trkpt>
      <trkpt lat="46.62669" lon="5.57669">
        <ele>348</ele>
        <time>2022-03-04T18:39:18Z</time>
      </trkpt>
      <trkpt lat="46.62672" lon="5.57671">
        <ele>347.6</ele>
        <time>2022-03-04T18:39:19Z</time>
      </trkpt>
      <trkpt lat="46.62675" lon="5.57673">
        <ele>347.2</ele>
        <time>2022-03-04T18:39:20Z</time>
      </trkpt>
      <trkpt lat="46.62679" lon="5.57676">
        <ele>347</ele>
        <time>2022-03-04T18:39:21Z</time>
      </trkpt>
      <trkpt lat="46.62682" lon="5.57677">
        <ele>346.6</ele>
        <time>2022-03-04T18:39:22Z</time>
      </trkpt>
      <trkpt lat="46.62686" lon="5.57679">
        <ele>346.2</ele>
        <time>2022-03-04T18:39:23Z</time>
      </trkpt>
      <trkpt lat="46.62691" lon="5.57681">
        <ele>346</ele>
        <time>2022-03-04T18:39:24Z</time>
      </trkpt>
      <trkpt lat="46.62696" lon="5.57683">
        <ele>345.8</ele>
        <time>2022-03-04T18:39:25Z</time>
      </trkpt>
      <trkpt lat="46.62701" lon="5.57684">
        <ele>345.4</ele>
        <time>2022-03-04T18:39:26Z</time>
      </trkpt>
      <trkpt lat="46.62707" lon="5.57684">
        <ele>345.2</ele>
        <time>2022-03-04T18:39:27Z</time>
      </trkpt>
      <trkpt lat="46.62712" lon="5.57683">
        <ele>344.8</ele>
        <time>2022-03-04T18:39:28Z</time>
      </trkpt>
      <trkpt lat="46.62718" lon="5.57682">
        <ele>344.4</ele>
        <time>2022-03-04T18:39:29Z</time>
      </trkpt>
      <trkpt lat="46.62725" lon="5.57681">
        <ele>344</ele>
        <time>2022-03-04T18:39:30Z</time>
      </trkpt>
      <trkpt lat="46.62732" lon="5.57681">
        <ele>343.6</ele>
        <time>2022-03-04T18:39:31Z</time>
      </trkpt>
      <trkpt lat="46.62739" lon="5.5768">
        <ele>343.2</ele>
        <time>2022-03-04T18:39:32Z</time>
      </trkpt>
      <trkpt lat="46.62746" lon="5.57677">
        <ele>342.8</ele>
        <time>2022-03-04T18:39:33Z</time>
      </trkpt>
      <trkpt lat="46.62753" lon="5.57674">
        <ele>342.4</ele>
        <time>2022-03-04T18:39:34Z</time>
      </trkpt>
      <trkpt lat="46.62759" lon="5.5767">
        <ele>342</ele>
        <time>2022-03-04T18:39:35Z</time>
      </trkpt>
      <trkpt lat="46.62766" lon="5.57665">
        <ele>341.8</ele>
        <time>2022-03-04T18:39:36Z</time>
      </trkpt>
      <trkpt lat="46.62772" lon="5.57659">
        <ele>341.6</ele>
        <time>2022-03-04T18:39:37Z</time>
      </trkpt>
      <trkpt lat="46.62777" lon="5.57652">
        <ele>341.6</ele>
        <time>2022-03-04T18:39:38Z</time>
      </trkpt>
      <trkpt lat="46.62782" lon="5.57644">
        <ele>341.2</ele>
        <time>2022-03-04T18:39:39Z</time>
      </trkpt>
      <trkpt lat="46.62786" lon="5.57636">
        <ele>341</ele>
        <time>2022-03-04T18:39:40Z</time>
      </trkpt>
      <trkpt lat="46.62789" lon="5.57628">
        <ele>341</ele>
        <time>2022-03-04T18:39:41Z</time>
      </trkpt>
      <trkpt lat="46.62792" lon="5.57621">
        <ele>341</ele>
        <time>2022-03-04T18:39:42Z</time>
      </trkpt>
      <trkpt lat="46.62795" lon="5.57614">
        <ele>340.8</ele>
        <time>2022-03-04T18:39:43Z</time>
      </trkpt>
      <trkpt lat="46.62799" lon="5.57608">
        <ele>340.8</ele>
        <time>2022-03-04T18:39:44Z</time>
      </trkpt>
      <trkpt lat="46.62802" lon="5.57603">
        <ele>340.4</ele>
        <time>2022-03-04T18:39:45Z</time>
      </trkpt>
      <trkpt lat="46.62805" lon="5.57598">
        <ele>340.4</ele>
        <time>2022-03-04T18:39:46Z</time>
      </trkpt>
      <trkpt lat="46.62808" lon="5.57595">
        <ele>340.2</ele>
        <time>2022-03-04T18:39:47Z</time>
      </trkpt>
      <trkpt lat="46.62812" lon="5.57591">
        <ele>340.2</ele>
        <time>2022-03-04T18:39:48Z</time>
      </trkpt>
      <trkpt lat="46.62815" lon="5.57587">
        <ele>340.2</ele>
        <time>2022-03-04T18:39:49Z</time>
      </trkpt>
      <trkpt lat="46.62818" lon="5.57583">
        <ele>340.2</ele>
        <time>2022-03-04T18:39:50Z</time>
      </trkpt>
      <trkpt lat="46.6282" lon="5.57578">
        <ele>340.2</ele>
        <time>2022-03-04T18:39:51Z</time>
      </trkpt>
      <trkpt lat="46.62822" lon="5.57572">
        <ele>340</ele>
        <time>2022-03-04T18:39:52Z</time>
      </trkpt>
      <trkpt lat="46.62823" lon="5.57566">
        <ele>340</ele>
        <time>2022-03-04T18:39:53Z</time>
      </trkpt>
      <trkpt lat="46.62824" lon="5.5756">
        <ele>340</ele>
        <time>2022-03-04T18:39:54Z</time>
      </trkpt>
      <trkpt lat="46.62825" lon="5.57553">
        <ele>339.8</ele>
        <time>2022-03-04T18:39:55Z</time>
      </trkpt>
      <trkpt lat="46.62826" lon="5.57546">
        <ele>339.8</ele>
        <time>2022-03-04T18:39:56Z</time>
      </trkpt>
      <trkpt lat="46.62827" lon="5.57539">
        <ele>339.8</ele>
        <time>2022-03-04T18:39:57Z</time>
      </trkpt>
      <trkpt lat="46.62827" lon="5.57532">
        <ele>339.4</ele>
        <time>2022-03-04T18:39:58Z</time>
      </trkpt>
      <trkpt lat="46.62828" lon="5.57525">
        <ele>339.2</ele>
        <time>2022-03-04T18:39:59Z</time>
      </trkpt>
      <trkpt lat="46.6283" lon="5.57518">
        <ele>339.2</ele>
        <time>2022-03-04T18:40:00Z</time>
      </trkpt>
      <trkpt lat="46.62831" lon="5.57511">
        <ele>339</ele>
        <time>2022-03-04T18:40:01Z</time>
      </trkpt>
      <trkpt lat="46.62834" lon="5.57505">
        <ele>339</ele>
        <time>2022-03-04T18:40:02Z</time>
      </trkpt>
      <trkpt lat="46.62838" lon="5.575">
        <ele>338.6</ele>
        <time>2022-03-04T18:40:03Z</time>
      </trkpt>
      <trkpt lat="46.62842" lon="5.57495">
        <ele>338.6</ele>
        <time>2022-03-04T18:40:04Z</time>
      </trkpt>
      <trkpt lat="46.62847" lon="5.5749">
        <ele>338.4</ele>
        <time>2022-03-04T18:40:05Z</time>
      </trkpt>
      <trkpt lat="46.62851" lon="5.57486">
        <ele>338.4</ele>
        <time>2022-03-04T18:40:06Z</time>
      </trkpt>
      <trkpt lat="46.62857" lon="5.57483">
        <ele>338</ele>
        <time>2022-03-04T18:40:07Z</time>
      </trkpt>
      <trkpt lat="46.62862" lon="5.57479">
        <ele>337.8</ele>
        <time>2022-03-04T18:40:08Z</time>
      </trkpt>
      <trkpt lat="46.62867" lon="5.57475">
        <ele>337.8</ele>
        <time>2022-03-04T18:40:09Z</time>
      </trkpt>
      <trkpt lat="46.62872" lon="5.57471">
        <ele>337.6</ele>
        <time>2022-03-04T18:40:10Z</time>
      </trkpt>
      <trkpt lat="46.62877" lon="5.57467">
        <ele>337.2</ele>
        <time>2022-03-04T18:40:11Z</time>
      </trkpt>
      <trkpt lat="46.62882" lon="5.57462">
        <ele>337</ele>
        <time>2022-03-04T18:40:12Z</time>
      </trkpt>
      <trkpt lat="46.62887" lon="5.57457">
        <ele>337</ele>
        <time>2022-03-04T18:40:13Z</time>
      </trkpt>
      <trkpt lat="46.62893" lon="5.57452">
        <ele>336.8</ele>
        <time>2022-03-04T18:40:14Z</time>
      </trkpt>
      <trkpt lat="46.62898" lon="5.57447">
        <ele>336.6</ele>
        <time>2022-03-04T18:40:15Z</time>
      </trkpt>
      <trkpt lat="46.62904" lon="5.57442">
        <ele>336.4</ele>
        <time>2022-03-04T18:40:16Z</time>
      </trkpt>
      <trkpt lat="46.6291" lon="5.57437">
        <ele>336.4</ele>
        <time>2022-03-04T18:40:17Z</time>
      </trkpt>
      <trkpt lat="46.62916" lon="5.57432">
        <ele>336</ele>
        <time>2022-03-04T18:40:18Z</time>
      </trkpt>
      <trkpt lat="46.62922" lon="5.57427">
        <ele>336</ele>
        <time>2022-03-04T18:40:19Z</time>
      </trkpt>
      <trkpt lat="46.62927" lon="5.57422">
        <ele>335.6</ele>
        <time>2022-03-04T18:40:20Z</time>
      </trkpt>
      <trkpt lat="46.62933" lon="5.57417">
        <ele>335.4</ele>
        <time>2022-03-04T18:40:21Z</time>
      </trkpt>
      <trkpt lat="46.62939" lon="5.57412">
        <ele>335.2</ele>
        <time>2022-03-04T18:40:22Z</time>
      </trkpt>
      <trkpt lat="46.62945" lon="5.57407">
        <ele>335</ele>
        <time>2022-03-04T18:40:23Z</time>
      </trkpt>
      <trkpt lat="46.62951" lon="5.57403">
        <ele>334.6</ele>
        <time>2022-03-04T18:40:24Z</time>
      </trkpt>
      <trkpt lat="46.62957" lon="5.574">
        <ele>334.6</ele>
        <time>2022-03-04T18:40:25Z</time>
      </trkpt>
      <trkpt lat="46.62964" lon="5.57396">
        <ele>334.4</ele>
        <time>2022-03-04T18:40:26Z</time>
      </trkpt>
      <trkpt lat="46.62971" lon="5.57393">
        <ele>334</ele>
        <time>2022-03-04T18:40:27Z</time>
      </trkpt>
      <trkpt lat="46.62978" lon="5.57391">
        <ele>333.6</ele>
        <time>2022-03-04T18:40:28Z</time>
      </trkpt>
      <trkpt lat="46.62985" lon="5.57388">
        <ele>333.4</ele>
        <time>2022-03-04T18:40:29Z</time>
      </trkpt>
      <trkpt lat="46.62992" lon="5.57386">
        <ele>333.2</ele>
        <time>2022-03-04T18:40:30Z</time>
      </trkpt>
      <trkpt lat="46.62999" lon="5.57383">
        <ele>332.8</ele>
        <time>2022-03-04T18:40:31Z</time>
      </trkpt>
      <trkpt lat="46.63006" lon="5.5738">
        <ele>332.4</ele>
        <time>2022-03-04T18:40:32Z</time>
      </trkpt>
      <trkpt lat="46.63013" lon="5.57378">
        <ele>332</ele>
        <time>2022-03-04T18:40:33Z</time>
      </trkpt>
      <trkpt lat="46.63019" lon="5.57375">
        <ele>331.8</ele>
        <time>2022-03-04T18:40:34Z</time>
      </trkpt>
      <trkpt lat="46.63026" lon="5.57372">
        <ele>331.6</ele>
        <time>2022-03-04T18:40:35Z</time>
      </trkpt>
      <trkpt lat="46.63033" lon="5.5737">
        <ele>331.2</ele>
        <time>2022-03-04T18:40:36Z</time>
      </trkpt>
      <trkpt lat="46.6304" lon="5.57368">
        <ele>331</ele>
        <time>2022-03-04T18:40:37Z</time>
      </trkpt>
      <trkpt lat="46.63047" lon="5.57367">
        <ele>330.8</ele>
        <time>2022-03-04T18:40:38Z</time>
      </trkpt>
      <trkpt lat="46.63054" lon="5.57366">
        <ele>330.4</ele>
        <time>2022-03-04T18:40:39Z</time>
      </trkpt>
      <trkpt lat="46.63062" lon="5.57365">
        <ele>330.2</ele>
        <time>2022-03-04T18:40:40Z</time>
      </trkpt>
      <trkpt lat="46.63069" lon="5.57365">
        <ele>329.8</ele>
        <time>2022-03-04T18:40:41Z</time>
      </trkpt>
      <trkpt lat="46.63077" lon="5.57365">
        <ele>329.6</ele>
        <time>2022-03-04T18:40:42Z</time>
      </trkpt>
      <trkpt lat="46.63085" lon="5.57365">
        <ele>329.2</ele>
        <time>2022-03-04T18:40:43Z</time>
      </trkpt>
      <trkpt lat="46.63093" lon="5.57365">
        <ele>329</ele>
        <time>2022-03-04T18:40:44Z</time>
      </trkpt>
      <trkpt lat="46.63101" lon="5.57364">
        <ele>328.8</ele>
        <time>2022-03-04T18:40:45Z</time>
      </trkpt>
      <trkpt lat="46.63109" lon="5.57364">
        <ele>328.4</ele>
        <time>2022-03-04T18:40:46Z</time>
      </trkpt>
      <trkpt lat="46.63117" lon="5.57363">
        <ele>328.4</ele>
        <time>2022-03-04T18:40:47Z</time>
      </trkpt>
      <trkpt lat="46.63125" lon="5.57362">
        <ele>328.2</ele>
        <time>2022-03-04T18:40:48Z</time>
      </trkpt>
      <trkpt lat="46.63132" lon="5.5736">
        <ele>328.2</ele>
        <time>2022-03-04T18:40:49Z</time>
      </trkpt>
      <trkpt lat="46.63139" lon="5.57357">
        <ele>328.2</ele>
        <time>2022-03-04T18:40:50Z</time>
      </trkpt>
      <trkpt lat="46.63146" lon="5.57352">
        <ele>328.2</ele>
        <time>2022-03-04T18:40:51Z</time>
      </trkpt>
      <trkpt lat="46.63152" lon="5.57347">
        <ele>328.2</ele>
        <time>2022-03-04T18:40:52Z</time>
      </trkpt>
      <trkpt lat="46.63158" lon="5.57342">
        <ele>327.8</ele>
        <time>2022-03-04T18:40:53Z</time>
      </trkpt>
      <trkpt lat="46.63164" lon="5.57337">
        <ele>327.8</ele>
        <time>2022-03-04T18:40:54Z</time>
      </trkpt>
      <trkpt lat="46.6317" lon="5.57331">
        <ele>327.8</ele>
        <time>2022-03-04T18:40:55Z</time>
      </trkpt>
      <trkpt lat="46.63175" lon="5.57326">
        <ele>327.8</ele>
        <time>2022-03-04T18:40:56Z</time>
      </trkpt>
      <trkpt lat="46.6318" lon="5.57321">
        <ele>327.8</ele>
        <time>2022-03-04T18:40:57Z</time>
      </trkpt>
      <trkpt lat="46.63185" lon="5.57315">
        <ele>327.8</ele>
        <time>2022-03-04T18:40:58Z</time>
      </trkpt>
      <trkpt lat="46.6319" lon="5.5731">
        <ele>327.8</ele>
        <time>2022-03-04T18:40:59Z</time>
      </trkpt>
      <trkpt lat="46.63194" lon="5.57304">
        <ele>327.8</ele>
        <time>2022-03-04T18:41:00Z</time>
      </trkpt>
      <trkpt lat="46.63199" lon="5.57299">
        <ele>327.8</ele>
        <time>2022-03-04T18:41:01Z</time>
      </trkpt>
      <trkpt lat="46.63203" lon="5.57294">
        <ele>328.2</ele>
        <time>2022-03-04T18:41:02Z</time>
      </trkpt>
      <trkpt lat="46.63208" lon="5.57288">
        <ele>328.2</ele>
        <time>2022-03-04T18:41:03Z</time>
      </trkpt>
      <trkpt lat="46.63212" lon="5.57284">
        <ele>328.2</ele>
        <time>2022-03-04T18:41:04Z</time>
      </trkpt>
      <trkpt lat="46.63217" lon="5.57278">
        <ele>328.4</ele>
        <time>2022-03-04T18:41:05Z</time>
      </trkpt>
      <trkpt lat="46.63221" lon="5.57274">
        <ele>328.4</ele>
        <time>2022-03-04T18:41:06Z</time>
      </trkpt>
      <trkpt lat="46.63226" lon="5.57269">
        <ele>328.4</ele>
        <time>2022-03-04T18:41:07Z</time>
      </trkpt>
      <trkpt lat="46.63231" lon="5.57265">
        <ele>328.4</ele>
        <time>2022-03-04T18:41:08Z</time>
      </trkpt>
      <trkpt lat="46.63235" lon="5.5726">
        <ele>328.4</ele>
        <time>2022-03-04T18:41:09Z</time>
      </trkpt>
      <trkpt lat="46.6324" lon="5.57255">
        <ele>328.4</ele>
        <time>2022-03-04T18:41:10Z</time>
      </trkpt>
      <trkpt lat="46.63245" lon="5.57251">
        <ele>328.4</ele>
        <time>2022-03-04T18:41:11Z</time>
      </trkpt>
      <trkpt lat="46.6325" lon="5.57247">
        <ele>328.4</ele>
        <time>2022-03-04T18:41:12Z</time>
      </trkpt>
      <trkpt lat="46.63255" lon="5.57243">
        <ele>328.4</ele>
        <time>2022-03-04T18:41:13Z</time>
      </trkpt>
      <trkpt lat="46.6326" lon="5.5724">
        <ele>328.4</ele>
        <time>2022-03-04T18:41:14Z</time>
      </trkpt>
      <trkpt lat="46.63265" lon="5.57236">
        <ele>328.4</ele>
        <time>2022-03-04T18:41:15Z</time>
      </trkpt>
      <trkpt lat="46.6327" lon="5.57232">
        <ele>328.4</ele>
        <time>2022-03-04T18:41:16Z</time>
      </trkpt>
      <trkpt lat="46.63275" lon="5.57229">
        <ele>328.4</ele>
        <time>2022-03-04T18:41:17Z</time>
      </trkpt>
      <trkpt lat="46.6328" lon="5.57225">
        <ele>328.4</ele>
        <time>2022-03-04T18:41:18Z</time>
      </trkpt>
      <trkpt lat="46.63285" lon="5.57222">
        <ele>328.4</ele>
        <time>2022-03-04T18:41:19Z</time>
      </trkpt>
      <trkpt lat="46.6329" lon="5.57219">
        <ele>328.4</ele>
        <time>2022-03-04T18:41:20Z</time>
      </trkpt>
      <trkpt lat="46.63295" lon="5.57215">
        <ele>328.4</ele>
        <time>2022-03-04T18:41:21Z</time>
      </trkpt>
      <trkpt lat="46.633" lon="5.57212">
        <ele>328.4</ele>
        <time>2022-03-04T18:41:22Z</time>
      </trkpt>
      <trkpt lat="46.63305" lon="5.57208">
        <ele>328.4</ele>
        <time>2022-03-04T18:41:23Z</time>
      </trkpt>
      <trkpt lat="46.6331" lon="5.57205">
        <ele>328.4</ele>
        <time>2022-03-04T18:41:24Z</time>
      </trkpt>
      <trkpt lat="46.63315" lon="5.57201">
        <ele>328.4</ele>
        <time>2022-03-04T18:41:25Z</time>
      </trkpt>
      <trkpt lat="46.6332" lon="5.57198">
        <ele>328.4</ele>
        <time>2022-03-04T18:41:26Z</time>
      </trkpt>
      <trkpt lat="46.63325" lon="5.57194">
        <ele>328.4</ele>
        <time>2022-03-04T18:41:27Z</time>
      </trkpt>
      <trkpt lat="46.6333" lon="5.5719">
        <ele>328.4</ele>
        <time>2022-03-04T18:41:28Z</time>
      </trkpt>
      <trkpt lat="46.63334" lon="5.57186">
        <ele>328.4</ele>
        <time>2022-03-04T18:41:29Z</time>
      </trkpt>
      <trkpt lat="46.6334" lon="5.57181">
        <ele>328.4</ele>
        <time>2022-03-04T18:41:30Z</time>
      </trkpt>
      <trkpt lat="46.63345" lon="5.57176">
        <ele>328.4</ele>
        <time>2022-03-04T18:41:31Z</time>
      </trkpt>
      <trkpt lat="46.6335" lon="5.57172">
        <ele>328</ele>
        <time>2022-03-04T18:41:32Z</time>
      </trkpt>
      <trkpt lat="46.63355" lon="5.57167">
        <ele>328</ele>
        <time>2022-03-04T18:41:33Z</time>
      </trkpt>
      <trkpt lat="46.63361" lon="5.57162">
        <ele>327.8</ele>
        <time>2022-03-04T18:41:34Z</time>
      </trkpt>
      <trkpt lat="46.63366" lon="5.57157">
        <ele>327.8</ele>
        <time>2022-03-04T18:41:35Z</time>
      </trkpt>
      <trkpt lat="46.63371" lon="5.57152">
        <ele>327.8</ele>
        <time>2022-03-04T18:41:36Z</time>
      </trkpt>
      <trkpt lat="46.63377" lon="5.57148">
        <ele>327.6</ele>
        <time>2022-03-04T18:41:37Z</time>
      </trkpt>
      <trkpt lat="46.63382" lon="5.57143">
        <ele>327.6</ele>
        <time>2022-03-04T18:41:38Z</time>
      </trkpt>
      <trkpt lat="46.63388" lon="5.57138">
        <ele>327.4</ele>
        <time>2022-03-04T18:41:39Z</time>
      </trkpt>
      <trkpt lat="46.63393" lon="5.57133">
        <ele>327.4</ele>
        <time>2022-03-04T18:41:40Z</time>
      </trkpt>
      <trkpt lat="46.63399" lon="5.57129">
        <ele>327.4</ele>
        <time>2022-03-04T18:41:41Z</time>
      </trkpt>
      <trkpt lat="46.63405" lon="5.57124">
        <ele>327</ele>
        <time>2022-03-04T18:41:42Z</time>
      </trkpt>
      <trkpt lat="46.6341" lon="5.5712">
        <ele>327</ele>
        <time>2022-03-04T18:41:43Z</time>
      </trkpt>
      <trkpt lat="46.63416" lon="5.57115">
        <ele>327</ele>
        <time>2022-03-04T18:41:44Z</time>
      </trkpt>
      <trkpt lat="46.63421" lon="5.5711">
        <ele>327</ele>
        <time>2022-03-04T18:41:45Z</time>
      </trkpt>
      <trkpt lat="46.63427" lon="5.57106">
        <ele>327</ele>
        <time>2022-03-04T18:41:46Z</time>
      </trkpt>
      <trkpt lat="46.63432" lon="5.57102">
        <ele>327</ele>
        <time>2022-03-04T18:41:47Z</time>
      </trkpt>
      <trkpt lat="46.63437" lon="5.57097">
        <ele>327</ele>
        <time>2022-03-04T18:41:48Z</time>
      </trkpt>
      <trkpt lat="46.63443" lon="5.57093">
        <ele>327</ele>
        <time>2022-03-04T18:41:49Z</time>
      </trkpt>
      <trkpt lat="46.63448" lon="5.57089">
        <ele>327</ele>
        <time>2022-03-04T18:41:50Z</time>
      </trkpt>
      <trkpt lat="46.63453" lon="5.57085">
        <ele>327</ele>
        <time>2022-03-04T18:41:51Z</time>
      </trkpt>
      <trkpt lat="46.63458" lon="5.57081">
        <ele>327</ele>
        <time>2022-03-04T18:41:52Z</time>
      </trkpt>
      <trkpt lat="46.63463" lon="5.57076">
        <ele>327</ele>
        <time>2022-03-04T18:41:53Z</time>
      </trkpt>
      <trkpt lat="46.63469" lon="5.57072">
        <ele>327</ele>
        <time>2022-03-04T18:41:54Z</time>
      </trkpt>
      <trkpt lat="46.63474" lon="5.57068">
        <ele>326.8</ele>
        <time>2022-03-04T18:41:55Z</time>
      </trkpt>
      <trkpt lat="46.63479" lon="5.57064">
        <ele>326.8</ele>
        <time>2022-03-04T18:41:56Z</time>
      </trkpt>
      <trkpt lat="46.63484" lon="5.5706">
        <ele>326.8</ele>
        <time>2022-03-04T18:41:57Z</time>
      </trkpt>
      <trkpt lat="46.63489" lon="5.57056">
        <ele>326.6</ele>
        <time>2022-03-04T18:41:58Z</time>
      </trkpt>
      <trkpt lat="46.63495" lon="5.57051">
        <ele>326.6</ele>
        <time>2022-03-04T18:41:59Z</time>
      </trkpt>
      <trkpt lat="46.635" lon="5.57047">
        <ele>326.6</ele>
        <time>2022-03-04T18:42:00Z</time>
      </trkpt>
      <trkpt lat="46.63505" lon="5.57042">
        <ele>326.2</ele>
        <time>2022-03-04T18:42:01Z</time>
      </trkpt>
      <trkpt lat="46.6351" lon="5.57037">
        <ele>326.2</ele>
        <time>2022-03-04T18:42:02Z</time>
      </trkpt>
      <trkpt lat="46.63516" lon="5.57031">
        <ele>326</ele>
        <time>2022-03-04T18:42:03Z</time>
      </trkpt>
      <trkpt lat="46.63521" lon="5.57025">
        <ele>325.6</ele>
        <time>2022-03-04T18:42:04Z</time>
      </trkpt>
      <trkpt lat="46.63526" lon="5.57018">
        <ele>325.4</ele>
        <time>2022-03-04T18:42:05Z</time>
      </trkpt>
      <trkpt lat="46.63531" lon="5.57011">
        <ele>325.4</ele>
        <time>2022-03-04T18:42:06Z</time>
      </trkpt>
      <trkpt lat="46.63537" lon="5.57004">
        <ele>325</ele>
        <time>2022-03-04T18:42:07Z</time>
      </trkpt>
      <trkpt lat="46.63542" lon="5.56997">
        <ele>324.6</ele>
        <time>2022-03-04T18:42:08Z</time>
      </trkpt>
      <trkpt lat="46.63548" lon="5.56989">
        <ele>324.4</ele>
        <time>2022-03-04T18:42:09Z</time>
      </trkpt>
      <trkpt lat="46.63553" lon="5.5698">
        <ele>323.8</ele>
        <time>2022-03-04T18:42:10Z</time>
      </trkpt>
      <trkpt lat="46.63559" lon="5.56972">
        <ele>323.4</ele>
        <time>2022-03-04T18:42:11Z</time>
      </trkpt>
      <trkpt lat="46.63564" lon="5.56963">
        <ele>323</ele>
        <time>2022-03-04T18:42:12Z</time>
      </trkpt>
      <trkpt lat="46.63573" lon="5.56944">
        <ele>322.6</ele>
        <time>2022-03-04T18:42:13Z</time>
      </trkpt>
      <trkpt lat="46.63577" lon="5.56934">
        <ele>322.2</ele>
        <time>2022-03-04T18:42:14Z</time>
      </trkpt>
      <trkpt lat="46.63581" lon="5.56925">
        <ele>321.8</ele>
        <time>2022-03-04T18:42:15Z</time>
      </trkpt>
      <trkpt lat="46.63585" lon="5.56914">
        <ele>321.2</ele>
        <time>2022-03-04T18:42:16Z</time>
      </trkpt>
      <trkpt lat="46.63588" lon="5.56903">
        <ele>320.8</ele>
        <time>2022-03-04T18:42:17Z</time>
      </trkpt>
      <trkpt lat="46.63591" lon="5.56892">
        <ele>320.4</ele>
        <time>2022-03-04T18:42:18Z</time>
      </trkpt>
      <trkpt lat="46.63595" lon="5.5688">
        <ele>320</ele>
        <time>2022-03-04T18:42:19Z</time>
      </trkpt>
      <trkpt lat="46.63598" lon="5.56868">
        <ele>319.4</ele>
        <time>2022-03-04T18:42:20Z</time>
      </trkpt>
      <trkpt lat="46.63602" lon="5.56856">
        <ele>318.8</ele>
        <time>2022-03-04T18:42:21Z</time>
      </trkpt>
      <trkpt lat="46.63606" lon="5.56844">
        <ele>318.4</ele>
        <time>2022-03-04T18:42:22Z</time>
      </trkpt>
      <trkpt lat="46.6361" lon="5.56832">
        <ele>317.8</ele>
        <time>2022-03-04T18:42:23Z</time>
      </trkpt>
      <trkpt lat="46.63615" lon="5.5682">
        <ele>317.2</ele>
        <time>2022-03-04T18:42:24Z</time>
      </trkpt>
      <trkpt lat="46.63619" lon="5.56809">
        <ele>316.6</ele>
        <time>2022-03-04T18:42:25Z</time>
      </trkpt>
      <trkpt lat="46.63624" lon="5.568">
        <ele>316.2</ele>
        <time>2022-03-04T18:42:26Z</time>
      </trkpt>
      <trkpt lat="46.63629" lon="5.56791">
        <ele>315.6</ele>
        <time>2022-03-04T18:42:27Z</time>
      </trkpt>
      <trkpt lat="46.63635" lon="5.56782">
        <ele>315.2</ele>
        <time>2022-03-04T18:42:28Z</time>
      </trkpt>
      <trkpt lat="46.63642" lon="5.56774">
        <ele>314.8</ele>
        <time>2022-03-04T18:42:29Z</time>
      </trkpt>
      <trkpt lat="46.63649" lon="5.56766">
        <ele>314.4</ele>
        <time>2022-03-04T18:42:30Z</time>
      </trkpt>
      <trkpt lat="46.63656" lon="5.56758">
        <ele>313.8</ele>
        <time>2022-03-04T18:42:31Z</time>
      </trkpt>
      <trkpt lat="46.63663" lon="5.56751">
        <ele>313.4</ele>
        <time>2022-03-04T18:42:32Z</time>
      </trkpt>
      <trkpt lat="46.6367" lon="5.56745">
        <ele>313</ele>
        <time>2022-03-04T18:42:33Z</time>
      </trkpt>
      <trkpt lat="46.63678" lon="5.56739">
        <ele>312.4</ele>
        <time>2022-03-04T18:42:34Z</time>
      </trkpt>
      <trkpt lat="46.63686" lon="5.56733">
        <ele>312</ele>
        <time>2022-03-04T18:42:35Z</time>
      </trkpt>
      <trkpt lat="46.63694" lon="5.56727">
        <ele>311.4</ele>
        <time>2022-03-04T18:42:36Z</time>
      </trkpt>
      <trkpt lat="46.63703" lon="5.56722">
        <ele>310.8</ele>
        <time>2022-03-04T18:42:37Z</time>
      </trkpt>
      <trkpt lat="46.63711" lon="5.56715">
        <ele>310.2</ele>
        <time>2022-03-04T18:42:38Z</time>
      </trkpt>
      <trkpt lat="46.63719" lon="5.56708">
        <ele>309.6</ele>
        <time>2022-03-04T18:42:39Z</time>
      </trkpt>
      <trkpt lat="46.63726" lon="5.56702">
        <ele>309</ele>
        <time>2022-03-04T18:42:40Z</time>
      </trkpt>
      <trkpt lat="46.63733" lon="5.56695">
        <ele>308.2</ele>
        <time>2022-03-04T18:42:41Z</time>
      </trkpt>
      <trkpt lat="46.6374" lon="5.56689">
        <ele>307.6</ele>
        <time>2022-03-04T18:42:42Z</time>
      </trkpt>
      <trkpt lat="46.63746" lon="5.5668">
        <ele>307.2</ele>
        <time>2022-03-04T18:42:43Z</time>
      </trkpt>
      <trkpt lat="46.63753" lon="5.56672">
        <ele>306.6</ele>
        <time>2022-03-04T18:42:44Z</time>
      </trkpt>
      <trkpt lat="46.63759" lon="5.56663">
        <ele>306</ele>
        <time>2022-03-04T18:42:45Z</time>
      </trkpt>
      <trkpt lat="46.63765" lon="5.56653">
        <ele>305.6</ele>
        <time>2022-03-04T18:42:46Z</time>
      </trkpt>
      <trkpt lat="46.6377" lon="5.56642">
        <ele>305</ele>
        <time>2022-03-04T18:42:47Z</time>
      </trkpt>
      <trkpt lat="46.63775" lon="5.5663">
        <ele>304.4</ele>
        <time>2022-03-04T18:42:48Z</time>
      </trkpt>
      <trkpt lat="46.6378" lon="5.56619">
        <ele>304</ele>
        <time>2022-03-04T18:42:49Z</time>
      </trkpt>
      <trkpt lat="46.63783" lon="5.56608">
        <ele>303.4</ele>
        <time>2022-03-04T18:42:50Z</time>
      </trkpt>
      <trkpt lat="46.63787" lon="5.56596">
        <ele>303</ele>
        <time>2022-03-04T18:42:51Z</time>
      </trkpt>
      <trkpt lat="46.6379" lon="5.56585">
        <ele>302.4</ele>
        <time>2022-03-04T18:42:52Z</time>
      </trkpt>
      <trkpt lat="46.63793" lon="5.56573">
        <ele>301.8</ele>
        <time>2022-03-04T18:42:53Z</time>
      </trkpt>
      <trkpt lat="46.63795" lon="5.56562">
        <ele>301.2</ele>
        <time>2022-03-04T18:42:54Z</time>
      </trkpt>
      <trkpt lat="46.63798" lon="5.5655">
        <ele>300.8</ele>
        <time>2022-03-04T18:42:55Z</time>
      </trkpt>
      <trkpt lat="46.638" lon="5.56538">
        <ele>300.2</ele>
        <time>2022-03-04T18:42:56Z</time>
      </trkpt>
      <trkpt lat="46.63802" lon="5.56525">
        <ele>299.8</ele>
        <time>2022-03-04T18:42:57Z</time>
      </trkpt>
      <trkpt lat="46.63805" lon="5.56513">
        <ele>299.4</ele>
        <time>2022-03-04T18:42:58Z</time>
      </trkpt>
      <trkpt lat="46.63807" lon="5.56501">
        <ele>299</ele>
        <time>2022-03-04T18:42:59Z</time>
      </trkpt>
      <trkpt lat="46.6381" lon="5.5649">
        <ele>298.6</ele>
        <time>2022-03-04T18:43:00Z</time>
      </trkpt>
      <trkpt lat="46.63814" lon="5.5648">
        <ele>298.4</ele>
        <time>2022-03-04T18:43:01Z</time>
      </trkpt>
      <trkpt lat="46.63817" lon="5.5647">
        <ele>298.4</ele>
        <time>2022-03-04T18:43:02Z</time>
      </trkpt>
      <trkpt lat="46.63821" lon="5.56462">
        <ele>298.2</ele>
        <time>2022-03-04T18:43:03Z</time>
      </trkpt>
      <trkpt lat="46.63825" lon="5.56453">
        <ele>298.2</ele>
        <time>2022-03-04T18:43:04Z</time>
      </trkpt>
      <trkpt lat="46.63828" lon="5.56446">
        <ele>298.2</ele>
        <time>2022-03-04T18:43:05Z</time>
      </trkpt>
      <trkpt lat="46.63832" lon="5.5644">
        <ele>298.2</ele>
        <time>2022-03-04T18:43:06Z</time>
      </trkpt>
      <trkpt lat="46.63835" lon="5.56433">
        <ele>298.2</ele>
        <time>2022-03-04T18:43:07Z</time>
      </trkpt>
      <trkpt lat="46.63838" lon="5.56427">
        <ele>298.6</ele>
        <time>2022-03-04T18:43:08Z</time>
      </trkpt>
      <trkpt lat="46.6384" lon="5.56422">
        <ele>298.6</ele>
        <time>2022-03-04T18:43:09Z</time>
      </trkpt>
      <trkpt lat="46.63843" lon="5.56416">
        <ele>298.8</ele>
        <time>2022-03-04T18:43:10Z</time>
      </trkpt>
      <trkpt lat="46.63846" lon="5.5641">
        <ele>298.8</ele>
        <time>2022-03-04T18:43:11Z</time>
      </trkpt>
      <trkpt lat="46.6385" lon="5.56404">
        <ele>298.8</ele>
        <time>2022-03-04T18:43:12Z</time>
      </trkpt>
      <trkpt lat="46.63853" lon="5.56399">
        <ele>298.8</ele>
        <time>2022-03-04T18:43:13Z</time>
      </trkpt>
      <trkpt lat="46.63857" lon="5.56393">
        <ele>298.4</ele>
        <time>2022-03-04T18:43:14Z</time>
      </trkpt>
      <trkpt lat="46.63862" lon="5.56387">
        <ele>298.4</ele>
        <time>2022-03-04T18:43:15Z</time>
      </trkpt>
      <trkpt lat="46.63866" lon="5.5638">
        <ele>298.2</ele>
        <time>2022-03-04T18:43:16Z</time>
      </trkpt>
      <trkpt lat="46.6387" lon="5.56373">
        <ele>298</ele>
        <time>2022-03-04T18:43:17Z</time>
      </trkpt>
      <trkpt lat="46.63875" lon="5.56367">
        <ele>297.6</ele>
        <time>2022-03-04T18:43:18Z</time>
      </trkpt>
      <trkpt lat="46.6388" lon="5.56361">
        <ele>297.4</ele>
        <time>2022-03-04T18:43:19Z</time>
      </trkpt>
      <trkpt lat="46.63885" lon="5.56355">
        <ele>297.2</ele>
        <time>2022-03-04T18:43:20Z</time>
      </trkpt>
      <trkpt lat="46.63891" lon="5.5635">
        <ele>297</ele>
        <time>2022-03-04T18:43:21Z</time>
      </trkpt>
      <trkpt lat="46.63897" lon="5.56345">
        <ele>296.6</ele>
        <time>2022-03-04T18:43:22Z</time>
      </trkpt>
      <trkpt lat="46.63904" lon="5.56341">
        <ele>296.4</ele>
        <time>2022-03-04T18:43:23Z</time>
      </trkpt>
      <trkpt lat="46.63911" lon="5.56338">
        <ele>296.2</ele>
        <time>2022-03-04T18:43:24Z</time>
      </trkpt>
      <trkpt lat="46.63917" lon="5.56335">
        <ele>295.8</ele>
        <time>2022-03-04T18:43:25Z</time>
      </trkpt>
      <trkpt lat="46.63923" lon="5.56333">
        <ele>295.6</ele>
        <time>2022-03-04T18:43:26Z</time>
      </trkpt>
      <trkpt lat="46.6393" lon="5.56331">
        <ele>295.2</ele>
        <time>2022-03-04T18:43:27Z</time>
      </trkpt>
      <trkpt lat="46.63936" lon="5.56329">
        <ele>294.8</ele>
        <time>2022-03-04T18:43:28Z</time>
      </trkpt>
      <trkpt lat="46.63943" lon="5.56327">
        <ele>294.4</ele>
        <time>2022-03-04T18:43:29Z</time>
      </trkpt>
      <trkpt lat="46.63948" lon="5.56324">
        <ele>294</ele>
        <time>2022-03-04T18:43:30Z</time>
      </trkpt>
      <trkpt lat="46.63953" lon="5.56322">
        <ele>293.8</ele>
        <time>2022-03-04T18:43:31Z</time>
      </trkpt>
      <trkpt lat="46.63958" lon="5.56319">
        <ele>293.4</ele>
        <time>2022-03-04T18:43:32Z</time>
      </trkpt>
      <trkpt lat="46.63962" lon="5.56316">
        <ele>293.2</ele>
        <time>2022-03-04T18:43:33Z</time>
      </trkpt>
      <trkpt lat="46.63966" lon="5.56313">
        <ele>292.8</ele>
        <time>2022-03-04T18:43:34Z</time>
      </trkpt>
      <trkpt lat="46.63971" lon="5.5631">
        <ele>292.6</ele>
        <time>2022-03-04T18:43:35Z</time>
      </trkpt>
      <trkpt lat="46.63975" lon="5.56306">
        <ele>292.4</ele>
        <time>2022-03-04T18:43:36Z</time>
      </trkpt>
      <trkpt lat="46.63979" lon="5.56302">
        <ele>292.2</ele>
        <time>2022-03-04T18:43:37Z</time>
      </trkpt>
      <trkpt lat="46.63983" lon="5.56298">
        <ele>291.8</ele>
        <time>2022-03-04T18:43:38Z</time>
      </trkpt>
      <trkpt lat="46.63988" lon="5.56293">
        <ele>291.8</ele>
        <time>2022-03-04T18:43:39Z</time>
      </trkpt>
      <trkpt lat="46.63992" lon="5.56288">
        <ele>291.6</ele>
        <time>2022-03-04T18:43:40Z</time>
      </trkpt>
      <trkpt lat="46.63996" lon="5.56282">
        <ele>291.6</ele>
        <time>2022-03-04T18:43:41Z</time>
      </trkpt>
      <trkpt lat="46.64" lon="5.56276">
        <ele>291.2</ele>
        <time>2022-03-04T18:43:42Z</time>
      </trkpt>
      <trkpt lat="46.64004" lon="5.5627">
        <ele>290.8</ele>
        <time>2022-03-04T18:43:43Z</time>
      </trkpt>
      <trkpt lat="46.64007" lon="5.56264">
        <ele>290.8</ele>
        <time>2022-03-04T18:43:44Z</time>
      </trkpt>
      <trkpt lat="46.64011" lon="5.56257">
        <ele>290.4</ele>
        <time>2022-03-04T18:43:45Z</time>
      </trkpt>
      <trkpt lat="46.64015" lon="5.5625">
        <ele>290.2</ele>
        <time>2022-03-04T18:43:46Z</time>
      </trkpt>
      <trkpt lat="46.64019" lon="5.56243">
        <ele>290</ele>
        <time>2022-03-04T18:43:47Z</time>
      </trkpt>
      <trkpt lat="46.64022" lon="5.56235">
        <ele>290</ele>
        <time>2022-03-04T18:43:48Z</time>
      </trkpt>
      <trkpt lat="46.64025" lon="5.56227">
        <ele>289.6</ele>
        <time>2022-03-04T18:43:49Z</time>
      </trkpt>
      <trkpt lat="46.64027" lon="5.56218">
        <ele>289.2</ele>
        <time>2022-03-04T18:43:50Z</time>
      </trkpt>
      <trkpt lat="46.64029" lon="5.56209">
        <ele>289</ele>
        <time>2022-03-04T18:43:51Z</time>
      </trkpt>
      <trkpt lat="46.64032" lon="5.562">
        <ele>288.8</ele>
        <time>2022-03-04T18:43:52Z</time>
      </trkpt>
      <trkpt lat="46.64034" lon="5.5619">
        <ele>288.4</ele>
        <time>2022-03-04T18:43:53Z</time>
      </trkpt>
      <trkpt lat="46.64036" lon="5.5618">
        <ele>288.2</ele>
        <time>2022-03-04T18:43:54Z</time>
      </trkpt>
      <trkpt lat="46.64038" lon="5.5617">
        <ele>287.8</ele>
        <time>2022-03-04T18:43:55Z</time>
      </trkpt>
      <trkpt lat="46.6404" lon="5.5616">
        <ele>287.6</ele>
        <time>2022-03-04T18:43:56Z</time>
      </trkpt>
      <trkpt lat="46.64042" lon="5.5615">
        <ele>287.2</ele>
        <time>2022-03-04T18:43:57Z</time>
      </trkpt>
      <trkpt lat="46.64044" lon="5.5614">
        <ele>286.8</ele>
        <time>2022-03-04T18:43:58Z</time>
      </trkpt>
      <trkpt lat="46.64046" lon="5.56129">
        <ele>286.6</ele>
        <time>2022-03-04T18:43:59Z</time>
      </trkpt>
      <trkpt lat="46.64049" lon="5.56119">
        <ele>286.2</ele>
        <time>2022-03-04T18:44:00Z</time>
      </trkpt>
      <trkpt lat="46.64051" lon="5.56109">
        <ele>286</ele>
        <time>2022-03-04T18:44:01Z</time>
      </trkpt>
      <trkpt lat="46.64054" lon="5.56099">
        <ele>285.8</ele>
        <time>2022-03-04T18:44:02Z</time>
      </trkpt>
      <trkpt lat="46.64058" lon="5.56089">
        <ele>285.4</ele>
        <time>2022-03-04T18:44:03Z</time>
      </trkpt>
      <trkpt lat="46.64062" lon="5.5608">
        <ele>285.2</ele>
        <time>2022-03-04T18:44:04Z</time>
      </trkpt>
      <trkpt lat="46.64067" lon="5.56072">
        <ele>285</ele>
        <time>2022-03-04T18:44:05Z</time>
      </trkpt>
      <trkpt lat="46.64071" lon="5.56063">
        <ele>284.6</ele>
        <time>2022-03-04T18:44:06Z</time>
      </trkpt>
      <trkpt lat="46.64076" lon="5.56055">
        <ele>284.6</ele>
        <time>2022-03-04T18:44:07Z</time>
      </trkpt>
      <trkpt lat="46.64082" lon="5.56047">
        <ele>284.4</ele>
        <time>2022-03-04T18:44:08Z</time>
      </trkpt>
      <trkpt lat="46.64087" lon="5.56039">
        <ele>284</ele>
        <time>2022-03-04T18:44:09Z</time>
      </trkpt>
      <trkpt lat="46.64092" lon="5.56032">
        <ele>283.8</ele>
        <time>2022-03-04T18:44:10Z</time>
      </trkpt>
      <trkpt lat="46.64098" lon="5.56025">
        <ele>283.4</ele>
        <time>2022-03-04T18:44:11Z</time>
      </trkpt>
      <trkpt lat="46.64103" lon="5.56017">
        <ele>283.2</ele>
        <time>2022-03-04T18:44:12Z</time>
      </trkpt>
      <trkpt lat="46.64109" lon="5.5601">
        <ele>282.8</ele>
        <time>2022-03-04T18:44:13Z</time>
      </trkpt>
      <trkpt lat="46.64114" lon="5.56003">
        <ele>282.6</ele>
        <time>2022-03-04T18:44:14Z</time>
      </trkpt>
      <trkpt lat="46.64119" lon="5.55995">
        <ele>282.4</ele>
        <time>2022-03-04T18:44:15Z</time>
      </trkpt>
      <trkpt lat="46.64124" lon="5.55987">
        <ele>282</ele>
        <time>2022-03-04T18:44:16Z</time>
      </trkpt>
      <trkpt lat="46.64128" lon="5.55979">
        <ele>281.8</ele>
        <time>2022-03-04T18:44:17Z</time>
      </trkpt>
      <trkpt lat="46.64133" lon="5.5597">
        <ele>281.8</ele>
        <time>2022-03-04T18:44:18Z</time>
      </trkpt>
      <trkpt lat="46.64137" lon="5.55961">
        <ele>281.6</ele>
        <time>2022-03-04T18:44:19Z</time>
      </trkpt>
      <trkpt lat="46.64141" lon="5.55952">
        <ele>281.6</ele>
        <time>2022-03-04T18:44:20Z</time>
      </trkpt>
      <trkpt lat="46.64144" lon="5.55943">
        <ele>281.2</ele>
        <time>2022-03-04T18:44:21Z</time>
      </trkpt>
      <trkpt lat="46.64148" lon="5.55934">
        <ele>281.2</ele>
        <time>2022-03-04T18:44:22Z</time>
      </trkpt>
      <trkpt lat="46.64152" lon="5.55925">
        <ele>280.8</ele>
        <time>2022-03-04T18:44:23Z</time>
      </trkpt>
      <trkpt lat="46.64155" lon="5.55915">
        <ele>280.6</ele>
        <time>2022-03-04T18:44:24Z</time>
      </trkpt>
      <trkpt lat="46.64159" lon="5.55905">
        <ele>280.4</ele>
        <time>2022-03-04T18:44:25Z</time>
      </trkpt>
      <trkpt lat="46.64162" lon="5.55895">
        <ele>280.2</ele>
        <time>2022-03-04T18:44:26Z</time>
      </trkpt>
      <trkpt lat="46.64166" lon="5.55886">
        <ele>279.8</ele>
        <time>2022-03-04T18:44:27Z</time>
      </trkpt>
      <trkpt lat="46.6417" lon="5.55877">
        <ele>279.6</ele>
        <time>2022-03-04T18:44:28Z</time>
      </trkpt>
      <trkpt lat="46.64174" lon="5.55868">
        <ele>279.4</ele>
        <time>2022-03-04T18:44:29Z</time>
      </trkpt>
      <trkpt lat="46.64178" lon="5.55859">
        <ele>279.4</ele>
        <time>2022-03-04T18:44:30Z</time>
      </trkpt>
      <trkpt lat="46.64183" lon="5.5585">
        <ele>279</ele>
        <time>2022-03-04T18:44:31Z</time>
      </trkpt>
      <trkpt lat="46.64187" lon="5.55842">
        <ele>279</ele>
        <time>2022-03-04T18:44:32Z</time>
      </trkpt>
      <trkpt lat="46.64191" lon="5.55834">
        <ele>278.8</ele>
        <time>2022-03-04T18:44:33Z</time>
      </trkpt>
      <trkpt lat="46.64196" lon="5.55826">
        <ele>278.8</ele>
        <time>2022-03-04T18:44:34Z</time>
      </trkpt>
      <trkpt lat="46.642" lon="5.55818">
        <ele>278.8</ele>
        <time>2022-03-04T18:44:35Z</time>
      </trkpt>
      <trkpt lat="46.64204" lon="5.5581">
        <ele>278.8</ele>
        <time>2022-03-04T18:44:36Z</time>
      </trkpt>
      <trkpt lat="46.64209" lon="5.55802">
        <ele>278.8</ele>
        <time>2022-03-04T18:44:37Z</time>
      </trkpt>
      <trkpt lat="46.64213" lon="5.55794">
        <ele>278.4</ele>
        <time>2022-03-04T18:44:38Z</time>
      </trkpt>
      <trkpt lat="46.64217" lon="5.55786">
        <ele>278.4</ele>
        <time>2022-03-04T18:44:39Z</time>
      </trkpt>
      <trkpt lat="46.64221" lon="5.55777">
        <ele>278.4</ele>
        <time>2022-03-04T18:44:40Z</time>
      </trkpt>
      <trkpt lat="46.64225" lon="5.55769">
        <ele>278.2</ele>
        <time>2022-03-04T18:44:41Z</time>
      </trkpt>
      <trkpt lat="46.64229" lon="5.55761">
        <ele>278.2</ele>
        <time>2022-03-04T18:44:42Z</time>
      </trkpt>
      <trkpt lat="46.64233" lon="5.55753">
        <ele>278.2</ele>
        <time>2022-03-04T18:44:43Z</time>
      </trkpt>
      <trkpt lat="46.64238" lon="5.55746">
        <ele>278</ele>
        <time>2022-03-04T18:44:44Z</time>
      </trkpt>
      <trkpt lat="46.64242" lon="5.55738">
        <ele>278</ele>
        <time>2022-03-04T18:44:45Z</time>
      </trkpt>
      <trkpt lat="46.64246" lon="5.5573">
        <ele>278</ele>
        <time>2022-03-04T18:44:46Z</time>
      </trkpt>
      <trkpt lat="46.6425" lon="5.55723">
        <ele>278</ele>
        <time>2022-03-04T18:44:47Z</time>
      </trkpt>
      <trkpt lat="46.64254" lon="5.55715">
        <ele>277.8</ele>
        <time>2022-03-04T18:44:48Z</time>
      </trkpt>
      <trkpt lat="46.64258" lon="5.55707">
        <ele>277.8</ele>
        <time>2022-03-04T18:44:49Z</time>
      </trkpt>
      <trkpt lat="46.64262" lon="5.55699">
        <ele>277.8</ele>
        <time>2022-03-04T18:44:50Z</time>
      </trkpt>
      <trkpt lat="46.64267" lon="5.55691">
        <ele>277.4</ele>
        <time>2022-03-04T18:44:51Z</time>
      </trkpt>
      <trkpt lat="46.64271" lon="5.55683">
        <ele>277.4</ele>
        <time>2022-03-04T18:44:52Z</time>
      </trkpt>
      <trkpt lat="46.64275" lon="5.55675">
        <ele>277.4</ele>
        <time>2022-03-04T18:44:53Z</time>
      </trkpt>
      <trkpt lat="46.64279" lon="5.55668">
        <ele>277.2</ele>
        <time>2022-03-04T18:44:54Z</time>
      </trkpt>
      <trkpt lat="46.64283" lon="5.5566">
        <ele>277.2</ele>
        <time>2022-03-04T18:44:55Z</time>
      </trkpt>
      <trkpt lat="46.64287" lon="5.55652">
        <ele>277.2</ele>
        <time>2022-03-04T18:44:56Z</time>
      </trkpt>
      <trkpt lat="46.64291" lon="5.55644">
        <ele>276.8</ele>
        <time>2022-03-04T18:44:57Z</time>
      </trkpt>
      <trkpt lat="46.64295" lon="5.55636">
        <ele>276.8</ele>
        <time>2022-03-04T18:44:58Z</time>
      </trkpt>
      <trkpt lat="46.64299" lon="5.55628">
        <ele>276.8</ele>
        <time>2022-03-04T18:44:59Z</time>
      </trkpt>
      <trkpt lat="46.64303" lon="5.55621">
        <ele>276.6</ele>
        <time>2022-03-04T18:45:00Z</time>
      </trkpt>
      <trkpt lat="46.64307" lon="5.55613">
        <ele>276.6</ele>
        <time>2022-03-04T18:45:01Z</time>
      </trkpt>
      <trkpt lat="46.64311" lon="5.55605">
        <ele>276.4</ele>
        <time>2022-03-04T18:45:02Z</time>
      </trkpt>
      <trkpt lat="46.64315" lon="5.55598">
        <ele>276.4</ele>
        <time>2022-03-04T18:45:03Z</time>
      </trkpt>
      <trkpt lat="46.64319" lon="5.5559">
        <ele>276.4</ele>
        <time>2022-03-04T18:45:04Z</time>
      </trkpt>
      <trkpt lat="46.64323" lon="5.55582">
        <ele>276.2</ele>
        <time>2022-03-04T18:45:05Z</time>
      </trkpt>
      <trkpt lat="46.64327" lon="5.55574">
        <ele>276.2</ele>
        <time>2022-03-04T18:45:06Z</time>
      </trkpt>
      <trkpt lat="46.64331" lon="5.55567">
        <ele>276</ele>
        <time>2022-03-04T18:45:07Z</time>
      </trkpt>
      <trkpt lat="46.64335" lon="5.55559">
        <ele>276</ele>
        <time>2022-03-04T18:45:08Z</time>
      </trkpt>
      <trkpt lat="46.64339" lon="5.55551">
        <ele>275.6</ele>
        <time>2022-03-04T18:45:09Z</time>
      </trkpt>
      <trkpt lat="46.64343" lon="5.55543">
        <ele>275.6</ele>
        <time>2022-03-04T18:45:10Z</time>
      </trkpt>
      <trkpt lat="46.64347" lon="5.55536">
        <ele>275.6</ele>
        <time>2022-03-04T18:45:11Z</time>
      </trkpt>
      <trkpt lat="46.64351" lon="5.55528">
        <ele>275.4</ele>
        <time>2022-03-04T18:45:12Z</time>
      </trkpt>
      <trkpt lat="46.64355" lon="5.5552">
        <ele>275.4</ele>
        <time>2022-03-04T18:45:13Z</time>
      </trkpt>
      <trkpt lat="46.64359" lon="5.55512">
        <ele>275.4</ele>
        <time>2022-03-04T18:45:14Z</time>
      </trkpt>
      <trkpt lat="46.64363" lon="5.55504">
        <ele>275</ele>
        <time>2022-03-04T18:45:15Z</time>
      </trkpt>
      <trkpt lat="46.64367" lon="5.55497">
        <ele>275</ele>
        <time>2022-03-04T18:45:16Z</time>
      </trkpt>
      <trkpt lat="46.64371" lon="5.55489">
        <ele>275</ele>
        <time>2022-03-04T18:45:17Z</time>
      </trkpt>
      <trkpt lat="46.64375" lon="5.55482">
        <ele>274.8</ele>
        <time>2022-03-04T18:45:18Z</time>
      </trkpt>
      <trkpt lat="46.64379" lon="5.55474">
        <ele>274.8</ele>
        <time>2022-03-04T18:45:19Z</time>
      </trkpt>
      <trkpt lat="46.64384" lon="5.55467">
        <ele>274.6</ele>
        <time>2022-03-04T18:45:20Z</time>
      </trkpt>
      <trkpt lat="46.64388" lon="5.55459">
        <ele>274.6</ele>
        <time>2022-03-04T18:45:21Z</time>
      </trkpt>
      <trkpt lat="46.64392" lon="5.55452">
        <ele>274.6</ele>
        <time>2022-03-04T18:45:22Z</time>
      </trkpt>
      <trkpt lat="46.64397" lon="5.55445">
        <ele>274.2</ele>
        <time>2022-03-04T18:45:23Z</time>
      </trkpt>
      <trkpt lat="46.64401" lon="5.55438">
        <ele>274.2</ele>
        <time>2022-03-04T18:45:24Z</time>
      </trkpt>
      <trkpt lat="46.64405" lon="5.55431">
        <ele>274.2</ele>
        <time>2022-03-04T18:45:25Z</time>
      </trkpt>
      <trkpt lat="46.6441" lon="5.55424">
        <ele>274</ele>
        <time>2022-03-04T18:45:26Z</time>
      </trkpt>
      <trkpt lat="46.64415" lon="5.55418">
        <ele>274</ele>
        <time>2022-03-04T18:45:27Z</time>
      </trkpt>
      <trkpt lat="46.64419" lon="5.55411">
        <ele>273.8</ele>
        <time>2022-03-04T18:45:28Z</time>
      </trkpt>
      <trkpt lat="46.64424" lon="5.55405">
        <ele>273.6</ele>
        <time>2022-03-04T18:45:29Z</time>
      </trkpt>
      <trkpt lat="46.64429" lon="5.55399">
        <ele>273.6</ele>
        <time>2022-03-04T18:45:30Z</time>
      </trkpt>
      <trkpt lat="46.64434" lon="5.55393">
        <ele>273.2</ele>
        <time>2022-03-04T18:45:31Z</time>
      </trkpt>
      <trkpt lat="46.64438" lon="5.55387">
        <ele>273.2</ele>
        <time>2022-03-04T18:45:32Z</time>
      </trkpt>
      <trkpt lat="46.64443" lon="5.55382">
        <ele>273</ele>
        <time>2022-03-04T18:45:33Z</time>
      </trkpt>
      <trkpt lat="46.64448" lon="5.55376">
        <ele>273</ele>
        <time>2022-03-04T18:45:34Z</time>
      </trkpt>
      <trkpt lat="46.64453" lon="5.55371">
        <ele>273</ele>
        <time>2022-03-04T18:45:35Z</time>
      </trkpt>
      <trkpt lat="46.64458" lon="5.55365">
        <ele>273</ele>
        <time>2022-03-04T18:45:36Z</time>
      </trkpt>
      <trkpt lat="46.64463" lon="5.5536">
        <ele>272.8</ele>
        <time>2022-03-04T18:45:37Z</time>
      </trkpt>
      <trkpt lat="46.64468" lon="5.55354">
        <ele>272.8</ele>
        <time>2022-03-04T18:45:38Z</time>
      </trkpt>
      <trkpt lat="46.64473" lon="5.55348">
        <ele>272.8</ele>
        <time>2022-03-04T18:45:39Z</time>
      </trkpt>
      <trkpt lat="46.64477" lon="5.55342">
        <ele>272.8</ele>
        <time>2022-03-04T18:45:40Z</time>
      </trkpt>
      <trkpt lat="46.64482" lon="5.55335">
        <ele>272.8</ele>
        <time>2022-03-04T18:45:41Z</time>
      </trkpt>
      <trkpt lat="46.64486" lon="5.55329">
        <ele>272.4</ele>
        <time>2022-03-04T18:45:42Z</time>
      </trkpt>
      <trkpt lat="46.6449" lon="5.55322">
        <ele>272.4</ele>
        <time>2022-03-04T18:45:43Z</time>
      </trkpt>
      <trkpt lat="46.64494" lon="5.55315">
        <ele>272.2</ele>
        <time>2022-03-04T18:45:44Z</time>
      </trkpt>
      <trkpt lat="46.64498" lon="5.55308">
        <ele>272.2</ele>
        <time>2022-03-04T18:45:45Z</time>
      </trkpt>
      <trkpt lat="46.64502" lon="5.55302">
        <ele>272.2</ele>
        <time>2022-03-04T18:45:46Z</time>
      </trkpt>
      <trkpt lat="46.64506" lon="5.55295">
        <ele>272.2</ele>
        <time>2022-03-04T18:45:47Z</time>
      </trkpt>
      <trkpt lat="46.6451" lon="5.55288">
        <ele>272.2</ele>
        <time>2022-03-04T18:45:48Z</time>
      </trkpt>
      <trkpt lat="46.64514" lon="5.55281">
        <ele>272.2</ele>
        <time>2022-03-04T18:45:49Z</time>
      </trkpt>
      <trkpt lat="46.64518" lon="5.55275">
        <ele>272.2</ele>
        <time>2022-03-04T18:45:50Z</time>
      </trkpt>
      <trkpt lat="46.64521" lon="5.55268">
        <ele>272</ele>
        <time>2022-03-04T18:45:51Z</time>
      </trkpt>
      <trkpt lat="46.64525" lon="5.55261">
        <ele>272</ele>
        <time>2022-03-04T18:45:52Z</time>
      </trkpt>
      <trkpt lat="46.64525" lon="5.55261">
        <ele>272</ele>
        <time>2022-03-04T18:45:53Z</time>
      </trkpt>
      <trkpt lat="46.64528" lon="5.55254">
        <ele>272</ele>
        <time>2022-03-04T18:45:54Z</time>
      </trkpt>
      <trkpt lat="46.64532" lon="5.55248">
        <ele>271.8</ele>
        <time>2022-03-04T18:45:55Z</time>
      </trkpt>
      <trkpt lat="46.64536" lon="5.55242">
        <ele>271.8</ele>
        <time>2022-03-04T18:45:56Z</time>
      </trkpt>
      <trkpt lat="46.64539" lon="5.55235">
        <ele>271.8</ele>
        <time>2022-03-04T18:45:57Z</time>
      </trkpt>
      <trkpt lat="46.64542" lon="5.55229">
        <ele>271.8</ele>
        <time>2022-03-04T18:45:58Z</time>
      </trkpt>
      <trkpt lat="46.64545" lon="5.55222">
        <ele>271.8</ele>
        <time>2022-03-04T18:45:59Z</time>
      </trkpt>
      <trkpt lat="46.64549" lon="5.55215">
        <ele>271.8</ele>
        <time>2022-03-04T18:46:00Z</time>
      </trkpt>
      <trkpt lat="46.64552" lon="5.55208">
        <ele>271.8</ele>
        <time>2022-03-04T18:46:01Z</time>
      </trkpt>
      <trkpt lat="46.64555" lon="5.55202">
        <ele>271.6</ele>
        <time>2022-03-04T18:46:02Z</time>
      </trkpt>
      <trkpt lat="46.64558" lon="5.55194">
        <ele>271.6</ele>
        <time>2022-03-04T18:46:03Z</time>
      </trkpt>
      <trkpt lat="46.64561" lon="5.55187">
        <ele>271.6</ele>
        <time>2022-03-04T18:46:04Z</time>
      </trkpt>
      <trkpt lat="46.64564" lon="5.5518">
        <ele>271.2</ele>
        <time>2022-03-04T18:46:05Z</time>
      </trkpt>
      <trkpt lat="46.64567" lon="5.55173">
        <ele>271.2</ele>
        <time>2022-03-04T18:46:06Z</time>
      </trkpt>
      <trkpt lat="46.6457" lon="5.55165">
        <ele>271.2</ele>
        <time>2022-03-04T18:46:07Z</time>
      </trkpt>
      <trkpt lat="46.64574" lon="5.55158">
        <ele>271</ele>
        <time>2022-03-04T18:46:08Z</time>
      </trkpt>
      <trkpt lat="46.64577" lon="5.5515">
        <ele>271</ele>
        <time>2022-03-04T18:46:09Z</time>
      </trkpt>
      <trkpt lat="46.6458" lon="5.55143">
        <ele>270.6</ele>
        <time>2022-03-04T18:46:10Z</time>
      </trkpt>
      <trkpt lat="46.64583" lon="5.55135">
        <ele>270.4</ele>
        <time>2022-03-04T18:46:11Z</time>
      </trkpt>
      <trkpt lat="46.64587" lon="5.55127">
        <ele>270.2</ele>
        <time>2022-03-04T18:46:12Z</time>
      </trkpt>
      <trkpt lat="46.6459" lon="5.55119">
        <ele>270</ele>
        <time>2022-03-04T18:46:13Z</time>
      </trkpt>
      <trkpt lat="46.64593" lon="5.55111">
        <ele>269.6</ele>
        <time>2022-03-04T18:46:14Z</time>
      </trkpt>
      <trkpt lat="46.64597" lon="5.55102">
        <ele>269.4</ele>
        <time>2022-03-04T18:46:15Z</time>
      </trkpt>
      <trkpt lat="46.646" lon="5.55094">
        <ele>269.4</ele>
        <time>2022-03-04T18:46:16Z</time>
      </trkpt>
      <trkpt lat="46.64604" lon="5.55085">
        <ele>269.4</ele>
        <time>2022-03-04T18:46:17Z</time>
      </trkpt>
      <trkpt lat="46.64607" lon="5.55078">
        <ele>269</ele>
        <time>2022-03-04T18:46:18Z</time>
      </trkpt>
      <trkpt lat="46.64609" lon="5.55072">
        <ele>268.6</ele>
        <time>2022-03-04T18:46:19Z</time>
      </trkpt>
      <trkpt lat="46.64611" lon="5.55066">
        <ele>268.4</ele>
        <time>2022-03-04T18:46:20Z</time>
      </trkpt>
      <trkpt lat="46.64613" lon="5.55062">
        <ele>268</ele>
        <time>2022-03-04T18:46:21Z</time>
      </trkpt>
      <trkpt lat="46.64614" lon="5.55059">
        <ele>267.8</ele>
        <time>2022-03-04T18:46:22Z</time>
      </trkpt>
      <trkpt lat="46.64615" lon="5.55057">
        <ele>267.8</ele>
        <time>2022-03-04T18:46:23Z</time>
      </trkpt>
      <trkpt lat="46.64615" lon="5.55056">
        <ele>267.6</ele>
        <time>2022-03-04T18:46:24Z</time>
      </trkpt>
      <trkpt lat="46.64615" lon="5.55056">
        <ele>267.6</ele>
        <time>2022-03-04T18:46:25Z</time>
      </trkpt>
      <trkpt lat="46.64615" lon="5.55056">
        <ele>267.6</ele>
        <time>2022-03-04T18:46:26Z</time>
      </trkpt>
      <trkpt lat="46.64615" lon="5.55056">
        <ele>267.6</ele>
        <time>2022-03-04T18:46:28Z</time>
      </trkpt>
      <trkpt lat="46.64615" lon="5.55056">
        <ele>267.4</ele>
        <time>2022-03-04T18:46:29Z</time>
      </trkpt>
      <trkpt lat="46.64615" lon="5.55056">
        <ele>267.4</ele>
        <time>2022-03-04T18:46:30Z</time>
      </trkpt>
      <trkpt lat="46.64615" lon="5.55056">
        <ele>267.4</ele>
        <time>2022-03-04T18:46:31Z</time>
      </trkpt>
      <trkpt lat="46.64615" lon="5.55056">
        <ele>267.4</ele>
        <time>2022-03-04T18:46:32Z</time>
      </trkpt>
      <trkpt lat="46.64615" lon="5.55056">
        <ele>267.4</ele>
        <time>2022-03-04T18:46:33Z</time>
      </trkpt>
      <trkpt lat="46.64615" lon="5.55056">
        <ele>267.4</ele>
        <time>2022-03-04T18:46:49Z</time>
      </trkpt>
      <trkpt lat="46.64615" lon="5.55056">
        <ele>267.4</ele>
        <time>2022-03-04T18:46:50Z</time>
      </trkpt>
      <trkpt lat="46.64615" lon="5.55056">
        <ele>267.4</ele>
        <time>2022-03-04T18:46:51Z</time>
      </trkpt>
      <trkpt lat="46.64615" lon="5.55056">
        <ele>267.4</ele>
        <time>2022-03-04T18:46:58Z</time>
      </trkpt>
      <trkpt lat="46.64615" lon="5.55056">
        <ele>267.4</ele>
        <time>2022-03-04T18:46:59Z</time>
      </trkpt>
      <trkpt lat="46.64615" lon="5.55056">
        <ele>267.4</ele>
        <time>2022-03-04T18:47:00Z</time>
      </trkpt>
      <trkpt lat="46.64615" lon="5.55056">
        <ele>267.4</ele>
        <time>2022-03-04T18:47:03Z</time>
      </trkpt>
      <trkpt lat="46.64615" lon="5.55056">
        <ele>267.4</ele>
        <time>2022-03-04T18:47:04Z</time>
      </trkpt>
      <trkpt lat="46.64615" lon="5.55056">
        <ele>267.4</ele>
        <time>2022-03-04T18:47:13Z</time>
      </trkpt>
      <trkpt lat="46.64615" lon="5.55056">
        <ele>267.2</ele>
        <time>2022-03-04T18:47:14Z</time>
      </trkpt>
      <trkpt lat="46.64615" lon="5.55056">
        <ele>267.2</ele>
        <time>2022-03-04T18:47:19Z</time>
      </trkpt>
      <trkpt lat="46.64615" lon="5.55056">
        <ele>267.2</ele>
        <time>2022-03-04T18:47:20Z</time>
      </trkpt>
      <trkpt lat="46.64615" lon="5.55056">
        <ele>267.2</ele>
        <time>2022-03-04T18:47:21Z</time>
      </trkpt>
      <trkpt lat="46.64617" lon="5.55052">
        <ele>267.2</ele>
        <time>2022-03-04T18:47:22Z</time>
      </trkpt>
      <trkpt lat="46.64617" lon="5.55049">
        <ele>267.2</ele>
        <time>2022-03-04T18:47:23Z</time>
      </trkpt>
      <trkpt lat="46.64619" lon="5.55045">
        <ele>267.2</ele>
        <time>2022-03-04T18:47:24Z</time>
      </trkpt>
      <trkpt lat="46.6462" lon="5.55041">
        <ele>267.2</ele>
        <time>2022-03-04T18:47:25Z</time>
      </trkpt>
      <trkpt lat="46.64622" lon="5.55036">
        <ele>267.2</ele>
        <time>2022-03-04T18:47:26Z</time>
      </trkpt>
      <trkpt lat="46.64623" lon="5.5503">
        <ele>267.2</ele>
        <time>2022-03-04T18:47:27Z</time>
      </trkpt>
      <trkpt lat="46.64625" lon="5.55024">
        <ele>267</ele>
        <time>2022-03-04T18:47:28Z</time>
      </trkpt>
      <trkpt lat="46.64627" lon="5.55018">
        <ele>267</ele>
        <time>2022-03-04T18:47:29Z</time>
      </trkpt>
      <trkpt lat="46.6463" lon="5.55012">
        <ele>267</ele>
        <time>2022-03-04T18:47:30Z</time>
      </trkpt>
      <trkpt lat="46.64632" lon="5.55005">
        <ele>266.6</ele>
        <time>2022-03-04T18:47:31Z</time>
      </trkpt>
      <trkpt lat="46.64635" lon="5.54997">
        <ele>266.6</ele>
        <time>2022-03-04T18:47:32Z</time>
      </trkpt>
      <trkpt lat="46.64637" lon="5.5499">
        <ele>266.4</ele>
        <time>2022-03-04T18:47:33Z</time>
      </trkpt>
      <trkpt lat="46.6464" lon="5.54982">
        <ele>266.4</ele>
        <time>2022-03-04T18:47:34Z</time>
      </trkpt>
      <trkpt lat="46.64644" lon="5.54975">
        <ele>266</ele>
        <time>2022-03-04T18:47:35Z</time>
      </trkpt>
      <trkpt lat="46.64648" lon="5.54967">
        <ele>266</ele>
        <time>2022-03-04T18:47:36Z</time>
      </trkpt>
      <trkpt lat="46.64652" lon="5.5496">
        <ele>265.8</ele>
        <time>2022-03-04T18:47:37Z</time>
      </trkpt>
      <trkpt lat="46.64656" lon="5.54953">
        <ele>265.8</ele>
        <time>2022-03-04T18:47:38Z</time>
      </trkpt>
      <trkpt lat="46.64661" lon="5.54947">
        <ele>265.8</ele>
        <time>2022-03-04T18:47:39Z</time>
      </trkpt>
      <trkpt lat="46.64666" lon="5.54941">
        <ele>265.4</ele>
        <time>2022-03-04T18:47:40Z</time>
      </trkpt>
      <trkpt lat="46.6467" lon="5.54934">
        <ele>265.2</ele>
        <time>2022-03-04T18:47:41Z</time>
      </trkpt>
      <trkpt lat="46.64676" lon="5.54928">
        <ele>265.2</ele>
        <time>2022-03-04T18:47:42Z</time>
      </trkpt>
      <trkpt lat="46.64681" lon="5.54922">
        <ele>264.8</ele>
        <time>2022-03-04T18:47:43Z</time>
      </trkpt>
      <trkpt lat="46.64686" lon="5.54915">
        <ele>264.8</ele>
        <time>2022-03-04T18:47:44Z</time>
      </trkpt>
      <trkpt lat="46.6469" lon="5.54907">
        <ele>264.4</ele>
        <time>2022-03-04T18:47:45Z</time>
      </trkpt>
      <trkpt lat="46.64695" lon="5.549">
        <ele>264.2</ele>
        <time>2022-03-04T18:47:46Z</time>
      </trkpt>
      <trkpt lat="46.64699" lon="5.54891">
        <ele>264</ele>
        <time>2022-03-04T18:47:47Z</time>
      </trkpt>
      <trkpt lat="46.64703" lon="5.54883">
        <ele>263.8</ele>
        <time>2022-03-04T18:47:48Z</time>
      </trkpt>
      <trkpt lat="46.64706" lon="5.54874">
        <ele>263.4</ele>
        <time>2022-03-04T18:47:49Z</time>
      </trkpt>
      <trkpt lat="46.64709" lon="5.54865">
        <ele>263.2</ele>
        <time>2022-03-04T18:47:50Z</time>
      </trkpt>
      <trkpt lat="46.64712" lon="5.54856">
        <ele>263.2</ele>
        <time>2022-03-04T18:47:51Z</time>
      </trkpt>
      <trkpt lat="46.64714" lon="5.54847">
        <ele>262.8</ele>
        <time>2022-03-04T18:47:52Z</time>
      </trkpt>
      <trkpt lat="46.64717" lon="5.54837">
        <ele>262.6</ele>
        <time>2022-03-04T18:47:53Z</time>
      </trkpt>
      <trkpt lat="46.64719" lon="5.54828">
        <ele>262.6</ele>
        <time>2022-03-04T18:47:54Z</time>
      </trkpt>
      <trkpt lat="46.64721" lon="5.54819">
        <ele>262.4</ele>
        <time>2022-03-04T18:47:55Z</time>
      </trkpt>
      <trkpt lat="46.64723" lon="5.5481">
        <ele>262.4</ele>
        <time>2022-03-04T18:47:56Z</time>
      </trkpt>
      <trkpt lat="46.64725" lon="5.54801">
        <ele>262</ele>
        <time>2022-03-04T18:47:57Z</time>
      </trkpt>
      <trkpt lat="46.64727" lon="5.54792">
        <ele>262</ele>
        <time>2022-03-04T18:47:58Z</time>
      </trkpt>
      <trkpt lat="46.64728" lon="5.54783">
        <ele>262</ele>
        <time>2022-03-04T18:47:59Z</time>
      </trkpt>
      <trkpt lat="46.64729" lon="5.54775">
        <ele>261.8</ele>
        <time>2022-03-04T18:48:00Z</time>
      </trkpt>
      <trkpt lat="46.6473" lon="5.54766">
        <ele>261.8</ele>
        <time>2022-03-04T18:48:01Z</time>
      </trkpt>
      <trkpt lat="46.64731" lon="5.54757">
        <ele>261.8</ele>
        <time>2022-03-04T18:48:02Z</time>
      </trkpt>
      <trkpt lat="46.64733" lon="5.54749">
        <ele>261.8</ele>
        <time>2022-03-04T18:48:03Z</time>
      </trkpt>
      <trkpt lat="46.64734" lon="5.54741">
        <ele>261.8</ele>
        <time>2022-03-04T18:48:04Z</time>
      </trkpt>
      <trkpt lat="46.64735" lon="5.54732">
        <ele>261.8</ele>
        <time>2022-03-04T18:48:05Z</time>
      </trkpt>
      <trkpt lat="46.64736" lon="5.54724">
        <ele>261.8</ele>
        <time>2022-03-04T18:48:06Z</time>
      </trkpt>
      <trkpt lat="46.64737" lon="5.54716">
        <ele>261.8</ele>
        <time>2022-03-04T18:48:07Z</time>
      </trkpt>
      <trkpt lat="46.64738" lon="5.54707">
        <ele>261.8</ele>
        <time>2022-03-04T18:48:08Z</time>
      </trkpt>
      <trkpt lat="46.64739" lon="5.54699">
        <ele>261.8</ele>
        <time>2022-03-04T18:48:09Z</time>
      </trkpt>
      <trkpt lat="46.6474" lon="5.54691">
        <ele>261.8</ele>
        <time>2022-03-04T18:48:10Z</time>
      </trkpt>
      <trkpt lat="46.6474" lon="5.54683">
        <ele>261.8</ele>
        <time>2022-03-04T18:48:11Z</time>
      </trkpt>
      <trkpt lat="46.64741" lon="5.54675">
        <ele>261.8</ele>
        <time>2022-03-04T18:48:12Z</time>
      </trkpt>
      <trkpt lat="46.64741" lon="5.54667">
        <ele>261.8</ele>
        <time>2022-03-04T18:48:13Z</time>
      </trkpt>
      <trkpt lat="46.64741" lon="5.54658">
        <ele>261.8</ele>
        <time>2022-03-04T18:48:14Z</time>
      </trkpt>
      <trkpt lat="46.64741" lon="5.5465">
        <ele>261.8</ele>
        <time>2022-03-04T18:48:15Z</time>
      </trkpt>
      <trkpt lat="46.6474" lon="5.54642">
        <ele>261.8</ele>
        <time>2022-03-04T18:48:16Z</time>
      </trkpt>
      <trkpt lat="46.64738" lon="5.54634">
        <ele>261.8</ele>
        <time>2022-03-04T18:48:17Z</time>
      </trkpt>
      <trkpt lat="46.64737" lon="5.54626">
        <ele>261.8</ele>
        <time>2022-03-04T18:48:18Z</time>
      </trkpt>
      <trkpt lat="46.64735" lon="5.54619">
        <ele>261.8</ele>
        <time>2022-03-04T18:48:19Z</time>
      </trkpt>
      <trkpt lat="46.64733" lon="5.54612">
        <ele>262.2</ele>
        <time>2022-03-04T18:48:20Z</time>
      </trkpt>
      <trkpt lat="46.64731" lon="5.54605">
        <ele>262.2</ele>
        <time>2022-03-04T18:48:21Z</time>
      </trkpt>
      <trkpt lat="46.64729" lon="5.54598">
        <ele>262.4</ele>
        <time>2022-03-04T18:48:22Z</time>
      </trkpt>
      <trkpt lat="46.64727" lon="5.54592">
        <ele>262.4</ele>
        <time>2022-03-04T18:48:23Z</time>
      </trkpt>
      <trkpt lat="46.64724" lon="5.54586">
        <ele>262.4</ele>
        <time>2022-03-04T18:48:24Z</time>
      </trkpt>
      <trkpt lat="46.64722" lon="5.5458">
        <ele>262.8</ele>
        <time>2022-03-04T18:48:25Z</time>
      </trkpt>
      <trkpt lat="46.6472" lon="5.54573">
        <ele>263</ele>
        <time>2022-03-04T18:48:26Z</time>
      </trkpt>
      <trkpt lat="46.64717" lon="5.54568">
        <ele>263</ele>
        <time>2022-03-04T18:48:27Z</time>
      </trkpt>
      <trkpt lat="46.64715" lon="5.54562">
        <ele>263.4</ele>
        <time>2022-03-04T18:48:28Z</time>
      </trkpt>
      <trkpt lat="46.64712" lon="5.54557">
        <ele>263.4</ele>
        <time>2022-03-04T18:48:29Z</time>
      </trkpt>
      <trkpt lat="46.64709" lon="5.54552">
        <ele>263.6</ele>
        <time>2022-03-04T18:48:30Z</time>
      </trkpt>
      <trkpt lat="46.64707" lon="5.54547">
        <ele>263.8</ele>
        <time>2022-03-04T18:48:31Z</time>
      </trkpt>
      <trkpt lat="46.64704" lon="5.54542">
        <ele>263.8</ele>
        <time>2022-03-04T18:48:32Z</time>
      </trkpt>
      <trkpt lat="46.64702" lon="5.54537">
        <ele>264</ele>
        <time>2022-03-04T18:48:33Z</time>
      </trkpt>
      <trkpt lat="46.64699" lon="5.54532">
        <ele>264</ele>
        <time>2022-03-04T18:48:34Z</time>
      </trkpt>
      <trkpt lat="46.64697" lon="5.54528">
        <ele>264.4</ele>
        <time>2022-03-04T18:48:35Z</time>
      </trkpt>
      <trkpt lat="46.64694" lon="5.54523">
        <ele>264.4</ele>
        <time>2022-03-04T18:48:36Z</time>
      </trkpt>
      <trkpt lat="46.64692" lon="5.54519">
        <ele>264.8</ele>
        <time>2022-03-04T18:48:37Z</time>
      </trkpt>
      <trkpt lat="46.64689" lon="5.54515">
        <ele>264.8</ele>
        <time>2022-03-04T18:48:38Z</time>
      </trkpt>
      <trkpt lat="46.64687" lon="5.5451">
        <ele>265</ele>
        <time>2022-03-04T18:48:39Z</time>
      </trkpt>
      <trkpt lat="46.64685" lon="5.54506">
        <ele>265</ele>
        <time>2022-03-04T18:48:40Z</time>
      </trkpt>
      <trkpt lat="46.64682" lon="5.54502">
        <ele>265.2</ele>
        <time>2022-03-04T18:48:41Z</time>
      </trkpt>
      <trkpt lat="46.6468" lon="5.54497">
        <ele>265.4</ele>
        <time>2022-03-04T18:48:42Z</time>
      </trkpt>
      <trkpt lat="46.64678" lon="5.54493">
        <ele>265.4</ele>
        <time>2022-03-04T18:48:43Z</time>
      </trkpt>
      <trkpt lat="46.64676" lon="5.54488">
        <ele>265.6</ele>
        <time>2022-03-04T18:48:44Z</time>
      </trkpt>
      <trkpt lat="46.64674" lon="5.54483">
        <ele>265.6</ele>
        <time>2022-03-04T18:48:45Z</time>
      </trkpt>
      <trkpt lat="46.64672" lon="5.54478">
        <ele>265.6</ele>
        <time>2022-03-04T18:48:46Z</time>
      </trkpt>
      <trkpt lat="46.64671" lon="5.54472">
        <ele>266</ele>
        <time>2022-03-04T18:48:47Z</time>
      </trkpt>
      <trkpt lat="46.64669" lon="5.54466">
        <ele>266</ele>
        <time>2022-03-04T18:48:48Z</time>
      </trkpt>
      <trkpt lat="46.64667" lon="5.54459">
        <ele>266</ele>
        <time>2022-03-04T18:48:49Z</time>
      </trkpt>
      <trkpt lat="46.64665" lon="5.54453">
        <ele>266</ele>
        <time>2022-03-04T18:48:50Z</time>
      </trkpt>
      <trkpt lat="46.64664" lon="5.54446">
        <ele>266</ele>
        <time>2022-03-04T18:48:51Z</time>
      </trkpt>
      <trkpt lat="46.64662" lon="5.54439">
        <ele>265.6</ele>
        <time>2022-03-04T18:48:52Z</time>
      </trkpt>
      <trkpt lat="46.6466" lon="5.54431">
        <ele>265.6</ele>
        <time>2022-03-04T18:48:53Z</time>
      </trkpt>
      <trkpt lat="46.64658" lon="5.54424">
        <ele>265.6</ele>
        <time>2022-03-04T18:48:54Z</time>
      </trkpt>
      <trkpt lat="46.64656" lon="5.54416">
        <ele>265.6</ele>
        <time>2022-03-04T18:48:55Z</time>
      </trkpt>
      <trkpt lat="46.64654" lon="5.54408">
        <ele>265.4</ele>
        <time>2022-03-04T18:48:56Z</time>
      </trkpt>
      <trkpt lat="46.64652" lon="5.544">
        <ele>265.4</ele>
        <time>2022-03-04T18:48:57Z</time>
      </trkpt>
      <trkpt lat="46.6465" lon="5.54392">
        <ele>265</ele>
        <time>2022-03-04T18:48:58Z</time>
      </trkpt>
      <trkpt lat="46.64648" lon="5.54383">
        <ele>264.8</ele>
        <time>2022-03-04T18:48:59Z</time>
      </trkpt>
      <trkpt lat="46.64645" lon="5.54375">
        <ele>264.6</ele>
        <time>2022-03-04T18:49:00Z</time>
      </trkpt>
      <trkpt lat="46.64643" lon="5.54366">
        <ele>264.4</ele>
        <time>2022-03-04T18:49:01Z</time>
      </trkpt>
      <trkpt lat="46.64641" lon="5.54357">
        <ele>264.4</ele>
        <time>2022-03-04T18:49:02Z</time>
      </trkpt>
      <trkpt lat="46.64638" lon="5.54349">
        <ele>264</ele>
        <time>2022-03-04T18:49:03Z</time>
      </trkpt>
      <trkpt lat="46.64635" lon="5.5434">
        <ele>264</ele>
        <time>2022-03-04T18:49:04Z</time>
      </trkpt>
      <trkpt lat="46.64633" lon="5.54332">
        <ele>263.6</ele>
        <time>2022-03-04T18:49:05Z</time>
      </trkpt>
      <trkpt lat="46.6463" lon="5.54323">
        <ele>263.6</ele>
        <time>2022-03-04T18:49:06Z</time>
      </trkpt>
      <trkpt lat="46.64627" lon="5.54315">
        <ele>263.4</ele>
        <time>2022-03-04T18:49:07Z</time>
      </trkpt>
      <trkpt lat="46.64624" lon="5.54306">
        <ele>263.4</ele>
        <time>2022-03-04T18:49:08Z</time>
      </trkpt>
      <trkpt lat="46.64622" lon="5.54298">
        <ele>263</ele>
        <time>2022-03-04T18:49:09Z</time>
      </trkpt>
      <trkpt lat="46.64619" lon="5.54289">
        <ele>263</ele>
        <time>2022-03-04T18:49:10Z</time>
      </trkpt>
      <trkpt lat="46.64616" lon="5.54281">
        <ele>262.6</ele>
        <time>2022-03-04T18:49:11Z</time>
      </trkpt>
      <trkpt lat="46.64614" lon="5.54272">
        <ele>262.4</ele>
        <time>2022-03-04T18:49:12Z</time>
      </trkpt>
      <trkpt lat="46.64611" lon="5.54264">
        <ele>262.2</ele>
        <time>2022-03-04T18:49:13Z</time>
      </trkpt>
      <trkpt lat="46.64608" lon="5.54255">
        <ele>262</ele>
        <time>2022-03-04T18:49:14Z</time>
      </trkpt>
      <trkpt lat="46.64605" lon="5.54247">
        <ele>261.6</ele>
        <time>2022-03-04T18:49:15Z</time>
      </trkpt>
      <trkpt lat="46.64602" lon="5.54238">
        <ele>261.6</ele>
        <time>2022-03-04T18:49:16Z</time>
      </trkpt>
      <trkpt lat="46.64598" lon="5.5423">
        <ele>261.2</ele>
        <time>2022-03-04T18:49:17Z</time>
      </trkpt>
      <trkpt lat="46.64595" lon="5.54222">
        <ele>261.2</ele>
        <time>2022-03-04T18:49:18Z</time>
      </trkpt>
      <trkpt lat="46.64592" lon="5.54214">
        <ele>260.8</ele>
        <time>2022-03-04T18:49:19Z</time>
      </trkpt>
      <trkpt lat="46.64589" lon="5.54206">
        <ele>260.6</ele>
        <time>2022-03-04T18:49:20Z</time>
      </trkpt>
      <trkpt lat="46.64586" lon="5.54198">
        <ele>260.6</ele>
        <time>2022-03-04T18:49:21Z</time>
      </trkpt>
      <trkpt lat="46.64582" lon="5.5419">
        <ele>260.2</ele>
        <time>2022-03-04T18:49:22Z</time>
      </trkpt>
      <trkpt lat="46.64579" lon="5.54183">
        <ele>260</ele>
        <time>2022-03-04T18:49:23Z</time>
      </trkpt>
      <trkpt lat="46.64576" lon="5.54176">
        <ele>259.6</ele>
        <time>2022-03-04T18:49:24Z</time>
      </trkpt>
      <trkpt lat="46.64573" lon="5.5417">
        <ele>259.4</ele>
        <time>2022-03-04T18:49:25Z</time>
      </trkpt>
      <trkpt lat="46.64571" lon="5.54163">
        <ele>259</ele>
        <time>2022-03-04T18:49:26Z</time>
      </trkpt>
      <trkpt lat="46.64568" lon="5.54157">
        <ele>258.8</ele>
        <time>2022-03-04T18:49:27Z</time>
      </trkpt>
      <trkpt lat="46.64565" lon="5.54151">
        <ele>258.8</ele>
        <time>2022-03-04T18:49:28Z</time>
      </trkpt>
      <trkpt lat="46.64563" lon="5.54145">
        <ele>258.4</ele>
        <time>2022-03-04T18:49:29Z</time>
      </trkpt>
      <trkpt lat="46.64561" lon="5.54138">
        <ele>258.2</ele>
        <time>2022-03-04T18:49:30Z</time>
      </trkpt>
      <trkpt lat="46.64561" lon="5.54131">
        <ele>257.8</ele>
        <time>2022-03-04T18:49:31Z</time>
      </trkpt>
      <trkpt lat="46.64562" lon="5.54124">
        <ele>257.6</ele>
        <time>2022-03-04T18:49:32Z</time>
      </trkpt>
      <trkpt lat="46.64564" lon="5.54118">
        <ele>257.2</ele>
        <time>2022-03-04T18:49:33Z</time>
      </trkpt>
      <trkpt lat="46.64568" lon="5.54113">
        <ele>257</ele>
        <time>2022-03-04T18:49:34Z</time>
      </trkpt>
      <trkpt lat="46.64571" lon="5.54109">
        <ele>256.8</ele>
        <time>2022-03-04T18:49:35Z</time>
      </trkpt>
      <trkpt lat="46.64576" lon="5.54105">
        <ele>256.8</ele>
        <time>2022-03-04T18:49:36Z</time>
      </trkpt>
      <trkpt lat="46.6458" lon="5.54101">
        <ele>256.8</ele>
        <time>2022-03-04T18:49:37Z</time>
      </trkpt>
      <trkpt lat="46.64585" lon="5.54098">
        <ele>256.4</ele>
        <time>2022-03-04T18:49:38Z</time>
      </trkpt>
      <trkpt lat="46.6459" lon="5.54094">
        <ele>256.4</ele>
        <time>2022-03-04T18:49:39Z</time>
      </trkpt>
      <trkpt lat="46.64595" lon="5.5409">
        <ele>256.2</ele>
        <time>2022-03-04T18:49:40Z</time>
      </trkpt>
      <trkpt lat="46.646" lon="5.54087">
        <ele>256.2</ele>
        <time>2022-03-04T18:49:41Z</time>
      </trkpt>
      <trkpt lat="46.64605" lon="5.54083">
        <ele>256</ele>
        <time>2022-03-04T18:49:42Z</time>
      </trkpt>
      <trkpt lat="46.6461" lon="5.54079">
        <ele>256</ele>
        <time>2022-03-04T18:49:43Z</time>
      </trkpt>
      <trkpt lat="46.64615" lon="5.54075">
        <ele>256</ele>
        <time>2022-03-04T18:49:44Z</time>
      </trkpt>
      <trkpt lat="46.64621" lon="5.54071">
        <ele>256</ele>
        <time>2022-03-04T18:49:45Z</time>
      </trkpt>
      <trkpt lat="46.64626" lon="5.54067">
        <ele>255.8</ele>
        <time>2022-03-04T18:49:46Z</time>
      </trkpt>
      <trkpt lat="46.64631" lon="5.54063">
        <ele>255.8</ele>
        <time>2022-03-04T18:49:47Z</time>
      </trkpt>
      <trkpt lat="46.64636" lon="5.5406">
        <ele>255.8</ele>
        <time>2022-03-04T18:49:48Z</time>
      </trkpt>
      <trkpt lat="46.64642" lon="5.54057">
        <ele>255.8</ele>
        <time>2022-03-04T18:49:49Z</time>
      </trkpt>
      <trkpt lat="46.64647" lon="5.54055">
        <ele>255.8</ele>
        <time>2022-03-04T18:49:50Z</time>
      </trkpt>
      <trkpt lat="46.64653" lon="5.54052">
        <ele>255.8</ele>
        <time>2022-03-04T18:49:51Z</time>
      </trkpt>
      <trkpt lat="46.64659" lon="5.5405">
        <ele>255.8</ele>
        <time>2022-03-04T18:49:52Z</time>
      </trkpt>
      <trkpt lat="46.64665" lon="5.54049">
        <ele>255.8</ele>
        <time>2022-03-04T18:49:53Z</time>
      </trkpt>
      <trkpt lat="46.64671" lon="5.54047">
        <ele>255.8</ele>
        <time>2022-03-04T18:49:54Z</time>
      </trkpt>
      <trkpt lat="46.64677" lon="5.54046">
        <ele>255.8</ele>
        <time>2022-03-04T18:49:55Z</time>
      </trkpt>
      <trkpt lat="46.64682" lon="5.54044">
        <ele>255.8</ele>
        <time>2022-03-04T18:49:56Z</time>
      </trkpt>
      <trkpt lat="46.64688" lon="5.54043">
        <ele>255.8</ele>
        <time>2022-03-04T18:49:57Z</time>
      </trkpt>
      <trkpt lat="46.64693" lon="5.54042">
        <ele>255.8</ele>
        <time>2022-03-04T18:49:58Z</time>
      </trkpt>
      <trkpt lat="46.64699" lon="5.5404">
        <ele>255.8</ele>
        <time>2022-03-04T18:49:59Z</time>
      </trkpt>
      <trkpt lat="46.64705" lon="5.54038">
        <ele>255.8</ele>
        <time>2022-03-04T18:50:00Z</time>
      </trkpt>
      <trkpt lat="46.6471" lon="5.54036">
        <ele>255.8</ele>
        <time>2022-03-04T18:50:01Z</time>
      </trkpt>
      <trkpt lat="46.64716" lon="5.54033">
        <ele>255.8</ele>
        <time>2022-03-04T18:50:02Z</time>
      </trkpt>
      <trkpt lat="46.64721" lon="5.5403">
        <ele>255.8</ele>
        <time>2022-03-04T18:50:03Z</time>
      </trkpt>
      <trkpt lat="46.64727" lon="5.54028">
        <ele>255.8</ele>
        <time>2022-03-04T18:50:04Z</time>
      </trkpt>
      <trkpt lat="46.64732" lon="5.54024">
        <ele>255.8</ele>
        <time>2022-03-04T18:50:05Z</time>
      </trkpt>
      <trkpt lat="46.64738" lon="5.54021">
        <ele>255.8</ele>
        <time>2022-03-04T18:50:06Z</time>
      </trkpt>
      <trkpt lat="46.64738" lon="5.54021">
        <ele>255.8</ele>
        <time>2022-03-04T18:50:07Z</time>
      </trkpt>
      <trkpt lat="46.64744" lon="5.54017">
        <ele>255.4</ele>
        <time>2022-03-04T18:50:08Z</time>
      </trkpt>
      <trkpt lat="46.6475" lon="5.54014">
        <ele>255.4</ele>
        <time>2022-03-04T18:50:09Z</time>
      </trkpt>
      <trkpt lat="46.64755" lon="5.5401">
        <ele>255.4</ele>
        <time>2022-03-04T18:50:10Z</time>
      </trkpt>
      <trkpt lat="46.64761" lon="5.54006">
        <ele>255.2</ele>
        <time>2022-03-04T18:50:11Z</time>
      </trkpt>
      <trkpt lat="46.64767" lon="5.54002">
        <ele>255.2</ele>
        <time>2022-03-04T18:50:12Z</time>
      </trkpt>
      <trkpt lat="46.64773" lon="5.53998">
        <ele>255</ele>
        <time>2022-03-04T18:50:13Z</time>
      </trkpt>
      <trkpt lat="46.64779" lon="5.53994">
        <ele>254.8</ele>
        <time>2022-03-04T18:50:14Z</time>
      </trkpt>
      <trkpt lat="46.64785" lon="5.5399">
        <ele>254.8</ele>
        <time>2022-03-04T18:50:15Z</time>
      </trkpt>
      <trkpt lat="46.64791" lon="5.53986">
        <ele>254.4</ele>
        <time>2022-03-04T18:50:16Z</time>
      </trkpt>
      <trkpt lat="46.64797" lon="5.53982">
        <ele>254.2</ele>
        <time>2022-03-04T18:50:17Z</time>
      </trkpt>
      <trkpt lat="46.64803" lon="5.53978">
        <ele>254.2</ele>
        <time>2022-03-04T18:50:18Z</time>
      </trkpt>
      <trkpt lat="46.64809" lon="5.53973">
        <ele>253.8</ele>
        <time>2022-03-04T18:50:19Z</time>
      </trkpt>
      <trkpt lat="46.64816" lon="5.53969">
        <ele>253.8</ele>
        <time>2022-03-04T18:50:20Z</time>
      </trkpt>
      <trkpt lat="46.64822" lon="5.53964">
        <ele>253.4</ele>
        <time>2022-03-04T18:50:21Z</time>
      </trkpt>
      <trkpt lat="46.64829" lon="5.5396">
        <ele>253.4</ele>
        <time>2022-03-04T18:50:22Z</time>
      </trkpt>
      <trkpt lat="46.64835" lon="5.53956">
        <ele>253</ele>
        <time>2022-03-04T18:50:23Z</time>
      </trkpt>
      <trkpt lat="46.64842" lon="5.53951">
        <ele>252.8</ele>
        <time>2022-03-04T18:50:24Z</time>
      </trkpt>
      <trkpt lat="46.64848" lon="5.53947">
        <ele>252.8</ele>
        <time>2022-03-04T18:50:25Z</time>
      </trkpt>
      <trkpt lat="46.64855" lon="5.53942">
        <ele>252.6</ele>
        <time>2022-03-04T18:50:26Z</time>
      </trkpt>
      <trkpt lat="46.64861" lon="5.53937">
        <ele>252.6</ele>
        <time>2022-03-04T18:50:27Z</time>
      </trkpt>
      <trkpt lat="46.64867" lon="5.53932">
        <ele>252.2</ele>
        <time>2022-03-04T18:50:28Z</time>
      </trkpt>
      <trkpt lat="46.64872" lon="5.53927">
        <ele>252.2</ele>
        <time>2022-03-04T18:50:29Z</time>
      </trkpt>
      <trkpt lat="46.64878" lon="5.53923">
        <ele>252.2</ele>
        <time>2022-03-04T18:50:30Z</time>
      </trkpt>
      <trkpt lat="46.64883" lon="5.53918">
        <ele>252</ele>
        <time>2022-03-04T18:50:31Z</time>
      </trkpt>
      <trkpt lat="46.64889" lon="5.53913">
        <ele>252</ele>
        <time>2022-03-04T18:50:32Z</time>
      </trkpt>
      <trkpt lat="46.64894" lon="5.53909">
        <ele>252</ele>
        <time>2022-03-04T18:50:33Z</time>
      </trkpt>
      <trkpt lat="46.649" lon="5.53904">
        <ele>252</ele>
        <time>2022-03-04T18:50:34Z</time>
      </trkpt>
      <trkpt lat="46.64906" lon="5.539">
        <ele>251.8</ele>
        <time>2022-03-04T18:50:35Z</time>
      </trkpt>
      <trkpt lat="46.64911" lon="5.53897">
        <ele>251.8</ele>
        <time>2022-03-04T18:50:36Z</time>
      </trkpt>
      <trkpt lat="46.64917" lon="5.53893">
        <ele>251.8</ele>
        <time>2022-03-04T18:50:37Z</time>
      </trkpt>
      <trkpt lat="46.64923" lon="5.5389">
        <ele>251.4</ele>
        <time>2022-03-04T18:50:38Z</time>
      </trkpt>
      <trkpt lat="46.64929" lon="5.53887">
        <ele>251.4</ele>
        <time>2022-03-04T18:50:39Z</time>
      </trkpt>
      <trkpt lat="46.64934" lon="5.53885">
        <ele>251.4</ele>
        <time>2022-03-04T18:50:40Z</time>
      </trkpt>
      <trkpt lat="46.64939" lon="5.53884">
        <ele>251.2</ele>
        <time>2022-03-04T18:50:41Z</time>
      </trkpt>
      <trkpt lat="46.64944" lon="5.53883">
        <ele>251.2</ele>
        <time>2022-03-04T18:50:42Z</time>
      </trkpt>
      <trkpt lat="46.64949" lon="5.53881">
        <ele>251.2</ele>
        <time>2022-03-04T18:50:43Z</time>
      </trkpt>
      <trkpt lat="46.64954" lon="5.5388">
        <ele>251.2</ele>
        <time>2022-03-04T18:50:44Z</time>
      </trkpt>
      <trkpt lat="46.64959" lon="5.53879">
        <ele>251.2</ele>
        <time>2022-03-04T18:50:45Z</time>
      </trkpt>
      <trkpt lat="46.64964" lon="5.53878">
        <ele>251.2</ele>
        <time>2022-03-04T18:50:46Z</time>
      </trkpt>
      <trkpt lat="46.64968" lon="5.53876">
        <ele>251.6</ele>
        <time>2022-03-04T18:50:47Z</time>
      </trkpt>
      <trkpt lat="46.64973" lon="5.53875">
        <ele>251.6</ele>
        <time>2022-03-04T18:50:48Z</time>
      </trkpt>
      <trkpt lat="46.64978" lon="5.53874">
        <ele>251.6</ele>
        <time>2022-03-04T18:50:49Z</time>
      </trkpt>
      <trkpt lat="46.64982" lon="5.53872">
        <ele>251.6</ele>
        <time>2022-03-04T18:50:50Z</time>
      </trkpt>
      <trkpt lat="46.64987" lon="5.53871">
        <ele>251.8</ele>
        <time>2022-03-04T18:50:51Z</time>
      </trkpt>
      <trkpt lat="46.64991" lon="5.53869">
        <ele>251.8</ele>
        <time>2022-03-04T18:50:52Z</time>
      </trkpt>
      <trkpt lat="46.64996" lon="5.53868">
        <ele>251.8</ele>
        <time>2022-03-04T18:50:53Z</time>
      </trkpt>
      <trkpt lat="46.65" lon="5.53867">
        <ele>251.8</ele>
        <time>2022-03-04T18:50:54Z</time>
      </trkpt>
      <trkpt lat="46.65005" lon="5.53866">
        <ele>252</ele>
        <time>2022-03-04T18:50:55Z</time>
      </trkpt>
      <trkpt lat="46.6501" lon="5.53865">
        <ele>252</ele>
        <time>2022-03-04T18:50:56Z</time>
      </trkpt>
      <trkpt lat="46.65014" lon="5.53863">
        <ele>252</ele>
        <time>2022-03-04T18:50:57Z</time>
      </trkpt>
      <trkpt lat="46.65019" lon="5.53862">
        <ele>252.2</ele>
        <time>2022-03-04T18:50:58Z</time>
      </trkpt>
      <trkpt lat="46.65023" lon="5.53861">
        <ele>252.2</ele>
        <time>2022-03-04T18:50:59Z</time>
      </trkpt>
      <trkpt lat="46.65028" lon="5.5386">
        <ele>252.2</ele>
        <time>2022-03-04T18:51:00Z</time>
      </trkpt>
      <trkpt lat="46.65032" lon="5.53858">
        <ele>252.2</ele>
        <time>2022-03-04T18:51:01Z</time>
      </trkpt>
      <trkpt lat="46.65037" lon="5.53857">
        <ele>252.6</ele>
        <time>2022-03-04T18:51:02Z</time>
      </trkpt>
      <trkpt lat="46.65042" lon="5.53856">
        <ele>252.6</ele>
        <time>2022-03-04T18:51:03Z</time>
      </trkpt>
      <trkpt lat="46.65046" lon="5.53855">
        <ele>252.6</ele>
        <time>2022-03-04T18:51:04Z</time>
      </trkpt>
      <trkpt lat="46.65051" lon="5.53853">
        <ele>252.8</ele>
        <time>2022-03-04T18:51:05Z</time>
      </trkpt>
      <trkpt lat="46.65056" lon="5.53851">
        <ele>252.8</ele>
        <time>2022-03-04T18:51:06Z</time>
      </trkpt>
      <trkpt lat="46.65061" lon="5.5385">
        <ele>252.8</ele>
        <time>2022-03-04T18:51:07Z</time>
      </trkpt>
      <trkpt lat="46.65065" lon="5.53849">
        <ele>252.8</ele>
        <time>2022-03-04T18:51:08Z</time>
      </trkpt>
      <trkpt lat="46.6507" lon="5.53847">
        <ele>252.8</ele>
        <time>2022-03-04T18:51:09Z</time>
      </trkpt>
      <trkpt lat="46.65074" lon="5.53846">
        <ele>252.8</ele>
        <time>2022-03-04T18:51:10Z</time>
      </trkpt>
      <trkpt lat="46.65079" lon="5.53845">
        <ele>253</ele>
        <time>2022-03-04T18:51:11Z</time>
      </trkpt>
      <trkpt lat="46.65084" lon="5.53843">
        <ele>253</ele>
        <time>2022-03-04T18:51:12Z</time>
      </trkpt>
      <trkpt lat="46.65088" lon="5.53842">
        <ele>253</ele>
        <time>2022-03-04T18:51:13Z</time>
      </trkpt>
      <trkpt lat="46.65093" lon="5.5384">
        <ele>253</ele>
        <time>2022-03-04T18:51:14Z</time>
      </trkpt>
      <trkpt lat="46.65098" lon="5.53839">
        <ele>253.2</ele>
        <time>2022-03-04T18:51:15Z</time>
      </trkpt>
      <trkpt lat="46.65102" lon="5.53837">
        <ele>253.2</ele>
        <time>2022-03-04T18:51:16Z</time>
      </trkpt>
      <trkpt lat="46.65107" lon="5.53836">
        <ele>253.2</ele>
        <time>2022-03-04T18:51:17Z</time>
      </trkpt>
      <trkpt lat="46.65111" lon="5.53835">
        <ele>253.2</ele>
        <time>2022-03-04T18:51:18Z</time>
      </trkpt>
      <trkpt lat="46.65116" lon="5.53833">
        <ele>253.4</ele>
        <time>2022-03-04T18:51:19Z</time>
      </trkpt>
      <trkpt lat="46.6512" lon="5.53832">
        <ele>253.4</ele>
        <time>2022-03-04T18:51:20Z</time>
      </trkpt>
      <trkpt lat="46.65124" lon="5.5383">
        <ele>253.8</ele>
        <time>2022-03-04T18:51:21Z</time>
      </trkpt>
      <trkpt lat="46.65129" lon="5.53828">
        <ele>253.8</ele>
        <time>2022-03-04T18:51:22Z</time>
      </trkpt>
      <trkpt lat="46.65133" lon="5.53827">
        <ele>254</ele>
        <time>2022-03-04T18:51:23Z</time>
      </trkpt>
      <trkpt lat="46.65138" lon="5.53825">
        <ele>254</ele>
        <time>2022-03-04T18:51:24Z</time>
      </trkpt>
      <trkpt lat="46.65142" lon="5.53824">
        <ele>254.2</ele>
        <time>2022-03-04T18:51:25Z</time>
      </trkpt>
      <trkpt lat="46.65146" lon="5.53822">
        <ele>254.2</ele>
        <time>2022-03-04T18:51:26Z</time>
      </trkpt>
      <trkpt lat="46.65151" lon="5.53821">
        <ele>254.2</ele>
        <time>2022-03-04T18:51:27Z</time>
      </trkpt>
      <trkpt lat="46.65155" lon="5.5382">
        <ele>254.4</ele>
        <time>2022-03-04T18:51:28Z</time>
      </trkpt>
      <trkpt lat="46.6516" lon="5.53818">
        <ele>254.4</ele>
        <time>2022-03-04T18:51:29Z</time>
      </trkpt>
      <trkpt lat="46.65164" lon="5.53817">
        <ele>254.8</ele>
        <time>2022-03-04T18:51:30Z</time>
      </trkpt>
      <trkpt lat="46.65169" lon="5.53815">
        <ele>254.8</ele>
        <time>2022-03-04T18:51:31Z</time>
      </trkpt>
      <trkpt lat="46.65173" lon="5.53814">
        <ele>255</ele>
        <time>2022-03-04T18:51:32Z</time>
      </trkpt>
      <trkpt lat="46.65177" lon="5.53812">
        <ele>255</ele>
        <time>2022-03-04T18:51:33Z</time>
      </trkpt>
      <trkpt lat="46.65182" lon="5.53811">
        <ele>255.2</ele>
        <time>2022-03-04T18:51:34Z</time>
      </trkpt>
      <trkpt lat="46.65186" lon="5.53809">
        <ele>255.2</ele>
        <time>2022-03-04T18:51:35Z</time>
      </trkpt>
      <trkpt lat="46.6519" lon="5.53808">
        <ele>255.2</ele>
        <time>2022-03-04T18:51:36Z</time>
      </trkpt>
      <trkpt lat="46.65194" lon="5.53806">
        <ele>255.2</ele>
        <time>2022-03-04T18:51:37Z</time>
      </trkpt>
      <trkpt lat="46.65198" lon="5.53804">
        <ele>255.2</ele>
        <time>2022-03-04T18:51:38Z</time>
      </trkpt>
      <trkpt lat="46.65202" lon="5.53803">
        <ele>255.6</ele>
        <time>2022-03-04T18:51:39Z</time>
      </trkpt>
      <trkpt lat="46.65206" lon="5.53801">
        <ele>255.6</ele>
        <time>2022-03-04T18:51:40Z</time>
      </trkpt>
      <trkpt lat="46.65211" lon="5.538">
        <ele>255.6</ele>
        <time>2022-03-04T18:51:41Z</time>
      </trkpt>
      <trkpt lat="46.65215" lon="5.53799">
        <ele>255.8</ele>
        <time>2022-03-04T18:51:42Z</time>
      </trkpt>
      <trkpt lat="46.65219" lon="5.53797">
        <ele>255.8</ele>
        <time>2022-03-04T18:51:43Z</time>
      </trkpt>
      <trkpt lat="46.65223" lon="5.53796">
        <ele>255.8</ele>
        <time>2022-03-04T18:51:44Z</time>
      </trkpt>
      <trkpt lat="46.65227" lon="5.53795">
        <ele>256</ele>
        <time>2022-03-04T18:51:45Z</time>
      </trkpt>
      <trkpt lat="46.65232" lon="5.53794">
        <ele>256</ele>
        <time>2022-03-04T18:51:46Z</time>
      </trkpt>
      <trkpt lat="46.65236" lon="5.53794">
        <ele>256</ele>
        <time>2022-03-04T18:51:47Z</time>
      </trkpt>
      <trkpt lat="46.6524" lon="5.53793">
        <ele>256.2</ele>
        <time>2022-03-04T18:51:48Z</time>
      </trkpt>
      <trkpt lat="46.65244" lon="5.53793">
        <ele>256.2</ele>
        <time>2022-03-04T18:51:49Z</time>
      </trkpt>
      <trkpt lat="46.65248" lon="5.53792">
        <ele>256.2</ele>
        <time>2022-03-04T18:51:50Z</time>
      </trkpt>
      <trkpt lat="46.65252" lon="5.53792">
        <ele>256.6</ele>
        <time>2022-03-04T18:51:51Z</time>
      </trkpt>
      <trkpt lat="46.65256" lon="5.53793">
        <ele>256.6</ele>
        <time>2022-03-04T18:51:52Z</time>
      </trkpt>
      <trkpt lat="46.65259" lon="5.53793">
        <ele>256.8</ele>
        <time>2022-03-04T18:51:53Z</time>
      </trkpt>
      <trkpt lat="46.65263" lon="5.53794">
        <ele>256.8</ele>
        <time>2022-03-04T18:51:54Z</time>
      </trkpt>
      <trkpt lat="46.65267" lon="5.53795">
        <ele>257.2</ele>
        <time>2022-03-04T18:51:55Z</time>
      </trkpt>
      <trkpt lat="46.65271" lon="5.53795">
        <ele>257.2</ele>
        <time>2022-03-04T18:51:56Z</time>
      </trkpt>
      <trkpt lat="46.65274" lon="5.53795">
        <ele>257.2</ele>
        <time>2022-03-04T18:51:57Z</time>
      </trkpt>
      <trkpt lat="46.65278" lon="5.53795">
        <ele>257.4</ele>
        <time>2022-03-04T18:51:58Z</time>
      </trkpt>
      <trkpt lat="46.65282" lon="5.53795">
        <ele>257.4</ele>
        <time>2022-03-04T18:51:59Z</time>
      </trkpt>
      <trkpt lat="46.65285" lon="5.53796">
        <ele>257.8</ele>
        <time>2022-03-04T18:52:00Z</time>
      </trkpt>
      <trkpt lat="46.65289" lon="5.53796">
        <ele>257.8</ele>
        <time>2022-03-04T18:52:01Z</time>
      </trkpt>
      <trkpt lat="46.65293" lon="5.53797">
        <ele>258</ele>
        <time>2022-03-04T18:52:02Z</time>
      </trkpt>
      <trkpt lat="46.65296" lon="5.53798">
        <ele>258</ele>
        <time>2022-03-04T18:52:03Z</time>
      </trkpt>
      <trkpt lat="46.653" lon="5.53798">
        <ele>258.4</ele>
        <time>2022-03-04T18:52:04Z</time>
      </trkpt>
      <trkpt lat="46.65303" lon="5.53799">
        <ele>258.4</ele>
        <time>2022-03-04T18:52:05Z</time>
      </trkpt>
      <trkpt lat="46.65307" lon="5.53799">
        <ele>258.8</ele>
        <time>2022-03-04T18:52:06Z</time>
      </trkpt>
      <trkpt lat="46.65311" lon="5.53799">
        <ele>258.8</ele>
        <time>2022-03-04T18:52:07Z</time>
      </trkpt>
      <trkpt lat="46.65314" lon="5.538">
        <ele>258.8</ele>
        <time>2022-03-04T18:52:08Z</time>
      </trkpt>
      <trkpt lat="46.65318" lon="5.538">
        <ele>259</ele>
        <time>2022-03-04T18:52:09Z</time>
      </trkpt>
      <trkpt lat="46.65321" lon="5.53801">
        <ele>259</ele>
        <time>2022-03-04T18:52:10Z</time>
      </trkpt>
      <trkpt lat="46.65325" lon="5.53802">
        <ele>259</ele>
        <time>2022-03-04T18:52:11Z</time>
      </trkpt>
      <trkpt lat="46.65329" lon="5.53803">
        <ele>259.2</ele>
        <time>2022-03-04T18:52:12Z</time>
      </trkpt>
      <trkpt lat="46.65333" lon="5.53804">
        <ele>259.2</ele>
        <time>2022-03-04T18:52:13Z</time>
      </trkpt>
      <trkpt lat="46.65336" lon="5.53804">
        <ele>259.4</ele>
        <time>2022-03-04T18:52:14Z</time>
      </trkpt>
      <trkpt lat="46.6534" lon="5.53805">
        <ele>259.4</ele>
        <time>2022-03-04T18:52:15Z</time>
      </trkpt>
      <trkpt lat="46.65344" lon="5.53805">
        <ele>259.4</ele>
        <time>2022-03-04T18:52:16Z</time>
      </trkpt>
      <trkpt lat="46.65348" lon="5.53806">
        <ele>259.8</ele>
        <time>2022-03-04T18:52:17Z</time>
      </trkpt>
      <trkpt lat="46.65351" lon="5.53806">
        <ele>259.8</ele>
        <time>2022-03-04T18:52:18Z</time>
      </trkpt>
      <trkpt lat="46.65355" lon="5.53807">
        <ele>260</ele>
        <time>2022-03-04T18:52:19Z</time>
      </trkpt>
      <trkpt lat="46.65358" lon="5.53807">
        <ele>260</ele>
        <time>2022-03-04T18:52:20Z</time>
      </trkpt>
      <trkpt lat="46.65362" lon="5.53808">
        <ele>260.2</ele>
        <time>2022-03-04T18:52:21Z</time>
      </trkpt>
      <trkpt lat="46.65365" lon="5.53809">
        <ele>260.2</ele>
        <time>2022-03-04T18:52:22Z</time>
      </trkpt>
      <trkpt lat="46.65369" lon="5.5381">
        <ele>260.2</ele>
        <time>2022-03-04T18:52:23Z</time>
      </trkpt>
      <trkpt lat="46.65373" lon="5.53811">
        <ele>260.6</ele>
        <time>2022-03-04T18:52:24Z</time>
      </trkpt>
      <trkpt lat="46.65377" lon="5.53811">
        <ele>260.6</ele>
        <time>2022-03-04T18:52:25Z</time>
      </trkpt>
      <trkpt lat="46.6538" lon="5.53812">
        <ele>260.8</ele>
        <time>2022-03-04T18:52:26Z</time>
      </trkpt>
      <trkpt lat="46.65384" lon="5.53812">
        <ele>260.8</ele>
        <time>2022-03-04T18:52:27Z</time>
      </trkpt>
      <trkpt lat="46.65388" lon="5.53813">
        <ele>261</ele>
        <time>2022-03-04T18:52:28Z</time>
      </trkpt>
      <trkpt lat="46.65392" lon="5.53814">
        <ele>261</ele>
        <time>2022-03-04T18:52:29Z</time>
      </trkpt>
      <trkpt lat="46.65396" lon="5.53815">
        <ele>261.4</ele>
        <time>2022-03-04T18:52:30Z</time>
      </trkpt>
      <trkpt lat="46.65399" lon="5.53816">
        <ele>261.6</ele>
        <time>2022-03-04T18:52:31Z</time>
      </trkpt>
      <trkpt lat="46.65403" lon="5.53817">
        <ele>261.6</ele>
        <time>2022-03-04T18:52:32Z</time>
      </trkpt>
      <trkpt lat="46.65407" lon="5.53818">
        <ele>261.8</ele>
        <time>2022-03-04T18:52:33Z</time>
      </trkpt>
      <trkpt lat="46.65411" lon="5.53819">
        <ele>262.2</ele>
        <time>2022-03-04T18:52:34Z</time>
      </trkpt>
      <trkpt lat="46.65415" lon="5.5382">
        <ele>262.2</ele>
        <time>2022-03-04T18:52:35Z</time>
      </trkpt>
      <trkpt lat="46.65418" lon="5.53821">
        <ele>262.4</ele>
        <time>2022-03-04T18:52:36Z</time>
      </trkpt>
      <trkpt lat="46.65422" lon="5.53823">
        <ele>262.4</ele>
        <time>2022-03-04T18:52:37Z</time>
      </trkpt>
      <trkpt lat="46.65425" lon="5.53824">
        <ele>262.6</ele>
        <time>2022-03-04T18:52:38Z</time>
      </trkpt>
      <trkpt lat="46.65429" lon="5.53825">
        <ele>262.6</ele>
        <time>2022-03-04T18:52:39Z</time>
      </trkpt>
      <trkpt lat="46.65432" lon="5.53826">
        <ele>263</ele>
        <time>2022-03-04T18:52:40Z</time>
      </trkpt>
      <trkpt lat="46.65435" lon="5.53827">
        <ele>263</ele>
        <time>2022-03-04T18:52:41Z</time>
      </trkpt>
      <trkpt lat="46.65439" lon="5.53828">
        <ele>263</ele>
        <time>2022-03-04T18:52:42Z</time>
      </trkpt>
      <trkpt lat="46.65442" lon="5.5383">
        <ele>263.4</ele>
        <time>2022-03-04T18:52:43Z</time>
      </trkpt>
      <trkpt lat="46.65445" lon="5.53831">
        <ele>263.6</ele>
        <time>2022-03-04T18:52:44Z</time>
      </trkpt>
      <trkpt lat="46.65448" lon="5.53833">
        <ele>263.6</ele>
        <time>2022-03-04T18:52:45Z</time>
      </trkpt>
      <trkpt lat="46.65451" lon="5.53834">
        <ele>264</ele>
        <time>2022-03-04T18:52:46Z</time>
      </trkpt>
      <trkpt lat="46.65454" lon="5.53835">
        <ele>264.2</ele>
        <time>2022-03-04T18:52:47Z</time>
      </trkpt>
      <trkpt lat="46.65457" lon="5.53837">
        <ele>264.4</ele>
        <time>2022-03-04T18:52:48Z</time>
      </trkpt>
      <trkpt lat="46.6546" lon="5.53838">
        <ele>264.4</ele>
        <time>2022-03-04T18:52:49Z</time>
      </trkpt>
      <trkpt lat="46.65464" lon="5.53839">
        <ele>264.8</ele>
        <time>2022-03-04T18:52:50Z</time>
      </trkpt>
      <trkpt lat="46.65467" lon="5.53841">
        <ele>264.8</ele>
        <time>2022-03-04T18:52:51Z</time>
      </trkpt>
      <trkpt lat="46.6547" lon="5.53842">
        <ele>265</ele>
        <time>2022-03-04T18:52:52Z</time>
      </trkpt>
      <trkpt lat="46.65473" lon="5.53843">
        <ele>265</ele>
        <time>2022-03-04T18:52:53Z</time>
      </trkpt>
      <trkpt lat="46.65476" lon="5.53844">
        <ele>265.2</ele>
        <time>2022-03-04T18:52:54Z</time>
      </trkpt>
      <trkpt lat="46.65479" lon="5.53846">
        <ele>265.4</ele>
        <time>2022-03-04T18:52:55Z</time>
      </trkpt>
      <trkpt lat="46.65482" lon="5.53847">
        <ele>265.8</ele>
        <time>2022-03-04T18:52:56Z</time>
      </trkpt>
      <trkpt lat="46.65484" lon="5.53848">
        <ele>265.8</ele>
        <time>2022-03-04T18:52:57Z</time>
      </trkpt>
      <trkpt lat="46.65487" lon="5.53849">
        <ele>266</ele>
        <time>2022-03-04T18:52:58Z</time>
      </trkpt>
      <trkpt lat="46.6549" lon="5.53851">
        <ele>266.2</ele>
        <time>2022-03-04T18:52:59Z</time>
      </trkpt>
      <trkpt lat="46.65493" lon="5.53852">
        <ele>266.2</ele>
        <time>2022-03-04T18:53:00Z</time>
      </trkpt>
      <trkpt lat="46.65495" lon="5.53854">
        <ele>266.6</ele>
        <time>2022-03-04T18:53:01Z</time>
      </trkpt>
      <trkpt lat="46.65498" lon="5.53856">
        <ele>266.6</ele>
        <time>2022-03-04T18:53:02Z</time>
      </trkpt>
      <trkpt lat="46.65501" lon="5.53857">
        <ele>266.8</ele>
        <time>2022-03-04T18:53:03Z</time>
      </trkpt>
      <trkpt lat="46.65504" lon="5.53859">
        <ele>266.8</ele>
        <time>2022-03-04T18:53:04Z</time>
      </trkpt>
      <trkpt lat="46.65507" lon="5.53861">
        <ele>267.2</ele>
        <time>2022-03-04T18:53:05Z</time>
      </trkpt>
      <trkpt lat="46.6551" lon="5.53863">
        <ele>267.2</ele>
        <time>2022-03-04T18:53:06Z</time>
      </trkpt>
      <trkpt lat="46.65513" lon="5.53864">
        <ele>267.6</ele>
        <time>2022-03-04T18:53:07Z</time>
      </trkpt>
      <trkpt lat="46.65516" lon="5.53866">
        <ele>267.6</ele>
        <time>2022-03-04T18:53:08Z</time>
      </trkpt>
      <trkpt lat="46.65519" lon="5.53868">
        <ele>267.8</ele>
        <time>2022-03-04T18:53:09Z</time>
      </trkpt>
      <trkpt lat="46.65522" lon="5.5387">
        <ele>267.8</ele>
        <time>2022-03-04T18:53:10Z</time>
      </trkpt>
      <trkpt lat="46.65525" lon="5.53872">
        <ele>268</ele>
        <time>2022-03-04T18:53:11Z</time>
      </trkpt>
      <trkpt lat="46.65527" lon="5.53874">
        <ele>268</ele>
        <time>2022-03-04T18:53:12Z</time>
      </trkpt>
      <trkpt lat="46.6553" lon="5.53876">
        <ele>268</ele>
        <time>2022-03-04T18:53:13Z</time>
      </trkpt>
      <trkpt lat="46.65533" lon="5.53878">
        <ele>268.4</ele>
        <time>2022-03-04T18:53:14Z</time>
      </trkpt>
      <trkpt lat="46.65536" lon="5.5388">
        <ele>268.4</ele>
        <time>2022-03-04T18:53:15Z</time>
      </trkpt>
      <trkpt lat="46.65539" lon="5.53882">
        <ele>268.6</ele>
        <time>2022-03-04T18:53:16Z</time>
      </trkpt>
      <trkpt lat="46.65542" lon="5.53885">
        <ele>268.6</ele>
        <time>2022-03-04T18:53:17Z</time>
      </trkpt>
      <trkpt lat="46.65545" lon="5.53887">
        <ele>269</ele>
        <time>2022-03-04T18:53:18Z</time>
      </trkpt>
      <trkpt lat="46.65548" lon="5.53889">
        <ele>269</ele>
        <time>2022-03-04T18:53:19Z</time>
      </trkpt>
      <trkpt lat="46.65551" lon="5.53892">
        <ele>269</ele>
        <time>2022-03-04T18:53:20Z</time>
      </trkpt>
      <trkpt lat="46.65554" lon="5.53894">
        <ele>269.2</ele>
        <time>2022-03-04T18:53:21Z</time>
      </trkpt>
      <trkpt lat="46.65557" lon="5.53896">
        <ele>269.4</ele>
        <time>2022-03-04T18:53:22Z</time>
      </trkpt>
      <trkpt lat="46.6556" lon="5.53898">
        <ele>269.6</ele>
        <time>2022-03-04T18:53:23Z</time>
      </trkpt>
      <trkpt lat="46.65563" lon="5.539">
        <ele>269.6</ele>
        <time>2022-03-04T18:53:24Z</time>
      </trkpt>
      <trkpt lat="46.65566" lon="5.53903">
        <ele>270</ele>
        <time>2022-03-04T18:53:25Z</time>
      </trkpt>
      <trkpt lat="46.65569" lon="5.53905">
        <ele>270</ele>
        <time>2022-03-04T18:53:26Z</time>
      </trkpt>
      <trkpt lat="46.65572" lon="5.53907">
        <ele>270</ele>
        <time>2022-03-04T18:53:27Z</time>
      </trkpt>
      <trkpt lat="46.65576" lon="5.5391">
        <ele>270.2</ele>
        <time>2022-03-04T18:53:28Z</time>
      </trkpt>
      <trkpt lat="46.65579" lon="5.53912">
        <ele>270.2</ele>
        <time>2022-03-04T18:53:29Z</time>
      </trkpt>
      <trkpt lat="46.65583" lon="5.53915">
        <ele>270.2</ele>
        <time>2022-03-04T18:53:30Z</time>
      </trkpt>
      <trkpt lat="46.65586" lon="5.53917">
        <ele>270.2</ele>
        <time>2022-03-04T18:53:31Z</time>
      </trkpt>
      <trkpt lat="46.65589" lon="5.5392">
        <ele>270.2</ele>
        <time>2022-03-04T18:53:32Z</time>
      </trkpt>
      <trkpt lat="46.65593" lon="5.53922">
        <ele>270.2</ele>
        <time>2022-03-04T18:53:33Z</time>
      </trkpt>
      <trkpt lat="46.65596" lon="5.53924">
        <ele>270.4</ele>
        <time>2022-03-04T18:53:34Z</time>
      </trkpt>
      <trkpt lat="46.656" lon="5.53926">
        <ele>270.4</ele>
        <time>2022-03-04T18:53:35Z</time>
      </trkpt>
      <trkpt lat="46.65603" lon="5.53929">
        <ele>270.4</ele>
        <time>2022-03-04T18:53:36Z</time>
      </trkpt>
      <trkpt lat="46.65607" lon="5.53931">
        <ele>270.4</ele>
        <time>2022-03-04T18:53:37Z</time>
      </trkpt>
      <trkpt lat="46.6561" lon="5.53932">
        <ele>270.4</ele>
        <time>2022-03-04T18:53:38Z</time>
      </trkpt>
      <trkpt lat="46.65614" lon="5.53934">
        <ele>270.4</ele>
        <time>2022-03-04T18:53:39Z</time>
      </trkpt>
      <trkpt lat="46.65618" lon="5.53936">
        <ele>270.4</ele>
        <time>2022-03-04T18:53:40Z</time>
      </trkpt>
      <trkpt lat="46.65622" lon="5.53938">
        <ele>270.4</ele>
        <time>2022-03-04T18:53:41Z</time>
      </trkpt>
      <trkpt lat="46.65626" lon="5.5394">
        <ele>270.6</ele>
        <time>2022-03-04T18:53:42Z</time>
      </trkpt>
      <trkpt lat="46.65629" lon="5.53941">
        <ele>270.6</ele>
        <time>2022-03-04T18:53:43Z</time>
      </trkpt>
      <trkpt lat="46.65633" lon="5.53943">
        <ele>270.6</ele>
        <time>2022-03-04T18:53:44Z</time>
      </trkpt>
      <trkpt lat="46.65637" lon="5.53945">
        <ele>270.6</ele>
        <time>2022-03-04T18:53:45Z</time>
      </trkpt>
      <trkpt lat="46.65641" lon="5.53946">
        <ele>270.6</ele>
        <time>2022-03-04T18:53:46Z</time>
      </trkpt>
      <trkpt lat="46.65645" lon="5.53948">
        <ele>270.6</ele>
        <time>2022-03-04T18:53:47Z</time>
      </trkpt>
      <trkpt lat="46.65648" lon="5.5395">
        <ele>270.6</ele>
        <time>2022-03-04T18:53:48Z</time>
      </trkpt>
      <trkpt lat="46.65652" lon="5.53952">
        <ele>270.6</ele>
        <time>2022-03-04T18:53:49Z</time>
      </trkpt>
      <trkpt lat="46.65655" lon="5.53953">
        <ele>270.6</ele>
        <time>2022-03-04T18:53:50Z</time>
      </trkpt>
      <trkpt lat="46.65659" lon="5.53955">
        <ele>270.6</ele>
        <time>2022-03-04T18:53:51Z</time>
      </trkpt>
      <trkpt lat="46.65662" lon="5.53957">
        <ele>270.6</ele>
        <time>2022-03-04T18:53:52Z</time>
      </trkpt>
      <trkpt lat="46.65666" lon="5.53958">
        <ele>270.8</ele>
        <time>2022-03-04T18:53:53Z</time>
      </trkpt>
      <trkpt lat="46.65669" lon="5.5396">
        <ele>270.8</ele>
        <time>2022-03-04T18:53:54Z</time>
      </trkpt>
      <trkpt lat="46.65673" lon="5.53961">
        <ele>270.8</ele>
        <time>2022-03-04T18:53:55Z</time>
      </trkpt>
      <trkpt lat="46.65676" lon="5.53963">
        <ele>270.8</ele>
        <time>2022-03-04T18:53:56Z</time>
      </trkpt>
      <trkpt lat="46.65679" lon="5.53964">
        <ele>270.8</ele>
        <time>2022-03-04T18:53:57Z</time>
      </trkpt>
      <trkpt lat="46.65683" lon="5.53966">
        <ele>270.8</ele>
        <time>2022-03-04T18:53:58Z</time>
      </trkpt>
      <trkpt lat="46.65687" lon="5.53968">
        <ele>270.8</ele>
        <time>2022-03-04T18:53:59Z</time>
      </trkpt>
      <trkpt lat="46.6569" lon="5.53969">
        <ele>270.8</ele>
        <time>2022-03-04T18:54:00Z</time>
      </trkpt>
      <trkpt lat="46.65693" lon="5.5397">
        <ele>270.8</ele>
        <time>2022-03-04T18:54:01Z</time>
      </trkpt>
      <trkpt lat="46.65697" lon="5.53971">
        <ele>271</ele>
        <time>2022-03-04T18:54:02Z</time>
      </trkpt>
      <trkpt lat="46.657" lon="5.53971">
        <ele>271</ele>
        <time>2022-03-04T18:54:03Z</time>
      </trkpt>
      <trkpt lat="46.65704" lon="5.53972">
        <ele>271.4</ele>
        <time>2022-03-04T18:54:04Z</time>
      </trkpt>
      <trkpt lat="46.65707" lon="5.53972">
        <ele>271.4</ele>
        <time>2022-03-04T18:54:05Z</time>
      </trkpt>
      <trkpt lat="46.6571" lon="5.53972">
        <ele>271.4</ele>
        <time>2022-03-04T18:54:06Z</time>
      </trkpt>
      <trkpt lat="46.65714" lon="5.53973">
        <ele>271.6</ele>
        <time>2022-03-04T18:54:07Z</time>
      </trkpt>
      <trkpt lat="46.65717" lon="5.53973">
        <ele>271.6</ele>
        <time>2022-03-04T18:54:08Z</time>
      </trkpt>
      <trkpt lat="46.6572" lon="5.53973">
        <ele>271.6</ele>
        <time>2022-03-04T18:54:09Z</time>
      </trkpt>
      <trkpt lat="46.65724" lon="5.53972">
        <ele>272</ele>
        <time>2022-03-04T18:54:10Z</time>
      </trkpt>
      <trkpt lat="46.65727" lon="5.53971">
        <ele>272</ele>
        <time>2022-03-04T18:54:11Z</time>
      </trkpt>
      <trkpt lat="46.65731" lon="5.53971">
        <ele>272.2</ele>
        <time>2022-03-04T18:54:12Z</time>
      </trkpt>
      <trkpt lat="46.65734" lon="5.5397">
        <ele>272.2</ele>
        <time>2022-03-04T18:54:13Z</time>
      </trkpt>
      <trkpt lat="46.65737" lon="5.5397">
        <ele>272.4</ele>
        <time>2022-03-04T18:54:14Z</time>
      </trkpt>
      <trkpt lat="46.65741" lon="5.53969">
        <ele>272.4</ele>
        <time>2022-03-04T18:54:15Z</time>
      </trkpt>
      <trkpt lat="46.65744" lon="5.53968">
        <ele>272.6</ele>
        <time>2022-03-04T18:54:16Z</time>
      </trkpt>
      <trkpt lat="46.65747" lon="5.53968">
        <ele>272.6</ele>
        <time>2022-03-04T18:54:17Z</time>
      </trkpt>
      <trkpt lat="46.6575" lon="5.53967">
        <ele>273</ele>
        <time>2022-03-04T18:54:18Z</time>
      </trkpt>
      <trkpt lat="46.65753" lon="5.53967">
        <ele>273</ele>
        <time>2022-03-04T18:54:19Z</time>
      </trkpt>
      <trkpt lat="46.65757" lon="5.53966">
        <ele>273.2</ele>
        <time>2022-03-04T18:54:20Z</time>
      </trkpt>
      <trkpt lat="46.6576" lon="5.53965">
        <ele>273.2</ele>
        <time>2022-03-04T18:54:21Z</time>
      </trkpt>
      <trkpt lat="46.65763" lon="5.53965">
        <ele>273.6</ele>
        <time>2022-03-04T18:54:22Z</time>
      </trkpt>
      <trkpt lat="46.65766" lon="5.53965">
        <ele>273.6</ele>
        <time>2022-03-04T18:54:23Z</time>
      </trkpt>
      <trkpt lat="46.65769" lon="5.53964">
        <ele>273.8</ele>
        <time>2022-03-04T18:54:24Z</time>
      </trkpt>
      <trkpt lat="46.65772" lon="5.53963">
        <ele>273.8</ele>
        <time>2022-03-04T18:54:25Z</time>
      </trkpt>
      <trkpt lat="46.65776" lon="5.53963">
        <ele>274.2</ele>
        <time>2022-03-04T18:54:26Z</time>
      </trkpt>
      <trkpt lat="46.65778" lon="5.53963">
        <ele>274.2</ele>
        <time>2022-03-04T18:54:27Z</time>
      </trkpt>
      <trkpt lat="46.65781" lon="5.53962">
        <ele>274.4</ele>
        <time>2022-03-04T18:54:28Z</time>
      </trkpt>
      <trkpt lat="46.65784" lon="5.53962">
        <ele>274.4</ele>
        <time>2022-03-04T18:54:29Z</time>
      </trkpt>
      <trkpt lat="46.65787" lon="5.53963">
        <ele>274.4</ele>
        <time>2022-03-04T18:54:30Z</time>
      </trkpt>
      <trkpt lat="46.65789" lon="5.53963">
        <ele>274.6</ele>
        <time>2022-03-04T18:54:31Z</time>
      </trkpt>
      <trkpt lat="46.65792" lon="5.53964">
        <ele>274.6</ele>
        <time>2022-03-04T18:54:32Z</time>
      </trkpt>
      <trkpt lat="46.65794" lon="5.53964">
        <ele>274.6</ele>
        <time>2022-03-04T18:54:33Z</time>
      </trkpt>
      <trkpt lat="46.65797" lon="5.53964">
        <ele>275</ele>
        <time>2022-03-04T18:54:34Z</time>
      </trkpt>
      <trkpt lat="46.65799" lon="5.53965">
        <ele>275</ele>
        <time>2022-03-04T18:54:35Z</time>
      </trkpt>
      <trkpt lat="46.65802" lon="5.53966">
        <ele>275.2</ele>
        <time>2022-03-04T18:54:36Z</time>
      </trkpt>
      <trkpt lat="46.65805" lon="5.53966">
        <ele>275.2</ele>
        <time>2022-03-04T18:54:37Z</time>
      </trkpt>
      <trkpt lat="46.65807" lon="5.53967">
        <ele>275.2</ele>
        <time>2022-03-04T18:54:38Z</time>
      </trkpt>
      <trkpt lat="46.6581" lon="5.53968">
        <ele>275.6</ele>
        <time>2022-03-04T18:54:39Z</time>
      </trkpt>
      <trkpt lat="46.65813" lon="5.53968">
        <ele>275.6</ele>
        <time>2022-03-04T18:54:40Z</time>
      </trkpt>
      <trkpt lat="46.65815" lon="5.53969">
        <ele>275.6</ele>
        <time>2022-03-04T18:54:41Z</time>
      </trkpt>
      <trkpt lat="46.65818" lon="5.5397">
        <ele>275.8</ele>
        <time>2022-03-04T18:54:42Z</time>
      </trkpt>
      <trkpt lat="46.6582" lon="5.53971">
        <ele>275.8</ele>
        <time>2022-03-04T18:54:43Z</time>
      </trkpt>
      <trkpt lat="46.65823" lon="5.53973">
        <ele>276</ele>
        <time>2022-03-04T18:54:44Z</time>
      </trkpt>
      <trkpt lat="46.65825" lon="5.53974">
        <ele>276</ele>
        <time>2022-03-04T18:54:45Z</time>
      </trkpt>
      <trkpt lat="46.65827" lon="5.53975">
        <ele>276.4</ele>
        <time>2022-03-04T18:54:46Z</time>
      </trkpt>
      <trkpt lat="46.6583" lon="5.53977">
        <ele>276.4</ele>
        <time>2022-03-04T18:54:47Z</time>
      </trkpt>
      <trkpt lat="46.65832" lon="5.53978">
        <ele>276.6</ele>
        <time>2022-03-04T18:54:48Z</time>
      </trkpt>
      <trkpt lat="46.65834" lon="5.53979">
        <ele>276.6</ele>
        <time>2022-03-04T18:54:49Z</time>
      </trkpt>
      <trkpt lat="46.65837" lon="5.53981">
        <ele>276.8</ele>
        <time>2022-03-04T18:54:50Z</time>
      </trkpt>
      <trkpt lat="46.65839" lon="5.53982">
        <ele>276.8</ele>
        <time>2022-03-04T18:54:51Z</time>
      </trkpt>
      <trkpt lat="46.65841" lon="5.53984">
        <ele>277</ele>
        <time>2022-03-04T18:54:52Z</time>
      </trkpt>
      <trkpt lat="46.65844" lon="5.53985">
        <ele>277</ele>
        <time>2022-03-04T18:54:53Z</time>
      </trkpt>
      <trkpt lat="46.65846" lon="5.53987">
        <ele>277.4</ele>
        <time>2022-03-04T18:54:54Z</time>
      </trkpt>
      <trkpt lat="46.65848" lon="5.53988">
        <ele>277.4</ele>
        <time>2022-03-04T18:54:55Z</time>
      </trkpt>
      <trkpt lat="46.65851" lon="5.5399">
        <ele>277.6</ele>
        <time>2022-03-04T18:54:56Z</time>
      </trkpt>
      <trkpt lat="46.65853" lon="5.53992">
        <ele>277.6</ele>
        <time>2022-03-04T18:54:57Z</time>
      </trkpt>
      <trkpt lat="46.65855" lon="5.53994">
        <ele>277.6</ele>
        <time>2022-03-04T18:54:58Z</time>
      </trkpt>
      <trkpt lat="46.65858" lon="5.53996">
        <ele>278</ele>
        <time>2022-03-04T18:54:59Z</time>
      </trkpt>
      <trkpt lat="46.6586" lon="5.53998">
        <ele>278</ele>
        <time>2022-03-04T18:55:00Z</time>
      </trkpt>
      <trkpt lat="46.65862" lon="5.54">
        <ele>278.2</ele>
        <time>2022-03-04T18:55:01Z</time>
      </trkpt>
      <trkpt lat="46.65865" lon="5.54002">
        <ele>278.2</ele>
        <time>2022-03-04T18:55:02Z</time>
      </trkpt>
      <trkpt lat="46.65867" lon="5.54003">
        <ele>278.6</ele>
        <time>2022-03-04T18:55:03Z</time>
      </trkpt>
      <trkpt lat="46.65869" lon="5.54005">
        <ele>278.6</ele>
        <time>2022-03-04T18:55:04Z</time>
      </trkpt>
      <trkpt lat="46.65871" lon="5.54007">
        <ele>279</ele>
        <time>2022-03-04T18:55:05Z</time>
      </trkpt>
      <trkpt lat="46.65873" lon="5.54009">
        <ele>279</ele>
        <time>2022-03-04T18:55:06Z</time>
      </trkpt>
      <trkpt lat="46.65876" lon="5.5401">
        <ele>279</ele>
        <time>2022-03-04T18:55:07Z</time>
      </trkpt>
      <trkpt lat="46.65878" lon="5.54012">
        <ele>279.2</ele>
        <time>2022-03-04T18:55:08Z</time>
      </trkpt>
      <trkpt lat="46.6588" lon="5.54014">
        <ele>279.2</ele>
        <time>2022-03-04T18:55:09Z</time>
      </trkpt>
      <trkpt lat="46.65883" lon="5.54016">
        <ele>279.2</ele>
        <time>2022-03-04T18:55:10Z</time>
      </trkpt>
      <trkpt lat="46.65885" lon="5.54017">
        <ele>279.2</ele>
        <time>2022-03-04T18:55:11Z</time>
      </trkpt>
      <trkpt lat="46.65887" lon="5.54019">
        <ele>279.4</ele>
        <time>2022-03-04T18:55:12Z</time>
      </trkpt>
      <trkpt lat="46.6589" lon="5.54021">
        <ele>279.4</ele>
        <time>2022-03-04T18:55:13Z</time>
      </trkpt>
      <trkpt lat="46.65892" lon="5.54023">
        <ele>279.4</ele>
        <time>2022-03-04T18:55:14Z</time>
      </trkpt>
      <trkpt lat="46.65894" lon="5.54024">
        <ele>279.6</ele>
        <time>2022-03-04T18:55:15Z</time>
      </trkpt>
      <trkpt lat="46.65897" lon="5.54025">
        <ele>279.6</ele>
        <time>2022-03-04T18:55:16Z</time>
      </trkpt>
      <trkpt lat="46.65899" lon="5.54027">
        <ele>279.6</ele>
        <time>2022-03-04T18:55:17Z</time>
      </trkpt>
      <trkpt lat="46.65901" lon="5.54028">
        <ele>280</ele>
        <time>2022-03-04T18:55:18Z</time>
      </trkpt>
      <trkpt lat="46.65903" lon="5.54029">
        <ele>280</ele>
        <time>2022-03-04T18:55:19Z</time>
      </trkpt>
      <trkpt lat="46.65906" lon="5.5403">
        <ele>280</ele>
        <time>2022-03-04T18:55:20Z</time>
      </trkpt>
      <trkpt lat="46.65908" lon="5.54031">
        <ele>280</ele>
        <time>2022-03-04T18:55:21Z</time>
      </trkpt>
      <trkpt lat="46.6591" lon="5.54031">
        <ele>280.2</ele>
        <time>2022-03-04T18:55:22Z</time>
      </trkpt>
      <trkpt lat="46.65912" lon="5.54032">
        <ele>280.2</ele>
        <time>2022-03-04T18:55:23Z</time>
      </trkpt>
      <trkpt lat="46.65914" lon="5.54034">
        <ele>280.4</ele>
        <time>2022-03-04T18:55:24Z</time>
      </trkpt>
      <trkpt lat="46.65916" lon="5.54035">
        <ele>280.4</ele>
        <time>2022-03-04T18:55:25Z</time>
      </trkpt>
      <trkpt lat="46.65919" lon="5.54035">
        <ele>280.4</ele>
        <time>2022-03-04T18:55:26Z</time>
      </trkpt>
      <trkpt lat="46.65922" lon="5.54037">
        <ele>280.8</ele>
        <time>2022-03-04T18:55:27Z</time>
      </trkpt>
      <trkpt lat="46.65924" lon="5.54038">
        <ele>280.8</ele>
        <time>2022-03-04T18:55:28Z</time>
      </trkpt>
      <trkpt lat="46.65927" lon="5.54038">
        <ele>281</ele>
        <time>2022-03-04T18:55:29Z</time>
      </trkpt>
      <trkpt lat="46.65929" lon="5.54039">
        <ele>281</ele>
        <time>2022-03-04T18:55:30Z</time>
      </trkpt>
      <trkpt lat="46.65931" lon="5.5404">
        <ele>281</ele>
        <time>2022-03-04T18:55:31Z</time>
      </trkpt>
      <trkpt lat="46.65933" lon="5.5404">
        <ele>281</ele>
        <time>2022-03-04T18:55:32Z</time>
      </trkpt>
      <trkpt lat="46.65935" lon="5.54041">
        <ele>281.2</ele>
        <time>2022-03-04T18:55:33Z</time>
      </trkpt>
      <trkpt lat="46.65938" lon="5.54041">
        <ele>281.2</ele>
        <time>2022-03-04T18:55:34Z</time>
      </trkpt>
      <trkpt lat="46.6594" lon="5.54042">
        <ele>281.6</ele>
        <time>2022-03-04T18:55:35Z</time>
      </trkpt>
      <trkpt lat="46.65943" lon="5.54042">
        <ele>281.6</ele>
        <time>2022-03-04T18:55:36Z</time>
      </trkpt>
      <trkpt lat="46.65945" lon="5.54043">
        <ele>281.8</ele>
        <time>2022-03-04T18:55:37Z</time>
      </trkpt>
      <trkpt lat="46.65948" lon="5.54044">
        <ele>281.8</ele>
        <time>2022-03-04T18:55:38Z</time>
      </trkpt>
      <trkpt lat="46.65951" lon="5.54045">
        <ele>282</ele>
        <time>2022-03-04T18:55:39Z</time>
      </trkpt>
      <trkpt lat="46.65954" lon="5.54046">
        <ele>282</ele>
        <time>2022-03-04T18:55:40Z</time>
      </trkpt>
      <trkpt lat="46.65957" lon="5.54047">
        <ele>282</ele>
        <time>2022-03-04T18:55:41Z</time>
      </trkpt>
      <trkpt lat="46.65959" lon="5.54048">
        <ele>282.4</ele>
        <time>2022-03-04T18:55:42Z</time>
      </trkpt>
      <trkpt lat="46.65962" lon="5.54049">
        <ele>282.4</ele>
        <time>2022-03-04T18:55:43Z</time>
      </trkpt>
      <trkpt lat="46.65965" lon="5.5405">
        <ele>282.6</ele>
        <time>2022-03-04T18:55:44Z</time>
      </trkpt>
      <trkpt lat="46.65968" lon="5.5405">
        <ele>282.6</ele>
        <time>2022-03-04T18:55:45Z</time>
      </trkpt>
      <trkpt lat="46.6597" lon="5.54051">
        <ele>282.8</ele>
        <time>2022-03-04T18:55:46Z</time>
      </trkpt>
      <trkpt lat="46.65973" lon="5.54051">
        <ele>282.8</ele>
        <time>2022-03-04T18:55:47Z</time>
      </trkpt>
      <trkpt lat="46.65975" lon="5.54052">
        <ele>283</ele>
        <time>2022-03-04T18:55:48Z</time>
      </trkpt>
      <trkpt lat="46.65978" lon="5.54053">
        <ele>283</ele>
        <time>2022-03-04T18:55:49Z</time>
      </trkpt>
      <trkpt lat="46.6598" lon="5.54054">
        <ele>283.4</ele>
        <time>2022-03-04T18:55:50Z</time>
      </trkpt>
      <trkpt lat="46.65983" lon="5.54055">
        <ele>283.4</ele>
        <time>2022-03-04T18:55:51Z</time>
      </trkpt>
      <trkpt lat="46.65986" lon="5.54056">
        <ele>283.4</ele>
        <time>2022-03-04T18:55:52Z</time>
      </trkpt>
      <trkpt lat="46.65988" lon="5.54057">
        <ele>283.4</ele>
        <time>2022-03-04T18:55:53Z</time>
      </trkpt>
      <trkpt lat="46.65991" lon="5.54058">
        <ele>283.6</ele>
        <time>2022-03-04T18:55:54Z</time>
      </trkpt>
      <trkpt lat="46.65993" lon="5.54059">
        <ele>283.6</ele>
        <time>2022-03-04T18:55:55Z</time>
      </trkpt>
      <trkpt lat="46.65996" lon="5.54059">
        <ele>283.6</ele>
        <time>2022-03-04T18:55:56Z</time>
      </trkpt>
      <trkpt lat="46.65998" lon="5.5406">
        <ele>284</ele>
        <time>2022-03-04T18:55:57Z</time>
      </trkpt>
      <trkpt lat="46.66001" lon="5.54061">
        <ele>284</ele>
        <time>2022-03-04T18:55:58Z</time>
      </trkpt>
      <trkpt lat="46.66003" lon="5.54061">
        <ele>284.2</ele>
        <time>2022-03-04T18:55:59Z</time>
      </trkpt>
      <trkpt lat="46.66006" lon="5.54062">
        <ele>284.2</ele>
        <time>2022-03-04T18:56:00Z</time>
      </trkpt>
      <trkpt lat="46.66008" lon="5.54062">
        <ele>284.4</ele>
        <time>2022-03-04T18:56:01Z</time>
      </trkpt>
      <trkpt lat="46.66011" lon="5.54064">
        <ele>284.6</ele>
        <time>2022-03-04T18:56:02Z</time>
      </trkpt>
      <trkpt lat="46.66014" lon="5.54065">
        <ele>284.6</ele>
        <time>2022-03-04T18:56:03Z</time>
      </trkpt>
      <trkpt lat="46.66017" lon="5.54066">
        <ele>285</ele>
        <time>2022-03-04T18:56:04Z</time>
      </trkpt>
      <trkpt lat="46.6602" lon="5.54068">
        <ele>285</ele>
        <time>2022-03-04T18:56:05Z</time>
      </trkpt>
      <trkpt lat="46.66022" lon="5.54069">
        <ele>285.2</ele>
        <time>2022-03-04T18:56:06Z</time>
      </trkpt>
      <trkpt lat="46.66025" lon="5.5407">
        <ele>285.2</ele>
        <time>2022-03-04T18:56:07Z</time>
      </trkpt>
      <trkpt lat="46.66027" lon="5.54072">
        <ele>285.6</ele>
        <time>2022-03-04T18:56:08Z</time>
      </trkpt>
      <trkpt lat="46.6603" lon="5.54073">
        <ele>285.6</ele>
        <time>2022-03-04T18:56:09Z</time>
      </trkpt>
      <trkpt lat="46.66033" lon="5.54074">
        <ele>285.6</ele>
        <time>2022-03-04T18:56:10Z</time>
      </trkpt>
      <trkpt lat="46.66035" lon="5.54074">
        <ele>285.8</ele>
        <time>2022-03-04T18:56:11Z</time>
      </trkpt>
      <trkpt lat="46.66039" lon="5.54074">
        <ele>285.8</ele>
        <time>2022-03-04T18:56:12Z</time>
      </trkpt>
      <trkpt lat="46.66042" lon="5.54075">
        <ele>285.8</ele>
        <time>2022-03-04T18:56:13Z</time>
      </trkpt>
      <trkpt lat="46.66045" lon="5.54077">
        <ele>286</ele>
        <time>2022-03-04T18:56:14Z</time>
      </trkpt>
      <trkpt lat="46.66048" lon="5.54079">
        <ele>286</ele>
        <time>2022-03-04T18:56:15Z</time>
      </trkpt>
      <trkpt lat="46.66051" lon="5.5408">
        <ele>286.2</ele>
        <time>2022-03-04T18:56:16Z</time>
      </trkpt>
      <trkpt lat="46.66053" lon="5.54082">
        <ele>286.2</ele>
        <time>2022-03-04T18:56:17Z</time>
      </trkpt>
      <trkpt lat="46.66056" lon="5.54083">
        <ele>286.6</ele>
        <time>2022-03-04T18:56:18Z</time>
      </trkpt>
      <trkpt lat="46.66059" lon="5.54085">
        <ele>286.6</ele>
        <time>2022-03-04T18:56:19Z</time>
      </trkpt>
      <trkpt lat="46.66062" lon="5.54086">
        <ele>286.8</ele>
        <time>2022-03-04T18:56:20Z</time>
      </trkpt>
      <trkpt lat="46.66065" lon="5.54087">
        <ele>286.8</ele>
        <time>2022-03-04T18:56:21Z</time>
      </trkpt>
      <trkpt lat="46.66067" lon="5.54089">
        <ele>286.8</ele>
        <time>2022-03-04T18:56:22Z</time>
      </trkpt>
      <trkpt lat="46.6607" lon="5.5409">
        <ele>286.8</ele>
        <time>2022-03-04T18:56:23Z</time>
      </trkpt>
      <trkpt lat="46.66072" lon="5.54091">
        <ele>287</ele>
        <time>2022-03-04T18:56:24Z</time>
      </trkpt>
      <trkpt lat="46.66075" lon="5.54092">
        <ele>287</ele>
        <time>2022-03-04T18:56:25Z</time>
      </trkpt>
      <trkpt lat="46.66077" lon="5.54093">
        <ele>287.4</ele>
        <time>2022-03-04T18:56:26Z</time>
      </trkpt>
      <trkpt lat="46.66079" lon="5.54094">
        <ele>287.4</ele>
        <time>2022-03-04T18:56:27Z</time>
      </trkpt>
      <trkpt lat="46.66081" lon="5.54095">
        <ele>287.6</ele>
        <time>2022-03-04T18:56:28Z</time>
      </trkpt>
      <trkpt lat="46.66084" lon="5.54096">
        <ele>287.6</ele>
        <time>2022-03-04T18:56:29Z</time>
      </trkpt>
      <trkpt lat="46.66086" lon="5.54097">
        <ele>287.8</ele>
        <time>2022-03-04T18:56:30Z</time>
      </trkpt>
      <trkpt lat="46.66089" lon="5.54098">
        <ele>287.8</ele>
        <time>2022-03-04T18:56:31Z</time>
      </trkpt>
      <trkpt lat="46.66091" lon="5.541">
        <ele>288</ele>
        <time>2022-03-04T18:56:32Z</time>
      </trkpt>
      <trkpt lat="46.66093" lon="5.54101">
        <ele>288</ele>
        <time>2022-03-04T18:56:33Z</time>
      </trkpt>
      <trkpt lat="46.66096" lon="5.54102">
        <ele>288.2</ele>
        <time>2022-03-04T18:56:34Z</time>
      </trkpt>
      <trkpt lat="46.66098" lon="5.54104">
        <ele>288.2</ele>
        <time>2022-03-04T18:56:35Z</time>
      </trkpt>
      <trkpt lat="46.661" lon="5.54105">
        <ele>288.6</ele>
        <time>2022-03-04T18:56:36Z</time>
      </trkpt>
      <trkpt lat="46.66102" lon="5.54107">
        <ele>288.6</ele>
        <time>2022-03-04T18:56:37Z</time>
      </trkpt>
      <trkpt lat="46.66105" lon="5.54108">
        <ele>289</ele>
        <time>2022-03-04T18:56:38Z</time>
      </trkpt>
      <trkpt lat="46.66107" lon="5.5411">
        <ele>289</ele>
        <time>2022-03-04T18:56:39Z</time>
      </trkpt>
      <trkpt lat="46.6611" lon="5.54112">
        <ele>289.2</ele>
        <time>2022-03-04T18:56:40Z</time>
      </trkpt>
      <trkpt lat="46.66112" lon="5.54114">
        <ele>289.2</ele>
        <time>2022-03-04T18:56:41Z</time>
      </trkpt>
      <trkpt lat="46.66115" lon="5.54115">
        <ele>289.4</ele>
        <time>2022-03-04T18:56:42Z</time>
      </trkpt>
      <trkpt lat="46.66117" lon="5.54117">
        <ele>289.4</ele>
        <time>2022-03-04T18:56:43Z</time>
      </trkpt>
      <trkpt lat="46.66119" lon="5.54119">
        <ele>289.6</ele>
        <time>2022-03-04T18:56:44Z</time>
      </trkpt>
      <trkpt lat="46.66121" lon="5.5412">
        <ele>289.6</ele>
        <time>2022-03-04T18:56:45Z</time>
      </trkpt>
      <trkpt lat="46.66124" lon="5.54122">
        <ele>290.2</ele>
        <time>2022-03-04T18:56:46Z</time>
      </trkpt>
      <trkpt lat="46.66126" lon="5.54123">
        <ele>290.2</ele>
        <time>2022-03-04T18:56:47Z</time>
      </trkpt>
      <trkpt lat="46.66129" lon="5.54125">
        <ele>290.4</ele>
        <time>2022-03-04T18:56:48Z</time>
      </trkpt>
      <trkpt lat="46.66132" lon="5.54126">
        <ele>290.4</ele>
        <time>2022-03-04T18:56:49Z</time>
      </trkpt>
      <trkpt lat="46.66134" lon="5.54127">
        <ele>290.6</ele>
        <time>2022-03-04T18:56:50Z</time>
      </trkpt>
      <trkpt lat="46.66136" lon="5.54128">
        <ele>290.6</ele>
        <time>2022-03-04T18:56:51Z</time>
      </trkpt>
      <trkpt lat="46.66138" lon="5.54129">
        <ele>291</ele>
        <time>2022-03-04T18:56:52Z</time>
      </trkpt>
      <trkpt lat="46.6614" lon="5.5413">
        <ele>291</ele>
        <time>2022-03-04T18:56:53Z</time>
      </trkpt>
      <trkpt lat="46.66142" lon="5.5413">
        <ele>291.2</ele>
        <time>2022-03-04T18:56:54Z</time>
      </trkpt>
      <trkpt lat="46.66144" lon="5.54131">
        <ele>291.2</ele>
        <time>2022-03-04T18:56:55Z</time>
      </trkpt>
      <trkpt lat="46.66146" lon="5.54133">
        <ele>291.2</ele>
        <time>2022-03-04T18:56:56Z</time>
      </trkpt>
      <trkpt lat="46.66148" lon="5.54134">
        <ele>291.4</ele>
        <time>2022-03-04T18:56:57Z</time>
      </trkpt>
      <trkpt lat="46.6615" lon="5.54136">
        <ele>291.4</ele>
        <time>2022-03-04T18:56:58Z</time>
      </trkpt>
      <trkpt lat="46.66154" lon="5.54138">
        <ele>291.6</ele>
        <time>2022-03-04T18:56:59Z</time>
      </trkpt>
      <trkpt lat="46.66157" lon="5.54139">
        <ele>291.6</ele>
        <time>2022-03-04T18:57:00Z</time>
      </trkpt>
      <trkpt lat="46.66159" lon="5.54141">
        <ele>292</ele>
        <time>2022-03-04T18:57:01Z</time>
      </trkpt>
      <trkpt lat="46.66161" lon="5.54142">
        <ele>292</ele>
        <time>2022-03-04T18:57:02Z</time>
      </trkpt>
      <trkpt lat="46.66163" lon="5.54144">
        <ele>292</ele>
        <time>2022-03-04T18:57:03Z</time>
      </trkpt>
      <trkpt lat="46.66166" lon="5.54145">
        <ele>292.2</ele>
        <time>2022-03-04T18:57:04Z</time>
      </trkpt>
      <trkpt lat="46.66168" lon="5.54146">
        <ele>292.2</ele>
        <time>2022-03-04T18:57:05Z</time>
      </trkpt>
      <trkpt lat="46.66171" lon="5.54147">
        <ele>292.6</ele>
        <time>2022-03-04T18:57:06Z</time>
      </trkpt>
      <trkpt lat="46.66173" lon="5.54149">
        <ele>292.6</ele>
        <time>2022-03-04T18:57:07Z</time>
      </trkpt>
      <trkpt lat="46.66176" lon="5.54151">
        <ele>292.8</ele>
        <time>2022-03-04T18:57:08Z</time>
      </trkpt>
      <trkpt lat="46.66178" lon="5.54152">
        <ele>292.8</ele>
        <time>2022-03-04T18:57:09Z</time>
      </trkpt>
      <trkpt lat="46.66181" lon="5.54153">
        <ele>292.8</ele>
        <time>2022-03-04T18:57:10Z</time>
      </trkpt>
      <trkpt lat="46.66183" lon="5.54155">
        <ele>293</ele>
        <time>2022-03-04T18:57:11Z</time>
      </trkpt>
      <trkpt lat="46.66186" lon="5.54156">
        <ele>293</ele>
        <time>2022-03-04T18:57:12Z</time>
      </trkpt>
      <trkpt lat="46.66188" lon="5.54158">
        <ele>293</ele>
        <time>2022-03-04T18:57:13Z</time>
      </trkpt>
      <trkpt lat="46.66191" lon="5.54159">
        <ele>293.4</ele>
        <time>2022-03-04T18:57:14Z</time>
      </trkpt>
      <trkpt lat="46.66194" lon="5.54161">
        <ele>293.4</ele>
        <time>2022-03-04T18:57:15Z</time>
      </trkpt>
      <trkpt lat="46.66196" lon="5.54164">
        <ele>293.4</ele>
        <time>2022-03-04T18:57:16Z</time>
      </trkpt>
      <trkpt lat="46.66199" lon="5.54165">
        <ele>293.4</ele>
        <time>2022-03-04T18:57:17Z</time>
      </trkpt>
      <trkpt lat="46.66202" lon="5.54167">
        <ele>293.4</ele>
        <time>2022-03-04T18:57:18Z</time>
      </trkpt>
      <trkpt lat="46.66205" lon="5.54169">
        <ele>293.4</ele>
        <time>2022-03-04T18:57:19Z</time>
      </trkpt>
      <trkpt lat="46.66208" lon="5.54171">
        <ele>293.4</ele>
        <time>2022-03-04T18:57:20Z</time>
      </trkpt>
      <trkpt lat="46.66212" lon="5.54173">
        <ele>293.4</ele>
        <time>2022-03-04T18:57:21Z</time>
      </trkpt>
      <trkpt lat="46.66216" lon="5.54176">
        <ele>293.4</ele>
        <time>2022-03-04T18:57:22Z</time>
      </trkpt>
      <trkpt lat="46.6622" lon="5.54178">
        <ele>293.4</ele>
        <time>2022-03-04T18:57:23Z</time>
      </trkpt>
      <trkpt lat="46.66224" lon="5.5418">
        <ele>293</ele>
        <time>2022-03-04T18:57:24Z</time>
      </trkpt>
      <trkpt lat="46.66229" lon="5.54183">
        <ele>292.8</ele>
        <time>2022-03-04T18:57:25Z</time>
      </trkpt>
      <trkpt lat="46.66234" lon="5.54186">
        <ele>292.8</ele>
        <time>2022-03-04T18:57:26Z</time>
      </trkpt>
      <trkpt lat="46.6624" lon="5.5419">
        <ele>292.4</ele>
        <time>2022-03-04T18:57:27Z</time>
      </trkpt>
      <trkpt lat="46.66246" lon="5.54194">
        <ele>292.4</ele>
        <time>2022-03-04T18:57:28Z</time>
      </trkpt>
      <trkpt lat="46.66252" lon="5.54198">
        <ele>292</ele>
        <time>2022-03-04T18:57:29Z</time>
      </trkpt>
      <trkpt lat="46.66258" lon="5.54203">
        <ele>291.8</ele>
        <time>2022-03-04T18:57:30Z</time>
      </trkpt>
      <trkpt lat="46.66265" lon="5.54207">
        <ele>291.4</ele>
        <time>2022-03-04T18:57:31Z</time>
      </trkpt>
      <trkpt lat="46.66272" lon="5.54212">
        <ele>291.2</ele>
        <time>2022-03-04T18:57:32Z</time>
      </trkpt>
      <trkpt lat="46.66278" lon="5.54216">
        <ele>290.8</ele>
        <time>2022-03-04T18:57:33Z</time>
      </trkpt>
      <trkpt lat="46.66285" lon="5.54221">
        <ele>290.6</ele>
        <time>2022-03-04T18:57:34Z</time>
      </trkpt>
      <trkpt lat="46.66293" lon="5.54226">
        <ele>290.2</ele>
        <time>2022-03-04T18:57:35Z</time>
      </trkpt>
      <trkpt lat="46.663" lon="5.54231">
        <ele>290</ele>
        <time>2022-03-04T18:57:36Z</time>
      </trkpt>
      <trkpt lat="46.66308" lon="5.54235">
        <ele>289.6</ele>
        <time>2022-03-04T18:57:37Z</time>
      </trkpt>
      <trkpt lat="46.66315" lon="5.54239">
        <ele>289.2</ele>
        <time>2022-03-04T18:57:38Z</time>
      </trkpt>
      <trkpt lat="46.66322" lon="5.54244">
        <ele>288.8</ele>
        <time>2022-03-04T18:57:39Z</time>
      </trkpt>
      <trkpt lat="46.6633" lon="5.54248">
        <ele>288.6</ele>
        <time>2022-03-04T18:57:40Z</time>
      </trkpt>
      <trkpt lat="46.66337" lon="5.54253">
        <ele>288.2</ele>
        <time>2022-03-04T18:57:41Z</time>
      </trkpt>
      <trkpt lat="46.66345" lon="5.54258">
        <ele>287.8</ele>
        <time>2022-03-04T18:57:42Z</time>
      </trkpt>
      <trkpt lat="46.66353" lon="5.54262">
        <ele>287.4</ele>
        <time>2022-03-04T18:57:43Z</time>
      </trkpt>
      <trkpt lat="46.66361" lon="5.54266">
        <ele>287.2</ele>
        <time>2022-03-04T18:57:44Z</time>
      </trkpt>
      <trkpt lat="46.66368" lon="5.54271">
        <ele>286.6</ele>
        <time>2022-03-04T18:57:45Z</time>
      </trkpt>
      <trkpt lat="46.66375" lon="5.54275">
        <ele>286.2</ele>
        <time>2022-03-04T18:57:46Z</time>
      </trkpt>
      <trkpt lat="46.66382" lon="5.5428">
        <ele>285.8</ele>
        <time>2022-03-04T18:57:47Z</time>
      </trkpt>
      <trkpt lat="46.66388" lon="5.54285">
        <ele>285.4</ele>
        <time>2022-03-04T18:57:48Z</time>
      </trkpt>
      <trkpt lat="46.66393" lon="5.54291">
        <ele>284.8</ele>
        <time>2022-03-04T18:57:49Z</time>
      </trkpt>
      <trkpt lat="46.66399" lon="5.54296">
        <ele>284.6</ele>
        <time>2022-03-04T18:57:50Z</time>
      </trkpt>
      <trkpt lat="46.66405" lon="5.543">
        <ele>284.2</ele>
        <time>2022-03-04T18:57:51Z</time>
      </trkpt>
      <trkpt lat="46.66412" lon="5.54303">
        <ele>284</ele>
        <time>2022-03-04T18:57:52Z</time>
      </trkpt>
      <trkpt lat="46.66419" lon="5.54305">
        <ele>283.6</ele>
        <time>2022-03-04T18:57:53Z</time>
      </trkpt>
      <trkpt lat="46.66426" lon="5.54307">
        <ele>283.2</ele>
        <time>2022-03-04T18:57:54Z</time>
      </trkpt>
      <trkpt lat="46.66434" lon="5.54311">
        <ele>282.8</ele>
        <time>2022-03-04T18:57:55Z</time>
      </trkpt>
      <trkpt lat="46.66441" lon="5.54316">
        <ele>282.4</ele>
        <time>2022-03-04T18:57:56Z</time>
      </trkpt>
      <trkpt lat="46.66448" lon="5.5432">
        <ele>282</ele>
        <time>2022-03-04T18:57:57Z</time>
      </trkpt>
      <trkpt lat="46.66455" lon="5.54325">
        <ele>281.8</ele>
        <time>2022-03-04T18:57:58Z</time>
      </trkpt>
      <trkpt lat="46.66462" lon="5.5433">
        <ele>281.4</ele>
        <time>2022-03-04T18:57:59Z</time>
      </trkpt>
      <trkpt lat="46.6647" lon="5.54334">
        <ele>281</ele>
        <time>2022-03-04T18:58:00Z</time>
      </trkpt>
      <trkpt lat="46.66477" lon="5.54338">
        <ele>280.6</ele>
        <time>2022-03-04T18:58:01Z</time>
      </trkpt>
      <trkpt lat="46.66484" lon="5.54343">
        <ele>280.4</ele>
        <time>2022-03-04T18:58:02Z</time>
      </trkpt>
      <trkpt lat="46.66492" lon="5.54347">
        <ele>280</ele>
        <time>2022-03-04T18:58:03Z</time>
      </trkpt>
      <trkpt lat="46.66499" lon="5.54352">
        <ele>279.8</ele>
        <time>2022-03-04T18:58:04Z</time>
      </trkpt>
      <trkpt lat="46.66507" lon="5.54356">
        <ele>279.4</ele>
        <time>2022-03-04T18:58:05Z</time>
      </trkpt>
      <trkpt lat="46.66514" lon="5.54361">
        <ele>279.2</ele>
        <time>2022-03-04T18:58:06Z</time>
      </trkpt>
      <trkpt lat="46.66522" lon="5.54365">
        <ele>278.8</ele>
        <time>2022-03-04T18:58:07Z</time>
      </trkpt>
      <trkpt lat="46.66529" lon="5.5437">
        <ele>278.4</ele>
        <time>2022-03-04T18:58:08Z</time>
      </trkpt>
      <trkpt lat="46.66537" lon="5.54374">
        <ele>278</ele>
        <time>2022-03-04T18:58:09Z</time>
      </trkpt>
      <trkpt lat="46.66544" lon="5.54379">
        <ele>277.6</ele>
        <time>2022-03-04T18:58:10Z</time>
      </trkpt>
      <trkpt lat="46.6655" lon="5.54383">
        <ele>277.2</ele>
        <time>2022-03-04T18:58:11Z</time>
      </trkpt>
      <trkpt lat="46.66556" lon="5.54387">
        <ele>276.8</ele>
        <time>2022-03-04T18:58:12Z</time>
      </trkpt>
      <trkpt lat="46.66562" lon="5.54392">
        <ele>276.4</ele>
        <time>2022-03-04T18:58:13Z</time>
      </trkpt>
      <trkpt lat="46.66568" lon="5.54397">
        <ele>276</ele>
        <time>2022-03-04T18:58:14Z</time>
      </trkpt>
      <trkpt lat="46.66573" lon="5.54402">
        <ele>275.6</ele>
        <time>2022-03-04T18:58:15Z</time>
      </trkpt>
      <trkpt lat="46.66578" lon="5.54407">
        <ele>275</ele>
        <time>2022-03-04T18:58:16Z</time>
      </trkpt>
      <trkpt lat="46.66583" lon="5.54412">
        <ele>274.6</ele>
        <time>2022-03-04T18:58:17Z</time>
      </trkpt>
      <trkpt lat="46.66588" lon="5.54417">
        <ele>274.2</ele>
        <time>2022-03-04T18:58:18Z</time>
      </trkpt>
      <trkpt lat="46.66593" lon="5.54422">
        <ele>273.6</ele>
        <time>2022-03-04T18:58:19Z</time>
      </trkpt>
      <trkpt lat="46.66598" lon="5.54426">
        <ele>273.2</ele>
        <time>2022-03-04T18:58:20Z</time>
      </trkpt>
      <trkpt lat="46.66603" lon="5.54431">
        <ele>272.8</ele>
        <time>2022-03-04T18:58:21Z</time>
      </trkpt>
      <trkpt lat="46.66609" lon="5.54437">
        <ele>272.4</ele>
        <time>2022-03-04T18:58:22Z</time>
      </trkpt>
      <trkpt lat="46.66615" lon="5.54442">
        <ele>272</ele>
        <time>2022-03-04T18:58:23Z</time>
      </trkpt>
      <trkpt lat="46.66621" lon="5.54448">
        <ele>271.6</ele>
        <time>2022-03-04T18:58:24Z</time>
      </trkpt>
      <trkpt lat="46.66628" lon="5.54454">
        <ele>271.4</ele>
        <time>2022-03-04T18:58:25Z</time>
      </trkpt>
      <trkpt lat="46.66635" lon="5.5446">
        <ele>271</ele>
        <time>2022-03-04T18:58:26Z</time>
      </trkpt>
      <trkpt lat="46.66641" lon="5.54467">
        <ele>270.6</ele>
        <time>2022-03-04T18:58:27Z</time>
      </trkpt>
      <trkpt lat="46.66648" lon="5.54475">
        <ele>270.2</ele>
        <time>2022-03-04T18:58:28Z</time>
      </trkpt>
      <trkpt lat="46.66654" lon="5.54483">
        <ele>269.8</ele>
        <time>2022-03-04T18:58:29Z</time>
      </trkpt>
      <trkpt lat="46.66662" lon="5.5449">
        <ele>269.2</ele>
        <time>2022-03-04T18:58:30Z</time>
      </trkpt>
      <trkpt lat="46.66669" lon="5.54496">
        <ele>268.8</ele>
        <time>2022-03-04T18:58:31Z</time>
      </trkpt>
      <trkpt lat="46.66676" lon="5.54503">
        <ele>268.2</ele>
        <time>2022-03-04T18:58:32Z</time>
      </trkpt>
      <trkpt lat="46.66684" lon="5.54509">
        <ele>267.8</ele>
        <time>2022-03-04T18:58:33Z</time>
      </trkpt>
      <trkpt lat="46.66692" lon="5.54516">
        <ele>267.4</ele>
        <time>2022-03-04T18:58:34Z</time>
      </trkpt>
      <trkpt lat="46.667" lon="5.54522">
        <ele>266.8</ele>
        <time>2022-03-04T18:58:35Z</time>
      </trkpt>
      <trkpt lat="46.66708" lon="5.54529">
        <ele>266.4</ele>
        <time>2022-03-04T18:58:36Z</time>
      </trkpt>
      <trkpt lat="46.66716" lon="5.54535">
        <ele>265.6</ele>
        <time>2022-03-04T18:58:37Z</time>
      </trkpt>
      <trkpt lat="46.66725" lon="5.54542">
        <ele>265.2</ele>
        <time>2022-03-04T18:58:38Z</time>
      </trkpt>
      <trkpt lat="46.66733" lon="5.54549">
        <ele>264.6</ele>
        <time>2022-03-04T18:58:39Z</time>
      </trkpt>
      <trkpt lat="46.6674" lon="5.54555">
        <ele>264</ele>
        <time>2022-03-04T18:58:40Z</time>
      </trkpt>
      <trkpt lat="46.66747" lon="5.54562">
        <ele>263.4</ele>
        <time>2022-03-04T18:58:41Z</time>
      </trkpt>
      <trkpt lat="46.66754" lon="5.5457">
        <ele>262.8</ele>
        <time>2022-03-04T18:58:42Z</time>
      </trkpt>
      <trkpt lat="46.66759" lon="5.54579">
        <ele>262.2</ele>
        <time>2022-03-04T18:58:43Z</time>
      </trkpt>
      <trkpt lat="46.66764" lon="5.54588">
        <ele>261.6</ele>
        <time>2022-03-04T18:58:44Z</time>
      </trkpt>
      <trkpt lat="46.66767" lon="5.54598">
        <ele>261.2</ele>
        <time>2022-03-04T18:58:45Z</time>
      </trkpt>
      <trkpt lat="46.6677" lon="5.54608">
        <ele>260.8</ele>
        <time>2022-03-04T18:58:46Z</time>
      </trkpt>
      <trkpt lat="46.66771" lon="5.54619">
        <ele>260.4</ele>
        <time>2022-03-04T18:58:47Z</time>
      </trkpt>
      <trkpt lat="46.66771" lon="5.5463">
        <ele>259.8</ele>
        <time>2022-03-04T18:58:48Z</time>
      </trkpt>
      <trkpt lat="46.66769" lon="5.54641">
        <ele>259.6</ele>
        <time>2022-03-04T18:58:49Z</time>
      </trkpt>
      <trkpt lat="46.66768" lon="5.54651">
        <ele>259.2</ele>
        <time>2022-03-04T18:58:50Z</time>
      </trkpt>
      <trkpt lat="46.66767" lon="5.54662">
        <ele>258.6</ele>
        <time>2022-03-04T18:58:51Z</time>
      </trkpt>
      <trkpt lat="46.66766" lon="5.54671">
        <ele>258.2</ele>
        <time>2022-03-04T18:58:52Z</time>
      </trkpt>
      <trkpt lat="46.66765" lon="5.54681">
        <ele>257.6</ele>
        <time>2022-03-04T18:58:53Z</time>
      </trkpt>
      <trkpt lat="46.66765" lon="5.54691">
        <ele>257</ele>
        <time>2022-03-04T18:58:54Z</time>
      </trkpt>
      <trkpt lat="46.66766" lon="5.54701">
        <ele>256.4</ele>
        <time>2022-03-04T18:58:55Z</time>
      </trkpt>
      <trkpt lat="46.66768" lon="5.5471">
        <ele>255.8</ele>
        <time>2022-03-04T18:58:56Z</time>
      </trkpt>
      <trkpt lat="46.66773" lon="5.54718">
        <ele>255.2</ele>
        <time>2022-03-04T18:58:57Z</time>
      </trkpt>
      <trkpt lat="46.66779" lon="5.54724">
        <ele>254.8</ele>
        <time>2022-03-04T18:58:58Z</time>
      </trkpt>
      <trkpt lat="46.66785" lon="5.5473">
        <ele>254.2</ele>
        <time>2022-03-04T18:58:59Z</time>
      </trkpt>
      <trkpt lat="46.66791" lon="5.54733">
        <ele>253.6</ele>
        <time>2022-03-04T18:59:00Z</time>
      </trkpt>
      <trkpt lat="46.66798" lon="5.54735">
        <ele>252.8</ele>
        <time>2022-03-04T18:59:01Z</time>
      </trkpt>
      <trkpt lat="46.66803" lon="5.54736">
        <ele>252.2</ele>
        <time>2022-03-04T18:59:02Z</time>
      </trkpt>
      <trkpt lat="46.66809" lon="5.54736">
        <ele>251.6</ele>
        <time>2022-03-04T18:59:03Z</time>
      </trkpt>
      <trkpt lat="46.66813" lon="5.54736">
        <ele>250.8</ele>
        <time>2022-03-04T18:59:04Z</time>
      </trkpt>
      <trkpt lat="46.66817" lon="5.54735">
        <ele>250.2</ele>
        <time>2022-03-04T18:59:05Z</time>
      </trkpt>
      <trkpt lat="46.66819" lon="5.54734">
        <ele>249.8</ele>
        <time>2022-03-04T18:59:06Z</time>
      </trkpt>
      <trkpt lat="46.66821" lon="5.54733">
        <ele>249.2</ele>
        <time>2022-03-04T18:59:07Z</time>
      </trkpt>
      <trkpt lat="46.66823" lon="5.54731">
        <ele>249</ele>
        <time>2022-03-04T18:59:08Z</time>
      </trkpt>
      <trkpt lat="46.66826" lon="5.54729">
        <ele>248.6</ele>
        <time>2022-03-04T18:59:09Z</time>
      </trkpt>
      <trkpt lat="46.66829" lon="5.54726">
        <ele>248.2</ele>
        <time>2022-03-04T18:59:10Z</time>
      </trkpt>
      <trkpt lat="46.66832" lon="5.54723">
        <ele>248</ele>
        <time>2022-03-04T18:59:11Z</time>
      </trkpt>
      <trkpt lat="46.66837" lon="5.54719">
        <ele>247.8</ele>
        <time>2022-03-04T18:59:12Z</time>
      </trkpt>
      <trkpt lat="46.66841" lon="5.54714">
        <ele>247.6</ele>
        <time>2022-03-04T18:59:13Z</time>
      </trkpt>
      <trkpt lat="46.66846" lon="5.54708">
        <ele>247.4</ele>
        <time>2022-03-04T18:59:14Z</time>
      </trkpt>
      <trkpt lat="46.66851" lon="5.54704">
        <ele>247</ele>
        <time>2022-03-04T18:59:15Z</time>
      </trkpt>
      <trkpt lat="46.66857" lon="5.547">
        <ele>246.6</ele>
        <time>2022-03-04T18:59:16Z</time>
      </trkpt>
      <trkpt lat="46.66863" lon="5.54696">
        <ele>246.4</ele>
        <time>2022-03-04T18:59:17Z</time>
      </trkpt>
      <trkpt lat="46.66869" lon="5.54691">
        <ele>246</ele>
        <time>2022-03-04T18:59:18Z</time>
      </trkpt>
      <trkpt lat="46.66875" lon="5.5469">
        <ele>246</ele>
        <time>2022-03-04T18:59:19Z</time>
      </trkpt>
      <trkpt lat="46.6688" lon="5.54691">
        <ele>246</ele>
        <time>2022-03-04T18:59:20Z</time>
      </trkpt>
      <trkpt lat="46.66885" lon="5.54693">
        <ele>246</ele>
        <time>2022-03-04T18:59:21Z</time>
      </trkpt>
      <trkpt lat="46.6689" lon="5.54696">
        <ele>246</ele>
        <time>2022-03-04T18:59:22Z</time>
      </trkpt>
      <trkpt lat="46.66894" lon="5.54699">
        <ele>246.4</ele>
        <time>2022-03-04T18:59:23Z</time>
      </trkpt>
      <trkpt lat="46.66899" lon="5.54702">
        <ele>246.8</ele>
        <time>2022-03-04T18:59:24Z</time>
      </trkpt>
      <trkpt lat="46.66903" lon="5.54705">
        <ele>247</ele>
        <time>2022-03-04T18:59:25Z</time>
      </trkpt>
      <trkpt lat="46.66907" lon="5.54707">
        <ele>247.2</ele>
        <time>2022-03-04T18:59:26Z</time>
      </trkpt>
      <trkpt lat="46.66911" lon="5.54711">
        <ele>247.6</ele>
        <time>2022-03-04T18:59:27Z</time>
      </trkpt>
      <trkpt lat="46.66915" lon="5.54718">
        <ele>247.8</ele>
        <time>2022-03-04T18:59:28Z</time>
      </trkpt>
      <trkpt lat="46.66917" lon="5.54725">
        <ele>247.8</ele>
        <time>2022-03-04T18:59:29Z</time>
      </trkpt>
      <trkpt lat="46.66919" lon="5.54733">
        <ele>248.2</ele>
        <time>2022-03-04T18:59:30Z</time>
      </trkpt>
      <trkpt lat="46.66919" lon="5.54741">
        <ele>248.2</ele>
        <time>2022-03-04T18:59:31Z</time>
      </trkpt>
      <trkpt lat="46.66918" lon="5.54748">
        <ele>248.4</ele>
        <time>2022-03-04T18:59:32Z</time>
      </trkpt>
      <trkpt lat="46.66917" lon="5.54756">
        <ele>248.4</ele>
        <time>2022-03-04T18:59:33Z</time>
      </trkpt>
      <trkpt lat="46.66915" lon="5.54763">
        <ele>248.8</ele>
        <time>2022-03-04T18:59:34Z</time>
      </trkpt>
      <trkpt lat="46.66914" lon="5.5477">
        <ele>248.8</ele>
        <time>2022-03-04T18:59:35Z</time>
      </trkpt>
      <trkpt lat="46.66913" lon="5.54778">
        <ele>249</ele>
        <time>2022-03-04T18:59:36Z</time>
      </trkpt>
      <trkpt lat="46.66912" lon="5.54785">
        <ele>249</ele>
        <time>2022-03-04T18:59:37Z</time>
      </trkpt>
      <trkpt lat="46.66912" lon="5.54792">
        <ele>249</ele>
        <time>2022-03-04T18:59:38Z</time>
      </trkpt>
      <trkpt lat="46.66911" lon="5.548">
        <ele>249.4</ele>
        <time>2022-03-04T18:59:39Z</time>
      </trkpt>
      <trkpt lat="46.66911" lon="5.54808">
        <ele>249.4</ele>
        <time>2022-03-04T18:59:40Z</time>
      </trkpt>
      <trkpt lat="46.6691" lon="5.54816">
        <ele>249.6</ele>
        <time>2022-03-04T18:59:41Z</time>
      </trkpt>
      <trkpt lat="46.66909" lon="5.54824">
        <ele>249.6</ele>
        <time>2022-03-04T18:59:42Z</time>
      </trkpt>
      <trkpt lat="46.66909" lon="5.54832">
        <ele>249.6</ele>
        <time>2022-03-04T18:59:43Z</time>
      </trkpt>
      <trkpt lat="46.66908" lon="5.54839">
        <ele>249.6</ele>
        <time>2022-03-04T18:59:44Z</time>
      </trkpt>
      <trkpt lat="46.66907" lon="5.54847">
        <ele>249.8</ele>
        <time>2022-03-04T18:59:45Z</time>
      </trkpt>
      <trkpt lat="46.66907" lon="5.54855">
        <ele>249.8</ele>
        <time>2022-03-04T18:59:46Z</time>
      </trkpt>
      <trkpt lat="46.66906" lon="5.54862">
        <ele>250</ele>
        <time>2022-03-04T18:59:47Z</time>
      </trkpt>
      <trkpt lat="46.66906" lon="5.5487">
        <ele>250</ele>
        <time>2022-03-04T18:59:48Z</time>
      </trkpt>
      <trkpt lat="46.66905" lon="5.54877">
        <ele>250.2</ele>
        <time>2022-03-04T18:59:49Z</time>
      </trkpt>
      <trkpt lat="46.66904" lon="5.54885">
        <ele>250.2</ele>
        <time>2022-03-04T18:59:50Z</time>
      </trkpt>
      <trkpt lat="46.66903" lon="5.54892">
        <ele>250.2</ele>
        <time>2022-03-04T18:59:51Z</time>
      </trkpt>
      <trkpt lat="46.66902" lon="5.54899">
        <ele>250.4</ele>
        <time>2022-03-04T18:59:52Z</time>
      </trkpt>
      <trkpt lat="46.66902" lon="5.54906">
        <ele>250.4</ele>
        <time>2022-03-04T18:59:53Z</time>
      </trkpt>
      <trkpt lat="46.66902" lon="5.54914">
        <ele>250.4</ele>
        <time>2022-03-04T18:59:54Z</time>
      </trkpt>
      <trkpt lat="46.66901" lon="5.54922">
        <ele>250.8</ele>
        <time>2022-03-04T18:59:55Z</time>
      </trkpt>
      <trkpt lat="46.66901" lon="5.54929">
        <ele>250.8</ele>
        <time>2022-03-04T18:59:56Z</time>
      </trkpt>
      <trkpt lat="46.66901" lon="5.54937">
        <ele>250.8</ele>
        <time>2022-03-04T18:59:57Z</time>
      </trkpt>
      <trkpt lat="46.669" lon="5.54944">
        <ele>250.8</ele>
        <time>2022-03-04T18:59:58Z</time>
      </trkpt>
      <trkpt lat="46.66899" lon="5.54952">
        <ele>250.8</ele>
        <time>2022-03-04T18:59:59Z</time>
      </trkpt>
      <trkpt lat="46.66899" lon="5.5496">
        <ele>250.8</ele>
        <time>2022-03-04T19:00:00Z</time>
      </trkpt>
      <trkpt lat="46.66898" lon="5.54967">
        <ele>250.8</ele>
        <time>2022-03-04T19:00:01Z</time>
      </trkpt>
      <trkpt lat="46.66898" lon="5.54974">
        <ele>250.8</ele>
        <time>2022-03-04T19:00:02Z</time>
      </trkpt>
      <trkpt lat="46.66897" lon="5.54982">
        <ele>250.8</ele>
        <time>2022-03-04T19:00:03Z</time>
      </trkpt>
      <trkpt lat="46.66896" lon="5.54989">
        <ele>250.8</ele>
        <time>2022-03-04T19:00:04Z</time>
      </trkpt>
      <trkpt lat="46.66896" lon="5.54996">
        <ele>250.8</ele>
        <time>2022-03-04T19:00:05Z</time>
      </trkpt>
      <trkpt lat="46.66896" lon="5.55003">
        <ele>250.8</ele>
        <time>2022-03-04T19:00:06Z</time>
      </trkpt>
      <trkpt lat="46.66895" lon="5.5501">
        <ele>250.8</ele>
        <time>2022-03-04T19:00:07Z</time>
      </trkpt>
      <trkpt lat="46.66895" lon="5.55017">
        <ele>250.8</ele>
        <time>2022-03-04T19:00:08Z</time>
      </trkpt>
      <trkpt lat="46.66895" lon="5.55024">
        <ele>250.8</ele>
        <time>2022-03-04T19:00:09Z</time>
      </trkpt>
      <trkpt lat="46.66895" lon="5.55031">
        <ele>250.8</ele>
        <time>2022-03-04T19:00:10Z</time>
      </trkpt>
      <trkpt lat="46.66894" lon="5.55037">
        <ele>250.4</ele>
        <time>2022-03-04T19:00:11Z</time>
      </trkpt>
      <trkpt lat="46.66895" lon="5.55044">
        <ele>250.4</ele>
        <time>2022-03-04T19:00:12Z</time>
      </trkpt>
      <trkpt lat="46.66895" lon="5.55051">
        <ele>250.4</ele>
        <time>2022-03-04T19:00:13Z</time>
      </trkpt>
      <trkpt lat="46.66895" lon="5.55057">
        <ele>250.4</ele>
        <time>2022-03-04T19:00:14Z</time>
      </trkpt>
      <trkpt lat="46.66895" lon="5.55064">
        <ele>250.4</ele>
        <time>2022-03-04T19:00:15Z</time>
      </trkpt>
      <trkpt lat="46.66895" lon="5.5507">
        <ele>250.4</ele>
        <time>2022-03-04T19:00:16Z</time>
      </trkpt>
      <trkpt lat="46.66894" lon="5.55075">
        <ele>250.4</ele>
        <time>2022-03-04T19:00:17Z</time>
      </trkpt>
      <trkpt lat="46.66894" lon="5.55081">
        <ele>250.4</ele>
        <time>2022-03-04T19:00:18Z</time>
      </trkpt>
      <trkpt lat="46.66895" lon="5.55087">
        <ele>250.4</ele>
        <time>2022-03-04T19:00:19Z</time>
      </trkpt>
      <trkpt lat="46.66895" lon="5.55092">
        <ele>250.4</ele>
        <time>2022-03-04T19:00:20Z</time>
      </trkpt>
      <trkpt lat="46.66895" lon="5.55097">
        <ele>250.4</ele>
        <time>2022-03-04T19:00:21Z</time>
      </trkpt>
      <trkpt lat="46.66895" lon="5.55102">
        <ele>250.4</ele>
        <time>2022-03-04T19:00:22Z</time>
      </trkpt>
      <trkpt lat="46.66895" lon="5.55105">
        <ele>250.4</ele>
        <time>2022-03-04T19:00:23Z</time>
      </trkpt>
      <trkpt lat="46.66896" lon="5.55108">
        <ele>250.4</ele>
        <time>2022-03-04T19:00:24Z</time>
      </trkpt>
      <trkpt lat="46.66896" lon="5.55111">
        <ele>250.4</ele>
        <time>2022-03-04T19:00:25Z</time>
      </trkpt>
      <trkpt lat="46.66897" lon="5.55113">
        <ele>250.4</ele>
        <time>2022-03-04T19:00:26Z</time>
      </trkpt>
      <trkpt lat="46.66897" lon="5.55114">
        <ele>250.4</ele>
        <time>2022-03-04T19:00:27Z</time>
      </trkpt>
      <trkpt lat="46.66897" lon="5.55115">
        <ele>250.4</ele>
        <time>2022-03-04T19:00:28Z</time>
      </trkpt>
      <trkpt lat="46.66897" lon="5.55115">
        <ele>250.4</ele>
        <time>2022-03-04T19:00:29Z</time>
      </trkpt>
      <trkpt lat="46.66897" lon="5.55115">
        <ele>250.4</ele>
        <time>2022-03-04T19:00:30Z</time>
      </trkpt>
      <trkpt lat="46.66897" lon="5.55115">
        <ele>250.4</ele>
        <time>2022-03-04T19:00:31Z</time>
      </trkpt>
      <trkpt lat="46.66897" lon="5.55115">
        <ele>250.4</ele>
        <time>2022-03-04T19:00:32Z</time>
      </trkpt>
      <trkpt lat="46.66897" lon="5.55115">
        <ele>250.4</ele>
        <time>2022-03-04T19:00:33Z</time>
      </trkpt>
      <trkpt lat="46.66897" lon="5.55115">
        <ele>250.4</ele>
        <time>2022-03-04T19:00:34Z</time>
      </trkpt>
      <trkpt lat="46.66901" lon="5.55119">
        <ele>250.4</ele>
        <time>2022-03-04T19:00:36Z</time>
      </trkpt>
      <trkpt lat="46.66902" lon="5.5512">
        <ele>250.4</ele>
        <time>2022-03-04T19:00:37Z</time>
      </trkpt>
      <trkpt lat="46.66903" lon="5.55121">
        <ele>250.4</ele>
        <time>2022-03-04T19:00:38Z</time>
      </trkpt>
      <trkpt lat="46.66905" lon="5.55122">
        <ele>250.2</ele>
        <time>2022-03-04T19:00:39Z</time>
      </trkpt>
      <trkpt lat="46.66906" lon="5.55123">
        <ele>250.2</ele>
        <time>2022-03-04T19:00:40Z</time>
      </trkpt>
      <trkpt lat="46.66907" lon="5.55124">
        <ele>250.2</ele>
        <time>2022-03-04T19:00:41Z</time>
      </trkpt>
      <trkpt lat="46.66907" lon="5.55125">
        <ele>250.2</ele>
        <time>2022-03-04T19:00:42Z</time>
      </trkpt>
      <trkpt lat="46.66908" lon="5.55126">
        <ele>250.2</ele>
        <time>2022-03-04T19:00:43Z</time>
      </trkpt>
      <trkpt lat="46.66909" lon="5.55128">
        <ele>250.2</ele>
        <time>2022-03-04T19:00:44Z</time>
      </trkpt>
      <trkpt lat="46.6691" lon="5.55129">
        <ele>250.2</ele>
        <time>2022-03-04T19:00:45Z</time>
      </trkpt>
      <trkpt lat="46.66911" lon="5.5513">
        <ele>250</ele>
        <time>2022-03-04T19:00:46Z</time>
      </trkpt>
      <trkpt lat="46.66912" lon="5.55131">
        <ele>250</ele>
        <time>2022-03-04T19:00:47Z</time>
      </trkpt>
      <trkpt lat="46.66913" lon="5.55131">
        <ele>249.8</ele>
        <time>2022-03-04T19:00:48Z</time>
      </trkpt>
      <trkpt lat="46.66915" lon="5.55131">
        <ele>249.8</ele>
        <time>2022-03-04T19:00:49Z</time>
      </trkpt>
      <trkpt lat="46.66917" lon="5.55131">
        <ele>249.8</ele>
        <time>2022-03-04T19:00:50Z</time>
      </trkpt>
      <trkpt lat="46.66919" lon="5.55131">
        <ele>249.8</ele>
        <time>2022-03-04T19:00:51Z</time>
      </trkpt>
      <trkpt lat="46.6692" lon="5.55131">
        <ele>249.6</ele>
        <time>2022-03-04T19:00:52Z</time>
      </trkpt>
      <trkpt lat="46.66922" lon="5.55132">
        <ele>249.6</ele>
        <time>2022-03-04T19:00:53Z</time>
      </trkpt>
      <trkpt lat="46.66924" lon="5.55133">
        <ele>249.4</ele>
        <time>2022-03-04T19:00:54Z</time>
      </trkpt>
      <trkpt lat="46.66926" lon="5.55134">
        <ele>249.4</ele>
        <time>2022-03-04T19:00:55Z</time>
      </trkpt>
      <trkpt lat="46.66928" lon="5.55134">
        <ele>249.4</ele>
        <time>2022-03-04T19:00:56Z</time>
      </trkpt>
      <trkpt lat="46.6693" lon="5.55135">
        <ele>249.4</ele>
        <time>2022-03-04T19:00:57Z</time>
      </trkpt>
      <trkpt lat="46.66933" lon="5.55136">
        <ele>249.4</ele>
        <time>2022-03-04T19:00:58Z</time>
      </trkpt>
      <trkpt lat="46.66935" lon="5.55137">
        <ele>249.4</ele>
        <time>2022-03-04T19:00:59Z</time>
      </trkpt>
      <trkpt lat="46.66938" lon="5.55138">
        <ele>249.2</ele>
        <time>2022-03-04T19:01:00Z</time>
      </trkpt>
      <trkpt lat="46.6694" lon="5.55139">
        <ele>249.2</ele>
        <time>2022-03-04T19:01:01Z</time>
      </trkpt>
      <trkpt lat="46.66943" lon="5.5514">
        <ele>249</ele>
        <time>2022-03-04T19:01:02Z</time>
      </trkpt>
      <trkpt lat="46.66945" lon="5.55142">
        <ele>249</ele>
        <time>2022-03-04T19:01:03Z</time>
      </trkpt>
      <trkpt lat="46.66947" lon="5.55143">
        <ele>249</ele>
        <time>2022-03-04T19:01:04Z</time>
      </trkpt>
      <trkpt lat="46.66948" lon="5.55144">
        <ele>248.6</ele>
        <time>2022-03-04T19:01:05Z</time>
      </trkpt>
      <trkpt lat="46.6695" lon="5.55145">
        <ele>248.6</ele>
        <time>2022-03-04T19:01:06Z</time>
      </trkpt>
      <trkpt lat="46.66953" lon="5.55145">
        <ele>248.2</ele>
        <time>2022-03-04T19:01:07Z</time>
      </trkpt>
      <trkpt lat="46.66955" lon="5.55147">
        <ele>248.2</ele>
        <time>2022-03-04T19:01:08Z</time>
      </trkpt>
      <trkpt lat="46.66958" lon="5.55147">
        <ele>248.2</ele>
        <time>2022-03-04T19:01:09Z</time>
      </trkpt>
      <trkpt lat="46.6696" lon="5.55148">
        <ele>248</ele>
        <time>2022-03-04T19:01:10Z</time>
      </trkpt>
      <trkpt lat="46.66963" lon="5.55148">
        <ele>248</ele>
        <time>2022-03-04T19:01:11Z</time>
      </trkpt>
      <trkpt lat="46.66965" lon="5.55149">
        <ele>248</ele>
        <time>2022-03-04T19:01:12Z</time>
      </trkpt>
      <trkpt lat="46.66968" lon="5.5515">
        <ele>247.8</ele>
        <time>2022-03-04T19:01:13Z</time>
      </trkpt>
      <trkpt lat="46.6697" lon="5.5515">
        <ele>247.8</ele>
        <time>2022-03-04T19:01:14Z</time>
      </trkpt>
      <trkpt lat="46.66973" lon="5.55151">
        <ele>247.6</ele>
        <time>2022-03-04T19:01:15Z</time>
      </trkpt>
    </trkseg>
  </trk>
</gpx>